<?xml version='1.0' encoding='UTF-8'?><gpx version="1.1" creator="JPX - https://github.com/jenetics/jpx" xmlns="http://www.topografix.com/GPX/1/1"><trk><trkseg><trkpt lat="42.1499918" lon="14.5852081"><ele>205.0</ele><time>2026-04-18T06:25:36.738Z</time></trkpt><trkpt lat="42.1499353" lon="14.5852662"><ele>205.0</ele><time>2026-04-18T06:25:43.115Z</time></trkpt><trkpt lat="42.1499488" lon="14.5855065"><ele>205.0</ele><time>2026-04-18T06:25:44.114Z</time></trkpt><trkpt lat="42.1498959" lon="14.5854539"><ele>205.0</ele><time>2026-04-18T06:25:47.115Z</time></trkpt><trkpt lat="42.1499184" lon="14.5853363"><ele>205.0</ele><time>2026-04-18T06:26:27.87Z</time></trkpt><trkpt lat="42.1499952" lon="14.5852893"><ele>204.99999999999997</ele><time>2026-04-18T06:27:08.87Z</time></trkpt><trkpt lat="42.1500652" lon="14.5852726"><ele>205.0</ele><time>2026-04-18T06:27:14.87Z</time></trkpt><trkpt lat="42.1501313" lon="14.5852639"><ele>205.0</ele><time>2026-04-18T06:27:17.869Z</time></trkpt><trkpt lat="42.1501993" lon="14.5852044"><ele>205.0</ele><time>2026-04-18T06:27:20.869Z</time></trkpt><trkpt lat="42.1502482" lon="14.5851377"><ele>204.99999999999997</ele><time>2026-04-18T06:27:22.869Z</time></trkpt><trkpt lat="42.1503199" lon="14.5850744"><ele>205.0</ele><time>2026-04-18T06:27:25.87Z</time></trkpt><trkpt lat="42.1503882" lon="14.5850283"><ele>204.99999999999997</ele><time>2026-04-18T06:27:27.87Z</time></trkpt><trkpt lat="42.1504373" lon="14.5849694"><ele>205.0</ele><time>2026-04-18T06:27:29.87Z</time></trkpt><trkpt lat="42.1504975" lon="14.5848837"><ele>205.0</ele><time>2026-04-18T06:27:32.869Z</time></trkpt><trkpt lat="42.1505721" lon="14.5848144"><ele>205.0</ele><time>2026-04-18T06:27:35.87Z</time></trkpt><trkpt lat="42.1506181" lon="14.584736"><ele>204.99999999999997</ele><time>2026-04-18T06:27:37.87Z</time></trkpt><trkpt lat="42.150645" lon="14.5846217"><ele>205.0</ele><time>2026-04-18T06:27:40.87Z</time></trkpt><trkpt lat="42.1506517" lon="14.5845017"><ele>205.71428571428572</ele><time>2026-04-18T06:27:43.87Z</time></trkpt><trkpt lat="42.15065" lon="14.5844083"><ele>206.42857142857142</ele><time>2026-04-18T06:27:45.87Z</time></trkpt><trkpt lat="42.15065" lon="14.584315"><ele>207.14285714285714</ele><time>2026-04-18T06:27:47.87Z</time></trkpt><trkpt lat="42.1506333" lon="14.5842283"><ele>207.85714285714286</ele><time>2026-04-18T06:27:49.87Z</time></trkpt><trkpt lat="42.1506133" lon="14.5841333"><ele>208.57142857142856</ele><time>2026-04-18T06:27:52.87Z</time></trkpt><trkpt lat="42.1505933" lon="14.5840133"><ele>209.28571428571428</ele><time>2026-04-18T06:27:54.869Z</time></trkpt><trkpt lat="42.1505533" lon="14.58393"><ele>210.0</ele><time>2026-04-18T06:27:56.87Z</time></trkpt><trkpt lat="42.1505" lon="14.58384"><ele>210.0</ele><time>2026-04-18T06:27:58.87Z</time></trkpt><trkpt lat="42.1504467" lon="14.58376"><ele>210.0</ele><time>2026-04-18T06:28:00.87Z</time></trkpt><trkpt lat="42.1503933" lon="14.5836883"><ele>210.0</ele><time>2026-04-18T06:28:02.869Z</time></trkpt><trkpt lat="42.1503483" lon="14.5836183"><ele>210.0</ele><time>2026-04-18T06:28:04.87Z</time></trkpt><trkpt lat="42.150295" lon="14.5835267"><ele>210.0</ele><time>2026-04-18T06:28:07.87Z</time></trkpt><trkpt lat="42.1502333" lon="14.5834867"><ele>210.0</ele><time>2026-04-18T06:28:09.869Z</time></trkpt><trkpt lat="42.1501667" lon="14.5834433"><ele>209.83333333333334</ele><time>2026-04-18T06:28:11.87Z</time></trkpt><trkpt lat="42.1501083" lon="14.5833917"><ele>209.66666666666669</ele><time>2026-04-18T06:28:13.869Z</time></trkpt><trkpt lat="42.1500683" lon="14.5832967"><ele>209.5</ele><time>2026-04-18T06:28:15.87Z</time></trkpt><trkpt lat="42.150055" lon="14.5831917"><ele>209.33333333333334</ele><time>2026-04-18T06:28:17.87Z</time></trkpt><trkpt lat="42.150045" lon="14.5830733"><ele>209.16666666666669</ele><time>2026-04-18T06:28:19.869Z</time></trkpt><trkpt lat="42.15004" lon="14.58296"><ele>209.0</ele><time>2026-04-18T06:28:21.87Z</time></trkpt><trkpt lat="42.1500233" lon="14.58286"><ele>209.16666666666669</ele><time>2026-04-18T06:28:23.87Z</time></trkpt><trkpt lat="42.1500133" lon="14.5827533"><ele>209.33333333333334</ele><time>2026-04-18T06:28:25.87Z</time></trkpt><trkpt lat="42.1500133" lon="14.5826517"><ele>209.5</ele><time>2026-04-18T06:28:27.869Z</time></trkpt><trkpt lat="42.150015" lon="14.582545"><ele>209.66666666666669</ele><time>2026-04-18T06:28:29.87Z</time></trkpt><trkpt lat="42.150015" lon="14.5824417"><ele>209.83333333333334</ele><time>2026-04-18T06:28:31.869Z</time></trkpt><trkpt lat="42.15002" lon="14.582345"><ele>210.0</ele><time>2026-04-18T06:28:33.87Z</time></trkpt><trkpt lat="42.1500267" lon="14.5822467"><ele>210.0</ele><time>2026-04-18T06:28:35.87Z</time></trkpt><trkpt lat="42.150035" lon="14.5821367"><ele>210.0</ele><time>2026-04-18T06:28:37.87Z</time></trkpt><trkpt lat="42.1500417" lon="14.5820367"><ele>210.0</ele><time>2026-04-18T06:28:39.87Z</time></trkpt><trkpt lat="42.1500417" lon="14.5819333"><ele>210.0</ele><time>2026-04-18T06:28:41.869Z</time></trkpt><trkpt lat="42.150035" lon="14.5818333"><ele>210.0</ele><time>2026-04-18T06:28:43.869Z</time></trkpt><trkpt lat="42.150035" lon="14.581715"><ele>210.0</ele><time>2026-04-18T06:28:45.87Z</time></trkpt><trkpt lat="42.1500317" lon="14.5816267"><ele>210.0</ele><time>2026-04-18T06:28:47.87Z</time></trkpt><trkpt lat="42.1500317" lon="14.5815333"><ele>210.0</ele><time>2026-04-18T06:28:49.869Z</time></trkpt><trkpt lat="42.1500367" lon="14.581415"><ele>210.0</ele><time>2026-04-18T06:28:51.87Z</time></trkpt><trkpt lat="42.1500367" lon="14.5813117"><ele>210.0</ele><time>2026-04-18T06:28:53.87Z</time></trkpt><trkpt lat="42.1500383" lon="14.58119"><ele>210.0</ele><time>2026-04-18T06:28:55.869Z</time></trkpt><trkpt lat="42.1500517" lon="14.5810633"><ele>210.0</ele><time>2026-04-18T06:28:57.87Z</time></trkpt><trkpt lat="42.150085" lon="14.5808967"><ele>210.5</ele><time>2026-04-18T06:28:59.869Z</time></trkpt><trkpt lat="42.1500967" lon="14.5807817"><ele>211.0</ele><time>2026-04-18T06:29:01.869Z</time></trkpt><trkpt lat="42.15009" lon="14.5806867"><ele>211.5</ele><time>2026-04-18T06:29:03.87Z</time></trkpt><trkpt lat="42.1500883" lon="14.5805817"><ele>212.0</ele><time>2026-04-18T06:29:05.87Z</time></trkpt><trkpt lat="42.15009" lon="14.58047"><ele>212.5</ele><time>2026-04-18T06:29:07.869Z</time></trkpt><trkpt lat="42.150095" lon="14.5803767"><ele>213.0</ele><time>2026-04-18T06:29:09.87Z</time></trkpt><trkpt lat="42.1501417" lon="14.58028"><ele>213.16666666666666</ele><time>2026-04-18T06:29:12.87Z</time></trkpt><trkpt lat="42.1502167" lon="14.5802783"><ele>213.33333333333331</ele><time>2026-04-18T06:29:14.87Z</time></trkpt><trkpt lat="42.150315" lon="14.580285"><ele>213.5</ele><time>2026-04-18T06:29:16.87Z</time></trkpt><trkpt lat="42.1504317" lon="14.5802867"><ele>213.66666666666666</ele><time>2026-04-18T06:29:18.869Z</time></trkpt><trkpt lat="42.1504967" lon="14.5802867"><ele>213.83333333333331</ele><time>2026-04-18T06:29:19.87Z</time></trkpt><trkpt lat="42.1505617" lon="14.5802867"><ele>214.0</ele><time>2026-04-18T06:29:20.87Z</time></trkpt><trkpt lat="42.1506317" lon="14.5802867"><ele>214.00000000000003</ele><time>2026-04-18T06:29:21.87Z</time></trkpt><trkpt lat="42.1507033" lon="14.5802783"><ele>214.0</ele><time>2026-04-18T06:29:22.869Z</time></trkpt><trkpt lat="42.1507717" lon="14.5802717"><ele>214.0</ele><time>2026-04-18T06:29:23.87Z</time></trkpt><trkpt lat="42.1508417" lon="14.580265"><ele>214.0</ele><time>2026-04-18T06:29:24.87Z</time></trkpt><trkpt lat="42.1509117" lon="14.58026"><ele>214.0</ele><time>2026-04-18T06:29:25.869Z</time></trkpt><trkpt lat="42.1509783" lon="14.5802633"><ele>214.00000000000003</ele><time>2026-04-18T06:29:26.87Z</time></trkpt><trkpt lat="42.1510467" lon="14.5802583"><ele>214.0</ele><time>2026-04-18T06:29:27.869Z</time></trkpt><trkpt lat="42.15112" lon="14.58026"><ele>213.16666666666666</ele><time>2026-04-18T06:29:28.87Z</time></trkpt><trkpt lat="42.1511883" lon="14.5802633"><ele>212.33333333333331</ele><time>2026-04-18T06:29:29.87Z</time></trkpt><trkpt lat="42.1513" lon="14.580255"><ele>211.5</ele><time>2026-04-18T06:29:31.869Z</time></trkpt><trkpt lat="42.15138" lon="14.5802417"><ele>210.66666666666669</ele><time>2026-04-18T06:29:33.87Z</time></trkpt><trkpt lat="42.1514467" lon="14.5802317"><ele>209.83333333333334</ele><time>2026-04-18T06:29:35.869Z</time></trkpt><trkpt lat="42.1515283" lon="14.5802617"><ele>209.0</ele><time>2026-04-18T06:29:38.87Z</time></trkpt><trkpt lat="42.1515983" lon="14.5803267"><ele>207.42857142857142</ele><time>2026-04-18T06:29:41.869Z</time></trkpt><trkpt lat="42.1516317" lon="14.5804083"><ele>205.85714285714283</ele><time>2026-04-18T06:29:43.87Z</time></trkpt><trkpt lat="42.1516467" lon="14.5804933"><ele>204.28571428571428</ele><time>2026-04-18T06:29:46.869Z</time></trkpt><trkpt lat="42.151665" lon="14.5805883"><ele>202.71428571428572</ele><time>2026-04-18T06:30:57.871Z</time></trkpt><trkpt lat="42.15166" lon="14.5806817"><ele>201.14285714285714</ele><time>2026-04-18T06:30:59.872Z</time></trkpt><trkpt lat="42.1516467" lon="14.5807883"><ele>199.57142857142858</ele><time>2026-04-18T06:31:01.872Z</time></trkpt><trkpt lat="42.1516233" lon="14.5809067"><ele>198.0</ele><time>2026-04-18T06:31:04.872Z</time></trkpt><trkpt lat="42.1515767" lon="14.5810117"><ele>198.0</ele><time>2026-04-18T06:31:07.872Z</time></trkpt><trkpt lat="42.1515633" lon="14.5811033"><ele>198.0</ele><time>2026-04-18T06:31:09.871Z</time></trkpt><trkpt lat="42.15156" lon="14.5812233"><ele>198.0</ele><time>2026-04-18T06:31:11.871Z</time></trkpt><trkpt lat="42.1515533" lon="14.5813617"><ele>198.0</ele><time>2026-04-18T06:31:13.872Z</time></trkpt><trkpt lat="42.1515617" lon="14.5815517"><ele>198.0</ele><time>2026-04-18T06:31:15.872Z</time></trkpt><trkpt lat="42.1515617" lon="14.5816433"><ele>197.5</ele><time>2026-04-18T06:31:16.871Z</time></trkpt><trkpt lat="42.1515667" lon="14.5817383"><ele>197.0</ele><time>2026-04-18T06:31:17.872Z</time></trkpt><trkpt lat="42.1515717" lon="14.5818333"><ele>196.5</ele><time>2026-04-18T06:31:18.871Z</time></trkpt><trkpt lat="42.15158" lon="14.5819333"><ele>196.0</ele><time>2026-04-18T06:31:19.871Z</time></trkpt><trkpt lat="42.15159" lon="14.5820333"><ele>195.5</ele><time>2026-04-18T06:31:20.872Z</time></trkpt><trkpt lat="42.151615" lon="14.582135"><ele>195.0</ele><time>2026-04-18T06:31:21.871Z</time></trkpt><trkpt lat="42.15165" lon="14.5822383"><ele>194.5</ele><time>2026-04-18T06:31:22.872Z</time></trkpt><trkpt lat="42.1516933" lon="14.5823383"><ele>194.0</ele><time>2026-04-18T06:31:23.872Z</time></trkpt><trkpt lat="42.1517433" lon="14.5824317"><ele>193.5</ele><time>2026-04-18T06:31:24.872Z</time></trkpt><trkpt lat="42.1517917" lon="14.5825217"><ele>193.0</ele><time>2026-04-18T06:31:25.872Z</time></trkpt><trkpt lat="42.1518367" lon="14.5826133"><ele>192.5</ele><time>2026-04-18T06:31:26.872Z</time></trkpt><trkpt lat="42.1518733" lon="14.5826917"><ele>192.0</ele><time>2026-04-18T06:31:27.871Z</time></trkpt><trkpt lat="42.1519333" lon="14.5828083"><ele>192.0</ele><time>2026-04-18T06:31:29.872Z</time></trkpt><trkpt lat="42.1519867" lon="14.5829117"><ele>192.0</ele><time>2026-04-18T06:31:31.871Z</time></trkpt><trkpt lat="42.15205" lon="14.5829867"><ele>192.0</ele><time>2026-04-18T06:31:33.872Z</time></trkpt><trkpt lat="42.1521167" lon="14.58306"><ele>192.0</ele><time>2026-04-18T06:31:35.872Z</time></trkpt><trkpt lat="42.15219" lon="14.5831517"><ele>192.0</ele><time>2026-04-18T06:31:37.871Z</time></trkpt><trkpt lat="42.152265" lon="14.5832617"><ele>192.0</ele><time>2026-04-18T06:31:39.872Z</time></trkpt><trkpt lat="42.1523483" lon="14.5833783"><ele>192.0</ele><time>2026-04-18T06:31:41.871Z</time></trkpt><trkpt lat="42.152395" lon="14.5834433"><ele>192.0</ele><time>2026-04-18T06:31:42.872Z</time></trkpt><trkpt lat="42.1524383" lon="14.5835067"><ele>192.0</ele><time>2026-04-18T06:31:43.872Z</time></trkpt><trkpt lat="42.1524867" lon="14.5835683"><ele>192.0</ele><time>2026-04-18T06:31:44.872Z</time></trkpt><trkpt lat="42.1525383" lon="14.58363"><ele>192.0</ele><time>2026-04-18T06:31:45.872Z</time></trkpt><trkpt lat="42.1525867" lon="14.583705"><ele>190.66666666666666</ele><time>2026-04-18T06:31:46.872Z</time></trkpt><trkpt lat="42.1526417" lon="14.583775"><ele>189.33333333333334</ele><time>2026-04-18T06:31:47.872Z</time></trkpt><trkpt lat="42.1526917" lon="14.5838467"><ele>188.0</ele><time>2026-04-18T06:31:48.871Z</time></trkpt><trkpt lat="42.1527467" lon="14.58392"><ele>186.66666666666669</ele><time>2026-04-18T06:31:49.872Z</time></trkpt><trkpt lat="42.1528017" lon="14.5839933"><ele>185.33333333333334</ele><time>2026-04-18T06:31:50.872Z</time></trkpt><trkpt lat="42.15286" lon="14.5840667"><ele>184.0</ele><time>2026-04-18T06:31:51.872Z</time></trkpt><trkpt lat="42.1529217" lon="14.5841383"><ele>184.0</ele><time>2026-04-18T06:31:52.872Z</time></trkpt><trkpt lat="42.1529817" lon="14.58421"><ele>184.0</ele><time>2026-04-18T06:31:53.871Z</time></trkpt><trkpt lat="42.15304" lon="14.5842833"><ele>184.0</ele><time>2026-04-18T06:31:54.872Z</time></trkpt><trkpt lat="42.153095" lon="14.584365"><ele>184.0</ele><time>2026-04-18T06:31:55.871Z</time></trkpt><trkpt lat="42.1531467" lon="14.5844483"><ele>184.0</ele><time>2026-04-18T06:31:56.872Z</time></trkpt><trkpt lat="42.1531883" lon="14.58454"><ele>184.0</ele><time>2026-04-18T06:31:57.872Z</time></trkpt><trkpt lat="42.1532183" lon="14.58463"><ele>182.83333333333334</ele><time>2026-04-18T06:31:58.871Z</time></trkpt><trkpt lat="42.1532433" lon="14.58472"><ele>181.66666666666669</ele><time>2026-04-18T06:31:59.871Z</time></trkpt><trkpt lat="42.153265" lon="14.584805"><ele>180.5</ele><time>2026-04-18T06:32:00.872Z</time></trkpt><trkpt lat="42.15329" lon="14.58497"><ele>179.33333333333334</ele><time>2026-04-18T06:32:02.872Z</time></trkpt><trkpt lat="42.1533133" lon="14.5850933"><ele>178.16666666666666</ele><time>2026-04-18T06:32:04.872Z</time></trkpt><trkpt lat="42.1533283" lon="14.5851817"><ele>177.0</ele><time>2026-04-18T06:32:06.872Z</time></trkpt><trkpt lat="42.1533767" lon="14.5852683"><ele>177.0</ele><time>2026-04-18T06:32:09.871Z</time></trkpt><trkpt lat="42.15344" lon="14.5852767"><ele>177.0</ele><time>2026-04-18T06:32:11.872Z</time></trkpt><trkpt lat="42.1535167" lon="14.5852533"><ele>177.0</ele><time>2026-04-18T06:32:13.872Z</time></trkpt><trkpt lat="42.1536233" lon="14.58524"><ele>177.0</ele><time>2026-04-18T06:32:15.872Z</time></trkpt><trkpt lat="42.1537433" lon="14.5852367"><ele>177.0</ele><time>2026-04-18T06:32:17.872Z</time></trkpt><trkpt lat="42.1538067" lon="14.5852317"><ele>177.0</ele><time>2026-04-18T06:32:18.872Z</time></trkpt><trkpt lat="42.1538733" lon="14.58523"><ele>177.0</ele><time>2026-04-18T06:32:19.872Z</time></trkpt><trkpt lat="42.15394" lon="14.5852317"><ele>177.0</ele><time>2026-04-18T06:32:20.872Z</time></trkpt><trkpt lat="42.154015" lon="14.58523"><ele>177.0</ele><time>2026-04-18T06:32:21.872Z</time></trkpt><trkpt lat="42.1540883" lon="14.5852267"><ele>177.0</ele><time>2026-04-18T06:32:22.872Z</time></trkpt><trkpt lat="42.1541633" lon="14.5852267"><ele>177.0</ele><time>2026-04-18T06:32:23.872Z</time></trkpt><trkpt lat="42.1542367" lon="14.585235"><ele>177.0</ele><time>2026-04-18T06:32:24.871Z</time></trkpt><trkpt lat="42.1543133" lon="14.5852483"><ele>177.0</ele><time>2026-04-18T06:32:25.871Z</time></trkpt><trkpt lat="42.154385" lon="14.585285"><ele>176.2857142857143</ele><time>2026-04-18T06:32:26.872Z</time></trkpt><trkpt lat="42.154445" lon="14.585345"><ele>175.57142857142856</ele><time>2026-04-18T06:32:27.871Z</time></trkpt><trkpt lat="42.1544967" lon="14.5854183"><ele>174.85714285714286</ele><time>2026-04-18T06:32:28.872Z</time></trkpt><trkpt lat="42.1545417" lon="14.5854917"><ele>174.14285714285717</ele><time>2026-04-18T06:32:29.871Z</time></trkpt><trkpt lat="42.1545833" lon="14.585565"><ele>173.42857142857144</ele><time>2026-04-18T06:32:30.871Z</time></trkpt><trkpt lat="42.1546183" lon="14.58564"><ele>172.71428571428572</ele><time>2026-04-18T06:32:31.872Z</time></trkpt><trkpt lat="42.1546583" lon="14.5857167"><ele>172.0</ele><time>2026-04-18T06:32:32.872Z</time></trkpt><trkpt lat="42.1546933" lon="14.5858"><ele>171.71428571428572</ele><time>2026-04-18T06:32:33.872Z</time></trkpt><trkpt lat="42.154725" lon="14.585885"><ele>171.42857142857144</ele><time>2026-04-18T06:32:34.871Z</time></trkpt><trkpt lat="42.15476" lon="14.5859717"><ele>171.14285714285717</ele><time>2026-04-18T06:32:35.871Z</time></trkpt><trkpt lat="42.154795" lon="14.58606"><ele>170.85714285714286</ele><time>2026-04-18T06:32:36.872Z</time></trkpt><trkpt lat="42.1548333" lon="14.58614"><ele>170.57142857142856</ele><time>2026-04-18T06:32:37.871Z</time></trkpt><trkpt lat="42.1548717" lon="14.586225"><ele>170.2857142857143</ele><time>2026-04-18T06:32:38.872Z</time></trkpt><trkpt lat="42.1549133" lon="14.58631"><ele>170.0</ele><time>2026-04-18T06:32:39.872Z</time></trkpt><trkpt lat="42.154955" lon="14.58639"><ele>169.14285714285714</ele><time>2026-04-18T06:32:40.872Z</time></trkpt><trkpt lat="42.154995" lon="14.5864683"><ele>168.28571428571428</ele><time>2026-04-18T06:32:41.872Z</time></trkpt><trkpt lat="42.155035" lon="14.586545"><ele>167.42857142857142</ele><time>2026-04-18T06:32:42.872Z</time></trkpt><trkpt lat="42.1550783" lon="14.58663"><ele>166.57142857142856</ele><time>2026-04-18T06:32:43.872Z</time></trkpt><trkpt lat="42.15512" lon="14.5867117"><ele>165.71428571428572</ele><time>2026-04-18T06:32:44.871Z</time></trkpt><trkpt lat="42.1551633" lon="14.5867883"><ele>164.85714285714283</ele><time>2026-04-18T06:32:45.871Z</time></trkpt><trkpt lat="42.1552133" lon="14.5868633"><ele>164.0</ele><time>2026-04-18T06:32:46.872Z</time></trkpt><trkpt lat="42.1552667" lon="14.586935"><ele>163.99999999999997</ele><time>2026-04-18T06:32:47.872Z</time></trkpt><trkpt lat="42.1553217" lon="14.5870033"><ele>164.0</ele><time>2026-04-18T06:32:48.872Z</time></trkpt><trkpt lat="42.1553733" lon="14.587075"><ele>164.0</ele><time>2026-04-18T06:32:49.871Z</time></trkpt><trkpt lat="42.15542" lon="14.5871383"><ele>164.0</ele><time>2026-04-18T06:32:50.872Z</time></trkpt><trkpt lat="42.15547" lon="14.5872117"><ele>164.0</ele><time>2026-04-18T06:32:51.872Z</time></trkpt><trkpt lat="42.15552" lon="14.5872817"><ele>163.99999999999997</ele><time>2026-04-18T06:32:52.872Z</time></trkpt><trkpt lat="42.1555717" lon="14.58735"><ele>164.0</ele><time>2026-04-18T06:32:53.871Z</time></trkpt><trkpt lat="42.1556217" lon="14.5874233"><ele>164.14285714285714</ele><time>2026-04-18T06:32:54.872Z</time></trkpt><trkpt lat="42.15567" lon="14.5874967"><ele>164.28571428571428</ele><time>2026-04-18T06:32:55.872Z</time></trkpt><trkpt lat="42.1557233" lon="14.5875667"><ele>164.42857142857144</ele><time>2026-04-18T06:32:56.872Z</time></trkpt><trkpt lat="42.1557733" lon="14.5876333"><ele>164.57142857142856</ele><time>2026-04-18T06:32:57.871Z</time></trkpt><trkpt lat="42.1558233" lon="14.5877067"><ele>164.71428571428572</ele><time>2026-04-18T06:32:58.871Z</time></trkpt><trkpt lat="42.1558717" lon="14.58778"><ele>164.85714285714286</ele><time>2026-04-18T06:32:59.872Z</time></trkpt><trkpt lat="42.1559167" lon="14.5878517"><ele>165.0</ele><time>2026-04-18T06:33:00.872Z</time></trkpt><trkpt lat="42.1559633" lon="14.5879217"><ele>164.16666666666666</ele><time>2026-04-18T06:33:01.872Z</time></trkpt><trkpt lat="42.1560083" lon="14.587995"><ele>163.33333333333334</ele><time>2026-04-18T06:33:02.872Z</time></trkpt><trkpt lat="42.1560467" lon="14.5880717"><ele>162.5</ele><time>2026-04-18T06:33:03.871Z</time></trkpt><trkpt lat="42.1560867" lon="14.5881433"><ele>161.66666666666669</ele><time>2026-04-18T06:33:04.871Z</time></trkpt><trkpt lat="42.1561267" lon="14.58821"><ele>160.83333333333334</ele><time>2026-04-18T06:33:05.872Z</time></trkpt><trkpt lat="42.15617" lon="14.5882767"><ele>160.0</ele><time>2026-04-18T06:33:06.871Z</time></trkpt><trkpt lat="42.1562517" lon="14.5883983"><ele>160.0</ele><time>2026-04-18T06:33:08.872Z</time></trkpt><trkpt lat="42.1563183" lon="14.58851"><ele>160.0</ele><time>2026-04-18T06:33:10.871Z</time></trkpt><trkpt lat="42.1563933" lon="14.5886317"><ele>160.0</ele><time>2026-04-18T06:33:12.871Z</time></trkpt><trkpt lat="42.1564683" lon="14.588755"><ele>160.0</ele><time>2026-04-18T06:33:14.872Z</time></trkpt><trkpt lat="42.1565433" lon="14.5888683"><ele>159.75</ele><time>2026-04-18T06:33:16.872Z</time></trkpt><trkpt lat="42.156625" lon="14.5889867"><ele>159.5</ele><time>2026-04-18T06:33:18.871Z</time></trkpt><trkpt lat="42.1567067" lon="14.5891017"><ele>159.25</ele><time>2026-04-18T06:33:20.872Z</time></trkpt><trkpt lat="42.1567733" lon="14.589225"><ele>159.0</ele><time>2026-04-18T06:33:22.871Z</time></trkpt><trkpt lat="42.1568517" lon="14.5893483"><ele>159.0</ele><time>2026-04-18T06:33:24.872Z</time></trkpt><trkpt lat="42.156935" lon="14.58946"><ele>159.0</ele><time>2026-04-18T06:33:26.872Z</time></trkpt><trkpt lat="42.1570267" lon="14.5895583"><ele>159.0</ele><time>2026-04-18T06:33:28.871Z</time></trkpt><trkpt lat="42.1571283" lon="14.58966"><ele>159.0</ele><time>2026-04-18T06:33:30.871Z</time></trkpt><trkpt lat="42.157225" lon="14.589745"><ele>158.75</ele><time>2026-04-18T06:33:32.872Z</time></trkpt><trkpt lat="42.157325" lon="14.589815"><ele>158.5</ele><time>2026-04-18T06:33:34.872Z</time></trkpt><trkpt lat="42.1574267" lon="14.5899017"><ele>158.25</ele><time>2026-04-18T06:33:36.871Z</time></trkpt><trkpt lat="42.1575267" lon="14.5899883"><ele>158.0</ele><time>2026-04-18T06:33:38.872Z</time></trkpt><trkpt lat="42.15762" lon="14.5900683"><ele>158.0</ele><time>2026-04-18T06:33:40.871Z</time></trkpt><trkpt lat="42.1577117" lon="14.59015"><ele>158.0</ele><time>2026-04-18T06:33:42.872Z</time></trkpt><trkpt lat="42.1578083" lon="14.5902283"><ele>158.0</ele><time>2026-04-18T06:33:44.871Z</time></trkpt><trkpt lat="42.1579033" lon="14.5903067"><ele>158.0</ele><time>2026-04-18T06:33:46.871Z</time></trkpt><trkpt lat="42.1580067" lon="14.5903833"><ele>157.75</ele><time>2026-04-18T06:33:48.872Z</time></trkpt><trkpt lat="42.1581067" lon="14.59047"><ele>157.5</ele><time>2026-04-18T06:33:50.872Z</time></trkpt><trkpt lat="42.1582033" lon="14.590565"><ele>157.25</ele><time>2026-04-18T06:33:52.871Z</time></trkpt><trkpt lat="42.1583033" lon="14.5906683"><ele>157.0</ele><time>2026-04-18T06:33:54.872Z</time></trkpt><trkpt lat="42.1584" lon="14.5907767"><ele>157.0</ele><time>2026-04-18T06:33:56.872Z</time></trkpt><trkpt lat="42.158445" lon="14.5908383"><ele>157.0</ele><time>2026-04-18T06:33:57.872Z</time></trkpt><trkpt lat="42.15853" lon="14.5909583"><ele>157.0</ele><time>2026-04-18T06:33:59.872Z</time></trkpt><trkpt lat="42.1585817" lon="14.591015"><ele>157.0</ele><time>2026-04-18T06:34:00.872Z</time></trkpt><trkpt lat="42.1586317" lon="14.5910717"><ele>157.0</ele><time>2026-04-18T06:34:01.872Z</time></trkpt><trkpt lat="42.1586817" lon="14.59113"><ele>157.0</ele><time>2026-04-18T06:34:02.872Z</time></trkpt><trkpt lat="42.15873" lon="14.59119"><ele>156.66666666666669</ele><time>2026-04-18T06:34:03.872Z</time></trkpt><trkpt lat="42.1587783" lon="14.5912467"><ele>156.33333333333334</ele><time>2026-04-18T06:34:04.872Z</time></trkpt><trkpt lat="42.1588317" lon="14.59131"><ele>156.0</ele><time>2026-04-18T06:34:05.871Z</time></trkpt><trkpt lat="42.1588817" lon="14.5913683"><ele>155.66666666666666</ele><time>2026-04-18T06:34:06.872Z</time></trkpt><trkpt lat="42.15893" lon="14.591425"><ele>155.33333333333331</ele><time>2026-04-18T06:34:07.872Z</time></trkpt><trkpt lat="42.1590217" lon="14.5915367"><ele>155.0</ele><time>2026-04-18T06:34:09.872Z</time></trkpt><trkpt lat="42.1590733" lon="14.59159"><ele>154.85714285714286</ele><time>2026-04-18T06:34:10.871Z</time></trkpt><trkpt lat="42.1591267" lon="14.5916433"><ele>154.71428571428572</ele><time>2026-04-18T06:34:11.872Z</time></trkpt><trkpt lat="42.1591783" lon="14.5917"><ele>154.57142857142856</ele><time>2026-04-18T06:34:12.872Z</time></trkpt><trkpt lat="42.15923" lon="14.59176"><ele>154.42857142857144</ele><time>2026-04-18T06:34:13.871Z</time></trkpt><trkpt lat="42.1592817" lon="14.5918117"><ele>154.28571428571428</ele><time>2026-04-18T06:34:14.871Z</time></trkpt><trkpt lat="42.1593317" lon="14.5918717"><ele>154.14285714285714</ele><time>2026-04-18T06:34:15.871Z</time></trkpt><trkpt lat="42.1593867" lon="14.5919267"><ele>154.0</ele><time>2026-04-18T06:34:16.871Z</time></trkpt><trkpt lat="42.15944" lon="14.5919833"><ele>153.83333333333334</ele><time>2026-04-18T06:34:17.872Z</time></trkpt><trkpt lat="42.1594917" lon="14.5920367"><ele>153.66666666666669</ele><time>2026-04-18T06:34:18.871Z</time></trkpt><trkpt lat="42.1595467" lon="14.592085"><ele>153.5</ele><time>2026-04-18T06:34:19.871Z</time></trkpt><trkpt lat="42.1596483" lon="14.5921883"><ele>153.33333333333334</ele><time>2026-04-18T06:34:21.872Z</time></trkpt><trkpt lat="42.1597017" lon="14.5922467"><ele>153.16666666666666</ele><time>2026-04-18T06:34:22.872Z</time></trkpt><trkpt lat="42.15975" lon="14.5923033"><ele>153.0</ele><time>2026-04-18T06:34:23.872Z</time></trkpt><trkpt lat="42.1597967" lon="14.5923633"><ele>152.8</ele><time>2026-04-18T06:34:24.872Z</time></trkpt><trkpt lat="42.159885" lon="14.592465"><ele>152.60000000000002</ele><time>2026-04-18T06:34:26.872Z</time></trkpt><trkpt lat="42.1599717" lon="14.5925767"><ele>152.39999999999998</ele><time>2026-04-18T06:34:28.871Z</time></trkpt><trkpt lat="42.16007" lon="14.5926833"><ele>152.2</ele><time>2026-04-18T06:34:30.872Z</time></trkpt><trkpt lat="42.160125" lon="14.59273"><ele>152.0</ele><time>2026-04-18T06:34:31.871Z</time></trkpt><trkpt lat="42.1602217" lon="14.5928367"><ele>151.7142857142857</ele><time>2026-04-18T06:34:33.871Z</time></trkpt><trkpt lat="42.16027" lon="14.5928933"><ele>151.42857142857144</ele><time>2026-04-18T06:34:34.872Z</time></trkpt><trkpt lat="42.1603217" lon="14.59295"><ele>151.14285714285714</ele><time>2026-04-18T06:34:35.872Z</time></trkpt><trkpt lat="42.16037" lon="14.59301"><ele>150.85714285714283</ele><time>2026-04-18T06:34:36.872Z</time></trkpt><trkpt lat="42.1604183" lon="14.5930717"><ele>150.57142857142856</ele><time>2026-04-18T06:34:37.872Z</time></trkpt><trkpt lat="42.1604683" lon="14.5931333"><ele>150.28571428571428</ele><time>2026-04-18T06:34:38.872Z</time></trkpt><trkpt lat="42.16052" lon="14.593195"><ele>150.0</ele><time>2026-04-18T06:34:39.871Z</time></trkpt><trkpt lat="42.1605667" lon="14.5932583"><ele>150.0</ele><time>2026-04-18T06:34:40.871Z</time></trkpt><trkpt lat="42.1606167" lon="14.5933167"><ele>150.0</ele><time>2026-04-18T06:34:41.871Z</time></trkpt><trkpt lat="42.1607117" lon="14.593435"><ele>150.0</ele><time>2026-04-18T06:34:43.872Z</time></trkpt><trkpt lat="42.1607633" lon="14.5935017"><ele>150.0</ele><time>2026-04-18T06:34:44.871Z</time></trkpt><trkpt lat="42.1608083" lon="14.5935633"><ele>150.0</ele><time>2026-04-18T06:34:45.872Z</time></trkpt><trkpt lat="42.160855" lon="14.5936267"><ele>150.0</ele><time>2026-04-18T06:34:46.872Z</time></trkpt><trkpt lat="42.1609517" lon="14.5937433"><ele>149.5</ele><time>2026-04-18T06:34:48.872Z</time></trkpt><trkpt lat="42.1610033" lon="14.5938"><ele>149.0</ele><time>2026-04-18T06:34:49.872Z</time></trkpt><trkpt lat="42.1610483" lon="14.5938633"><ele>148.5</ele><time>2026-04-18T06:34:50.872Z</time></trkpt><trkpt lat="42.1611" lon="14.59392"><ele>148.0</ele><time>2026-04-18T06:34:51.871Z</time></trkpt><trkpt lat="42.1611483" lon="14.593985"><ele>147.5</ele><time>2026-04-18T06:34:52.872Z</time></trkpt><trkpt lat="42.161195" lon="14.5940483"><ele>147.0</ele><time>2026-04-18T06:34:53.872Z</time></trkpt><trkpt lat="42.16128" lon="14.5941683"><ele>147.0</ele><time>2026-04-18T06:34:55.871Z</time></trkpt><trkpt lat="42.161325" lon="14.59423"><ele>147.0</ele><time>2026-04-18T06:34:56.872Z</time></trkpt><trkpt lat="42.161375" lon="14.5942883"><ele>147.0</ele><time>2026-04-18T06:34:57.871Z</time></trkpt><trkpt lat="42.16147" lon="14.59441"><ele>147.0</ele><time>2026-04-18T06:34:59.872Z</time></trkpt><trkpt lat="42.1615183" lon="14.5944767"><ele>147.0</ele><time>2026-04-18T06:35:00.872Z</time></trkpt><trkpt lat="42.1615667" lon="14.5945383"><ele>147.0</ele><time>2026-04-18T06:35:01.871Z</time></trkpt><trkpt lat="42.161615" lon="14.5945967"><ele>146.16666666666666</ele><time>2026-04-18T06:35:02.872Z</time></trkpt><trkpt lat="42.1616633" lon="14.594655"><ele>145.33333333333334</ele><time>2026-04-18T06:35:03.872Z</time></trkpt><trkpt lat="42.16171" lon="14.5947233"><ele>144.5</ele><time>2026-04-18T06:35:04.872Z</time></trkpt><trkpt lat="42.1617567" lon="14.5947817"><ele>143.66666666666669</ele><time>2026-04-18T06:35:05.872Z</time></trkpt><trkpt lat="42.16184" lon="14.594895"><ele>142.83333333333334</ele><time>2026-04-18T06:35:07.872Z</time></trkpt><trkpt lat="42.1619267" lon="14.5950083"><ele>142.0</ele><time>2026-04-18T06:35:09.872Z</time></trkpt><trkpt lat="42.162005" lon="14.5951283"><ele>142.0</ele><time>2026-04-18T06:35:11.871Z</time></trkpt><trkpt lat="42.162085" lon="14.59525"><ele>142.0</ele><time>2026-04-18T06:35:13.872Z</time></trkpt><trkpt lat="42.1621583" lon="14.5953717"><ele>142.0</ele><time>2026-04-18T06:35:15.872Z</time></trkpt><trkpt lat="42.1622367" lon="14.5955"><ele>142.0</ele><time>2026-04-18T06:35:17.872Z</time></trkpt><trkpt lat="42.1623133" lon="14.5956333"><ele>141.75</ele><time>2026-04-18T06:35:19.871Z</time></trkpt><trkpt lat="42.1623833" lon="14.5957633"><ele>141.5</ele><time>2026-04-18T06:35:21.871Z</time></trkpt><trkpt lat="42.1624617" lon="14.59589"><ele>141.25</ele><time>2026-04-18T06:35:23.872Z</time></trkpt><trkpt lat="42.162535" lon="14.5960217"><ele>141.0</ele><time>2026-04-18T06:35:25.872Z</time></trkpt><trkpt lat="42.1626067" lon="14.5961583"><ele>141.0</ele><time>2026-04-18T06:35:27.872Z</time></trkpt><trkpt lat="42.16265" lon="14.59622"><ele>141.0</ele><time>2026-04-18T06:35:28.872Z</time></trkpt><trkpt lat="42.1627333" lon="14.596345"><ele>141.0</ele><time>2026-04-18T06:35:30.872Z</time></trkpt><trkpt lat="42.162775" lon="14.59641"><ele>141.0</ele><time>2026-04-18T06:35:31.872Z</time></trkpt><trkpt lat="42.16285" lon="14.596535"><ele>141.0</ele><time>2026-04-18T06:35:33.872Z</time></trkpt><trkpt lat="42.1629283" lon="14.5966633"><ele>141.0</ele><time>2026-04-18T06:35:35.872Z</time></trkpt><trkpt lat="42.1630083" lon="14.5967883"><ele>141.0</ele><time>2026-04-18T06:35:37.872Z</time></trkpt><trkpt lat="42.16308" lon="14.5969233"><ele>141.0</ele><time>2026-04-18T06:35:39.872Z</time></trkpt><trkpt lat="42.1631533" lon="14.597045"><ele>141.0</ele><time>2026-04-18T06:35:41.871Z</time></trkpt><trkpt lat="42.1632283" lon="14.59717"><ele>140.0</ele><time>2026-04-18T06:35:43.872Z</time></trkpt><trkpt lat="42.1633017" lon="14.59729"><ele>139.0</ele><time>2026-04-18T06:35:45.872Z</time></trkpt><trkpt lat="42.163375" lon="14.5974183"><ele>138.0</ele><time>2026-04-18T06:35:47.871Z</time></trkpt><trkpt lat="42.1634417" lon="14.5975433"><ele>137.0</ele><time>2026-04-18T06:35:49.871Z</time></trkpt><trkpt lat="42.1635233" lon="14.5976533"><ele>137.0</ele><time>2026-04-18T06:35:51.872Z</time></trkpt><trkpt lat="42.1636033" lon="14.5977467"><ele>137.0</ele><time>2026-04-18T06:35:53.871Z</time></trkpt><trkpt lat="42.163695" lon="14.5978333"><ele>137.0</ele><time>2026-04-18T06:35:55.872Z</time></trkpt><trkpt lat="42.1638017" lon="14.5978867"><ele>137.0</ele><time>2026-04-18T06:35:57.872Z</time></trkpt><trkpt lat="42.1639217" lon="14.59793"><ele>136.83333333333331</ele><time>2026-04-18T06:35:59.872Z</time></trkpt><trkpt lat="42.1639917" lon="14.5979667"><ele>136.66666666666666</ele><time>2026-04-18T06:36:00.872Z</time></trkpt><trkpt lat="42.1640567" lon="14.5980017"><ele>136.5</ele><time>2026-04-18T06:36:01.871Z</time></trkpt><trkpt lat="42.1641167" lon="14.598035"><ele>136.33333333333334</ele><time>2026-04-18T06:36:02.871Z</time></trkpt><trkpt lat="42.1642283" lon="14.59811"><ele>136.16666666666669</ele><time>2026-04-18T06:36:04.872Z</time></trkpt><trkpt lat="42.164285" lon="14.5981583"><ele>136.0</ele><time>2026-04-18T06:36:05.872Z</time></trkpt><trkpt lat="42.1643433" lon="14.5982017"><ele>135.66666666666669</ele><time>2026-04-18T06:36:06.871Z</time></trkpt><trkpt lat="42.1644" lon="14.5982583"><ele>135.33333333333334</ele><time>2026-04-18T06:36:07.872Z</time></trkpt><trkpt lat="42.164455" lon="14.59831"><ele>135.0</ele><time>2026-04-18T06:36:08.872Z</time></trkpt><trkpt lat="42.164505" lon="14.5983667"><ele>134.66666666666666</ele><time>2026-04-18T06:36:09.872Z</time></trkpt><trkpt lat="42.1645583" lon="14.5984233"><ele>134.33333333333331</ele><time>2026-04-18T06:36:10.871Z</time></trkpt><trkpt lat="42.1646583" lon="14.59853"><ele>134.0</ele><time>2026-04-18T06:36:12.872Z</time></trkpt><trkpt lat="42.1647133" lon="14.5985917"><ele>134.0</ele><time>2026-04-18T06:36:13.872Z</time></trkpt><trkpt lat="42.1647617" lon="14.59866"><ele>134.0</ele><time>2026-04-18T06:36:14.871Z</time></trkpt><trkpt lat="42.164805" lon="14.5987217"><ele>134.0</ele><time>2026-04-18T06:36:15.871Z</time></trkpt><trkpt lat="42.1648517" lon="14.5987917"><ele>134.0</ele><time>2026-04-18T06:36:16.872Z</time></trkpt><trkpt lat="42.1648967" lon="14.5988583"><ele>134.0</ele><time>2026-04-18T06:36:17.872Z</time></trkpt><trkpt lat="42.16494" lon="14.5989233"><ele>134.0</ele><time>2026-04-18T06:36:18.872Z</time></trkpt><trkpt lat="42.16498" lon="14.59899"><ele>134.0</ele><time>2026-04-18T06:36:19.871Z</time></trkpt><trkpt lat="42.1650217" lon="14.5990567"><ele>133.5</ele><time>2026-04-18T06:36:20.872Z</time></trkpt><trkpt lat="42.1651" lon="14.599185"><ele>133.0</ele><time>2026-04-18T06:36:22.871Z</time></trkpt><trkpt lat="42.1651633" lon="14.59932"><ele>132.5</ele><time>2026-04-18T06:36:24.871Z</time></trkpt><trkpt lat="42.1652067" lon="14.5994667"><ele>132.0</ele><time>2026-04-18T06:36:26.872Z</time></trkpt><trkpt lat="42.165245" lon="14.5996117"><ele>132.0</ele><time>2026-04-18T06:36:28.872Z</time></trkpt><trkpt lat="42.1652833" lon="14.5997433"><ele>132.0</ele><time>2026-04-18T06:36:30.871Z</time></trkpt><trkpt lat="42.1653283" lon="14.5998783"><ele>132.0</ele><time>2026-04-18T06:36:32.872Z</time></trkpt><trkpt lat="42.1653917" lon="14.6000117"><ele>132.0</ele><time>2026-04-18T06:36:34.872Z</time></trkpt><trkpt lat="42.1654767" lon="14.6001217"><ele>132.0</ele><time>2026-04-18T06:36:36.871Z</time></trkpt><trkpt lat="42.16556" lon="14.6002233"><ele>132.0</ele><time>2026-04-18T06:36:38.872Z</time></trkpt><trkpt lat="42.1656433" lon="14.6003217"><ele>132.0</ele><time>2026-04-18T06:36:40.872Z</time></trkpt><trkpt lat="42.1657333" lon="14.600415"><ele>132.0</ele><time>2026-04-18T06:36:42.872Z</time></trkpt><trkpt lat="42.165825" lon="14.60052"><ele>131.5</ele><time>2026-04-18T06:36:44.872Z</time></trkpt><trkpt lat="42.165915" lon="14.6006367"><ele>131.0</ele><time>2026-04-18T06:36:46.872Z</time></trkpt><trkpt lat="42.166" lon="14.6007467"><ele>130.5</ele><time>2026-04-18T06:36:48.871Z</time></trkpt><trkpt lat="42.166085" lon="14.6008517"><ele>130.0</ele><time>2026-04-18T06:36:50.871Z</time></trkpt><trkpt lat="42.1661733" lon="14.6009533"><ele>130.0</ele><time>2026-04-18T06:36:52.871Z</time></trkpt><trkpt lat="42.1662583" lon="14.6010517"><ele>130.0</ele><time>2026-04-18T06:36:54.871Z</time></trkpt><trkpt lat="42.16635" lon="14.6011517"><ele>130.0</ele><time>2026-04-18T06:36:56.871Z</time></trkpt><trkpt lat="42.166445" lon="14.6012517"><ele>130.0</ele><time>2026-04-18T06:36:58.872Z</time></trkpt><trkpt lat="42.1665333" lon="14.60135"><ele>129.5</ele><time>2026-04-18T06:37:00.871Z</time></trkpt><trkpt lat="42.1666233" lon="14.60144"><ele>129.0</ele><time>2026-04-18T06:37:02.871Z</time></trkpt><trkpt lat="42.1667117" lon="14.6015467"><ele>128.5</ele><time>2026-04-18T06:37:04.872Z</time></trkpt><trkpt lat="42.1667583" lon="14.601605"><ele>128.0</ele><time>2026-04-18T06:37:05.871Z</time></trkpt><trkpt lat="42.166805" lon="14.6016633"><ele>127.50000000000001</ele><time>2026-04-18T06:37:06.872Z</time></trkpt><trkpt lat="42.1668517" lon="14.6017217"><ele>127.0</ele><time>2026-04-18T06:37:07.872Z</time></trkpt><trkpt lat="42.1669483" lon="14.6018217"><ele>127.0</ele><time>2026-04-18T06:37:09.871Z</time></trkpt><trkpt lat="42.16704" lon="14.6019167"><ele>127.0</ele><time>2026-04-18T06:37:11.872Z</time></trkpt><trkpt lat="42.1671233" lon="14.602025"><ele>127.0</ele><time>2026-04-18T06:37:13.872Z</time></trkpt><trkpt lat="42.1671983" lon="14.602155"><ele>127.0</ele><time>2026-04-18T06:37:15.872Z</time></trkpt><trkpt lat="42.16728" lon="14.6022733"><ele>126.25</ele><time>2026-04-18T06:37:17.872Z</time></trkpt><trkpt lat="42.167365" lon="14.6023817"><ele>125.5</ele><time>2026-04-18T06:37:19.871Z</time></trkpt><trkpt lat="42.1674533" lon="14.6024933"><ele>124.75</ele><time>2026-04-18T06:37:21.872Z</time></trkpt><trkpt lat="42.1675483" lon="14.6025983"><ele>124.0</ele><time>2026-04-18T06:37:23.871Z</time></trkpt><trkpt lat="42.1676367" lon="14.60271"><ele>124.0</ele><time>2026-04-18T06:37:25.872Z</time></trkpt><trkpt lat="42.1677267" lon="14.6028183"><ele>124.0</ele><time>2026-04-18T06:37:27.872Z</time></trkpt><trkpt lat="42.1678133" lon="14.6029233"><ele>124.0</ele><time>2026-04-18T06:37:29.872Z</time></trkpt><trkpt lat="42.1678633" lon="14.602975"><ele>124.0</ele><time>2026-04-18T06:37:30.871Z</time></trkpt><trkpt lat="42.167945" lon="14.6030817"><ele>124.0</ele><time>2026-04-18T06:37:32.872Z</time></trkpt><trkpt lat="42.168035" lon="14.6031933"><ele>124.2</ele><time>2026-04-18T06:37:34.872Z</time></trkpt><trkpt lat="42.168115" lon="14.60332"><ele>124.4</ele><time>2026-04-18T06:37:36.872Z</time></trkpt><trkpt lat="42.1681917" lon="14.6034333"><ele>124.6</ele><time>2026-04-18T06:37:38.872Z</time></trkpt><trkpt lat="42.1682683" lon="14.603565"><ele>124.8</ele><time>2026-04-18T06:37:40.872Z</time></trkpt><trkpt lat="42.16831" lon="14.6036317"><ele>125.0</ele><time>2026-04-18T06:37:41.872Z</time></trkpt><trkpt lat="42.1683767" lon="14.6037667"><ele>124.25</ele><time>2026-04-18T06:37:43.872Z</time></trkpt><trkpt lat="42.16845" lon="14.6038917"><ele>123.5</ele><time>2026-04-18T06:37:45.872Z</time></trkpt><trkpt lat="42.16853" lon="14.6040133"><ele>122.75</ele><time>2026-04-18T06:37:47.872Z</time></trkpt><trkpt lat="42.1686133" lon="14.604125"><ele>122.0</ele><time>2026-04-18T06:37:49.871Z</time></trkpt><trkpt lat="42.1686967" lon="14.6042367"><ele>122.0</ele><time>2026-04-18T06:37:51.871Z</time></trkpt><trkpt lat="42.1687767" lon="14.6043483"><ele>121.99999999999999</ele><time>2026-04-18T06:37:53.871Z</time></trkpt><trkpt lat="42.16885" lon="14.6044583"><ele>121.99999999999999</ele><time>2026-04-18T06:37:55.872Z</time></trkpt><trkpt lat="42.1689217" lon="14.6045817"><ele>122.0</ele><time>2026-04-18T06:37:57.872Z</time></trkpt><trkpt lat="42.1689667" lon="14.6046417"><ele>122.0</ele><time>2026-04-18T06:37:58.872Z</time></trkpt><trkpt lat="42.1690517" lon="14.6047567"><ele>121.39999999999999</ele><time>2026-04-18T06:38:00.871Z</time></trkpt><trkpt lat="42.1691383" lon="14.60487"><ele>120.79999999999998</ele><time>2026-04-18T06:38:02.871Z</time></trkpt><trkpt lat="42.16922" lon="14.6049867"><ele>120.2</ele><time>2026-04-18T06:38:04.871Z</time></trkpt><trkpt lat="42.1693083" lon="14.605095"><ele>119.6</ele><time>2026-04-18T06:38:06.872Z</time></trkpt><trkpt lat="42.1693567" lon="14.6051517"><ele>119.0</ele><time>2026-04-18T06:38:07.872Z</time></trkpt><trkpt lat="42.1694433" lon="14.6052683"><ele>119.0</ele><time>2026-04-18T06:38:09.872Z</time></trkpt><trkpt lat="42.169535" lon="14.6053817"><ele>119.0</ele><time>2026-04-18T06:38:11.872Z</time></trkpt><trkpt lat="42.1696283" lon="14.6054883"><ele>119.0</ele><time>2026-04-18T06:38:13.872Z</time></trkpt><trkpt lat="42.1697133" lon="14.6055917"><ele>119.0</ele><time>2026-04-18T06:38:15.872Z</time></trkpt><trkpt lat="42.1698" lon="14.6056983"><ele>118.5</ele><time>2026-04-18T06:38:17.871Z</time></trkpt><trkpt lat="42.169885" lon="14.6058017"><ele>118.0</ele><time>2026-04-18T06:38:19.872Z</time></trkpt><trkpt lat="42.1699783" lon="14.6059"><ele>117.5</ele><time>2026-04-18T06:38:21.872Z</time></trkpt><trkpt lat="42.17006" lon="14.6060083"><ele>117.0</ele><time>2026-04-18T06:38:23.872Z</time></trkpt><trkpt lat="42.1701367" lon="14.6061267"><ele>117.0</ele><time>2026-04-18T06:38:25.871Z</time></trkpt><trkpt lat="42.170185" lon="14.6061817"><ele>116.99999999999999</ele><time>2026-04-18T06:38:26.872Z</time></trkpt><trkpt lat="42.1702817" lon="14.6062817"><ele>116.99999999999999</ele><time>2026-04-18T06:38:28.872Z</time></trkpt><trkpt lat="42.1703717" lon="14.6063933"><ele>117.0</ele><time>2026-04-18T06:38:30.872Z</time></trkpt><trkpt lat="42.1704567" lon="14.606515"><ele>117.0</ele><time>2026-04-18T06:38:32.872Z</time></trkpt><trkpt lat="42.1705417" lon="14.6066267"><ele>117.0</ele><time>2026-04-18T06:38:34.872Z</time></trkpt><trkpt lat="42.170625" lon="14.6067367"><ele>117.0</ele><time>2026-04-18T06:38:36.872Z</time></trkpt><trkpt lat="42.17071" lon="14.6068467"><ele>117.0</ele><time>2026-04-18T06:38:38.871Z</time></trkpt><trkpt lat="42.1707983" lon="14.6069533"><ele>117.0</ele><time>2026-04-18T06:38:40.872Z</time></trkpt><trkpt lat="42.17088" lon="14.6070667"><ele>116.5</ele><time>2026-04-18T06:38:42.871Z</time></trkpt><trkpt lat="42.1709667" lon="14.6071733"><ele>116.0</ele><time>2026-04-18T06:38:44.872Z</time></trkpt><trkpt lat="42.1710567" lon="14.607285"><ele>115.5</ele><time>2026-04-18T06:38:46.872Z</time></trkpt><trkpt lat="42.171135" lon="14.6074017"><ele>115.0</ele><time>2026-04-18T06:38:48.871Z</time></trkpt><trkpt lat="42.1712067" lon="14.6075367"><ele>115.0</ele><time>2026-04-18T06:38:50.871Z</time></trkpt><trkpt lat="42.1712867" lon="14.6076583"><ele>115.0</ele><time>2026-04-18T06:38:52.871Z</time></trkpt><trkpt lat="42.1713717" lon="14.60777"><ele>115.0</ele><time>2026-04-18T06:38:54.872Z</time></trkpt><trkpt lat="42.171455" lon="14.60788"><ele>115.0</ele><time>2026-04-18T06:38:56.872Z</time></trkpt><trkpt lat="42.171495" lon="14.60795"><ele>115.0</ele><time>2026-04-18T06:38:57.872Z</time></trkpt><trkpt lat="42.1715383" lon="14.6080133"><ele>114.25</ele><time>2026-04-18T06:38:58.872Z</time></trkpt><trkpt lat="42.1716117" lon="14.6081283"><ele>113.5</ele><time>2026-04-18T06:39:00.872Z</time></trkpt><trkpt lat="42.1717" lon="14.6082467"><ele>112.75</ele><time>2026-04-18T06:39:02.872Z</time></trkpt><trkpt lat="42.1717933" lon="14.6083583"><ele>112.0</ele><time>2026-04-18T06:39:04.872Z</time></trkpt><trkpt lat="42.17189" lon="14.6084617"><ele>112.0</ele><time>2026-04-18T06:39:06.872Z</time></trkpt><trkpt lat="42.17194" lon="14.6085167"><ele>111.99999999999999</ele><time>2026-04-18T06:39:07.871Z</time></trkpt><trkpt lat="42.1720317" lon="14.6086217"><ele>111.99999999999999</ele><time>2026-04-18T06:39:09.871Z</time></trkpt><trkpt lat="42.1721217" lon="14.6087233"><ele>112.0</ele><time>2026-04-18T06:39:11.872Z</time></trkpt><trkpt lat="42.17217" lon="14.6087833"><ele>112.0</ele><time>2026-04-18T06:39:12.871Z</time></trkpt><trkpt lat="42.1722683" lon="14.6088783"><ele>111.19999999999999</ele><time>2026-04-18T06:39:14.872Z</time></trkpt><trkpt lat="42.17235" lon="14.6089967"><ele>110.39999999999999</ele><time>2026-04-18T06:39:16.872Z</time></trkpt><trkpt lat="42.1723933" lon="14.6090617"><ele>109.60000000000001</ele><time>2026-04-18T06:39:17.872Z</time></trkpt><trkpt lat="42.1724733" lon="14.6091883"><ele>108.80000000000001</ele><time>2026-04-18T06:39:19.872Z</time></trkpt><trkpt lat="42.1725517" lon="14.6092967"><ele>108.0</ele><time>2026-04-18T06:39:21.871Z</time></trkpt><trkpt lat="42.1726433" lon="14.6094033"><ele>106.66666666666667</ele><time>2026-04-18T06:39:23.872Z</time></trkpt><trkpt lat="42.1727283" lon="14.6095133"><ele>105.33333333333334</ele><time>2026-04-18T06:39:25.871Z</time></trkpt><trkpt lat="42.1727933" lon="14.6095533"><ele>104.0</ele><time>2026-04-18T06:39:26.872Z</time></trkpt><trkpt lat="42.1728533" lon="14.6095933"><ele>102.66666666666667</ele><time>2026-04-18T06:39:27.872Z</time></trkpt><trkpt lat="42.172915" lon="14.6096217"><ele>101.33333333333334</ele><time>2026-04-18T06:39:28.872Z</time></trkpt><trkpt lat="42.1729817" lon="14.60965"><ele>100.0</ele><time>2026-04-18T06:39:29.872Z</time></trkpt><trkpt lat="42.1730917" lon="14.6097267"><ele>100.0</ele><time>2026-04-18T06:39:31.872Z</time></trkpt><trkpt lat="42.1731833" lon="14.6098167"><ele>100.0</ele><time>2026-04-18T06:39:33.871Z</time></trkpt><trkpt lat="42.1732683" lon="14.609905"><ele>100.0</ele><time>2026-04-18T06:39:35.872Z</time></trkpt><trkpt lat="42.17336" lon="14.6099867"><ele>100.0</ele><time>2026-04-18T06:39:37.872Z</time></trkpt><trkpt lat="42.1734383" lon="14.6100683"><ele>100.0</ele><time>2026-04-18T06:39:39.871Z</time></trkpt><trkpt lat="42.1735183" lon="14.6100967"><ele>99.8</ele><time>2026-04-18T06:39:41.871Z</time></trkpt><trkpt lat="42.1736117" lon="14.6100767"><ele>99.6</ele><time>2026-04-18T06:39:43.872Z</time></trkpt><trkpt lat="42.173705" lon="14.6100583"><ele>99.4</ele><time>2026-04-18T06:39:45.871Z</time></trkpt><trkpt lat="42.1737933" lon="14.6100517"><ele>99.2</ele><time>2026-04-18T06:39:47.872Z</time></trkpt><trkpt lat="42.17388" lon="14.6100567"><ele>99.0</ele><time>2026-04-18T06:39:49.871Z</time></trkpt><trkpt lat="42.17398" lon="14.61007"><ele>97.5</ele><time>2026-04-18T06:39:51.872Z</time></trkpt><trkpt lat="42.1740867" lon="14.610085"><ele>96.0</ele><time>2026-04-18T06:39:53.871Z</time></trkpt><trkpt lat="42.1742033" lon="14.6101"><ele>94.5</ele><time>2026-04-18T06:39:55.871Z</time></trkpt><trkpt lat="42.1743133" lon="14.6101383"><ele>93.0</ele><time>2026-04-18T06:39:57.871Z</time></trkpt><trkpt lat="42.174435" lon="14.6101917"><ele>93.0</ele><time>2026-04-18T06:39:59.872Z</time></trkpt><trkpt lat="42.174505" lon="14.6102167"><ele>93.0</ele><time>2026-04-18T06:40:00.871Z</time></trkpt><trkpt lat="42.1745817" lon="14.6102483"><ele>93.0</ele><time>2026-04-18T06:40:01.872Z</time></trkpt><trkpt lat="42.1746683" lon="14.61027"><ele>93.0</ele><time>2026-04-18T06:40:02.871Z</time></trkpt><trkpt lat="42.17475" lon="14.6102917"><ele>93.0</ele><time>2026-04-18T06:40:03.872Z</time></trkpt><trkpt lat="42.1748317" lon="14.610315"><ele>93.0</ele><time>2026-04-18T06:40:04.872Z</time></trkpt><trkpt lat="42.1749117" lon="14.610335"><ele>90.0</ele><time>2026-04-18T06:40:05.872Z</time></trkpt><trkpt lat="42.1749933" lon="14.610355"><ele>87.0</ele><time>2026-04-18T06:40:06.872Z</time></trkpt><trkpt lat="42.1750683" lon="14.6103667"><ele>84.0</ele><time>2026-04-18T06:40:07.871Z</time></trkpt><trkpt lat="42.1751433" lon="14.6103833"><ele>81.0</ele><time>2026-04-18T06:40:08.871Z</time></trkpt><trkpt lat="42.1752217" lon="14.6104083"><ele>78.0</ele><time>2026-04-18T06:40:09.871Z</time></trkpt><trkpt lat="42.1753033" lon="14.6104267"><ele>75.0</ele><time>2026-04-18T06:40:10.871Z</time></trkpt><trkpt lat="42.1753817" lon="14.6104367"><ele>75.0</ele><time>2026-04-18T06:40:11.872Z</time></trkpt><trkpt lat="42.1754567" lon="14.6104433"><ele>75.0</ele><time>2026-04-18T06:40:12.871Z</time></trkpt><trkpt lat="42.175525" lon="14.6104483"><ele>75.0</ele><time>2026-04-18T06:40:13.872Z</time></trkpt><trkpt lat="42.1755983" lon="14.6104567"><ele>75.0</ele><time>2026-04-18T06:40:14.872Z</time></trkpt><trkpt lat="42.175665" lon="14.6104667"><ele>75.0</ele><time>2026-04-18T06:40:15.872Z</time></trkpt><trkpt lat="42.1757317" lon="14.6104833"><ele>75.0</ele><time>2026-04-18T06:40:16.872Z</time></trkpt><trkpt lat="42.1758383" lon="14.6105467"><ele>73.2</ele><time>2026-04-18T06:40:18.871Z</time></trkpt><trkpt lat="42.17593" lon="14.6106433"><ele>71.4</ele><time>2026-04-18T06:40:20.872Z</time></trkpt><trkpt lat="42.1760233" lon="14.6107483"><ele>69.6</ele><time>2026-04-18T06:40:22.872Z</time></trkpt><trkpt lat="42.1760717" lon="14.6108033"><ele>67.8</ele><time>2026-04-18T06:40:23.872Z</time></trkpt><trkpt lat="42.1761633" lon="14.6109283"><ele>66.0</ele><time>2026-04-18T06:40:25.871Z</time></trkpt><trkpt lat="42.1762133" lon="14.6109883"><ele>66.0</ele><time>2026-04-18T06:40:26.872Z</time></trkpt><trkpt lat="42.1762633" lon="14.6110483"><ele>66.0</ele><time>2026-04-18T06:40:27.872Z</time></trkpt><trkpt lat="42.176315" lon="14.61111"><ele>66.0</ele><time>2026-04-18T06:40:28.872Z</time></trkpt><trkpt lat="42.176365" lon="14.61118"><ele>66.0</ele><time>2026-04-18T06:40:29.872Z</time></trkpt><trkpt lat="42.176415" lon="14.6112417"><ele>66.0</ele><time>2026-04-18T06:40:30.872Z</time></trkpt><trkpt lat="42.1764667" lon="14.611305"><ele>66.0</ele><time>2026-04-18T06:40:31.872Z</time></trkpt><trkpt lat="42.1765183" lon="14.6113683"><ele>66.0</ele><time>2026-04-18T06:40:32.871Z</time></trkpt><trkpt lat="42.1766117" lon="14.6114667"><ele>64.6</ele><time>2026-04-18T06:40:34.872Z</time></trkpt><trkpt lat="42.1767167" lon="14.6114983"><ele>63.199999999999996</ele><time>2026-04-18T06:40:36.872Z</time></trkpt><trkpt lat="42.1768367" lon="14.6114633"><ele>61.800000000000004</ele><time>2026-04-18T06:40:38.872Z</time></trkpt><trkpt lat="42.1768983" lon="14.6114383"><ele>60.400000000000006</ele><time>2026-04-18T06:40:39.871Z</time></trkpt><trkpt lat="42.1769633" lon="14.6114067"><ele>59.0</ele><time>2026-04-18T06:40:40.872Z</time></trkpt><trkpt lat="42.17708" lon="14.6113683"><ele>59.0</ele><time>2026-04-18T06:40:42.872Z</time></trkpt><trkpt lat="42.1772017" lon="14.6113467"><ele>59.0</ele><time>2026-04-18T06:40:44.872Z</time></trkpt><trkpt lat="42.1773167" lon="14.6113333"><ele>59.0</ele><time>2026-04-18T06:40:46.871Z</time></trkpt><trkpt lat="42.17743" lon="14.6113183"><ele>59.0</ele><time>2026-04-18T06:40:48.871Z</time></trkpt><trkpt lat="42.1775417" lon="14.611305"><ele>58.400000000000006</ele><time>2026-04-18T06:40:50.872Z</time></trkpt><trkpt lat="42.1776483" lon="14.6112933"><ele>57.800000000000004</ele><time>2026-04-18T06:40:52.872Z</time></trkpt><trkpt lat="42.1777583" lon="14.611275"><ele>57.199999999999996</ele><time>2026-04-18T06:40:54.872Z</time></trkpt><trkpt lat="42.1778567" lon="14.611265"><ele>56.599999999999994</ele><time>2026-04-18T06:40:56.872Z</time></trkpt><trkpt lat="42.1779433" lon="14.6112617"><ele>56.0</ele><time>2026-04-18T06:40:58.872Z</time></trkpt><trkpt lat="42.178015" lon="14.6112733"><ele>56.0</ele><time>2026-04-18T06:41:00.872Z</time></trkpt><trkpt lat="42.1780883" lon="14.611325"><ele>55.99999999999999</ele><time>2026-04-18T06:41:02.871Z</time></trkpt><trkpt lat="42.17818" lon="14.6113967"><ele>55.99999999999999</ele><time>2026-04-18T06:41:04.872Z</time></trkpt><trkpt lat="42.178285" lon="14.6114683"><ele>56.0</ele><time>2026-04-18T06:41:06.872Z</time></trkpt><trkpt lat="42.1783983" lon="14.6115283"><ele>56.0</ele><time>2026-04-18T06:41:08.872Z</time></trkpt><trkpt lat="42.17851" lon="14.611565"><ele>55.8</ele><time>2026-04-18T06:41:10.872Z</time></trkpt><trkpt lat="42.17861" lon="14.611575"><ele>55.599999999999994</ele><time>2026-04-18T06:41:12.872Z</time></trkpt><trkpt lat="42.1787067" lon="14.6115933"><ele>55.4</ele><time>2026-04-18T06:41:14.872Z</time></trkpt><trkpt lat="42.178805" lon="14.61161"><ele>55.2</ele><time>2026-04-18T06:41:16.871Z</time></trkpt><trkpt lat="42.1789017" lon="14.6116283"><ele>55.0</ele><time>2026-04-18T06:41:18.872Z</time></trkpt><trkpt lat="42.1789917" lon="14.6116483"><ele>54.83333333333333</ele><time>2026-04-18T06:41:20.872Z</time></trkpt><trkpt lat="42.1790767" lon="14.6116533"><ele>54.666666666666664</ele><time>2026-04-18T06:41:22.872Z</time></trkpt><trkpt lat="42.17917" lon="14.6116517"><ele>54.5</ele><time>2026-04-18T06:41:24.872Z</time></trkpt><trkpt lat="42.179255" lon="14.6116467"><ele>54.33333333333333</ele><time>2026-04-18T06:41:26.872Z</time></trkpt><trkpt lat="42.1793433" lon="14.61163"><ele>54.166666666666664</ele><time>2026-04-18T06:41:28.872Z</time></trkpt><trkpt lat="42.1794283" lon="14.61162"><ele>54.0</ele><time>2026-04-18T06:41:30.872Z</time></trkpt><trkpt lat="42.179515" lon="14.6116117"><ele>54.0</ele><time>2026-04-18T06:41:32.871Z</time></trkpt><trkpt lat="42.1796" lon="14.61161"><ele>54.00000000000001</ele><time>2026-04-18T06:41:34.871Z</time></trkpt><trkpt lat="42.179695" lon="14.6116333"><ele>54.00000000000001</ele><time>2026-04-18T06:41:36.871Z</time></trkpt><trkpt lat="42.1798" lon="14.6116517"><ele>54.0</ele><time>2026-04-18T06:41:38.872Z</time></trkpt><trkpt lat="42.1799083" lon="14.6116717"><ele>54.0</ele><time>2026-04-18T06:41:40.872Z</time></trkpt><trkpt lat="42.1800133" lon="14.6116633"><ele>53.400000000000006</ele><time>2026-04-18T06:41:42.872Z</time></trkpt><trkpt lat="42.180115" lon="14.61163"><ele>52.800000000000004</ele><time>2026-04-18T06:41:44.871Z</time></trkpt><trkpt lat="42.1802217" lon="14.6115767"><ele>52.2</ele><time>2026-04-18T06:41:46.872Z</time></trkpt><trkpt lat="42.18032" lon="14.6115233"><ele>51.599999999999994</ele><time>2026-04-18T06:41:48.871Z</time></trkpt><trkpt lat="42.1803883" lon="14.611475"><ele>51.0</ele><time>2026-04-18T06:41:50.872Z</time></trkpt><trkpt lat="42.1804417" lon="14.611415"><ele>51.0</ele><time>2026-04-18T06:41:53.872Z</time></trkpt><trkpt lat="42.1804733" lon="14.6113333"><ele>51.0</ele><time>2026-04-18T06:41:57.872Z</time></trkpt><trkpt lat="42.1804467" lon="14.6112117"><ele>51.0</ele><time>2026-04-18T06:42:00.871Z</time></trkpt><trkpt lat="42.1804217" lon="14.611105"><ele>51.0</ele><time>2026-04-18T06:42:02.872Z</time></trkpt><trkpt lat="42.18039" lon="14.6109917"><ele>51.0</ele><time>2026-04-18T06:42:04.871Z</time></trkpt><trkpt lat="42.180365" lon="14.610875"><ele>51.0</ele><time>2026-04-18T06:42:06.871Z</time></trkpt><trkpt lat="42.1803383" lon="14.61077"><ele>52.333333333333336</ele><time>2026-04-18T06:42:08.872Z</time></trkpt><trkpt lat="42.18032" lon="14.6106867"><ele>53.66666666666667</ele><time>2026-04-18T06:42:10.872Z</time></trkpt><trkpt lat="42.1803017" lon="14.6105833"><ele>55.0</ele><time>2026-04-18T06:42:13.871Z</time></trkpt><trkpt lat="42.1802733" lon="14.6104817"><ele>56.333333333333336</ele><time>2026-04-18T06:42:16.872Z</time></trkpt><trkpt lat="42.180245" lon="14.61037"><ele>57.66666666666667</ele><time>2026-04-18T06:42:19.872Z</time></trkpt><trkpt lat="42.1802317" lon="14.6102617"><ele>59.0</ele><time>2026-04-18T06:42:22.871Z</time></trkpt><trkpt lat="42.180215" lon="14.6101783"><ele>61.0</ele><time>2026-04-18T06:42:24.872Z</time></trkpt><trkpt lat="42.1802083" lon="14.6100683"><ele>63.0</ele><time>2026-04-18T06:42:27.871Z</time></trkpt><trkpt lat="42.1802033" lon="14.6099633"><ele>65.0</ele><time>2026-04-18T06:42:30.872Z</time></trkpt><trkpt lat="42.1801783" lon="14.6098817"><ele>67.0</ele><time>2026-04-18T06:42:33.872Z</time></trkpt><trkpt lat="42.18011" lon="14.6098833"><ele>69.0</ele><time>2026-04-18T06:42:38.872Z</time></trkpt><trkpt lat="42.18004" lon="14.6099117"><ele>71.0</ele><time>2026-04-18T06:42:41.871Z</time></trkpt><trkpt lat="42.17998" lon="14.6099483"><ele>73.0</ele><time>2026-04-18T06:42:43.872Z</time></trkpt><trkpt lat="42.179905" lon="14.609975"><ele>73.33333333333333</ele><time>2026-04-18T06:42:45.872Z</time></trkpt><trkpt lat="42.1798217" lon="14.6100067"><ele>73.66666666666666</ele><time>2026-04-18T06:42:47.871Z</time></trkpt><trkpt lat="42.1797383" lon="14.6100633"><ele>74.0</ele><time>2026-04-18T06:42:49.872Z</time></trkpt><trkpt lat="42.1796733" lon="14.6101067"><ele>74.33333333333333</ele><time>2026-04-18T06:42:51.872Z</time></trkpt><trkpt lat="42.17958" lon="14.6101283"><ele>74.66666666666667</ele><time>2026-04-18T06:42:54.872Z</time></trkpt><trkpt lat="42.179485" lon="14.6101333"><ele>75.0</ele><time>2026-04-18T06:42:57.871Z</time></trkpt><trkpt lat="42.1793933" lon="14.6101483"><ele>75.0</ele><time>2026-04-18T06:43:00.871Z</time></trkpt><trkpt lat="42.1793083" lon="14.61017"><ele>75.0</ele><time>2026-04-18T06:43:03.872Z</time></trkpt><trkpt lat="42.1792367" lon="14.6101917"><ele>75.0</ele><time>2026-04-18T06:43:05.872Z</time></trkpt><trkpt lat="42.1791517" lon="14.610195"><ele>75.0</ele><time>2026-04-18T06:43:08.872Z</time></trkpt><trkpt lat="42.1790633" lon="14.610165"><ele>75.0</ele><time>2026-04-18T06:43:11.872Z</time></trkpt><trkpt lat="42.178975" lon="14.610145"><ele>75.0</ele><time>2026-04-18T06:43:14.871Z</time></trkpt><trkpt lat="42.1788833" lon="14.6101233"><ele>74.66666666666667</ele><time>2026-04-18T06:43:17.872Z</time></trkpt><trkpt lat="42.1788217" lon="14.6101033"><ele>74.33333333333333</ele><time>2026-04-18T06:43:19.871Z</time></trkpt><trkpt lat="42.1787533" lon="14.6100833"><ele>74.0</ele><time>2026-04-18T06:43:21.872Z</time></trkpt><trkpt lat="42.1786833" lon="14.6100567"><ele>73.66666666666666</ele><time>2026-04-18T06:43:23.872Z</time></trkpt><trkpt lat="42.1786133" lon="14.6099783"><ele>73.33333333333333</ele><time>2026-04-18T06:43:26.872Z</time></trkpt><trkpt lat="42.1785617" lon="14.6098817"><ele>73.0</ele><time>2026-04-18T06:43:29.872Z</time></trkpt><trkpt lat="42.1785217" lon="14.6097983"><ele>73.0</ele><time>2026-04-18T06:43:31.872Z</time></trkpt><trkpt lat="42.1784783" lon="14.6097283"><ele>73.0</ele><time>2026-04-18T06:43:33.872Z</time></trkpt><trkpt lat="42.17843" lon="14.6096667"><ele>73.0</ele><time>2026-04-18T06:43:35.871Z</time></trkpt><trkpt lat="42.1783817" lon="14.6096117"><ele>73.0</ele><time>2026-04-18T06:43:37.872Z</time></trkpt><trkpt lat="42.1783133" lon="14.6095417"><ele>73.0</ele><time>2026-04-18T06:43:40.872Z</time></trkpt><trkpt lat="42.1782417" lon="14.609475"><ele>73.0</ele><time>2026-04-18T06:43:43.871Z</time></trkpt><trkpt lat="42.1781833" lon="14.6094383"><ele>73.0</ele><time>2026-04-18T06:43:45.871Z</time></trkpt><trkpt lat="42.1780983" lon="14.609385"><ele>73.57142857142857</ele><time>2026-04-18T06:43:48.872Z</time></trkpt><trkpt lat="42.178035" lon="14.6093433"><ele>74.14285714285714</ele><time>2026-04-18T06:43:50.871Z</time></trkpt><trkpt lat="42.17798" lon="14.6092967"><ele>74.71428571428572</ele><time>2026-04-18T06:43:52.871Z</time></trkpt><trkpt lat="42.1779367" lon="14.6092083"><ele>75.28571428571428</ele><time>2026-04-18T06:43:55.872Z</time></trkpt><trkpt lat="42.1779833" lon="14.60914"><ele>75.85714285714286</ele><time>2026-04-18T06:43:59.871Z</time></trkpt><trkpt lat="42.17805" lon="14.6091667"><ele>76.42857142857143</ele><time>2026-04-18T06:44:02.872Z</time></trkpt><trkpt lat="42.17813" lon="14.6091567"><ele>77.0</ele><time>2026-04-18T06:44:05.872Z</time></trkpt><trkpt lat="42.178185" lon="14.6090783"><ele>78.85714285714286</ele><time>2026-04-18T06:44:08.872Z</time></trkpt><trkpt lat="42.178185" lon="14.6089717"><ele>80.71428571428572</ele><time>2026-04-18T06:44:11.872Z</time></trkpt><trkpt lat="42.17819" lon="14.6088867"><ele>82.57142857142857</ele><time>2026-04-18T06:44:13.872Z</time></trkpt><trkpt lat="42.178205" lon="14.608785"><ele>84.42857142857143</ele><time>2026-04-18T06:44:15.872Z</time></trkpt><trkpt lat="42.1782267" lon="14.6086983"><ele>86.28571428571429</ele><time>2026-04-18T06:44:17.872Z</time></trkpt><trkpt lat="42.1782567" lon="14.60862"><ele>88.14285714285714</ele><time>2026-04-18T06:44:19.871Z</time></trkpt><trkpt lat="42.1782783" lon="14.6085333"><ele>90.0</ele><time>2026-04-18T06:44:21.872Z</time></trkpt><trkpt lat="42.1782867" lon="14.6084417"><ele>91.28571428571428</ele><time>2026-04-18T06:44:23.872Z</time></trkpt><trkpt lat="42.1782833" lon="14.6083467"><ele>92.57142857142858</ele><time>2026-04-18T06:44:25.872Z</time></trkpt><trkpt lat="42.1782867" lon="14.6082467"><ele>93.85714285714286</ele><time>2026-04-18T06:44:27.871Z</time></trkpt><trkpt lat="42.178295" lon="14.608155"><ele>95.14285714285714</ele><time>2026-04-18T06:44:29.872Z</time></trkpt><trkpt lat="42.1783" lon="14.608065"><ele>96.42857142857142</ele><time>2026-04-18T06:44:31.872Z</time></trkpt><trkpt lat="42.1783067" lon="14.6079733"><ele>97.71428571428572</ele><time>2026-04-18T06:44:33.872Z</time></trkpt><trkpt lat="42.178315" lon="14.6078783"><ele>99.0</ele><time>2026-04-18T06:44:35.872Z</time></trkpt><trkpt lat="42.1783217" lon="14.607785"><ele>99.5</ele><time>2026-04-18T06:44:37.871Z</time></trkpt><trkpt lat="42.1783317" lon="14.6076617"><ele>100.0</ele><time>2026-04-18T06:44:40.872Z</time></trkpt><trkpt lat="42.1783317" lon="14.6075733"><ele>100.5</ele><time>2026-04-18T06:44:42.872Z</time></trkpt><trkpt lat="42.1783317" lon="14.6074733"><ele>101.0</ele><time>2026-04-18T06:44:44.872Z</time></trkpt><trkpt lat="42.1783083" lon="14.6073717"><ele>101.5</ele><time>2026-04-18T06:44:46.871Z</time></trkpt><trkpt lat="42.1782917" lon="14.6072583"><ele>102.0</ele><time>2026-04-18T06:44:48.872Z</time></trkpt><trkpt lat="42.1782733" lon="14.6071633"><ele>102.0</ele><time>2026-04-18T06:44:50.872Z</time></trkpt><trkpt lat="42.178255" lon="14.6070567"><ele>102.0</ele><time>2026-04-18T06:44:52.872Z</time></trkpt><trkpt lat="42.1782383" lon="14.6069533"><ele>102.0</ele><time>2026-04-18T06:44:54.872Z</time></trkpt><trkpt lat="42.178215" lon="14.6068433"><ele>102.0</ele><time>2026-04-18T06:44:56.872Z</time></trkpt><trkpt lat="42.1781983" lon="14.606745"><ele>102.0</ele><time>2026-04-18T06:44:58.871Z</time></trkpt><trkpt lat="42.1781833" lon="14.6066433"><ele>102.0</ele><time>2026-04-18T06:45:00.871Z</time></trkpt><trkpt lat="42.17819" lon="14.6065483"><ele>102.33333333333333</ele><time>2026-04-18T06:45:02.872Z</time></trkpt><trkpt lat="42.1782667" lon="14.6064867"><ele>102.66666666666666</ele><time>2026-04-18T06:45:05.872Z</time></trkpt><trkpt lat="42.178345" lon="14.6064883"><ele>103.0</ele><time>2026-04-18T06:45:07.872Z</time></trkpt><trkpt lat="42.17843" lon="14.6064983"><ele>103.33333333333333</ele><time>2026-04-18T06:45:09.871Z</time></trkpt><trkpt lat="42.1785233" lon="14.60651"><ele>103.66666666666666</ele><time>2026-04-18T06:45:11.872Z</time></trkpt><trkpt lat="42.1786117" lon="14.6065267"><ele>104.0</ele><time>2026-04-18T06:45:13.871Z</time></trkpt><trkpt lat="42.178705" lon="14.606535"><ele>104.0</ele><time>2026-04-18T06:45:15.872Z</time></trkpt><trkpt lat="42.1788083" lon="14.606535"><ele>104.0</ele><time>2026-04-18T06:45:17.872Z</time></trkpt><trkpt lat="42.1789067" lon="14.60652"><ele>104.0</ele><time>2026-04-18T06:45:19.872Z</time></trkpt><trkpt lat="42.1790033" lon="14.6064917"><ele>104.0</ele><time>2026-04-18T06:45:21.872Z</time></trkpt><trkpt lat="42.1791" lon="14.60646"><ele>104.0</ele><time>2026-04-18T06:45:23.872Z</time></trkpt><trkpt lat="42.1791983" lon="14.6064233"><ele>103.4</ele><time>2026-04-18T06:45:25.872Z</time></trkpt><trkpt lat="42.1792933" lon="14.60639"><ele>102.80000000000001</ele><time>2026-04-18T06:45:27.872Z</time></trkpt><trkpt lat="42.1793917" lon="14.60636"><ele>102.19999999999999</ele><time>2026-04-18T06:45:29.872Z</time></trkpt><trkpt lat="42.1794933" lon="14.60633"><ele>101.6</ele><time>2026-04-18T06:45:31.872Z</time></trkpt><trkpt lat="42.1795983" lon="14.606305"><ele>101.0</ele><time>2026-04-18T06:45:33.871Z</time></trkpt><trkpt lat="42.1797" lon="14.6062733"><ele>101.0</ele><time>2026-04-18T06:45:35.871Z</time></trkpt><trkpt lat="42.179795" lon="14.6062433"><ele>101.0</ele><time>2026-04-18T06:45:37.872Z</time></trkpt><trkpt lat="42.1799" lon="14.606205"><ele>101.0</ele><time>2026-04-18T06:45:39.872Z</time></trkpt><trkpt lat="42.1800017" lon="14.6061667"><ele>101.0</ele><time>2026-04-18T06:45:41.872Z</time></trkpt><trkpt lat="42.1801083" lon="14.6061367"><ele>101.0</ele><time>2026-04-18T06:45:43.872Z</time></trkpt><trkpt lat="42.180215" lon="14.6060983"><ele>101.19999999999999</ele><time>2026-04-18T06:45:45.871Z</time></trkpt><trkpt lat="42.180325" lon="14.6060633"><ele>101.39999999999999</ele><time>2026-04-18T06:45:47.872Z</time></trkpt><trkpt lat="42.18044" lon="14.6060283"><ele>101.6</ele><time>2026-04-18T06:45:49.873Z</time></trkpt><trkpt lat="42.1805483" lon="14.606"><ele>101.8</ele><time>2026-04-18T06:45:51.872Z</time></trkpt><trkpt lat="42.18065" lon="14.6059683"><ele>102.0</ele><time>2026-04-18T06:45:53.873Z</time></trkpt><trkpt lat="42.180745" lon="14.605935"><ele>101.6</ele><time>2026-04-18T06:45:55.873Z</time></trkpt><trkpt lat="42.1808333" lon="14.6059033"><ele>101.19999999999999</ele><time>2026-04-18T06:45:57.873Z</time></trkpt><trkpt lat="42.1809433" lon="14.60587"><ele>100.8</ele><time>2026-04-18T06:45:59.872Z</time></trkpt><trkpt lat="42.1810417" lon="14.6058283"><ele>100.4</ele><time>2026-04-18T06:46:01.872Z</time></trkpt><trkpt lat="42.18116" lon="14.6057917"><ele>100.0</ele><time>2026-04-18T06:46:03.873Z</time></trkpt><trkpt lat="42.1812733" lon="14.6057617"><ele>100.0</ele><time>2026-04-18T06:46:05.873Z</time></trkpt><trkpt lat="42.1813783" lon="14.6057217"><ele>100.0</ele><time>2026-04-18T06:46:07.872Z</time></trkpt><trkpt lat="42.1814917" lon="14.6056917"><ele>100.0</ele><time>2026-04-18T06:46:09.873Z</time></trkpt><trkpt lat="42.1816083" lon="14.6056567"><ele>100.0</ele><time>2026-04-18T06:46:11.873Z</time></trkpt><trkpt lat="42.1817283" lon="14.6056133"><ele>99.25</ele><time>2026-04-18T06:46:13.873Z</time></trkpt><trkpt lat="42.1818417" lon="14.605575"><ele>98.5</ele><time>2026-04-18T06:46:15.873Z</time></trkpt><trkpt lat="42.18195" lon="14.6055467"><ele>97.75</ele><time>2026-04-18T06:46:17.873Z</time></trkpt><trkpt lat="42.1820633" lon="14.6055167"><ele>97.0</ele><time>2026-04-18T06:46:19.873Z</time></trkpt><trkpt lat="42.18217" lon="14.60547"><ele>97.0</ele><time>2026-04-18T06:46:21.872Z</time></trkpt><trkpt lat="42.1822783" lon="14.6054333"><ele>97.0</ele><time>2026-04-18T06:46:23.873Z</time></trkpt><trkpt lat="42.1823733" lon="14.6054117"><ele>97.0</ele><time>2026-04-18T06:46:25.873Z</time></trkpt><trkpt lat="42.1824783" lon="14.6053917"><ele>97.0</ele><time>2026-04-18T06:46:27.873Z</time></trkpt><trkpt lat="42.18258" lon="14.6053633"><ele>97.0</ele><time>2026-04-18T06:46:29.872Z</time></trkpt><trkpt lat="42.1826867" lon="14.6053317"><ele>96.8</ele><time>2026-04-18T06:46:31.873Z</time></trkpt><trkpt lat="42.1827883" lon="14.605295"><ele>96.6</ele><time>2026-04-18T06:46:33.873Z</time></trkpt><trkpt lat="42.1828967" lon="14.6052567"><ele>96.39999999999999</ele><time>2026-04-18T06:46:35.872Z</time></trkpt><trkpt lat="42.182985" lon="14.605185"><ele>96.19999999999999</ele><time>2026-04-18T06:46:37.873Z</time></trkpt><trkpt lat="42.1830633" lon="14.60512"><ele>96.0</ele><time>2026-04-18T06:46:39.872Z</time></trkpt><trkpt lat="42.183145" lon="14.6050533"><ele>95.5</ele><time>2026-04-18T06:46:41.873Z</time></trkpt><trkpt lat="42.1832217" lon="14.6049967"><ele>95.0</ele><time>2026-04-18T06:46:43.873Z</time></trkpt><trkpt lat="42.1832933" lon="14.6049567"><ele>94.5</ele><time>2026-04-18T06:46:45.873Z</time></trkpt><trkpt lat="42.18336" lon="14.6049483"><ele>94.0</ele><time>2026-04-18T06:46:47.873Z</time></trkpt><trkpt lat="42.183435" lon="14.6049667"><ele>93.5</ele><time>2026-04-18T06:46:49.873Z</time></trkpt><trkpt lat="42.1835317" lon="14.604955"><ele>93.0</ele><time>2026-04-18T06:46:51.872Z</time></trkpt><trkpt lat="42.18363" lon="14.6049317"><ele>93.0</ele><time>2026-04-18T06:46:53.873Z</time></trkpt><trkpt lat="42.18372" lon="14.6049017"><ele>93.0</ele><time>2026-04-18T06:46:55.873Z</time></trkpt><trkpt lat="42.1838" lon="14.604845"><ele>93.0</ele><time>2026-04-18T06:46:57.872Z</time></trkpt><trkpt lat="42.1838483" lon="14.60477"><ele>93.0</ele><time>2026-04-18T06:46:59.872Z</time></trkpt><trkpt lat="42.18389" lon="14.60467"><ele>93.0</ele><time>2026-04-18T06:47:01.873Z</time></trkpt><trkpt lat="42.1839383" lon="14.6045683"><ele>93.0</ele><time>2026-04-18T06:47:03.873Z</time></trkpt><trkpt lat="42.1839883" lon="14.6044583"><ele>93.4</ele><time>2026-04-18T06:47:05.873Z</time></trkpt><trkpt lat="42.1840417" lon="14.6043467"><ele>93.80000000000001</ele><time>2026-04-18T06:47:07.873Z</time></trkpt><trkpt lat="42.1841" lon="14.6042367"><ele>94.2</ele><time>2026-04-18T06:47:09.873Z</time></trkpt><trkpt lat="42.1841417" lon="14.6041417"><ele>94.6</ele><time>2026-04-18T06:47:11.873Z</time></trkpt><trkpt lat="42.1841883" lon="14.6040383"><ele>95.0</ele><time>2026-04-18T06:47:13.872Z</time></trkpt><trkpt lat="42.1842383" lon="14.60393"><ele>95.0</ele><time>2026-04-18T06:47:15.873Z</time></trkpt><trkpt lat="42.18429" lon="14.603825"><ele>95.0</ele><time>2026-04-18T06:47:17.873Z</time></trkpt><trkpt lat="42.184335" lon="14.60372"><ele>95.0</ele><time>2026-04-18T06:47:19.873Z</time></trkpt><trkpt lat="42.18438" lon="14.6036167"><ele>95.0</ele><time>2026-04-18T06:47:21.872Z</time></trkpt><trkpt lat="42.1844283" lon="14.6035183"><ele>95.0</ele><time>2026-04-18T06:47:23.873Z</time></trkpt><trkpt lat="42.1844767" lon="14.6034167"><ele>95.0</ele><time>2026-04-18T06:47:25.872Z</time></trkpt><trkpt lat="42.184525" lon="14.6033167"><ele>94.57142857142857</ele><time>2026-04-18T06:47:27.872Z</time></trkpt><trkpt lat="42.1845733" lon="14.6032183"><ele>94.14285714285714</ele><time>2026-04-18T06:47:29.873Z</time></trkpt><trkpt lat="42.1846133" lon="14.6031283"><ele>93.71428571428572</ele><time>2026-04-18T06:47:31.873Z</time></trkpt><trkpt lat="42.18465" lon="14.6030383"><ele>93.28571428571428</ele><time>2026-04-18T06:47:33.873Z</time></trkpt><trkpt lat="42.1846867" lon="14.6029683"><ele>92.85714285714285</ele><time>2026-04-18T06:47:35.873Z</time></trkpt><trkpt lat="42.18475" lon="14.6029683"><ele>92.42857142857143</ele><time>2026-04-18T06:47:38.872Z</time></trkpt><trkpt lat="42.184805" lon="14.6030167"><ele>92.0</ele><time>2026-04-18T06:47:40.873Z</time></trkpt><trkpt lat="42.1848783" lon="14.6030767"><ele>91.33333333333334</ele><time>2026-04-18T06:47:42.873Z</time></trkpt><trkpt lat="42.1849483" lon="14.6031467"><ele>90.66666666666667</ele><time>2026-04-18T06:47:44.873Z</time></trkpt><trkpt lat="42.1850333" lon="14.6032017"><ele>90.0</ele><time>2026-04-18T06:47:46.873Z</time></trkpt><trkpt lat="42.1851217" lon="14.60324"><ele>89.33333333333333</ele><time>2026-04-18T06:47:48.873Z</time></trkpt><trkpt lat="42.18521" lon="14.6032833"><ele>88.66666666666666</ele><time>2026-04-18T06:47:50.873Z</time></trkpt><trkpt lat="42.18528" lon="14.60332"><ele>88.0</ele><time>2026-04-18T06:47:52.873Z</time></trkpt><trkpt lat="42.185335" lon="14.6033633"><ele>88.0</ele><time>2026-04-18T06:47:54.872Z</time></trkpt><trkpt lat="42.18537" lon="14.60345"><ele>88.0</ele><time>2026-04-18T06:47:57.873Z</time></trkpt><trkpt lat="42.1854333" lon="14.6035117"><ele>88.0</ele><time>2026-04-18T06:48:00.873Z</time></trkpt><trkpt lat="42.1855117" lon="14.6035433"><ele>88.0</ele><time>2026-04-18T06:48:04.873Z</time></trkpt><trkpt lat="42.1855733" lon="14.6035117"><ele>88.0</ele><time>2026-04-18T06:48:09.873Z</time></trkpt><trkpt lat="42.1855667" lon="14.6034067"><ele>88.0</ele><time>2026-04-18T06:48:13.873Z</time></trkpt><trkpt lat="42.1855483" lon="14.60331"><ele>88.0</ele><time>2026-04-18T06:48:16.873Z</time></trkpt><trkpt lat="42.1854533" lon="14.6030683"><ele>88.0</ele><time>2026-04-18T06:48:31.873Z</time></trkpt><trkpt lat="42.18542" lon="14.6029917"><ele>88.0</ele><time>2026-04-18T06:48:33.873Z</time></trkpt><trkpt lat="42.1853733" lon="14.602905"><ele>88.0</ele><time>2026-04-18T06:48:35.873Z</time></trkpt><trkpt lat="42.1853367" lon="14.6028233"><ele>88.0</ele><time>2026-04-18T06:48:37.873Z</time></trkpt><trkpt lat="42.185285" lon="14.6027467"><ele>88.0</ele><time>2026-04-18T06:48:40.873Z</time></trkpt><trkpt lat="42.1853517" lon="14.602765"><ele>88.0</ele><time>2026-04-18T06:48:56.872Z</time></trkpt><trkpt lat="42.1854283" lon="14.6028167"><ele>88.0</ele><time>2026-04-18T06:48:58.872Z</time></trkpt><trkpt lat="42.1855267" lon="14.6028683"><ele>88.0</ele><time>2026-04-18T06:49:00.873Z</time></trkpt><trkpt lat="42.1856233" lon="14.6029017"><ele>88.0</ele><time>2026-04-18T06:49:02.873Z</time></trkpt><trkpt lat="42.1857283" lon="14.6029633"><ele>87.0</ele><time>2026-04-18T06:49:04.873Z</time></trkpt><trkpt lat="42.1858167" lon="14.6030333"><ele>86.0</ele><time>2026-04-18T06:49:06.873Z</time></trkpt><trkpt lat="42.1858883" lon="14.6031033"><ele>85.0</ele><time>2026-04-18T06:49:08.873Z</time></trkpt><trkpt lat="42.1859533" lon="14.603185"><ele>84.0</ele><time>2026-04-18T06:49:10.872Z</time></trkpt><trkpt lat="42.1860317" lon="14.60329"><ele>83.0</ele><time>2026-04-18T06:49:12.873Z</time></trkpt><trkpt lat="42.1860833" lon="14.6033733"><ele>83.0</ele><time>2026-04-18T06:49:13.872Z</time></trkpt><trkpt lat="42.186165" lon="14.6034917"><ele>83.0</ele><time>2026-04-18T06:49:15.873Z</time></trkpt><trkpt lat="42.186235" lon="14.603575"><ele>83.0</ele><time>2026-04-18T06:49:17.873Z</time></trkpt><trkpt lat="42.186305" lon="14.60365"><ele>83.0</ele><time>2026-04-18T06:49:19.872Z</time></trkpt><trkpt lat="42.1863883" lon="14.6036983"><ele>83.0</ele><time>2026-04-18T06:49:21.873Z</time></trkpt><trkpt lat="42.186465" lon="14.60376"><ele>82.2</ele><time>2026-04-18T06:49:23.873Z</time></trkpt><trkpt lat="42.1865417" lon="14.6038083"><ele>81.4</ele><time>2026-04-18T06:49:25.873Z</time></trkpt><trkpt lat="42.18663" lon="14.6038667"><ele>80.60000000000001</ele><time>2026-04-18T06:49:27.872Z</time></trkpt><trkpt lat="42.1867217" lon="14.6039333"><ele>79.80000000000001</ele><time>2026-04-18T06:49:29.873Z</time></trkpt><trkpt lat="42.1868117" lon="14.6039983"><ele>79.0</ele><time>2026-04-18T06:49:31.873Z</time></trkpt><trkpt lat="42.186895" lon="14.604045"><ele>79.0</ele><time>2026-04-18T06:49:33.873Z</time></trkpt><trkpt lat="42.1870033" lon="14.6040633"><ele>79.0</ele><time>2026-04-18T06:49:35.873Z</time></trkpt><trkpt lat="42.1870917" lon="14.6040917"><ele>79.0</ele><time>2026-04-18T06:49:37.873Z</time></trkpt><trkpt lat="42.18718" lon="14.60412"><ele>79.0</ele><time>2026-04-18T06:49:39.873Z</time></trkpt><trkpt lat="42.1872983" lon="14.604125"><ele>79.0</ele><time>2026-04-18T06:49:41.872Z</time></trkpt><trkpt lat="42.18742" lon="14.6041333"><ele>77.60000000000001</ele><time>2026-04-18T06:49:43.873Z</time></trkpt><trkpt lat="42.18754" lon="14.6041367"><ele>76.2</ele><time>2026-04-18T06:49:45.872Z</time></trkpt><trkpt lat="42.1876583" lon="14.6041367"><ele>74.80000000000001</ele><time>2026-04-18T06:49:47.872Z</time></trkpt><trkpt lat="42.187755" lon="14.604155"><ele>73.4</ele><time>2026-04-18T06:49:49.873Z</time></trkpt><trkpt lat="42.187855" lon="14.60419"><ele>72.0</ele><time>2026-04-18T06:49:51.872Z</time></trkpt><trkpt lat="42.18796" lon="14.6042317"><ele>72.0</ele><time>2026-04-18T06:49:53.873Z</time></trkpt><trkpt lat="42.1880267" lon="14.6042917"><ele>72.0</ele><time>2026-04-18T06:49:55.873Z</time></trkpt><trkpt lat="42.1880917" lon="14.6043"><ele>72.0</ele><time>2026-04-18T06:49:57.872Z</time></trkpt><trkpt lat="42.1881717" lon="14.604295"><ele>72.0</ele><time>2026-04-18T06:49:59.872Z</time></trkpt><trkpt lat="42.1882583" lon="14.60432"><ele>72.0</ele><time>2026-04-18T06:50:01.873Z</time></trkpt><trkpt lat="42.1883417" lon="14.6043533"><ele>72.0</ele><time>2026-04-18T06:50:03.873Z</time></trkpt><trkpt lat="42.18843" lon="14.6043717"><ele>71.33333333333333</ele><time>2026-04-18T06:50:05.873Z</time></trkpt><trkpt lat="42.1885033" lon="14.6043767"><ele>70.66666666666667</ele><time>2026-04-18T06:50:07.873Z</time></trkpt><trkpt lat="42.18857" lon="14.6043817"><ele>70.0</ele><time>2026-04-18T06:50:09.873Z</time></trkpt><trkpt lat="42.188665" lon="14.6043867"><ele>69.33333333333334</ele><time>2026-04-18T06:50:11.872Z</time></trkpt><trkpt lat="42.18876" lon="14.6043483"><ele>68.66666666666667</ele><time>2026-04-18T06:50:13.873Z</time></trkpt><trkpt lat="42.1888233" lon="14.604315"><ele>68.0</ele><time>2026-04-18T06:50:15.873Z</time></trkpt><trkpt lat="42.1889" lon="14.6042883"><ele>68.0</ele><time>2026-04-18T06:50:17.873Z</time></trkpt><trkpt lat="42.188975" lon="14.6042733"><ele>68.0</ele><time>2026-04-18T06:50:18.873Z</time></trkpt><trkpt lat="42.189045" lon="14.6042583"><ele>68.0</ele><time>2026-04-18T06:50:19.873Z</time></trkpt><trkpt lat="42.1891367" lon="14.60422"><ele>68.0</ele><time>2026-04-18T06:50:21.873Z</time></trkpt><trkpt lat="42.1892233" lon="14.6041733"><ele>68.0</ele><time>2026-04-18T06:50:23.872Z</time></trkpt><trkpt lat="42.1893167" lon="14.6041133"><ele>68.0</ele><time>2026-04-18T06:50:25.873Z</time></trkpt><trkpt lat="42.1894083" lon="14.6040567"><ele>67.16666666666667</ele><time>2026-04-18T06:50:27.873Z</time></trkpt><trkpt lat="42.1894883" lon="14.6039967"><ele>66.33333333333334</ele><time>2026-04-18T06:50:29.872Z</time></trkpt><trkpt lat="42.1895817" lon="14.6039417"><ele>65.5</ele><time>2026-04-18T06:50:31.872Z</time></trkpt><trkpt lat="42.1896583" lon="14.6038883"><ele>64.66666666666667</ele><time>2026-04-18T06:50:33.872Z</time></trkpt><trkpt lat="42.189725" lon="14.6038467"><ele>63.833333333333336</ele><time>2026-04-18T06:50:35.872Z</time></trkpt><trkpt lat="42.189775" lon="14.6037933"><ele>63.0</ele><time>2026-04-18T06:50:37.873Z</time></trkpt><trkpt lat="42.189835" lon="14.6037217"><ele>61.4</ele><time>2026-04-18T06:50:40.873Z</time></trkpt><trkpt lat="42.18992" lon="14.603635"><ele>59.8</ele><time>2026-04-18T06:50:43.873Z</time></trkpt><trkpt lat="42.1899817" lon="14.6035733"><ele>58.2</ele><time>2026-04-18T06:50:45.873Z</time></trkpt><trkpt lat="42.19006" lon="14.6035083"><ele>56.6</ele><time>2026-04-18T06:50:47.873Z</time></trkpt><trkpt lat="42.1901217" lon="14.603415"><ele>55.0</ele><time>2026-04-18T06:50:49.872Z</time></trkpt><trkpt lat="42.1901767" lon="14.6033267"><ele>54.99999999999999</ele><time>2026-04-18T06:50:51.873Z</time></trkpt><trkpt lat="42.1902317" lon="14.60323"><ele>55.0</ele><time>2026-04-18T06:50:53.873Z</time></trkpt><trkpt lat="42.1902817" lon="14.6031367"><ele>55.0</ele><time>2026-04-18T06:50:55.872Z</time></trkpt><trkpt lat="42.1903183" lon="14.603045"><ele>55.0</ele><time>2026-04-18T06:50:57.873Z</time></trkpt><trkpt lat="42.1903583" lon="14.602945"><ele>54.99999999999999</ele><time>2026-04-18T06:50:59.873Z</time></trkpt><trkpt lat="42.1903983" lon="14.6028567"><ele>55.0</ele><time>2026-04-18T06:51:01.873Z</time></trkpt><trkpt lat="42.1904283" lon="14.6027783"><ele>57.49999999999999</ele><time>2026-04-18T06:51:03.872Z</time></trkpt><trkpt lat="42.1904467" lon="14.602655"><ele>60.0</ele><time>2026-04-18T06:51:05.873Z</time></trkpt><trkpt lat="42.1904467" lon="14.60257"><ele>62.5</ele><time>2026-04-18T06:51:07.873Z</time></trkpt><trkpt lat="42.190465" lon="14.6024833"><ele>65.0</ele><time>2026-04-18T06:51:11.873Z</time></trkpt><trkpt lat="42.1904767" lon="14.6023567"><ele>67.5</ele><time>2026-04-18T06:51:14.873Z</time></trkpt><trkpt lat="42.1904733" lon="14.6022683"><ele>70.0</ele><time>2026-04-18T06:51:16.873Z</time></trkpt><trkpt lat="42.1904583" lon="14.60218"><ele>70.0</ele><time>2026-04-18T06:51:18.872Z</time></trkpt><trkpt lat="42.1904417" lon="14.6020933"><ele>70.0</ele><time>2026-04-18T06:51:20.873Z</time></trkpt><trkpt lat="42.1904283" lon="14.6020017"><ele>70.0</ele><time>2026-04-18T06:51:22.872Z</time></trkpt><trkpt lat="42.1903983" lon="14.6019117"><ele>70.0</ele><time>2026-04-18T06:51:24.872Z</time></trkpt><trkpt lat="42.1903617" lon="14.6018333"><ele>70.0</ele><time>2026-04-18T06:51:26.873Z</time></trkpt><trkpt lat="42.1903583" lon="14.6017417"><ele>70.0</ele><time>2026-04-18T06:51:28.873Z</time></trkpt><trkpt lat="42.1903667" lon="14.6016433"><ele>70.0</ele><time>2026-04-18T06:51:30.873Z</time></trkpt><trkpt lat="42.1903733" lon="14.60154"><ele>70.0</ele><time>2026-04-18T06:51:32.873Z</time></trkpt><trkpt lat="42.190375" lon="14.6014433"><ele>70.0</ele><time>2026-04-18T06:51:34.873Z</time></trkpt><trkpt lat="42.19039" lon="14.601315"><ele>70.0</ele><time>2026-04-18T06:51:37.873Z</time></trkpt><trkpt lat="42.1904" lon="14.6011933"><ele>70.0</ele><time>2026-04-18T06:51:40.873Z</time></trkpt><trkpt lat="42.1904133" lon="14.6010717"><ele>70.0</ele><time>2026-04-18T06:51:43.872Z</time></trkpt><trkpt lat="42.19042" lon="14.6009517"><ele>70.0</ele><time>2026-04-18T06:51:46.872Z</time></trkpt><trkpt lat="42.1904217" lon="14.6008283"><ele>70.0</ele><time>2026-04-18T06:51:49.872Z</time></trkpt><trkpt lat="42.190415" lon="14.6007067"><ele>70.0</ele><time>2026-04-18T06:51:52.872Z</time></trkpt><trkpt lat="42.1903917" lon="14.600595"><ele>70.0</ele><time>2026-04-18T06:51:55.873Z</time></trkpt><trkpt lat="42.1903617" lon="14.6004867"><ele>70.0</ele><time>2026-04-18T06:51:58.873Z</time></trkpt><trkpt lat="42.1903667" lon="14.6003883"><ele>70.0</ele><time>2026-04-18T06:52:01.873Z</time></trkpt><trkpt lat="42.190365" lon="14.6002967"><ele>70.0</ele><time>2026-04-18T06:52:04.873Z</time></trkpt><trkpt lat="42.19031" lon="14.6002467"><ele>68.5</ele><time>2026-04-18T06:52:07.872Z</time></trkpt><trkpt lat="42.1902283" lon="14.600215"><ele>67.0</ele><time>2026-04-18T06:52:11.872Z</time></trkpt><trkpt lat="42.19016" lon="14.60018"><ele>65.5</ele><time>2026-04-18T06:52:14.873Z</time></trkpt><trkpt lat="42.1900833" lon="14.600155"><ele>64.0</ele><time>2026-04-18T06:52:18.873Z</time></trkpt><trkpt lat="42.1900183" lon="14.6001367"><ele>62.49999999999999</ele><time>2026-04-18T06:52:21.873Z</time></trkpt><trkpt lat="42.1899533" lon="14.6000717"><ele>61.0</ele><time>2026-04-18T06:52:25.873Z</time></trkpt><trkpt lat="42.1899567" lon="14.5999833"><ele>61.0</ele><time>2026-04-18T06:52:28.872Z</time></trkpt><trkpt lat="42.1899733" lon="14.5999"><ele>60.99999999999999</ele><time>2026-04-18T06:52:30.872Z</time></trkpt><trkpt lat="42.18999" lon="14.59979"><ele>60.99999999999999</ele><time>2026-04-18T06:52:32.872Z</time></trkpt><trkpt lat="42.1900117" lon="14.59961"><ele>61.0</ele><time>2026-04-18T06:52:34.873Z</time></trkpt><trkpt lat="42.1900417" lon="14.5994833"><ele>61.0</ele><time>2026-04-18T06:52:36.873Z</time></trkpt><trkpt lat="42.1900783" lon="14.5993933"><ele>62.28571428571428</ele><time>2026-04-18T06:52:38.873Z</time></trkpt><trkpt lat="42.1901167" lon="14.5993083"><ele>63.57142857142857</ele><time>2026-04-18T06:52:40.873Z</time></trkpt><trkpt lat="42.1901683" lon="14.5992533"><ele>64.85714285714286</ele><time>2026-04-18T06:52:42.872Z</time></trkpt><trkpt lat="42.19022" lon="14.5992033"><ele>66.14285714285714</ele><time>2026-04-18T06:52:44.872Z</time></trkpt><trkpt lat="42.1902733" lon="14.5991433"><ele>67.42857142857143</ele><time>2026-04-18T06:52:46.873Z</time></trkpt><trkpt lat="42.1903383" lon="14.59905"><ele>68.71428571428571</ele><time>2026-04-18T06:52:49.873Z</time></trkpt><trkpt lat="42.1903733" lon="14.59897"><ele>70.0</ele><time>2026-04-18T06:52:51.872Z</time></trkpt><trkpt lat="42.1904017" lon="14.5988733"><ele>70.0</ele><time>2026-04-18T06:52:53.873Z</time></trkpt><trkpt lat="42.1904133" lon="14.5987333"><ele>70.0</ele><time>2026-04-18T06:52:54.872Z</time></trkpt><trkpt lat="42.1904033" lon="14.5986383"><ele>70.0</ele><time>2026-04-18T06:52:56.872Z</time></trkpt><trkpt lat="42.1903983" lon="14.598525"><ele>70.0</ele><time>2026-04-18T06:52:58.873Z</time></trkpt><trkpt lat="42.190385" lon="14.5984267"><ele>70.0</ele><time>2026-04-18T06:53:00.873Z</time></trkpt><trkpt lat="42.1903767" lon="14.598315"><ele>70.0</ele><time>2026-04-18T06:53:02.872Z</time></trkpt><trkpt lat="42.1903583" lon="14.59821"><ele>71.8</ele><time>2026-04-18T06:53:04.873Z</time></trkpt><trkpt lat="42.1903617" lon="14.598105"><ele>73.6</ele><time>2026-04-18T06:53:06.873Z</time></trkpt><trkpt lat="42.1903767" lon="14.5979817"><ele>75.4</ele><time>2026-04-18T06:53:09.872Z</time></trkpt><trkpt lat="42.190355" lon="14.5978067"><ele>77.2</ele><time>2026-04-18T06:53:11.873Z</time></trkpt><trkpt lat="42.1903417" lon="14.5977117"><ele>79.0</ele><time>2026-04-18T06:53:12.873Z</time></trkpt><trkpt lat="42.1903383" lon="14.5976067"><ele>79.0</ele><time>2026-04-18T06:53:13.872Z</time></trkpt><trkpt lat="42.190325" lon="14.5975133"><ele>79.0</ele><time>2026-04-18T06:53:14.872Z</time></trkpt><trkpt lat="42.1902817" lon="14.5973733"><ele>79.0</ele><time>2026-04-18T06:53:16.872Z</time></trkpt><trkpt lat="42.1902483" lon="14.5972717"><ele>79.0</ele><time>2026-04-18T06:53:18.873Z</time></trkpt><trkpt lat="42.1902433" lon="14.59717"><ele>79.0</ele><time>2026-04-18T06:53:21.872Z</time></trkpt><trkpt lat="42.19025" lon="14.597045"><ele>79.0</ele><time>2026-04-18T06:53:23.873Z</time></trkpt><trkpt lat="42.1902433" lon="14.596915"><ele>78.5</ele><time>2026-04-18T06:53:25.873Z</time></trkpt><trkpt lat="42.190245" lon="14.5967917"><ele>78.0</ele><time>2026-04-18T06:53:27.873Z</time></trkpt><trkpt lat="42.1902317" lon="14.5966717"><ele>77.5</ele><time>2026-04-18T06:53:29.872Z</time></trkpt><trkpt lat="42.1902" lon="14.5965683"><ele>77.0</ele><time>2026-04-18T06:53:31.872Z</time></trkpt><trkpt lat="42.190175" lon="14.59645"><ele>76.5</ele><time>2026-04-18T06:53:33.872Z</time></trkpt><trkpt lat="42.1901817" lon="14.596335"><ele>76.0</ele><time>2026-04-18T06:53:35.872Z</time></trkpt><trkpt lat="42.1901867" lon="14.5962183"><ele>75.39999999999999</ele><time>2026-04-18T06:53:37.873Z</time></trkpt><trkpt lat="42.190195" lon="14.5960733"><ele>74.8</ele><time>2026-04-18T06:53:39.873Z</time></trkpt><trkpt lat="42.1901983" lon="14.5959217"><ele>74.19999999999999</ele><time>2026-04-18T06:53:41.873Z</time></trkpt><trkpt lat="42.1902083" lon="14.5957733"><ele>73.6</ele><time>2026-04-18T06:53:43.873Z</time></trkpt><trkpt lat="42.1902333" lon="14.59564"><ele>73.0</ele><time>2026-04-18T06:53:45.872Z</time></trkpt><trkpt lat="42.190245" lon="14.595525"><ele>73.0</ele><time>2026-04-18T06:53:47.873Z</time></trkpt><trkpt lat="42.190255" lon="14.5954083"><ele>73.0</ele><time>2026-04-18T06:53:49.872Z</time></trkpt><trkpt lat="42.19025" lon="14.595285"><ele>73.0</ele><time>2026-04-18T06:53:51.873Z</time></trkpt><trkpt lat="42.19023" lon="14.5951567"><ele>73.0</ele><time>2026-04-18T06:53:53.873Z</time></trkpt><trkpt lat="42.1902017" lon="14.5950367"><ele>73.0</ele><time>2026-04-18T06:53:55.872Z</time></trkpt><trkpt lat="42.1901617" lon="14.5949183"><ele>72.33333333333333</ele><time>2026-04-18T06:53:57.873Z</time></trkpt><trkpt lat="42.190115" lon="14.5948033"><ele>71.66666666666666</ele><time>2026-04-18T06:53:59.873Z</time></trkpt><trkpt lat="42.190075" lon="14.594705"><ele>71.0</ele><time>2026-04-18T06:54:01.873Z</time></trkpt><trkpt lat="42.1900417" lon="14.5946167"><ele>70.33333333333333</ele><time>2026-04-18T06:54:03.873Z</time></trkpt><trkpt lat="42.1900367" lon="14.5945083"><ele>69.66666666666667</ele><time>2026-04-18T06:54:06.872Z</time></trkpt><trkpt lat="42.1900717" lon="14.5944367"><ele>69.0</ele><time>2026-04-18T06:54:11.872Z</time></trkpt><trkpt lat="42.190155" lon="14.5944083"><ele>67.66666666666667</ele><time>2026-04-18T06:54:16.873Z</time></trkpt><trkpt lat="42.1902183" lon="14.5943483"><ele>66.33333333333333</ele><time>2026-04-18T06:54:20.873Z</time></trkpt><trkpt lat="42.1902883" lon="14.5941817"><ele>65.0</ele><time>2026-04-18T06:54:56.873Z</time></trkpt><trkpt lat="42.190295" lon="14.5940933"><ele>63.666666666666664</ele><time>2026-04-18T06:54:59.873Z</time></trkpt><trkpt lat="42.1902717" lon="14.594005"><ele>62.33333333333333</ele><time>2026-04-18T06:55:02.873Z</time></trkpt><trkpt lat="42.1902367" lon="14.59393"><ele>61.0</ele><time>2026-04-18T06:55:05.873Z</time></trkpt><trkpt lat="42.1901883" lon="14.5938617"><ele>60.99999999999999</ele><time>2026-04-18T06:55:08.872Z</time></trkpt><trkpt lat="42.19013" lon="14.5937817"><ele>61.0</ele><time>2026-04-18T06:55:11.873Z</time></trkpt><trkpt lat="42.190065" lon="14.5936917"><ele>61.0</ele><time>2026-04-18T06:55:14.873Z</time></trkpt><trkpt lat="42.1899967" lon="14.5936283"><ele>61.0</ele><time>2026-04-18T06:55:17.872Z</time></trkpt><trkpt lat="42.18993" lon="14.5936083"><ele>60.99999999999999</ele><time>2026-04-18T06:55:20.873Z</time></trkpt><trkpt lat="42.18985" lon="14.593595"><ele>61.0</ele><time>2026-04-18T06:55:24.873Z</time></trkpt><trkpt lat="42.1897767" lon="14.5935833"><ele>63.666666666666664</ele><time>2026-04-18T06:55:29.873Z</time></trkpt><trkpt lat="42.1897183" lon="14.5935417"><ele>66.33333333333333</ele><time>2026-04-18T06:55:32.873Z</time></trkpt><trkpt lat="42.18966" lon="14.59348"><ele>69.0</ele><time>2026-04-18T06:55:35.873Z</time></trkpt><trkpt lat="42.1895883" lon="14.5934333"><ele>71.66666666666667</ele><time>2026-04-18T06:55:38.873Z</time></trkpt><trkpt lat="42.1895167" lon="14.5933267"><ele>74.33333333333334</ele><time>2026-04-18T06:55:41.873Z</time></trkpt><trkpt lat="42.189465" lon="14.59326"><ele>77.0</ele><time>2026-04-18T06:55:43.873Z</time></trkpt><trkpt lat="42.1893983" lon="14.5931933"><ele>77.0</ele><time>2026-04-18T06:55:46.873Z</time></trkpt><trkpt lat="42.18933" lon="14.5931383"><ele>77.0</ele><time>2026-04-18T06:55:49.873Z</time></trkpt><trkpt lat="42.1892483" lon="14.5930867"><ele>77.0</ele><time>2026-04-18T06:55:52.872Z</time></trkpt><trkpt lat="42.189165" lon="14.593005"><ele>77.0</ele><time>2026-04-18T06:55:55.873Z</time></trkpt><trkpt lat="42.189095" lon="14.59293"><ele>77.0</ele><time>2026-04-18T06:55:57.872Z</time></trkpt><trkpt lat="42.1890233" lon="14.5928383"><ele>78.5</ele><time>2026-04-18T06:55:59.872Z</time></trkpt><trkpt lat="42.188965" lon="14.5927467"><ele>80.0</ele><time>2026-04-18T06:56:01.872Z</time></trkpt><trkpt lat="42.1889233" lon="14.5926517"><ele>81.5</ele><time>2026-04-18T06:56:03.872Z</time></trkpt><trkpt lat="42.188875" lon="14.5925733"><ele>83.0</ele><time>2026-04-18T06:56:05.873Z</time></trkpt><trkpt lat="42.18882" lon="14.59247"><ele>84.5</ele><time>2026-04-18T06:56:07.873Z</time></trkpt><trkpt lat="42.1887733" lon="14.5923633"><ele>86.0</ele><time>2026-04-18T06:56:09.872Z</time></trkpt><trkpt lat="42.1887167" lon="14.592265"><ele>86.0</ele><time>2026-04-18T06:56:11.873Z</time></trkpt><trkpt lat="42.188655" lon="14.5921833"><ele>86.0</ele><time>2026-04-18T06:56:13.873Z</time></trkpt><trkpt lat="42.1886033" lon="14.5921033"><ele>86.0</ele><time>2026-04-18T06:56:15.872Z</time></trkpt><trkpt lat="42.1885467" lon="14.5920367"><ele>86.0</ele><time>2026-04-18T06:56:17.873Z</time></trkpt><trkpt lat="42.1884883" lon="14.5919767"><ele>86.0</ele><time>2026-04-18T06:56:19.873Z</time></trkpt><trkpt lat="42.188435" lon="14.59192"><ele>86.0</ele><time>2026-04-18T06:56:21.872Z</time></trkpt><trkpt lat="42.18837" lon="14.591845"><ele>87.83333333333334</ele><time>2026-04-18T06:56:24.873Z</time></trkpt><trkpt lat="42.1883167" lon="14.5917667"><ele>89.66666666666667</ele><time>2026-04-18T06:56:27.872Z</time></trkpt><trkpt lat="42.1882617" lon="14.5916967"><ele>91.5</ele><time>2026-04-18T06:56:30.873Z</time></trkpt><trkpt lat="42.1882833" lon="14.5916083"><ele>93.33333333333334</ele><time>2026-04-18T06:56:35.873Z</time></trkpt><trkpt lat="42.1883417" lon="14.5915533"><ele>95.16666666666667</ele><time>2026-04-18T06:56:38.873Z</time></trkpt><trkpt lat="42.188415" lon="14.5914833"><ele>97.0</ele><time>2026-04-18T06:56:41.873Z</time></trkpt><trkpt lat="42.1884683" lon="14.59143"><ele>97.00000000000001</ele><time>2026-04-18T06:56:43.873Z</time></trkpt><trkpt lat="42.188525" lon="14.59138"><ele>97.0</ele><time>2026-04-18T06:56:45.873Z</time></trkpt><trkpt lat="42.1885833" lon="14.5913317"><ele>97.0</ele><time>2026-04-18T06:56:47.873Z</time></trkpt><trkpt lat="42.1886433" lon="14.59128"><ele>97.0</ele><time>2026-04-18T06:56:49.873Z</time></trkpt><trkpt lat="42.1887117" lon="14.5912217"><ele>97.00000000000001</ele><time>2026-04-18T06:56:51.873Z</time></trkpt><trkpt lat="42.1887867" lon="14.591175"><ele>97.0</ele><time>2026-04-18T06:56:53.873Z</time></trkpt><trkpt lat="42.1888517" lon="14.5911117"><ele>97.00000000000001</ele><time>2026-04-18T06:56:55.873Z</time></trkpt><trkpt lat="42.1888717" lon="14.5910267"><ele>97.0</ele><time>2026-04-18T06:56:57.872Z</time></trkpt><trkpt lat="42.188835" lon="14.5909533"><ele>97.0</ele><time>2026-04-18T06:56:59.873Z</time></trkpt><trkpt lat="42.1888367" lon="14.5908417"><ele>97.0</ele><time>2026-04-18T06:57:02.873Z</time></trkpt><trkpt lat="42.18889" lon="14.590765"><ele>97.00000000000001</ele><time>2026-04-18T06:57:04.873Z</time></trkpt><trkpt lat="42.188945" lon="14.590685"><ele>97.0</ele><time>2026-04-18T06:57:06.873Z</time></trkpt><trkpt lat="42.1890033" lon="14.5906133"><ele>96.83333333333334</ele><time>2026-04-18T06:57:08.872Z</time></trkpt><trkpt lat="42.1890483" lon="14.5905333"><ele>96.66666666666667</ele><time>2026-04-18T06:57:10.872Z</time></trkpt><trkpt lat="42.1890833" lon="14.59043"><ele>96.5</ele><time>2026-04-18T06:57:12.872Z</time></trkpt><trkpt lat="42.1891383" lon="14.5903483"><ele>96.33333333333334</ele><time>2026-04-18T06:57:14.873Z</time></trkpt><trkpt lat="42.18923" lon="14.5903067"><ele>96.16666666666667</ele><time>2026-04-18T06:57:16.872Z</time></trkpt><trkpt lat="42.1893" lon="14.59022"><ele>96.0</ele><time>2026-04-18T06:57:18.873Z</time></trkpt><trkpt lat="42.1893517" lon="14.590085"><ele>95.66666666666667</ele><time>2026-04-18T06:57:20.873Z</time></trkpt><trkpt lat="42.1894133" lon="14.5899517"><ele>95.33333333333333</ele><time>2026-04-18T06:57:22.872Z</time></trkpt><trkpt lat="42.1894433" lon="14.5898767"><ele>95.0</ele><time>2026-04-18T06:57:23.873Z</time></trkpt><trkpt lat="42.1895" lon="14.5897333"><ele>94.66666666666666</ele><time>2026-04-18T06:57:25.873Z</time></trkpt><trkpt lat="42.1895317" lon="14.5896583"><ele>94.33333333333333</ele><time>2026-04-18T06:57:26.872Z</time></trkpt><trkpt lat="42.1895683" lon="14.589585"><ele>94.0</ele><time>2026-04-18T06:57:27.873Z</time></trkpt><trkpt lat="42.18961" lon="14.5895167"><ele>93.83333333333333</ele><time>2026-04-18T06:57:28.873Z</time></trkpt><trkpt lat="42.1896933" lon="14.5894133"><ele>93.66666666666666</ele><time>2026-04-18T06:57:30.873Z</time></trkpt><trkpt lat="42.1897433" lon="14.58932"><ele>93.5</ele><time>2026-04-18T06:57:32.873Z</time></trkpt><trkpt lat="42.1897633" lon="14.5892167"><ele>93.33333333333333</ele><time>2026-04-18T06:57:34.873Z</time></trkpt><trkpt lat="42.1897817" lon="14.5891117"><ele>93.16666666666667</ele><time>2026-04-18T06:57:36.873Z</time></trkpt><trkpt lat="42.1898267" lon="14.5890133"><ele>93.0</ele><time>2026-04-18T06:57:38.873Z</time></trkpt><trkpt lat="42.1899" lon="14.58893"><ele>90.4</ele><time>2026-04-18T06:57:40.873Z</time></trkpt><trkpt lat="42.1900117" lon="14.5888933"><ele>87.80000000000001</ele><time>2026-04-18T06:57:42.873Z</time></trkpt><trkpt lat="42.19013" lon="14.5888783"><ele>85.2</ele><time>2026-04-18T06:57:44.873Z</time></trkpt><trkpt lat="42.1902483" lon="14.58888"><ele>82.6</ele><time>2026-04-18T06:57:46.873Z</time></trkpt><trkpt lat="42.1903433" lon="14.5889"><ele>80.0</ele><time>2026-04-18T06:57:48.873Z</time></trkpt><trkpt lat="42.1904117" lon="14.5888917"><ele>80.0</ele><time>2026-04-18T06:57:50.873Z</time></trkpt><trkpt lat="42.1904517" lon="14.588765"><ele>80.0</ele><time>2026-04-18T06:57:53.873Z</time></trkpt><trkpt lat="42.19047" lon="14.5886633"><ele>80.0</ele><time>2026-04-18T06:57:55.873Z</time></trkpt><trkpt lat="42.190485" lon="14.5885633"><ele>80.0</ele><time>2026-04-18T06:57:57.873Z</time></trkpt><trkpt lat="42.1904917" lon="14.588465"><ele>80.0</ele><time>2026-04-18T06:57:59.873Z</time></trkpt><trkpt lat="42.1904883" lon="14.58835"><ele>80.0</ele><time>2026-04-18T06:58:02.873Z</time></trkpt><trkpt lat="42.1905233" lon="14.588265"><ele>79.83333333333334</ele><time>2026-04-18T06:58:05.872Z</time></trkpt><trkpt lat="42.1905867" lon="14.5882267"><ele>79.66666666666667</ele><time>2026-04-18T06:58:09.873Z</time></trkpt><trkpt lat="42.1906667" lon="14.5882367"><ele>79.5</ele><time>2026-04-18T06:58:14.873Z</time></trkpt><trkpt lat="42.1907533" lon="14.588225"><ele>79.33333333333333</ele><time>2026-04-18T06:58:17.873Z</time></trkpt><trkpt lat="42.1908233" lon="14.5882333"><ele>79.16666666666666</ele><time>2026-04-18T06:58:20.873Z</time></trkpt><trkpt lat="42.1909117" lon="14.588255"><ele>79.0</ele><time>2026-04-18T06:58:23.873Z</time></trkpt><trkpt lat="42.190995" lon="14.58829"><ele>77.5</ele><time>2026-04-18T06:58:26.873Z</time></trkpt><trkpt lat="42.1910267" lon="14.5883983"><ele>76.0</ele><time>2026-04-18T06:58:29.873Z</time></trkpt><trkpt lat="42.1910567" lon="14.5884817"><ele>74.5</ele><time>2026-04-18T06:58:31.872Z</time></trkpt><trkpt lat="42.1910867" lon="14.5885817"><ele>73.0</ele><time>2026-04-18T06:58:33.873Z</time></trkpt><trkpt lat="42.19112" lon="14.5886767"><ele>71.5</ele><time>2026-04-18T06:58:35.873Z</time></trkpt><trkpt lat="42.1911533" lon="14.58879"><ele>70.0</ele><time>2026-04-18T06:58:37.873Z</time></trkpt><trkpt lat="42.191195" lon="14.5888967"><ele>69.33333333333333</ele><time>2026-04-18T06:58:39.873Z</time></trkpt><trkpt lat="42.1912267" lon="14.5890067"><ele>68.66666666666666</ele><time>2026-04-18T06:58:41.873Z</time></trkpt><trkpt lat="42.19127" lon="14.58911"><ele>68.0</ele><time>2026-04-18T06:58:43.872Z</time></trkpt><trkpt lat="42.19131" lon="14.5892133"><ele>67.33333333333333</ele><time>2026-04-18T06:58:45.873Z</time></trkpt><trkpt lat="42.19137" lon="14.5892983"><ele>66.66666666666667</ele><time>2026-04-18T06:58:47.873Z</time></trkpt><trkpt lat="42.191405" lon="14.58938"><ele>66.0</ele><time>2026-04-18T06:58:49.873Z</time></trkpt><trkpt lat="42.1914333" lon="14.589465"><ele>66.0</ele><time>2026-04-18T06:58:51.873Z</time></trkpt><trkpt lat="42.19147" lon="14.5895633"><ele>66.0</ele><time>2026-04-18T06:58:53.873Z</time></trkpt><trkpt lat="42.191515" lon="14.5896683"><ele>66.0</ele><time>2026-04-18T06:58:55.872Z</time></trkpt><trkpt lat="42.1915533" lon="14.58976"><ele>66.0</ele><time>2026-04-18T06:58:57.873Z</time></trkpt><trkpt lat="42.1915867" lon="14.58984"><ele>66.0</ele><time>2026-04-18T06:58:59.872Z</time></trkpt><trkpt lat="42.19161" lon="14.5899583"><ele>66.0</ele><time>2026-04-18T06:59:02.873Z</time></trkpt><trkpt lat="42.1916083" lon="14.5900517"><ele>66.0</ele><time>2026-04-18T06:59:04.873Z</time></trkpt><trkpt lat="42.1915767" lon="14.5901517"><ele>66.0</ele><time>2026-04-18T06:59:07.872Z</time></trkpt><trkpt lat="42.19154" lon="14.5902283"><ele>66.0</ele><time>2026-04-18T06:59:09.873Z</time></trkpt><trkpt lat="42.1914983" lon="14.5903067"><ele>66.0</ele><time>2026-04-18T06:59:11.873Z</time></trkpt><trkpt lat="42.1914483" lon="14.5903783"><ele>66.0</ele><time>2026-04-18T06:59:13.872Z</time></trkpt><trkpt lat="42.191405" lon="14.5904817"><ele>66.0</ele><time>2026-04-18T06:59:15.873Z</time></trkpt><trkpt lat="42.1913717" lon="14.5905883"><ele>65.6</ele><time>2026-04-18T06:59:17.873Z</time></trkpt><trkpt lat="42.191345" lon="14.5906983"><ele>65.19999999999999</ele><time>2026-04-18T06:59:19.873Z</time></trkpt><trkpt lat="42.1913067" lon="14.5908133"><ele>64.80000000000001</ele><time>2026-04-18T06:59:21.873Z</time></trkpt><trkpt lat="42.191255" lon="14.590925"><ele>64.4</ele><time>2026-04-18T06:59:23.873Z</time></trkpt><trkpt lat="42.1912083" lon="14.5910417"><ele>64.0</ele><time>2026-04-18T06:59:25.872Z</time></trkpt><trkpt lat="42.19118" lon="14.5911667"><ele>63.6</ele><time>2026-04-18T06:59:27.873Z</time></trkpt><trkpt lat="42.191185" lon="14.59129"><ele>63.2</ele><time>2026-04-18T06:59:29.873Z</time></trkpt><trkpt lat="42.1912317" lon="14.5914117"><ele>62.800000000000004</ele><time>2026-04-18T06:59:31.873Z</time></trkpt><trkpt lat="42.1913017" lon="14.5915433"><ele>62.400000000000006</ele><time>2026-04-18T06:59:33.872Z</time></trkpt><trkpt lat="42.1913317" lon="14.59162"><ele>62.0</ele><time>2026-04-18T06:59:34.873Z</time></trkpt><trkpt lat="42.191375" lon="14.5917567"><ele>62.0</ele><time>2026-04-18T06:59:36.873Z</time></trkpt><trkpt lat="42.1913833" lon="14.59188"><ele>62.0</ele><time>2026-04-18T06:59:38.873Z</time></trkpt><trkpt lat="42.1913567" lon="14.5920017"><ele>62.0</ele><time>2026-04-18T06:59:40.873Z</time></trkpt><trkpt lat="42.1913017" lon="14.592135"><ele>62.0</ele><time>2026-04-18T06:59:42.873Z</time></trkpt><trkpt lat="42.1912433" lon="14.5922817"><ele>62.0</ele><time>2026-04-18T06:59:44.873Z</time></trkpt><trkpt lat="42.1911883" lon="14.592425"><ele>61.6</ele><time>2026-04-18T06:59:46.873Z</time></trkpt><trkpt lat="42.1911367" lon="14.59258"><ele>61.2</ele><time>2026-04-18T06:59:48.873Z</time></trkpt><trkpt lat="42.1911067" lon="14.5926617"><ele>60.8</ele><time>2026-04-18T06:59:49.873Z</time></trkpt><trkpt lat="42.1910667" lon="14.5928217"><ele>60.4</ele><time>2026-04-18T06:59:51.873Z</time></trkpt><trkpt lat="42.19103" lon="14.592975"><ele>60.0</ele><time>2026-04-18T06:59:53.873Z</time></trkpt><trkpt lat="42.1910017" lon="14.5931233"><ele>59.6</ele><time>2026-04-18T06:59:55.872Z</time></trkpt><trkpt lat="42.1909767" lon="14.593275"><ele>59.2</ele><time>2026-04-18T06:59:57.872Z</time></trkpt><trkpt lat="42.1909467" lon="14.5934183"><ele>58.8</ele><time>2026-04-18T06:59:59.873Z</time></trkpt><trkpt lat="42.1909" lon="14.5935467"><ele>58.4</ele><time>2026-04-18T07:00:01.873Z</time></trkpt><trkpt lat="42.1908333" lon="14.593655"><ele>58.0</ele><time>2026-04-18T07:00:03.872Z</time></trkpt><trkpt lat="42.1907683" lon="14.5937567"><ele>57.99999999999999</ele><time>2026-04-18T07:00:05.873Z</time></trkpt><trkpt lat="42.1907167" lon="14.59387"><ele>58.0</ele><time>2026-04-18T07:00:07.873Z</time></trkpt><trkpt lat="42.19068" lon="14.5939833"><ele>58.0</ele><time>2026-04-18T07:00:09.873Z</time></trkpt><trkpt lat="42.1906567" lon="14.59409"><ele>58.0</ele><time>2026-04-18T07:00:11.873Z</time></trkpt><trkpt lat="42.19064" lon="14.5941783"><ele>57.99999999999999</ele><time>2026-04-18T07:00:13.872Z</time></trkpt><trkpt lat="42.1906083" lon="14.5942983"><ele>58.0</ele><time>2026-04-18T07:00:16.873Z</time></trkpt><trkpt lat="42.1906217" lon="14.5943883"><ele>57.8</ele><time>2026-04-18T07:00:19.872Z</time></trkpt><trkpt lat="42.1906667" lon="14.5944633"><ele>57.599999999999994</ele><time>2026-04-18T07:00:21.873Z</time></trkpt><trkpt lat="42.190715" lon="14.59457"><ele>57.400000000000006</ele><time>2026-04-18T07:00:23.873Z</time></trkpt><trkpt lat="42.1907667" lon="14.5947017"><ele>57.2</ele><time>2026-04-18T07:00:25.873Z</time></trkpt><trkpt lat="42.19081" lon="14.5948317"><ele>57.0</ele><time>2026-04-18T07:00:27.873Z</time></trkpt><trkpt lat="42.19086" lon="14.59498"><ele>57.0</ele><time>2026-04-18T07:00:29.873Z</time></trkpt><trkpt lat="42.1908933" lon="14.5950533"><ele>57.0</ele><time>2026-04-18T07:00:30.872Z</time></trkpt><trkpt lat="42.1909317" lon="14.5951217"><ele>57.0</ele><time>2026-04-18T07:00:31.872Z</time></trkpt><trkpt lat="42.19101" lon="14.5952467"><ele>57.0</ele><time>2026-04-18T07:00:33.873Z</time></trkpt><trkpt lat="42.1910917" lon="14.5953617"><ele>57.0</ele><time>2026-04-18T07:00:35.873Z</time></trkpt><trkpt lat="42.1911767" lon="14.5954533"><ele>57.2</ele><time>2026-04-18T07:00:37.872Z</time></trkpt><trkpt lat="42.1912533" lon="14.5955317"><ele>57.400000000000006</ele><time>2026-04-18T07:00:39.873Z</time></trkpt><trkpt lat="42.1913217" lon="14.595605"><ele>57.599999999999994</ele><time>2026-04-18T07:00:41.873Z</time></trkpt><trkpt lat="42.191395" lon="14.59568"><ele>57.8</ele><time>2026-04-18T07:00:43.872Z</time></trkpt><trkpt lat="42.1914683" lon="14.59575"><ele>58.0</ele><time>2026-04-18T07:00:45.873Z</time></trkpt><trkpt lat="42.1915483" lon="14.595825"><ele>60.166666666666664</ele><time>2026-04-18T07:00:47.873Z</time></trkpt><trkpt lat="42.1916333" lon="14.5958817"><ele>62.33333333333333</ele><time>2026-04-18T07:00:49.873Z</time></trkpt><trkpt lat="42.1917" lon="14.59594"><ele>64.5</ele><time>2026-04-18T07:00:51.873Z</time></trkpt><trkpt lat="42.19176" lon="14.596"><ele>66.66666666666667</ele><time>2026-04-18T07:00:54.873Z</time></trkpt><trkpt lat="42.191825" lon="14.5960917"><ele>68.83333333333334</ele><time>2026-04-18T07:00:58.873Z</time></trkpt><trkpt lat="42.1918833" lon="14.59618"><ele>71.0</ele><time>2026-04-18T07:01:00.872Z</time></trkpt><trkpt lat="42.1919533" lon="14.5962733"><ele>71.0</ele><time>2026-04-18T07:01:02.873Z</time></trkpt><trkpt lat="42.1920433" lon="14.5963333"><ele>71.0</ele><time>2026-04-18T07:01:04.873Z</time></trkpt><trkpt lat="42.192105" lon="14.596375"><ele>71.0</ele><time>2026-04-18T07:01:06.872Z</time></trkpt><trkpt lat="42.19217" lon="14.5964317"><ele>71.0</ele><time>2026-04-18T07:01:08.872Z</time></trkpt><trkpt lat="42.19224" lon="14.5964933"><ele>71.0</ele><time>2026-04-18T07:01:10.873Z</time></trkpt><trkpt lat="42.1923083" lon="14.596565"><ele>71.0</ele><time>2026-04-18T07:01:12.872Z</time></trkpt><trkpt lat="42.1923617" lon="14.596635"><ele>72.14285714285714</ele><time>2026-04-18T07:01:14.872Z</time></trkpt><trkpt lat="42.1924017" lon="14.5967067"><ele>73.28571428571428</ele><time>2026-04-18T07:01:16.873Z</time></trkpt><trkpt lat="42.19246" lon="14.5966517"><ele>74.42857142857143</ele><time>2026-04-18T07:01:20.872Z</time></trkpt><trkpt lat="42.1924917" lon="14.59653"><ele>75.57142857142857</ele><time>2026-04-18T07:01:23.872Z</time></trkpt><trkpt lat="42.192525" lon="14.5964417"><ele>76.71428571428572</ele><time>2026-04-18T07:01:25.872Z</time></trkpt><trkpt lat="42.1925517" lon="14.5963633"><ele>77.85714285714286</ele><time>2026-04-18T07:01:27.872Z</time></trkpt><trkpt lat="42.19255" lon="14.5962783"><ele>79.0</ele><time>2026-04-18T07:01:29.872Z</time></trkpt><trkpt lat="42.1924817" lon="14.5962183"><ele>79.0</ele><time>2026-04-18T07:01:32.872Z</time></trkpt><trkpt lat="42.1924067" lon="14.5961967"><ele>79.0</ele><time>2026-04-18T07:01:34.873Z</time></trkpt><trkpt lat="42.1923367" lon="14.5961267"><ele>79.0</ele><time>2026-04-18T07:01:37.873Z</time></trkpt><trkpt lat="42.1923583" lon="14.596025"><ele>79.0</ele><time>2026-04-18T07:01:40.873Z</time></trkpt><trkpt lat="42.1924083" lon="14.5959583"><ele>79.0</ele><time>2026-04-18T07:01:42.873Z</time></trkpt><trkpt lat="42.192465" lon="14.5958817"><ele>79.0</ele><time>2026-04-18T07:01:44.872Z</time></trkpt><trkpt lat="42.1925283" lon="14.5958033"><ele>79.6</ele><time>2026-04-18T07:01:46.872Z</time></trkpt><trkpt lat="42.1925967" lon="14.5957217"><ele>80.2</ele><time>2026-04-18T07:01:48.873Z</time></trkpt><trkpt lat="42.192665" lon="14.59564"><ele>80.8</ele><time>2026-04-18T07:01:50.872Z</time></trkpt><trkpt lat="42.1927333" lon="14.5955617"><ele>81.39999999999999</ele><time>2026-04-18T07:01:52.873Z</time></trkpt><trkpt lat="42.1927983" lon="14.5954733"><ele>82.0</ele><time>2026-04-18T07:01:54.872Z</time></trkpt><trkpt lat="42.1928683" lon="14.595385"><ele>82.16666666666666</ele><time>2026-04-18T07:01:56.872Z</time></trkpt><trkpt lat="42.192935" lon="14.595315"><ele>82.33333333333333</ele><time>2026-04-18T07:01:58.873Z</time></trkpt><trkpt lat="42.1929967" lon="14.5952433"><ele>82.5</ele><time>2026-04-18T07:02:00.873Z</time></trkpt><trkpt lat="42.1930633" lon="14.595175"><ele>82.66666666666667</ele><time>2026-04-18T07:02:02.873Z</time></trkpt><trkpt lat="42.19313" lon="14.5951017"><ele>82.83333333333334</ele><time>2026-04-18T07:02:04.873Z</time></trkpt><trkpt lat="42.193195" lon="14.59503"><ele>83.0</ele><time>2026-04-18T07:02:06.873Z</time></trkpt><trkpt lat="42.19326" lon="14.594955"><ele>83.33333333333334</ele><time>2026-04-18T07:02:08.873Z</time></trkpt><trkpt lat="42.193325" lon="14.5948833"><ele>83.66666666666667</ele><time>2026-04-18T07:02:10.873Z</time></trkpt><trkpt lat="42.193385" lon="14.5948217"><ele>84.0</ele><time>2026-04-18T07:02:12.873Z</time></trkpt><trkpt lat="42.193445" lon="14.59476"><ele>84.33333333333333</ele><time>2026-04-18T07:02:14.873Z</time></trkpt><trkpt lat="42.1934917" lon="14.59469"><ele>84.66666666666666</ele><time>2026-04-18T07:02:16.873Z</time></trkpt><trkpt lat="42.1935033" lon="14.5945833"><ele>85.0</ele><time>2026-04-18T07:02:19.872Z</time></trkpt><trkpt lat="42.1934667" lon="14.59449"><ele>85.0</ele><time>2026-04-18T07:02:22.873Z</time></trkpt><trkpt lat="42.1934217" lon="14.5944117"><ele>85.0</ele><time>2026-04-18T07:02:24.873Z</time></trkpt><trkpt lat="42.193375" lon="14.59434"><ele>85.0</ele><time>2026-04-18T07:02:26.873Z</time></trkpt><trkpt lat="42.193325" lon="14.5942583"><ele>85.0</ele><time>2026-04-18T07:02:28.873Z</time></trkpt><trkpt lat="42.193295" lon="14.59418"><ele>85.0</ele><time>2026-04-18T07:02:30.873Z</time></trkpt><trkpt lat="42.1933417" lon="14.5940867"><ele>85.0</ele><time>2026-04-18T07:02:33.873Z</time></trkpt><trkpt lat="42.1934017" lon="14.5940183"><ele>85.0</ele><time>2026-04-18T07:02:35.873Z</time></trkpt><trkpt lat="42.1934617" lon="14.5939433"><ele>85.0</ele><time>2026-04-18T07:02:37.872Z</time></trkpt><trkpt lat="42.1935167" lon="14.593855"><ele>85.0</ele><time>2026-04-18T07:02:39.873Z</time></trkpt><trkpt lat="42.1935783" lon="14.593775"><ele>85.0</ele><time>2026-04-18T07:02:41.873Z</time></trkpt><trkpt lat="42.193645" lon="14.5936883"><ele>85.0</ele><time>2026-04-18T07:02:43.873Z</time></trkpt><trkpt lat="42.19371" lon="14.593605"><ele>85.0</ele><time>2026-04-18T07:02:45.873Z</time></trkpt><trkpt lat="42.1937733" lon="14.5935233"><ele>85.0</ele><time>2026-04-18T07:02:47.873Z</time></trkpt><trkpt lat="42.193835" lon="14.5934283"><ele>85.0</ele><time>2026-04-18T07:02:49.872Z</time></trkpt><trkpt lat="42.193895" lon="14.5933533"><ele>85.0</ele><time>2026-04-18T07:02:51.873Z</time></trkpt><trkpt lat="42.193955" lon="14.5932667"><ele>85.0</ele><time>2026-04-18T07:02:53.872Z</time></trkpt><trkpt lat="42.1940033" lon="14.5931733"><ele>85.0</ele><time>2026-04-18T07:02:55.873Z</time></trkpt><trkpt lat="42.1940567" lon="14.5930883"><ele>85.0</ele><time>2026-04-18T07:02:57.873Z</time></trkpt><trkpt lat="42.1941183" lon="14.5929883"><ele>85.0</ele><time>2026-04-18T07:02:59.872Z</time></trkpt><trkpt lat="42.1941733" lon="14.5929017"><ele>85.0</ele><time>2026-04-18T07:03:01.873Z</time></trkpt><trkpt lat="42.19422" lon="14.5928217"><ele>85.0</ele><time>2026-04-18T07:03:03.872Z</time></trkpt><trkpt lat="42.1942717" lon="14.5927283"><ele>85.0</ele><time>2026-04-18T07:03:05.872Z</time></trkpt><trkpt lat="42.1943233" lon="14.5926367"><ele>85.0</ele><time>2026-04-18T07:03:07.872Z</time></trkpt><trkpt lat="42.19437" lon="14.59253"><ele>85.0</ele><time>2026-04-18T07:03:09.872Z</time></trkpt><trkpt lat="42.1944133" lon="14.59243"><ele>85.66666666666666</ele><time>2026-04-18T07:03:11.873Z</time></trkpt><trkpt lat="42.1944567" lon="14.5923333"><ele>86.33333333333333</ele><time>2026-04-18T07:03:13.872Z</time></trkpt><trkpt lat="42.194495" lon="14.5922367"><ele>87.0</ele><time>2026-04-18T07:03:15.873Z</time></trkpt><trkpt lat="42.1945417" lon="14.59213"><ele>87.66666666666667</ele><time>2026-04-18T07:03:17.873Z</time></trkpt><trkpt lat="42.19458" lon="14.59202"><ele>88.33333333333334</ele><time>2026-04-18T07:03:19.872Z</time></trkpt><trkpt lat="42.194615" lon="14.5919083"><ele>89.0</ele><time>2026-04-18T07:03:21.873Z</time></trkpt><trkpt lat="42.194655" lon="14.5918167"><ele>89.16666666666667</ele><time>2026-04-18T07:03:23.872Z</time></trkpt><trkpt lat="42.1946933" lon="14.5917183"><ele>89.33333333333334</ele><time>2026-04-18T07:03:25.873Z</time></trkpt><trkpt lat="42.1947317" lon="14.591615"><ele>89.5</ele><time>2026-04-18T07:03:27.873Z</time></trkpt><trkpt lat="42.1947683" lon="14.59151"><ele>89.66666666666667</ele><time>2026-04-18T07:03:29.873Z</time></trkpt><trkpt lat="42.1948067" lon="14.5914"><ele>89.83333333333333</ele><time>2026-04-18T07:03:31.873Z</time></trkpt><trkpt lat="42.194835" lon="14.5912833"><ele>90.0</ele><time>2026-04-18T07:03:33.873Z</time></trkpt><trkpt lat="42.1948633" lon="14.5911683"><ele>89.6</ele><time>2026-04-18T07:03:35.872Z</time></trkpt><trkpt lat="42.1948883" lon="14.5910467"><ele>89.2</ele><time>2026-04-18T07:03:37.872Z</time></trkpt><trkpt lat="42.1949233" lon="14.5909133"><ele>88.80000000000001</ele><time>2026-04-18T07:03:39.872Z</time></trkpt><trkpt lat="42.1949433" lon="14.5907917"><ele>88.4</ele><time>2026-04-18T07:03:41.873Z</time></trkpt><trkpt lat="42.194965" lon="14.5906717"><ele>88.0</ele><time>2026-04-18T07:03:43.873Z</time></trkpt><trkpt lat="42.194975" lon="14.59055"><ele>88.0</ele><time>2026-04-18T07:03:45.873Z</time></trkpt><trkpt lat="42.1949917" lon="14.5904367"><ele>88.0</ele><time>2026-04-18T07:03:47.872Z</time></trkpt><trkpt lat="42.1950083" lon="14.5903217"><ele>88.0</ele><time>2026-04-18T07:03:49.872Z</time></trkpt><trkpt lat="42.1950233" lon="14.59021"><ele>88.0</ele><time>2026-04-18T07:03:51.873Z</time></trkpt><trkpt lat="42.19503" lon="14.590105"><ele>88.0</ele><time>2026-04-18T07:03:53.872Z</time></trkpt><trkpt lat="42.1950467" lon="14.5899717"><ele>88.0</ele><time>2026-04-18T07:03:55.873Z</time></trkpt><trkpt lat="42.1950583" lon="14.5898467"><ele>87.83333333333333</ele><time>2026-04-18T07:03:57.873Z</time></trkpt><trkpt lat="42.1950683" lon="14.5897183"><ele>87.66666666666666</ele><time>2026-04-18T07:03:59.872Z</time></trkpt><trkpt lat="42.1950667" lon="14.5895983"><ele>87.5</ele><time>2026-04-18T07:04:01.873Z</time></trkpt><trkpt lat="42.1950783" lon="14.5894767"><ele>87.33333333333333</ele><time>2026-04-18T07:04:03.873Z</time></trkpt><trkpt lat="42.195085" lon="14.58936"><ele>87.16666666666667</ele><time>2026-04-18T07:04:05.872Z</time></trkpt><trkpt lat="42.1950917" lon="14.5892583"><ele>87.0</ele><time>2026-04-18T07:04:07.873Z</time></trkpt><trkpt lat="42.1950917" lon="14.58917"><ele>86.83333333333333</ele><time>2026-04-18T07:04:09.873Z</time></trkpt><trkpt lat="42.1950767" lon="14.5890683"><ele>86.66666666666667</ele><time>2026-04-18T07:04:12.873Z</time></trkpt><trkpt lat="42.1950783" lon="14.5889583"><ele>86.5</ele><time>2026-04-18T07:04:15.872Z</time></trkpt><trkpt lat="42.1951133" lon="14.5888483"><ele>86.33333333333334</ele><time>2026-04-18T07:04:17.873Z</time></trkpt><trkpt lat="42.1951317" lon="14.58871"><ele>86.16666666666667</ele><time>2026-04-18T07:04:19.872Z</time></trkpt><trkpt lat="42.1951383" lon="14.5885883"><ele>86.0</ele><time>2026-04-18T07:04:21.872Z</time></trkpt><trkpt lat="42.1951383" lon="14.5884717"><ele>85.6</ele><time>2026-04-18T07:04:23.872Z</time></trkpt><trkpt lat="42.19513" lon="14.5883533"><ele>85.19999999999999</ele><time>2026-04-18T07:04:25.873Z</time></trkpt><trkpt lat="42.1951133" lon="14.5882217"><ele>84.80000000000001</ele><time>2026-04-18T07:04:27.873Z</time></trkpt><trkpt lat="42.19511" lon="14.5880717"><ele>84.4</ele><time>2026-04-18T07:04:29.873Z</time></trkpt><trkpt lat="42.195105" lon="14.58792"><ele>84.0</ele><time>2026-04-18T07:04:31.873Z</time></trkpt><trkpt lat="42.195105" lon="14.587795"><ele>83.80000000000001</ele><time>2026-04-18T07:04:33.872Z</time></trkpt><trkpt lat="42.1951183" lon="14.58766"><ele>83.60000000000001</ele><time>2026-04-18T07:04:35.873Z</time></trkpt><trkpt lat="42.1951267" lon="14.5875233"><ele>83.4</ele><time>2026-04-18T07:04:37.873Z</time></trkpt><trkpt lat="42.1951483" lon="14.5874317"><ele>83.2</ele><time>2026-04-18T07:04:39.873Z</time></trkpt><trkpt lat="42.195225" lon="14.5874283"><ele>83.0</ele><time>2026-04-18T07:04:44.873Z</time></trkpt><trkpt lat="42.1953817" lon="14.58746"><ele>83.0</ele><time>2026-04-18T07:04:52.873Z</time></trkpt><trkpt lat="42.1955533" lon="14.58765"><ele>83.0</ele><time>2026-04-18T07:04:53.873Z</time></trkpt><trkpt lat="42.1956433" lon="14.5877733"><ele>83.0</ele><time>2026-04-18T07:04:54.872Z</time></trkpt><trkpt lat="42.1956867" lon="14.5878617"><ele>83.0</ele><time>2026-04-18T07:04:55.873Z</time></trkpt><trkpt lat="42.19573" lon="14.5879467"><ele>79.83333333333334</ele><time>2026-04-18T07:04:56.873Z</time></trkpt><trkpt lat="42.1957883" lon="14.5880183"><ele>76.66666666666667</ele><time>2026-04-18T07:04:57.872Z</time></trkpt><trkpt lat="42.19585" lon="14.5880883"><ele>73.5</ele><time>2026-04-18T07:04:58.873Z</time></trkpt><trkpt lat="42.19591" lon="14.588155"><ele>70.33333333333333</ele><time>2026-04-18T07:04:59.873Z</time></trkpt><trkpt lat="42.1959667" lon="14.5882183"><ele>67.16666666666666</ele><time>2026-04-18T07:05:00.872Z</time></trkpt><trkpt lat="42.1960183" lon="14.5882783"><ele>64.0</ele><time>2026-04-18T07:05:01.873Z</time></trkpt><trkpt lat="42.196095" lon="14.5883617"><ele>63.99999999999999</ele><time>2026-04-18T07:05:03.873Z</time></trkpt><trkpt lat="42.1961617" lon="14.58841"><ele>64.0</ele><time>2026-04-18T07:05:05.872Z</time></trkpt><trkpt lat="42.19623" lon="14.5883917"><ele>64.0</ele><time>2026-04-18T07:05:07.873Z</time></trkpt><trkpt lat="42.1963" lon="14.5882967"><ele>64.0</ele><time>2026-04-18T07:05:09.873Z</time></trkpt><trkpt lat="42.1963767" lon="14.5881733"><ele>63.99999999999999</ele><time>2026-04-18T07:05:11.872Z</time></trkpt><trkpt lat="42.1964183" lon="14.5881033"><ele>64.0</ele><time>2026-04-18T07:05:12.872Z</time></trkpt><trkpt lat="42.1964783" lon="14.58796"><ele>60.0</ele><time>2026-04-18T07:05:14.873Z</time></trkpt><trkpt lat="42.1965167" lon="14.5878017"><ele>56.00000000000001</ele><time>2026-04-18T07:05:16.872Z</time></trkpt><trkpt lat="42.1965367" lon="14.587715"><ele>52.0</ele><time>2026-04-18T07:05:17.872Z</time></trkpt><trkpt lat="42.1965567" lon="14.58763"><ele>48.0</ele><time>2026-04-18T07:05:18.873Z</time></trkpt><trkpt lat="42.1965783" lon="14.587545"><ele>44.0</ele><time>2026-04-18T07:05:19.873Z</time></trkpt><trkpt lat="42.1966183" lon="14.5873817"><ele>44.0</ele><time>2026-04-18T07:05:21.873Z</time></trkpt><trkpt lat="42.1966617" lon="14.5872267"><ele>44.0</ele><time>2026-04-18T07:05:23.873Z</time></trkpt><trkpt lat="42.1966933" lon="14.5870967"><ele>44.0</ele><time>2026-04-18T07:05:25.872Z</time></trkpt><trkpt lat="42.19671" lon="14.5869867"><ele>44.0</ele><time>2026-04-18T07:05:27.873Z</time></trkpt><trkpt lat="42.1967483" lon="14.5868733"><ele>44.0</ele><time>2026-04-18T07:05:29.873Z</time></trkpt><trkpt lat="42.196785" lon="14.5867517"><ele>44.2</ele><time>2026-04-18T07:05:31.873Z</time></trkpt><trkpt lat="42.1968267" lon="14.5866217"><ele>44.400000000000006</ele><time>2026-04-18T07:05:33.873Z</time></trkpt><trkpt lat="42.196845" lon="14.58654"><ele>44.6</ele><time>2026-04-18T07:05:34.872Z</time></trkpt><trkpt lat="42.1968717" lon="14.5863867"><ele>44.8</ele><time>2026-04-18T07:05:36.873Z</time></trkpt><trkpt lat="42.1969083" lon="14.5862417"><ele>45.0</ele><time>2026-04-18T07:05:38.873Z</time></trkpt><trkpt lat="42.19695" lon="14.5861217"><ele>45.0</ele><time>2026-04-18T07:05:40.872Z</time></trkpt><trkpt lat="42.197015" lon="14.5860317"><ele>45.0</ele><time>2026-04-18T07:05:42.873Z</time></trkpt><trkpt lat="42.1971267" lon="14.5860067"><ele>45.0</ele><time>2026-04-18T07:05:44.872Z</time></trkpt><trkpt lat="42.1971933" lon="14.5859917"><ele>45.0</ele><time>2026-04-18T07:05:45.872Z</time></trkpt><trkpt lat="42.1973183" lon="14.5859683"><ele>45.0</ele><time>2026-04-18T07:05:47.872Z</time></trkpt><trkpt lat="42.1974367" lon="14.5859417"><ele>43.285714285714285</ele><time>2026-04-18T07:05:49.873Z</time></trkpt><trkpt lat="42.1975483" lon="14.5859233"><ele>41.57142857142858</ele><time>2026-04-18T07:05:51.873Z</time></trkpt><trkpt lat="42.1976133" lon="14.5859233"><ele>39.85714285714286</ele><time>2026-04-18T07:05:52.872Z</time></trkpt><trkpt lat="42.1976767" lon="14.5859183"><ele>38.14285714285714</ele><time>2026-04-18T07:05:53.873Z</time></trkpt><trkpt lat="42.1977417" lon="14.5859117"><ele>36.42857142857143</ele><time>2026-04-18T07:05:54.873Z</time></trkpt><trkpt lat="42.1978083" lon="14.5859083"><ele>34.714285714285715</ele><time>2026-04-18T07:05:55.873Z</time></trkpt><trkpt lat="42.1978733" lon="14.5859067"><ele>33.0</ele><time>2026-04-18T07:05:56.873Z</time></trkpt><trkpt lat="42.1979383" lon="14.5858917"><ele>33.0</ele><time>2026-04-18T07:05:57.873Z</time></trkpt><trkpt lat="42.198005" lon="14.5858667"><ele>33.0</ele><time>2026-04-18T07:05:58.873Z</time></trkpt><trkpt lat="42.1980783" lon="14.5858483"><ele>33.0</ele><time>2026-04-18T07:05:59.873Z</time></trkpt><trkpt lat="42.1981483" lon="14.5858383"><ele>33.0</ele><time>2026-04-18T07:06:00.873Z</time></trkpt><trkpt lat="42.19822" lon="14.5858267"><ele>33.0</ele><time>2026-04-18T07:06:01.872Z</time></trkpt><trkpt lat="42.1982967" lon="14.58582"><ele>33.0</ele><time>2026-04-18T07:06:02.873Z</time></trkpt><trkpt lat="42.19837" lon="14.5858133"><ele>33.0</ele><time>2026-04-18T07:06:03.873Z</time></trkpt><trkpt lat="42.1984383" lon="14.5858067"><ele>31.857142857142858</ele><time>2026-04-18T07:06:04.873Z</time></trkpt><trkpt lat="42.1985067" lon="14.5858"><ele>30.714285714285715</ele><time>2026-04-18T07:06:05.873Z</time></trkpt><trkpt lat="42.198575" lon="14.5857917"><ele>29.571428571428573</ele><time>2026-04-18T07:06:06.873Z</time></trkpt><trkpt lat="42.1986433" lon="14.5857833"><ele>28.42857142857143</ele><time>2026-04-18T07:06:07.873Z</time></trkpt><trkpt lat="42.1987083" lon="14.58578"><ele>27.285714285714285</ele><time>2026-04-18T07:06:08.873Z</time></trkpt><trkpt lat="42.1988117" lon="14.5857767"><ele>26.142857142857146</ele><time>2026-04-18T07:06:10.872Z</time></trkpt><trkpt lat="42.1988817" lon="14.5858"><ele>25.0</ele><time>2026-04-18T07:06:12.873Z</time></trkpt><trkpt lat="42.1988983" lon="14.58592"><ele>25.000000000000004</ele><time>2026-04-18T07:06:15.873Z</time></trkpt><trkpt lat="42.1988933" lon="14.5860217"><ele>25.0</ele><time>2026-04-18T07:06:17.873Z</time></trkpt><trkpt lat="42.19889" lon="14.58612"><ele>25.0</ele><time>2026-04-18T07:06:19.873Z</time></trkpt><trkpt lat="42.1988783" lon="14.5862283"><ele>25.0</ele><time>2026-04-18T07:06:21.873Z</time></trkpt><trkpt lat="42.1988683" lon="14.5863533"><ele>25.000000000000004</ele><time>2026-04-18T07:06:23.873Z</time></trkpt><trkpt lat="42.1988583" lon="14.5864783"><ele>25.0</ele><time>2026-04-18T07:06:25.873Z</time></trkpt><trkpt lat="42.19885" lon="14.586595"><ele>25.2</ele><time>2026-04-18T07:06:27.873Z</time></trkpt><trkpt lat="42.1988317" lon="14.5867283"><ele>25.4</ele><time>2026-04-18T07:06:29.873Z</time></trkpt><trkpt lat="42.1988133" lon="14.5868683"><ele>25.6</ele><time>2026-04-18T07:06:31.872Z</time></trkpt><trkpt lat="42.1988017" lon="14.58702"><ele>25.8</ele><time>2026-04-18T07:06:33.872Z</time></trkpt><trkpt lat="42.1987917" lon="14.5871617"><ele>26.0</ele><time>2026-04-18T07:06:35.872Z</time></trkpt><trkpt lat="42.1987767" lon="14.5872883"><ele>25.999999999999996</ele><time>2026-04-18T07:06:37.872Z</time></trkpt><trkpt lat="42.1987733" lon="14.58741"><ele>26.0</ele><time>2026-04-18T07:06:39.873Z</time></trkpt><trkpt lat="42.1987717" lon="14.5875333"><ele>26.0</ele><time>2026-04-18T07:06:41.873Z</time></trkpt><trkpt lat="42.1988133" lon="14.58763"><ele>26.0</ele><time>2026-04-18T07:06:43.872Z</time></trkpt><trkpt lat="42.1988583" lon="14.587725"><ele>25.999999999999996</ele><time>2026-04-18T07:06:45.873Z</time></trkpt><trkpt lat="42.19893" lon="14.5877833"><ele>26.0</ele><time>2026-04-18T07:06:47.872Z</time></trkpt><trkpt lat="42.1989833" lon="14.5878667"><ele>26.0</ele><time>2026-04-18T07:06:49.873Z</time></trkpt><trkpt lat="42.1989817" lon="14.5879983"><ele>26.0</ele><time>2026-04-18T07:06:51.873Z</time></trkpt><trkpt lat="42.1989767" lon="14.58816"><ele>26.0</ele><time>2026-04-18T07:06:53.873Z</time></trkpt><trkpt lat="42.19898" lon="14.5883017"><ele>26.0</ele><time>2026-04-18T07:06:55.872Z</time></trkpt><trkpt lat="42.1989683" lon="14.5884217"><ele>26.0</ele><time>2026-04-18T07:06:57.873Z</time></trkpt><trkpt lat="42.19897" lon="14.588545"><ele>25.200000000000003</ele><time>2026-04-18T07:06:59.872Z</time></trkpt><trkpt lat="42.1989783" lon="14.5886833"><ele>24.400000000000002</ele><time>2026-04-18T07:07:01.873Z</time></trkpt><trkpt lat="42.198985" lon="14.5888417"><ele>23.6</ele><time>2026-04-18T07:07:03.873Z</time></trkpt><trkpt lat="42.19898" lon="14.5889783"><ele>22.8</ele><time>2026-04-18T07:07:05.873Z</time></trkpt><trkpt lat="42.19898" lon="14.5890817"><ele>22.0</ele><time>2026-04-18T07:07:07.873Z</time></trkpt><trkpt lat="42.1989817" lon="14.5891667"><ele>20.200000000000003</ele><time>2026-04-18T07:07:09.873Z</time></trkpt><trkpt lat="42.1990267" lon="14.589255"><ele>18.400000000000002</ele><time>2026-04-18T07:07:12.873Z</time></trkpt><trkpt lat="42.1991" lon="14.5892867"><ele>16.6</ele><time>2026-04-18T07:07:14.873Z</time></trkpt><trkpt lat="42.19919" lon="14.5892917"><ele>14.8</ele><time>2026-04-18T07:07:16.872Z</time></trkpt><trkpt lat="42.199295" lon="14.5892883"><ele>13.0</ele><time>2026-04-18T07:07:18.873Z</time></trkpt><trkpt lat="42.1994033" lon="14.58928"><ele>13.0</ele><time>2026-04-18T07:07:20.872Z</time></trkpt><trkpt lat="42.1995067" lon="14.58928"><ele>13.0</ele><time>2026-04-18T07:07:22.873Z</time></trkpt><trkpt lat="42.1996117" lon="14.589285"><ele>13.0</ele><time>2026-04-18T07:07:24.872Z</time></trkpt><trkpt lat="42.19973" lon="14.5892917"><ele>13.0</ele><time>2026-04-18T07:07:26.873Z</time></trkpt><trkpt lat="42.1997933" lon="14.58929"><ele>13.0</ele><time>2026-04-18T07:07:27.872Z</time></trkpt><trkpt lat="42.1999167" lon="14.589285"><ele>12.4</ele><time>2026-04-18T07:07:29.873Z</time></trkpt><trkpt lat="42.200035" lon="14.5892783"><ele>11.8</ele><time>2026-04-18T07:07:31.872Z</time></trkpt><trkpt lat="42.20013" lon="14.5892783"><ele>11.2</ele><time>2026-04-18T07:07:33.873Z</time></trkpt><trkpt lat="42.2002233" lon="14.5892717"><ele>10.6</ele><time>2026-04-18T07:07:35.872Z</time></trkpt><trkpt lat="42.2003" lon="14.589215"><ele>10.0</ele><time>2026-04-18T07:07:37.872Z</time></trkpt><trkpt lat="42.2003467" lon="14.5891167"><ele>10.0</ele><time>2026-04-18T07:07:39.872Z</time></trkpt><trkpt lat="42.20038" lon="14.5890167"><ele>10.0</ele><time>2026-04-18T07:07:41.872Z</time></trkpt><trkpt lat="42.2004183" lon="14.5889183"><ele>10.0</ele><time>2026-04-18T07:07:43.872Z</time></trkpt><trkpt lat="42.2004617" lon="14.5888217"><ele>10.0</ele><time>2026-04-18T07:07:45.873Z</time></trkpt><trkpt lat="42.2005267" lon="14.5887283"><ele>10.0</ele><time>2026-04-18T07:07:47.872Z</time></trkpt><trkpt lat="42.20059" lon="14.5886483"><ele>10.0</ele><time>2026-04-18T07:07:49.872Z</time></trkpt><trkpt lat="42.20066" lon="14.588565"><ele>9.8</ele><time>2026-04-18T07:07:51.872Z</time></trkpt><trkpt lat="42.2007483" lon="14.5884867"><ele>9.6</ele><time>2026-04-18T07:07:53.872Z</time></trkpt><trkpt lat="42.2008367" lon="14.5884233"><ele>9.4</ele><time>2026-04-18T07:07:55.873Z</time></trkpt><trkpt lat="42.200935" lon="14.588365"><ele>9.2</ele><time>2026-04-18T07:07:57.873Z</time></trkpt><trkpt lat="42.2010267" lon="14.5882833"><ele>9.0</ele><time>2026-04-18T07:07:59.872Z</time></trkpt><trkpt lat="42.2011067" lon="14.58818"><ele>9.0</ele><time>2026-04-18T07:08:01.873Z</time></trkpt><trkpt lat="42.2011817" lon="14.5880717"><ele>9.0</ele><time>2026-04-18T07:08:03.873Z</time></trkpt><trkpt lat="42.2012883" lon="14.5879983"><ele>9.0</ele><time>2026-04-18T07:08:05.873Z</time></trkpt><trkpt lat="42.201375" lon="14.58794"><ele>9.0</ele><time>2026-04-18T07:08:07.872Z</time></trkpt><trkpt lat="42.2014267" lon="14.5878317"><ele>9.0</ele><time>2026-04-18T07:08:09.872Z</time></trkpt><trkpt lat="42.2014617" lon="14.5877117"><ele>9.4</ele><time>2026-04-18T07:08:11.873Z</time></trkpt><trkpt lat="42.2014833" lon="14.5875933"><ele>9.8</ele><time>2026-04-18T07:08:13.872Z</time></trkpt><trkpt lat="42.2015033" lon="14.5874767"><ele>10.200000000000001</ele><time>2026-04-18T07:08:15.873Z</time></trkpt><trkpt lat="42.2015283" lon="14.5873467"><ele>10.600000000000001</ele><time>2026-04-18T07:08:17.872Z</time></trkpt><trkpt lat="42.2015567" lon="14.5872083"><ele>11.0</ele><time>2026-04-18T07:08:19.872Z</time></trkpt><trkpt lat="42.20158" lon="14.587065"><ele>11.5</ele><time>2026-04-18T07:08:21.872Z</time></trkpt><trkpt lat="42.2016033" lon="14.5869167"><ele>12.0</ele><time>2026-04-18T07:08:23.873Z</time></trkpt><trkpt lat="42.2016267" lon="14.5867667"><ele>12.5</ele><time>2026-04-18T07:08:25.873Z</time></trkpt><trkpt lat="42.2016467" lon="14.586605"><ele>13.0</ele><time>2026-04-18T07:08:27.873Z</time></trkpt><trkpt lat="42.2016683" lon="14.5864533"><ele>13.0</ele><time>2026-04-18T07:08:29.872Z</time></trkpt><trkpt lat="42.2016933" lon="14.5863133"><ele>13.0</ele><time>2026-04-18T07:08:31.872Z</time></trkpt><trkpt lat="42.2017183" lon="14.5861883"><ele>13.0</ele><time>2026-04-18T07:08:33.873Z</time></trkpt><trkpt lat="42.20175" lon="14.5860567"><ele>13.0</ele><time>2026-04-18T07:08:35.872Z</time></trkpt><trkpt lat="42.2017917" lon="14.5859183"><ele>13.0</ele><time>2026-04-18T07:08:37.873Z</time></trkpt><trkpt lat="42.20185" lon="14.5857817"><ele>12.8</ele><time>2026-04-18T07:08:39.873Z</time></trkpt><trkpt lat="42.201905" lon="14.58566"><ele>12.600000000000001</ele><time>2026-04-18T07:08:41.872Z</time></trkpt><trkpt lat="42.2019533" lon="14.58556"><ele>12.399999999999999</ele><time>2026-04-18T07:08:43.872Z</time></trkpt><trkpt lat="42.202005" lon="14.5854583"><ele>12.2</ele><time>2026-04-18T07:08:45.872Z</time></trkpt><trkpt lat="42.2020783" lon="14.5853517"><ele>12.0</ele><time>2026-04-18T07:08:47.873Z</time></trkpt><trkpt lat="42.202145" lon="14.5852717"><ele>12.0</ele><time>2026-04-18T07:08:49.873Z</time></trkpt><trkpt lat="42.2022117" lon="14.5851867"><ele>12.0</ele><time>2026-04-18T07:08:51.873Z</time></trkpt><trkpt lat="42.2022917" lon="14.5851017"><ele>12.0</ele><time>2026-04-18T07:08:53.873Z</time></trkpt><trkpt lat="42.2023867" lon="14.5850117"><ele>12.0</ele><time>2026-04-18T07:08:55.872Z</time></trkpt><trkpt lat="42.2024933" lon="14.5849267"><ele>12.0</ele><time>2026-04-18T07:08:57.873Z</time></trkpt><trkpt lat="42.2025933" lon="14.5848717"><ele>11.8</ele><time>2026-04-18T07:08:59.873Z</time></trkpt><trkpt lat="42.20268" lon="14.5848133"><ele>11.6</ele><time>2026-04-18T07:09:01.872Z</time></trkpt><trkpt lat="42.202765" lon="14.5847633"><ele>11.4</ele><time>2026-04-18T07:09:03.873Z</time></trkpt><trkpt lat="42.2028433" lon="14.5847217"><ele>11.200000000000001</ele><time>2026-04-18T07:09:05.873Z</time></trkpt><trkpt lat="42.20292" lon="14.5846633"><ele>11.0</ele><time>2026-04-18T07:09:07.872Z</time></trkpt><trkpt lat="42.20299" lon="14.58459"><ele>11.142857142857142</ele><time>2026-04-18T07:09:09.873Z</time></trkpt><trkpt lat="42.2030483" lon="14.5844967"><ele>11.285714285714285</ele><time>2026-04-18T07:09:11.873Z</time></trkpt><trkpt lat="42.20308" lon="14.5844083"><ele>11.428571428571427</ele><time>2026-04-18T07:09:13.872Z</time></trkpt><trkpt lat="42.20311" lon="14.5843267"><ele>11.571428571428571</ele><time>2026-04-18T07:09:16.872Z</time></trkpt><trkpt lat="42.2030783" lon="14.5842517"><ele>11.714285714285714</ele><time>2026-04-18T07:09:19.873Z</time></trkpt><trkpt lat="42.2030117" lon="14.584255"><ele>11.857142857142856</ele><time>2026-04-18T07:09:21.872Z</time></trkpt><trkpt lat="42.202925" lon="14.5842567"><ele>12.0</ele><time>2026-04-18T07:09:23.873Z</time></trkpt><trkpt lat="42.2028267" lon="14.5842517"><ele>12.0</ele><time>2026-04-18T07:09:25.872Z</time></trkpt><trkpt lat="42.2027283" lon="14.58424"><ele>12.0</ele><time>2026-04-18T07:09:27.873Z</time></trkpt><trkpt lat="42.202645" lon="14.5842283"><ele>12.0</ele><time>2026-04-18T07:09:29.873Z</time></trkpt><trkpt lat="42.20255" lon="14.5842133"><ele>12.0</ele><time>2026-04-18T07:09:31.872Z</time></trkpt><trkpt lat="42.2024517" lon="14.5841917"><ele>12.0</ele><time>2026-04-18T07:09:33.873Z</time></trkpt><trkpt lat="42.2023517" lon="14.584175"><ele>12.2</ele><time>2026-04-18T07:09:35.873Z</time></trkpt><trkpt lat="42.2022617" lon="14.5841617"><ele>12.399999999999999</ele><time>2026-04-18T07:09:37.873Z</time></trkpt><trkpt lat="42.20217" lon="14.5841417"><ele>12.600000000000001</ele><time>2026-04-18T07:09:39.873Z</time></trkpt><trkpt lat="42.202085" lon="14.5841217"><ele>12.8</ele><time>2026-04-18T07:09:41.873Z</time></trkpt><trkpt lat="42.2019967" lon="14.5841083"><ele>13.0</ele><time>2026-04-18T07:09:43.872Z</time></trkpt><trkpt lat="42.2019033" lon="14.584095"><ele>12.999999999999998</ele><time>2026-04-18T07:09:45.872Z</time></trkpt><trkpt lat="42.20181" lon="14.5840733"><ele>13.0</ele><time>2026-04-18T07:09:47.873Z</time></trkpt><trkpt lat="42.2017233" lon="14.58406"><ele>13.0</ele><time>2026-04-18T07:09:49.872Z</time></trkpt><trkpt lat="42.2016467" lon="14.5840183"><ele>13.0</ele><time>2026-04-18T07:09:51.872Z</time></trkpt><trkpt lat="42.2015883" lon="14.5839433"><ele>12.999999999999998</ele><time>2026-04-18T07:09:53.872Z</time></trkpt><trkpt lat="42.201575" lon="14.58383"><ele>13.0</ele><time>2026-04-18T07:09:55.872Z</time></trkpt><trkpt lat="42.2015817" lon="14.58371"><ele>13.0</ele><time>2026-04-18T07:09:57.873Z</time></trkpt><trkpt lat="42.201595" lon="14.583595"><ele>13.0</ele><time>2026-04-18T07:09:59.872Z</time></trkpt><trkpt lat="42.201605" lon="14.5834717"><ele>13.0</ele><time>2026-04-18T07:10:01.872Z</time></trkpt><trkpt lat="42.2016167" lon="14.583345"><ele>13.0</ele><time>2026-04-18T07:10:03.873Z</time></trkpt><trkpt lat="42.2016233" lon="14.58322"><ele>13.0</ele><time>2026-04-18T07:10:05.872Z</time></trkpt><trkpt lat="42.2016317" lon="14.5830933"><ele>13.0</ele><time>2026-04-18T07:10:07.873Z</time></trkpt><trkpt lat="42.2016433" lon="14.5829683"><ele>13.0</ele><time>2026-04-18T07:10:09.873Z</time></trkpt><trkpt lat="42.2016483" lon="14.58284"><ele>13.0</ele><time>2026-04-18T07:10:11.873Z</time></trkpt><trkpt lat="42.2016567" lon="14.582715"><ele>13.0</ele><time>2026-04-18T07:10:13.873Z</time></trkpt><trkpt lat="42.2016733" lon="14.5825883"><ele>13.0</ele><time>2026-04-18T07:10:15.873Z</time></trkpt><trkpt lat="42.20169" lon="14.5824733"><ele>12.999999999999998</ele><time>2026-04-18T07:10:17.873Z</time></trkpt><trkpt lat="42.2017033" lon="14.5823483"><ele>13.0</ele><time>2026-04-18T07:10:19.873Z</time></trkpt><trkpt lat="42.201705" lon="14.5822183"><ele>13.0</ele><time>2026-04-18T07:10:21.873Z</time></trkpt><trkpt lat="42.2016717" lon="14.58211"><ele>13.0</ele><time>2026-04-18T07:10:23.873Z</time></trkpt><trkpt lat="42.2016033" lon="14.5820567"><ele>12.999999999999998</ele><time>2026-04-18T07:10:25.873Z</time></trkpt><trkpt lat="42.20152" lon="14.58204"><ele>13.0</ele><time>2026-04-18T07:10:27.873Z</time></trkpt><trkpt lat="42.2014283" lon="14.582035"><ele>13.2</ele><time>2026-04-18T07:10:29.873Z</time></trkpt><trkpt lat="42.2013367" lon="14.5820233"><ele>13.4</ele><time>2026-04-18T07:10:31.873Z</time></trkpt><trkpt lat="42.2012383" lon="14.5820083"><ele>13.599999999999998</ele><time>2026-04-18T07:10:33.873Z</time></trkpt><trkpt lat="42.20114" lon="14.581985"><ele>13.799999999999999</ele><time>2026-04-18T07:10:35.873Z</time></trkpt><trkpt lat="42.2010333" lon="14.5819633"><ele>14.0</ele><time>2026-04-18T07:10:37.873Z</time></trkpt><trkpt lat="42.200935" lon="14.58195"><ele>14.2</ele><time>2026-04-18T07:10:39.872Z</time></trkpt><trkpt lat="42.2008467" lon="14.5819317"><ele>14.399999999999999</ele><time>2026-04-18T07:10:41.873Z</time></trkpt><trkpt lat="42.20075" lon="14.5819067"><ele>14.6</ele><time>2026-04-18T07:10:43.873Z</time></trkpt><trkpt lat="42.200655" lon="14.5818883"><ele>14.8</ele><time>2026-04-18T07:10:45.873Z</time></trkpt><trkpt lat="42.200565" lon="14.5818683"><ele>15.0</ele><time>2026-04-18T07:10:47.873Z</time></trkpt><trkpt lat="42.200475" lon="14.58185"><ele>15.4</ele><time>2026-04-18T07:10:49.872Z</time></trkpt><trkpt lat="42.200385" lon="14.5818333"><ele>15.8</ele><time>2026-04-18T07:10:51.873Z</time></trkpt><trkpt lat="42.2002983" lon="14.5818217"><ele>16.2</ele><time>2026-04-18T07:10:53.872Z</time></trkpt><trkpt lat="42.2002033" lon="14.5818017"><ele>16.6</ele><time>2026-04-18T07:10:55.873Z</time></trkpt><trkpt lat="42.2001" lon="14.5817917"><ele>17.0</ele><time>2026-04-18T07:10:57.873Z</time></trkpt><trkpt lat="42.200005" lon="14.5817833"><ele>17.0</ele><time>2026-04-18T07:10:59.873Z</time></trkpt><trkpt lat="42.1999033" lon="14.581765"><ele>17.0</ele><time>2026-04-18T07:11:01.873Z</time></trkpt><trkpt lat="42.1998033" lon="14.5817433"><ele>17.0</ele><time>2026-04-18T07:11:03.872Z</time></trkpt><trkpt lat="42.19971" lon="14.5817317"><ele>17.0</ele><time>2026-04-18T07:11:05.873Z</time></trkpt><trkpt lat="42.19962" lon="14.5817133"><ele>17.0</ele><time>2026-04-18T07:11:07.873Z</time></trkpt><trkpt lat="42.19953" lon="14.5816967"><ele>17.6</ele><time>2026-04-18T07:11:09.873Z</time></trkpt><trkpt lat="42.199435" lon="14.581715"><ele>18.2</ele><time>2026-04-18T07:11:11.873Z</time></trkpt><trkpt lat="42.1993683" lon="14.5817883"><ele>18.8</ele><time>2026-04-18T07:11:13.873Z</time></trkpt><trkpt lat="42.1993083" lon="14.5818883"><ele>19.4</ele><time>2026-04-18T07:11:15.873Z</time></trkpt><trkpt lat="42.1992533" lon="14.5819883"><ele>20.0</ele><time>2026-04-18T07:11:17.873Z</time></trkpt><trkpt lat="42.1991783" lon="14.5820533"><ele>20.0</ele><time>2026-04-18T07:11:19.873Z</time></trkpt><trkpt lat="42.199085" lon="14.582065"><ele>20.0</ele><time>2026-04-18T07:11:21.873Z</time></trkpt><trkpt lat="42.198985" lon="14.5820617"><ele>20.0</ele><time>2026-04-18T07:11:23.873Z</time></trkpt><trkpt lat="42.19888" lon="14.582025"><ele>20.0</ele><time>2026-04-18T07:11:25.873Z</time></trkpt><trkpt lat="42.19877" lon="14.5819817"><ele>20.0</ele><time>2026-04-18T07:11:27.873Z</time></trkpt><trkpt lat="42.198665" lon="14.58196"><ele>20.8</ele><time>2026-04-18T07:11:29.873Z</time></trkpt><trkpt lat="42.19855" lon="14.5819417"><ele>21.6</ele><time>2026-04-18T07:11:31.873Z</time></trkpt><trkpt lat="42.1984433" lon="14.5819117"><ele>22.4</ele><time>2026-04-18T07:11:33.872Z</time></trkpt><trkpt lat="42.1983417" lon="14.58187"><ele>23.2</ele><time>2026-04-18T07:11:35.873Z</time></trkpt><trkpt lat="42.1982467" lon="14.58182"><ele>24.0</ele><time>2026-04-18T07:11:37.873Z</time></trkpt><trkpt lat="42.1981767" lon="14.5817133"><ele>24.0</ele><time>2026-04-18T07:11:39.872Z</time></trkpt><trkpt lat="42.19816" lon="14.5815633"><ele>24.0</ele><time>2026-04-18T07:11:41.873Z</time></trkpt><trkpt lat="42.1981817" lon="14.58141"><ele>24.0</ele><time>2026-04-18T07:11:43.873Z</time></trkpt><trkpt lat="42.198195" lon="14.5812633"><ele>24.0</ele><time>2026-04-18T07:11:45.873Z</time></trkpt><trkpt lat="42.1982033" lon="14.5811083"><ele>24.6</ele><time>2026-04-18T07:11:47.873Z</time></trkpt><trkpt lat="42.1982183" lon="14.580955"><ele>25.2</ele><time>2026-04-18T07:11:49.872Z</time></trkpt><trkpt lat="42.1982283" lon="14.5807983"><ele>25.800000000000004</ele><time>2026-04-18T07:11:51.872Z</time></trkpt><trkpt lat="42.1982383" lon="14.5806517"><ele>26.400000000000002</ele><time>2026-04-18T07:11:53.872Z</time></trkpt><trkpt lat="42.1982583" lon="14.5805067"><ele>27.0</ele><time>2026-04-18T07:11:55.873Z</time></trkpt><trkpt lat="42.1982667" lon="14.5803733"><ele>27.8</ele><time>2026-04-18T07:11:57.872Z</time></trkpt><trkpt lat="42.1982233" lon="14.5802533"><ele>28.6</ele><time>2026-04-18T07:11:59.872Z</time></trkpt><trkpt lat="42.198135" lon="14.5801867"><ele>29.400000000000002</ele><time>2026-04-18T07:12:01.872Z</time></trkpt><trkpt lat="42.1980283" lon="14.5801633"><ele>30.200000000000003</ele><time>2026-04-18T07:12:03.873Z</time></trkpt><trkpt lat="42.1979183" lon="14.580135"><ele>31.0</ele><time>2026-04-18T07:12:05.873Z</time></trkpt><trkpt lat="42.19781" lon="14.5801167"><ele>32.6</ele><time>2026-04-18T07:12:07.873Z</time></trkpt><trkpt lat="42.197705" lon="14.5800967"><ele>34.2</ele><time>2026-04-18T07:12:09.872Z</time></trkpt><trkpt lat="42.1975983" lon="14.58008"><ele>35.8</ele><time>2026-04-18T07:12:11.873Z</time></trkpt><trkpt lat="42.1974917" lon="14.5800617"><ele>37.4</ele><time>2026-04-18T07:12:13.873Z</time></trkpt><trkpt lat="42.1973917" lon="14.5800433"><ele>39.0</ele><time>2026-04-18T07:12:15.873Z</time></trkpt><trkpt lat="42.1972933" lon="14.5800267"><ele>40.5</ele><time>2026-04-18T07:12:17.873Z</time></trkpt><trkpt lat="42.1972017" lon="14.5800083"><ele>42.0</ele><time>2026-04-18T07:12:19.873Z</time></trkpt><trkpt lat="42.197125" lon="14.579995"><ele>43.5</ele><time>2026-04-18T07:12:21.873Z</time></trkpt><trkpt lat="42.19704" lon="14.5799833"><ele>45.0</ele><time>2026-04-18T07:12:23.873Z</time></trkpt><trkpt lat="42.1969583" lon="14.5799583"><ele>46.5</ele><time>2026-04-18T07:12:25.873Z</time></trkpt><trkpt lat="42.1968767" lon="14.57994"><ele>48.0</ele><time>2026-04-18T07:12:27.873Z</time></trkpt><trkpt lat="42.1967867" lon="14.579915"><ele>48.0</ele><time>2026-04-18T07:12:29.872Z</time></trkpt><trkpt lat="42.1967033" lon="14.5798967"><ele>48.0</ele><time>2026-04-18T07:12:31.873Z</time></trkpt><trkpt lat="42.19663" lon="14.5798683"><ele>48.0</ele><time>2026-04-18T07:12:33.873Z</time></trkpt><trkpt lat="42.19657" lon="14.5798067"><ele>48.0</ele><time>2026-04-18T07:12:35.872Z</time></trkpt><trkpt lat="42.1965417" lon="14.5796683"><ele>48.0</ele><time>2026-04-18T07:12:37.873Z</time></trkpt><trkpt lat="42.1965383" lon="14.5795"><ele>49.2</ele><time>2026-04-18T07:12:39.872Z</time></trkpt><trkpt lat="42.196555" lon="14.5793567"><ele>50.4</ele><time>2026-04-18T07:12:41.873Z</time></trkpt><trkpt lat="42.1965667" lon="14.5792217"><ele>51.60000000000001</ele><time>2026-04-18T07:12:43.873Z</time></trkpt><trkpt lat="42.196585" lon="14.5790817"><ele>52.800000000000004</ele><time>2026-04-18T07:12:45.873Z</time></trkpt><trkpt lat="42.196595" lon="14.5789583"><ele>54.0</ele><time>2026-04-18T07:12:47.872Z</time></trkpt><trkpt lat="42.1966033" lon="14.578835"><ele>54.0</ele><time>2026-04-18T07:12:49.872Z</time></trkpt><trkpt lat="42.1966167" lon="14.5787117"><ele>54.00000000000001</ele><time>2026-04-18T07:12:51.873Z</time></trkpt><trkpt lat="42.1966283" lon="14.57858"><ele>54.00000000000001</ele><time>2026-04-18T07:12:53.873Z</time></trkpt><trkpt lat="42.1966367" lon="14.5784467"><ele>54.0</ele><time>2026-04-18T07:12:55.873Z</time></trkpt><trkpt lat="42.1966533" lon="14.5782933"><ele>54.0</ele><time>2026-04-18T07:12:57.872Z</time></trkpt><trkpt lat="42.196675" lon="14.5781517"><ele>55.2</ele><time>2026-04-18T07:12:59.873Z</time></trkpt><trkpt lat="42.1966983" lon="14.5779983"><ele>56.400000000000006</ele><time>2026-04-18T07:13:01.872Z</time></trkpt><trkpt lat="42.1967133" lon="14.57786"><ele>57.6</ele><time>2026-04-18T07:13:03.873Z</time></trkpt><trkpt lat="42.1967317" lon="14.57772"><ele>58.8</ele><time>2026-04-18T07:13:05.873Z</time></trkpt><trkpt lat="42.1967367" lon="14.577585"><ele>60.0</ele><time>2026-04-18T07:13:07.873Z</time></trkpt><trkpt lat="42.1967533" lon="14.5774433"><ele>60.8</ele><time>2026-04-18T07:13:09.872Z</time></trkpt><trkpt lat="42.19676" lon="14.577305"><ele>61.6</ele><time>2026-04-18T07:13:11.872Z</time></trkpt><trkpt lat="42.1967733" lon="14.5771767"><ele>62.400000000000006</ele><time>2026-04-18T07:13:13.873Z</time></trkpt><trkpt lat="42.1967933" lon="14.5770467"><ele>63.2</ele><time>2026-04-18T07:13:15.873Z</time></trkpt><trkpt lat="42.1968133" lon="14.5769033"><ele>64.0</ele><time>2026-04-18T07:13:17.873Z</time></trkpt><trkpt lat="42.1968333" lon="14.5767383"><ele>64.0</ele><time>2026-04-18T07:13:19.873Z</time></trkpt><trkpt lat="42.1968433" lon="14.5766467"><ele>63.99999999999999</ele><time>2026-04-18T07:13:20.872Z</time></trkpt><trkpt lat="42.1968583" lon="14.576545"><ele>64.0</ele><time>2026-04-18T07:13:21.873Z</time></trkpt><trkpt lat="42.1968733" lon="14.5764367"><ele>64.0</ele><time>2026-04-18T07:13:22.873Z</time></trkpt><trkpt lat="42.196885" lon="14.5763333"><ele>63.99999999999999</ele><time>2026-04-18T07:13:23.872Z</time></trkpt><trkpt lat="42.1968967" lon="14.5762317"><ele>64.0</ele><time>2026-04-18T07:13:24.873Z</time></trkpt><trkpt lat="42.1969083" lon="14.5761433"><ele>64.0</ele><time>2026-04-18T07:13:25.873Z</time></trkpt><trkpt lat="42.1969317" lon="14.5759817"><ele>63.800000000000004</ele><time>2026-04-18T07:13:27.872Z</time></trkpt><trkpt lat="42.1969517" lon="14.575835"><ele>63.60000000000001</ele><time>2026-04-18T07:13:29.872Z</time></trkpt><trkpt lat="42.1969733" lon="14.5757417"><ele>63.4</ele><time>2026-04-18T07:13:31.872Z</time></trkpt><trkpt lat="42.197055" lon="14.575715"><ele>63.2</ele><time>2026-04-18T07:13:34.872Z</time></trkpt><trkpt lat="42.1971517" lon="14.575755"><ele>63.0</ele><time>2026-04-18T07:13:36.873Z</time></trkpt><trkpt lat="42.197245" lon="14.575745"><ele>63.0</ele><time>2026-04-18T07:13:38.873Z</time></trkpt><trkpt lat="42.1973017" lon="14.5756583"><ele>63.0</ele><time>2026-04-18T07:13:40.873Z</time></trkpt><trkpt lat="42.19731" lon="14.5754983"><ele>63.0</ele><time>2026-04-18T07:13:42.873Z</time></trkpt><trkpt lat="42.197315" lon="14.5754067"><ele>63.0</ele><time>2026-04-18T07:13:43.873Z</time></trkpt><trkpt lat="42.1973133" lon="14.57532"><ele>63.0</ele><time>2026-04-18T07:13:44.873Z</time></trkpt><trkpt lat="42.19732" lon="14.5752317"><ele>63.0</ele><time>2026-04-18T07:13:45.873Z</time></trkpt><trkpt lat="42.19732" lon="14.5751417"><ele>63.166666666666664</ele><time>2026-04-18T07:13:46.872Z</time></trkpt><trkpt lat="42.197315" lon="14.575055"><ele>63.33333333333333</ele><time>2026-04-18T07:13:47.873Z</time></trkpt><trkpt lat="42.19731" lon="14.5749583"><ele>63.5</ele><time>2026-04-18T07:13:48.873Z</time></trkpt><trkpt lat="42.1973083" lon="14.5748633"><ele>63.666666666666664</ele><time>2026-04-18T07:13:49.872Z</time></trkpt><trkpt lat="42.1973083" lon="14.5747783"><ele>63.83333333333333</ele><time>2026-04-18T07:13:50.873Z</time></trkpt><trkpt lat="42.1973183" lon="14.5746367"><ele>64.0</ele><time>2026-04-18T07:13:52.872Z</time></trkpt><trkpt lat="42.1973333" lon="14.574485"><ele>61.666666666666664</ele><time>2026-04-18T07:13:54.873Z</time></trkpt><trkpt lat="42.1973433" lon="14.5743633"><ele>59.33333333333333</ele><time>2026-04-18T07:13:56.873Z</time></trkpt><trkpt lat="42.197355" lon="14.5742683"><ele>57.0</ele><time>2026-04-18T07:13:58.873Z</time></trkpt><trkpt lat="42.19736" lon="14.5741767"><ele>54.66666666666667</ele><time>2026-04-18T07:14:00.873Z</time></trkpt><trkpt lat="42.19736" lon="14.5740867"><ele>52.333333333333336</ele><time>2026-04-18T07:14:02.873Z</time></trkpt><trkpt lat="42.19736" lon="14.5739717"><ele>50.0</ele><time>2026-04-18T07:14:04.873Z</time></trkpt><trkpt lat="42.1973683" lon="14.5738567"><ele>50.00000000000001</ele><time>2026-04-18T07:14:06.872Z</time></trkpt><trkpt lat="42.197375" lon="14.5737383"><ele>50.0</ele><time>2026-04-18T07:14:08.872Z</time></trkpt><trkpt lat="42.1973783" lon="14.5736117"><ele>50.0</ele><time>2026-04-18T07:14:10.873Z</time></trkpt><trkpt lat="42.1973833" lon="14.573495"><ele>50.0</ele><time>2026-04-18T07:14:12.873Z</time></trkpt><trkpt lat="42.1973867" lon="14.5733733"><ele>50.00000000000001</ele><time>2026-04-18T07:14:14.872Z</time></trkpt><trkpt lat="42.1974" lon="14.5732583"><ele>50.0</ele><time>2026-04-18T07:14:16.873Z</time></trkpt><trkpt lat="42.197415" lon="14.573135"><ele>50.833333333333336</ele><time>2026-04-18T07:14:18.873Z</time></trkpt><trkpt lat="42.1974183" lon="14.5730233"><ele>51.66666666666667</ele><time>2026-04-18T07:14:20.873Z</time></trkpt><trkpt lat="42.1974267" lon="14.57291"><ele>52.5</ele><time>2026-04-18T07:14:22.873Z</time></trkpt><trkpt lat="42.19743" lon="14.5727933"><ele>53.33333333333333</ele><time>2026-04-18T07:14:24.873Z</time></trkpt><trkpt lat="42.1974367" lon="14.5726717"><ele>54.166666666666664</ele><time>2026-04-18T07:14:26.873Z</time></trkpt><trkpt lat="42.1974417" lon="14.5725533"><ele>55.0</ele><time>2026-04-18T07:14:28.873Z</time></trkpt><trkpt lat="42.1974533" lon="14.572435"><ele>55.33333333333333</ele><time>2026-04-18T07:14:30.873Z</time></trkpt><trkpt lat="42.1974733" lon="14.5723133"><ele>55.666666666666664</ele><time>2026-04-18T07:14:32.873Z</time></trkpt><trkpt lat="42.197475" lon="14.572205"><ele>56.0</ele><time>2026-04-18T07:14:34.873Z</time></trkpt><trkpt lat="42.1974867" lon="14.5721033"><ele>56.33333333333333</ele><time>2026-04-18T07:14:36.873Z</time></trkpt><trkpt lat="42.1974983" lon="14.5719983"><ele>56.666666666666664</ele><time>2026-04-18T07:14:38.872Z</time></trkpt><trkpt lat="42.1975083" lon="14.5718783"><ele>57.0</ele><time>2026-04-18T07:14:40.873Z</time></trkpt><trkpt lat="42.19752" lon="14.57176"><ele>57.166666666666664</ele><time>2026-04-18T07:14:42.872Z</time></trkpt><trkpt lat="42.19752" lon="14.5716333"><ele>57.33333333333333</ele><time>2026-04-18T07:14:44.872Z</time></trkpt><trkpt lat="42.1975283" lon="14.5715083"><ele>57.5</ele><time>2026-04-18T07:14:46.873Z</time></trkpt><trkpt lat="42.19753" lon="14.571385"><ele>57.666666666666664</ele><time>2026-04-18T07:14:48.873Z</time></trkpt><trkpt lat="42.1975333" lon="14.5712633"><ele>57.83333333333333</ele><time>2026-04-18T07:14:50.872Z</time></trkpt><trkpt lat="42.1975383" lon="14.57117"><ele>58.0</ele><time>2026-04-18T07:14:52.872Z</time></trkpt><trkpt lat="42.1975517" lon="14.5710483"><ele>58.4</ele><time>2026-04-18T07:14:55.873Z</time></trkpt><trkpt lat="42.1975733" lon="14.5709533"><ele>58.8</ele><time>2026-04-18T07:14:57.873Z</time></trkpt><trkpt lat="42.1975967" lon="14.5708317"><ele>59.2</ele><time>2026-04-18T07:14:59.873Z</time></trkpt><trkpt lat="42.197615" lon="14.5706933"><ele>59.6</ele><time>2026-04-18T07:15:01.872Z</time></trkpt><trkpt lat="42.1976367" lon="14.5705517"><ele>60.0</ele><time>2026-04-18T07:15:03.873Z</time></trkpt><trkpt lat="42.1976583" lon="14.5704117"><ele>60.2</ele><time>2026-04-18T07:15:05.872Z</time></trkpt><trkpt lat="42.1976717" lon="14.5702867"><ele>60.4</ele><time>2026-04-18T07:15:07.872Z</time></trkpt><trkpt lat="42.19768" lon="14.5701483"><ele>60.599999999999994</ele><time>2026-04-18T07:15:09.873Z</time></trkpt><trkpt lat="42.1976783" lon="14.5700217"><ele>60.8</ele><time>2026-04-18T07:15:11.873Z</time></trkpt><trkpt lat="42.197625" lon="14.5699383"><ele>61.0</ele><time>2026-04-18T07:15:13.872Z</time></trkpt><trkpt lat="42.1975483" lon="14.56989"><ele>60.99999999999999</ele><time>2026-04-18T07:15:15.873Z</time></trkpt><trkpt lat="42.1974617" lon="14.569845"><ele>61.0</ele><time>2026-04-18T07:15:17.873Z</time></trkpt><trkpt lat="42.197385" lon="14.569795"><ele>61.0</ele><time>2026-04-18T07:15:19.872Z</time></trkpt><trkpt lat="42.197345" lon="14.5697183"><ele>61.0</ele><time>2026-04-18T07:15:21.873Z</time></trkpt><trkpt lat="42.1973617" lon="14.5696283"><ele>60.99999999999999</ele><time>2026-04-18T07:15:23.872Z</time></trkpt><trkpt lat="42.1974033" lon="14.569525"><ele>61.0</ele><time>2026-04-18T07:15:25.873Z</time></trkpt><trkpt lat="42.19744" lon="14.5694233"><ele>60.666666666666664</ele><time>2026-04-18T07:15:27.873Z</time></trkpt><trkpt lat="42.1974867" lon="14.569265"><ele>60.33333333333333</ele><time>2026-04-18T07:15:29.872Z</time></trkpt><trkpt lat="42.19751" lon="14.5691817"><ele>60.0</ele><time>2026-04-18T07:15:30.873Z</time></trkpt><trkpt lat="42.1975333" lon="14.5690917"><ele>59.66666666666667</ele><time>2026-04-18T07:15:31.873Z</time></trkpt><trkpt lat="42.197555" lon="14.5690083"><ele>59.333333333333336</ele><time>2026-04-18T07:15:32.872Z</time></trkpt><trkpt lat="42.19758" lon="14.5689217"><ele>59.0</ele><time>2026-04-18T07:15:33.873Z</time></trkpt><trkpt lat="42.1976" lon="14.5688317"><ele>59.00000000000001</ele><time>2026-04-18T07:15:34.873Z</time></trkpt><trkpt lat="42.1976183" lon="14.568735"><ele>59.0</ele><time>2026-04-18T07:15:35.873Z</time></trkpt><trkpt lat="42.1976367" lon="14.5686317"><ele>59.0</ele><time>2026-04-18T07:15:36.873Z</time></trkpt><trkpt lat="42.197665" lon="14.56852"><ele>59.0</ele><time>2026-04-18T07:15:37.873Z</time></trkpt><trkpt lat="42.1977033" lon="14.5684117"><ele>59.00000000000001</ele><time>2026-04-18T07:15:38.873Z</time></trkpt><trkpt lat="42.1977367" lon="14.5683133"><ele>59.0</ele><time>2026-04-18T07:15:39.873Z</time></trkpt><trkpt lat="42.1977683" lon="14.568215"><ele>58.833333333333336</ele><time>2026-04-18T07:15:40.872Z</time></trkpt><trkpt lat="42.197805" lon="14.5681167"><ele>58.66666666666667</ele><time>2026-04-18T07:15:41.873Z</time></trkpt><trkpt lat="42.1978367" lon="14.5680117"><ele>58.5</ele><time>2026-04-18T07:15:42.872Z</time></trkpt><trkpt lat="42.1978667" lon="14.5679083"><ele>58.33333333333333</ele><time>2026-04-18T07:15:43.873Z</time></trkpt><trkpt lat="42.1979033" lon="14.56781"><ele>58.166666666666664</ele><time>2026-04-18T07:15:44.873Z</time></trkpt><trkpt lat="42.1979433" lon="14.567715"><ele>58.0</ele><time>2026-04-18T07:15:45.873Z</time></trkpt><trkpt lat="42.1979783" lon="14.5675983"><ele>57.83333333333333</ele><time>2026-04-18T07:15:46.872Z</time></trkpt><trkpt lat="42.1980133" lon="14.5674817"><ele>57.666666666666664</ele><time>2026-04-18T07:15:47.873Z</time></trkpt><trkpt lat="42.1980417" lon="14.5673717"><ele>57.5</ele><time>2026-04-18T07:15:48.872Z</time></trkpt><trkpt lat="42.198075" lon="14.567265"><ele>57.33333333333333</ele><time>2026-04-18T07:15:49.873Z</time></trkpt><trkpt lat="42.19811" lon="14.5671633"><ele>57.166666666666664</ele><time>2026-04-18T07:15:50.873Z</time></trkpt><trkpt lat="42.1981433" lon="14.567065"><ele>57.0</ele><time>2026-04-18T07:15:51.873Z</time></trkpt><trkpt lat="42.198185" lon="14.566965"><ele>55.0</ele><time>2026-04-18T07:15:52.872Z</time></trkpt><trkpt lat="42.1982267" lon="14.5668683"><ele>53.0</ele><time>2026-04-18T07:15:53.873Z</time></trkpt><trkpt lat="42.1982683" lon="14.566775"><ele>51.0</ele><time>2026-04-18T07:15:54.872Z</time></trkpt><trkpt lat="42.1983067" lon="14.566685"><ele>49.0</ele><time>2026-04-18T07:15:55.873Z</time></trkpt><trkpt lat="42.19834" lon="14.5665967"><ele>47.0</ele><time>2026-04-18T07:15:56.873Z</time></trkpt><trkpt lat="42.1983783" lon="14.5665233"><ele>45.0</ele><time>2026-04-18T07:15:57.873Z</time></trkpt><trkpt lat="42.1984167" lon="14.5664433"><ele>45.0</ele><time>2026-04-18T07:15:58.873Z</time></trkpt><trkpt lat="42.19846" lon="14.5663567"><ele>45.0</ele><time>2026-04-18T07:15:59.873Z</time></trkpt><trkpt lat="42.1985033" lon="14.56626"><ele>45.0</ele><time>2026-04-18T07:16:00.873Z</time></trkpt><trkpt lat="42.198545" lon="14.56615"><ele>45.0</ele><time>2026-04-18T07:16:01.873Z</time></trkpt><trkpt lat="42.1985917" lon="14.5660333"><ele>45.0</ele><time>2026-04-18T07:16:02.873Z</time></trkpt><trkpt lat="42.198635" lon="14.5659183"><ele>45.0</ele><time>2026-04-18T07:16:03.873Z</time></trkpt><trkpt lat="42.1986767" lon="14.5657967"><ele>44.8</ele><time>2026-04-18T07:16:04.873Z</time></trkpt><trkpt lat="42.1987233" lon="14.5656817"><ele>44.6</ele><time>2026-04-18T07:16:05.872Z</time></trkpt><trkpt lat="42.1987567" lon="14.5655567"><ele>44.400000000000006</ele><time>2026-04-18T07:16:06.873Z</time></trkpt><trkpt lat="42.198795" lon="14.5654383"><ele>44.2</ele><time>2026-04-18T07:16:07.873Z</time></trkpt><trkpt lat="42.19884" lon="14.5653183"><ele>44.0</ele><time>2026-04-18T07:16:08.872Z</time></trkpt><trkpt lat="42.1988833" lon="14.5652033"><ele>43.0</ele><time>2026-04-18T07:16:09.873Z</time></trkpt><trkpt lat="42.1989283" lon="14.56509"><ele>42.0</ele><time>2026-04-18T07:16:10.873Z</time></trkpt><trkpt lat="42.1989683" lon="14.564985"><ele>41.0</ele><time>2026-04-18T07:16:11.872Z</time></trkpt><trkpt lat="42.1990117" lon="14.56488"><ele>40.0</ele><time>2026-04-18T07:16:12.873Z</time></trkpt><trkpt lat="42.1990533" lon="14.56478"><ele>39.0</ele><time>2026-04-18T07:16:13.873Z</time></trkpt><trkpt lat="42.19909" lon="14.5646883"><ele>38.0</ele><time>2026-04-18T07:16:14.873Z</time></trkpt><trkpt lat="42.1991233" lon="14.5646"><ele>37.166666666666664</ele><time>2026-04-18T07:16:15.873Z</time></trkpt><trkpt lat="42.199155" lon="14.56452"><ele>36.33333333333333</ele><time>2026-04-18T07:16:16.873Z</time></trkpt><trkpt lat="42.1992033" lon="14.56439"><ele>35.5</ele><time>2026-04-18T07:16:18.872Z</time></trkpt><trkpt lat="42.1992483" lon="14.564315"><ele>34.666666666666664</ele><time>2026-04-18T07:16:20.873Z</time></trkpt><trkpt lat="42.1993283" lon="14.5643133"><ele>33.833333333333336</ele><time>2026-04-18T07:16:23.872Z</time></trkpt><trkpt lat="42.19939" lon="14.56436"><ele>33.0</ele><time>2026-04-18T07:16:25.873Z</time></trkpt><trkpt lat="42.1994683" lon="14.56437"><ele>33.0</ele><time>2026-04-18T07:16:28.873Z</time></trkpt><trkpt lat="42.199575" lon="14.5643933"><ele>33.0</ele><time>2026-04-18T07:16:30.873Z</time></trkpt><trkpt lat="42.19964" lon="14.564415"><ele>33.0</ele><time>2026-04-18T07:16:31.873Z</time></trkpt><trkpt lat="42.199735" lon="14.5645333"><ele>33.0</ele><time>2026-04-18T07:16:33.872Z</time></trkpt><trkpt lat="42.1997933" lon="14.56459"><ele>33.0</ele><time>2026-04-18T07:16:34.873Z</time></trkpt><trkpt lat="42.1998533" lon="14.5646283"><ele>33.0</ele><time>2026-04-18T07:16:35.873Z</time></trkpt><trkpt lat="42.1999133" lon="14.5646683"><ele>31.75</ele><time>2026-04-18T07:16:36.872Z</time></trkpt><trkpt lat="42.2000267" lon="14.5647233"><ele>30.5</ele><time>2026-04-18T07:16:38.873Z</time></trkpt><trkpt lat="42.2001417" lon="14.5647483"><ele>29.25</ele><time>2026-04-18T07:16:40.872Z</time></trkpt><trkpt lat="42.2002517" lon="14.5647033"><ele>28.0</ele><time>2026-04-18T07:16:42.873Z</time></trkpt><trkpt lat="42.2003317" lon="14.5645917"><ele>27.799999999999997</ele><time>2026-04-18T07:16:44.873Z</time></trkpt><trkpt lat="42.2003817" lon="14.5644567"><ele>27.599999999999998</ele><time>2026-04-18T07:16:46.872Z</time></trkpt><trkpt lat="42.2004267" lon="14.56432"><ele>27.400000000000002</ele><time>2026-04-18T07:16:48.873Z</time></trkpt><trkpt lat="42.2004917" lon="14.564205"><ele>27.200000000000003</ele><time>2026-04-18T07:16:50.873Z</time></trkpt><trkpt lat="42.20058" lon="14.5641167"><ele>27.0</ele><time>2026-04-18T07:16:52.872Z</time></trkpt><trkpt lat="42.2006717" lon="14.56403"><ele>27.0</ele><time>2026-04-18T07:16:54.873Z</time></trkpt><trkpt lat="42.2007733" lon="14.5639683"><ele>27.000000000000004</ele><time>2026-04-18T07:16:56.872Z</time></trkpt><trkpt lat="42.2008733" lon="14.563885"><ele>27.000000000000004</ele><time>2026-04-18T07:16:58.873Z</time></trkpt><trkpt lat="42.2009483" lon="14.5637833"><ele>27.0</ele><time>2026-04-18T07:17:00.873Z</time></trkpt><trkpt lat="42.20101" lon="14.563655"><ele>27.0</ele><time>2026-04-18T07:17:02.873Z</time></trkpt><trkpt lat="42.2010617" lon="14.5635183"><ele>28.0</ele><time>2026-04-18T07:17:04.872Z</time></trkpt><trkpt lat="42.20112" lon="14.563385"><ele>29.0</ele><time>2026-04-18T07:17:06.873Z</time></trkpt><trkpt lat="42.2011717" lon="14.5632517"><ele>30.0</ele><time>2026-04-18T07:17:08.873Z</time></trkpt><trkpt lat="42.2012283" lon="14.5631217"><ele>31.0</ele><time>2026-04-18T07:17:10.873Z</time></trkpt><trkpt lat="42.2012833" lon="14.562985"><ele>31.200000000000003</ele><time>2026-04-18T07:17:12.873Z</time></trkpt><trkpt lat="42.20132" lon="14.5628483"><ele>31.400000000000002</ele><time>2026-04-18T07:17:14.873Z</time></trkpt><trkpt lat="42.2013283" lon="14.5627067"><ele>31.6</ele><time>2026-04-18T07:17:16.873Z</time></trkpt><trkpt lat="42.2013183" lon="14.5625717"><ele>31.8</ele><time>2026-04-18T07:17:18.873Z</time></trkpt><trkpt lat="42.2013167" lon="14.5624267"><ele>32.0</ele><time>2026-04-18T07:17:20.873Z</time></trkpt><trkpt lat="42.2013067" lon="14.5622717"><ele>32.0</ele><time>2026-04-18T07:17:22.873Z</time></trkpt><trkpt lat="42.2012883" lon="14.5621233"><ele>32.0</ele><time>2026-04-18T07:17:24.873Z</time></trkpt><trkpt lat="42.2012783" lon="14.5619817"><ele>32.0</ele><time>2026-04-18T07:17:26.873Z</time></trkpt><trkpt lat="42.2012633" lon="14.5618283"><ele>32.0</ele><time>2026-04-18T07:17:28.872Z</time></trkpt><trkpt lat="42.2012517" lon="14.561675"><ele>32.0</ele><time>2026-04-18T07:17:30.872Z</time></trkpt><trkpt lat="42.201235" lon="14.5615317"><ele>32.0</ele><time>2026-04-18T07:17:32.873Z</time></trkpt><trkpt lat="42.2012367" lon="14.5613833"><ele>32.0</ele><time>2026-04-18T07:17:34.872Z</time></trkpt><trkpt lat="42.201245" lon="14.56124"><ele>32.0</ele><time>2026-04-18T07:17:36.873Z</time></trkpt><trkpt lat="42.2012583" lon="14.5610967"><ele>32.0</ele><time>2026-04-18T07:17:38.873Z</time></trkpt><trkpt lat="42.201275" lon="14.56096"><ele>32.0</ele><time>2026-04-18T07:17:40.872Z</time></trkpt><trkpt lat="42.2013" lon="14.5608317"><ele>32.0</ele><time>2026-04-18T07:17:42.873Z</time></trkpt><trkpt lat="42.2013317" lon="14.5606983"><ele>32.0</ele><time>2026-04-18T07:17:44.873Z</time></trkpt><trkpt lat="42.2013633" lon="14.5605517"><ele>32.0</ele><time>2026-04-18T07:17:46.873Z</time></trkpt><trkpt lat="42.2013983" lon="14.560405"><ele>32.0</ele><time>2026-04-18T07:17:48.873Z</time></trkpt><trkpt lat="42.2014417" lon="14.5602733"><ele>32.0</ele><time>2026-04-18T07:17:50.873Z</time></trkpt><trkpt lat="42.2014517" lon="14.5601733"><ele>31.666666666666664</ele><time>2026-04-18T07:17:52.873Z</time></trkpt><trkpt lat="42.2014217" lon="14.5600933"><ele>31.333333333333332</ele><time>2026-04-18T07:17:55.873Z</time></trkpt><trkpt lat="42.20136" lon="14.5600167"><ele>31.0</ele><time>2026-04-18T07:17:59.872Z</time></trkpt><trkpt lat="42.2013" lon="14.559965"><ele>30.666666666666664</ele><time>2026-04-18T07:18:02.872Z</time></trkpt><trkpt lat="42.2012517" lon="14.5598667"><ele>30.333333333333332</ele><time>2026-04-18T07:18:06.873Z</time></trkpt><trkpt lat="42.201165" lon="14.559755"><ele>30.0</ele><time>2026-04-18T07:18:08.873Z</time></trkpt><trkpt lat="42.2011067" lon="14.5596267"><ele>30.666666666666668</ele><time>2026-04-18T07:18:10.872Z</time></trkpt><trkpt lat="42.2010633" lon="14.5595117"><ele>31.333333333333336</ele><time>2026-04-18T07:18:12.873Z</time></trkpt><trkpt lat="42.2010217" lon="14.5594033"><ele>32.0</ele><time>2026-04-18T07:18:14.873Z</time></trkpt><trkpt lat="42.201035" lon="14.55929"><ele>32.66666666666667</ele><time>2026-04-18T07:18:16.872Z</time></trkpt><trkpt lat="42.2010633" lon="14.5591983"><ele>33.333333333333336</ele><time>2026-04-18T07:18:18.873Z</time></trkpt><trkpt lat="42.201095" lon="14.5591183"><ele>34.0</ele><time>2026-04-18T07:18:20.872Z</time></trkpt><trkpt lat="42.2011383" lon="14.5590417"><ele>34.0</ele><time>2026-04-18T07:18:22.873Z</time></trkpt><trkpt lat="42.20117" lon="14.558935"><ele>34.0</ele><time>2026-04-18T07:18:24.873Z</time></trkpt><trkpt lat="42.2012117" lon="14.5588217"><ele>34.0</ele><time>2026-04-18T07:18:26.873Z</time></trkpt><trkpt lat="42.2012567" lon="14.558675"><ele>34.0</ele><time>2026-04-18T07:18:28.873Z</time></trkpt><trkpt lat="42.2013" lon="14.558535"><ele>34.0</ele><time>2026-04-18T07:18:30.872Z</time></trkpt><trkpt lat="42.201325" lon="14.5584067"><ele>36.4</ele><time>2026-04-18T07:18:32.873Z</time></trkpt><trkpt lat="42.2013483" lon="14.5582717"><ele>38.8</ele><time>2026-04-18T07:18:34.872Z</time></trkpt><trkpt lat="42.2013633" lon="14.558135"><ele>41.199999999999996</ele><time>2026-04-18T07:18:36.873Z</time></trkpt><trkpt lat="42.2013633" lon="14.557995"><ele>43.599999999999994</ele><time>2026-04-18T07:18:38.872Z</time></trkpt><trkpt lat="42.2013433" lon="14.5578617"><ele>46.0</ele><time>2026-04-18T07:18:40.872Z</time></trkpt><trkpt lat="42.2013133" lon="14.5577383"><ele>47.333333333333336</ele><time>2026-04-18T07:18:42.872Z</time></trkpt><trkpt lat="42.20127" lon="14.557625"><ele>48.66666666666667</ele><time>2026-04-18T07:18:44.873Z</time></trkpt><trkpt lat="42.2012217" lon="14.5575367"><ele>50.0</ele><time>2026-04-18T07:18:46.873Z</time></trkpt><trkpt lat="42.2011733" lon="14.5574467"><ele>51.333333333333336</ele><time>2026-04-18T07:18:48.873Z</time></trkpt><trkpt lat="42.201115" lon="14.55737"><ele>52.666666666666664</ele><time>2026-04-18T07:18:50.873Z</time></trkpt><trkpt lat="42.20105" lon="14.5573217"><ele>54.0</ele><time>2026-04-18T07:18:52.873Z</time></trkpt><trkpt lat="42.200985" lon="14.5572867"><ele>54.0</ele><time>2026-04-18T07:18:54.872Z</time></trkpt><trkpt lat="42.2009133" lon="14.5572383"><ele>54.0</ele><time>2026-04-18T07:18:56.872Z</time></trkpt><trkpt lat="42.2008483" lon="14.5571583"><ele>54.0</ele><time>2026-04-18T07:18:58.873Z</time></trkpt><trkpt lat="42.20078" lon="14.5570783"><ele>54.0</ele><time>2026-04-18T07:19:00.872Z</time></trkpt><trkpt lat="42.20071" lon="14.5569967"><ele>54.0</ele><time>2026-04-18T07:19:02.872Z</time></trkpt><trkpt lat="42.200655" lon="14.5569067"><ele>54.0</ele><time>2026-04-18T07:19:04.873Z</time></trkpt><trkpt lat="42.2005983" lon="14.5568317"><ele>53.333333333333336</ele><time>2026-04-18T07:19:06.872Z</time></trkpt><trkpt lat="42.2005667" lon="14.55674"><ele>52.66666666666667</ele><time>2026-04-18T07:19:09.873Z</time></trkpt><trkpt lat="42.2006533" lon="14.5567717"><ele>52.0</ele><time>2026-04-18T07:19:23.872Z</time></trkpt><trkpt lat="42.2007817" lon="14.5567867"><ele>51.333333333333336</ele><time>2026-04-18T07:19:34.872Z</time></trkpt><trkpt lat="42.200865" lon="14.55676"><ele>50.66666666666667</ele><time>2026-04-18T07:19:37.873Z</time></trkpt><trkpt lat="42.200925" lon="14.5567333"><ele>50.0</ele><time>2026-04-18T07:19:39.873Z</time></trkpt><trkpt lat="42.2010117" lon="14.5566783"><ele>51.8</ele><time>2026-04-18T07:19:41.873Z</time></trkpt><trkpt lat="42.2010967" lon="14.5566183"><ele>53.6</ele><time>2026-04-18T07:19:43.872Z</time></trkpt><trkpt lat="42.2011933" lon="14.5565517"><ele>55.400000000000006</ele><time>2026-04-18T07:19:45.873Z</time></trkpt><trkpt lat="42.201285" lon="14.5564567"><ele>57.2</ele><time>2026-04-18T07:19:47.872Z</time></trkpt><trkpt lat="42.2013683" lon="14.5563383"><ele>59.0</ele><time>2026-04-18T07:19:49.873Z</time></trkpt><trkpt lat="42.2014217" lon="14.5561933"><ele>59.71428571428571</ele><time>2026-04-18T07:19:51.872Z</time></trkpt><trkpt lat="42.201445" lon="14.5561067"><ele>60.42857142857143</ele><time>2026-04-18T07:19:52.873Z</time></trkpt><trkpt lat="42.2014683" lon="14.5560133"><ele>61.14285714285714</ele><time>2026-04-18T07:19:53.872Z</time></trkpt><trkpt lat="42.2014917" lon="14.5559267"><ele>61.857142857142854</ele><time>2026-04-18T07:19:54.872Z</time></trkpt><trkpt lat="42.2015117" lon="14.5558283"><ele>62.57142857142857</ele><time>2026-04-18T07:19:55.873Z</time></trkpt><trkpt lat="42.201525" lon="14.5557317"><ele>63.285714285714285</ele><time>2026-04-18T07:19:56.873Z</time></trkpt><trkpt lat="42.20154" lon="14.5556267"><ele>64.0</ele><time>2026-04-18T07:19:57.872Z</time></trkpt><trkpt lat="42.20156" lon="14.5555183"><ele>62.83333333333333</ele><time>2026-04-18T07:19:58.873Z</time></trkpt><trkpt lat="42.2015817" lon="14.5554133"><ele>61.666666666666664</ele><time>2026-04-18T07:19:59.873Z</time></trkpt><trkpt lat="42.2016117" lon="14.5553067"><ele>60.5</ele><time>2026-04-18T07:20:00.873Z</time></trkpt><trkpt lat="42.2016467" lon="14.5552133"><ele>59.33333333333333</ele><time>2026-04-18T07:20:01.873Z</time></trkpt><trkpt lat="42.2017067" lon="14.55513"><ele>58.166666666666664</ele><time>2026-04-18T07:20:02.873Z</time></trkpt><trkpt lat="42.2017733" lon="14.5550533"><ele>57.0</ele><time>2026-04-18T07:20:03.872Z</time></trkpt><trkpt lat="42.20185" lon="14.5549933"><ele>57.0</ele><time>2026-04-18T07:20:04.872Z</time></trkpt><trkpt lat="42.2019283" lon="14.5549367"><ele>57.0</ele><time>2026-04-18T07:20:05.872Z</time></trkpt><trkpt lat="42.2020067" lon="14.5549033"><ele>57.0</ele><time>2026-04-18T07:20:06.872Z</time></trkpt><trkpt lat="42.2020867" lon="14.55487"><ele>57.0</ele><time>2026-04-18T07:20:07.873Z</time></trkpt><trkpt lat="42.20217" lon="14.5548433"><ele>57.0</ele><time>2026-04-18T07:20:08.872Z</time></trkpt><trkpt lat="42.2022567" lon="14.55481"><ele>57.0</ele><time>2026-04-18T07:20:09.873Z</time></trkpt><trkpt lat="42.2023433" lon="14.554775"><ele>54.833333333333336</ele><time>2026-04-18T07:20:10.872Z</time></trkpt><trkpt lat="42.2024217" lon="14.5547467"><ele>52.666666666666664</ele><time>2026-04-18T07:20:11.873Z</time></trkpt><trkpt lat="42.2025067" lon="14.55471"><ele>50.5</ele><time>2026-04-18T07:20:12.873Z</time></trkpt><trkpt lat="42.2025917" lon="14.554675"><ele>48.33333333333333</ele><time>2026-04-18T07:20:13.873Z</time></trkpt><trkpt lat="42.2026783" lon="14.5546383"><ele>46.166666666666664</ele><time>2026-04-18T07:20:14.873Z</time></trkpt><trkpt lat="42.2027633" lon="14.5546017"><ele>44.0</ele><time>2026-04-18T07:20:15.873Z</time></trkpt><trkpt lat="42.20284" lon="14.55457"><ele>44.0</ele><time>2026-04-18T07:20:16.873Z</time></trkpt><trkpt lat="42.2029067" lon="14.5545517"><ele>44.0</ele><time>2026-04-18T07:20:17.873Z</time></trkpt><trkpt lat="42.2030033" lon="14.55458"><ele>44.0</ele><time>2026-04-18T07:20:19.873Z</time></trkpt><trkpt lat="42.2029667" lon="14.5547267"><ele>44.0</ele><time>2026-04-18T07:20:21.873Z</time></trkpt><trkpt lat="42.202925" lon="14.5548083"><ele>44.0</ele><time>2026-04-18T07:20:22.873Z</time></trkpt><trkpt lat="42.2028767" lon="14.5548933"><ele>44.0</ele><time>2026-04-18T07:20:23.872Z</time></trkpt><trkpt lat="42.202825" lon="14.5549833"><ele>44.0</ele><time>2026-04-18T07:20:24.873Z</time></trkpt><trkpt lat="42.20277" lon="14.5550783"><ele>44.0</ele><time>2026-04-18T07:20:25.873Z</time></trkpt><trkpt lat="42.2027233" lon="14.5551717"><ele>44.0</ele><time>2026-04-18T07:20:26.873Z</time></trkpt><trkpt lat="42.202695" lon="14.5552683"><ele>44.0</ele><time>2026-04-18T07:20:27.873Z</time></trkpt><trkpt lat="42.2026933" lon="14.5553583"><ele>44.0</ele><time>2026-04-18T07:20:28.873Z</time></trkpt><trkpt lat="42.20271" lon="14.5554433"><ele>44.0</ele><time>2026-04-18T07:20:29.873Z</time></trkpt><trkpt lat="42.20275" lon="14.5555167"><ele>44.0</ele><time>2026-04-18T07:20:30.873Z</time></trkpt><trkpt lat="42.2027933" lon="14.5555883"><ele>42.400000000000006</ele><time>2026-04-18T07:20:31.873Z</time></trkpt><trkpt lat="42.202855" lon="14.55571"><ele>40.800000000000004</ele><time>2026-04-18T07:20:33.873Z</time></trkpt><trkpt lat="42.2029133" lon="14.5557583"><ele>39.2</ele><time>2026-04-18T07:20:34.873Z</time></trkpt><trkpt lat="42.203055" lon="14.5557083"><ele>37.6</ele><time>2026-04-18T07:20:35.873Z</time></trkpt><trkpt lat="42.2031317" lon="14.5557433"><ele>36.0</ele><time>2026-04-18T07:20:36.873Z</time></trkpt><trkpt lat="42.20323" lon="14.555735"><ele>36.0</ele><time>2026-04-18T07:20:38.873Z</time></trkpt><trkpt lat="42.2033083" lon="14.5556483"><ele>36.0</ele><time>2026-04-18T07:20:40.873Z</time></trkpt><trkpt lat="42.20336" lon="14.5555133"><ele>36.0</ele><time>2026-04-18T07:20:42.873Z</time></trkpt><trkpt lat="42.2033933" lon="14.55538"><ele>36.0</ele><time>2026-04-18T07:20:44.873Z</time></trkpt><trkpt lat="42.2034367" lon="14.5552567"><ele>36.0</ele><time>2026-04-18T07:20:46.872Z</time></trkpt><trkpt lat="42.2034883" lon="14.5551317"><ele>36.0</ele><time>2026-04-18T07:20:48.873Z</time></trkpt><trkpt lat="42.20355" lon="14.5550067"><ele>36.0</ele><time>2026-04-18T07:20:50.872Z</time></trkpt><trkpt lat="42.2036217" lon="14.5548983"><ele>36.0</ele><time>2026-04-18T07:20:52.873Z</time></trkpt><trkpt lat="42.203705" lon="14.55481"><ele>36.0</ele><time>2026-04-18T07:20:54.873Z</time></trkpt><trkpt lat="42.20378" lon="14.5547217"><ele>36.0</ele><time>2026-04-18T07:20:56.872Z</time></trkpt><trkpt lat="42.20384" lon="14.5546067"><ele>35.2</ele><time>2026-04-18T07:20:58.873Z</time></trkpt><trkpt lat="42.203905" lon="14.5544917"><ele>34.400000000000006</ele><time>2026-04-18T07:21:00.873Z</time></trkpt><trkpt lat="42.2039667" lon="14.5543867"><ele>33.6</ele><time>2026-04-18T07:21:02.873Z</time></trkpt><trkpt lat="42.204035" lon="14.5543067"><ele>32.800000000000004</ele><time>2026-04-18T07:21:04.874Z</time></trkpt><trkpt lat="42.20411" lon="14.5542933"><ele>32.0</ele><time>2026-04-18T07:21:06.873Z</time></trkpt><trkpt lat="42.20419" lon="14.554365"><ele>32.0</ele><time>2026-04-18T07:21:08.874Z</time></trkpt><trkpt lat="42.2042817" lon="14.5544583"><ele>32.0</ele><time>2026-04-18T07:21:10.874Z</time></trkpt><trkpt lat="42.2043767" lon="14.554555"><ele>32.0</ele><time>2026-04-18T07:21:12.873Z</time></trkpt><trkpt lat="42.204475" lon="14.5546367"><ele>32.0</ele><time>2026-04-18T07:21:14.874Z</time></trkpt><trkpt lat="42.2045667" lon="14.5547133"><ele>31.999999999999996</ele><time>2026-04-18T07:21:16.874Z</time></trkpt><trkpt lat="42.2046583" lon="14.55482"><ele>32.0</ele><time>2026-04-18T07:21:18.873Z</time></trkpt><trkpt lat="42.20473" lon="14.5549533"><ele>32.0</ele><time>2026-04-18T07:21:20.873Z</time></trkpt><trkpt lat="42.2047583" lon="14.55503"><ele>32.0</ele><time>2026-04-18T07:21:21.873Z</time></trkpt><trkpt lat="42.2047867" lon="14.555115"><ele>31.999999999999996</ele><time>2026-04-18T07:21:22.874Z</time></trkpt><trkpt lat="42.2048117" lon="14.5552"><ele>32.0</ele><time>2026-04-18T07:21:23.873Z</time></trkpt><trkpt lat="42.2048383" lon="14.5552883"><ele>31.499999999999996</ele><time>2026-04-18T07:21:24.873Z</time></trkpt><trkpt lat="42.2048667" lon="14.5553867"><ele>31.0</ele><time>2026-04-18T07:21:25.874Z</time></trkpt><trkpt lat="42.20488" lon="14.5554767"><ele>30.5</ele><time>2026-04-18T07:21:26.874Z</time></trkpt><trkpt lat="42.20489" lon="14.5555683"><ele>30.0</ele><time>2026-04-18T07:21:27.874Z</time></trkpt><trkpt lat="42.2048883" lon="14.555655"><ele>29.499999999999996</ele><time>2026-04-18T07:21:28.874Z</time></trkpt><trkpt lat="42.204875" lon="14.555825"><ele>29.0</ele><time>2026-04-18T07:21:30.874Z</time></trkpt><trkpt lat="42.2048667" lon="14.5559667"><ele>28.999999999999996</ele><time>2026-04-18T07:21:32.873Z</time></trkpt><trkpt lat="42.20488" lon="14.55606"><ele>29.0</ele><time>2026-04-18T07:21:34.873Z</time></trkpt><trkpt lat="42.2049433" lon="14.55613"><ele>29.0</ele><time>2026-04-18T07:21:37.874Z</time></trkpt><trkpt lat="42.2050217" lon="14.5561733"><ele>29.0</ele><time>2026-04-18T07:21:40.874Z</time></trkpt><trkpt lat="42.2051" lon="14.5562033"><ele>28.999999999999996</ele><time>2026-04-18T07:21:43.874Z</time></trkpt><trkpt lat="42.2051633" lon="14.55616"><ele>29.0</ele><time>2026-04-18T07:21:47.874Z</time></trkpt><trkpt lat="42.2052067" lon="14.556065"><ele>28.999999999999996</ele><time>2026-04-18T07:21:50.874Z</time></trkpt><trkpt lat="42.2052483" lon="14.5559833"><ele>29.0</ele><time>2026-04-18T07:21:53.874Z</time></trkpt><trkpt lat="42.205285" lon="14.555875"><ele>29.0</ele><time>2026-04-18T07:21:56.874Z</time></trkpt><trkpt lat="42.2053217" lon="14.5558"><ele>29.0</ele><time>2026-04-18T07:21:58.874Z</time></trkpt><trkpt lat="42.205365" lon="14.55571"><ele>28.999999999999996</ele><time>2026-04-18T07:22:00.874Z</time></trkpt><trkpt lat="42.2053983" lon="14.5556033"><ele>29.0</ele><time>2026-04-18T07:22:02.874Z</time></trkpt><trkpt lat="42.205425" lon="14.555505"><ele>28.999999999999996</ele><time>2026-04-18T07:22:04.874Z</time></trkpt><trkpt lat="42.20546" lon="14.55542"><ele>29.0</ele><time>2026-04-18T07:22:06.874Z</time></trkpt><trkpt lat="42.2054933" lon="14.5553283"><ele>29.0</ele><time>2026-04-18T07:22:08.873Z</time></trkpt><trkpt lat="42.2055383" lon="14.5552283"><ele>29.0</ele><time>2026-04-18T07:22:10.874Z</time></trkpt><trkpt lat="42.2055933" lon="14.55513"><ele>28.999999999999996</ele><time>2026-04-18T07:22:12.874Z</time></trkpt><trkpt lat="42.2056583" lon="14.5550283"><ele>29.0</ele><time>2026-04-18T07:22:14.874Z</time></trkpt><trkpt lat="42.2057283" lon="14.55493"><ele>29.0</ele><time>2026-04-18T07:22:16.873Z</time></trkpt><trkpt lat="42.205795" lon="14.5548267"><ele>29.0</ele><time>2026-04-18T07:22:18.873Z</time></trkpt><trkpt lat="42.2058517" lon="14.5547167"><ele>29.0</ele><time>2026-04-18T07:22:20.874Z</time></trkpt><trkpt lat="42.2059183" lon="14.5546083"><ele>29.0</ele><time>2026-04-18T07:22:22.874Z</time></trkpt><trkpt lat="42.205995" lon="14.5545117"><ele>29.0</ele><time>2026-04-18T07:22:24.874Z</time></trkpt><trkpt lat="42.2060667" lon="14.5544217"><ele>29.2</ele><time>2026-04-18T07:22:26.873Z</time></trkpt><trkpt lat="42.2061267" lon="14.5543267"><ele>29.4</ele><time>2026-04-18T07:22:28.874Z</time></trkpt><trkpt lat="42.2061883" lon="14.5542283"><ele>29.6</ele><time>2026-04-18T07:22:30.873Z</time></trkpt><trkpt lat="42.2062583" lon="14.5541383"><ele>29.8</ele><time>2026-04-18T07:22:32.873Z</time></trkpt><trkpt lat="42.2063317" lon="14.5540417"><ele>30.0</ele><time>2026-04-18T07:22:34.873Z</time></trkpt><trkpt lat="42.2064083" lon="14.5539533"><ele>30.0</ele><time>2026-04-18T07:22:36.874Z</time></trkpt><trkpt lat="42.206475" lon="14.5538683"><ele>30.0</ele><time>2026-04-18T07:22:38.873Z</time></trkpt><trkpt lat="42.2065467" lon="14.55377"><ele>30.0</ele><time>2026-04-18T07:22:40.874Z</time></trkpt><trkpt lat="42.206615" lon="14.5536783"><ele>30.0</ele><time>2026-04-18T07:22:42.873Z</time></trkpt><trkpt lat="42.2066817" lon="14.5535833"><ele>30.0</ele><time>2026-04-18T07:22:44.874Z</time></trkpt><trkpt lat="42.20675" lon="14.5534917"><ele>30.2</ele><time>2026-04-18T07:22:46.874Z</time></trkpt><trkpt lat="42.20682" lon="14.5534017"><ele>30.4</ele><time>2026-04-18T07:22:48.874Z</time></trkpt><trkpt lat="42.2068833" lon="14.5533033"><ele>30.6</ele><time>2026-04-18T07:22:50.873Z</time></trkpt><trkpt lat="42.2069633" lon="14.55321"><ele>30.8</ele><time>2026-04-18T07:22:52.873Z</time></trkpt><trkpt lat="42.2070467" lon="14.5531133"><ele>31.0</ele><time>2026-04-18T07:22:54.874Z</time></trkpt><trkpt lat="42.2071183" lon="14.553015"><ele>31.0</ele><time>2026-04-18T07:22:56.874Z</time></trkpt><trkpt lat="42.20719" lon="14.55292"><ele>31.0</ele><time>2026-04-18T07:22:58.874Z</time></trkpt><trkpt lat="42.2072617" lon="14.5528233"><ele>31.0</ele><time>2026-04-18T07:23:00.874Z</time></trkpt><trkpt lat="42.2073383" lon="14.5527283"><ele>31.0</ele><time>2026-04-18T07:23:02.874Z</time></trkpt><trkpt lat="42.2074183" lon="14.55265"><ele>31.0</ele><time>2026-04-18T07:23:04.874Z</time></trkpt><trkpt lat="42.2074933" lon="14.55257"><ele>31.0</ele><time>2026-04-18T07:23:06.873Z</time></trkpt><trkpt lat="42.2075667" lon="14.5524933"><ele>31.0</ele><time>2026-04-18T07:23:08.874Z</time></trkpt><trkpt lat="42.2076333" lon="14.5523883"><ele>31.0</ele><time>2026-04-18T07:23:10.874Z</time></trkpt><trkpt lat="42.2077067" lon="14.5522917"><ele>31.0</ele><time>2026-04-18T07:23:12.874Z</time></trkpt><trkpt lat="42.20778" lon="14.5522"><ele>31.0</ele><time>2026-04-18T07:23:14.874Z</time></trkpt><trkpt lat="42.20785" lon="14.5521117"><ele>31.0</ele><time>2026-04-18T07:23:16.874Z</time></trkpt><trkpt lat="42.2079117" lon="14.5520033"><ele>31.0</ele><time>2026-04-18T07:23:18.874Z</time></trkpt><trkpt lat="42.2079783" lon="14.55191"><ele>31.0</ele><time>2026-04-18T07:23:20.873Z</time></trkpt><trkpt lat="42.2080467" lon="14.55181"><ele>31.0</ele><time>2026-04-18T07:23:22.874Z</time></trkpt><trkpt lat="42.20811" lon="14.5517083"><ele>31.0</ele><time>2026-04-18T07:23:24.873Z</time></trkpt><trkpt lat="42.208175" lon="14.551615"><ele>31.0</ele><time>2026-04-18T07:23:26.874Z</time></trkpt><trkpt lat="42.208245" lon="14.55151"><ele>31.0</ele><time>2026-04-18T07:23:28.873Z</time></trkpt><trkpt lat="42.2083117" lon="14.5514083"><ele>31.0</ele><time>2026-04-18T07:23:30.874Z</time></trkpt><trkpt lat="42.2083767" lon="14.5513"><ele>31.0</ele><time>2026-04-18T07:23:32.873Z</time></trkpt><trkpt lat="42.2084383" lon="14.5511967"><ele>31.0</ele><time>2026-04-18T07:23:34.874Z</time></trkpt><trkpt lat="42.2085033" lon="14.5510983"><ele>31.0</ele><time>2026-04-18T07:23:36.874Z</time></trkpt><trkpt lat="42.2085667" lon="14.5510067"><ele>31.0</ele><time>2026-04-18T07:23:38.873Z</time></trkpt><trkpt lat="42.208635" lon="14.5509067"><ele>31.0</ele><time>2026-04-18T07:23:40.874Z</time></trkpt><trkpt lat="42.2087067" lon="14.55081"><ele>31.0</ele><time>2026-04-18T07:23:42.874Z</time></trkpt><trkpt lat="42.2087783" lon="14.550715"><ele>31.0</ele><time>2026-04-18T07:23:44.873Z</time></trkpt><trkpt lat="42.2088367" lon="14.5506233"><ele>31.0</ele><time>2026-04-18T07:23:46.874Z</time></trkpt><trkpt lat="42.2089" lon="14.5505117"><ele>31.0</ele><time>2026-04-18T07:23:48.873Z</time></trkpt><trkpt lat="42.2089667" lon="14.550415"><ele>31.0</ele><time>2026-04-18T07:23:50.873Z</time></trkpt><trkpt lat="42.2090233" lon="14.550315"><ele>31.0</ele><time>2026-04-18T07:23:52.873Z</time></trkpt><trkpt lat="42.2090867" lon="14.55022"><ele>31.0</ele><time>2026-04-18T07:23:54.874Z</time></trkpt><trkpt lat="42.2091467" lon="14.55013"><ele>31.6</ele><time>2026-04-18T07:23:56.874Z</time></trkpt><trkpt lat="42.20921" lon="14.5500517"><ele>32.2</ele><time>2026-04-18T07:23:58.874Z</time></trkpt><trkpt lat="42.2092717" lon="14.54997"><ele>32.8</ele><time>2026-04-18T07:24:00.874Z</time></trkpt><trkpt lat="42.2093483" lon="14.5498933"><ele>33.4</ele><time>2026-04-18T07:24:02.874Z</time></trkpt><trkpt lat="42.2094383" lon="14.54987"><ele>34.0</ele><time>2026-04-18T07:24:04.874Z</time></trkpt><trkpt lat="42.2095333" lon="14.5498783"><ele>34.0</ele><time>2026-04-18T07:24:06.874Z</time></trkpt><trkpt lat="42.209635" lon="14.54989"><ele>34.0</ele><time>2026-04-18T07:24:08.874Z</time></trkpt><trkpt lat="42.2097383" lon="14.5499017"><ele>34.0</ele><time>2026-04-18T07:24:10.874Z</time></trkpt><trkpt lat="42.2098417" lon="14.5499133"><ele>34.0</ele><time>2026-04-18T07:24:12.874Z</time></trkpt><trkpt lat="42.2099317" lon="14.549925"><ele>34.0</ele><time>2026-04-18T07:24:14.874Z</time></trkpt><trkpt lat="42.2100033" lon="14.5499433"><ele>34.99999999999999</ele><time>2026-04-18T07:24:17.874Z</time></trkpt><trkpt lat="42.210065" lon="14.549965"><ele>36.0</ele><time>2026-04-18T07:24:19.874Z</time></trkpt><trkpt lat="42.210135" lon="14.5499967"><ele>37.0</ele><time>2026-04-18T07:24:21.874Z</time></trkpt><trkpt lat="42.210215" lon="14.550025"><ele>38.0</ele><time>2026-04-18T07:24:23.874Z</time></trkpt><trkpt lat="42.21028" lon="14.5500367"><ele>39.0</ele><time>2026-04-18T07:24:25.873Z</time></trkpt><trkpt lat="42.2103683" lon="14.5500633"><ele>39.99999999999999</ele><time>2026-04-18T07:24:28.874Z</time></trkpt><trkpt lat="42.2104367" lon="14.5500933"><ele>41.0</ele><time>2026-04-18T07:24:30.873Z</time></trkpt><trkpt lat="42.2105133" lon="14.5501133"><ele>41.0</ele><time>2026-04-18T07:24:32.873Z</time></trkpt><trkpt lat="42.210595" lon="14.5501383"><ele>41.0</ele><time>2026-04-18T07:24:34.874Z</time></trkpt><trkpt lat="42.2106817" lon="14.5501617"><ele>41.0</ele><time>2026-04-18T07:24:36.873Z</time></trkpt><trkpt lat="42.2107717" lon="14.550175"><ele>41.0</ele><time>2026-04-18T07:24:38.874Z</time></trkpt><trkpt lat="42.2108567" lon="14.55019"><ele>41.0</ele><time>2026-04-18T07:24:40.874Z</time></trkpt><trkpt lat="42.21094" lon="14.5501983"><ele>41.0</ele><time>2026-04-18T07:24:42.874Z</time></trkpt><trkpt lat="42.211025" lon="14.55021"><ele>41.83333333333333</ele><time>2026-04-18T07:24:44.874Z</time></trkpt><trkpt lat="42.21111" lon="14.5502283"><ele>42.666666666666664</ele><time>2026-04-18T07:24:46.874Z</time></trkpt><trkpt lat="42.2111967" lon="14.550235"><ele>43.5</ele><time>2026-04-18T07:24:48.873Z</time></trkpt><trkpt lat="42.2112767" lon="14.5502517"><ele>44.333333333333336</ele><time>2026-04-18T07:24:50.873Z</time></trkpt><trkpt lat="42.21135" lon="14.5502467"><ele>45.16666666666667</ele><time>2026-04-18T07:24:52.873Z</time></trkpt><trkpt lat="42.211435" lon="14.5502583"><ele>46.0</ele><time>2026-04-18T07:24:54.874Z</time></trkpt><trkpt lat="42.2115217" lon="14.5502717"><ele>47.5</ele><time>2026-04-18T07:24:56.874Z</time></trkpt><trkpt lat="42.2116067" lon="14.5502667"><ele>49.0</ele><time>2026-04-18T07:24:58.874Z</time></trkpt><trkpt lat="42.211695" lon="14.5502717"><ele>50.5</ele><time>2026-04-18T07:25:00.874Z</time></trkpt><trkpt lat="42.2117783" lon="14.5502783"><ele>52.0</ele><time>2026-04-18T07:25:02.874Z</time></trkpt><trkpt lat="42.2118533" lon="14.5502867"><ele>53.49999999999999</ele><time>2026-04-18T07:25:04.874Z</time></trkpt><trkpt lat="42.211925" lon="14.55029"><ele>55.0</ele><time>2026-04-18T07:25:06.873Z</time></trkpt><trkpt lat="42.21201" lon="14.550305"><ele>54.99999999999999</ele><time>2026-04-18T07:25:08.873Z</time></trkpt><trkpt lat="42.2120683" lon="14.5503383"><ele>55.0</ele><time>2026-04-18T07:25:10.874Z</time></trkpt><trkpt lat="42.2121283" lon="14.5504083"><ele>55.0</ele><time>2026-04-18T07:25:13.873Z</time></trkpt><trkpt lat="42.21218" lon="14.5504917"><ele>55.0</ele><time>2026-04-18T07:25:17.874Z</time></trkpt><trkpt lat="42.2122067" lon="14.5505867"><ele>54.99999999999999</ele><time>2026-04-18T07:25:20.874Z</time></trkpt><trkpt lat="42.2122267" lon="14.5507033"><ele>55.0</ele><time>2026-04-18T07:25:23.873Z</time></trkpt><trkpt lat="42.2122467" lon="14.5508"><ele>55.71428571428571</ele><time>2026-04-18T07:25:25.873Z</time></trkpt><trkpt lat="42.2122533" lon="14.5508967"><ele>56.42857142857143</ele><time>2026-04-18T07:25:27.874Z</time></trkpt><trkpt lat="42.212255" lon="14.5509817"><ele>57.14285714285714</ele><time>2026-04-18T07:25:29.874Z</time></trkpt><trkpt lat="42.21227" lon="14.5510683"><ele>57.857142857142854</ele><time>2026-04-18T07:25:31.874Z</time></trkpt><trkpt lat="42.21229" lon="14.5511583"><ele>58.57142857142857</ele><time>2026-04-18T07:25:33.874Z</time></trkpt><trkpt lat="42.2123233" lon="14.5512517"><ele>59.285714285714285</ele><time>2026-04-18T07:25:35.873Z</time></trkpt><trkpt lat="42.2123483" lon="14.5513667"><ele>60.0</ele><time>2026-04-18T07:25:37.874Z</time></trkpt><trkpt lat="42.2123883" lon="14.5514833"><ele>62.666666666666664</ele><time>2026-04-18T07:25:39.873Z</time></trkpt><trkpt lat="42.21244" lon="14.5515933"><ele>65.33333333333333</ele><time>2026-04-18T07:25:41.874Z</time></trkpt><trkpt lat="42.212485" lon="14.551695"><ele>68.0</ele><time>2026-04-18T07:25:43.874Z</time></trkpt><trkpt lat="42.2125133" lon="14.5517883"><ele>70.66666666666666</ele><time>2026-04-18T07:25:45.873Z</time></trkpt><trkpt lat="42.21254" lon="14.551895"><ele>73.33333333333333</ele><time>2026-04-18T07:25:47.874Z</time></trkpt><trkpt lat="42.2125517" lon="14.552015"><ele>76.0</ele><time>2026-04-18T07:25:49.874Z</time></trkpt><trkpt lat="42.212555" lon="14.5521083"><ele>76.6</ele><time>2026-04-18T07:25:51.874Z</time></trkpt><trkpt lat="42.2125417" lon="14.552225"><ele>77.19999999999999</ele><time>2026-04-18T07:25:53.873Z</time></trkpt><trkpt lat="42.2125117" lon="14.5523383"><ele>77.80000000000001</ele><time>2026-04-18T07:25:55.874Z</time></trkpt><trkpt lat="42.2124767" lon="14.552465"><ele>78.4</ele><time>2026-04-18T07:25:57.874Z</time></trkpt><trkpt lat="42.2124533" lon="14.5526283"><ele>79.0</ele><time>2026-04-18T07:25:59.874Z</time></trkpt><trkpt lat="42.2124033" lon="14.5527633"><ele>80.2</ele><time>2026-04-18T07:26:01.874Z</time></trkpt><trkpt lat="42.2123633" lon="14.5529067"><ele>81.4</ele><time>2026-04-18T07:26:03.874Z</time></trkpt><trkpt lat="42.2123267" lon="14.5530383"><ele>82.6</ele><time>2026-04-18T07:26:05.874Z</time></trkpt><trkpt lat="42.21229" lon="14.5531567"><ele>83.8</ele><time>2026-04-18T07:26:07.873Z</time></trkpt><trkpt lat="42.2122583" lon="14.5532667"><ele>85.0</ele><time>2026-04-18T07:26:09.873Z</time></trkpt><trkpt lat="42.2122517" lon="14.553365"><ele>85.0</ele><time>2026-04-18T07:26:12.874Z</time></trkpt><trkpt lat="42.2123133" lon="14.5533933"><ele>85.0</ele><time>2026-04-18T07:26:14.874Z</time></trkpt><trkpt lat="42.2123867" lon="14.5534267"><ele>85.0</ele><time>2026-04-18T07:26:16.873Z</time></trkpt><trkpt lat="42.212465" lon="14.5534617"><ele>85.0</ele><time>2026-04-18T07:26:18.874Z</time></trkpt><trkpt lat="42.21253" lon="14.5534917"><ele>85.0</ele><time>2026-04-18T07:26:20.873Z</time></trkpt><trkpt lat="42.21259" lon="14.5535217"><ele>85.0</ele><time>2026-04-18T07:26:22.874Z</time></trkpt><trkpt lat="42.2126767" lon="14.5535533"><ele>85.0</ele><time>2026-04-18T07:26:25.873Z</time></trkpt><trkpt lat="42.2127633" lon="14.5535917"><ele>85.0</ele><time>2026-04-18T07:26:28.874Z</time></trkpt><trkpt lat="42.212825" lon="14.55362"><ele>85.0</ele><time>2026-04-18T07:26:30.874Z</time></trkpt><trkpt lat="42.2128833" lon="14.553655"><ele>85.0</ele><time>2026-04-18T07:26:32.874Z</time></trkpt><trkpt lat="42.2129583" lon="14.5536867"><ele>85.0</ele><time>2026-04-18T07:26:34.873Z</time></trkpt><trkpt lat="42.2130283" lon="14.5537333"><ele>85.0</ele><time>2026-04-18T07:26:36.874Z</time></trkpt><trkpt lat="42.2131" lon="14.5537867"><ele>85.0</ele><time>2026-04-18T07:26:38.873Z</time></trkpt><trkpt lat="42.2131733" lon="14.553845"><ele>87.0</ele><time>2026-04-18T07:26:40.873Z</time></trkpt><trkpt lat="42.21326" lon="14.5539033"><ele>89.0</ele><time>2026-04-18T07:26:42.873Z</time></trkpt><trkpt lat="42.2133433" lon="14.55396"><ele>91.0</ele><time>2026-04-18T07:26:44.873Z</time></trkpt><trkpt lat="42.21343" lon="14.5540167"><ele>93.0</ele><time>2026-04-18T07:26:46.873Z</time></trkpt><trkpt lat="42.2135067" lon="14.5540567"><ele>95.0</ele><time>2026-04-18T07:26:48.874Z</time></trkpt><trkpt lat="42.21358" lon="14.55411"><ele>95.0</ele><time>2026-04-18T07:26:50.874Z</time></trkpt><trkpt lat="42.2136483" lon="14.5541717"><ele>95.0</ele><time>2026-04-18T07:26:52.874Z</time></trkpt><trkpt lat="42.2137217" lon="14.5542333"><ele>95.0</ele><time>2026-04-18T07:26:54.873Z</time></trkpt><trkpt lat="42.2138033" lon="14.554305"><ele>95.0</ele><time>2026-04-18T07:26:56.874Z</time></trkpt><trkpt lat="42.2138917" lon="14.5543717"><ele>95.0</ele><time>2026-04-18T07:26:58.873Z</time></trkpt><trkpt lat="42.21399" lon="14.554435"><ele>94.8</ele><time>2026-04-18T07:27:00.874Z</time></trkpt><trkpt lat="42.2140783" lon="14.5545133"><ele>94.6</ele><time>2026-04-18T07:27:02.874Z</time></trkpt><trkpt lat="42.2141733" lon="14.5546017"><ele>94.4</ele><time>2026-04-18T07:27:04.874Z</time></trkpt><trkpt lat="42.214275" lon="14.5546867"><ele>94.2</ele><time>2026-04-18T07:27:06.874Z</time></trkpt><trkpt lat="42.21433" lon="14.5547283"><ele>94.0</ele><time>2026-04-18T07:27:07.873Z</time></trkpt><trkpt lat="42.2143883" lon="14.5547667"><ele>93.0</ele><time>2026-04-18T07:27:08.874Z</time></trkpt><trkpt lat="42.2144917" lon="14.5548367"><ele>92.0</ele><time>2026-04-18T07:27:10.874Z</time></trkpt><trkpt lat="42.21459" lon="14.5549067"><ele>91.0</ele><time>2026-04-18T07:27:12.874Z</time></trkpt><trkpt lat="42.214675" lon="14.5549867"><ele>90.0</ele><time>2026-04-18T07:27:14.873Z</time></trkpt><trkpt lat="42.2147367" lon="14.55507"><ele>89.0</ele><time>2026-04-18T07:27:16.874Z</time></trkpt><trkpt lat="42.2147983" lon="14.55515"><ele>89.66666666666667</ele><time>2026-04-18T07:27:18.874Z</time></trkpt><trkpt lat="42.2148667" lon="14.555225"><ele>90.33333333333334</ele><time>2026-04-18T07:27:20.874Z</time></trkpt><trkpt lat="42.2149317" lon="14.555285"><ele>91.0</ele><time>2026-04-18T07:27:22.874Z</time></trkpt><trkpt lat="42.2149967" lon="14.5553317"><ele>91.66666666666667</ele><time>2026-04-18T07:27:24.874Z</time></trkpt><trkpt lat="42.2150683" lon="14.5553833"><ele>92.33333333333333</ele><time>2026-04-18T07:27:26.874Z</time></trkpt><trkpt lat="42.215145" lon="14.5554467"><ele>93.0</ele><time>2026-04-18T07:27:29.873Z</time></trkpt><trkpt lat="42.2152217" lon="14.555505"><ele>93.28571428571429</ele><time>2026-04-18T07:27:32.874Z</time></trkpt><trkpt lat="42.2152733" lon="14.555555"><ele>93.57142857142857</ele><time>2026-04-18T07:27:34.874Z</time></trkpt><trkpt lat="42.215335" lon="14.5556033"><ele>93.85714285714286</ele><time>2026-04-18T07:27:36.873Z</time></trkpt><trkpt lat="42.2153983" lon="14.5556567"><ele>94.14285714285714</ele><time>2026-04-18T07:27:38.874Z</time></trkpt><trkpt lat="42.2154617" lon="14.5557233"><ele>94.42857142857143</ele><time>2026-04-18T07:27:40.873Z</time></trkpt><trkpt lat="42.21552" lon="14.55578"><ele>94.71428571428572</ele><time>2026-04-18T07:27:42.874Z</time></trkpt><trkpt lat="42.2155867" lon="14.5558383"><ele>95.0</ele><time>2026-04-18T07:27:44.873Z</time></trkpt><trkpt lat="42.21566" lon="14.5558933"><ele>95.5</ele><time>2026-04-18T07:27:46.874Z</time></trkpt><trkpt lat="42.2157367" lon="14.5559533"><ele>96.0</ele><time>2026-04-18T07:27:48.874Z</time></trkpt><trkpt lat="42.2158083" lon="14.55602"><ele>96.5</ele><time>2026-04-18T07:27:50.874Z</time></trkpt><trkpt lat="42.21588" lon="14.5560733"><ele>97.0</ele><time>2026-04-18T07:27:52.874Z</time></trkpt><trkpt lat="42.2159433" lon="14.55612"><ele>97.49999999999999</ele><time>2026-04-18T07:27:54.874Z</time></trkpt><trkpt lat="42.2160133" lon="14.5561783"><ele>98.0</ele><time>2026-04-18T07:27:57.874Z</time></trkpt><trkpt lat="42.216065" lon="14.5562367"><ele>97.99999999999999</ele><time>2026-04-18T07:28:13.874Z</time></trkpt><trkpt lat="42.21613" lon="14.5563117"><ele>98.0</ele><time>2026-04-18T07:28:16.874Z</time></trkpt><trkpt lat="42.2161917" lon="14.556365"><ele>98.0</ele><time>2026-04-18T07:28:18.874Z</time></trkpt><trkpt lat="42.2162583" lon="14.5564217"><ele>98.0</ele><time>2026-04-18T07:28:20.873Z</time></trkpt><trkpt lat="42.216325" lon="14.5564867"><ele>97.99999999999999</ele><time>2026-04-18T07:28:22.874Z</time></trkpt><trkpt lat="42.2163983" lon="14.5565467"><ele>98.0</ele><time>2026-04-18T07:28:24.874Z</time></trkpt><trkpt lat="42.2164667" lon="14.5566133"><ele>97.99999999999999</ele><time>2026-04-18T07:28:26.873Z</time></trkpt><trkpt lat="42.2165467" lon="14.5566767"><ele>98.0</ele><time>2026-04-18T07:28:28.874Z</time></trkpt><trkpt lat="42.2166183" lon="14.5567283"><ele>98.0</ele><time>2026-04-18T07:28:30.873Z</time></trkpt><trkpt lat="42.216685" lon="14.55679"><ele>98.0</ele><time>2026-04-18T07:28:32.874Z</time></trkpt><trkpt lat="42.216745" lon="14.5568433"><ele>97.99999999999999</ele><time>2026-04-18T07:28:34.874Z</time></trkpt><trkpt lat="42.2168" lon="14.5569017"><ele>98.0</ele><time>2026-04-18T07:28:36.874Z</time></trkpt><trkpt lat="42.21687" lon="14.55695"><ele>97.99999999999999</ele><time>2026-04-18T07:28:38.874Z</time></trkpt><trkpt lat="42.216945" lon="14.5570067"><ele>98.0</ele><time>2026-04-18T07:28:40.874Z</time></trkpt><trkpt lat="42.2170183" lon="14.5570667"><ele>98.0</ele><time>2026-04-18T07:28:42.874Z</time></trkpt><trkpt lat="42.2170883" lon="14.5571233"><ele>98.0</ele><time>2026-04-18T07:28:44.874Z</time></trkpt><trkpt lat="42.2171567" lon="14.5571967"><ele>97.99999999999999</ele><time>2026-04-18T07:28:46.874Z</time></trkpt><trkpt lat="42.21722" lon="14.55727"><ele>98.0</ele><time>2026-04-18T07:28:48.874Z</time></trkpt><trkpt lat="42.217295" lon="14.5573317"><ele>97.60000000000001</ele><time>2026-04-18T07:28:50.873Z</time></trkpt><trkpt lat="42.2173833" lon="14.5574167"><ele>97.2</ele><time>2026-04-18T07:28:52.874Z</time></trkpt><trkpt lat="42.2174967" lon="14.5575083"><ele>96.8</ele><time>2026-04-18T07:28:54.873Z</time></trkpt><trkpt lat="42.21756" lon="14.557555"><ele>96.4</ele><time>2026-04-18T07:28:55.874Z</time></trkpt><trkpt lat="42.2176433" lon="14.5576133"><ele>96.0</ele><time>2026-04-18T07:28:56.874Z</time></trkpt><trkpt lat="42.2177317" lon="14.5576783"><ele>96.0</ele><time>2026-04-18T07:28:57.874Z</time></trkpt><trkpt lat="42.217825" lon="14.5577483"><ele>96.0</ele><time>2026-04-18T07:28:58.874Z</time></trkpt><trkpt lat="42.217915" lon="14.557815"><ele>96.0</ele><time>2026-04-18T07:28:59.874Z</time></trkpt><trkpt lat="42.2179917" lon="14.5578917"><ele>96.0</ele><time>2026-04-18T07:29:00.874Z</time></trkpt><trkpt lat="42.2180583" lon="14.5579617"><ele>96.0</ele><time>2026-04-18T07:29:01.874Z</time></trkpt><trkpt lat="42.218115" lon="14.5580217"><ele>95.66666666666667</ele><time>2026-04-18T07:29:02.874Z</time></trkpt><trkpt lat="42.21819" lon="14.5580733"><ele>95.33333333333333</ele><time>2026-04-18T07:29:04.874Z</time></trkpt><trkpt lat="42.21825" lon="14.5581133"><ele>95.0</ele><time>2026-04-18T07:29:06.873Z</time></trkpt><trkpt lat="42.2183033" lon="14.558165"><ele>94.66666666666666</ele><time>2026-04-18T07:29:08.874Z</time></trkpt><trkpt lat="42.21836" lon="14.5582167"><ele>94.33333333333333</ele><time>2026-04-18T07:29:10.874Z</time></trkpt><trkpt lat="42.2184183" lon="14.5582767"><ele>94.0</ele><time>2026-04-18T07:29:12.873Z</time></trkpt><trkpt lat="42.2185" lon="14.558345"><ele>94.0</ele><time>2026-04-18T07:29:15.874Z</time></trkpt><trkpt lat="42.21856" lon="14.5583983"><ele>94.0</ele><time>2026-04-18T07:29:17.874Z</time></trkpt><trkpt lat="42.2186217" lon="14.558445"><ele>94.0</ele><time>2026-04-18T07:29:19.873Z</time></trkpt><trkpt lat="42.2186717" lon="14.5584967"><ele>94.0</ele><time>2026-04-18T07:29:21.874Z</time></trkpt><trkpt lat="42.2187267" lon="14.5585383"><ele>94.0</ele><time>2026-04-18T07:29:23.874Z</time></trkpt><trkpt lat="42.2188" lon="14.5586067"><ele>94.0</ele><time>2026-04-18T07:29:26.874Z</time></trkpt><trkpt lat="42.2188833" lon="14.5586833"><ele>94.0</ele><time>2026-04-18T07:29:29.874Z</time></trkpt><trkpt lat="42.2189417" lon="14.55874"><ele>94.0</ele><time>2026-04-18T07:29:31.874Z</time></trkpt><trkpt lat="42.2189983" lon="14.558785"><ele>94.0</ele><time>2026-04-18T07:29:33.874Z</time></trkpt><trkpt lat="42.2190533" lon="14.558835"><ele>94.0</ele><time>2026-04-18T07:29:35.874Z</time></trkpt><trkpt lat="42.2191233" lon="14.55889"><ele>94.0</ele><time>2026-04-18T07:29:37.874Z</time></trkpt><trkpt lat="42.2191917" lon="14.5589433"><ele>94.0</ele><time>2026-04-18T07:29:39.873Z</time></trkpt><trkpt lat="42.2192633" lon="14.5589983"><ele>94.0</ele><time>2026-04-18T07:29:41.873Z</time></trkpt><trkpt lat="42.2193383" lon="14.5590533"><ele>94.5</ele><time>2026-04-18T07:29:43.874Z</time></trkpt><trkpt lat="42.21942" lon="14.5591117"><ele>95.0</ele><time>2026-04-18T07:29:45.874Z</time></trkpt><trkpt lat="42.2194983" lon="14.5591733"><ele>95.5</ele><time>2026-04-18T07:29:47.873Z</time></trkpt><trkpt lat="42.2195683" lon="14.5592433"><ele>96.0</ele><time>2026-04-18T07:29:49.873Z</time></trkpt><trkpt lat="42.219635" lon="14.55932"><ele>96.50000000000001</ele><time>2026-04-18T07:29:51.874Z</time></trkpt><trkpt lat="42.2196417" lon="14.5594267"><ele>97.0</ele><time>2026-04-18T07:29:53.874Z</time></trkpt><trkpt lat="42.219595" lon="14.55953"><ele>96.6</ele><time>2026-04-18T07:29:55.874Z</time></trkpt><trkpt lat="42.2195167" lon="14.5596217"><ele>96.19999999999999</ele><time>2026-04-18T07:29:57.873Z</time></trkpt><trkpt lat="42.2194483" lon="14.5597183"><ele>95.8</ele><time>2026-04-18T07:29:59.874Z</time></trkpt><trkpt lat="42.2193883" lon="14.5598283"><ele>95.4</ele><time>2026-04-18T07:30:01.873Z</time></trkpt><trkpt lat="42.2193333" lon="14.5599433"><ele>95.0</ele><time>2026-04-18T07:30:03.874Z</time></trkpt><trkpt lat="42.2192783" lon="14.5600683"><ele>95.0</ele><time>2026-04-18T07:30:05.873Z</time></trkpt><trkpt lat="42.219235" lon="14.5602117"><ele>95.0</ele><time>2026-04-18T07:30:07.873Z</time></trkpt><trkpt lat="42.2192083" lon="14.5602933"><ele>95.0</ele><time>2026-04-18T07:30:08.873Z</time></trkpt><trkpt lat="42.2191867" lon="14.5603733"><ele>95.0</ele><time>2026-04-18T07:30:09.873Z</time></trkpt><trkpt lat="42.21914" lon="14.5605333"><ele>95.0</ele><time>2026-04-18T07:30:11.874Z</time></trkpt><trkpt lat="42.219115" lon="14.5606233"><ele>95.0</ele><time>2026-04-18T07:30:12.873Z</time></trkpt><trkpt lat="42.2190867" lon="14.5607083"><ele>93.4</ele><time>2026-04-18T07:30:13.874Z</time></trkpt><trkpt lat="42.2190567" lon="14.5608467"><ele>91.8</ele><time>2026-04-18T07:30:15.874Z</time></trkpt><trkpt lat="42.2190517" lon="14.5609667"><ele>90.19999999999999</ele><time>2026-04-18T07:30:17.874Z</time></trkpt><trkpt lat="42.2190567" lon="14.5611117"><ele>88.6</ele><time>2026-04-18T07:30:19.873Z</time></trkpt><trkpt lat="42.219035" lon="14.5612517"><ele>87.0</ele><time>2026-04-18T07:30:21.874Z</time></trkpt><trkpt lat="42.2190217" lon="14.5613733"><ele>86.0</ele><time>2026-04-18T07:30:23.874Z</time></trkpt><trkpt lat="42.219015" lon="14.5615117"><ele>85.0</ele><time>2026-04-18T07:30:25.874Z</time></trkpt><trkpt lat="42.2190117" lon="14.56162"><ele>84.0</ele><time>2026-04-18T07:30:27.874Z</time></trkpt><trkpt lat="42.21901" lon="14.56173"><ele>83.0</ele><time>2026-04-18T07:30:29.874Z</time></trkpt><trkpt lat="42.2189867" lon="14.5618417"><ele>82.0</ele><time>2026-04-18T07:30:31.874Z</time></trkpt><trkpt lat="42.2189883" lon="14.56196"><ele>81.0</ele><time>2026-04-18T07:30:33.874Z</time></trkpt><trkpt lat="42.2190267" lon="14.5620533"><ele>81.0</ele><time>2026-04-18T07:30:35.873Z</time></trkpt><trkpt lat="42.2190933" lon="14.5620667"><ele>81.0</ele><time>2026-04-18T07:30:37.874Z</time></trkpt><trkpt lat="42.2191483" lon="14.562"><ele>81.0</ele><time>2026-04-18T07:30:39.873Z</time></trkpt><trkpt lat="42.2191683" lon="14.5619083"><ele>81.0</ele><time>2026-04-18T07:30:41.874Z</time></trkpt><trkpt lat="42.2192033" lon="14.56178"><ele>81.0</ele><time>2026-04-18T07:30:43.874Z</time></trkpt><trkpt lat="42.2192733" lon="14.5616533"><ele>81.0</ele><time>2026-04-18T07:30:45.874Z</time></trkpt><trkpt lat="42.2193117" lon="14.561585"><ele>81.0</ele><time>2026-04-18T07:30:46.874Z</time></trkpt><trkpt lat="42.2193617" lon="14.561525"><ele>81.0</ele><time>2026-04-18T07:30:47.874Z</time></trkpt><trkpt lat="42.2194133" lon="14.561465"><ele>81.0</ele><time>2026-04-18T07:30:48.874Z</time></trkpt><trkpt lat="42.2194617" lon="14.5614067"><ele>81.0</ele><time>2026-04-18T07:30:49.874Z</time></trkpt><trkpt lat="42.2195517" lon="14.5613033"><ele>81.0</ele><time>2026-04-18T07:30:51.873Z</time></trkpt><trkpt lat="42.2196283" lon="14.5612067"><ele>81.0</ele><time>2026-04-18T07:30:53.874Z</time></trkpt><trkpt lat="42.2197" lon="14.561125"><ele>80.33333333333333</ele><time>2026-04-18T07:30:55.873Z</time></trkpt><trkpt lat="42.2197533" lon="14.5610633"><ele>79.66666666666667</ele><time>2026-04-18T07:30:57.874Z</time></trkpt><trkpt lat="42.2198183" lon="14.561005"><ele>79.0</ele><time>2026-04-18T07:31:01.874Z</time></trkpt><trkpt lat="42.2198833" lon="14.5609917"><ele>78.33333333333334</ele><time>2026-04-18T07:31:05.874Z</time></trkpt><trkpt lat="42.2199583" lon="14.5609417"><ele>77.66666666666667</ele><time>2026-04-18T07:31:09.874Z</time></trkpt><trkpt lat="42.2200417" lon="14.560865"><ele>77.0</ele><time>2026-04-18T07:31:12.874Z</time></trkpt><trkpt lat="42.2201383" lon="14.56079"><ele>77.0</ele><time>2026-04-18T07:31:14.874Z</time></trkpt><trkpt lat="42.2202367" lon="14.5607283"><ele>77.0</ele><time>2026-04-18T07:31:16.874Z</time></trkpt><trkpt lat="42.220335" lon="14.56065"><ele>77.0</ele><time>2026-04-18T07:31:18.874Z</time></trkpt><trkpt lat="42.2203917" lon="14.5606033"><ele>77.0</ele><time>2026-04-18T07:31:19.874Z</time></trkpt><trkpt lat="42.220485" lon="14.560525"><ele>77.0</ele><time>2026-04-18T07:31:21.874Z</time></trkpt><trkpt lat="42.220575" lon="14.56042"><ele>76.0</ele><time>2026-04-18T07:31:23.873Z</time></trkpt><trkpt lat="42.220625" lon="14.5603633"><ele>75.0</ele><time>2026-04-18T07:31:24.874Z</time></trkpt><trkpt lat="42.2207083" lon="14.56028"><ele>74.0</ele><time>2026-04-18T07:31:26.873Z</time></trkpt><trkpt lat="42.2207883" lon="14.5601683"><ele>73.0</ele><time>2026-04-18T07:31:28.874Z</time></trkpt><trkpt lat="42.2208317" lon="14.5601067"><ele>72.0</ele><time>2026-04-18T07:31:29.874Z</time></trkpt><trkpt lat="42.2209033" lon="14.559985"><ele>72.0</ele><time>2026-04-18T07:31:31.874Z</time></trkpt><trkpt lat="42.220995" lon="14.5598717"><ele>72.0</ele><time>2026-04-18T07:31:33.874Z</time></trkpt><trkpt lat="42.22108" lon="14.5597683"><ele>72.0</ele><time>2026-04-18T07:31:35.874Z</time></trkpt><trkpt lat="42.2211567" lon="14.5596767"><ele>72.0</ele><time>2026-04-18T07:31:37.874Z</time></trkpt><trkpt lat="42.2212267" lon="14.5595933"><ele>72.0</ele><time>2026-04-18T07:31:39.873Z</time></trkpt><trkpt lat="42.22129" lon="14.5595317"><ele>71.33333333333333</ele><time>2026-04-18T07:31:41.874Z</time></trkpt><trkpt lat="42.221355" lon="14.5594467"><ele>70.66666666666667</ele><time>2026-04-18T07:31:44.874Z</time></trkpt><trkpt lat="42.221415" lon="14.5593717"><ele>70.0</ele><time>2026-04-18T07:31:47.874Z</time></trkpt><trkpt lat="42.221465" lon="14.55932"><ele>69.33333333333334</ele><time>2026-04-18T07:31:50.874Z</time></trkpt><trkpt lat="42.2215133" lon="14.5592517"><ele>68.66666666666667</ele><time>2026-04-18T07:31:53.874Z</time></trkpt><trkpt lat="42.2215583" lon="14.559155"><ele>68.0</ele><time>2026-04-18T07:31:56.874Z</time></trkpt><trkpt lat="42.22158" lon="14.5590417"><ele>68.0</ele><time>2026-04-18T07:31:59.874Z</time></trkpt><trkpt lat="42.2215883" lon="14.5589483"><ele>68.0</ele><time>2026-04-18T07:32:01.874Z</time></trkpt><trkpt lat="42.2216" lon="14.5588367"><ele>68.0</ele><time>2026-04-18T07:32:03.874Z</time></trkpt><trkpt lat="42.2216017" lon="14.55874"><ele>68.0</ele><time>2026-04-18T07:32:05.874Z</time></trkpt><trkpt lat="42.2215983" lon="14.5586317"><ele>68.0</ele><time>2026-04-18T07:32:07.873Z</time></trkpt><trkpt lat="42.2216133" lon="14.5585417"><ele>68.0</ele><time>2026-04-18T07:32:09.874Z</time></trkpt><trkpt lat="42.22163" lon="14.55843"><ele>68.16666666666667</ele><time>2026-04-18T07:32:11.873Z</time></trkpt><trkpt lat="42.22166" lon="14.5583283"><ele>68.33333333333334</ele><time>2026-04-18T07:32:13.873Z</time></trkpt><trkpt lat="42.221675" lon="14.5582267"><ele>68.5</ele><time>2026-04-18T07:32:15.874Z</time></trkpt><trkpt lat="42.22169" lon="14.55814"><ele>68.66666666666667</ele><time>2026-04-18T07:32:17.873Z</time></trkpt><trkpt lat="42.2217167" lon="14.55803"><ele>68.83333333333333</ele><time>2026-04-18T07:32:19.873Z</time></trkpt><trkpt lat="42.2217283" lon="14.5579433"><ele>69.0</ele><time>2026-04-18T07:32:21.873Z</time></trkpt><trkpt lat="42.22173" lon="14.5578417"><ele>69.5</ele><time>2026-04-18T07:32:23.874Z</time></trkpt><trkpt lat="42.2217317" lon="14.5577517"><ele>70.0</ele><time>2026-04-18T07:32:25.874Z</time></trkpt><trkpt lat="42.2217583" lon="14.5576383"><ele>70.5</ele><time>2026-04-18T07:32:27.874Z</time></trkpt><trkpt lat="42.2217883" lon="14.5575167"><ele>71.0</ele><time>2026-04-18T07:32:29.874Z</time></trkpt><trkpt lat="42.2218133" lon="14.5574067"><ele>71.5</ele><time>2026-04-18T07:32:31.873Z</time></trkpt><trkpt lat="42.2218383" lon="14.557325"><ele>72.0</ele><time>2026-04-18T07:32:33.874Z</time></trkpt><trkpt lat="42.221865" lon="14.557235"><ele>72.0</ele><time>2026-04-18T07:32:35.874Z</time></trkpt><trkpt lat="42.2219017" lon="14.557145"><ele>72.0</ele><time>2026-04-18T07:32:37.874Z</time></trkpt><trkpt lat="42.2219317" lon="14.5570583"><ele>72.0</ele><time>2026-04-18T07:32:39.874Z</time></trkpt><trkpt lat="42.221965" lon="14.556985"><ele>72.0</ele><time>2026-04-18T07:32:41.873Z</time></trkpt><trkpt lat="42.2220233" lon="14.5569033"><ele>72.0</ele><time>2026-04-18T07:32:44.874Z</time></trkpt><trkpt lat="42.2221183" lon="14.5568267"><ele>72.0</ele><time>2026-04-18T07:32:46.873Z</time></trkpt><trkpt lat="42.22219" lon="14.55674"><ele>72.16666666666667</ele><time>2026-04-18T07:32:48.874Z</time></trkpt><trkpt lat="42.22225" lon="14.5566783"><ele>72.33333333333333</ele><time>2026-04-18T07:32:50.873Z</time></trkpt><trkpt lat="42.222305" lon="14.556595"><ele>72.5</ele><time>2026-04-18T07:32:52.874Z</time></trkpt><trkpt lat="42.22237" lon="14.5564733"><ele>72.66666666666666</ele><time>2026-04-18T07:32:54.873Z</time></trkpt><trkpt lat="42.2224083" lon="14.5564033"><ele>72.83333333333333</ele><time>2026-04-18T07:32:55.874Z</time></trkpt><trkpt lat="42.22246" lon="14.55628"><ele>73.0</ele><time>2026-04-18T07:32:57.874Z</time></trkpt><trkpt lat="42.2224783" lon="14.5561467"><ele>75.2</ele><time>2026-04-18T07:32:59.873Z</time></trkpt><trkpt lat="42.2225" lon="14.5560383"><ele>77.4</ele><time>2026-04-18T07:33:01.874Z</time></trkpt><trkpt lat="42.2225417" lon="14.55592"><ele>79.60000000000001</ele><time>2026-04-18T07:33:03.874Z</time></trkpt><trkpt lat="42.2225767" lon="14.5557917"><ele>81.8</ele><time>2026-04-18T07:33:05.874Z</time></trkpt><trkpt lat="42.222615" lon="14.5556817"><ele>84.0</ele><time>2026-04-18T07:33:07.874Z</time></trkpt><trkpt lat="42.2226567" lon="14.55557"><ele>84.0</ele><time>2026-04-18T07:33:09.874Z</time></trkpt><trkpt lat="42.22268" lon="14.55549"><ele>84.0</ele><time>2026-04-18T07:33:11.874Z</time></trkpt><trkpt lat="42.2226933" lon="14.5553933"><ele>84.0</ele><time>2026-04-18T07:33:13.874Z</time></trkpt><trkpt lat="42.2227133" lon="14.5552633"><ele>84.0</ele><time>2026-04-18T07:33:16.873Z</time></trkpt><trkpt lat="42.2227217" lon="14.5551383"><ele>84.0</ele><time>2026-04-18T07:33:19.873Z</time></trkpt><trkpt lat="42.22273" lon="14.5550417"><ele>84.0</ele><time>2026-04-18T07:33:21.874Z</time></trkpt><trkpt lat="42.2227383" lon="14.55492"><ele>84.83333333333333</ele><time>2026-04-18T07:33:23.874Z</time></trkpt><trkpt lat="42.2227483" lon="14.55481"><ele>85.66666666666667</ele><time>2026-04-18T07:33:26.874Z</time></trkpt><trkpt lat="42.2227583" lon="14.5547217"><ele>86.5</ele><time>2026-04-18T07:33:28.874Z</time></trkpt><trkpt lat="42.2227833" lon="14.5545983"><ele>87.33333333333334</ele><time>2026-04-18T07:33:31.874Z</time></trkpt><trkpt lat="42.2228183" lon="14.5544783"><ele>88.16666666666667</ele><time>2026-04-18T07:33:33.874Z</time></trkpt><trkpt lat="42.2228467" lon="14.5543367"><ele>89.0</ele><time>2026-04-18T07:33:35.874Z</time></trkpt><trkpt lat="42.2228517" lon="14.5542467"><ele>89.83333333333334</ele><time>2026-04-18T07:33:36.874Z</time></trkpt><trkpt lat="42.2228733" lon="14.554115"><ele>90.66666666666667</ele><time>2026-04-18T07:33:38.874Z</time></trkpt><trkpt lat="42.2228867" lon="14.5539967"><ele>91.5</ele><time>2026-04-18T07:33:40.874Z</time></trkpt><trkpt lat="42.2228917" lon="14.553895"><ele>92.33333333333333</ele><time>2026-04-18T07:33:42.874Z</time></trkpt><trkpt lat="42.2229133" lon="14.5538017"><ele>93.16666666666666</ele><time>2026-04-18T07:33:44.873Z</time></trkpt><trkpt lat="42.22294" lon="14.5536833"><ele>94.0</ele><time>2026-04-18T07:33:46.873Z</time></trkpt><trkpt lat="42.2229667" lon="14.553515"><ele>95.0</ele><time>2026-04-18T07:33:48.873Z</time></trkpt><trkpt lat="42.2229933" lon="14.55337"><ele>96.0</ele><time>2026-04-18T07:33:50.873Z</time></trkpt><trkpt lat="42.2230283" lon="14.5532183"><ele>97.0</ele><time>2026-04-18T07:33:52.874Z</time></trkpt><trkpt lat="42.223055" lon="14.5530933"><ele>98.0</ele><time>2026-04-18T07:33:54.874Z</time></trkpt><trkpt lat="42.2230783" lon="14.5529983"><ele>99.0</ele><time>2026-04-18T07:33:56.874Z</time></trkpt><trkpt lat="42.2230983" lon="14.55288"><ele>100.2</ele><time>2026-04-18T07:33:58.873Z</time></trkpt><trkpt lat="42.22313" lon="14.5527467"><ele>101.4</ele><time>2026-04-18T07:34:00.873Z</time></trkpt><trkpt lat="42.2231833" lon="14.5526283"><ele>102.6</ele><time>2026-04-18T07:34:02.874Z</time></trkpt><trkpt lat="42.2232567" lon="14.552505"><ele>103.8</ele><time>2026-04-18T07:34:04.873Z</time></trkpt><trkpt lat="42.223325" lon="14.5523867"><ele>105.0</ele><time>2026-04-18T07:34:06.873Z</time></trkpt><trkpt lat="42.2233917" lon="14.5522617"><ele>102.8</ele><time>2026-04-18T07:34:08.873Z</time></trkpt><trkpt lat="42.22346" lon="14.552145"><ele>100.6</ele><time>2026-04-18T07:34:10.874Z</time></trkpt><trkpt lat="42.2235333" lon="14.55201"><ele>98.4</ele><time>2026-04-18T07:34:12.873Z</time></trkpt><trkpt lat="42.223565" lon="14.5519333"><ele>96.2</ele><time>2026-04-18T07:34:13.873Z</time></trkpt><trkpt lat="42.223595" lon="14.5518533"><ele>94.0</ele><time>2026-04-18T07:34:14.873Z</time></trkpt><trkpt lat="42.223655" lon="14.55172"><ele>94.0</ele><time>2026-04-18T07:34:16.874Z</time></trkpt><trkpt lat="42.2236967" lon="14.5516"><ele>94.0</ele><time>2026-04-18T07:34:18.873Z</time></trkpt><trkpt lat="42.22374" lon="14.5514717"><ele>94.0</ele><time>2026-04-18T07:34:20.874Z</time></trkpt><trkpt lat="42.223775" lon="14.55135"><ele>94.0</ele><time>2026-04-18T07:34:22.874Z</time></trkpt><trkpt lat="42.2238167" lon="14.5511833"><ele>94.0</ele><time>2026-04-18T07:34:24.873Z</time></trkpt><trkpt lat="42.2238167" lon="14.55108"><ele>95.6</ele><time>2026-04-18T07:34:26.874Z</time></trkpt><trkpt lat="42.2238267" lon="14.5509433"><ele>97.2</ele><time>2026-04-18T07:34:28.874Z</time></trkpt><trkpt lat="42.22387" lon="14.5508417"><ele>98.8</ele><time>2026-04-18T07:34:30.873Z</time></trkpt><trkpt lat="42.223925" lon="14.550735"><ele>100.39999999999999</ele><time>2026-04-18T07:34:32.874Z</time></trkpt><trkpt lat="42.224" lon="14.5506617"><ele>102.0</ele><time>2026-04-18T07:34:34.874Z</time></trkpt><trkpt lat="42.224065" lon="14.5505733"><ele>99.0</ele><time>2026-04-18T07:34:36.874Z</time></trkpt><trkpt lat="42.224125" lon="14.5504633"><ele>96.0</ele><time>2026-04-18T07:34:38.873Z</time></trkpt><trkpt lat="42.224185" lon="14.55034"><ele>93.0</ele><time>2026-04-18T07:34:40.874Z</time></trkpt><trkpt lat="42.2242517" lon="14.5502133"><ele>90.0</ele><time>2026-04-18T07:34:42.874Z</time></trkpt><trkpt lat="42.224345" lon="14.5500683"><ele>90.0</ele><time>2026-04-18T07:34:44.873Z</time></trkpt><trkpt lat="42.2243933" lon="14.5499867"><ele>90.0</ele><time>2026-04-18T07:34:45.874Z</time></trkpt><trkpt lat="42.2244383" lon="14.5499067"><ele>90.0</ele><time>2026-04-18T07:34:46.874Z</time></trkpt><trkpt lat="42.224485" lon="14.549825"><ele>90.0</ele><time>2026-04-18T07:34:47.873Z</time></trkpt><trkpt lat="42.2245283" lon="14.5497467"><ele>90.0</ele><time>2026-04-18T07:34:48.874Z</time></trkpt><trkpt lat="42.2245683" lon="14.5496733"><ele>90.0</ele><time>2026-04-18T07:34:49.874Z</time></trkpt><trkpt lat="42.224605" lon="14.5496033"><ele>90.0</ele><time>2026-04-18T07:34:50.874Z</time></trkpt><trkpt lat="42.2246533" lon="14.549515"><ele>88.66666666666667</ele><time>2026-04-18T07:34:51.873Z</time></trkpt><trkpt lat="42.2246983" lon="14.5494367"><ele>87.33333333333333</ele><time>2026-04-18T07:34:52.873Z</time></trkpt><trkpt lat="42.2247467" lon="14.5493533"><ele>86.0</ele><time>2026-04-18T07:34:53.874Z</time></trkpt><trkpt lat="42.22482" lon="14.549225"><ele>84.66666666666666</ele><time>2026-04-18T07:34:55.873Z</time></trkpt><trkpt lat="42.2248617" lon="14.5491483"><ele>83.33333333333333</ele><time>2026-04-18T07:34:56.874Z</time></trkpt><trkpt lat="42.22492" lon="14.54903"><ele>82.0</ele><time>2026-04-18T07:34:58.874Z</time></trkpt><trkpt lat="42.2249733" lon="14.5488783"><ele>82.0</ele><time>2026-04-18T07:35:00.874Z</time></trkpt><trkpt lat="42.2249983" lon="14.5487983"><ele>82.0</ele><time>2026-04-18T07:35:01.873Z</time></trkpt><trkpt lat="42.2250317" lon="14.54872"><ele>82.0</ele><time>2026-04-18T07:35:02.874Z</time></trkpt><trkpt lat="42.22509" lon="14.548595"><ele>82.0</ele><time>2026-04-18T07:35:04.874Z</time></trkpt><trkpt lat="42.2251467" lon="14.548465"><ele>82.0</ele><time>2026-04-18T07:35:06.873Z</time></trkpt><trkpt lat="42.225205" lon="14.548335"><ele>83.8</ele><time>2026-04-18T07:35:08.873Z</time></trkpt><trkpt lat="42.2252633" lon="14.5482067"><ele>85.6</ele><time>2026-04-18T07:35:10.874Z</time></trkpt><trkpt lat="42.2253383" lon="14.5480467"><ele>87.39999999999999</ele><time>2026-04-18T07:35:12.874Z</time></trkpt><trkpt lat="42.22538" lon="14.5479533"><ele>89.19999999999999</ele><time>2026-04-18T07:35:13.873Z</time></trkpt><trkpt lat="42.2254233" lon="14.5478567"><ele>91.0</ele><time>2026-04-18T07:35:14.873Z</time></trkpt><trkpt lat="42.22546" lon="14.5477433"><ele>92.33333333333333</ele><time>2026-04-18T07:35:15.874Z</time></trkpt><trkpt lat="42.2254983" lon="14.5476367"><ele>93.66666666666666</ele><time>2026-04-18T07:35:16.874Z</time></trkpt><trkpt lat="42.2255317" lon="14.547545"><ele>95.0</ele><time>2026-04-18T07:35:17.874Z</time></trkpt><trkpt lat="42.2255667" lon="14.5474617"><ele>96.33333333333333</ele><time>2026-04-18T07:35:18.874Z</time></trkpt><trkpt lat="42.225625" lon="14.547345"><ele>97.66666666666667</ele><time>2026-04-18T07:35:20.874Z</time></trkpt><trkpt lat="42.2256817" lon="14.547235"><ele>99.0</ele><time>2026-04-18T07:35:22.873Z</time></trkpt><trkpt lat="42.225735" lon="14.5471033"><ele>97.0</ele><time>2026-04-18T07:35:24.874Z</time></trkpt><trkpt lat="42.2257883" lon="14.546975"><ele>95.0</ele><time>2026-04-18T07:35:26.874Z</time></trkpt><trkpt lat="42.2258683" lon="14.5468933"><ele>93.0</ele><time>2026-04-18T07:35:28.874Z</time></trkpt><trkpt lat="42.225965" lon="14.5468417"><ele>91.0</ele><time>2026-04-18T07:35:30.873Z</time></trkpt><trkpt lat="42.2260567" lon="14.5467517"><ele>89.0</ele><time>2026-04-18T07:35:32.874Z</time></trkpt><trkpt lat="42.2261167" lon="14.5466633"><ele>89.0</ele><time>2026-04-18T07:35:34.874Z</time></trkpt><trkpt lat="42.226175" lon="14.5465717"><ele>89.0</ele><time>2026-04-18T07:35:36.873Z</time></trkpt><trkpt lat="42.2262417" lon="14.54647"><ele>89.0</ele><time>2026-04-18T07:35:38.874Z</time></trkpt><trkpt lat="42.226315" lon="14.5463683"><ele>89.0</ele><time>2026-04-18T07:35:40.874Z</time></trkpt><trkpt lat="42.2263817" lon="14.5462567"><ele>89.0</ele><time>2026-04-18T07:35:42.874Z</time></trkpt><trkpt lat="42.22643" lon="14.5461867"><ele>87.2</ele><time>2026-04-18T07:35:43.873Z</time></trkpt><trkpt lat="42.2265217" lon="14.5460867"><ele>85.4</ele><time>2026-04-18T07:35:45.873Z</time></trkpt><trkpt lat="42.2266033" lon="14.5459767"><ele>83.6</ele><time>2026-04-18T07:35:47.873Z</time></trkpt><trkpt lat="42.2266917" lon="14.5458433"><ele>81.8</ele><time>2026-04-18T07:35:49.874Z</time></trkpt><trkpt lat="42.22675" lon="14.5457717"><ele>80.0</ele><time>2026-04-18T07:35:50.873Z</time></trkpt><trkpt lat="42.2267983" lon="14.5457067"><ele>80.0</ele><time>2026-04-18T07:35:51.873Z</time></trkpt><trkpt lat="42.226865" lon="14.54561"><ele>80.0</ele><time>2026-04-18T07:35:53.874Z</time></trkpt><trkpt lat="42.226915" lon="14.5454883"><ele>80.0</ele><time>2026-04-18T07:35:55.874Z</time></trkpt><trkpt lat="42.22696" lon="14.5453633"><ele>80.0</ele><time>2026-04-18T07:35:57.874Z</time></trkpt><trkpt lat="42.22702" lon="14.54524"><ele>80.0</ele><time>2026-04-18T07:35:59.874Z</time></trkpt><trkpt lat="42.22707" lon="14.5451033"><ele>79.5</ele><time>2026-04-18T07:36:01.874Z</time></trkpt><trkpt lat="42.2271333" lon="14.545005"><ele>79.0</ele><time>2026-04-18T07:36:03.874Z</time></trkpt><trkpt lat="42.2272067" lon="14.5448817"><ele>78.5</ele><time>2026-04-18T07:36:05.874Z</time></trkpt><trkpt lat="42.2272433" lon="14.5447967"><ele>78.0</ele><time>2026-04-18T07:36:07.873Z</time></trkpt><trkpt lat="42.2272917" lon="14.544705"><ele>77.5</ele><time>2026-04-18T07:36:09.873Z</time></trkpt><trkpt lat="42.22733" lon="14.5446367"><ele>77.0</ele><time>2026-04-18T07:36:10.873Z</time></trkpt><trkpt lat="42.2274033" lon="14.5445283"><ele>78.4</ele><time>2026-04-18T07:36:12.873Z</time></trkpt><trkpt lat="42.2274767" lon="14.54442"><ele>79.80000000000001</ele><time>2026-04-18T07:36:14.873Z</time></trkpt><trkpt lat="42.2275533" lon="14.5443317"><ele>81.2</ele><time>2026-04-18T07:36:16.873Z</time></trkpt><trkpt lat="42.2276283" lon="14.5442267"><ele>82.60000000000001</ele><time>2026-04-18T07:36:18.874Z</time></trkpt><trkpt lat="42.227695" lon="14.5441317"><ele>84.0</ele><time>2026-04-18T07:36:20.874Z</time></trkpt><trkpt lat="42.2277467" lon="14.5440583"><ele>84.0</ele><time>2026-04-18T07:36:22.873Z</time></trkpt><trkpt lat="42.2278117" lon="14.544"><ele>84.0</ele><time>2026-04-18T07:36:24.873Z</time></trkpt><trkpt lat="42.22788" lon="14.54398"><ele>84.0</ele><time>2026-04-18T07:36:27.874Z</time></trkpt><trkpt lat="42.2280133" lon="14.5440167"><ele>84.0</ele><time>2026-04-18T07:36:50.874Z</time></trkpt><trkpt lat="42.2281117" lon="14.54396"><ele>84.0</ele><time>2026-04-18T07:37:58.375Z</time></trkpt><trkpt lat="42.2280867" lon="14.5440467"><ele>84.0</ele><time>2026-04-18T07:39:14.875Z</time></trkpt><trkpt lat="42.22811" lon="14.54415"><ele>84.0</ele><time>2026-04-18T07:39:19.875Z</time></trkpt><trkpt lat="42.2281267" lon="14.54424"><ele>84.0</ele><time>2026-04-18T07:39:22.875Z</time></trkpt><trkpt lat="42.22814" lon="14.5443267"><ele>84.0</ele><time>2026-04-18T07:39:25.875Z</time></trkpt><trkpt lat="42.2281467" lon="14.5444283"><ele>84.0</ele><time>2026-04-18T07:39:29.875Z</time></trkpt><trkpt lat="42.2281517" lon="14.5445533"><ele>84.0</ele><time>2026-04-18T07:39:32.875Z</time></trkpt><trkpt lat="42.2281633" lon="14.5446383"><ele>84.0</ele><time>2026-04-18T07:39:33.874Z</time></trkpt><trkpt lat="42.2282217" lon="14.5447433"><ele>81.33333333333333</ele><time>2026-04-18T07:39:36.875Z</time></trkpt><trkpt lat="42.2282667" lon="14.5448133"><ele>78.66666666666667</ele><time>2026-04-18T07:39:38.874Z</time></trkpt><trkpt lat="42.2283033" lon="14.5449083"><ele>76.0</ele><time>2026-04-18T07:39:40.875Z</time></trkpt><trkpt lat="42.22834" lon="14.5449833"><ele>73.33333333333334</ele><time>2026-04-18T07:39:42.875Z</time></trkpt><trkpt lat="42.2284067" lon="14.545085"><ele>70.66666666666667</ele><time>2026-04-18T07:39:45.875Z</time></trkpt><trkpt lat="42.228465" lon="14.5451433"><ele>68.0</ele><time>2026-04-18T07:39:47.875Z</time></trkpt><trkpt lat="42.2285167" lon="14.5451933"><ele>68.0</ele><time>2026-04-18T07:39:49.874Z</time></trkpt><trkpt lat="42.2285917" lon="14.5452383"><ele>68.0</ele><time>2026-04-18T07:39:52.874Z</time></trkpt><trkpt lat="42.2286667" lon="14.5452367"><ele>68.0</ele><time>2026-04-18T07:39:55.875Z</time></trkpt><trkpt lat="42.2287417" lon="14.5452183"><ele>68.0</ele><time>2026-04-18T07:39:58.875Z</time></trkpt><trkpt lat="42.2288067" lon="14.5452567"><ele>68.0</ele><time>2026-04-18T07:40:03.875Z</time></trkpt><trkpt lat="42.228865" lon="14.5453333"><ele>68.0</ele><time>2026-04-18T07:40:07.875Z</time></trkpt><trkpt lat="42.2289283" lon="14.5454167"><ele>64.83333333333334</ele><time>2026-04-18T07:40:10.875Z</time></trkpt><trkpt lat="42.2289917" lon="14.545445"><ele>61.66666666666667</ele><time>2026-04-18T07:40:12.875Z</time></trkpt><trkpt lat="42.2290717" lon="14.5454817"><ele>58.5</ele><time>2026-04-18T07:40:14.874Z</time></trkpt><trkpt lat="42.2291367" lon="14.545515"><ele>55.33333333333333</ele><time>2026-04-18T07:40:16.875Z</time></trkpt><trkpt lat="42.2292117" lon="14.5455633"><ele>52.166666666666664</ele><time>2026-04-18T07:40:19.875Z</time></trkpt><trkpt lat="42.2292833" lon="14.5456417"><ele>49.0</ele><time>2026-04-18T07:40:22.874Z</time></trkpt><trkpt lat="42.2293283" lon="14.5457367"><ele>48.99999999999999</ele><time>2026-04-18T07:40:25.875Z</time></trkpt><trkpt lat="42.2293417" lon="14.54583"><ele>49.0</ele><time>2026-04-18T07:40:28.875Z</time></trkpt><trkpt lat="42.22936" lon="14.5459183"><ele>49.0</ele><time>2026-04-18T07:40:31.874Z</time></trkpt><trkpt lat="42.2293833" lon="14.5460117"><ele>49.0</ele><time>2026-04-18T07:40:34.875Z</time></trkpt><trkpt lat="42.229375" lon="14.54611"><ele>48.99999999999999</ele><time>2026-04-18T07:40:39.874Z</time></trkpt><trkpt lat="42.22935" lon="14.5462217"><ele>49.0</ele><time>2026-04-18T07:40:42.874Z</time></trkpt><trkpt lat="42.2293" lon="14.5463183"><ele>48.142857142857146</ele><time>2026-04-18T07:40:45.875Z</time></trkpt><trkpt lat="42.2292617" lon="14.5464033"><ele>47.285714285714285</ele><time>2026-04-18T07:40:48.874Z</time></trkpt><trkpt lat="42.22923" lon="14.5464933"><ele>46.42857142857143</ele><time>2026-04-18T07:40:51.875Z</time></trkpt><trkpt lat="42.2291917" lon="14.5465833"><ele>45.57142857142857</ele><time>2026-04-18T07:40:55.874Z</time></trkpt><trkpt lat="42.229135" lon="14.546645"><ele>44.714285714285715</ele><time>2026-04-18T07:40:59.875Z</time></trkpt><trkpt lat="42.2291017" lon="14.5467183"><ele>43.85714285714286</ele><time>2026-04-18T07:41:02.875Z</time></trkpt><trkpt lat="42.2290617" lon="14.5467967"><ele>43.0</ele><time>2026-04-18T07:41:05.874Z</time></trkpt><trkpt lat="42.2290333" lon="14.546895"><ele>43.0</ele><time>2026-04-18T07:41:08.875Z</time></trkpt><trkpt lat="42.2289983" lon="14.5469833"><ele>43.0</ele><time>2026-04-18T07:41:11.874Z</time></trkpt><trkpt lat="42.2289583" lon="14.5470533"><ele>43.0</ele><time>2026-04-18T07:41:13.875Z</time></trkpt><trkpt lat="42.22892" lon="14.5471317"><ele>43.0</ele><time>2026-04-18T07:41:15.875Z</time></trkpt><trkpt lat="42.22888" lon="14.547245"><ele>43.0</ele><time>2026-04-18T07:41:18.875Z</time></trkpt><trkpt lat="42.2288517" lon="14.5473317"><ele>43.0</ele><time>2026-04-18T07:41:20.875Z</time></trkpt><trkpt lat="42.2288067" lon="14.5474183"><ele>42.833333333333336</ele><time>2026-04-18T07:41:22.875Z</time></trkpt><trkpt lat="42.22877" lon="14.5474967"><ele>42.66666666666667</ele><time>2026-04-18T07:41:24.875Z</time></trkpt><trkpt lat="42.2287183" lon="14.5475983"><ele>42.5</ele><time>2026-04-18T07:41:26.874Z</time></trkpt><trkpt lat="42.228665" lon="14.5477017"><ele>42.333333333333336</ele><time>2026-04-18T07:41:28.875Z</time></trkpt><trkpt lat="42.2286233" lon="14.5477867"><ele>42.166666666666664</ele><time>2026-04-18T07:41:30.874Z</time></trkpt><trkpt lat="42.22858" lon="14.5478717"><ele>42.0</ele><time>2026-04-18T07:41:32.874Z</time></trkpt><trkpt lat="42.2285467" lon="14.547975"><ele>42.0</ele><time>2026-04-18T07:41:34.875Z</time></trkpt><trkpt lat="42.228505" lon="14.5480617"><ele>42.0</ele><time>2026-04-18T07:41:36.874Z</time></trkpt><trkpt lat="42.22846" lon="14.5481417"><ele>42.0</ele><time>2026-04-18T07:41:38.875Z</time></trkpt><trkpt lat="42.228425" lon="14.5482283"><ele>42.0</ele><time>2026-04-18T07:41:40.874Z</time></trkpt><trkpt lat="42.2283933" lon="14.5483217"><ele>42.0</ele><time>2026-04-18T07:41:42.875Z</time></trkpt><trkpt lat="42.2283683" lon="14.54842"><ele>42.0</ele><time>2026-04-18T07:41:44.875Z</time></trkpt><trkpt lat="42.2283367" lon="14.548525"><ele>42.0</ele><time>2026-04-18T07:41:46.875Z</time></trkpt><trkpt lat="42.2282917" lon="14.5486167"><ele>42.0</ele><time>2026-04-18T07:41:49.875Z</time></trkpt><trkpt lat="42.228255" lon="14.5487"><ele>42.0</ele><time>2026-04-18T07:41:52.875Z</time></trkpt><trkpt lat="42.2282217" lon="14.54881"><ele>42.0</ele><time>2026-04-18T07:41:55.875Z</time></trkpt><trkpt lat="42.2282133" lon="14.5489133"><ele>42.0</ele><time>2026-04-18T07:41:58.874Z</time></trkpt><trkpt lat="42.2281817" lon="14.5490083"><ele>42.0</ele><time>2026-04-18T07:42:01.875Z</time></trkpt><trkpt lat="42.2281383" lon="14.5490983"><ele>43.0</ele><time>2026-04-18T07:42:04.875Z</time></trkpt><trkpt lat="42.2281" lon="14.5491717"><ele>44.0</ele><time>2026-04-18T07:42:07.875Z</time></trkpt><trkpt lat="42.228065" lon="14.54926"><ele>45.0</ele><time>2026-04-18T07:42:10.875Z</time></trkpt><trkpt lat="42.2280117" lon="14.54935"><ele>46.0</ele><time>2026-04-18T07:42:13.875Z</time></trkpt><trkpt lat="42.2279667" lon="14.5494217"><ele>47.0</ele><time>2026-04-18T07:42:16.875Z</time></trkpt><trkpt lat="42.22792" lon="14.5494983"><ele>48.0</ele><time>2026-04-18T07:42:19.875Z</time></trkpt><trkpt lat="42.227895" lon="14.5495867"><ele>49.0</ele><time>2026-04-18T07:42:22.875Z</time></trkpt><trkpt lat="42.22785" lon="14.549665"><ele>49.0</ele><time>2026-04-18T07:42:25.875Z</time></trkpt><trkpt lat="42.22782" lon="14.54974"><ele>49.0</ele><time>2026-04-18T07:42:28.875Z</time></trkpt><trkpt lat="42.227835" lon="14.5498417"><ele>49.0</ele><time>2026-04-18T07:42:32.875Z</time></trkpt><trkpt lat="42.2278667" lon="14.5499267"><ele>49.0</ele><time>2026-04-18T07:42:35.875Z</time></trkpt><trkpt lat="42.2278867" lon="14.55001"><ele>49.0</ele><time>2026-04-18T07:42:37.875Z</time></trkpt><trkpt lat="42.2279167" lon="14.55011"><ele>49.0</ele><time>2026-04-18T07:42:40.875Z</time></trkpt><trkpt lat="42.2279417" lon="14.55019"><ele>49.0</ele><time>2026-04-18T07:42:42.875Z</time></trkpt><trkpt lat="42.2279583" lon="14.5503"><ele>48.42857142857143</ele><time>2026-04-18T07:42:44.875Z</time></trkpt><trkpt lat="42.22797" lon="14.5503917"><ele>47.85714285714286</ele><time>2026-04-18T07:42:46.874Z</time></trkpt><trkpt lat="42.22797" lon="14.5504833"><ele>47.285714285714285</ele><time>2026-04-18T07:42:48.875Z</time></trkpt><trkpt lat="42.22797" lon="14.5505867"><ele>46.714285714285715</ele><time>2026-04-18T07:42:50.875Z</time></trkpt><trkpt lat="42.2279733" lon="14.5506783"><ele>46.142857142857146</ele><time>2026-04-18T07:42:52.874Z</time></trkpt><trkpt lat="42.2279867" lon="14.5507783"><ele>45.57142857142857</ele><time>2026-04-18T07:42:55.874Z</time></trkpt><trkpt lat="42.228" lon="14.5508733"><ele>45.0</ele><time>2026-04-18T07:42:58.874Z</time></trkpt><trkpt lat="42.227995" lon="14.5509633"><ele>45.0</ele><time>2026-04-18T07:43:02.875Z</time></trkpt><trkpt lat="42.2279667" lon="14.5510517"><ele>45.0</ele><time>2026-04-18T07:43:05.874Z</time></trkpt><trkpt lat="42.2279333" lon="14.55113"><ele>45.0</ele><time>2026-04-18T07:43:08.875Z</time></trkpt><trkpt lat="42.2279067" lon="14.5512117"><ele>45.0</ele><time>2026-04-18T07:43:11.874Z</time></trkpt><trkpt lat="42.2278683" lon="14.5512867"><ele>45.0</ele><time>2026-04-18T07:43:14.874Z</time></trkpt><trkpt lat="42.2278167" lon="14.5513367"><ele>45.0</ele><time>2026-04-18T07:43:17.875Z</time></trkpt><trkpt lat="42.227765" lon="14.5513867"><ele>45.0</ele><time>2026-04-18T07:43:19.875Z</time></trkpt><trkpt lat="42.22768" lon="14.5514233"><ele>43.5</ele><time>2026-04-18T07:43:22.875Z</time></trkpt><trkpt lat="42.227595" lon="14.5514517"><ele>42.0</ele><time>2026-04-18T07:43:25.875Z</time></trkpt><trkpt lat="42.22752" lon="14.5514933"><ele>40.5</ele><time>2026-04-18T07:43:28.875Z</time></trkpt><trkpt lat="42.2274633" lon="14.5515367"><ele>39.0</ele><time>2026-04-18T07:43:31.874Z</time></trkpt><trkpt lat="42.227395" lon="14.5516117"><ele>37.5</ele><time>2026-04-18T07:43:35.874Z</time></trkpt><trkpt lat="42.2273383" lon="14.5516933"><ele>36.0</ele><time>2026-04-18T07:43:38.875Z</time></trkpt><trkpt lat="42.2272883" lon="14.55176"><ele>37.8</ele><time>2026-04-18T07:43:40.875Z</time></trkpt><trkpt lat="42.2272367" lon="14.5518467"><ele>39.6</ele><time>2026-04-18T07:43:43.875Z</time></trkpt><trkpt lat="42.227165" lon="14.5519567"><ele>41.4</ele><time>2026-04-18T07:43:46.875Z</time></trkpt><trkpt lat="42.22713" lon="14.5520333"><ele>43.2</ele><time>2026-04-18T07:43:48.875Z</time></trkpt><trkpt lat="42.227075" lon="14.5521183"><ele>45.0</ele><time>2026-04-18T07:43:50.874Z</time></trkpt><trkpt lat="42.2269883" lon="14.5522233"><ele>45.0</ele><time>2026-04-18T07:43:52.875Z</time></trkpt><trkpt lat="42.2269317" lon="14.5522883"><ele>45.0</ele><time>2026-04-18T07:43:53.875Z</time></trkpt><trkpt lat="42.22682" lon="14.552375"><ele>45.0</ele><time>2026-04-18T07:43:55.875Z</time></trkpt><trkpt lat="42.226725" lon="14.552435"><ele>45.0</ele><time>2026-04-18T07:43:57.875Z</time></trkpt><trkpt lat="42.2266333" lon="14.5525067"><ele>45.0</ele><time>2026-04-18T07:43:59.875Z</time></trkpt><trkpt lat="42.2265617" lon="14.552555"><ele>45.0</ele><time>2026-04-18T07:44:01.875Z</time></trkpt><trkpt lat="42.2264933" lon="14.552615"><ele>45.0</ele><time>2026-04-18T07:44:03.875Z</time></trkpt><trkpt lat="42.2264367" lon="14.5526617"><ele>45.0</ele><time>2026-04-18T07:44:05.874Z</time></trkpt><trkpt lat="42.226375" lon="14.5527083"><ele>45.0</ele><time>2026-04-18T07:44:07.875Z</time></trkpt><trkpt lat="42.226315" lon="14.5527717"><ele>45.0</ele><time>2026-04-18T07:44:10.874Z</time></trkpt><trkpt lat="42.22626" lon="14.55284"><ele>45.0</ele><time>2026-04-18T07:44:13.875Z</time></trkpt><trkpt lat="42.2262083" lon="14.5529"><ele>45.0</ele><time>2026-04-18T07:44:15.875Z</time></trkpt><trkpt lat="42.2261633" lon="14.55297"><ele>46.4</ele><time>2026-04-18T07:44:18.875Z</time></trkpt><trkpt lat="42.2261217" lon="14.55305"><ele>47.8</ele><time>2026-04-18T07:44:20.875Z</time></trkpt><trkpt lat="42.22605" lon="14.553135"><ele>49.2</ele><time>2026-04-18T07:44:21.874Z</time></trkpt><trkpt lat="42.2259617" lon="14.5532517"><ele>50.6</ele><time>2026-04-18T07:44:23.875Z</time></trkpt><trkpt lat="42.2258517" lon="14.5533467"><ele>52.0</ele><time>2026-04-18T07:44:25.875Z</time></trkpt><trkpt lat="42.22579" lon="14.5533933"><ele>52.0</ele><time>2026-04-18T07:44:26.874Z</time></trkpt><trkpt lat="42.225715" lon="14.5534367"><ele>52.0</ele><time>2026-04-18T07:44:27.875Z</time></trkpt><trkpt lat="42.225655" lon="14.553485"><ele>52.0</ele><time>2026-04-18T07:44:28.875Z</time></trkpt><trkpt lat="42.2255767" lon="14.5535667"><ele>52.0</ele><time>2026-04-18T07:44:30.874Z</time></trkpt><trkpt lat="42.2255067" lon="14.55366"><ele>52.0</ele><time>2026-04-18T07:44:32.874Z</time></trkpt><trkpt lat="42.225425" lon="14.5537667"><ele>53.6</ele><time>2026-04-18T07:44:34.874Z</time></trkpt><trkpt lat="42.2253017" lon="14.5538433"><ele>55.2</ele><time>2026-04-18T07:44:36.874Z</time></trkpt><trkpt lat="42.2252033" lon="14.5539317"><ele>56.8</ele><time>2026-04-18T07:44:38.875Z</time></trkpt><trkpt lat="42.2251117" lon="14.5540117"><ele>58.4</ele><time>2026-04-18T07:44:40.874Z</time></trkpt><trkpt lat="42.2250483" lon="14.55409"><ele>60.0</ele><time>2026-04-18T07:44:42.875Z</time></trkpt><trkpt lat="42.2249933" lon="14.55416"><ele>60.0</ele><time>2026-04-18T07:44:44.875Z</time></trkpt><trkpt lat="42.2249567" lon="14.5542383"><ele>60.0</ele><time>2026-04-18T07:44:46.875Z</time></trkpt><trkpt lat="42.2249067" lon="14.5543267"><ele>60.0</ele><time>2026-04-18T07:44:48.875Z</time></trkpt><trkpt lat="42.2248483" lon="14.554425"><ele>60.0</ele><time>2026-04-18T07:44:50.875Z</time></trkpt><trkpt lat="42.2247883" lon="14.5545267"><ele>60.0</ele><time>2026-04-18T07:44:52.875Z</time></trkpt><trkpt lat="42.2247183" lon="14.5546333"><ele>60.0</ele><time>2026-04-18T07:44:54.875Z</time></trkpt><trkpt lat="42.22465" lon="14.5547433"><ele>60.333333333333336</ele><time>2026-04-18T07:44:56.874Z</time></trkpt><trkpt lat="42.2245767" lon="14.554855"><ele>60.66666666666667</ele><time>2026-04-18T07:44:58.874Z</time></trkpt><trkpt lat="42.2245317" lon="14.5549183"><ele>61.0</ele><time>2026-04-18T07:44:59.875Z</time></trkpt><trkpt lat="42.2244683" lon="14.5550267"><ele>61.333333333333336</ele><time>2026-04-18T07:45:01.875Z</time></trkpt><trkpt lat="42.2244" lon="14.5551033"><ele>61.66666666666667</ele><time>2026-04-18T07:45:03.875Z</time></trkpt><trkpt lat="42.224345" lon="14.5551667"><ele>62.0</ele><time>2026-04-18T07:45:05.875Z</time></trkpt><trkpt lat="42.224215" lon="14.5552183"><ele>62.00000000000001</ele><time>2026-04-18T07:45:08.874Z</time></trkpt><trkpt lat="42.2241183" lon="14.555265"><ele>62.0</ele><time>2026-04-18T07:45:10.875Z</time></trkpt><trkpt lat="42.224055" lon="14.5553117"><ele>62.0</ele><time>2026-04-18T07:45:12.875Z</time></trkpt><trkpt lat="42.22399" lon="14.5553567"><ele>62.0</ele><time>2026-04-18T07:45:14.875Z</time></trkpt><trkpt lat="42.2239117" lon="14.55542"><ele>62.00000000000001</ele><time>2026-04-18T07:45:17.874Z</time></trkpt><trkpt lat="42.2238483" lon="14.5554683"><ele>62.0</ele><time>2026-04-18T07:45:20.875Z</time></trkpt><trkpt lat="42.223795" lon="14.555535"><ele>63.00000000000001</ele><time>2026-04-18T07:45:25.874Z</time></trkpt><trkpt lat="42.2237367" lon="14.5555817"><ele>64.0</ele><time>2026-04-18T07:45:28.875Z</time></trkpt><trkpt lat="42.2236833" lon="14.5556333"><ele>65.0</ele><time>2026-04-18T07:45:38.875Z</time></trkpt><trkpt lat="42.2235867" lon="14.5556867"><ele>66.0</ele><time>2026-04-18T07:45:39.875Z</time></trkpt><trkpt lat="42.22349" lon="14.5557583"><ele>67.0</ele><time>2026-04-18T07:46:03.875Z</time></trkpt><trkpt lat="42.2234867" lon="14.5558633"><ele>68.0</ele><time>2026-04-18T07:46:10.874Z</time></trkpt><trkpt lat="42.223465" lon="14.5560133"><ele>68.0</ele><time>2026-04-18T07:46:18.874Z</time></trkpt><trkpt lat="42.2234617" lon="14.5561117"><ele>68.0</ele><time>2026-04-18T07:46:22.875Z</time></trkpt><trkpt lat="42.2234533" lon="14.5562267"><ele>68.0</ele><time>2026-04-18T07:46:26.874Z</time></trkpt><trkpt lat="42.2234383" lon="14.5563383"><ele>68.0</ele><time>2026-04-18T07:46:29.875Z</time></trkpt><trkpt lat="42.2234367" lon="14.5564483"><ele>68.0</ele><time>2026-04-18T07:46:31.875Z</time></trkpt><trkpt lat="42.223425" lon="14.55658"><ele>68.0</ele><time>2026-04-18T07:46:33.875Z</time></trkpt><trkpt lat="42.2234283" lon="14.5567017"><ele>66.5</ele><time>2026-04-18T07:46:35.874Z</time></trkpt><trkpt lat="42.2234183" lon="14.5568217"><ele>65.0</ele><time>2026-04-18T07:46:37.875Z</time></trkpt><trkpt lat="42.2234133" lon="14.55694"><ele>63.5</ele><time>2026-04-18T07:46:39.874Z</time></trkpt><trkpt lat="42.2234083" lon="14.5570633"><ele>62.0</ele><time>2026-04-18T07:46:41.875Z</time></trkpt><trkpt lat="42.2233933" lon="14.5571733"><ele>60.50000000000001</ele><time>2026-04-18T07:46:43.875Z</time></trkpt><trkpt lat="42.2233733" lon="14.55727"><ele>59.0</ele><time>2026-04-18T07:46:45.874Z</time></trkpt><trkpt lat="42.2233533" lon="14.557355"><ele>59.857142857142854</ele><time>2026-04-18T07:46:47.874Z</time></trkpt><trkpt lat="42.2233383" lon="14.5574433"><ele>60.71428571428572</ele><time>2026-04-18T07:46:49.874Z</time></trkpt><trkpt lat="42.2233233" lon="14.557535"><ele>61.57142857142858</ele><time>2026-04-18T07:46:51.875Z</time></trkpt><trkpt lat="42.2233317" lon="14.5576583"><ele>62.42857142857143</ele><time>2026-04-18T07:46:54.875Z</time></trkpt><trkpt lat="42.2233183" lon="14.5577483"><ele>63.28571428571429</ele><time>2026-04-18T07:46:58.875Z</time></trkpt><trkpt lat="42.2232583" lon="14.557775"><ele>64.14285714285715</ele><time>2026-04-18T07:47:05.874Z</time></trkpt><trkpt lat="42.2231817" lon="14.5577917"><ele>65.0</ele><time>2026-04-18T07:47:09.875Z</time></trkpt><trkpt lat="42.2230983" lon="14.5578017"><ele>65.0</ele><time>2026-04-18T07:47:10.875Z</time></trkpt><trkpt lat="42.2229817" lon="14.5577967"><ele>65.0</ele><time>2026-04-18T07:47:12.875Z</time></trkpt><trkpt lat="42.222905" lon="14.5578017"><ele>65.0</ele><time>2026-04-18T07:47:14.874Z</time></trkpt><trkpt lat="42.22284" lon="14.55782"><ele>65.0</ele><time>2026-04-18T07:47:16.875Z</time></trkpt><trkpt lat="42.2227583" lon="14.557885"><ele>65.0</ele><time>2026-04-18T07:47:19.875Z</time></trkpt><trkpt lat="42.2226767" lon="14.557945"><ele>65.0</ele><time>2026-04-18T07:47:22.875Z</time></trkpt><trkpt lat="42.22262" lon="14.5579933"><ele>65.66666666666667</ele><time>2026-04-18T07:47:24.875Z</time></trkpt><trkpt lat="42.2225683" lon="14.5580517"><ele>66.33333333333334</ele><time>2026-04-18T07:47:26.875Z</time></trkpt><trkpt lat="42.222515" lon="14.5581133"><ele>67.0</ele><time>2026-04-18T07:47:29.874Z</time></trkpt><trkpt lat="42.2224517" lon="14.5581883"><ele>67.66666666666667</ele><time>2026-04-18T07:47:32.874Z</time></trkpt><trkpt lat="42.222385" lon="14.5582817"><ele>68.33333333333333</ele><time>2026-04-18T07:47:35.875Z</time></trkpt><trkpt lat="42.2223283" lon="14.5583433"><ele>69.0</ele><time>2026-04-18T07:47:37.875Z</time></trkpt><trkpt lat="42.2222817" lon="14.5584083"><ele>69.0</ele><time>2026-04-18T07:47:39.874Z</time></trkpt><trkpt lat="42.22221" lon="14.5584983"><ele>69.0</ele><time>2026-04-18T07:47:42.874Z</time></trkpt><trkpt lat="42.22216" lon="14.5585567"><ele>69.0</ele><time>2026-04-18T07:47:44.875Z</time></trkpt><trkpt lat="42.2221117" lon="14.5586233"><ele>69.0</ele><time>2026-04-18T07:47:46.874Z</time></trkpt><trkpt lat="42.2220567" lon="14.5586767"><ele>69.0</ele><time>2026-04-18T07:47:48.874Z</time></trkpt><trkpt lat="42.22201" lon="14.558745"><ele>69.0</ele><time>2026-04-18T07:47:50.875Z</time></trkpt><trkpt lat="42.2219267" lon="14.5588367"><ele>68.83333333333333</ele><time>2026-04-18T07:47:53.875Z</time></trkpt><trkpt lat="42.2218667" lon="14.558915"><ele>68.66666666666667</ele><time>2026-04-18T07:47:55.875Z</time></trkpt><trkpt lat="42.2218117" lon="14.5589933"><ele>68.5</ele><time>2026-04-18T07:47:57.874Z</time></trkpt><trkpt lat="42.2217633" lon="14.55908"><ele>68.33333333333334</ele><time>2026-04-18T07:47:59.875Z</time></trkpt><trkpt lat="42.2217183" lon="14.5591833"><ele>68.16666666666667</ele><time>2026-04-18T07:48:01.874Z</time></trkpt><trkpt lat="42.2216717" lon="14.559305"><ele>68.0</ele><time>2026-04-18T07:48:03.875Z</time></trkpt><trkpt lat="42.221625" lon="14.5594483"><ele>67.0</ele><time>2026-04-18T07:48:05.874Z</time></trkpt><trkpt lat="42.2215983" lon="14.5595433"><ele>66.0</ele><time>2026-04-18T07:48:06.875Z</time></trkpt><trkpt lat="42.2215867" lon="14.5596367"><ele>65.0</ele><time>2026-04-18T07:48:07.875Z</time></trkpt><trkpt lat="42.221565" lon="14.559795"><ele>64.0</ele><time>2026-04-18T07:48:09.875Z</time></trkpt><trkpt lat="42.2215333" lon="14.5599617"><ele>63.0</ele><time>2026-04-18T07:48:11.874Z</time></trkpt><trkpt lat="42.2215283" lon="14.5600883"><ele>63.0</ele><time>2026-04-18T07:48:13.875Z</time></trkpt><trkpt lat="42.22153" lon="14.5602333"><ele>63.0</ele><time>2026-04-18T07:48:16.875Z</time></trkpt><trkpt lat="42.221555" lon="14.5603367"><ele>63.0</ele><time>2026-04-18T07:48:20.875Z</time></trkpt><trkpt lat="42.221615" lon="14.5604117"><ele>63.0</ele><time>2026-04-18T07:48:24.874Z</time></trkpt><trkpt lat="42.2216833" lon="14.56046"><ele>63.0</ele><time>2026-04-18T07:48:26.875Z</time></trkpt><trkpt lat="42.2217533" lon="14.5604783"><ele>63.0</ele><time>2026-04-18T07:48:28.874Z</time></trkpt><trkpt lat="42.221825" lon="14.56048"><ele>61.2</ele><time>2026-04-18T07:48:30.874Z</time></trkpt><trkpt lat="42.2219033" lon="14.5604867"><ele>59.4</ele><time>2026-04-18T07:48:32.874Z</time></trkpt><trkpt lat="42.2219833" lon="14.56049"><ele>57.60000000000001</ele><time>2026-04-18T07:48:35.875Z</time></trkpt><trkpt lat="42.2220517" lon="14.56049"><ele>55.800000000000004</ele><time>2026-04-18T07:48:40.874Z</time></trkpt><trkpt lat="42.2222183" lon="14.560465"><ele>54.0</ele><time>2026-04-18T07:49:06.875Z</time></trkpt><trkpt lat="42.2223167" lon="14.5604683"><ele>52.285714285714285</ele><time>2026-04-18T07:49:18.875Z</time></trkpt><trkpt lat="42.22239" lon="14.5604833"><ele>50.57142857142857</ele><time>2026-04-18T07:49:20.874Z</time></trkpt><trkpt lat="42.2224683" lon="14.5604967"><ele>48.85714285714286</ele><time>2026-04-18T07:49:22.875Z</time></trkpt><trkpt lat="42.2225367" lon="14.5605033"><ele>47.14285714285714</ele><time>2026-04-18T07:49:24.874Z</time></trkpt><trkpt lat="42.22261" lon="14.56051"><ele>45.42857142857143</ele><time>2026-04-18T07:49:26.874Z</time></trkpt><trkpt lat="42.222685" lon="14.5605183"><ele>43.714285714285715</ele><time>2026-04-18T07:49:29.875Z</time></trkpt><trkpt lat="42.2227583" lon="14.560545"><ele>42.0</ele><time>2026-04-18T07:49:32.875Z</time></trkpt><trkpt lat="42.2228267" lon="14.56053"><ele>42.0</ele><time>2026-04-18T07:49:38.875Z</time></trkpt><trkpt lat="42.2228933" lon="14.5605417"><ele>42.0</ele><time>2026-04-18T07:49:45.875Z</time></trkpt><trkpt lat="42.22296" lon="14.560515"><ele>42.0</ele><time>2026-04-18T07:49:54.875Z</time></trkpt><trkpt lat="42.2230617" lon="14.560475"><ele>42.0</ele><time>2026-04-18T07:50:21.875Z</time></trkpt><trkpt lat="42.2231333" lon="14.5604383"><ele>42.0</ele><time>2026-04-18T07:50:26.874Z</time></trkpt><trkpt lat="42.2232" lon="14.560405"><ele>42.0</ele><time>2026-04-18T07:50:30.875Z</time></trkpt><trkpt lat="42.2232683" lon="14.5603733"><ele>40.333333333333336</ele><time>2026-04-18T07:50:33.875Z</time></trkpt><trkpt lat="42.22333" lon="14.5603933"><ele>38.666666666666664</ele><time>2026-04-18T07:50:36.874Z</time></trkpt><trkpt lat="42.2233933" lon="14.5603833"><ele>37.0</ele><time>2026-04-18T07:50:39.875Z</time></trkpt><trkpt lat="42.2234467" lon="14.56047"><ele>35.33333333333333</ele><time>2026-04-18T07:50:50.874Z</time></trkpt><trkpt lat="42.2235317" lon="14.560565"><ele>33.666666666666664</ele><time>2026-04-18T07:50:56.875Z</time></trkpt><trkpt lat="42.2235933" lon="14.5606117"><ele>32.0</ele><time>2026-04-18T07:50:59.875Z</time></trkpt><trkpt lat="42.2236233" lon="14.5606883"><ele>32.0</ele><time>2026-04-18T07:51:03.875Z</time></trkpt><trkpt lat="42.2236583" lon="14.5607817"><ele>31.999999999999996</ele><time>2026-04-18T07:51:07.874Z</time></trkpt><trkpt lat="42.2236983" lon="14.5608617"><ele>32.0</ele><time>2026-04-18T07:51:10.875Z</time></trkpt><trkpt lat="42.223725" lon="14.56094"><ele>32.0</ele><time>2026-04-18T07:51:13.875Z</time></trkpt><trkpt lat="42.223765" lon="14.5610217"><ele>31.999999999999996</ele><time>2026-04-18T07:51:15.874Z</time></trkpt><trkpt lat="42.223805" lon="14.5611017"><ele>32.0</ele><time>2026-04-18T07:51:17.875Z</time></trkpt><trkpt lat="42.2237517" lon="14.5611833"><ele>32.0</ele><time>2026-04-18T07:51:22.874Z</time></trkpt><trkpt lat="42.22368" lon="14.5612333"><ele>30.333333333333332</ele><time>2026-04-18T07:51:25.875Z</time></trkpt><trkpt lat="42.2236" lon="14.5612733"><ele>28.666666666666664</ele><time>2026-04-18T07:51:28.874Z</time></trkpt><trkpt lat="42.2235383" lon="14.5613133"><ele>27.0</ele><time>2026-04-18T07:51:31.874Z</time></trkpt><trkpt lat="42.223495" lon="14.56138"><ele>25.333333333333332</ele><time>2026-04-18T07:51:34.875Z</time></trkpt><trkpt lat="42.223445" lon="14.5614567"><ele>23.666666666666664</ele><time>2026-04-18T07:51:37.874Z</time></trkpt><trkpt lat="42.2233667" lon="14.5615083"><ele>22.0</ele><time>2026-04-18T07:51:40.875Z</time></trkpt><trkpt lat="42.2232767" lon="14.561495"><ele>22.0</ele><time>2026-04-18T07:51:43.875Z</time></trkpt><trkpt lat="42.2232017" lon="14.561495"><ele>22.0</ele><time>2026-04-18T07:51:45.875Z</time></trkpt><trkpt lat="42.223125" lon="14.5615083"><ele>22.0</ele><time>2026-04-18T07:51:48.875Z</time></trkpt><trkpt lat="42.2230667" lon="14.5615433"><ele>22.0</ele><time>2026-04-18T07:51:52.875Z</time></trkpt><trkpt lat="42.2229767" lon="14.5615283"><ele>22.0</ele><time>2026-04-18T07:51:53.875Z</time></trkpt><trkpt lat="42.22291" lon="14.561545"><ele>22.0</ele><time>2026-04-18T07:51:54.874Z</time></trkpt><trkpt lat="42.22279" lon="14.561595"><ele>24.6</ele><time>2026-04-18T07:51:56.875Z</time></trkpt><trkpt lat="42.222695" lon="14.5616367"><ele>27.200000000000003</ele><time>2026-04-18T07:51:58.875Z</time></trkpt><trkpt lat="42.22262" lon="14.5617133"><ele>29.8</ele><time>2026-04-18T07:52:00.874Z</time></trkpt><trkpt lat="42.2225533" lon="14.5617967"><ele>32.4</ele><time>2026-04-18T07:52:02.875Z</time></trkpt><trkpt lat="42.2224983" lon="14.5619"><ele>35.0</ele><time>2026-04-18T07:52:04.875Z</time></trkpt><trkpt lat="42.2224533" lon="14.561995"><ele>34.0</ele><time>2026-04-18T07:52:06.875Z</time></trkpt><trkpt lat="42.2224017" lon="14.5620817"><ele>33.0</ele><time>2026-04-18T07:52:08.875Z</time></trkpt><trkpt lat="42.2223433" lon="14.5621233"><ele>32.0</ele><time>2026-04-18T07:52:10.875Z</time></trkpt><trkpt lat="42.2222783" lon="14.5621483"><ele>31.0</ele><time>2026-04-18T07:52:12.874Z</time></trkpt><trkpt lat="42.2222017" lon="14.5621883"><ele>29.999999999999996</ele><time>2026-04-18T07:52:15.874Z</time></trkpt><trkpt lat="42.22212" lon="14.5622217"><ele>29.0</ele><time>2026-04-18T07:52:17.875Z</time></trkpt><trkpt lat="42.2220483" lon="14.5622533"><ele>31.166666666666664</ele><time>2026-04-18T07:52:19.875Z</time></trkpt><trkpt lat="42.2219467" lon="14.5622817"><ele>33.33333333333333</ele><time>2026-04-18T07:52:21.875Z</time></trkpt><trkpt lat="42.221875" lon="14.56231"><ele>35.5</ele><time>2026-04-18T07:52:23.875Z</time></trkpt><trkpt lat="42.2217983" lon="14.5623467"><ele>37.666666666666664</ele><time>2026-04-18T07:52:25.875Z</time></trkpt><trkpt lat="42.2217117" lon="14.56237"><ele>39.833333333333336</ele><time>2026-04-18T07:52:26.874Z</time></trkpt><trkpt lat="42.2216667" lon="14.5624383"><ele>42.0</ele><time>2026-04-18T07:52:30.874Z</time></trkpt><trkpt lat="42.2216883" lon="14.5625183"><ele>42.0</ele><time>2026-04-18T07:52:32.875Z</time></trkpt><trkpt lat="42.2217233" lon="14.5626317"><ele>42.0</ele><time>2026-04-18T07:52:34.875Z</time></trkpt><trkpt lat="42.2217217" lon="14.562765"><ele>42.0</ele><time>2026-04-18T07:52:36.875Z</time></trkpt><trkpt lat="42.22169" lon="14.5628933"><ele>42.0</ele><time>2026-04-18T07:52:38.875Z</time></trkpt><trkpt lat="42.22168" lon="14.5629917"><ele>42.0</ele><time>2026-04-18T07:52:39.874Z</time></trkpt><trkpt lat="42.2216533" lon="14.56308"><ele>42.0</ele><time>2026-04-18T07:52:40.875Z</time></trkpt><trkpt lat="42.2216333" lon="14.5631767"><ele>41.166666666666664</ele><time>2026-04-18T07:52:41.875Z</time></trkpt><trkpt lat="42.2216217" lon="14.5632983"><ele>40.333333333333336</ele><time>2026-04-18T07:52:42.875Z</time></trkpt><trkpt lat="42.2216167" lon="14.5633933"><ele>39.5</ele><time>2026-04-18T07:52:43.874Z</time></trkpt><trkpt lat="42.2216117" lon="14.5635233"><ele>38.66666666666667</ele><time>2026-04-18T07:52:44.874Z</time></trkpt><trkpt lat="42.2216" lon="14.5636617"><ele>37.833333333333336</ele><time>2026-04-18T07:52:45.875Z</time></trkpt><trkpt lat="42.221585" lon="14.5637583"><ele>37.0</ele><time>2026-04-18T07:52:46.874Z</time></trkpt><trkpt lat="42.221575" lon="14.5638483"><ele>36.16666666666667</ele><time>2026-04-18T07:52:47.874Z</time></trkpt><trkpt lat="42.2215483" lon="14.5639683"><ele>35.333333333333336</ele><time>2026-04-18T07:52:49.875Z</time></trkpt><trkpt lat="42.2215167" lon="14.5640567"><ele>34.5</ele><time>2026-04-18T07:52:51.875Z</time></trkpt><trkpt lat="42.2214683" lon="14.5641533"><ele>33.666666666666664</ele><time>2026-04-18T07:52:54.875Z</time></trkpt><trkpt lat="42.2214433" lon="14.5642333"><ele>32.83333333333333</ele><time>2026-04-18T07:52:57.875Z</time></trkpt><trkpt lat="42.2214083" lon="14.5643317"><ele>32.0</ele><time>2026-04-18T07:53:00.874Z</time></trkpt><trkpt lat="42.2213733" lon="14.564445"><ele>33.57142857142857</ele><time>2026-04-18T07:53:03.875Z</time></trkpt><trkpt lat="42.2213417" lon="14.56453"><ele>35.14285714285714</ele><time>2026-04-18T07:53:05.874Z</time></trkpt><trkpt lat="42.2212983" lon="14.5646367"><ele>36.714285714285715</ele><time>2026-04-18T07:53:08.874Z</time></trkpt><trkpt lat="42.2212683" lon="14.564745"><ele>38.285714285714285</ele><time>2026-04-18T07:53:12.875Z</time></trkpt><trkpt lat="42.22121" lon="14.5647783"><ele>39.85714285714286</ele><time>2026-04-18T07:53:15.875Z</time></trkpt><trkpt lat="42.2211367" lon="14.5647833"><ele>41.42857142857143</ele><time>2026-04-18T07:53:18.874Z</time></trkpt><trkpt lat="42.2210767" lon="14.564755"><ele>43.0</ele><time>2026-04-18T07:53:21.875Z</time></trkpt><trkpt lat="42.22101" lon="14.56472"><ele>43.0</ele><time>2026-04-18T07:53:23.875Z</time></trkpt><trkpt lat="42.220925" lon="14.5646917"><ele>43.0</ele><time>2026-04-18T07:53:25.875Z</time></trkpt><trkpt lat="42.2208667" lon="14.5646533"><ele>43.0</ele><time>2026-04-18T07:53:27.875Z</time></trkpt><trkpt lat="42.2207917" lon="14.56462"><ele>43.0</ele><time>2026-04-18T07:53:29.875Z</time></trkpt><trkpt lat="42.2207083" lon="14.5645733"><ele>43.0</ele><time>2026-04-18T07:53:31.875Z</time></trkpt><trkpt lat="42.220635" lon="14.5645267"><ele>43.0</ele><time>2026-04-18T07:53:33.875Z</time></trkpt><trkpt lat="42.220555" lon="14.5644717"><ele>45.5</ele><time>2026-04-18T07:53:35.875Z</time></trkpt><trkpt lat="42.22047" lon="14.5644333"><ele>48.0</ele><time>2026-04-18T07:53:36.874Z</time></trkpt><trkpt lat="42.2204167" lon="14.5643633"><ele>50.5</ele><time>2026-04-18T07:53:38.875Z</time></trkpt><trkpt lat="42.2203667" lon="14.5642767"><ele>53.0</ele><time>2026-04-18T07:53:41.875Z</time></trkpt><trkpt lat="42.2203367" lon="14.564165"><ele>55.49999999999999</ele><time>2026-04-18T07:53:44.875Z</time></trkpt><trkpt lat="42.22031" lon="14.5640417"><ele>58.0</ele><time>2026-04-18T07:53:47.875Z</time></trkpt><trkpt lat="42.2202967" lon="14.5639317"><ele>57.99999999999999</ele><time>2026-04-18T07:53:49.875Z</time></trkpt><trkpt lat="42.2203133" lon="14.5638283"><ele>58.0</ele><time>2026-04-18T07:53:52.875Z</time></trkpt><trkpt lat="42.22031" lon="14.56371"><ele>58.0</ele><time>2026-04-18T07:53:55.874Z</time></trkpt><trkpt lat="42.2203117" lon="14.5635833"><ele>58.0</ele><time>2026-04-18T07:53:58.875Z</time></trkpt><trkpt lat="42.2203133" lon="14.5634733"><ele>57.99999999999999</ele><time>2026-04-18T07:54:00.875Z</time></trkpt><trkpt lat="42.2202683" lon="14.5633967"><ele>58.0</ele><time>2026-04-18T07:54:03.874Z</time></trkpt><trkpt lat="42.2202" lon="14.563365"><ele>57.99999999999999</ele><time>2026-04-18T07:54:09.875Z</time></trkpt><trkpt lat="42.2201433" lon="14.5634117"><ele>58.0</ele><time>2026-04-18T07:54:13.875Z</time></trkpt><trkpt lat="42.2200783" lon="14.5634717"><ele>58.0</ele><time>2026-04-18T07:54:18.874Z</time></trkpt><trkpt lat="42.2200317" lon="14.5635467"><ele>58.0</ele><time>2026-04-18T07:54:21.874Z</time></trkpt><trkpt lat="42.2199917" lon="14.56365"><ele>57.99999999999999</ele><time>2026-04-18T07:54:24.874Z</time></trkpt><trkpt lat="42.2199617" lon="14.5637333"><ele>58.0</ele><time>2026-04-18T07:54:27.875Z</time></trkpt><trkpt lat="42.2199333" lon="14.5638467"><ele>57.99999999999999</ele><time>2026-04-18T07:54:30.874Z</time></trkpt><trkpt lat="42.219905" lon="14.56393"><ele>58.0</ele><time>2026-04-18T07:54:32.875Z</time></trkpt><trkpt lat="42.2198683" lon="14.5640233"><ele>58.0</ele><time>2026-04-18T07:54:34.875Z</time></trkpt><trkpt lat="42.2198283" lon="14.5641267"><ele>58.0</ele><time>2026-04-18T07:54:36.874Z</time></trkpt><trkpt lat="42.2197917" lon="14.5642517"><ele>57.99999999999999</ele><time>2026-04-18T07:54:38.875Z</time></trkpt><trkpt lat="42.2197467" lon="14.564345"><ele>58.0</ele><time>2026-04-18T07:54:40.874Z</time></trkpt><trkpt lat="42.219695" lon="14.564435"><ele>58.85714285714286</ele><time>2026-04-18T07:54:42.875Z</time></trkpt><trkpt lat="42.2196417" lon="14.5645267"><ele>59.714285714285715</ele><time>2026-04-18T07:54:44.875Z</time></trkpt><trkpt lat="42.2195983" lon="14.5646083"><ele>60.57142857142857</ele><time>2026-04-18T07:54:46.874Z</time></trkpt><trkpt lat="42.2195633" lon="14.5646917"><ele>61.42857142857143</ele><time>2026-04-18T07:54:48.874Z</time></trkpt><trkpt lat="42.219535" lon="14.5647767"><ele>62.28571428571428</ele><time>2026-04-18T07:54:50.875Z</time></trkpt><trkpt lat="42.2195117" lon="14.564865"><ele>63.14285714285714</ele><time>2026-04-18T07:54:52.875Z</time></trkpt><trkpt lat="42.2194767" lon="14.5649417"><ele>64.0</ele><time>2026-04-18T07:54:54.874Z</time></trkpt><trkpt lat="42.2194317" lon="14.5650083"><ele>63.99999999999999</ele><time>2026-04-18T07:54:56.875Z</time></trkpt><trkpt lat="42.2193883" lon="14.56512"><ele>64.0</ele><time>2026-04-18T07:54:59.874Z</time></trkpt><trkpt lat="42.2193583" lon="14.5652"><ele>64.0</ele><time>2026-04-18T07:55:01.875Z</time></trkpt><trkpt lat="42.21935" lon="14.5653"><ele>64.0</ele><time>2026-04-18T07:55:03.874Z</time></trkpt><trkpt lat="42.2193317" lon="14.565385"><ele>63.99999999999999</ele><time>2026-04-18T07:55:05.875Z</time></trkpt><trkpt lat="42.2192983" lon="14.5654833"><ele>64.0</ele><time>2026-04-18T07:55:08.874Z</time></trkpt><trkpt lat="42.2192583" lon="14.5655733"><ele>63.166666666666664</ele><time>2026-04-18T07:55:11.874Z</time></trkpt><trkpt lat="42.2192183" lon="14.5656417"><ele>62.33333333333333</ele><time>2026-04-18T07:55:14.874Z</time></trkpt><trkpt lat="42.2191767" lon="14.5657217"><ele>61.5</ele><time>2026-04-18T07:55:17.874Z</time></trkpt><trkpt lat="42.219135" lon="14.5658067"><ele>60.66666666666667</ele><time>2026-04-18T07:55:20.875Z</time></trkpt><trkpt lat="42.2190783" lon="14.56587"><ele>59.833333333333336</ele><time>2026-04-18T07:55:22.875Z</time></trkpt><trkpt lat="42.2190067" lon="14.565965"><ele>59.0</ele><time>2026-04-18T07:55:25.874Z</time></trkpt><trkpt lat="42.2189567" lon="14.5660817"><ele>61.0</ele><time>2026-04-18T07:55:27.874Z</time></trkpt><trkpt lat="42.2189017" lon="14.566205"><ele>63.00000000000001</ele><time>2026-04-18T07:55:29.875Z</time></trkpt><trkpt lat="42.218865" lon="14.56628"><ele>65.0</ele><time>2026-04-18T07:55:30.875Z</time></trkpt><trkpt lat="42.2188367" lon="14.566365"><ele>67.0</ele><time>2026-04-18T07:55:31.875Z</time></trkpt><trkpt lat="42.218785" lon="14.5664983"><ele>69.0</ele><time>2026-04-18T07:55:33.875Z</time></trkpt><trkpt lat="42.218705" lon="14.56657"><ele>69.0</ele><time>2026-04-18T07:55:35.874Z</time></trkpt><trkpt lat="42.2186583" lon="14.5666283"><ele>69.0</ele><time>2026-04-18T07:55:36.875Z</time></trkpt><trkpt lat="42.2185733" lon="14.5667183"><ele>69.0</ele><time>2026-04-18T07:55:38.875Z</time></trkpt><trkpt lat="42.2184883" lon="14.5668283"><ele>69.0</ele><time>2026-04-18T07:55:40.875Z</time></trkpt><trkpt lat="42.2184483" lon="14.5669117"><ele>69.0</ele><time>2026-04-18T07:55:41.874Z</time></trkpt><trkpt lat="42.218405" lon="14.5669933"><ele>69.0</ele><time>2026-04-18T07:55:42.875Z</time></trkpt><trkpt lat="42.2183667" lon="14.5670767"><ele>66.60000000000001</ele><time>2026-04-18T07:55:43.875Z</time></trkpt><trkpt lat="42.218335" lon="14.56716"><ele>64.2</ele><time>2026-04-18T07:55:44.875Z</time></trkpt><trkpt lat="42.2182833" lon="14.5673117"><ele>61.800000000000004</ele><time>2026-04-18T07:55:46.874Z</time></trkpt><trkpt lat="42.2182733" lon="14.5674017"><ele>59.400000000000006</ele><time>2026-04-18T07:55:47.875Z</time></trkpt><trkpt lat="42.218255" lon="14.5675417"><ele>57.0</ele><time>2026-04-18T07:55:49.875Z</time></trkpt><trkpt lat="42.21824" lon="14.56767"><ele>57.0</ele><time>2026-04-18T07:55:51.875Z</time></trkpt><trkpt lat="42.21822" lon="14.5678133"><ele>57.0</ele><time>2026-04-18T07:55:53.874Z</time></trkpt><trkpt lat="42.2182083" lon="14.567945"><ele>57.0</ele><time>2026-04-18T07:55:55.876Z</time></trkpt><trkpt lat="42.218195" lon="14.568075"><ele>57.0</ele><time>2026-04-18T07:55:57.876Z</time></trkpt><trkpt lat="42.2181733" lon="14.568185"><ele>57.0</ele><time>2026-04-18T07:55:59.876Z</time></trkpt><trkpt lat="42.2181367" lon="14.5683083"><ele>57.8</ele><time>2026-04-18T07:56:01.876Z</time></trkpt><trkpt lat="42.2180617" lon="14.568415"><ele>58.6</ele><time>2026-04-18T07:56:03.875Z</time></trkpt><trkpt lat="42.2179817" lon="14.5685167"><ele>59.39999999999999</ele><time>2026-04-18T07:56:05.876Z</time></trkpt><trkpt lat="42.217925" lon="14.5686317"><ele>60.199999999999996</ele><time>2026-04-18T07:56:07.875Z</time></trkpt><trkpt lat="42.2178517" lon="14.5687183"><ele>61.0</ele><time>2026-04-18T07:56:09.875Z</time></trkpt><trkpt lat="42.2178033" lon="14.5687917"><ele>60.99999999999999</ele><time>2026-04-18T07:56:11.876Z</time></trkpt><trkpt lat="42.2177767" lon="14.5688733"><ele>61.0</ele><time>2026-04-18T07:56:13.876Z</time></trkpt><trkpt lat="42.21776" lon="14.56897"><ele>60.99999999999999</ele><time>2026-04-18T07:56:15.876Z</time></trkpt><trkpt lat="42.2177367" lon="14.5690583"><ele>60.99999999999999</ele><time>2026-04-18T07:56:17.876Z</time></trkpt><trkpt lat="42.217695" lon="14.569155"><ele>61.0</ele><time>2026-04-18T07:56:20.876Z</time></trkpt><trkpt lat="42.21765" lon="14.56922"><ele>60.99999999999999</ele><time>2026-04-18T07:56:22.876Z</time></trkpt><trkpt lat="42.2175983" lon="14.5692867"><ele>60.99999999999999</ele><time>2026-04-18T07:56:24.876Z</time></trkpt><trkpt lat="42.217535" lon="14.569375"><ele>61.0</ele><time>2026-04-18T07:56:26.876Z</time></trkpt><trkpt lat="42.2174733" lon="14.5694733"><ele>60.99999999999999</ele><time>2026-04-18T07:56:28.876Z</time></trkpt><trkpt lat="42.21741" lon="14.5695717"><ele>60.99999999999999</ele><time>2026-04-18T07:56:30.875Z</time></trkpt><trkpt lat="42.21734" lon="14.569645"><ele>61.0</ele><time>2026-04-18T07:56:32.876Z</time></trkpt><trkpt lat="42.2172767" lon="14.5697367"><ele>61.0</ele><time>2026-04-18T07:56:34.876Z</time></trkpt><trkpt lat="42.2172217" lon="14.5698717"><ele>61.49999999999999</ele><time>2026-04-18T07:56:36.876Z</time></trkpt><trkpt lat="42.217185" lon="14.569945"><ele>62.0</ele><time>2026-04-18T07:56:37.876Z</time></trkpt><trkpt lat="42.21715" lon="14.5700233"><ele>62.5</ele><time>2026-04-18T07:56:38.876Z</time></trkpt><trkpt lat="42.2171183" lon="14.5700983"><ele>63.0</ele><time>2026-04-18T07:56:39.876Z</time></trkpt><trkpt lat="42.2170417" lon="14.5702417"><ele>63.49999999999999</ele><time>2026-04-18T07:56:41.876Z</time></trkpt><trkpt lat="42.2169767" lon="14.5703767"><ele>64.0</ele><time>2026-04-18T07:56:43.876Z</time></trkpt><trkpt lat="42.216935" lon="14.5704533"><ele>63.99999999999999</ele><time>2026-04-18T07:56:44.875Z</time></trkpt><trkpt lat="42.2168833" lon="14.5705517"><ele>64.0</ele><time>2026-04-18T07:56:45.876Z</time></trkpt><trkpt lat="42.216855" lon="14.5706283"><ele>64.0</ele><time>2026-04-18T07:56:46.875Z</time></trkpt><trkpt lat="42.216825" lon="14.5707633"><ele>64.0</ele><time>2026-04-18T07:56:48.875Z</time></trkpt><trkpt lat="42.2168033" lon="14.5708783"><ele>63.99999999999999</ele><time>2026-04-18T07:56:50.875Z</time></trkpt><trkpt lat="42.21679" lon="14.571"><ele>64.0</ele><time>2026-04-18T07:56:52.876Z</time></trkpt><trkpt lat="42.2167733" lon="14.5711333"><ele>63.2</ele><time>2026-04-18T07:56:54.875Z</time></trkpt><trkpt lat="42.2167633" lon="14.5712633"><ele>62.400000000000006</ele><time>2026-04-18T07:56:56.876Z</time></trkpt><trkpt lat="42.2167433" lon="14.571405"><ele>61.6</ele><time>2026-04-18T07:56:58.876Z</time></trkpt><trkpt lat="42.2167267" lon="14.5715383"><ele>60.8</ele><time>2026-04-18T07:57:00.875Z</time></trkpt><trkpt lat="42.216715" lon="14.57168"><ele>60.0</ele><time>2026-04-18T07:57:02.876Z</time></trkpt><trkpt lat="42.2167217" lon="14.5718333"><ele>60.0</ele><time>2026-04-18T07:57:04.876Z</time></trkpt><trkpt lat="42.21673" lon="14.5719883"><ele>60.0</ele><time>2026-04-18T07:57:06.876Z</time></trkpt><trkpt lat="42.2167333" lon="14.5720767"><ele>60.0</ele><time>2026-04-18T07:57:07.876Z</time></trkpt><trkpt lat="42.21673" lon="14.5721683"><ele>60.0</ele><time>2026-04-18T07:57:08.875Z</time></trkpt><trkpt lat="42.216725" lon="14.572255"><ele>60.0</ele><time>2026-04-18T07:57:09.876Z</time></trkpt><trkpt lat="42.216715" lon="14.5724033"><ele>60.0</ele><time>2026-04-18T07:57:11.876Z</time></trkpt><trkpt lat="42.2167017" lon="14.5725267"><ele>58.833333333333336</ele><time>2026-04-18T07:57:13.875Z</time></trkpt><trkpt lat="42.2166717" lon="14.57262"><ele>57.66666666666667</ele><time>2026-04-18T07:57:15.876Z</time></trkpt><trkpt lat="42.21663" lon="14.5727133"><ele>56.5</ele><time>2026-04-18T07:57:18.876Z</time></trkpt><trkpt lat="42.21659" lon="14.5728117"><ele>55.333333333333336</ele><time>2026-04-18T07:57:21.875Z</time></trkpt><trkpt lat="42.216535" lon="14.5729"><ele>54.16666666666667</ele><time>2026-04-18T07:57:24.875Z</time></trkpt><trkpt lat="42.2164867" lon="14.5729633"><ele>53.0</ele><time>2026-04-18T07:57:26.875Z</time></trkpt><trkpt lat="42.2164333" lon="14.5730133"><ele>57.0</ele><time>2026-04-18T07:57:28.876Z</time></trkpt><trkpt lat="42.21635" lon="14.57308"><ele>61.0</ele><time>2026-04-18T07:57:31.876Z</time></trkpt><trkpt lat="42.2162817" lon="14.57312"><ele>65.0</ele><time>2026-04-18T07:57:33.875Z</time></trkpt><trkpt lat="42.2162" lon="14.57319"><ele>69.0</ele><time>2026-04-18T07:57:35.876Z</time></trkpt><trkpt lat="42.2161317" lon="14.573305"><ele>73.0</ele><time>2026-04-18T07:57:37.876Z</time></trkpt><trkpt lat="42.21607" lon="14.573455"><ele>73.0</ele><time>2026-04-18T07:57:39.875Z</time></trkpt><trkpt lat="42.2160483" lon="14.57354"><ele>73.0</ele><time>2026-04-18T07:57:40.876Z</time></trkpt><trkpt lat="42.2160233" lon="14.5736217"><ele>73.0</ele><time>2026-04-18T07:57:41.875Z</time></trkpt><trkpt lat="42.2159967" lon="14.573715"><ele>73.0</ele><time>2026-04-18T07:57:42.876Z</time></trkpt><trkpt lat="42.215975" lon="14.5738017"><ele>73.0</ele><time>2026-04-18T07:57:43.875Z</time></trkpt><trkpt lat="42.2159567" lon="14.5739417"><ele>73.0</ele><time>2026-04-18T07:57:45.876Z</time></trkpt><trkpt lat="42.215935" lon="14.5740433"><ele>70.4</ele><time>2026-04-18T07:57:47.875Z</time></trkpt><trkpt lat="42.2159183" lon="14.5741383"><ele>67.8</ele><time>2026-04-18T07:57:49.875Z</time></trkpt><trkpt lat="42.2158883" lon="14.5742567"><ele>65.2</ele><time>2026-04-18T07:57:51.876Z</time></trkpt><trkpt lat="42.21584" lon="14.574395"><ele>62.6</ele><time>2026-04-18T07:57:53.876Z</time></trkpt><trkpt lat="42.2158017" lon="14.5745283"><ele>60.0</ele><time>2026-04-18T07:57:55.875Z</time></trkpt><trkpt lat="42.2157517" lon="14.57466"><ele>58.166666666666664</ele><time>2026-04-18T07:57:57.876Z</time></trkpt><trkpt lat="42.2157083" lon="14.57479"><ele>56.33333333333333</ele><time>2026-04-18T07:57:59.876Z</time></trkpt><trkpt lat="42.21565" lon="14.5749183"><ele>54.5</ele><time>2026-04-18T07:58:01.876Z</time></trkpt><trkpt lat="42.2156033" lon="14.5749933"><ele>52.666666666666664</ele><time>2026-04-18T07:58:02.876Z</time></trkpt><trkpt lat="42.2155567" lon="14.5750633"><ele>50.83333333333333</ele><time>2026-04-18T07:58:03.876Z</time></trkpt><trkpt lat="42.2155117" lon="14.5751333"><ele>49.0</ele><time>2026-04-18T07:58:04.875Z</time></trkpt><trkpt lat="42.21547" lon="14.5751983"><ele>51.5</ele><time>2026-04-18T07:58:05.875Z</time></trkpt><trkpt lat="42.2153767" lon="14.57532"><ele>54.0</ele><time>2026-04-18T07:58:07.876Z</time></trkpt><trkpt lat="42.215275" lon="14.575395"><ele>56.5</ele><time>2026-04-18T07:58:09.876Z</time></trkpt><trkpt lat="42.2151983" lon="14.5754917"><ele>59.0</ele><time>2026-04-18T07:58:11.876Z</time></trkpt><trkpt lat="42.2151617" lon="14.57562"><ele>59.0</ele><time>2026-04-18T07:58:13.875Z</time></trkpt><trkpt lat="42.215105" lon="14.5757617"><ele>59.0</ele><time>2026-04-18T07:58:15.875Z</time></trkpt><trkpt lat="42.2150617" lon="14.575915"><ele>59.0</ele><time>2026-04-18T07:58:17.876Z</time></trkpt><trkpt lat="42.2150417" lon="14.57608"><ele>59.0</ele><time>2026-04-18T07:58:19.876Z</time></trkpt><trkpt lat="42.215" lon="14.576235"><ele>56.800000000000004</ele><time>2026-04-18T07:58:21.876Z</time></trkpt><trkpt lat="42.2149517" lon="14.57636"><ele>54.60000000000001</ele><time>2026-04-18T07:58:23.876Z</time></trkpt><trkpt lat="42.2149183" lon="14.5764583"><ele>52.4</ele><time>2026-04-18T07:58:25.875Z</time></trkpt><trkpt lat="42.2149117" lon="14.57655"><ele>50.2</ele><time>2026-04-18T07:58:27.876Z</time></trkpt><trkpt lat="42.2148917" lon="14.5766717"><ele>48.0</ele><time>2026-04-18T07:58:30.875Z</time></trkpt><trkpt lat="42.2147383" lon="14.5768333"><ele>48.0</ele><time>2026-04-18T07:59:36.188Z</time></trkpt><trkpt lat="42.21491" lon="14.5769217"><ele>48.0</ele><time>2026-04-18T07:59:37.374Z</time></trkpt><trkpt lat="42.21489" lon="14.5770117"><ele>48.0</ele><time>2026-04-18T07:59:39.374Z</time></trkpt><trkpt lat="42.2148433" lon="14.5771183"><ele>48.0</ele><time>2026-04-18T07:59:41.873Z</time></trkpt><trkpt lat="42.21481" lon="14.5772483"><ele>48.0</ele><time>2026-04-18T07:59:43.873Z</time></trkpt><trkpt lat="42.214785" lon="14.5773783"><ele>50.0</ele><time>2026-04-18T07:59:45.874Z</time></trkpt><trkpt lat="42.2147833" lon="14.5774733"><ele>52.0</ele><time>2026-04-18T07:59:46.874Z</time></trkpt><trkpt lat="42.2147633" lon="14.5776583"><ele>54.0</ele><time>2026-04-18T07:59:48.873Z</time></trkpt><trkpt lat="42.2147483" lon="14.5777883"><ele>56.0</ele><time>2026-04-18T07:59:49.873Z</time></trkpt><trkpt lat="42.2147417" lon="14.577915"><ele>58.0</ele><time>2026-04-18T07:59:50.874Z</time></trkpt><trkpt lat="42.214715" lon="14.5780317"><ele>57.99999999999999</ele><time>2026-04-18T07:59:51.874Z</time></trkpt><trkpt lat="42.21468" lon="14.5781233"><ele>58.0</ele><time>2026-04-18T07:59:52.874Z</time></trkpt><trkpt lat="42.2146317" lon="14.5781883"><ele>58.0</ele><time>2026-04-18T07:59:53.873Z</time></trkpt><trkpt lat="42.21456" lon="14.578295"><ele>58.0</ele><time>2026-04-18T07:59:55.874Z</time></trkpt><trkpt lat="42.2145133" lon="14.5783583"><ele>57.99999999999999</ele><time>2026-04-18T07:59:57.874Z</time></trkpt><trkpt lat="42.2144683" lon="14.57843"><ele>58.0</ele><time>2026-04-18T07:59:59.874Z</time></trkpt><trkpt lat="42.2144367" lon="14.57855"><ele>56.2</ele><time>2026-04-18T08:00:01.873Z</time></trkpt><trkpt lat="42.2143883" lon="14.5787033"><ele>54.4</ele><time>2026-04-18T08:00:03.874Z</time></trkpt><trkpt lat="42.2143367" lon="14.5788317"><ele>52.6</ele><time>2026-04-18T08:00:05.874Z</time></trkpt><trkpt lat="42.2142883" lon="14.5789383"><ele>50.800000000000004</ele><time>2026-04-18T08:00:07.874Z</time></trkpt><trkpt lat="42.2142533" lon="14.57903"><ele>49.0</ele><time>2026-04-18T08:00:09.873Z</time></trkpt><trkpt lat="42.2142233" lon="14.5791133"><ele>49.0</ele><time>2026-04-18T08:00:11.873Z</time></trkpt><trkpt lat="42.2141783" lon="14.57922"><ele>49.0</ele><time>2026-04-18T08:00:14.873Z</time></trkpt><trkpt lat="42.2141667" lon="14.5793333"><ele>49.0</ele><time>2026-04-18T08:00:16.873Z</time></trkpt><trkpt lat="42.21415" lon="14.57948"><ele>49.0</ele><time>2026-04-18T08:00:18.873Z</time></trkpt><trkpt lat="42.214125" lon="14.5796183"><ele>49.0</ele><time>2026-04-18T08:00:20.873Z</time></trkpt><trkpt lat="42.2140967" lon="14.5797667"><ele>48.99999999999999</ele><time>2026-04-18T08:00:22.874Z</time></trkpt><trkpt lat="42.21407" lon="14.5799367"><ele>49.0</ele><time>2026-04-18T08:00:24.874Z</time></trkpt><trkpt lat="42.21404" lon="14.5800167"><ele>49.0</ele><time>2026-04-18T08:00:25.874Z</time></trkpt><trkpt lat="42.2140133" lon="14.5801033"><ele>49.0</ele><time>2026-04-18T08:00:26.874Z</time></trkpt><trkpt lat="42.2139783" lon="14.580185"><ele>48.99999999999999</ele><time>2026-04-18T08:00:27.873Z</time></trkpt><trkpt lat="42.2139433" lon="14.580265"><ele>49.0</ele><time>2026-04-18T08:00:28.874Z</time></trkpt><trkpt lat="42.2139217" lon="14.58035"><ele>48.99999999999999</ele><time>2026-04-18T08:00:29.874Z</time></trkpt><trkpt lat="42.2139033" lon="14.580435"><ele>49.0</ele><time>2026-04-18T08:00:30.873Z</time></trkpt><trkpt lat="42.213885" lon="14.58052"><ele>49.0</ele><time>2026-04-18T08:00:31.874Z</time></trkpt><trkpt lat="42.2138717" lon="14.5806033"><ele>49.0</ele><time>2026-04-18T08:00:32.874Z</time></trkpt><trkpt lat="42.2138583" lon="14.5807433"><ele>48.99999999999999</ele><time>2026-04-18T08:00:34.873Z</time></trkpt><trkpt lat="42.2138567" lon="14.5808433"><ele>49.0</ele><time>2026-04-18T08:00:36.874Z</time></trkpt><trkpt lat="42.2137517" lon="14.5809767"><ele>49.0</ele><time>2026-04-18T08:01:03.874Z</time></trkpt><trkpt lat="42.2135367" lon="14.58088"><ele>49.0</ele><time>2026-04-18T08:02:08.641Z</time></trkpt><trkpt lat="42.2136533" lon="14.5808817"><ele>49.0</ele><time>2026-04-18T08:02:14.874Z</time></trkpt><trkpt lat="42.2137167" lon="14.5809017"><ele>49.0</ele><time>2026-04-18T08:02:20.874Z</time></trkpt><trkpt lat="42.213745" lon="14.581015"><ele>48.99999999999999</ele><time>2026-04-18T08:03:08.873Z</time></trkpt><trkpt lat="42.2137367" lon="14.5811167"><ele>49.0</ele><time>2026-04-18T08:03:11.874Z</time></trkpt><trkpt lat="42.2137333" lon="14.58121"><ele>49.0</ele><time>2026-04-18T08:03:13.873Z</time></trkpt><trkpt lat="42.2137283" lon="14.5813183"><ele>49.0</ele><time>2026-04-18T08:03:15.873Z</time></trkpt><trkpt lat="42.2137367" lon="14.581415"><ele>48.99999999999999</ele><time>2026-04-18T08:03:17.874Z</time></trkpt><trkpt lat="42.21379" lon="14.5814667"><ele>49.0</ele><time>2026-04-18T08:03:19.874Z</time></trkpt><trkpt lat="42.21384" lon="14.5815667"><ele>46.800000000000004</ele><time>2026-04-18T08:03:21.873Z</time></trkpt><trkpt lat="42.2139183" lon="14.5816483"><ele>44.6</ele><time>2026-04-18T08:03:23.874Z</time></trkpt><trkpt lat="42.2140017" lon="14.5817383"><ele>42.4</ele><time>2026-04-18T08:03:25.873Z</time></trkpt><trkpt lat="42.2140833" lon="14.5818283"><ele>40.2</ele><time>2026-04-18T08:03:27.874Z</time></trkpt><trkpt lat="42.2141533" lon="14.5819033"><ele>38.0</ele><time>2026-04-18T08:03:29.873Z</time></trkpt><trkpt lat="42.214175" lon="14.581985"><ele>34.83333333333333</ele><time>2026-04-18T08:03:32.874Z</time></trkpt><trkpt lat="42.2141533" lon="14.5820967"><ele>31.666666666666664</ele><time>2026-04-18T08:03:34.874Z</time></trkpt><trkpt lat="42.2141233" lon="14.582195"><ele>28.5</ele><time>2026-04-18T08:03:36.874Z</time></trkpt><trkpt lat="42.2141083" lon="14.5823067"><ele>25.333333333333332</ele><time>2026-04-18T08:03:38.873Z</time></trkpt><trkpt lat="42.2141333" lon="14.582415"><ele>22.166666666666664</ele><time>2026-04-18T08:03:40.874Z</time></trkpt><trkpt lat="42.2142117" lon="14.5823833"><ele>19.0</ele><time>2026-04-18T08:03:42.874Z</time></trkpt><trkpt lat="42.2142817" lon="14.5823233"><ele>19.0</ele><time>2026-04-18T08:03:44.874Z</time></trkpt><trkpt lat="42.21437" lon="14.5823167"><ele>19.0</ele><time>2026-04-18T08:03:46.873Z</time></trkpt><trkpt lat="42.21444" lon="14.58238"><ele>19.0</ele><time>2026-04-18T08:03:48.874Z</time></trkpt><trkpt lat="42.214505" lon="14.5824617"><ele>19.0</ele><time>2026-04-18T08:03:50.873Z</time></trkpt><trkpt lat="42.2145783" lon="14.5825417"><ele>19.0</ele><time>2026-04-18T08:03:52.874Z</time></trkpt><trkpt lat="42.21466" lon="14.5825667"><ele>19.0</ele><time>2026-04-18T08:03:54.874Z</time></trkpt><trkpt lat="42.21474" lon="14.5825517"><ele>19.0</ele><time>2026-04-18T08:03:56.873Z</time></trkpt><trkpt lat="42.2148" lon="14.582525"><ele>19.0</ele><time>2026-04-18T08:03:58.874Z</time></trkpt><trkpt lat="42.2147583" lon="14.5826117"><ele>19.0</ele><time>2026-04-18T08:04:09.873Z</time></trkpt><trkpt lat="42.21473" lon="14.58269"><ele>19.0</ele><time>2026-04-18T08:04:11.874Z</time></trkpt><trkpt lat="42.2146933" lon="14.5827733"><ele>19.0</ele><time>2026-04-18T08:04:13.873Z</time></trkpt><trkpt lat="42.2146517" lon="14.5828617"><ele>19.0</ele><time>2026-04-18T08:04:15.874Z</time></trkpt><trkpt lat="42.2146183" lon="14.5829417"><ele>19.0</ele><time>2026-04-18T08:04:17.874Z</time></trkpt><trkpt lat="42.2145833" lon="14.5830233"><ele>18.333333333333332</ele><time>2026-04-18T08:04:19.874Z</time></trkpt><trkpt lat="42.2145367" lon="14.5831"><ele>17.666666666666664</ele><time>2026-04-18T08:04:21.873Z</time></trkpt><trkpt lat="42.2144917" lon="14.5831783"><ele>17.0</ele><time>2026-04-18T08:04:23.874Z</time></trkpt><trkpt lat="42.214445" lon="14.583255"><ele>16.333333333333332</ele><time>2026-04-18T08:04:25.873Z</time></trkpt><trkpt lat="42.2144" lon="14.5833283"><ele>15.666666666666666</ele><time>2026-04-18T08:04:27.874Z</time></trkpt><trkpt lat="42.21435" lon="14.583425"><ele>15.0</ele><time>2026-04-18T08:04:29.874Z</time></trkpt><trkpt lat="42.2142833" lon="14.58355"><ele>15.0</ele><time>2026-04-18T08:04:31.874Z</time></trkpt><trkpt lat="42.2142167" lon="14.5836783"><ele>15.0</ele><time>2026-04-18T08:04:33.874Z</time></trkpt><trkpt lat="42.2141417" lon="14.5837883"><ele>15.0</ele><time>2026-04-18T08:04:35.874Z</time></trkpt><trkpt lat="42.2140667" lon="14.5838933"><ele>15.0</ele><time>2026-04-18T08:04:37.874Z</time></trkpt><trkpt lat="42.213995" lon="14.5839883"><ele>15.0</ele><time>2026-04-18T08:04:39.874Z</time></trkpt><trkpt lat="42.21392" lon="14.5840933"><ele>14.4</ele><time>2026-04-18T08:04:41.874Z</time></trkpt><trkpt lat="42.21385" lon="14.5841983"><ele>13.8</ele><time>2026-04-18T08:04:43.873Z</time></trkpt><trkpt lat="42.2137833" lon="14.584305"><ele>13.2</ele><time>2026-04-18T08:04:45.873Z</time></trkpt><trkpt lat="42.21372" lon="14.5844133"><ele>12.6</ele><time>2026-04-18T08:04:47.873Z</time></trkpt><trkpt lat="42.2136533" lon="14.58452"><ele>12.0</ele><time>2026-04-18T08:04:49.874Z</time></trkpt><trkpt lat="42.21359" lon="14.5846317"><ele>12.0</ele><time>2026-04-18T08:04:51.874Z</time></trkpt><trkpt lat="42.2135167" lon="14.5847483"><ele>12.0</ele><time>2026-04-18T08:04:53.873Z</time></trkpt><trkpt lat="42.2134483" lon="14.5848617"><ele>12.0</ele><time>2026-04-18T08:04:55.874Z</time></trkpt><trkpt lat="42.213385" lon="14.5849817"><ele>12.0</ele><time>2026-04-18T08:04:57.873Z</time></trkpt><trkpt lat="42.2133233" lon="14.5851"><ele>12.0</ele><time>2026-04-18T08:04:59.874Z</time></trkpt><trkpt lat="42.21326" lon="14.5852183"><ele>12.0</ele><time>2026-04-18T08:05:01.874Z</time></trkpt><trkpt lat="42.2132" lon="14.5853367"><ele>12.0</ele><time>2026-04-18T08:05:03.874Z</time></trkpt><trkpt lat="42.2131467" lon="14.585455"><ele>12.0</ele><time>2026-04-18T08:05:05.873Z</time></trkpt><trkpt lat="42.2130917" lon="14.58557"><ele>12.0</ele><time>2026-04-18T08:05:07.874Z</time></trkpt><trkpt lat="42.2130417" lon="14.5856867"><ele>12.0</ele><time>2026-04-18T08:05:09.873Z</time></trkpt><trkpt lat="42.2129817" lon="14.5858067"><ele>11.4</ele><time>2026-04-18T08:05:11.874Z</time></trkpt><trkpt lat="42.212925" lon="14.585925"><ele>10.799999999999999</ele><time>2026-04-18T08:05:13.874Z</time></trkpt><trkpt lat="42.21287" lon="14.5860417"><ele>10.2</ele><time>2026-04-18T08:05:15.873Z</time></trkpt><trkpt lat="42.2128133" lon="14.5861567"><ele>9.6</ele><time>2026-04-18T08:05:17.874Z</time></trkpt><trkpt lat="42.2127483" lon="14.5862783"><ele>9.0</ele><time>2026-04-18T08:05:19.873Z</time></trkpt><trkpt lat="42.2126817" lon="14.5864"><ele>9.0</ele><time>2026-04-18T08:05:21.874Z</time></trkpt><trkpt lat="42.212615" lon="14.5865183"><ele>9.0</ele><time>2026-04-18T08:05:23.874Z</time></trkpt><trkpt lat="42.2125533" lon="14.5866367"><ele>9.0</ele><time>2026-04-18T08:05:25.874Z</time></trkpt><trkpt lat="42.2124933" lon="14.5867617"><ele>9.0</ele><time>2026-04-18T08:05:27.873Z</time></trkpt><trkpt lat="42.2124333" lon="14.5868767"><ele>9.0</ele><time>2026-04-18T08:05:29.874Z</time></trkpt><trkpt lat="42.2123783" lon="14.5869917"><ele>11.2</ele><time>2026-04-18T08:05:31.873Z</time></trkpt><trkpt lat="42.21232" lon="14.5871083"><ele>13.4</ele><time>2026-04-18T08:05:33.874Z</time></trkpt><trkpt lat="42.2122567" lon="14.587235"><ele>15.6</ele><time>2026-04-18T08:05:35.874Z</time></trkpt><trkpt lat="42.2121933" lon="14.5873617"><ele>17.8</ele><time>2026-04-18T08:05:37.874Z</time></trkpt><trkpt lat="42.2121317" lon="14.587485"><ele>20.0</ele><time>2026-04-18T08:05:39.873Z</time></trkpt><trkpt lat="42.21207" lon="14.58761"><ele>20.0</ele><time>2026-04-18T08:05:41.873Z</time></trkpt><trkpt lat="42.2120133" lon="14.5877283"><ele>20.0</ele><time>2026-04-18T08:05:43.873Z</time></trkpt><trkpt lat="42.2119617" lon="14.58785"><ele>20.0</ele><time>2026-04-18T08:05:45.874Z</time></trkpt><trkpt lat="42.2119067" lon="14.587975"><ele>20.0</ele><time>2026-04-18T08:05:47.873Z</time></trkpt><trkpt lat="42.2118467" lon="14.5881"><ele>20.0</ele><time>2026-04-18T08:05:49.874Z</time></trkpt><trkpt lat="42.21179" lon="14.5882233"><ele>19.0</ele><time>2026-04-18T08:05:51.874Z</time></trkpt><trkpt lat="42.2117367" lon="14.5883467"><ele>18.0</ele><time>2026-04-18T08:05:53.873Z</time></trkpt><trkpt lat="42.2116883" lon="14.5884667"><ele>17.0</ele><time>2026-04-18T08:05:55.874Z</time></trkpt><trkpt lat="42.21164" lon="14.5886017"><ele>16.0</ele><time>2026-04-18T08:05:57.874Z</time></trkpt><trkpt lat="42.21158" lon="14.588725"><ele>15.0</ele><time>2026-04-18T08:05:59.874Z</time></trkpt><trkpt lat="42.2115217" lon="14.5888533"><ele>17.25</ele><time>2026-04-18T08:06:01.874Z</time></trkpt><trkpt lat="42.2114583" lon="14.5889833"><ele>19.5</ele><time>2026-04-18T08:06:03.874Z</time></trkpt><trkpt lat="42.2113883" lon="14.589115"><ele>21.75</ele><time>2026-04-18T08:06:05.874Z</time></trkpt><trkpt lat="42.21132" lon="14.5892517"><ele>24.0</ele><time>2026-04-18T08:06:07.874Z</time></trkpt><trkpt lat="42.211255" lon="14.5893883"><ele>21.5</ele><time>2026-04-18T08:06:09.873Z</time></trkpt><trkpt lat="42.2111983" lon="14.5895267"><ele>19.0</ele><time>2026-04-18T08:06:11.873Z</time></trkpt><trkpt lat="42.2111467" lon="14.5896617"><ele>16.5</ele><time>2026-04-18T08:06:13.874Z</time></trkpt><trkpt lat="42.2110917" lon="14.589795"><ele>14.0</ele><time>2026-04-18T08:06:15.874Z</time></trkpt><trkpt lat="42.2110383" lon="14.589935"><ele>14.0</ele><time>2026-04-18T08:06:17.874Z</time></trkpt><trkpt lat="42.210985" lon="14.5900717"><ele>14.0</ele><time>2026-04-18T08:06:19.874Z</time></trkpt><trkpt lat="42.21093" lon="14.59021"><ele>14.0</ele><time>2026-04-18T08:06:21.874Z</time></trkpt><trkpt lat="42.2108783" lon="14.5903417"><ele>14.0</ele><time>2026-04-18T08:06:23.874Z</time></trkpt><trkpt lat="42.2108217" lon="14.59048"><ele>11.75</ele><time>2026-04-18T08:06:25.873Z</time></trkpt><trkpt lat="42.2107583" lon="14.5906217"><ele>9.5</ele><time>2026-04-18T08:06:27.873Z</time></trkpt><trkpt lat="42.210705" lon="14.59077"><ele>7.25</ele><time>2026-04-18T08:06:29.873Z</time></trkpt><trkpt lat="42.2106517" lon="14.5909117"><ele>5.0</ele><time>2026-04-18T08:06:31.874Z</time></trkpt><trkpt lat="42.210595" lon="14.5910483"><ele>7.5</ele><time>2026-04-18T08:06:33.874Z</time></trkpt><trkpt lat="42.2105367" lon="14.5911883"><ele>10.0</ele><time>2026-04-18T08:06:35.873Z</time></trkpt><trkpt lat="42.2104783" lon="14.59133"><ele>12.5</ele><time>2026-04-18T08:06:37.873Z</time></trkpt><trkpt lat="42.2104183" lon="14.591465"><ele>15.0</ele><time>2026-04-18T08:06:39.874Z</time></trkpt><trkpt lat="42.2103633" lon="14.5916"><ele>15.0</ele><time>2026-04-18T08:06:41.873Z</time></trkpt><trkpt lat="42.2103067" lon="14.59175"><ele>15.0</ele><time>2026-04-18T08:06:43.874Z</time></trkpt><trkpt lat="42.2102733" lon="14.591825"><ele>15.0</ele><time>2026-04-18T08:06:44.874Z</time></trkpt><trkpt lat="42.2102083" lon="14.591965"><ele>15.0</ele><time>2026-04-18T08:06:46.873Z</time></trkpt><trkpt lat="42.2101683" lon="14.5920383"><ele>15.0</ele><time>2026-04-18T08:06:47.874Z</time></trkpt><trkpt lat="42.2101033" lon="14.592165"><ele>13.666666666666666</ele><time>2026-04-18T08:06:49.874Z</time></trkpt><trkpt lat="42.210065" lon="14.5922433"><ele>12.333333333333334</ele><time>2026-04-18T08:06:50.873Z</time></trkpt><trkpt lat="42.2100033" lon="14.5923733"><ele>11.0</ele><time>2026-04-18T08:06:52.873Z</time></trkpt><trkpt lat="42.2099633" lon="14.5924533"><ele>9.666666666666668</ele><time>2026-04-18T08:06:53.874Z</time></trkpt><trkpt lat="42.2099267" lon="14.5925283"><ele>8.333333333333334</ele><time>2026-04-18T08:06:54.873Z</time></trkpt><trkpt lat="42.2098833" lon="14.592595"><ele>7.0</ele><time>2026-04-18T08:06:55.874Z</time></trkpt><trkpt lat="42.20981" lon="14.59271"><ele>8.2</ele><time>2026-04-18T08:06:57.874Z</time></trkpt><trkpt lat="42.209735" lon="14.5928233"><ele>9.399999999999999</ele><time>2026-04-18T08:06:59.874Z</time></trkpt><trkpt lat="42.20967" lon="14.5929583"><ele>10.600000000000001</ele><time>2026-04-18T08:07:01.874Z</time></trkpt><trkpt lat="42.2096317" lon="14.593035"><ele>11.8</ele><time>2026-04-18T08:07:02.873Z</time></trkpt><trkpt lat="42.2095633" lon="14.59318"><ele>13.0</ele><time>2026-04-18T08:07:04.874Z</time></trkpt><trkpt lat="42.20949" lon="14.59332"><ele>13.0</ele><time>2026-04-18T08:07:06.874Z</time></trkpt><trkpt lat="42.2094483" lon="14.5933867"><ele>13.0</ele><time>2026-04-18T08:07:07.873Z</time></trkpt><trkpt lat="42.209405" lon="14.5934567"><ele>13.0</ele><time>2026-04-18T08:07:08.874Z</time></trkpt><trkpt lat="42.2093633" lon="14.5935217"><ele>13.0</ele><time>2026-04-18T08:07:09.873Z</time></trkpt><trkpt lat="42.209325" lon="14.59359"><ele>13.0</ele><time>2026-04-18T08:07:10.874Z</time></trkpt><trkpt lat="42.20929" lon="14.5936617"><ele>13.0</ele><time>2026-04-18T08:07:11.873Z</time></trkpt><trkpt lat="42.2092167" lon="14.5938"><ele>13.0</ele><time>2026-04-18T08:07:13.874Z</time></trkpt><trkpt lat="42.2091417" lon="14.593925"><ele>14.0</ele><time>2026-04-18T08:07:15.874Z</time></trkpt><trkpt lat="42.20907" lon="14.594045"><ele>15.0</ele><time>2026-04-18T08:07:17.873Z</time></trkpt><trkpt lat="42.2090067" lon="14.59416"><ele>16.0</ele><time>2026-04-18T08:07:19.873Z</time></trkpt><trkpt lat="42.2089533" lon="14.594215"><ele>17.0</ele><time>2026-04-18T08:07:20.874Z</time></trkpt><trkpt lat="42.2088883" lon="14.5943167"><ele>18.0</ele><time>2026-04-18T08:07:22.874Z</time></trkpt><trkpt lat="42.2088233" lon="14.5944333"><ele>17.2</ele><time>2026-04-18T08:07:24.874Z</time></trkpt><trkpt lat="42.20876" lon="14.5945483"><ele>16.4</ele><time>2026-04-18T08:07:26.873Z</time></trkpt><trkpt lat="42.208695" lon="14.59466"><ele>15.599999999999998</ele><time>2026-04-18T08:07:28.874Z</time></trkpt><trkpt lat="42.2086517" lon="14.5947383"><ele>14.799999999999999</ele><time>2026-04-18T08:07:30.873Z</time></trkpt><trkpt lat="42.2086067" lon="14.59483"><ele>14.0</ele><time>2026-04-18T08:07:34.873Z</time></trkpt><trkpt lat="42.2085417" lon="14.5949167"><ele>14.000000000000002</ele><time>2026-04-18T08:07:37.873Z</time></trkpt><trkpt lat="42.2084967" lon="14.59499"><ele>14.0</ele><time>2026-04-18T08:07:39.874Z</time></trkpt><trkpt lat="42.2084567" lon="14.5950717"><ele>14.0</ele><time>2026-04-18T08:07:41.874Z</time></trkpt><trkpt lat="42.20841" lon="14.5951617"><ele>14.0</ele><time>2026-04-18T08:07:43.874Z</time></trkpt><trkpt lat="42.2083583" lon="14.5952483"><ele>14.000000000000002</ele><time>2026-04-18T08:07:45.874Z</time></trkpt><trkpt lat="42.2083033" lon="14.59535"><ele>14.0</ele><time>2026-04-18T08:07:47.874Z</time></trkpt><trkpt lat="42.20825" lon="14.595465"><ele>14.799999999999999</ele><time>2026-04-18T08:07:49.873Z</time></trkpt><trkpt lat="42.2081967" lon="14.5955683"><ele>15.599999999999998</ele><time>2026-04-18T08:07:51.874Z</time></trkpt><trkpt lat="42.2081417" lon="14.595675"><ele>16.4</ele><time>2026-04-18T08:07:53.874Z</time></trkpt><trkpt lat="42.2080867" lon="14.5957717"><ele>17.2</ele><time>2026-04-18T08:07:55.874Z</time></trkpt><trkpt lat="42.2080383" lon="14.59588"><ele>18.0</ele><time>2026-04-18T08:07:57.874Z</time></trkpt><trkpt lat="42.2079917" lon="14.595995"><ele>18.0</ele><time>2026-04-18T08:07:59.874Z</time></trkpt><trkpt lat="42.2079433" lon="14.596105"><ele>18.0</ele><time>2026-04-18T08:08:01.874Z</time></trkpt><trkpt lat="42.2078933" lon="14.5962133"><ele>18.0</ele><time>2026-04-18T08:08:03.874Z</time></trkpt><trkpt lat="42.2078383" lon="14.5963183"><ele>18.0</ele><time>2026-04-18T08:08:05.874Z</time></trkpt><trkpt lat="42.207795" lon="14.596415"><ele>18.0</ele><time>2026-04-18T08:08:07.873Z</time></trkpt><trkpt lat="42.2077483" lon="14.5965233"><ele>17.2</ele><time>2026-04-18T08:08:09.873Z</time></trkpt><trkpt lat="42.2077017" lon="14.5966383"><ele>16.4</ele><time>2026-04-18T08:08:11.874Z</time></trkpt><trkpt lat="42.2076533" lon="14.5967583"><ele>15.599999999999998</ele><time>2026-04-18T08:08:13.874Z</time></trkpt><trkpt lat="42.2076183" lon="14.5968817"><ele>14.799999999999999</ele><time>2026-04-18T08:08:15.874Z</time></trkpt><trkpt lat="42.2075817" lon="14.5970067"><ele>14.0</ele><time>2026-04-18T08:08:17.874Z</time></trkpt><trkpt lat="42.2075317" lon="14.5971267"><ele>15.0</ele><time>2026-04-18T08:08:19.873Z</time></trkpt><trkpt lat="42.2074867" lon="14.5972533"><ele>15.999999999999998</ele><time>2026-04-18T08:08:21.874Z</time></trkpt><trkpt lat="42.2074283" lon="14.5973883"><ele>17.0</ele><time>2026-04-18T08:08:23.874Z</time></trkpt><trkpt lat="42.2073717" lon="14.59751"><ele>18.0</ele><time>2026-04-18T08:08:25.873Z</time></trkpt><trkpt lat="42.2073133" lon="14.59764"><ele>19.0</ele><time>2026-04-18T08:08:27.874Z</time></trkpt><trkpt lat="42.207245" lon="14.5977567"><ele>18.2</ele><time>2026-04-18T08:08:29.873Z</time></trkpt><trkpt lat="42.2071867" lon="14.5978733"><ele>17.4</ele><time>2026-04-18T08:08:31.874Z</time></trkpt><trkpt lat="42.2071333" lon="14.5979867"><ele>16.6</ele><time>2026-04-18T08:08:33.873Z</time></trkpt><trkpt lat="42.207085" lon="14.5981083"><ele>15.8</ele><time>2026-04-18T08:08:35.873Z</time></trkpt><trkpt lat="42.2070233" lon="14.598235"><ele>15.0</ele><time>2026-04-18T08:08:37.874Z</time></trkpt><trkpt lat="42.206975" lon="14.598345"><ele>15.0</ele><time>2026-04-18T08:08:39.874Z</time></trkpt><trkpt lat="42.2069283" lon="14.5984483"><ele>15.0</ele><time>2026-04-18T08:08:41.874Z</time></trkpt><trkpt lat="42.2068783" lon="14.5985617"><ele>15.0</ele><time>2026-04-18T08:08:43.874Z</time></trkpt><trkpt lat="42.206825" lon="14.5986717"><ele>15.0</ele><time>2026-04-18T08:08:45.874Z</time></trkpt><trkpt lat="42.2067733" lon="14.5987717"><ele>15.0</ele><time>2026-04-18T08:08:47.874Z</time></trkpt><trkpt lat="42.20673" lon="14.598875"><ele>14.8</ele><time>2026-04-18T08:08:49.874Z</time></trkpt><trkpt lat="42.2066817" lon="14.5989833"><ele>14.6</ele><time>2026-04-18T08:08:51.874Z</time></trkpt><trkpt lat="42.206635" lon="14.5990817"><ele>14.399999999999999</ele><time>2026-04-18T08:08:53.874Z</time></trkpt><trkpt lat="42.2065917" lon="14.59922"><ele>14.2</ele><time>2026-04-18T08:08:55.873Z</time></trkpt><trkpt lat="42.2065417" lon="14.5993367"><ele>14.0</ele><time>2026-04-18T08:08:57.874Z</time></trkpt><trkpt lat="42.2064917" lon="14.5994583"><ele>13.399999999999999</ele><time>2026-04-18T08:08:59.873Z</time></trkpt><trkpt lat="42.206445" lon="14.5995883"><ele>12.799999999999999</ele><time>2026-04-18T08:09:01.874Z</time></trkpt><trkpt lat="42.206395" lon="14.5996917"><ele>12.2</ele><time>2026-04-18T08:09:03.874Z</time></trkpt><trkpt lat="42.20635" lon="14.5997967"><ele>11.600000000000001</ele><time>2026-04-18T08:09:05.873Z</time></trkpt><trkpt lat="42.2062983" lon="14.5999067"><ele>11.0</ele><time>2026-04-18T08:09:07.873Z</time></trkpt><trkpt lat="42.20625" lon="14.60002"><ele>11.0</ele><time>2026-04-18T08:09:09.874Z</time></trkpt><trkpt lat="42.2062017" lon="14.6001367"><ele>11.0</ele><time>2026-04-18T08:09:11.873Z</time></trkpt><trkpt lat="42.206155" lon="14.600255"><ele>11.0</ele><time>2026-04-18T08:09:13.874Z</time></trkpt><trkpt lat="42.2061017" lon="14.6003683"><ele>11.0</ele><time>2026-04-18T08:09:15.874Z</time></trkpt><trkpt lat="42.2060517" lon="14.6004867"><ele>11.0</ele><time>2026-04-18T08:09:17.873Z</time></trkpt><trkpt lat="42.2059983" lon="14.600605"><ele>10.4</ele><time>2026-04-18T08:09:19.874Z</time></trkpt><trkpt lat="42.2059467" lon="14.60072"><ele>9.8</ele><time>2026-04-18T08:09:21.874Z</time></trkpt><trkpt lat="42.2058967" lon="14.60084"><ele>9.200000000000001</ele><time>2026-04-18T08:09:23.874Z</time></trkpt><trkpt lat="42.2058467" lon="14.6009533"><ele>8.600000000000001</ele><time>2026-04-18T08:09:25.874Z</time></trkpt><trkpt lat="42.2057967" lon="14.6010733"><ele>8.0</ele><time>2026-04-18T08:09:27.873Z</time></trkpt><trkpt lat="42.2057417" lon="14.6011817"><ele>8.600000000000001</ele><time>2026-04-18T08:09:29.873Z</time></trkpt><trkpt lat="42.205695" lon="14.6012833"><ele>9.200000000000001</ele><time>2026-04-18T08:09:31.873Z</time></trkpt><trkpt lat="42.2056467" lon="14.601385"><ele>9.8</ele><time>2026-04-18T08:09:33.874Z</time></trkpt><trkpt lat="42.2056" lon="14.601485"><ele>10.4</ele><time>2026-04-18T08:09:35.874Z</time></trkpt><trkpt lat="42.205555" lon="14.601595"><ele>11.0</ele><time>2026-04-18T08:09:37.873Z</time></trkpt><trkpt lat="42.2055033" lon="14.6017033"><ele>11.0</ele><time>2026-04-18T08:09:39.874Z</time></trkpt><trkpt lat="42.205455" lon="14.6018083"><ele>11.0</ele><time>2026-04-18T08:09:41.873Z</time></trkpt><trkpt lat="42.20541" lon="14.6019083"><ele>11.0</ele><time>2026-04-18T08:09:43.874Z</time></trkpt><trkpt lat="42.2053617" lon="14.60201"><ele>11.0</ele><time>2026-04-18T08:09:45.873Z</time></trkpt><trkpt lat="42.2053167" lon="14.602115"><ele>11.0</ele><time>2026-04-18T08:09:47.873Z</time></trkpt><trkpt lat="42.2052683" lon="14.6022217"><ele>10.200000000000001</ele><time>2026-04-18T08:09:49.874Z</time></trkpt><trkpt lat="42.205225" lon="14.6023367"><ele>9.4</ele><time>2026-04-18T08:09:51.873Z</time></trkpt><trkpt lat="42.205175" lon="14.6024667"><ele>8.6</ele><time>2026-04-18T08:09:53.874Z</time></trkpt><trkpt lat="42.2051233" lon="14.6025933"><ele>7.8</ele><time>2026-04-18T08:09:55.873Z</time></trkpt><trkpt lat="42.2050733" lon="14.60271"><ele>7.0</ele><time>2026-04-18T08:09:57.873Z</time></trkpt><trkpt lat="42.205025" lon="14.60282"><ele>6.3999999999999995</ele><time>2026-04-18T08:09:59.874Z</time></trkpt><trkpt lat="42.2049767" lon="14.6029317"><ele>5.799999999999999</ele><time>2026-04-18T08:10:01.873Z</time></trkpt><trkpt lat="42.2049233" lon="14.6030517"><ele>5.2</ele><time>2026-04-18T08:10:03.873Z</time></trkpt><trkpt lat="42.2048717" lon="14.6031667"><ele>4.6</ele><time>2026-04-18T08:10:05.874Z</time></trkpt><trkpt lat="42.2048183" lon="14.6032867"><ele>4.0</ele><time>2026-04-18T08:10:07.874Z</time></trkpt><trkpt lat="42.20476" lon="14.6033917"><ele>3.4000000000000004</ele><time>2026-04-18T08:10:09.874Z</time></trkpt><trkpt lat="42.204715" lon="14.6035067"><ele>2.8000000000000003</ele><time>2026-04-18T08:10:11.874Z</time></trkpt><trkpt lat="42.2046583" lon="14.603605"><ele>2.2</ele><time>2026-04-18T08:10:13.874Z</time></trkpt><trkpt lat="42.2045983" lon="14.6036933"><ele>1.6</ele><time>2026-04-18T08:10:15.874Z</time></trkpt><trkpt lat="42.204545" lon="14.6037967"><ele>1.0</ele><time>2026-04-18T08:10:17.874Z</time></trkpt><trkpt lat="42.204495" lon="14.603895"><ele>0.8</ele><time>2026-04-18T08:10:19.874Z</time></trkpt><trkpt lat="42.2044517" lon="14.604"><ele>0.6000000000000001</ele><time>2026-04-18T08:10:21.874Z</time></trkpt><trkpt lat="42.204405" lon="14.6041133"><ele>0.4</ele><time>2026-04-18T08:10:23.874Z</time></trkpt><trkpt lat="42.204355" lon="14.6042167"><ele>0.2</ele><time>2026-04-18T08:10:25.873Z</time></trkpt><trkpt lat="42.20431" lon="14.60432"><ele>0.0</ele><time>2026-04-18T08:10:27.874Z</time></trkpt><trkpt lat="42.2042633" lon="14.6044217"><ele>0.2</ele><time>2026-04-18T08:10:29.874Z</time></trkpt><trkpt lat="42.2042167" lon="14.6045333"><ele>0.4</ele><time>2026-04-18T08:10:31.874Z</time></trkpt><trkpt lat="42.2041733" lon="14.6046467"><ele>0.6000000000000001</ele><time>2026-04-18T08:10:33.873Z</time></trkpt><trkpt lat="42.2041283" lon="14.6047517"><ele>0.8</ele><time>2026-04-18T08:10:35.873Z</time></trkpt><trkpt lat="42.204085" lon="14.604855"><ele>1.0</ele><time>2026-04-18T08:10:37.874Z</time></trkpt><trkpt lat="42.2040383" lon="14.6049533"><ele>0.9999999999999999</ele><time>2026-04-18T08:10:39.874Z</time></trkpt><trkpt lat="42.20399" lon="14.605065"><ele>1.0</ele><time>2026-04-18T08:10:41.874Z</time></trkpt><trkpt lat="42.203945" lon="14.60516"><ele>1.0</ele><time>2026-04-18T08:10:43.874Z</time></trkpt><trkpt lat="42.2038983" lon="14.6052617"><ele>1.0</ele><time>2026-04-18T08:10:45.873Z</time></trkpt><trkpt lat="42.2038517" lon="14.6053683"><ele>0.9999999999999999</ele><time>2026-04-18T08:10:47.874Z</time></trkpt><trkpt lat="42.2038067" lon="14.6054667"><ele>1.0</ele><time>2026-04-18T08:10:49.874Z</time></trkpt><trkpt lat="42.2037633" lon="14.6055667"><ele>0.9999999999999999</ele><time>2026-04-18T08:10:51.874Z</time></trkpt><trkpt lat="42.2037217" lon="14.6056667"><ele>1.0</ele><time>2026-04-18T08:10:53.873Z</time></trkpt><trkpt lat="42.2036817" lon="14.6057683"><ele>1.0</ele><time>2026-04-18T08:10:55.874Z</time></trkpt><trkpt lat="42.2036367" lon="14.60587"><ele>1.0</ele><time>2026-04-18T08:10:57.874Z</time></trkpt><trkpt lat="42.203595" lon="14.6059667"><ele>0.9999999999999999</ele><time>2026-04-18T08:10:59.873Z</time></trkpt><trkpt lat="42.2035467" lon="14.6060717"><ele>1.0</ele><time>2026-04-18T08:11:01.873Z</time></trkpt><trkpt lat="42.2034933" lon="14.6061783"><ele>0.9999999999999999</ele><time>2026-04-18T08:11:03.873Z</time></trkpt><trkpt lat="42.2034483" lon="14.6062833"><ele>1.0</ele><time>2026-04-18T08:11:05.873Z</time></trkpt><trkpt lat="42.2034067" lon="14.6063817"><ele>1.0</ele><time>2026-04-18T08:11:07.873Z</time></trkpt><trkpt lat="42.2033667" lon="14.606485"><ele>1.0</ele><time>2026-04-18T08:11:09.874Z</time></trkpt><trkpt lat="42.203325" lon="14.6065833"><ele>0.9999999999999999</ele><time>2026-04-18T08:11:11.873Z</time></trkpt><trkpt lat="42.20328" lon="14.6066833"><ele>1.0</ele><time>2026-04-18T08:11:13.874Z</time></trkpt><trkpt lat="42.2032383" lon="14.6067817"><ele>0.9999999999999999</ele><time>2026-04-18T08:11:15.874Z</time></trkpt><trkpt lat="42.2031933" lon="14.6068783"><ele>1.0</ele><time>2026-04-18T08:11:17.874Z</time></trkpt><trkpt lat="42.2031517" lon="14.6069717"><ele>1.0</ele><time>2026-04-18T08:11:19.873Z</time></trkpt><trkpt lat="42.2031133" lon="14.607065"><ele>1.0</ele><time>2026-04-18T08:11:21.873Z</time></trkpt><trkpt lat="42.2030717" lon="14.607165"><ele>0.9999999999999999</ele><time>2026-04-18T08:11:23.874Z</time></trkpt><trkpt lat="42.2030283" lon="14.6072667"><ele>1.0</ele><time>2026-04-18T08:11:25.874Z</time></trkpt><trkpt lat="42.2029833" lon="14.6073717"><ele>1.3333333333333333</ele><time>2026-04-18T08:11:27.874Z</time></trkpt><trkpt lat="42.20294" lon="14.607475"><ele>1.6666666666666665</ele><time>2026-04-18T08:11:29.873Z</time></trkpt><trkpt lat="42.202895" lon="14.6075783"><ele>2.0</ele><time>2026-04-18T08:11:31.873Z</time></trkpt><trkpt lat="42.2028583" lon="14.6076767"><ele>2.3333333333333335</ele><time>2026-04-18T08:11:33.874Z</time></trkpt><trkpt lat="42.2028133" lon="14.6077717"><ele>2.6666666666666665</ele><time>2026-04-18T08:11:35.874Z</time></trkpt><trkpt lat="42.2027683" lon="14.60787"><ele>3.0</ele><time>2026-04-18T08:11:37.874Z</time></trkpt><trkpt lat="42.20272" lon="14.6079683"><ele>3.1666666666666665</ele><time>2026-04-18T08:11:39.873Z</time></trkpt><trkpt lat="42.20268" lon="14.60807"><ele>3.333333333333333</ele><time>2026-04-18T08:11:41.874Z</time></trkpt><trkpt lat="42.2026383" lon="14.608165"><ele>3.5</ele><time>2026-04-18T08:11:43.873Z</time></trkpt><trkpt lat="42.2025967" lon="14.6082683"><ele>3.6666666666666665</ele><time>2026-04-18T08:11:45.873Z</time></trkpt><trkpt lat="42.2025517" lon="14.6083833"><ele>3.833333333333333</ele><time>2026-04-18T08:11:47.873Z</time></trkpt><trkpt lat="42.2025017" lon="14.608495"><ele>4.0</ele><time>2026-04-18T08:11:49.874Z</time></trkpt><trkpt lat="42.20246" lon="14.6086017"><ele>4.166666666666666</ele><time>2026-04-18T08:11:51.874Z</time></trkpt><trkpt lat="42.202415" lon="14.6087117"><ele>4.333333333333333</ele><time>2026-04-18T08:11:53.874Z</time></trkpt><trkpt lat="42.202375" lon="14.6088133"><ele>4.5</ele><time>2026-04-18T08:11:55.873Z</time></trkpt><trkpt lat="42.2023367" lon="14.6089083"><ele>4.666666666666667</ele><time>2026-04-18T08:11:57.874Z</time></trkpt><trkpt lat="42.2022983" lon="14.6090117"><ele>4.833333333333334</ele><time>2026-04-18T08:11:59.874Z</time></trkpt><trkpt lat="42.202255" lon="14.6091117"><ele>5.0</ele><time>2026-04-18T08:12:01.873Z</time></trkpt><trkpt lat="42.2022133" lon="14.6092083"><ele>4.666666666666667</ele><time>2026-04-18T08:12:03.873Z</time></trkpt><trkpt lat="42.2021733" lon="14.6093167"><ele>4.333333333333334</ele><time>2026-04-18T08:12:05.873Z</time></trkpt><trkpt lat="42.20213" lon="14.609425"><ele>4.0</ele><time>2026-04-18T08:12:07.874Z</time></trkpt><trkpt lat="42.2020867" lon="14.6095267"><ele>3.666666666666667</ele><time>2026-04-18T08:12:09.874Z</time></trkpt><trkpt lat="42.2020433" lon="14.6096317"><ele>3.3333333333333335</ele><time>2026-04-18T08:12:11.874Z</time></trkpt><trkpt lat="42.2020017" lon="14.6097333"><ele>3.0</ele><time>2026-04-18T08:12:13.873Z</time></trkpt><trkpt lat="42.2019617" lon="14.6098467"><ele>3.0</ele><time>2026-04-18T08:12:15.874Z</time></trkpt><trkpt lat="42.2019467" lon="14.609985"><ele>3.0</ele><time>2026-04-18T08:12:17.873Z</time></trkpt><trkpt lat="42.2019433" lon="14.61015"><ele>3.0</ele><time>2026-04-18T08:12:19.874Z</time></trkpt><trkpt lat="42.2019433" lon="14.6102433"><ele>3.0</ele><time>2026-04-18T08:12:20.873Z</time></trkpt><trkpt lat="42.2019433" lon="14.6103417"><ele>3.0</ele><time>2026-04-18T08:12:21.874Z</time></trkpt><trkpt lat="42.20194" lon="14.6104483"><ele>3.0</ele><time>2026-04-18T08:12:22.873Z</time></trkpt><trkpt lat="42.201925" lon="14.6105433"><ele>3.4</ele><time>2026-04-18T08:12:23.873Z</time></trkpt><trkpt lat="42.201895" lon="14.6106317"><ele>3.8</ele><time>2026-04-18T08:12:24.873Z</time></trkpt><trkpt lat="42.201855" lon="14.610715"><ele>4.2</ele><time>2026-04-18T08:12:25.873Z</time></trkpt><trkpt lat="42.2018233" lon="14.6108033"><ele>4.6</ele><time>2026-04-18T08:12:26.874Z</time></trkpt><trkpt lat="42.2017783" lon="14.61096"><ele>5.0</ele><time>2026-04-18T08:12:28.874Z</time></trkpt><trkpt lat="42.2017283" lon="14.6111067"><ele>5.0</ele><time>2026-04-18T08:12:30.874Z</time></trkpt><trkpt lat="42.2016767" lon="14.6112467"><ele>5.0</ele><time>2026-04-18T08:12:32.874Z</time></trkpt><trkpt lat="42.2016383" lon="14.6113683"><ele>5.0</ele><time>2026-04-18T08:12:34.874Z</time></trkpt><trkpt lat="42.2015983" lon="14.6114917"><ele>5.0</ele><time>2026-04-18T08:12:36.874Z</time></trkpt><trkpt lat="42.201565" lon="14.6116083"><ele>5.0</ele><time>2026-04-18T08:12:38.874Z</time></trkpt><trkpt lat="42.2015217" lon="14.6117333"><ele>5.0</ele><time>2026-04-18T08:12:40.873Z</time></trkpt><trkpt lat="42.2014817" lon="14.6118667"><ele>5.0</ele><time>2026-04-18T08:12:42.873Z</time></trkpt><trkpt lat="42.201445" lon="14.6119933"><ele>5.0</ele><time>2026-04-18T08:12:44.874Z</time></trkpt><trkpt lat="42.2014067" lon="14.6121233"><ele>5.0</ele><time>2026-04-18T08:12:46.873Z</time></trkpt><trkpt lat="42.2013667" lon="14.6122417"><ele>5.0</ele><time>2026-04-18T08:12:48.874Z</time></trkpt><trkpt lat="42.2013317" lon="14.6123617"><ele>5.166666666666667</ele><time>2026-04-18T08:12:50.874Z</time></trkpt><trkpt lat="42.2013" lon="14.6124783"><ele>5.333333333333334</ele><time>2026-04-18T08:12:52.873Z</time></trkpt><trkpt lat="42.2012683" lon="14.6125967"><ele>5.5</ele><time>2026-04-18T08:12:54.873Z</time></trkpt><trkpt lat="42.201235" lon="14.6127033"><ele>5.666666666666667</ele><time>2026-04-18T08:12:56.874Z</time></trkpt><trkpt lat="42.2012067" lon="14.6128067"><ele>5.833333333333333</ele><time>2026-04-18T08:12:58.874Z</time></trkpt><trkpt lat="42.2011783" lon="14.612885"><ele>6.0</ele><time>2026-04-18T08:13:00.874Z</time></trkpt><trkpt lat="42.2011517" lon="14.612975"><ele>6.142857142857142</ele><time>2026-04-18T08:13:02.874Z</time></trkpt><trkpt lat="42.20112" lon="14.6130583"><ele>6.285714285714286</ele><time>2026-04-18T08:13:04.874Z</time></trkpt><trkpt lat="42.201095" lon="14.613145"><ele>6.428571428571429</ele><time>2026-04-18T08:13:06.874Z</time></trkpt><trkpt lat="42.201055" lon="14.6132633"><ele>6.571428571428571</ele><time>2026-04-18T08:13:09.873Z</time></trkpt><trkpt lat="42.2010267" lon="14.6133467"><ele>6.714285714285714</ele><time>2026-04-18T08:13:11.874Z</time></trkpt><trkpt lat="42.201" lon="14.6134383"><ele>6.857142857142857</ele><time>2026-04-18T08:13:13.874Z</time></trkpt><trkpt lat="42.2009783" lon="14.6135233"><ele>7.0</ele><time>2026-04-18T08:13:15.874Z</time></trkpt><trkpt lat="42.2009417" lon="14.61364"><ele>6.714285714285714</ele><time>2026-04-18T08:13:18.874Z</time></trkpt><trkpt lat="42.20091" lon="14.6137167"><ele>6.428571428571429</ele><time>2026-04-18T08:13:20.874Z</time></trkpt><trkpt lat="42.200885" lon="14.6137983"><ele>6.142857142857142</ele><time>2026-04-18T08:13:22.874Z</time></trkpt><trkpt lat="42.2008517" lon="14.61392"><ele>5.857142857142858</ele><time>2026-04-18T08:13:25.873Z</time></trkpt><trkpt lat="42.2008317" lon="14.6140033"><ele>5.571428571428571</ele><time>2026-04-18T08:13:27.874Z</time></trkpt><trkpt lat="42.200815" lon="14.6140967"><ele>5.285714285714286</ele><time>2026-04-18T08:13:29.873Z</time></trkpt><trkpt lat="42.2007917" lon="14.6141917"><ele>5.0</ele><time>2026-04-18T08:13:31.874Z</time></trkpt><trkpt lat="42.20076" lon="14.6142983"><ele>5.0</ele><time>2026-04-18T08:13:33.874Z</time></trkpt><trkpt lat="42.2007317" lon="14.6144167"><ele>5.0</ele><time>2026-04-18T08:13:35.874Z</time></trkpt><trkpt lat="42.200705" lon="14.61453"><ele>5.0</ele><time>2026-04-18T08:13:37.873Z</time></trkpt><trkpt lat="42.20069" lon="14.61468"><ele>5.0</ele><time>2026-04-18T08:13:39.874Z</time></trkpt><trkpt lat="42.2006933" lon="14.6148533"><ele>5.0</ele><time>2026-04-18T08:13:41.873Z</time></trkpt><trkpt lat="42.20068" lon="14.6149433"><ele>4.833333333333334</ele><time>2026-04-18T08:13:42.874Z</time></trkpt><trkpt lat="42.2006267" lon="14.61508"><ele>4.666666666666667</ele><time>2026-04-18T08:13:44.874Z</time></trkpt><trkpt lat="42.2005583" lon="14.615165"><ele>4.5</ele><time>2026-04-18T08:13:46.874Z</time></trkpt><trkpt lat="42.2005" lon="14.6152133"><ele>4.333333333333333</ele><time>2026-04-18T08:13:48.874Z</time></trkpt><trkpt lat="42.20044" lon="14.6153067"><ele>4.166666666666666</ele><time>2026-04-18T08:13:51.874Z</time></trkpt><trkpt lat="42.2004033" lon="14.6153833"><ele>4.0</ele><time>2026-04-18T08:13:53.874Z</time></trkpt><trkpt lat="42.2003667" lon="14.6154567"><ele>3.9999999999999996</ele><time>2026-04-18T08:13:55.874Z</time></trkpt><trkpt lat="42.200325" lon="14.61553"><ele>4.0</ele><time>2026-04-18T08:13:57.874Z</time></trkpt><trkpt lat="42.2002883" lon="14.615605"><ele>4.0</ele><time>2026-04-18T08:13:59.873Z</time></trkpt><trkpt lat="42.2002683" lon="14.6157"><ele>4.0</ele><time>2026-04-18T08:14:01.873Z</time></trkpt><trkpt lat="42.20025" lon="14.6157983"><ele>3.9999999999999996</ele><time>2026-04-18T08:14:03.874Z</time></trkpt><trkpt lat="42.2002183" lon="14.6158967"><ele>4.0</ele><time>2026-04-18T08:14:05.873Z</time></trkpt><trkpt lat="42.20018" lon="14.61601"><ele>4.0</ele><time>2026-04-18T08:14:07.874Z</time></trkpt><trkpt lat="42.2001367" lon="14.616115"><ele>4.0</ele><time>2026-04-18T08:14:09.874Z</time></trkpt><trkpt lat="42.2000933" lon="14.6162217"><ele>4.0</ele><time>2026-04-18T08:14:11.873Z</time></trkpt><trkpt lat="42.2000533" lon="14.61633"><ele>4.0</ele><time>2026-04-18T08:14:13.874Z</time></trkpt><trkpt lat="42.20001" lon="14.616435"><ele>4.0</ele><time>2026-04-18T08:14:15.873Z</time></trkpt><trkpt lat="42.1999617" lon="14.616545"><ele>4.333333333333333</ele><time>2026-04-18T08:14:17.874Z</time></trkpt><trkpt lat="42.19993" lon="14.6166483"><ele>4.666666666666666</ele><time>2026-04-18T08:14:19.874Z</time></trkpt><trkpt lat="42.1999033" lon="14.6167533"><ele>5.0</ele><time>2026-04-18T08:14:21.874Z</time></trkpt><trkpt lat="42.1998717" lon="14.616875"><ele>5.333333333333333</ele><time>2026-04-18T08:14:23.873Z</time></trkpt><trkpt lat="42.199835" lon="14.6169883"><ele>5.666666666666667</ele><time>2026-04-18T08:14:25.873Z</time></trkpt><trkpt lat="42.1997983" lon="14.6170983"><ele>6.0</ele><time>2026-04-18T08:14:27.873Z</time></trkpt><trkpt lat="42.199765" lon="14.6172"><ele>6.0</ele><time>2026-04-18T08:14:29.873Z</time></trkpt><trkpt lat="42.1997317" lon="14.6173067"><ele>6.0</ele><time>2026-04-18T08:14:31.874Z</time></trkpt><trkpt lat="42.199695" lon="14.6174117"><ele>6.0</ele><time>2026-04-18T08:14:33.873Z</time></trkpt><trkpt lat="42.1996583" lon="14.6175233"><ele>6.0</ele><time>2026-04-18T08:14:35.873Z</time></trkpt><trkpt lat="42.1996183" lon="14.61763"><ele>6.0</ele><time>2026-04-18T08:14:37.874Z</time></trkpt><trkpt lat="42.19958" lon="14.6177433"><ele>6.0</ele><time>2026-04-18T08:14:39.873Z</time></trkpt><trkpt lat="42.1995433" lon="14.617845"><ele>5.5</ele><time>2026-04-18T08:14:41.873Z</time></trkpt><trkpt lat="42.1995" lon="14.6179483"><ele>5.0</ele><time>2026-04-18T08:14:43.874Z</time></trkpt><trkpt lat="42.19946" lon="14.618055"><ele>4.5</ele><time>2026-04-18T08:14:45.874Z</time></trkpt><trkpt lat="42.1994183" lon="14.6181667"><ele>4.0</ele><time>2026-04-18T08:14:47.874Z</time></trkpt><trkpt lat="42.199375" lon="14.6182767"><ele>3.5</ele><time>2026-04-18T08:14:49.873Z</time></trkpt><trkpt lat="42.1993367" lon="14.6183833"><ele>3.0</ele><time>2026-04-18T08:14:51.874Z</time></trkpt><trkpt lat="42.1992983" lon="14.618485"><ele>3.0</ele><time>2026-04-18T08:14:53.873Z</time></trkpt><trkpt lat="42.19927" lon="14.618605"><ele>3.0</ele><time>2026-04-18T08:14:55.873Z</time></trkpt><trkpt lat="42.1992433" lon="14.6187317"><ele>3.0</ele><time>2026-04-18T08:14:57.874Z</time></trkpt><trkpt lat="42.1992133" lon="14.6188433"><ele>3.0</ele><time>2026-04-18T08:14:59.874Z</time></trkpt><trkpt lat="42.1991817" lon="14.61895"><ele>3.0</ele><time>2026-04-18T08:15:01.873Z</time></trkpt><trkpt lat="42.1991533" lon="14.61904"><ele>3.0</ele><time>2026-04-18T08:15:03.873Z</time></trkpt><trkpt lat="42.199115" lon="14.6191483"><ele>2.8333333333333335</ele><time>2026-04-18T08:15:05.873Z</time></trkpt><trkpt lat="42.1990867" lon="14.6192517"><ele>2.6666666666666665</ele><time>2026-04-18T08:15:07.874Z</time></trkpt><trkpt lat="42.1990517" lon="14.61937"><ele>2.5</ele><time>2026-04-18T08:15:09.874Z</time></trkpt><trkpt lat="42.19902" lon="14.6194733"><ele>2.333333333333333</ele><time>2026-04-18T08:15:11.873Z</time></trkpt><trkpt lat="42.1989817" lon="14.6195717"><ele>2.1666666666666665</ele><time>2026-04-18T08:15:13.873Z</time></trkpt><trkpt lat="42.1989467" lon="14.619695"><ele>2.0</ele><time>2026-04-18T08:15:15.874Z</time></trkpt><trkpt lat="42.19891" lon="14.61982"><ele>3.4000000000000004</ele><time>2026-04-18T08:15:17.875Z</time></trkpt><trkpt lat="42.19887" lon="14.61994"><ele>4.800000000000001</ele><time>2026-04-18T08:15:19.875Z</time></trkpt><trkpt lat="42.1988317" lon="14.6200517"><ele>6.2</ele><time>2026-04-18T08:15:21.874Z</time></trkpt><trkpt lat="42.1987933" lon="14.6201817"><ele>7.6000000000000005</ele><time>2026-04-18T08:15:23.875Z</time></trkpt><trkpt lat="42.1987533" lon="14.62031"><ele>9.0</ele><time>2026-04-18T08:15:25.875Z</time></trkpt><trkpt lat="42.1987217" lon="14.620435"><ele>9.0</ele><time>2026-04-18T08:15:27.874Z</time></trkpt><trkpt lat="42.1986883" lon="14.6205617"><ele>9.0</ele><time>2026-04-18T08:15:29.875Z</time></trkpt><trkpt lat="42.198655" lon="14.6206783"><ele>9.0</ele><time>2026-04-18T08:15:31.875Z</time></trkpt><trkpt lat="42.1986167" lon="14.6208"><ele>9.0</ele><time>2026-04-18T08:15:33.875Z</time></trkpt><trkpt lat="42.1985817" lon="14.62091"><ele>9.0</ele><time>2026-04-18T08:15:35.874Z</time></trkpt><trkpt lat="42.19855" lon="14.6210183"><ele>9.0</ele><time>2026-04-18T08:15:37.875Z</time></trkpt><trkpt lat="42.19852" lon="14.6211383"><ele>9.0</ele><time>2026-04-18T08:15:39.875Z</time></trkpt><trkpt lat="42.1984883" lon="14.6212483"><ele>9.0</ele><time>2026-04-18T08:15:41.875Z</time></trkpt><trkpt lat="42.198455" lon="14.6213633"><ele>9.0</ele><time>2026-04-18T08:15:43.874Z</time></trkpt><trkpt lat="42.19841" lon="14.621475"><ele>9.0</ele><time>2026-04-18T08:15:45.875Z</time></trkpt><trkpt lat="42.19837" lon="14.6215967"><ele>8.8</ele><time>2026-04-18T08:15:47.875Z</time></trkpt><trkpt lat="42.1983317" lon="14.6217217"><ele>8.600000000000001</ele><time>2026-04-18T08:15:49.875Z</time></trkpt><trkpt lat="42.1982933" lon="14.6218467"><ele>8.4</ele><time>2026-04-18T08:15:51.875Z</time></trkpt><trkpt lat="42.1982583" lon="14.621975"><ele>8.200000000000001</ele><time>2026-04-18T08:15:53.875Z</time></trkpt><trkpt lat="42.198225" lon="14.6221"><ele>8.0</ele><time>2026-04-18T08:15:55.875Z</time></trkpt><trkpt lat="42.198195" lon="14.6222217"><ele>8.600000000000001</ele><time>2026-04-18T08:15:57.874Z</time></trkpt><trkpt lat="42.198165" lon="14.6223483"><ele>9.200000000000001</ele><time>2026-04-18T08:15:59.874Z</time></trkpt><trkpt lat="42.1981367" lon="14.6224733"><ele>9.8</ele><time>2026-04-18T08:16:01.874Z</time></trkpt><trkpt lat="42.1981017" lon="14.622595"><ele>10.4</ele><time>2026-04-18T08:16:03.875Z</time></trkpt><trkpt lat="42.1980567" lon="14.622705"><ele>11.0</ele><time>2026-04-18T08:16:05.874Z</time></trkpt><trkpt lat="42.198015" lon="14.622825"><ele>11.0</ele><time>2026-04-18T08:16:07.875Z</time></trkpt><trkpt lat="42.19798" lon="14.6229417"><ele>11.0</ele><time>2026-04-18T08:16:09.875Z</time></trkpt><trkpt lat="42.1979467" lon="14.6230617"><ele>11.0</ele><time>2026-04-18T08:16:11.875Z</time></trkpt><trkpt lat="42.19791" lon="14.623185"><ele>11.0</ele><time>2026-04-18T08:16:13.874Z</time></trkpt><trkpt lat="42.1978767" lon="14.6233083"><ele>11.0</ele><time>2026-04-18T08:16:15.875Z</time></trkpt><trkpt lat="42.1978433" lon="14.6234267"><ele>11.0</ele><time>2026-04-18T08:16:17.874Z</time></trkpt><trkpt lat="42.197815" lon="14.6235433"><ele>11.0</ele><time>2026-04-18T08:16:19.874Z</time></trkpt><trkpt lat="42.1977783" lon="14.62366"><ele>11.0</ele><time>2026-04-18T08:16:21.875Z</time></trkpt><trkpt lat="42.1977333" lon="14.6237783"><ele>11.0</ele><time>2026-04-18T08:16:23.874Z</time></trkpt><trkpt lat="42.1976917" lon="14.6238967"><ele>11.0</ele><time>2026-04-18T08:16:25.874Z</time></trkpt><trkpt lat="42.1976667" lon="14.6240133"><ele>10.600000000000001</ele><time>2026-04-18T08:16:27.874Z</time></trkpt><trkpt lat="42.1976367" lon="14.62413"><ele>10.200000000000001</ele><time>2026-04-18T08:16:29.874Z</time></trkpt><trkpt lat="42.1975983" lon="14.6242433"><ele>9.8</ele><time>2026-04-18T08:16:31.875Z</time></trkpt><trkpt lat="42.1975617" lon="14.6243517"><ele>9.4</ele><time>2026-04-18T08:16:33.875Z</time></trkpt><trkpt lat="42.1975233" lon="14.62446"><ele>9.0</ele><time>2026-04-18T08:16:35.874Z</time></trkpt><trkpt lat="42.1974767" lon="14.6245683"><ele>8.2</ele><time>2026-04-18T08:16:37.875Z</time></trkpt><trkpt lat="42.1974283" lon="14.62468"><ele>7.4</ele><time>2026-04-18T08:16:39.875Z</time></trkpt><trkpt lat="42.1973933" lon="14.6247967"><ele>6.6</ele><time>2026-04-18T08:16:41.874Z</time></trkpt><trkpt lat="42.19735" lon="14.6249133"><ele>5.8</ele><time>2026-04-18T08:16:43.875Z</time></trkpt><trkpt lat="42.197305" lon="14.6250383"><ele>5.0</ele><time>2026-04-18T08:16:45.874Z</time></trkpt><trkpt lat="42.19727" lon="14.6251633"><ele>5.333333333333334</ele><time>2026-04-18T08:16:47.875Z</time></trkpt><trkpt lat="42.197235" lon="14.625275"><ele>5.666666666666667</ele><time>2026-04-18T08:16:49.875Z</time></trkpt><trkpt lat="42.1972017" lon="14.625395"><ele>6.0</ele><time>2026-04-18T08:16:51.874Z</time></trkpt><trkpt lat="42.1971633" lon="14.6255"><ele>6.333333333333334</ele><time>2026-04-18T08:16:53.875Z</time></trkpt><trkpt lat="42.19712" lon="14.6255967"><ele>6.666666666666667</ele><time>2026-04-18T08:16:55.875Z</time></trkpt><trkpt lat="42.1970733" lon="14.6256967"><ele>7.0</ele><time>2026-04-18T08:16:57.874Z</time></trkpt><trkpt lat="42.1970267" lon="14.6258"><ele>7.0</ele><time>2026-04-18T08:16:59.875Z</time></trkpt><trkpt lat="42.1969833" lon="14.62592"><ele>6.999999999999999</ele><time>2026-04-18T08:17:01.874Z</time></trkpt><trkpt lat="42.1969417" lon="14.6260333"><ele>6.999999999999999</ele><time>2026-04-18T08:17:03.875Z</time></trkpt><trkpt lat="42.196895" lon="14.6261417"><ele>7.0</ele><time>2026-04-18T08:17:05.875Z</time></trkpt><trkpt lat="42.1968633" lon="14.6262633"><ele>7.0</ele><time>2026-04-18T08:17:07.875Z</time></trkpt><trkpt lat="42.1968267" lon="14.6263783"><ele>6.166666666666667</ele><time>2026-04-18T08:17:09.875Z</time></trkpt><trkpt lat="42.1967933" lon="14.62649"><ele>5.333333333333334</ele><time>2026-04-18T08:17:11.875Z</time></trkpt><trkpt lat="42.1967583" lon="14.626595"><ele>4.5</ele><time>2026-04-18T08:17:13.875Z</time></trkpt><trkpt lat="42.196715" lon="14.6267083"><ele>3.666666666666667</ele><time>2026-04-18T08:17:15.874Z</time></trkpt><trkpt lat="42.1966833" lon="14.626815"><ele>2.833333333333333</ele><time>2026-04-18T08:17:17.875Z</time></trkpt><trkpt lat="42.1966433" lon="14.6269267"><ele>2.0</ele><time>2026-04-18T08:17:19.875Z</time></trkpt><trkpt lat="42.1966017" lon="14.627035"><ele>2.0</ele><time>2026-04-18T08:17:21.874Z</time></trkpt><trkpt lat="42.1965633" lon="14.6271467"><ele>2.0</ele><time>2026-04-18T08:17:23.874Z</time></trkpt><trkpt lat="42.1965233" lon="14.62726"><ele>2.0</ele><time>2026-04-18T08:17:25.875Z</time></trkpt><trkpt lat="42.1964833" lon="14.6273717"><ele>2.0</ele><time>2026-04-18T08:17:27.875Z</time></trkpt><trkpt lat="42.19644" lon="14.62749"><ele>2.0</ele><time>2026-04-18T08:17:29.875Z</time></trkpt><trkpt lat="42.1964033" lon="14.6276017"><ele>2.333333333333333</ele><time>2026-04-18T08:17:31.875Z</time></trkpt><trkpt lat="42.1963683" lon="14.6277033"><ele>2.6666666666666665</ele><time>2026-04-18T08:17:33.875Z</time></trkpt><trkpt lat="42.196335" lon="14.62781"><ele>3.0</ele><time>2026-04-18T08:17:35.875Z</time></trkpt><trkpt lat="42.1962983" lon="14.6279067"><ele>3.333333333333333</ele><time>2026-04-18T08:17:37.875Z</time></trkpt><trkpt lat="42.1962667" lon="14.6280033"><ele>3.6666666666666665</ele><time>2026-04-18T08:17:39.875Z</time></trkpt><trkpt lat="42.1962367" lon="14.6280817"><ele>4.0</ele><time>2026-04-18T08:17:41.874Z</time></trkpt><trkpt lat="42.19621" lon="14.628195"><ele>3.9999999999999996</ele><time>2026-04-18T08:17:44.875Z</time></trkpt><trkpt lat="42.1961817" lon="14.62828"><ele>4.0</ele><time>2026-04-18T08:17:47.875Z</time></trkpt><trkpt lat="42.1961717" lon="14.6283933"><ele>4.0</ele><time>2026-04-18T08:17:51.875Z</time></trkpt><trkpt lat="42.196055" lon="14.6284517"><ele>4.0</ele><time>2026-04-18T08:18:56.093Z</time></trkpt><trkpt lat="42.1961167" lon="14.6284767"><ele>3.9999999999999996</ele><time>2026-04-18T08:18:59.372Z</time></trkpt><trkpt lat="42.1961217" lon="14.6285783"><ele>4.0</ele><time>2026-04-18T08:19:36.873Z</time></trkpt><trkpt lat="42.1961033" lon="14.62866"><ele>3.9999999999999996</ele><time>2026-04-18T08:19:38.873Z</time></trkpt><trkpt lat="42.1960867" lon="14.6287533"><ele>4.0</ele><time>2026-04-18T08:19:40.873Z</time></trkpt><trkpt lat="42.196075" lon="14.62885"><ele>4.0</ele><time>2026-04-18T08:19:42.872Z</time></trkpt><trkpt lat="42.1960617" lon="14.6289633"><ele>4.0</ele><time>2026-04-18T08:19:44.873Z</time></trkpt><trkpt lat="42.196065" lon="14.6290783"><ele>3.9999999999999996</ele><time>2026-04-18T08:19:46.873Z</time></trkpt><trkpt lat="42.1960517" lon="14.62919"><ele>4.0</ele><time>2026-04-18T08:19:48.872Z</time></trkpt><trkpt lat="42.1960233" lon="14.629295"><ele>4.0</ele><time>2026-04-18T08:19:50.872Z</time></trkpt><trkpt lat="42.1959817" lon="14.6293767"><ele>3.9999999999999996</ele><time>2026-04-18T08:19:52.873Z</time></trkpt><trkpt lat="42.1959433" lon="14.6294533"><ele>4.0</ele><time>2026-04-18T08:19:54.872Z</time></trkpt><trkpt lat="42.195915" lon="14.6295483"><ele>4.0</ele><time>2026-04-18T08:19:56.872Z</time></trkpt><trkpt lat="42.195885" lon="14.629645"><ele>3.9999999999999996</ele><time>2026-04-18T08:19:58.873Z</time></trkpt><trkpt lat="42.19586" lon="14.6297417"><ele>4.0</ele><time>2026-04-18T08:20:00.872Z</time></trkpt><trkpt lat="42.19583" lon="14.6298383"><ele>4.0</ele><time>2026-04-18T08:20:02.873Z</time></trkpt><trkpt lat="42.1958033" lon="14.6299417"><ele>4.0</ele><time>2026-04-18T08:20:04.873Z</time></trkpt><trkpt lat="42.19578" lon="14.63004"><ele>4.0</ele><time>2026-04-18T08:20:06.872Z</time></trkpt><trkpt lat="42.195745" lon="14.63015"><ele>4.0</ele><time>2026-04-18T08:20:08.873Z</time></trkpt><trkpt lat="42.1957083" lon="14.6302683"><ele>4.0</ele><time>2026-04-18T08:20:10.873Z</time></trkpt><trkpt lat="42.19567" lon="14.6303833"><ele>4.0</ele><time>2026-04-18T08:20:12.873Z</time></trkpt><trkpt lat="42.1956367" lon="14.6305067"><ele>4.0</ele><time>2026-04-18T08:20:14.873Z</time></trkpt><trkpt lat="42.1956083" lon="14.6306383"><ele>4.0</ele><time>2026-04-18T08:20:16.873Z</time></trkpt><trkpt lat="42.1955767" lon="14.63076"><ele>4.0</ele><time>2026-04-18T08:20:18.873Z</time></trkpt><trkpt lat="42.1955433" lon="14.6308833"><ele>4.0</ele><time>2026-04-18T08:20:20.873Z</time></trkpt><trkpt lat="42.1955033" lon="14.6310017"><ele>4.0</ele><time>2026-04-18T08:20:22.872Z</time></trkpt><trkpt lat="42.19547" lon="14.6311167"><ele>4.0</ele><time>2026-04-18T08:20:24.872Z</time></trkpt><trkpt lat="42.19544" lon="14.63124"><ele>4.0</ele><time>2026-04-18T08:20:26.872Z</time></trkpt><trkpt lat="42.1954117" lon="14.631355"><ele>4.0</ele><time>2026-04-18T08:20:28.873Z</time></trkpt><trkpt lat="42.1953767" lon="14.6314667"><ele>4.0</ele><time>2026-04-18T08:20:30.872Z</time></trkpt><trkpt lat="42.1953433" lon="14.6315933"><ele>4.0</ele><time>2026-04-18T08:20:32.873Z</time></trkpt><trkpt lat="42.1953067" lon="14.63172"><ele>4.0</ele><time>2026-04-18T08:20:34.873Z</time></trkpt><trkpt lat="42.1952717" lon="14.6318417"><ele>4.0</ele><time>2026-04-18T08:20:36.873Z</time></trkpt><trkpt lat="42.1952367" lon="14.6319567"><ele>4.0</ele><time>2026-04-18T08:20:38.872Z</time></trkpt><trkpt lat="42.1952017" lon="14.6320783"><ele>4.0</ele><time>2026-04-18T08:20:40.873Z</time></trkpt><trkpt lat="42.1951683" lon="14.6322033"><ele>4.0</ele><time>2026-04-18T08:20:42.873Z</time></trkpt><trkpt lat="42.1951317" lon="14.6323383"><ele>4.2</ele><time>2026-04-18T08:20:44.873Z</time></trkpt><trkpt lat="42.1950917" lon="14.6324617"><ele>4.4</ele><time>2026-04-18T08:20:46.873Z</time></trkpt><trkpt lat="42.1950617" lon="14.632595"><ele>4.6</ele><time>2026-04-18T08:20:48.872Z</time></trkpt><trkpt lat="42.195025" lon="14.6327267"><ele>4.8</ele><time>2026-04-18T08:20:50.873Z</time></trkpt><trkpt lat="42.1949867" lon="14.6328633"><ele>5.0</ele><time>2026-04-18T08:20:52.873Z</time></trkpt><trkpt lat="42.19495" lon="14.6329983"><ele>5.2</ele><time>2026-04-18T08:20:54.873Z</time></trkpt><trkpt lat="42.194905" lon="14.6331317"><ele>5.4</ele><time>2026-04-18T08:20:56.872Z</time></trkpt><trkpt lat="42.1948767" lon="14.633265"><ele>5.6</ele><time>2026-04-18T08:20:58.873Z</time></trkpt><trkpt lat="42.1948483" lon="14.633395"><ele>5.8</ele><time>2026-04-18T08:21:00.873Z</time></trkpt><trkpt lat="42.1948083" lon="14.6335233"><ele>6.0</ele><time>2026-04-18T08:21:02.873Z</time></trkpt><trkpt lat="42.19477" lon="14.6336433"><ele>5.666666666666667</ele><time>2026-04-18T08:21:04.873Z</time></trkpt><trkpt lat="42.194735" lon="14.63377"><ele>5.333333333333333</ele><time>2026-04-18T08:21:06.872Z</time></trkpt><trkpt lat="42.194695" lon="14.6338867"><ele>5.0</ele><time>2026-04-18T08:21:08.872Z</time></trkpt><trkpt lat="42.1946583" lon="14.6339867"><ele>4.666666666666666</ele><time>2026-04-18T08:21:11.873Z</time></trkpt><trkpt lat="42.1946233" lon="14.634075"><ele>4.333333333333333</ele><time>2026-04-18T08:21:14.873Z</time></trkpt><trkpt lat="42.1945717" lon="14.634185"><ele>4.0</ele><time>2026-04-18T08:21:17.873Z</time></trkpt><trkpt lat="42.19454" lon="14.63427"><ele>3.9999999999999996</ele><time>2026-04-18T08:21:19.873Z</time></trkpt><trkpt lat="42.1945083" lon="14.6343667"><ele>4.0</ele><time>2026-04-18T08:21:21.873Z</time></trkpt><trkpt lat="42.194475" lon="14.6344667"><ele>4.0</ele><time>2026-04-18T08:21:23.873Z</time></trkpt><trkpt lat="42.194445" lon="14.634575"><ele>4.0</ele><time>2026-04-18T08:21:25.872Z</time></trkpt><trkpt lat="42.19441" lon="14.6346917"><ele>3.9999999999999996</ele><time>2026-04-18T08:21:27.873Z</time></trkpt><trkpt lat="42.194375" lon="14.6348067"><ele>4.0</ele><time>2026-04-18T08:21:29.873Z</time></trkpt><trkpt lat="42.1943467" lon="14.6349267"><ele>3.6</ele><time>2026-04-18T08:21:31.873Z</time></trkpt><trkpt lat="42.1943017" lon="14.6350867"><ele>3.2</ele><time>2026-04-18T08:21:33.873Z</time></trkpt><trkpt lat="42.1942767" lon="14.6351833"><ele>2.8000000000000003</ele><time>2026-04-18T08:21:34.873Z</time></trkpt><trkpt lat="42.1942317" lon="14.63528"><ele>2.4000000000000004</ele><time>2026-04-18T08:21:35.872Z</time></trkpt><trkpt lat="42.1942117" lon="14.6353867"><ele>2.0</ele><time>2026-04-18T08:21:36.873Z</time></trkpt><trkpt lat="42.19419" lon="14.635495"><ele>1.8333333333333333</ele><time>2026-04-18T08:21:37.872Z</time></trkpt><trkpt lat="42.1941667" lon="14.6356067"><ele>1.6666666666666665</ele><time>2026-04-18T08:21:38.873Z</time></trkpt><trkpt lat="42.194135" lon="14.6357133"><ele>1.5</ele><time>2026-04-18T08:21:39.872Z</time></trkpt><trkpt lat="42.19411" lon="14.63582"><ele>1.3333333333333333</ele><time>2026-04-18T08:21:40.873Z</time></trkpt><trkpt lat="42.19408" lon="14.6359333"><ele>1.1666666666666665</ele><time>2026-04-18T08:21:41.873Z</time></trkpt><trkpt lat="42.19405" lon="14.63604"><ele>1.0</ele><time>2026-04-18T08:21:42.872Z</time></trkpt><trkpt lat="42.194015" lon="14.636145"><ele>1.1666666666666665</ele><time>2026-04-18T08:21:43.873Z</time></trkpt><trkpt lat="42.1939833" lon="14.6362533"><ele>1.3333333333333333</ele><time>2026-04-18T08:21:44.873Z</time></trkpt><trkpt lat="42.19395" lon="14.6363483"><ele>1.5</ele><time>2026-04-18T08:21:45.873Z</time></trkpt><trkpt lat="42.1939217" lon="14.636445"><ele>1.6666666666666665</ele><time>2026-04-18T08:21:46.873Z</time></trkpt><trkpt lat="42.193895" lon="14.6365483"><ele>1.8333333333333333</ele><time>2026-04-18T08:21:47.873Z</time></trkpt><trkpt lat="42.1938767" lon="14.63665"><ele>2.0</ele><time>2026-04-18T08:21:48.873Z</time></trkpt><trkpt lat="42.1938517" lon="14.636745"><ele>2.0</ele><time>2026-04-18T08:21:49.873Z</time></trkpt><trkpt lat="42.1938283" lon="14.6368383"><ele>1.9999999999999998</ele><time>2026-04-18T08:21:50.872Z</time></trkpt><trkpt lat="42.1938017" lon="14.63693"><ele>2.0</ele><time>2026-04-18T08:21:51.873Z</time></trkpt><trkpt lat="42.1937767" lon="14.6370167"><ele>2.0</ele><time>2026-04-18T08:21:52.873Z</time></trkpt><trkpt lat="42.1937533" lon="14.6371067"><ele>1.9999999999999998</ele><time>2026-04-18T08:21:53.872Z</time></trkpt><trkpt lat="42.1937283" lon="14.6371983"><ele>2.0</ele><time>2026-04-18T08:21:54.873Z</time></trkpt><trkpt lat="42.1937" lon="14.6372867"><ele>2.0</ele><time>2026-04-18T08:21:55.873Z</time></trkpt><trkpt lat="42.1936717" lon="14.637375"><ele>1.857142857142857</ele><time>2026-04-18T08:21:56.872Z</time></trkpt><trkpt lat="42.1936417" lon="14.6374633"><ele>1.714285714285714</ele><time>2026-04-18T08:21:57.873Z</time></trkpt><trkpt lat="42.1936183" lon="14.6375533"><ele>1.5714285714285714</ele><time>2026-04-18T08:21:58.873Z</time></trkpt><trkpt lat="42.1935933" lon="14.6376467"><ele>1.4285714285714284</ele><time>2026-04-18T08:21:59.873Z</time></trkpt><trkpt lat="42.1935683" lon="14.6377333"><ele>1.2857142857142856</ele><time>2026-04-18T08:22:00.873Z</time></trkpt><trkpt lat="42.1935483" lon="14.63783"><ele>1.1428571428571428</ele><time>2026-04-18T08:22:01.873Z</time></trkpt><trkpt lat="42.1935217" lon="14.6379183"><ele>1.0</ele><time>2026-04-18T08:22:02.873Z</time></trkpt><trkpt lat="42.1934933" lon="14.6380167"><ele>1.0</ele><time>2026-04-18T08:22:03.872Z</time></trkpt><trkpt lat="42.1934667" lon="14.6381083"><ele>0.9999999999999999</ele><time>2026-04-18T08:22:04.873Z</time></trkpt><trkpt lat="42.1934433" lon="14.6382033"><ele>1.0</ele><time>2026-04-18T08:22:05.872Z</time></trkpt><trkpt lat="42.1934167" lon="14.6382983"><ele>1.0</ele><time>2026-04-18T08:22:06.873Z</time></trkpt><trkpt lat="42.19339" lon="14.6383967"><ele>0.9999999999999999</ele><time>2026-04-18T08:22:07.872Z</time></trkpt><trkpt lat="42.1933633" lon="14.6384933"><ele>1.0</ele><time>2026-04-18T08:22:08.872Z</time></trkpt><trkpt lat="42.193335" lon="14.6385833"><ele>1.0</ele><time>2026-04-18T08:22:09.873Z</time></trkpt><trkpt lat="42.1933033" lon="14.63867"><ele>1.0</ele><time>2026-04-18T08:22:10.873Z</time></trkpt><trkpt lat="42.1932733" lon="14.6387617"><ele>0.9999999999999999</ele><time>2026-04-18T08:22:11.873Z</time></trkpt><trkpt lat="42.1932467" lon="14.63885"><ele>1.0</ele><time>2026-04-18T08:22:12.873Z</time></trkpt><trkpt lat="42.1932183" lon="14.6389383"><ele>1.0</ele><time>2026-04-18T08:22:13.873Z</time></trkpt><trkpt lat="42.1931917" lon="14.63903"><ele>0.9999999999999999</ele><time>2026-04-18T08:22:14.872Z</time></trkpt><trkpt lat="42.193165" lon="14.639115"><ele>1.0</ele><time>2026-04-18T08:22:15.872Z</time></trkpt><trkpt lat="42.1931383" lon="14.63921"><ele>1.0</ele><time>2026-04-18T08:22:16.873Z</time></trkpt><trkpt lat="42.1931133" lon="14.6393117"><ele>0.9999999999999999</ele><time>2026-04-18T08:22:17.873Z</time></trkpt><trkpt lat="42.193085" lon="14.639415"><ele>1.0</ele><time>2026-04-18T08:22:18.873Z</time></trkpt><trkpt lat="42.1930583" lon="14.6395183"><ele>1.0</ele><time>2026-04-18T08:22:19.873Z</time></trkpt><trkpt lat="42.193035" lon="14.63962"><ele>1.0</ele><time>2026-04-18T08:22:20.872Z</time></trkpt><trkpt lat="42.19301" lon="14.6397117"><ele>0.9999999999999999</ele><time>2026-04-18T08:22:21.873Z</time></trkpt><trkpt lat="42.1929883" lon="14.6398117"><ele>1.0</ele><time>2026-04-18T08:22:22.873Z</time></trkpt><trkpt lat="42.1929633" lon="14.6399117"><ele>0.8571428571428571</ele><time>2026-04-18T08:22:23.873Z</time></trkpt><trkpt lat="42.1929383" lon="14.6400133"><ele>0.7142857142857142</ele><time>2026-04-18T08:22:24.873Z</time></trkpt><trkpt lat="42.192915" lon="14.6401117"><ele>0.5714285714285714</ele><time>2026-04-18T08:22:25.873Z</time></trkpt><trkpt lat="42.1928933" lon="14.6402067"><ele>0.42857142857142855</ele><time>2026-04-18T08:22:26.873Z</time></trkpt><trkpt lat="42.19287" lon="14.6402983"><ele>0.2857142857142857</ele><time>2026-04-18T08:22:27.873Z</time></trkpt><trkpt lat="42.192845" lon="14.6403883"><ele>0.14285714285714285</ele><time>2026-04-18T08:22:28.873Z</time></trkpt><trkpt lat="42.1928217" lon="14.640475"><ele>0.0</ele><time>2026-04-18T08:22:29.872Z</time></trkpt><trkpt lat="42.192795" lon="14.6405633"><ele>0.0</ele><time>2026-04-18T08:22:30.872Z</time></trkpt><trkpt lat="42.192755" lon="14.6407267"><ele>0.0</ele><time>2026-04-18T08:22:32.872Z</time></trkpt><trkpt lat="42.192735" lon="14.6408083"><ele>0.0</ele><time>2026-04-18T08:22:33.872Z</time></trkpt><trkpt lat="42.1927133" lon="14.6408917"><ele>0.0</ele><time>2026-04-18T08:22:34.872Z</time></trkpt><trkpt lat="42.1926967" lon="14.6409783"><ele>0.0</ele><time>2026-04-18T08:22:35.873Z</time></trkpt><trkpt lat="42.192665" lon="14.6411383"><ele>0.0</ele><time>2026-04-18T08:22:37.872Z</time></trkpt><trkpt lat="42.1926333" lon="14.641285"><ele>0.0</ele><time>2026-04-18T08:22:39.873Z</time></trkpt><trkpt lat="42.192595" lon="14.6414283"><ele>0.0</ele><time>2026-04-18T08:22:41.873Z</time></trkpt><trkpt lat="42.1925533" lon="14.64158"><ele>0.0</ele><time>2026-04-18T08:22:43.872Z</time></trkpt><trkpt lat="42.1925133" lon="14.6417283"><ele>0.0</ele><time>2026-04-18T08:22:45.873Z</time></trkpt><trkpt lat="42.192475" lon="14.64188"><ele>0.0</ele><time>2026-04-18T08:22:47.873Z</time></trkpt><trkpt lat="42.1924383" lon="14.6420417"><ele>0.0</ele><time>2026-04-18T08:22:49.873Z</time></trkpt><trkpt lat="42.1924" lon="14.642195"><ele>0.0</ele><time>2026-04-18T08:22:51.873Z</time></trkpt><trkpt lat="42.1923567" lon="14.6423333"><ele>0.0</ele><time>2026-04-18T08:22:53.873Z</time></trkpt><trkpt lat="42.1923" lon="14.6424433"><ele>0.0</ele><time>2026-04-18T08:22:55.873Z</time></trkpt><trkpt lat="42.19223" lon="14.6425367"><ele>0.0</ele><time>2026-04-18T08:22:57.872Z</time></trkpt><trkpt lat="42.19215" lon="14.6426233"><ele>0.0</ele><time>2026-04-18T08:22:59.873Z</time></trkpt><trkpt lat="42.19207" lon="14.6427383"><ele>0.0</ele><time>2026-04-18T08:23:01.872Z</time></trkpt><trkpt lat="42.19199" lon="14.64285"><ele>0.0</ele><time>2026-04-18T08:23:03.873Z</time></trkpt><trkpt lat="42.1919133" lon="14.6429583"><ele>0.0</ele><time>2026-04-18T08:23:05.873Z</time></trkpt><trkpt lat="42.1918383" lon="14.64306"><ele>0.0</ele><time>2026-04-18T08:23:07.873Z</time></trkpt><trkpt lat="42.191755" lon="14.6431467"><ele>0.0</ele><time>2026-04-18T08:23:09.872Z</time></trkpt><trkpt lat="42.1916717" lon="14.6432317"><ele>0.0</ele><time>2026-04-18T08:23:11.873Z</time></trkpt><trkpt lat="42.191585" lon="14.6433167"><ele>0.0</ele><time>2026-04-18T08:23:13.872Z</time></trkpt><trkpt lat="42.1915067" lon="14.6434183"><ele>0.4</ele><time>2026-04-18T08:23:15.872Z</time></trkpt><trkpt lat="42.1914367" lon="14.6435383"><ele>0.8</ele><time>2026-04-18T08:23:17.873Z</time></trkpt><trkpt lat="42.19137" lon="14.643655"><ele>1.2000000000000002</ele><time>2026-04-18T08:23:19.872Z</time></trkpt><trkpt lat="42.1913117" lon="14.64378"><ele>1.6</ele><time>2026-04-18T08:23:21.873Z</time></trkpt><trkpt lat="42.1912583" lon="14.643905"><ele>2.0</ele><time>2026-04-18T08:23:23.873Z</time></trkpt><trkpt lat="42.1912017" lon="14.6440167"><ele>2.0</ele><time>2026-04-18T08:23:25.873Z</time></trkpt><trkpt lat="42.1911333" lon="14.644115"><ele>2.0</ele><time>2026-04-18T08:23:27.873Z</time></trkpt><trkpt lat="42.191055" lon="14.6441983"><ele>2.0</ele><time>2026-04-18T08:23:29.872Z</time></trkpt><trkpt lat="42.1909717" lon="14.6442717"><ele>2.0</ele><time>2026-04-18T08:23:31.873Z</time></trkpt><trkpt lat="42.19088" lon="14.6443383"><ele>2.0</ele><time>2026-04-18T08:23:33.873Z</time></trkpt><trkpt lat="42.190775" lon="14.6443867"><ele>2.0</ele><time>2026-04-18T08:23:35.873Z</time></trkpt><trkpt lat="42.190675" lon="14.6444217"><ele>2.0</ele><time>2026-04-18T08:23:37.873Z</time></trkpt><trkpt lat="42.1905667" lon="14.64446"><ele>2.0</ele><time>2026-04-18T08:23:39.873Z</time></trkpt><trkpt lat="42.1904583" lon="14.6444967"><ele>2.0</ele><time>2026-04-18T08:23:41.873Z</time></trkpt><trkpt lat="42.1903583" lon="14.6445333"><ele>2.0</ele><time>2026-04-18T08:23:43.873Z</time></trkpt><trkpt lat="42.190265" lon="14.6445733"><ele>2.2</ele><time>2026-04-18T08:23:45.873Z</time></trkpt><trkpt lat="42.190195" lon="14.644645"><ele>2.4000000000000004</ele><time>2026-04-18T08:23:47.873Z</time></trkpt><trkpt lat="42.1901533" lon="14.6447533"><ele>2.5999999999999996</ele><time>2026-04-18T08:23:49.872Z</time></trkpt><trkpt lat="42.1901367" lon="14.64487"><ele>2.8</ele><time>2026-04-18T08:23:51.872Z</time></trkpt><trkpt lat="42.19012" lon="14.6449817"><ele>3.0</ele><time>2026-04-18T08:23:53.873Z</time></trkpt><trkpt lat="42.1900817" lon="14.6451133"><ele>3.0</ele><time>2026-04-18T08:23:55.873Z</time></trkpt><trkpt lat="42.1900367" lon="14.6452517"><ele>3.0</ele><time>2026-04-18T08:23:57.873Z</time></trkpt><trkpt lat="42.18998" lon="14.6453667"><ele>3.0</ele><time>2026-04-18T08:23:59.873Z</time></trkpt><trkpt lat="42.189915" lon="14.64548"><ele>3.0</ele><time>2026-04-18T08:24:01.872Z</time></trkpt><trkpt lat="42.1898867" lon="14.6456017"><ele>3.0</ele><time>2026-04-18T08:24:03.872Z</time></trkpt><trkpt lat="42.189845" lon="14.6457233"><ele>3.0</ele><time>2026-04-18T08:24:05.873Z</time></trkpt><trkpt lat="42.1898033" lon="14.6458467"><ele>3.0</ele><time>2026-04-18T08:24:07.872Z</time></trkpt><trkpt lat="42.1897733" lon="14.6459833"><ele>3.0</ele><time>2026-04-18T08:24:09.873Z</time></trkpt><trkpt lat="42.1897617" lon="14.6461383"><ele>3.0</ele><time>2026-04-18T08:24:11.872Z</time></trkpt><trkpt lat="42.18976" lon="14.646295"><ele>3.0</ele><time>2026-04-18T08:24:13.873Z</time></trkpt><trkpt lat="42.1897533" lon="14.646455"><ele>3.2</ele><time>2026-04-18T08:24:15.873Z</time></trkpt><trkpt lat="42.1897517" lon="14.6466117"><ele>3.4</ele><time>2026-04-18T08:24:17.873Z</time></trkpt><trkpt lat="42.1897517" lon="14.6467667"><ele>3.6000000000000005</ele><time>2026-04-18T08:24:19.873Z</time></trkpt><trkpt lat="42.18975" lon="14.6469083"><ele>3.8000000000000003</ele><time>2026-04-18T08:24:21.872Z</time></trkpt><trkpt lat="42.1897533" lon="14.64705"><ele>4.0</ele><time>2026-04-18T08:24:23.873Z</time></trkpt><trkpt lat="42.1897483" lon="14.6471883"><ele>3.9999999999999996</ele><time>2026-04-18T08:24:25.873Z</time></trkpt><trkpt lat="42.1897367" lon="14.647325"><ele>4.0</ele><time>2026-04-18T08:24:27.873Z</time></trkpt><trkpt lat="42.1897267" lon="14.647445"><ele>4.0</ele><time>2026-04-18T08:24:29.873Z</time></trkpt><trkpt lat="42.1897167" lon="14.6475517"><ele>4.0</ele><time>2026-04-18T08:24:31.872Z</time></trkpt><trkpt lat="42.1897117" lon="14.647655"><ele>3.9999999999999996</ele><time>2026-04-18T08:24:33.872Z</time></trkpt><trkpt lat="42.1897033" lon="14.6477617"><ele>4.0</ele><time>2026-04-18T08:24:35.873Z</time></trkpt><trkpt lat="42.1897017" lon="14.647855"><ele>4.428571428571429</ele><time>2026-04-18T08:24:37.873Z</time></trkpt><trkpt lat="42.1897017" lon="14.6479583"><ele>4.857142857142857</ele><time>2026-04-18T08:24:39.873Z</time></trkpt><trkpt lat="42.1897017" lon="14.6480533"><ele>5.285714285714286</ele><time>2026-04-18T08:24:41.872Z</time></trkpt><trkpt lat="42.1897033" lon="14.6481433"><ele>5.714285714285714</ele><time>2026-04-18T08:24:43.873Z</time></trkpt><trkpt lat="42.1897" lon="14.6482383"><ele>6.142857142857142</ele><time>2026-04-18T08:24:45.872Z</time></trkpt><trkpt lat="42.1897017" lon="14.6483367"><ele>6.571428571428571</ele><time>2026-04-18T08:24:47.872Z</time></trkpt><trkpt lat="42.1896983" lon="14.64844"><ele>7.0</ele><time>2026-04-18T08:24:49.873Z</time></trkpt><trkpt lat="42.1896883" lon="14.648545"><ele>7.666666666666667</ele><time>2026-04-18T08:24:51.873Z</time></trkpt><trkpt lat="42.1896817" lon="14.648645"><ele>8.333333333333334</ele><time>2026-04-18T08:24:53.872Z</time></trkpt><trkpt lat="42.1896783" lon="14.6487433"><ele>9.0</ele><time>2026-04-18T08:24:55.873Z</time></trkpt><trkpt lat="42.1896717" lon="14.6488467"><ele>9.666666666666666</ele><time>2026-04-18T08:24:57.873Z</time></trkpt><trkpt lat="42.1896683" lon="14.648945"><ele>10.333333333333332</ele><time>2026-04-18T08:24:59.873Z</time></trkpt><trkpt lat="42.189665" lon="14.6490533"><ele>11.0</ele><time>2026-04-18T08:25:01.872Z</time></trkpt><trkpt lat="42.1896633" lon="14.6491733"><ele>11.0</ele><time>2026-04-18T08:25:03.873Z</time></trkpt><trkpt lat="42.1896583" lon="14.6492767"><ele>11.0</ele><time>2026-04-18T08:25:05.873Z</time></trkpt><trkpt lat="42.1896517" lon="14.6493783"><ele>11.0</ele><time>2026-04-18T08:25:07.873Z</time></trkpt><trkpt lat="42.1896233" lon="14.649465"><ele>11.0</ele><time>2026-04-18T08:25:09.873Z</time></trkpt><trkpt lat="42.1895417" lon="14.6495283"><ele>11.0</ele><time>2026-04-18T08:25:12.873Z</time></trkpt><trkpt lat="42.1894833" lon="14.6495767"><ele>11.0</ele><time>2026-04-18T08:25:14.873Z</time></trkpt><trkpt lat="42.189405" lon="14.6496417"><ele>12.833333333333332</ele><time>2026-04-18T08:25:17.873Z</time></trkpt><trkpt lat="42.1893617" lon="14.649715"><ele>14.666666666666666</ele><time>2026-04-18T08:25:20.873Z</time></trkpt><trkpt lat="42.18934" lon="14.6498367"><ele>16.5</ele><time>2026-04-18T08:25:23.873Z</time></trkpt><trkpt lat="42.1893433" lon="14.6499317"><ele>18.333333333333332</ele><time>2026-04-18T08:25:25.873Z</time></trkpt><trkpt lat="42.189325" lon="14.65002"><ele>20.166666666666664</ele><time>2026-04-18T08:25:29.873Z</time></trkpt><trkpt lat="42.18927" lon="14.6500917"><ele>22.0</ele><time>2026-04-18T08:25:33.872Z</time></trkpt><trkpt lat="42.189235" lon="14.6501783"><ele>22.0</ele><time>2026-04-18T08:25:37.873Z</time></trkpt><trkpt lat="42.1891983" lon="14.6502717"><ele>22.0</ele><time>2026-04-18T08:25:40.873Z</time></trkpt><trkpt lat="42.1891667" lon="14.6503717"><ele>22.0</ele><time>2026-04-18T08:25:43.873Z</time></trkpt><trkpt lat="42.1891333" lon="14.6504733"><ele>22.0</ele><time>2026-04-18T08:25:46.873Z</time></trkpt><trkpt lat="42.1890917" lon="14.6505817"><ele>22.0</ele><time>2026-04-18T08:25:49.873Z</time></trkpt><trkpt lat="42.1890467" lon="14.6506717"><ele>22.0</ele><time>2026-04-18T08:25:52.873Z</time></trkpt><trkpt lat="42.1890067" lon="14.6507533"><ele>26.333333333333332</ele><time>2026-04-18T08:25:54.873Z</time></trkpt><trkpt lat="42.18898" lon="14.6508733"><ele>30.666666666666664</ele><time>2026-04-18T08:25:57.872Z</time></trkpt><trkpt lat="42.1889667" lon="14.6509717"><ele>35.0</ele><time>2026-04-18T08:26:00.873Z</time></trkpt><trkpt lat="42.18893" lon="14.6510867"><ele>39.333333333333336</ele><time>2026-04-18T08:26:03.873Z</time></trkpt><trkpt lat="42.1888767" lon="14.6511867"><ele>43.666666666666664</ele><time>2026-04-18T08:26:06.873Z</time></trkpt><trkpt lat="42.1888517" lon="14.65131"><ele>48.0</ele><time>2026-04-18T08:26:09.872Z</time></trkpt><trkpt lat="42.1888" lon="14.6514267"><ele>48.0</ele><time>2026-04-18T08:26:10.873Z</time></trkpt><trkpt lat="42.18876" lon="14.651575"><ele>48.0</ele><time>2026-04-18T08:26:12.873Z</time></trkpt><trkpt lat="42.1887267" lon="14.6517217"><ele>48.0</ele><time>2026-04-18T08:26:14.873Z</time></trkpt><trkpt lat="42.1886867" lon="14.6518967"><ele>48.0</ele><time>2026-04-18T08:26:16.872Z</time></trkpt><trkpt lat="42.1886367" lon="14.6520483"><ele>47.166666666666664</ele><time>2026-04-18T08:26:18.873Z</time></trkpt><trkpt lat="42.1886083" lon="14.6521517"><ele>46.333333333333336</ele><time>2026-04-18T08:26:19.873Z</time></trkpt><trkpt lat="42.1885817" lon="14.6522417"><ele>45.5</ele><time>2026-04-18T08:26:20.873Z</time></trkpt><trkpt lat="42.1885233" lon="14.6523133"><ele>44.66666666666667</ele><time>2026-04-18T08:26:22.873Z</time></trkpt><trkpt lat="42.18848" lon="14.6523933"><ele>43.833333333333336</ele><time>2026-04-18T08:26:24.873Z</time></trkpt><trkpt lat="42.1884833" lon="14.652515"><ele>43.0</ele><time>2026-04-18T08:26:27.872Z</time></trkpt><trkpt lat="42.1884667" lon="14.6525983"><ele>43.0</ele><time>2026-04-18T08:26:29.873Z</time></trkpt><trkpt lat="42.1884483" lon="14.652705"><ele>43.0</ele><time>2026-04-18T08:26:31.873Z</time></trkpt><trkpt lat="42.1883683" lon="14.6527983"><ele>43.0</ele><time>2026-04-18T08:26:34.873Z</time></trkpt><trkpt lat="42.1883117" lon="14.6528633"><ele>43.0</ele><time>2026-04-18T08:26:36.873Z</time></trkpt><trkpt lat="42.1882667" lon="14.6529317"><ele>43.0</ele><time>2026-04-18T08:26:38.873Z</time></trkpt><trkpt lat="42.18822" lon="14.6530067"><ele>43.0</ele><time>2026-04-18T08:26:40.873Z</time></trkpt><trkpt lat="42.1881683" lon="14.6530817"><ele>44.4</ele><time>2026-04-18T08:26:42.873Z</time></trkpt><trkpt lat="42.188115" lon="14.65316"><ele>45.8</ele><time>2026-04-18T08:26:44.873Z</time></trkpt><trkpt lat="42.18807" lon="14.6532367"><ele>47.2</ele><time>2026-04-18T08:26:46.873Z</time></trkpt><trkpt lat="42.1879967" lon="14.6533133"><ele>48.6</ele><time>2026-04-18T08:26:48.873Z</time></trkpt><trkpt lat="42.1879217" lon="14.653395"><ele>50.0</ele><time>2026-04-18T08:26:50.873Z</time></trkpt><trkpt lat="42.1878233" lon="14.6534833"><ele>50.0</ele><time>2026-04-18T08:26:52.873Z</time></trkpt><trkpt lat="42.187735" lon="14.653585"><ele>50.0</ele><time>2026-04-18T08:26:54.873Z</time></trkpt><trkpt lat="42.1876667" lon="14.6537067"><ele>50.0</ele><time>2026-04-18T08:26:56.872Z</time></trkpt><trkpt lat="42.1876067" lon="14.653795"><ele>50.0</ele><time>2026-04-18T08:26:58.873Z</time></trkpt><trkpt lat="42.1875483" lon="14.6538767"><ele>50.0</ele><time>2026-04-18T08:27:00.873Z</time></trkpt><trkpt lat="42.187475" lon="14.6539517"><ele>50.2</ele><time>2026-04-18T08:27:02.873Z</time></trkpt><trkpt lat="42.1874083" lon="14.65404"><ele>50.4</ele><time>2026-04-18T08:27:04.873Z</time></trkpt><trkpt lat="42.1873617" lon="14.6541467"><ele>50.599999999999994</ele><time>2026-04-18T08:27:06.873Z</time></trkpt><trkpt lat="42.1873217" lon="14.6542683"><ele>50.8</ele><time>2026-04-18T08:27:08.872Z</time></trkpt><trkpt lat="42.187275" lon="14.6543967"><ele>51.0</ele><time>2026-04-18T08:27:10.873Z</time></trkpt><trkpt lat="42.1872117" lon="14.654535"><ele>51.0</ele><time>2026-04-18T08:27:12.872Z</time></trkpt><trkpt lat="42.1871533" lon="14.6546683"><ele>51.0</ele><time>2026-04-18T08:27:14.873Z</time></trkpt><trkpt lat="42.18708" lon="14.6547667"><ele>51.0</ele><time>2026-04-18T08:27:16.873Z</time></trkpt><trkpt lat="42.1869883" lon="14.654815"><ele>51.0</ele><time>2026-04-18T08:27:18.873Z</time></trkpt><trkpt lat="42.18689" lon="14.654825"><ele>51.0</ele><time>2026-04-18T08:27:20.873Z</time></trkpt><trkpt lat="42.1868" lon="14.654815"><ele>51.0</ele><time>2026-04-18T08:27:22.872Z</time></trkpt><trkpt lat="42.1867333" lon="14.6547617"><ele>51.0</ele><time>2026-04-18T08:27:24.872Z</time></trkpt><trkpt lat="42.18669" lon="14.6546783"><ele>51.0</ele><time>2026-04-18T08:27:26.873Z</time></trkpt><trkpt lat="42.18664" lon="14.6545683"><ele>51.0</ele><time>2026-04-18T08:27:29.873Z</time></trkpt><trkpt lat="42.1866" lon="14.6544867"><ele>51.0</ele><time>2026-04-18T08:27:31.873Z</time></trkpt><trkpt lat="42.1865617" lon="14.6544017"><ele>51.0</ele><time>2026-04-18T08:27:33.873Z</time></trkpt><trkpt lat="42.186515" lon="14.6543167"><ele>51.285714285714285</ele><time>2026-04-18T08:27:36.872Z</time></trkpt><trkpt lat="42.1864817" lon="14.6542383"><ele>51.57142857142857</ele><time>2026-04-18T08:27:39.873Z</time></trkpt><trkpt lat="42.1864433" lon="14.654165"><ele>51.85714285714286</ele><time>2026-04-18T08:27:42.872Z</time></trkpt><trkpt lat="42.1864117" lon="14.654085"><ele>52.14285714285714</ele><time>2026-04-18T08:27:45.873Z</time></trkpt><trkpt lat="42.186375" lon="14.6539967"><ele>52.42857142857142</ele><time>2026-04-18T08:27:48.873Z</time></trkpt><trkpt lat="42.1863383" lon="14.6539033"><ele>52.714285714285715</ele><time>2026-04-18T08:27:51.872Z</time></trkpt><trkpt lat="42.1862933" lon="14.6538067"><ele>53.0</ele><time>2026-04-18T08:27:54.872Z</time></trkpt><trkpt lat="42.1862533" lon="14.6537167"><ele>53.0</ele><time>2026-04-18T08:27:57.873Z</time></trkpt><trkpt lat="42.1862083" lon="14.6536267"><ele>53.0</ele><time>2026-04-18T08:28:00.872Z</time></trkpt><trkpt lat="42.186175" lon="14.65354"><ele>53.0</ele><time>2026-04-18T08:28:03.873Z</time></trkpt><trkpt lat="42.1861533" lon="14.65346"><ele>53.0</ele><time>2026-04-18T08:28:06.873Z</time></trkpt><trkpt lat="42.1861283" lon="14.6533617"><ele>53.0</ele><time>2026-04-18T08:28:10.873Z</time></trkpt><trkpt lat="42.1861" lon="14.6532717"><ele>53.0</ele><time>2026-04-18T08:28:14.872Z</time></trkpt><trkpt lat="42.1860733" lon="14.6531767"><ele>53.0</ele><time>2026-04-18T08:28:18.873Z</time></trkpt><trkpt lat="42.1860417" lon="14.6531"><ele>53.2</ele><time>2026-04-18T08:28:22.872Z</time></trkpt><trkpt lat="42.1859367" lon="14.6531317"><ele>53.4</ele><time>2026-04-18T08:30:54.873Z</time></trkpt><trkpt lat="42.1858733" lon="14.6532267"><ele>53.60000000000001</ele><time>2026-04-18T08:30:57.874Z</time></trkpt><trkpt lat="42.1858133" lon="14.6532983"><ele>53.800000000000004</ele><time>2026-04-18T08:30:59.874Z</time></trkpt><trkpt lat="42.1857383" lon="14.65338"><ele>54.0</ele><time>2026-04-18T08:31:01.874Z</time></trkpt><trkpt lat="42.18565" lon="14.6534583"><ele>54.0</ele><time>2026-04-18T08:31:03.874Z</time></trkpt><trkpt lat="42.1855417" lon="14.6535383"><ele>54.0</ele><time>2026-04-18T08:31:05.873Z</time></trkpt><trkpt lat="42.1854367" lon="14.65362"><ele>54.0</ele><time>2026-04-18T08:31:07.873Z</time></trkpt><trkpt lat="42.1853333" lon="14.6536983"><ele>54.0</ele><time>2026-04-18T08:31:09.874Z</time></trkpt><trkpt lat="42.18524" lon="14.6537817"><ele>53.833333333333336</ele><time>2026-04-18T08:31:11.874Z</time></trkpt><trkpt lat="42.1851367" lon="14.6538667"><ele>53.66666666666667</ele><time>2026-04-18T08:31:13.874Z</time></trkpt><trkpt lat="42.1850783" lon="14.6539167"><ele>53.5</ele><time>2026-04-18T08:31:14.873Z</time></trkpt><trkpt lat="42.1850217" lon="14.6539617"><ele>53.333333333333336</ele><time>2026-04-18T08:31:15.873Z</time></trkpt><trkpt lat="42.1849633" lon="14.6540117"><ele>53.16666666666667</ele><time>2026-04-18T08:31:16.873Z</time></trkpt><trkpt lat="42.1848617" lon="14.6540933"><ele>53.0</ele><time>2026-04-18T08:31:18.873Z</time></trkpt><trkpt lat="42.1847567" lon="14.65418"><ele>53.16666666666667</ele><time>2026-04-18T08:31:20.874Z</time></trkpt><trkpt lat="42.1847033" lon="14.6542267"><ele>53.333333333333336</ele><time>2026-04-18T08:31:21.874Z</time></trkpt><trkpt lat="42.184645" lon="14.654275"><ele>53.5</ele><time>2026-04-18T08:31:22.873Z</time></trkpt><trkpt lat="42.1845867" lon="14.6543233"><ele>53.66666666666667</ele><time>2026-04-18T08:31:23.874Z</time></trkpt><trkpt lat="42.1845333" lon="14.65437"><ele>53.833333333333336</ele><time>2026-04-18T08:31:24.874Z</time></trkpt><trkpt lat="42.184425" lon="14.6544617"><ele>54.0</ele><time>2026-04-18T08:31:26.874Z</time></trkpt><trkpt lat="42.1843683" lon="14.65451"><ele>54.0</ele><time>2026-04-18T08:31:27.873Z</time></trkpt><trkpt lat="42.1843133" lon="14.6545583"><ele>54.00000000000001</ele><time>2026-04-18T08:31:28.874Z</time></trkpt><trkpt lat="42.1842083" lon="14.654645"><ele>54.00000000000001</ele><time>2026-04-18T08:31:30.874Z</time></trkpt><trkpt lat="42.1841033" lon="14.6547233"><ele>54.0</ele><time>2026-04-18T08:31:32.874Z</time></trkpt><trkpt lat="42.1839967" lon="14.6548083"><ele>54.0</ele><time>2026-04-18T08:31:34.874Z</time></trkpt><trkpt lat="42.1839433" lon="14.6548533"><ele>53.833333333333336</ele><time>2026-04-18T08:31:35.874Z</time></trkpt><trkpt lat="42.1838867" lon="14.654905"><ele>53.66666666666667</ele><time>2026-04-18T08:31:36.874Z</time></trkpt><trkpt lat="42.1837783" lon="14.65499"><ele>53.5</ele><time>2026-04-18T08:31:38.874Z</time></trkpt><trkpt lat="42.1837217" lon="14.6550333"><ele>53.333333333333336</ele><time>2026-04-18T08:31:39.873Z</time></trkpt><trkpt lat="42.1836167" lon="14.6551217"><ele>53.16666666666667</ele><time>2026-04-18T08:31:41.874Z</time></trkpt><trkpt lat="42.1835617" lon="14.6551667"><ele>53.0</ele><time>2026-04-18T08:31:42.873Z</time></trkpt><trkpt lat="42.1834583" lon="14.6552533"><ele>53.0</ele><time>2026-04-18T08:31:44.873Z</time></trkpt><trkpt lat="42.1833517" lon="14.65534"><ele>53.0</ele><time>2026-04-18T08:31:46.874Z</time></trkpt><trkpt lat="42.1832483" lon="14.6554217"><ele>53.0</ele><time>2026-04-18T08:31:48.873Z</time></trkpt><trkpt lat="42.183195" lon="14.65547"><ele>53.0</ele><time>2026-04-18T08:31:49.874Z</time></trkpt><trkpt lat="42.1830917" lon="14.6555567"><ele>53.0</ele><time>2026-04-18T08:31:51.874Z</time></trkpt><trkpt lat="42.18299" lon="14.65564"><ele>53.2</ele><time>2026-04-18T08:31:53.873Z</time></trkpt><trkpt lat="42.18288" lon="14.6557233"><ele>53.4</ele><time>2026-04-18T08:31:55.874Z</time></trkpt><trkpt lat="42.182825" lon="14.6557717"><ele>53.60000000000001</ele><time>2026-04-18T08:31:56.873Z</time></trkpt><trkpt lat="42.182725" lon="14.65586"><ele>53.800000000000004</ele><time>2026-04-18T08:31:58.874Z</time></trkpt><trkpt lat="42.18262" lon="14.65594"><ele>54.0</ele><time>2026-04-18T08:32:00.874Z</time></trkpt><trkpt lat="42.182565" lon="14.6559817"><ele>54.0</ele><time>2026-04-18T08:32:01.873Z</time></trkpt><trkpt lat="42.1825117" lon="14.6560317"><ele>54.0</ele><time>2026-04-18T08:32:02.874Z</time></trkpt><trkpt lat="42.1824617" lon="14.656085"><ele>54.0</ele><time>2026-04-18T08:32:03.873Z</time></trkpt><trkpt lat="42.182415" lon="14.656145"><ele>54.0</ele><time>2026-04-18T08:32:04.874Z</time></trkpt><trkpt lat="42.1823217" lon="14.6562533"><ele>54.0</ele><time>2026-04-18T08:32:06.874Z</time></trkpt><trkpt lat="42.1822183" lon="14.6563467"><ele>54.0</ele><time>2026-04-18T08:32:08.873Z</time></trkpt><trkpt lat="42.1821183" lon="14.6564483"><ele>54.14285714285714</ele><time>2026-04-18T08:32:10.873Z</time></trkpt><trkpt lat="42.1820667" lon="14.6565067"><ele>54.285714285714285</ele><time>2026-04-18T08:32:11.873Z</time></trkpt><trkpt lat="42.1820167" lon="14.6565633"><ele>54.42857142857143</ele><time>2026-04-18T08:32:12.873Z</time></trkpt><trkpt lat="42.1819633" lon="14.6566183"><ele>54.57142857142857</ele><time>2026-04-18T08:32:13.873Z</time></trkpt><trkpt lat="42.1819133" lon="14.6566783"><ele>54.714285714285715</ele><time>2026-04-18T08:32:14.874Z</time></trkpt><trkpt lat="42.1818633" lon="14.6567367"><ele>54.857142857142854</ele><time>2026-04-18T08:32:15.873Z</time></trkpt><trkpt lat="42.1818133" lon="14.6567933"><ele>55.0</ele><time>2026-04-18T08:32:16.873Z</time></trkpt><trkpt lat="42.1817633" lon="14.6568467"><ele>54.99999999999999</ele><time>2026-04-18T08:32:17.874Z</time></trkpt><trkpt lat="42.18171" lon="14.656905"><ele>55.0</ele><time>2026-04-18T08:32:18.873Z</time></trkpt><trkpt lat="42.1816567" lon="14.6569633"><ele>55.0</ele><time>2026-04-18T08:32:19.874Z</time></trkpt><trkpt lat="42.1816067" lon="14.6570233"><ele>55.0</ele><time>2026-04-18T08:32:20.873Z</time></trkpt><trkpt lat="42.1815533" lon="14.6570817"><ele>55.0</ele><time>2026-04-18T08:32:21.874Z</time></trkpt><trkpt lat="42.1814983" lon="14.6571433"><ele>54.99999999999999</ele><time>2026-04-18T08:32:22.873Z</time></trkpt><trkpt lat="42.181445" lon="14.6572067"><ele>55.0</ele><time>2026-04-18T08:32:23.873Z</time></trkpt><trkpt lat="42.1813917" lon="14.6572667"><ele>54.99999999999999</ele><time>2026-04-18T08:32:24.874Z</time></trkpt><trkpt lat="42.18134" lon="14.65733"><ele>55.0</ele><time>2026-04-18T08:32:25.874Z</time></trkpt><trkpt lat="42.1812883" lon="14.6573867"><ele>55.0</ele><time>2026-04-18T08:32:26.874Z</time></trkpt><trkpt lat="42.1812367" lon="14.6574433"><ele>55.0</ele><time>2026-04-18T08:32:27.873Z</time></trkpt><trkpt lat="42.1811817" lon="14.6574967"><ele>55.0</ele><time>2026-04-18T08:32:28.873Z</time></trkpt><trkpt lat="42.1811283" lon="14.6575583"><ele>54.99999999999999</ele><time>2026-04-18T08:32:29.873Z</time></trkpt><trkpt lat="42.181075" lon="14.6576167"><ele>55.0</ele><time>2026-04-18T08:32:30.874Z</time></trkpt><trkpt lat="42.1810183" lon="14.6576767"><ele>54.99999999999999</ele><time>2026-04-18T08:32:31.873Z</time></trkpt><trkpt lat="42.18096" lon="14.6577283"><ele>55.0</ele><time>2026-04-18T08:32:32.874Z</time></trkpt><trkpt lat="42.1809033" lon="14.65778"><ele>55.0</ele><time>2026-04-18T08:32:33.874Z</time></trkpt><trkpt lat="42.18084" lon="14.6578283"><ele>55.0</ele><time>2026-04-18T08:32:34.874Z</time></trkpt><trkpt lat="42.1807733" lon="14.6578783"><ele>55.0</ele><time>2026-04-18T08:32:35.873Z</time></trkpt><trkpt lat="42.1807067" lon="14.65792"><ele>54.99999999999999</ele><time>2026-04-18T08:32:36.873Z</time></trkpt><trkpt lat="42.180645" lon="14.65797"><ele>55.0</ele><time>2026-04-18T08:32:37.874Z</time></trkpt><trkpt lat="42.1805817" lon="14.6580183"><ele>54.83333333333333</ele><time>2026-04-18T08:32:38.873Z</time></trkpt><trkpt lat="42.1805167" lon="14.658075"><ele>54.666666666666664</ele><time>2026-04-18T08:32:39.874Z</time></trkpt><trkpt lat="42.180455" lon="14.6581333"><ele>54.5</ele><time>2026-04-18T08:32:40.874Z</time></trkpt><trkpt lat="42.180395" lon="14.6581967"><ele>54.33333333333333</ele><time>2026-04-18T08:32:41.873Z</time></trkpt><trkpt lat="42.1803333" lon="14.6582717"><ele>54.166666666666664</ele><time>2026-04-18T08:32:42.873Z</time></trkpt><trkpt lat="42.1802767" lon="14.6583533"><ele>54.0</ele><time>2026-04-18T08:32:43.874Z</time></trkpt><trkpt lat="42.1802217" lon="14.6584333"><ele>54.0</ele><time>2026-04-18T08:32:44.874Z</time></trkpt><trkpt lat="42.1801683" lon="14.6585183"><ele>54.0</ele><time>2026-04-18T08:32:45.873Z</time></trkpt><trkpt lat="42.1801183" lon="14.6586067"><ele>54.0</ele><time>2026-04-18T08:32:46.874Z</time></trkpt><trkpt lat="42.18007" lon="14.658695"><ele>54.0</ele><time>2026-04-18T08:32:47.874Z</time></trkpt><trkpt lat="42.18002" lon="14.6587833"><ele>54.0</ele><time>2026-04-18T08:32:48.873Z</time></trkpt><trkpt lat="42.17997" lon="14.6588717"><ele>54.0</ele><time>2026-04-18T08:32:49.874Z</time></trkpt><trkpt lat="42.1799167" lon="14.6589683"><ele>53.833333333333336</ele><time>2026-04-18T08:32:50.873Z</time></trkpt><trkpt lat="42.1798633" lon="14.6590583"><ele>53.66666666666667</ele><time>2026-04-18T08:32:51.874Z</time></trkpt><trkpt lat="42.179815" lon="14.659145"><ele>53.5</ele><time>2026-04-18T08:32:52.874Z</time></trkpt><trkpt lat="42.1797633" lon="14.65924"><ele>53.333333333333336</ele><time>2026-04-18T08:32:53.874Z</time></trkpt><trkpt lat="42.1797167" lon="14.6593283"><ele>53.16666666666667</ele><time>2026-04-18T08:32:54.874Z</time></trkpt><trkpt lat="42.1796683" lon="14.6594167"><ele>53.0</ele><time>2026-04-18T08:32:55.873Z</time></trkpt><trkpt lat="42.17962" lon="14.659505"><ele>52.50000000000001</ele><time>2026-04-18T08:32:56.874Z</time></trkpt><trkpt lat="42.17957" lon="14.659595"><ele>52.0</ele><time>2026-04-18T08:32:57.873Z</time></trkpt><trkpt lat="42.17952" lon="14.65969"><ele>51.5</ele><time>2026-04-18T08:32:58.873Z</time></trkpt><trkpt lat="42.179465" lon="14.6597833"><ele>51.0</ele><time>2026-04-18T08:32:59.873Z</time></trkpt><trkpt lat="42.1794133" lon="14.6598767"><ele>50.50000000000001</ele><time>2026-04-18T08:33:00.874Z</time></trkpt><trkpt lat="42.1793583" lon="14.6599717"><ele>50.0</ele><time>2026-04-18T08:33:01.874Z</time></trkpt><trkpt lat="42.1793033" lon="14.660065"><ele>50.0</ele><time>2026-04-18T08:33:02.874Z</time></trkpt><trkpt lat="42.1792467" lon="14.6601583"><ele>50.0</ele><time>2026-04-18T08:33:03.873Z</time></trkpt><trkpt lat="42.17919" lon="14.660255"><ele>50.0</ele><time>2026-04-18T08:33:04.874Z</time></trkpt><trkpt lat="42.17913" lon="14.6603517"><ele>50.0</ele><time>2026-04-18T08:33:05.873Z</time></trkpt><trkpt lat="42.1790717" lon="14.660455"><ele>50.0</ele><time>2026-04-18T08:33:06.874Z</time></trkpt><trkpt lat="42.179015" lon="14.6605583"><ele>50.0</ele><time>2026-04-18T08:33:07.874Z</time></trkpt><trkpt lat="42.1789667" lon="14.66066"><ele>50.0</ele><time>2026-04-18T08:33:08.874Z</time></trkpt><trkpt lat="42.17892" lon="14.6607667"><ele>50.0</ele><time>2026-04-18T08:33:09.874Z</time></trkpt><trkpt lat="42.1788833" lon="14.66088"><ele>50.0</ele><time>2026-04-18T08:33:10.874Z</time></trkpt><trkpt lat="42.1788533" lon="14.6609983"><ele>50.0</ele><time>2026-04-18T08:33:11.874Z</time></trkpt><trkpt lat="42.1788267" lon="14.6611183"><ele>50.2</ele><time>2026-04-18T08:33:12.874Z</time></trkpt><trkpt lat="42.178805" lon="14.6612383"><ele>50.4</ele><time>2026-04-18T08:33:13.874Z</time></trkpt><trkpt lat="42.1787833" lon="14.66136"><ele>50.599999999999994</ele><time>2026-04-18T08:33:14.874Z</time></trkpt><trkpt lat="42.1787633" lon="14.6614783"><ele>50.8</ele><time>2026-04-18T08:33:15.873Z</time></trkpt><trkpt lat="42.1787383" lon="14.66159"><ele>51.0</ele><time>2026-04-18T08:33:16.874Z</time></trkpt><trkpt lat="42.17872" lon="14.6617083"><ele>51.0</ele><time>2026-04-18T08:33:17.873Z</time></trkpt><trkpt lat="42.178705" lon="14.661825"><ele>51.0</ele><time>2026-04-18T08:33:18.874Z</time></trkpt><trkpt lat="42.178685" lon="14.6619467"><ele>51.0</ele><time>2026-04-18T08:33:19.874Z</time></trkpt><trkpt lat="42.178665" lon="14.6620733"><ele>51.0</ele><time>2026-04-18T08:33:20.873Z</time></trkpt><trkpt lat="42.1786467" lon="14.6621967"><ele>51.0</ele><time>2026-04-18T08:33:21.873Z</time></trkpt><trkpt lat="42.178625" lon="14.662315"><ele>50.666666666666664</ele><time>2026-04-18T08:33:22.873Z</time></trkpt><trkpt lat="42.17861" lon="14.6624283"><ele>50.33333333333333</ele><time>2026-04-18T08:33:23.873Z</time></trkpt><trkpt lat="42.17858" lon="14.6625433"><ele>50.0</ele><time>2026-04-18T08:33:24.874Z</time></trkpt><trkpt lat="42.1785483" lon="14.6626583"><ele>49.666666666666664</ele><time>2026-04-18T08:33:25.873Z</time></trkpt><trkpt lat="42.1785067" lon="14.66277"><ele>49.33333333333333</ele><time>2026-04-18T08:33:26.874Z</time></trkpt><trkpt lat="42.17846" lon="14.6628717"><ele>49.0</ele><time>2026-04-18T08:33:27.874Z</time></trkpt><trkpt lat="42.1784083" lon="14.662975"><ele>49.0</ele><time>2026-04-18T08:33:28.873Z</time></trkpt><trkpt lat="42.1783567" lon="14.6630783"><ele>49.0</ele><time>2026-04-18T08:33:29.874Z</time></trkpt><trkpt lat="42.1783083" lon="14.6631833"><ele>49.0</ele><time>2026-04-18T08:33:30.874Z</time></trkpt><trkpt lat="42.1782583" lon="14.6632867"><ele>49.0</ele><time>2026-04-18T08:33:31.873Z</time></trkpt><trkpt lat="42.1782067" lon="14.6633817"><ele>49.0</ele><time>2026-04-18T08:33:32.874Z</time></trkpt><trkpt lat="42.178155" lon="14.6634833"><ele>49.0</ele><time>2026-04-18T08:33:33.874Z</time></trkpt><trkpt lat="42.1781067" lon="14.6635917"><ele>49.0</ele><time>2026-04-18T08:33:34.874Z</time></trkpt><trkpt lat="42.1780533" lon="14.663695"><ele>49.0</ele><time>2026-04-18T08:33:35.874Z</time></trkpt><trkpt lat="42.1780033" lon="14.66379"><ele>49.0</ele><time>2026-04-18T08:33:36.874Z</time></trkpt><trkpt lat="42.17795" lon="14.6638867"><ele>49.0</ele><time>2026-04-18T08:33:37.873Z</time></trkpt><trkpt lat="42.1778967" lon="14.6639867"><ele>48.800000000000004</ele><time>2026-04-18T08:33:38.874Z</time></trkpt><trkpt lat="42.1778467" lon="14.66409"><ele>48.6</ele><time>2026-04-18T08:33:39.874Z</time></trkpt><trkpt lat="42.177795" lon="14.6641917"><ele>48.4</ele><time>2026-04-18T08:33:40.873Z</time></trkpt><trkpt lat="42.1777367" lon="14.6642867"><ele>48.2</ele><time>2026-04-18T08:33:41.873Z</time></trkpt><trkpt lat="42.1776783" lon="14.6643783"><ele>48.0</ele><time>2026-04-18T08:33:42.874Z</time></trkpt><trkpt lat="42.1776183" lon="14.6644783"><ele>47.833333333333336</ele><time>2026-04-18T08:33:43.874Z</time></trkpt><trkpt lat="42.1775567" lon="14.6645683"><ele>47.666666666666664</ele><time>2026-04-18T08:33:44.874Z</time></trkpt><trkpt lat="42.1774917" lon="14.6646567"><ele>47.5</ele><time>2026-04-18T08:33:45.874Z</time></trkpt><trkpt lat="42.17743" lon="14.6647417"><ele>47.33333333333333</ele><time>2026-04-18T08:33:46.874Z</time></trkpt><trkpt lat="42.1773633" lon="14.6648267"><ele>47.166666666666664</ele><time>2026-04-18T08:33:47.874Z</time></trkpt><trkpt lat="42.1773" lon="14.6649033"><ele>47.0</ele><time>2026-04-18T08:33:48.874Z</time></trkpt><trkpt lat="42.17723" lon="14.6649817"><ele>47.33333333333333</ele><time>2026-04-18T08:33:49.874Z</time></trkpt><trkpt lat="42.1771567" lon="14.6650567"><ele>47.666666666666664</ele><time>2026-04-18T08:33:50.873Z</time></trkpt><trkpt lat="42.1771" lon="14.6651333"><ele>48.0</ele><time>2026-04-18T08:33:51.874Z</time></trkpt><trkpt lat="42.17703" lon="14.6652183"><ele>48.33333333333333</ele><time>2026-04-18T08:33:52.874Z</time></trkpt><trkpt lat="42.1769583" lon="14.6653"><ele>48.666666666666664</ele><time>2026-04-18T08:33:53.874Z</time></trkpt><trkpt lat="42.1768917" lon="14.6653783"><ele>49.0</ele><time>2026-04-18T08:33:54.873Z</time></trkpt><trkpt lat="42.1768233" lon="14.6654533"><ele>48.99999999999999</ele><time>2026-04-18T08:33:55.874Z</time></trkpt><trkpt lat="42.176755" lon="14.665535"><ele>49.0</ele><time>2026-04-18T08:33:56.874Z</time></trkpt><trkpt lat="42.17669" lon="14.6656133"><ele>49.0</ele><time>2026-04-18T08:33:57.874Z</time></trkpt><trkpt lat="42.1766217" lon="14.66569"><ele>49.0</ele><time>2026-04-18T08:33:58.874Z</time></trkpt><trkpt lat="42.1765567" lon="14.66577"><ele>48.99999999999999</ele><time>2026-04-18T08:33:59.873Z</time></trkpt><trkpt lat="42.17649" lon="14.6658467"><ele>49.0</ele><time>2026-04-18T08:34:00.873Z</time></trkpt><trkpt lat="42.1764183" lon="14.6659183"><ele>49.0</ele><time>2026-04-18T08:34:01.874Z</time></trkpt><trkpt lat="42.17635" lon="14.66599"><ele>49.0</ele><time>2026-04-18T08:34:02.874Z</time></trkpt><trkpt lat="42.1762733" lon="14.6660583"><ele>49.0</ele><time>2026-04-18T08:34:03.874Z</time></trkpt><trkpt lat="42.1762" lon="14.6661217"><ele>49.0</ele><time>2026-04-18T08:34:04.874Z</time></trkpt><trkpt lat="42.17612" lon="14.6661867"><ele>49.0</ele><time>2026-04-18T08:34:05.874Z</time></trkpt><trkpt lat="42.1760367" lon="14.6662517"><ele>48.400000000000006</ele><time>2026-04-18T08:34:06.874Z</time></trkpt><trkpt lat="42.1759483" lon="14.66631"><ele>47.8</ele><time>2026-04-18T08:34:07.873Z</time></trkpt><trkpt lat="42.175855" lon="14.66637"><ele>47.2</ele><time>2026-04-18T08:34:08.874Z</time></trkpt><trkpt lat="42.1757633" lon="14.6664317"><ele>46.599999999999994</ele><time>2026-04-18T08:34:09.874Z</time></trkpt><trkpt lat="42.1756733" lon="14.6665017"><ele>46.0</ele><time>2026-04-18T08:34:10.873Z</time></trkpt><trkpt lat="42.1755833" lon="14.666585"><ele>45.25</ele><time>2026-04-18T08:34:11.873Z</time></trkpt><trkpt lat="42.1754883" lon="14.6666683"><ele>44.5</ele><time>2026-04-18T08:34:12.874Z</time></trkpt><trkpt lat="42.175395" lon="14.66676"><ele>43.75</ele><time>2026-04-18T08:34:13.873Z</time></trkpt><trkpt lat="42.1753083" lon="14.666865"><ele>43.0</ele><time>2026-04-18T08:34:14.874Z</time></trkpt><trkpt lat="42.1752183" lon="14.6669717"><ele>42.5</ele><time>2026-04-18T08:34:15.874Z</time></trkpt><trkpt lat="42.1751217" lon="14.6670883"><ele>42.0</ele><time>2026-04-18T08:34:16.874Z</time></trkpt><trkpt lat="42.17503" lon="14.6671933"><ele>41.5</ele><time>2026-04-18T08:34:17.873Z</time></trkpt><trkpt lat="42.1749383" lon="14.6673017"><ele>41.0</ele><time>2026-04-18T08:34:18.873Z</time></trkpt><trkpt lat="42.1748533" lon="14.6674033"><ele>41.8</ele><time>2026-04-18T08:34:19.874Z</time></trkpt><trkpt lat="42.1747717" lon="14.6674967"><ele>42.599999999999994</ele><time>2026-04-18T08:34:20.873Z</time></trkpt><trkpt lat="42.1746983" lon="14.6675833"><ele>43.4</ele><time>2026-04-18T08:34:21.874Z</time></trkpt><trkpt lat="42.1746317" lon="14.667655"><ele>44.2</ele><time>2026-04-18T08:34:22.873Z</time></trkpt><trkpt lat="42.1745683" lon="14.6677283"><ele>45.0</ele><time>2026-04-18T08:34:23.873Z</time></trkpt><trkpt lat="42.17451" lon="14.667795"><ele>45.4</ele><time>2026-04-18T08:34:24.874Z</time></trkpt><trkpt lat="42.1744583" lon="14.6678683"><ele>45.8</ele><time>2026-04-18T08:34:25.873Z</time></trkpt><trkpt lat="42.1744117" lon="14.6679433"><ele>46.2</ele><time>2026-04-18T08:34:26.874Z</time></trkpt><trkpt lat="42.1743733" lon="14.6680167"><ele>46.6</ele><time>2026-04-18T08:34:27.874Z</time></trkpt><trkpt lat="42.1743267" lon="14.6681683"><ele>47.0</ele><time>2026-04-18T08:34:29.874Z</time></trkpt><trkpt lat="42.174305" lon="14.6683233"><ele>47.0</ele><time>2026-04-18T08:34:31.874Z</time></trkpt><trkpt lat="42.1742933" lon="14.6684583"><ele>47.0</ele><time>2026-04-18T08:34:33.874Z</time></trkpt><trkpt lat="42.1742767" lon="14.6685933"><ele>47.0</ele><time>2026-04-18T08:34:35.873Z</time></trkpt><trkpt lat="42.17426" lon="14.6687333"><ele>47.0</ele><time>2026-04-18T08:34:37.874Z</time></trkpt><trkpt lat="42.1742417" lon="14.6688567"><ele>47.0</ele><time>2026-04-18T08:34:39.874Z</time></trkpt><trkpt lat="42.1742117" lon="14.6689717"><ele>47.0</ele><time>2026-04-18T08:34:41.873Z</time></trkpt><trkpt lat="42.1741833" lon="14.6691067"><ele>47.0</ele><time>2026-04-18T08:34:43.873Z</time></trkpt><trkpt lat="42.1741433" lon="14.6692483"><ele>47.0</ele><time>2026-04-18T08:34:45.873Z</time></trkpt><trkpt lat="42.1740933" lon="14.6693967"><ele>47.0</ele><time>2026-04-18T08:34:47.874Z</time></trkpt><trkpt lat="42.1740633" lon="14.6694717"><ele>47.0</ele><time>2026-04-18T08:34:48.874Z</time></trkpt><trkpt lat="42.1740083" lon="14.6696217"><ele>47.166666666666664</ele><time>2026-04-18T08:34:50.873Z</time></trkpt><trkpt lat="42.1739767" lon="14.6697"><ele>47.33333333333333</ele><time>2026-04-18T08:34:51.874Z</time></trkpt><trkpt lat="42.1739133" lon="14.6698483"><ele>47.5</ele><time>2026-04-18T08:34:53.874Z</time></trkpt><trkpt lat="42.1738783" lon="14.66993"><ele>47.666666666666664</ele><time>2026-04-18T08:34:54.874Z</time></trkpt><trkpt lat="42.1738467" lon="14.6700083"><ele>47.833333333333336</ele><time>2026-04-18T08:34:55.874Z</time></trkpt><trkpt lat="42.1738117" lon="14.6700867"><ele>48.0</ele><time>2026-04-18T08:34:56.873Z</time></trkpt><trkpt lat="42.1737767" lon="14.67017"><ele>47.99999999999999</ele><time>2026-04-18T08:34:57.874Z</time></trkpt><trkpt lat="42.173745" lon="14.6702533"><ele>48.0</ele><time>2026-04-18T08:34:58.874Z</time></trkpt><trkpt lat="42.1737117" lon="14.6703383"><ele>48.0</ele><time>2026-04-18T08:34:59.874Z</time></trkpt><trkpt lat="42.1736733" lon="14.6704233"><ele>48.0</ele><time>2026-04-18T08:35:00.874Z</time></trkpt><trkpt lat="42.17364" lon="14.670505"><ele>48.0</ele><time>2026-04-18T08:35:01.873Z</time></trkpt><trkpt lat="42.173605" lon="14.6705917"><ele>47.99999999999999</ele><time>2026-04-18T08:35:02.874Z</time></trkpt><trkpt lat="42.17357" lon="14.6706733"><ele>48.0</ele><time>2026-04-18T08:35:03.874Z</time></trkpt><trkpt lat="42.173535" lon="14.6707567"><ele>47.833333333333336</ele><time>2026-04-18T08:35:04.874Z</time></trkpt><trkpt lat="42.1734933" lon="14.6708467"><ele>47.666666666666664</ele><time>2026-04-18T08:35:05.874Z</time></trkpt><trkpt lat="42.1734517" lon="14.6709467"><ele>47.5</ele><time>2026-04-18T08:35:06.874Z</time></trkpt><trkpt lat="42.1734117" lon="14.6710483"><ele>47.33333333333333</ele><time>2026-04-18T08:35:07.874Z</time></trkpt><trkpt lat="42.1733717" lon="14.67115"><ele>47.166666666666664</ele><time>2026-04-18T08:35:08.873Z</time></trkpt><trkpt lat="42.1733233" lon="14.6712617"><ele>47.0</ele><time>2026-04-18T08:35:09.873Z</time></trkpt><trkpt lat="42.1732783" lon="14.67138"><ele>46.400000000000006</ele><time>2026-04-18T08:35:10.874Z</time></trkpt><trkpt lat="42.1732283" lon="14.6714967"><ele>45.800000000000004</ele><time>2026-04-18T08:35:11.873Z</time></trkpt><trkpt lat="42.1731717" lon="14.671615"><ele>45.2</ele><time>2026-04-18T08:35:12.874Z</time></trkpt><trkpt lat="42.1731167" lon="14.6717517"><ele>44.6</ele><time>2026-04-18T08:35:13.874Z</time></trkpt><trkpt lat="42.1730583" lon="14.6718817"><ele>44.0</ele><time>2026-04-18T08:35:14.873Z</time></trkpt><trkpt lat="42.1730067" lon="14.6720117"><ele>44.0</ele><time>2026-04-18T08:35:15.873Z</time></trkpt><trkpt lat="42.1729567" lon="14.6721383"><ele>44.0</ele><time>2026-04-18T08:35:16.874Z</time></trkpt><trkpt lat="42.1729" lon="14.67226"><ele>44.0</ele><time>2026-04-18T08:35:17.873Z</time></trkpt><trkpt lat="42.1728517" lon="14.67238"><ele>44.0</ele><time>2026-04-18T08:35:18.874Z</time></trkpt><trkpt lat="42.1728033" lon="14.6724983"><ele>44.0</ele><time>2026-04-18T08:35:19.874Z</time></trkpt><trkpt lat="42.1727617" lon="14.6726083"><ele>44.0</ele><time>2026-04-18T08:35:20.874Z</time></trkpt><trkpt lat="42.172715" lon="14.6727067"><ele>44.0</ele><time>2026-04-18T08:35:21.874Z</time></trkpt><trkpt lat="42.17267" lon="14.672795"><ele>44.0</ele><time>2026-04-18T08:35:22.873Z</time></trkpt><trkpt lat="42.1726183" lon="14.6728733"><ele>44.0</ele><time>2026-04-18T08:35:23.874Z</time></trkpt><trkpt lat="42.1725667" lon="14.67294"><ele>44.0</ele><time>2026-04-18T08:35:24.874Z</time></trkpt><trkpt lat="42.1725117" lon="14.673005"><ele>44.0</ele><time>2026-04-18T08:35:25.874Z</time></trkpt><trkpt lat="42.17246" lon="14.673065"><ele>44.0</ele><time>2026-04-18T08:35:26.873Z</time></trkpt><trkpt lat="42.17241" lon="14.673125"><ele>44.0</ele><time>2026-04-18T08:35:27.874Z</time></trkpt><trkpt lat="42.17236" lon="14.6731833"><ele>44.0</ele><time>2026-04-18T08:35:28.873Z</time></trkpt><trkpt lat="42.1723083" lon="14.6732383"><ele>44.0</ele><time>2026-04-18T08:35:29.874Z</time></trkpt><trkpt lat="42.17222" lon="14.6733433"><ele>44.0</ele><time>2026-04-18T08:35:31.873Z</time></trkpt><trkpt lat="42.1721383" lon="14.6734633"><ele>44.0</ele><time>2026-04-18T08:35:33.873Z</time></trkpt><trkpt lat="42.1720683" lon="14.6735833"><ele>44.75</ele><time>2026-04-18T08:35:35.874Z</time></trkpt><trkpt lat="42.1719983" lon="14.673705"><ele>45.5</ele><time>2026-04-18T08:35:37.874Z</time></trkpt><trkpt lat="42.1719317" lon="14.6738417"><ele>46.25</ele><time>2026-04-18T08:35:39.874Z</time></trkpt><trkpt lat="42.171865" lon="14.6739817"><ele>47.0</ele><time>2026-04-18T08:35:41.873Z</time></trkpt><trkpt lat="42.1718" lon="14.6741133"><ele>47.0</ele><time>2026-04-18T08:35:43.873Z</time></trkpt><trkpt lat="42.1717317" lon="14.6742433"><ele>47.0</ele><time>2026-04-18T08:35:45.874Z</time></trkpt><trkpt lat="42.171665" lon="14.6743767"><ele>47.0</ele><time>2026-04-18T08:35:47.874Z</time></trkpt><trkpt lat="42.1715933" lon="14.6745083"><ele>47.0</ele><time>2026-04-18T08:35:49.873Z</time></trkpt><trkpt lat="42.171515" lon="14.67463"><ele>47.2</ele><time>2026-04-18T08:35:51.873Z</time></trkpt><trkpt lat="42.1714317" lon="14.674745"><ele>47.400000000000006</ele><time>2026-04-18T08:35:53.873Z</time></trkpt><trkpt lat="42.1713467" lon="14.674845"><ele>47.599999999999994</ele><time>2026-04-18T08:35:55.873Z</time></trkpt><trkpt lat="42.171255" lon="14.6749"><ele>47.8</ele><time>2026-04-18T08:35:57.873Z</time></trkpt><trkpt lat="42.1712183" lon="14.6750167"><ele>48.0</ele><time>2026-04-18T08:36:37.874Z</time></trkpt><trkpt lat="42.1712733" lon="14.6750883"><ele>48.0</ele><time>2026-04-18T08:36:39.874Z</time></trkpt><trkpt lat="42.1713417" lon="14.6751383"><ele>48.0</ele><time>2026-04-18T08:36:41.874Z</time></trkpt><trkpt lat="42.1714017" lon="14.6751733"><ele>48.0</ele><time>2026-04-18T08:36:43.874Z</time></trkpt><trkpt lat="42.1714567" lon="14.675215"><ele>48.0</ele><time>2026-04-18T08:36:45.874Z</time></trkpt><trkpt lat="42.1715217" lon="14.6752617"><ele>48.0</ele><time>2026-04-18T08:36:47.874Z</time></trkpt><trkpt lat="42.17159" lon="14.6753133"><ele>48.0</ele><time>2026-04-18T08:36:49.874Z</time></trkpt><trkpt lat="42.1716767" lon="14.6753683"><ele>47.2</ele><time>2026-04-18T08:36:51.874Z</time></trkpt><trkpt lat="42.1717667" lon="14.6754217"><ele>46.4</ele><time>2026-04-18T08:36:53.873Z</time></trkpt><trkpt lat="42.1718533" lon="14.6754883"><ele>45.6</ele><time>2026-04-18T08:36:55.874Z</time></trkpt><trkpt lat="42.1719417" lon="14.675555"><ele>44.800000000000004</ele><time>2026-04-18T08:36:57.874Z</time></trkpt><trkpt lat="42.172025" lon="14.67562"><ele>44.0</ele><time>2026-04-18T08:36:59.874Z</time></trkpt><trkpt lat="42.17212" lon="14.675685"><ele>44.0</ele><time>2026-04-18T08:37:01.873Z</time></trkpt><trkpt lat="42.17221" lon="14.67575"><ele>44.0</ele><time>2026-04-18T08:37:03.874Z</time></trkpt><trkpt lat="42.1723033" lon="14.6758133"><ele>44.0</ele><time>2026-04-18T08:37:05.873Z</time></trkpt><trkpt lat="42.1723967" lon="14.675885"><ele>44.0</ele><time>2026-04-18T08:37:07.873Z</time></trkpt><trkpt lat="42.172485" lon="14.6759517"><ele>44.0</ele><time>2026-04-18T08:37:09.873Z</time></trkpt><trkpt lat="42.1725733" lon="14.67602"><ele>43.800000000000004</ele><time>2026-04-18T08:37:11.873Z</time></trkpt><trkpt lat="42.172665" lon="14.6760833"><ele>43.6</ele><time>2026-04-18T08:37:13.873Z</time></trkpt><trkpt lat="42.1727567" lon="14.6761483"><ele>43.4</ele><time>2026-04-18T08:37:15.873Z</time></trkpt><trkpt lat="42.1728533" lon="14.6762067"><ele>43.2</ele><time>2026-04-18T08:37:17.873Z</time></trkpt><trkpt lat="42.1729517" lon="14.6762567"><ele>43.0</ele><time>2026-04-18T08:37:19.873Z</time></trkpt><trkpt lat="42.1730433" lon="14.67633"><ele>42.599999999999994</ele><time>2026-04-18T08:37:21.873Z</time></trkpt><trkpt lat="42.1731433" lon="14.6763983"><ele>42.199999999999996</ele><time>2026-04-18T08:37:23.874Z</time></trkpt><trkpt lat="42.1732383" lon="14.6764733"><ele>41.8</ele><time>2026-04-18T08:37:25.873Z</time></trkpt><trkpt lat="42.1733333" lon="14.67654"><ele>41.4</ele><time>2026-04-18T08:37:27.874Z</time></trkpt><trkpt lat="42.17342" lon="14.6765917"><ele>41.0</ele><time>2026-04-18T08:37:29.874Z</time></trkpt><trkpt lat="42.173525" lon="14.6766517"><ele>41.0</ele><time>2026-04-18T08:37:31.874Z</time></trkpt><trkpt lat="42.173585" lon="14.6766917"><ele>41.0</ele><time>2026-04-18T08:37:32.874Z</time></trkpt><trkpt lat="42.1736483" lon="14.6767383"><ele>41.0</ele><time>2026-04-18T08:37:33.874Z</time></trkpt><trkpt lat="42.1737083" lon="14.6767833"><ele>41.0</ele><time>2026-04-18T08:37:34.874Z</time></trkpt><trkpt lat="42.1737633" lon="14.6768333"><ele>41.0</ele><time>2026-04-18T08:37:35.874Z</time></trkpt><trkpt lat="42.1738633" lon="14.67693"><ele>41.0</ele><time>2026-04-18T08:37:37.873Z</time></trkpt><trkpt lat="42.17392" lon="14.67698"><ele>41.0</ele><time>2026-04-18T08:37:38.874Z</time></trkpt><trkpt lat="42.173975" lon="14.677025"><ele>41.0</ele><time>2026-04-18T08:37:39.874Z</time></trkpt><trkpt lat="42.174025" lon="14.6770783"><ele>41.0</ele><time>2026-04-18T08:37:40.874Z</time></trkpt><trkpt lat="42.1740767" lon="14.6771283"><ele>41.0</ele><time>2026-04-18T08:37:41.873Z</time></trkpt><trkpt lat="42.1741717" lon="14.6772033"><ele>41.0</ele><time>2026-04-18T08:37:43.874Z</time></trkpt><trkpt lat="42.17426" lon="14.677285"><ele>41.0</ele><time>2026-04-18T08:37:45.874Z</time></trkpt><trkpt lat="42.1743567" lon="14.677365"><ele>40.599999999999994</ele><time>2026-04-18T08:37:47.874Z</time></trkpt><trkpt lat="42.174465" lon="14.67743"><ele>40.199999999999996</ele><time>2026-04-18T08:37:49.874Z</time></trkpt><trkpt lat="42.174575" lon="14.6774667"><ele>39.8</ele><time>2026-04-18T08:37:51.874Z</time></trkpt><trkpt lat="42.174685" lon="14.677495"><ele>39.4</ele><time>2026-04-18T08:37:53.873Z</time></trkpt><trkpt lat="42.1747833" lon="14.67751"><ele>39.0</ele><time>2026-04-18T08:37:55.873Z</time></trkpt><trkpt lat="42.174875" lon="14.67751"><ele>38.833333333333336</ele><time>2026-04-18T08:37:57.873Z</time></trkpt><trkpt lat="42.1749633" lon="14.6775117"><ele>38.666666666666664</ele><time>2026-04-18T08:37:59.874Z</time></trkpt><trkpt lat="42.1750517" lon="14.6775167"><ele>38.5</ele><time>2026-04-18T08:38:01.874Z</time></trkpt><trkpt lat="42.1751417" lon="14.6775133"><ele>38.33333333333333</ele><time>2026-04-18T08:38:03.874Z</time></trkpt><trkpt lat="42.1752283" lon="14.677505"><ele>38.166666666666664</ele><time>2026-04-18T08:38:05.874Z</time></trkpt><trkpt lat="42.1753133" lon="14.6774783"><ele>38.0</ele><time>2026-04-18T08:38:07.874Z</time></trkpt><trkpt lat="42.1754" lon="14.6774433"><ele>38.0</ele><time>2026-04-18T08:38:09.873Z</time></trkpt><trkpt lat="42.1754817" lon="14.67739"><ele>38.0</ele><time>2026-04-18T08:38:11.873Z</time></trkpt><trkpt lat="42.1755533" lon="14.6773517"><ele>38.0</ele><time>2026-04-18T08:38:13.874Z</time></trkpt><trkpt lat="42.1756283" lon="14.67736"><ele>38.0</ele><time>2026-04-18T08:38:16.873Z</time></trkpt><trkpt lat="42.17567" lon="14.6774283"><ele>38.0</ele><time>2026-04-18T08:38:19.874Z</time></trkpt><trkpt lat="42.175695" lon="14.6775417"><ele>38.0</ele><time>2026-04-18T08:38:22.873Z</time></trkpt><trkpt lat="42.1756917" lon="14.6776383"><ele>38.0</ele><time>2026-04-18T08:38:24.873Z</time></trkpt><trkpt lat="42.1756867" lon="14.6777483"><ele>38.0</ele><time>2026-04-18T08:38:26.873Z</time></trkpt><trkpt lat="42.1756633" lon="14.6778633"><ele>38.0</ele><time>2026-04-18T08:38:28.873Z</time></trkpt><trkpt lat="42.1756417" lon="14.6779767"><ele>38.0</ele><time>2026-04-18T08:38:30.873Z</time></trkpt><trkpt lat="42.175615" lon="14.6780817"><ele>38.0</ele><time>2026-04-18T08:38:32.874Z</time></trkpt><trkpt lat="42.1755883" lon="14.6781917"><ele>38.0</ele><time>2026-04-18T08:38:34.873Z</time></trkpt><trkpt lat="42.175555" lon="14.6782917"><ele>37.8</ele><time>2026-04-18T08:38:36.874Z</time></trkpt><trkpt lat="42.1754983" lon="14.6783883"><ele>37.599999999999994</ele><time>2026-04-18T08:38:38.873Z</time></trkpt><trkpt lat="42.175435" lon="14.6784783"><ele>37.400000000000006</ele><time>2026-04-18T08:38:40.874Z</time></trkpt><trkpt lat="42.1753717" lon="14.67857"><ele>37.2</ele><time>2026-04-18T08:38:42.874Z</time></trkpt><trkpt lat="42.17531" lon="14.6786767"><ele>37.0</ele><time>2026-04-18T08:38:44.873Z</time></trkpt><trkpt lat="42.1752483" lon="14.67878"><ele>37.0</ele><time>2026-04-18T08:38:46.874Z</time></trkpt><trkpt lat="42.1751933" lon="14.6788933"><ele>37.0</ele><time>2026-04-18T08:38:48.873Z</time></trkpt><trkpt lat="42.1751483" lon="14.6790217"><ele>37.0</ele><time>2026-04-18T08:38:50.873Z</time></trkpt><trkpt lat="42.1751317" lon="14.679165"><ele>37.0</ele><time>2026-04-18T08:38:52.874Z</time></trkpt><trkpt lat="42.175155" lon="14.679315"><ele>37.0</ele><time>2026-04-18T08:38:54.874Z</time></trkpt><trkpt lat="42.1752267" lon="14.6794417"><ele>36.800000000000004</ele><time>2026-04-18T08:38:56.873Z</time></trkpt><trkpt lat="42.1752983" lon="14.679555"><ele>36.6</ele><time>2026-04-18T08:38:58.874Z</time></trkpt><trkpt lat="42.1753733" lon="14.6796583"><ele>36.400000000000006</ele><time>2026-04-18T08:39:00.874Z</time></trkpt><trkpt lat="42.1754417" lon="14.6797667"><ele>36.2</ele><time>2026-04-18T08:39:02.873Z</time></trkpt><trkpt lat="42.1755167" lon="14.6798633"><ele>36.0</ele><time>2026-04-18T08:39:04.873Z</time></trkpt><trkpt lat="42.1756117" lon="14.6798817"><ele>36.0</ele><time>2026-04-18T08:39:06.874Z</time></trkpt><trkpt lat="42.1757233" lon="14.6798683"><ele>36.0</ele><time>2026-04-18T08:39:08.874Z</time></trkpt><trkpt lat="42.175835" lon="14.679865"><ele>36.0</ele><time>2026-04-18T08:39:10.874Z</time></trkpt><trkpt lat="42.17594" lon="14.67986"><ele>36.0</ele><time>2026-04-18T08:39:12.874Z</time></trkpt><trkpt lat="42.1760467" lon="14.67986"><ele>36.0</ele><time>2026-04-18T08:39:14.874Z</time></trkpt><trkpt lat="42.176155" lon="14.6798533"><ele>36.0</ele><time>2026-04-18T08:39:16.873Z</time></trkpt><trkpt lat="42.1762717" lon="14.6798467"><ele>36.0</ele><time>2026-04-18T08:39:18.873Z</time></trkpt><trkpt lat="42.1763883" lon="14.6798317"><ele>36.0</ele><time>2026-04-18T08:39:20.873Z</time></trkpt><trkpt lat="42.1765" lon="14.6798233"><ele>36.0</ele><time>2026-04-18T08:39:22.874Z</time></trkpt><trkpt lat="42.17662" lon="14.6798183"><ele>36.2</ele><time>2026-04-18T08:39:24.873Z</time></trkpt><trkpt lat="42.176725" lon="14.679805"><ele>36.400000000000006</ele><time>2026-04-18T08:39:26.874Z</time></trkpt><trkpt lat="42.1768317" lon="14.6797967"><ele>36.6</ele><time>2026-04-18T08:39:28.873Z</time></trkpt><trkpt lat="42.1769383" lon="14.679785"><ele>36.800000000000004</ele><time>2026-04-18T08:39:30.873Z</time></trkpt><trkpt lat="42.1770367" lon="14.67978"><ele>37.0</ele><time>2026-04-18T08:39:32.874Z</time></trkpt><trkpt lat="42.1771333" lon="14.6797717"><ele>37.0</ele><time>2026-04-18T08:39:34.874Z</time></trkpt><trkpt lat="42.17723" lon="14.67976"><ele>37.0</ele><time>2026-04-18T08:39:36.873Z</time></trkpt><trkpt lat="42.1773317" lon="14.67975"><ele>37.0</ele><time>2026-04-18T08:39:38.874Z</time></trkpt><trkpt lat="42.1774267" lon="14.6797483"><ele>37.0</ele><time>2026-04-18T08:39:40.874Z</time></trkpt><trkpt lat="42.1775217" lon="14.6797483"><ele>37.0</ele><time>2026-04-18T08:39:42.874Z</time></trkpt><trkpt lat="42.177625" lon="14.6797383"><ele>36.6</ele><time>2026-04-18T08:39:44.874Z</time></trkpt><trkpt lat="42.1777283" lon="14.6797283"><ele>36.2</ele><time>2026-04-18T08:39:46.874Z</time></trkpt><trkpt lat="42.1778317" lon="14.6797217"><ele>35.8</ele><time>2026-04-18T08:39:48.874Z</time></trkpt><trkpt lat="42.1779383" lon="14.6797133"><ele>35.4</ele><time>2026-04-18T08:39:50.874Z</time></trkpt><trkpt lat="42.1780467" lon="14.6797067"><ele>35.0</ele><time>2026-04-18T08:39:52.873Z</time></trkpt><trkpt lat="42.1781633" lon="14.6796917"><ele>34.0</ele><time>2026-04-18T08:39:54.873Z</time></trkpt><trkpt lat="42.1782767" lon="14.6796783"><ele>33.0</ele><time>2026-04-18T08:39:56.873Z</time></trkpt><trkpt lat="42.1783783" lon="14.6796767"><ele>32.0</ele><time>2026-04-18T08:39:58.874Z</time></trkpt><trkpt lat="42.178455" lon="14.679735"><ele>31.0</ele><time>2026-04-18T08:40:00.874Z</time></trkpt><trkpt lat="42.178485" lon="14.679855"><ele>30.0</ele><time>2026-04-18T08:40:02.874Z</time></trkpt><trkpt lat="42.1784883" lon="14.67999"><ele>30.0</ele><time>2026-04-18T08:40:04.874Z</time></trkpt><trkpt lat="42.1784717" lon="14.68013"><ele>30.0</ele><time>2026-04-18T08:40:06.874Z</time></trkpt><trkpt lat="42.1784733" lon="14.680275"><ele>30.0</ele><time>2026-04-18T08:40:08.874Z</time></trkpt><trkpt lat="42.1785133" lon="14.6804083"><ele>30.0</ele><time>2026-04-18T08:40:10.874Z</time></trkpt><trkpt lat="42.1785867" lon="14.6805133"><ele>30.0</ele><time>2026-04-18T08:40:12.873Z</time></trkpt><trkpt lat="42.1786517" lon="14.68063"><ele>30.2</ele><time>2026-04-18T08:40:14.874Z</time></trkpt><trkpt lat="42.1786983" lon="14.680745"><ele>30.4</ele><time>2026-04-18T08:40:16.873Z</time></trkpt><trkpt lat="42.1787433" lon="14.6808633"><ele>30.6</ele><time>2026-04-18T08:40:18.874Z</time></trkpt><trkpt lat="42.178775" lon="14.6809983"><ele>30.8</ele><time>2026-04-18T08:40:20.874Z</time></trkpt><trkpt lat="42.1788017" lon="14.6811317"><ele>31.0</ele><time>2026-04-18T08:40:22.874Z</time></trkpt><trkpt lat="42.178835" lon="14.6812733"><ele>31.0</ele><time>2026-04-18T08:40:24.874Z</time></trkpt><trkpt lat="42.1788583" lon="14.6814133"><ele>31.0</ele><time>2026-04-18T08:40:26.874Z</time></trkpt><trkpt lat="42.1788833" lon="14.6815517"><ele>31.0</ele><time>2026-04-18T08:40:28.874Z</time></trkpt><trkpt lat="42.17892" lon="14.6816783"><ele>31.0</ele><time>2026-04-18T08:40:30.874Z</time></trkpt><trkpt lat="42.1789733" lon="14.6818017"><ele>31.0</ele><time>2026-04-18T08:40:32.873Z</time></trkpt><trkpt lat="42.1790383" lon="14.6819167"><ele>29.0</ele><time>2026-04-18T08:40:34.874Z</time></trkpt><trkpt lat="42.1791133" lon="14.68204"><ele>27.0</ele><time>2026-04-18T08:40:36.874Z</time></trkpt><trkpt lat="42.1791817" lon="14.682175"><ele>25.0</ele><time>2026-04-18T08:40:38.873Z</time></trkpt><trkpt lat="42.17924" lon="14.6823117"><ele>23.0</ele><time>2026-04-18T08:40:40.874Z</time></trkpt><trkpt lat="42.1792583" lon="14.6824633"><ele>23.0</ele><time>2026-04-18T08:40:42.874Z</time></trkpt><trkpt lat="42.179245" lon="14.6826067"><ele>23.0</ele><time>2026-04-18T08:40:44.873Z</time></trkpt><trkpt lat="42.1792233" lon="14.682745"><ele>23.0</ele><time>2026-04-18T08:40:46.874Z</time></trkpt><trkpt lat="42.17919" lon="14.6828767"><ele>23.0</ele><time>2026-04-18T08:40:48.874Z</time></trkpt><trkpt lat="42.17916" lon="14.682985"><ele>23.0</ele><time>2026-04-18T08:40:50.874Z</time></trkpt><trkpt lat="42.1791317" lon="14.68308"><ele>22.2</ele><time>2026-04-18T08:40:52.874Z</time></trkpt><trkpt lat="42.1791183" lon="14.6831783"><ele>21.4</ele><time>2026-04-18T08:40:54.873Z</time></trkpt><trkpt lat="42.1791417" lon="14.683275"><ele>20.599999999999998</ele><time>2026-04-18T08:40:56.874Z</time></trkpt><trkpt lat="42.1791633" lon="14.683405"><ele>19.799999999999997</ele><time>2026-04-18T08:40:58.874Z</time></trkpt><trkpt lat="42.179165" lon="14.6835533"><ele>19.0</ele><time>2026-04-18T08:41:00.873Z</time></trkpt><trkpt lat="42.1791217" lon="14.68372"><ele>18.57142857142857</ele><time>2026-04-18T08:41:02.874Z</time></trkpt><trkpt lat="42.17908" lon="14.683805"><ele>18.142857142857146</ele><time>2026-04-18T08:41:03.874Z</time></trkpt><trkpt lat="42.17903" lon="14.6838767"><ele>17.714285714285715</ele><time>2026-04-18T08:41:04.873Z</time></trkpt><trkpt lat="42.1789767" lon="14.6839333"><ele>17.285714285714285</ele><time>2026-04-18T08:41:05.874Z</time></trkpt><trkpt lat="42.1789217" lon="14.6839867"><ele>16.857142857142854</ele><time>2026-04-18T08:41:06.874Z</time></trkpt><trkpt lat="42.178865" lon="14.6840433"><ele>16.428571428571427</ele><time>2026-04-18T08:41:07.873Z</time></trkpt><trkpt lat="42.1788033" lon="14.6840983"><ele>16.0</ele><time>2026-04-18T08:41:08.874Z</time></trkpt><trkpt lat="42.1787383" lon="14.6841517"><ele>15.999999999999998</ele><time>2026-04-18T08:41:09.874Z</time></trkpt><trkpt lat="42.17867" lon="14.684205"><ele>16.0</ele><time>2026-04-18T08:41:10.874Z</time></trkpt><trkpt lat="42.1786" lon="14.68425"><ele>16.0</ele><time>2026-04-18T08:41:11.874Z</time></trkpt><trkpt lat="42.178535" lon="14.684285"><ele>16.0</ele><time>2026-04-18T08:41:12.874Z</time></trkpt><trkpt lat="42.1784733" lon="14.68431"><ele>15.999999999999998</ele><time>2026-04-18T08:41:13.874Z</time></trkpt><trkpt lat="42.17835" lon="14.6843433"><ele>16.0</ele><time>2026-04-18T08:41:15.874Z</time></trkpt><trkpt lat="42.1782833" lon="14.6843683"><ele>15.999999999999998</ele><time>2026-04-18T08:41:16.874Z</time></trkpt><trkpt lat="42.17821" lon="14.6843933"><ele>16.0</ele><time>2026-04-18T08:41:17.873Z</time></trkpt><trkpt lat="42.1781317" lon="14.6844117"><ele>16.0</ele><time>2026-04-18T08:41:18.874Z</time></trkpt><trkpt lat="42.1780517" lon="14.68442"><ele>16.0</ele><time>2026-04-18T08:41:19.874Z</time></trkpt><trkpt lat="42.1779667" lon="14.684435"><ele>15.999999999999998</ele><time>2026-04-18T08:41:20.873Z</time></trkpt><trkpt lat="42.1778983" lon="14.6844517"><ele>16.0</ele><time>2026-04-18T08:41:21.874Z</time></trkpt><trkpt lat="42.177775" lon="14.68449"><ele>15.200000000000001</ele><time>2026-04-18T08:41:23.874Z</time></trkpt><trkpt lat="42.177685" lon="14.6845733"><ele>14.400000000000002</ele><time>2026-04-18T08:41:25.873Z</time></trkpt><trkpt lat="42.1776533" lon="14.684705"><ele>13.6</ele><time>2026-04-18T08:41:27.874Z</time></trkpt><trkpt lat="42.177635" lon="14.68481"><ele>12.8</ele><time>2026-04-18T08:41:29.874Z</time></trkpt><trkpt lat="42.1776333" lon="14.68492"><ele>12.0</ele><time>2026-04-18T08:41:31.874Z</time></trkpt><trkpt lat="42.1776983" lon="14.685025"><ele>12.0</ele><time>2026-04-18T08:41:33.873Z</time></trkpt><trkpt lat="42.17781" lon="14.6851183"><ele>12.0</ele><time>2026-04-18T08:41:35.874Z</time></trkpt><trkpt lat="42.177875" lon="14.68517"><ele>12.0</ele><time>2026-04-18T08:41:36.874Z</time></trkpt><trkpt lat="42.1779417" lon="14.68523"><ele>12.0</ele><time>2026-04-18T08:41:37.873Z</time></trkpt><trkpt lat="42.1780117" lon="14.685295"><ele>12.0</ele><time>2026-04-18T08:41:38.873Z</time></trkpt><trkpt lat="42.178085" lon="14.68536"><ele>12.333333333333334</ele><time>2026-04-18T08:41:39.874Z</time></trkpt><trkpt lat="42.17816" lon="14.6854333"><ele>12.666666666666668</ele><time>2026-04-18T08:41:40.874Z</time></trkpt><trkpt lat="42.178235" lon="14.6855033"><ele>13.0</ele><time>2026-04-18T08:41:41.874Z</time></trkpt><trkpt lat="42.178305" lon="14.6855767"><ele>13.333333333333334</ele><time>2026-04-18T08:41:42.873Z</time></trkpt><trkpt lat="42.1783683" lon="14.685645"><ele>13.666666666666668</ele><time>2026-04-18T08:41:43.874Z</time></trkpt><trkpt lat="42.1784333" lon="14.6857083"><ele>14.0</ele><time>2026-04-18T08:41:44.873Z</time></trkpt><trkpt lat="42.1784983" lon="14.6857667"><ele>14.714285714285715</ele><time>2026-04-18T08:41:45.873Z</time></trkpt><trkpt lat="42.1785667" lon="14.6858217"><ele>15.428571428571429</ele><time>2026-04-18T08:41:46.873Z</time></trkpt><trkpt lat="42.17863" lon="14.685875"><ele>16.142857142857142</ele><time>2026-04-18T08:41:47.874Z</time></trkpt><trkpt lat="42.178695" lon="14.685925"><ele>16.857142857142858</ele><time>2026-04-18T08:41:48.873Z</time></trkpt><trkpt lat="42.1787533" lon="14.68598"><ele>17.571428571428573</ele><time>2026-04-18T08:41:49.874Z</time></trkpt><trkpt lat="42.1788083" lon="14.6860333"><ele>18.285714285714285</ele><time>2026-04-18T08:41:50.874Z</time></trkpt><trkpt lat="42.17886" lon="14.6860933"><ele>19.0</ele><time>2026-04-18T08:41:51.874Z</time></trkpt><trkpt lat="42.1789083" lon="14.68615"><ele>19.0</ele><time>2026-04-18T08:41:52.874Z</time></trkpt><trkpt lat="42.178955" lon="14.68621"><ele>19.0</ele><time>2026-04-18T08:41:53.874Z</time></trkpt><trkpt lat="42.1789883" lon="14.6862867"><ele>19.0</ele><time>2026-04-18T08:41:54.873Z</time></trkpt><trkpt lat="42.1790217" lon="14.6863633"><ele>19.0</ele><time>2026-04-18T08:41:55.873Z</time></trkpt><trkpt lat="42.1790567" lon="14.6864433"><ele>19.0</ele><time>2026-04-18T08:41:56.874Z</time></trkpt><trkpt lat="42.179085" lon="14.686525"><ele>19.0</ele><time>2026-04-18T08:41:57.874Z</time></trkpt><trkpt lat="42.1791117" lon="14.68661"><ele>19.0</ele><time>2026-04-18T08:41:58.873Z</time></trkpt><trkpt lat="42.1791283" lon="14.6867167"><ele>18.57142857142857</ele><time>2026-04-18T08:41:59.874Z</time></trkpt><trkpt lat="42.1791467" lon="14.6868217"><ele>18.142857142857146</ele><time>2026-04-18T08:42:00.874Z</time></trkpt><trkpt lat="42.1791667" lon="14.6869167"><ele>17.714285714285715</ele><time>2026-04-18T08:42:01.874Z</time></trkpt><trkpt lat="42.1791867" lon="14.687015"><ele>17.285714285714285</ele><time>2026-04-18T08:42:02.874Z</time></trkpt><trkpt lat="42.179195" lon="14.6871117"><ele>16.857142857142854</ele><time>2026-04-18T08:42:03.873Z</time></trkpt><trkpt lat="42.1791883" lon="14.6872067"><ele>16.428571428571427</ele><time>2026-04-18T08:42:04.873Z</time></trkpt><trkpt lat="42.1791733" lon="14.6872983"><ele>16.0</ele><time>2026-04-18T08:42:05.874Z</time></trkpt><trkpt lat="42.1791133" lon="14.6874433"><ele>15.999999999999998</ele><time>2026-04-18T08:42:07.873Z</time></trkpt><trkpt lat="42.179075" lon="14.6875133"><ele>16.0</ele><time>2026-04-18T08:42:08.874Z</time></trkpt><trkpt lat="42.1790217" lon="14.6875717"><ele>16.0</ele><time>2026-04-18T08:42:09.874Z</time></trkpt><trkpt lat="42.1789583" lon="14.687615"><ele>16.0</ele><time>2026-04-18T08:42:10.874Z</time></trkpt><trkpt lat="42.178895" lon="14.6876367"><ele>15.999999999999998</ele><time>2026-04-18T08:42:11.873Z</time></trkpt><trkpt lat="42.17878" lon="14.6876417"><ele>16.0</ele><time>2026-04-18T08:42:13.873Z</time></trkpt><trkpt lat="42.178665" lon="14.6876133"><ele>17.6</ele><time>2026-04-18T08:42:15.874Z</time></trkpt><trkpt lat="42.17856" lon="14.6876233"><ele>19.200000000000003</ele><time>2026-04-18T08:42:17.873Z</time></trkpt><trkpt lat="42.178455" lon="14.6876667"><ele>20.799999999999997</ele><time>2026-04-18T08:42:19.873Z</time></trkpt><trkpt lat="42.1783483" lon="14.687705"><ele>22.4</ele><time>2026-04-18T08:42:21.873Z</time></trkpt><trkpt lat="42.1782417" lon="14.6877583"><ele>24.0</ele><time>2026-04-18T08:42:23.874Z</time></trkpt><trkpt lat="42.1781367" lon="14.68781"><ele>25.0</ele><time>2026-04-18T08:42:25.874Z</time></trkpt><trkpt lat="42.17804" lon="14.68787"><ele>26.0</ele><time>2026-04-18T08:42:27.873Z</time></trkpt><trkpt lat="42.1779583" lon="14.6879533"><ele>27.0</ele><time>2026-04-18T08:42:29.874Z</time></trkpt><trkpt lat="42.1778767" lon="14.68806"><ele>28.0</ele><time>2026-04-18T08:42:31.874Z</time></trkpt><trkpt lat="42.1778267" lon="14.688115"><ele>29.0</ele><time>2026-04-18T08:42:32.873Z</time></trkpt><trkpt lat="42.17774" lon="14.6882333"><ele>29.0</ele><time>2026-04-18T08:42:34.873Z</time></trkpt><trkpt lat="42.1776567" lon="14.6883383"><ele>29.0</ele><time>2026-04-18T08:42:36.873Z</time></trkpt><trkpt lat="42.1775767" lon="14.68845"><ele>29.0</ele><time>2026-04-18T08:42:38.873Z</time></trkpt><trkpt lat="42.1775017" lon="14.6885683"><ele>29.0</ele><time>2026-04-18T08:42:40.873Z</time></trkpt><trkpt lat="42.17743" lon="14.6886933"><ele>29.6</ele><time>2026-04-18T08:42:42.874Z</time></trkpt><trkpt lat="42.17736" lon="14.688805"><ele>30.2</ele><time>2026-04-18T08:42:44.874Z</time></trkpt><trkpt lat="42.1772783" lon="14.6888983"><ele>30.800000000000004</ele><time>2026-04-18T08:42:46.874Z</time></trkpt><trkpt lat="42.1771867" lon="14.6889583"><ele>31.400000000000002</ele><time>2026-04-18T08:42:48.874Z</time></trkpt><trkpt lat="42.1770933" lon="14.6889867"><ele>32.0</ele><time>2026-04-18T08:42:50.873Z</time></trkpt><trkpt lat="42.1769933" lon="14.688985"><ele>32.0</ele><time>2026-04-18T08:42:52.873Z</time></trkpt><trkpt lat="42.176895" lon="14.6889933"><ele>32.0</ele><time>2026-04-18T08:42:54.874Z</time></trkpt><trkpt lat="42.1768033" lon="14.68901"><ele>32.0</ele><time>2026-04-18T08:42:56.874Z</time></trkpt><trkpt lat="42.1767133" lon="14.6890517"><ele>32.0</ele><time>2026-04-18T08:42:58.874Z</time></trkpt><trkpt lat="42.1766217" lon="14.6891367"><ele>32.0</ele><time>2026-04-18T08:43:00.874Z</time></trkpt><trkpt lat="42.176555" lon="14.6892283"><ele>32.2</ele><time>2026-04-18T08:43:02.874Z</time></trkpt><trkpt lat="42.1765017" lon="14.6893533"><ele>32.400000000000006</ele><time>2026-04-18T08:43:04.873Z</time></trkpt><trkpt lat="42.17645" lon="14.6894817"><ele>32.599999999999994</ele><time>2026-04-18T08:43:06.874Z</time></trkpt><trkpt lat="42.1764033" lon="14.6896133"><ele>32.8</ele><time>2026-04-18T08:43:08.874Z</time></trkpt><trkpt lat="42.17636" lon="14.6897517"><ele>33.0</ele><time>2026-04-18T08:43:10.874Z</time></trkpt><trkpt lat="42.1763133" lon="14.6898967"><ele>33.199999999999996</ele><time>2026-04-18T08:43:12.873Z</time></trkpt><trkpt lat="42.176265" lon="14.690045"><ele>33.4</ele><time>2026-04-18T08:43:14.873Z</time></trkpt><trkpt lat="42.1762183" lon="14.6902"><ele>33.599999999999994</ele><time>2026-04-18T08:43:16.874Z</time></trkpt><trkpt lat="42.1761633" lon="14.690355"><ele>33.8</ele><time>2026-04-18T08:43:18.874Z</time></trkpt><trkpt lat="42.1761367" lon="14.690435"><ele>34.0</ele><time>2026-04-18T08:43:19.874Z</time></trkpt><trkpt lat="42.17611" lon="14.6905133"><ele>34.16666666666667</ele><time>2026-04-18T08:43:20.874Z</time></trkpt><trkpt lat="42.1760617" lon="14.6906683"><ele>34.333333333333336</ele><time>2026-04-18T08:43:22.874Z</time></trkpt><trkpt lat="42.176035" lon="14.6907483"><ele>34.5</ele><time>2026-04-18T08:43:23.873Z</time></trkpt><trkpt lat="42.17601" lon="14.6908283"><ele>34.666666666666664</ele><time>2026-04-18T08:43:24.873Z</time></trkpt><trkpt lat="42.1759833" lon="14.6909067"><ele>34.83333333333333</ele><time>2026-04-18T08:43:25.874Z</time></trkpt><trkpt lat="42.1759333" lon="14.6910433"><ele>35.0</ele><time>2026-04-18T08:43:27.872Z</time></trkpt><trkpt lat="42.175865" lon="14.69118"><ele>35.2</ele><time>2026-04-18T08:43:29.874Z</time></trkpt><trkpt lat="42.1757867" lon="14.6912983"><ele>35.4</ele><time>2026-04-18T08:43:31.873Z</time></trkpt><trkpt lat="42.1757517" lon="14.691425"><ele>35.6</ele><time>2026-04-18T08:43:33.874Z</time></trkpt><trkpt lat="42.17574" lon="14.6915767"><ele>35.8</ele><time>2026-04-18T08:43:35.874Z</time></trkpt><trkpt lat="42.1757183" lon="14.69166"><ele>36.0</ele><time>2026-04-18T08:43:36.873Z</time></trkpt><trkpt lat="42.1756867" lon="14.6917383"><ele>35.8</ele><time>2026-04-18T08:43:37.873Z</time></trkpt><trkpt lat="42.17562" lon="14.6918783"><ele>35.6</ele><time>2026-04-18T08:43:39.874Z</time></trkpt><trkpt lat="42.17556" lon="14.69203"><ele>35.4</ele><time>2026-04-18T08:43:41.873Z</time></trkpt><trkpt lat="42.1755017" lon="14.6921733"><ele>35.2</ele><time>2026-04-18T08:43:43.873Z</time></trkpt><trkpt lat="42.1754683" lon="14.69225"><ele>35.0</ele><time>2026-04-18T08:43:44.873Z</time></trkpt><trkpt lat="42.1754283" lon="14.692325"><ele>35.0</ele><time>2026-04-18T08:43:45.873Z</time></trkpt><trkpt lat="42.1753983" lon="14.6924"><ele>35.0</ele><time>2026-04-18T08:43:46.873Z</time></trkpt><trkpt lat="42.1753617" lon="14.692475"><ele>35.0</ele><time>2026-04-18T08:43:47.874Z</time></trkpt><trkpt lat="42.1753167" lon="14.692545"><ele>35.0</ele><time>2026-04-18T08:43:48.874Z</time></trkpt><trkpt lat="42.1752733" lon="14.692615"><ele>35.0</ele><time>2026-04-18T08:43:49.874Z</time></trkpt><trkpt lat="42.1752283" lon="14.69268"><ele>35.0</ele><time>2026-04-18T08:43:50.874Z</time></trkpt><trkpt lat="42.175135" lon="14.6927917"><ele>35.0</ele><time>2026-04-18T08:43:52.874Z</time></trkpt><trkpt lat="42.1750867" lon="14.6928467"><ele>35.0</ele><time>2026-04-18T08:43:53.874Z</time></trkpt><trkpt lat="42.17504" lon="14.692905"><ele>35.0</ele><time>2026-04-18T08:43:54.873Z</time></trkpt><trkpt lat="42.1749917" lon="14.69296"><ele>35.0</ele><time>2026-04-18T08:43:55.873Z</time></trkpt><trkpt lat="42.17489" lon="14.6930483"><ele>35.0</ele><time>2026-04-18T08:43:57.873Z</time></trkpt><trkpt lat="42.1747833" lon="14.69313"><ele>35.0</ele><time>2026-04-18T08:43:59.874Z</time></trkpt><trkpt lat="42.174685" lon="14.693215"><ele>34.8</ele><time>2026-04-18T08:44:01.874Z</time></trkpt><trkpt lat="42.174595" lon="14.6932967"><ele>34.6</ele><time>2026-04-18T08:44:03.874Z</time></trkpt><trkpt lat="42.1745133" lon="14.6933633"><ele>34.4</ele><time>2026-04-18T08:44:05.874Z</time></trkpt><trkpt lat="42.1744417" lon="14.6934333"><ele>34.2</ele><time>2026-04-18T08:44:07.874Z</time></trkpt><trkpt lat="42.1743833" lon="14.6934983"><ele>34.0</ele><time>2026-04-18T08:44:09.874Z</time></trkpt><trkpt lat="42.1743717" lon="14.6936117"><ele>34.0</ele><time>2026-04-18T08:44:12.874Z</time></trkpt><trkpt lat="42.17442" lon="14.6936867"><ele>34.0</ele><time>2026-04-18T08:44:14.874Z</time></trkpt><trkpt lat="42.1744833" lon="14.69376"><ele>34.0</ele><time>2026-04-18T08:44:16.874Z</time></trkpt><trkpt lat="42.1745317" lon="14.6938367"><ele>34.0</ele><time>2026-04-18T08:44:18.873Z</time></trkpt><trkpt lat="42.1745617" lon="14.6939317"><ele>34.0</ele><time>2026-04-18T08:44:20.873Z</time></trkpt><trkpt lat="42.1746333" lon="14.6939967"><ele>34.0</ele><time>2026-04-18T08:44:23.874Z</time></trkpt><trkpt lat="42.17471" lon="14.6940383"><ele>34.0</ele><time>2026-04-18T08:44:25.874Z</time></trkpt><trkpt lat="42.174785" lon="14.6940833"><ele>34.0</ele><time>2026-04-18T08:44:27.874Z</time></trkpt><trkpt lat="42.1748483" lon="14.6941333"><ele>34.0</ele><time>2026-04-18T08:44:29.874Z</time></trkpt><trkpt lat="42.1749233" lon="14.6942183"><ele>34.0</ele><time>2026-04-18T08:44:31.874Z</time></trkpt><trkpt lat="42.1749567" lon="14.6943233"><ele>34.0</ele><time>2026-04-18T08:44:33.874Z</time></trkpt><trkpt lat="42.1749317" lon="14.6944267"><ele>34.0</ele><time>2026-04-18T08:44:35.874Z</time></trkpt><trkpt lat="42.17491" lon="14.69452"><ele>33.8</ele><time>2026-04-18T08:44:37.874Z</time></trkpt><trkpt lat="42.1748733" lon="14.69466"><ele>33.599999999999994</ele><time>2026-04-18T08:44:39.874Z</time></trkpt><trkpt lat="42.1748383" lon="14.6948017"><ele>33.4</ele><time>2026-04-18T08:44:41.873Z</time></trkpt><trkpt lat="42.174805" lon="14.6949333"><ele>33.199999999999996</ele><time>2026-04-18T08:44:43.874Z</time></trkpt><trkpt lat="42.1747667" lon="14.69508"><ele>33.0</ele><time>2026-04-18T08:44:45.874Z</time></trkpt><trkpt lat="42.1747183" lon="14.69521"><ele>32.833333333333336</ele><time>2026-04-18T08:44:47.874Z</time></trkpt><trkpt lat="42.1746733" lon="14.6953267"><ele>32.666666666666664</ele><time>2026-04-18T08:44:49.873Z</time></trkpt><trkpt lat="42.1746367" lon="14.6954233"><ele>32.5</ele><time>2026-04-18T08:44:51.874Z</time></trkpt><trkpt lat="42.1745983" lon="14.6955083"><ele>32.33333333333333</ele><time>2026-04-18T08:44:53.873Z</time></trkpt><trkpt lat="42.1745567" lon="14.6956033"><ele>32.166666666666664</ele><time>2026-04-18T08:44:55.873Z</time></trkpt><trkpt lat="42.1745217" lon="14.6957133"><ele>32.0</ele><time>2026-04-18T08:44:57.874Z</time></trkpt><trkpt lat="42.1744867" lon="14.6958183"><ele>32.0</ele><time>2026-04-18T08:44:59.874Z</time></trkpt><trkpt lat="42.1744483" lon="14.6959217"><ele>32.0</ele><time>2026-04-18T08:45:01.874Z</time></trkpt><trkpt lat="42.1744117" lon="14.6960367"><ele>32.0</ele><time>2026-04-18T08:45:03.873Z</time></trkpt><trkpt lat="42.1743767" lon="14.6961433"><ele>32.0</ele><time>2026-04-18T08:45:05.874Z</time></trkpt><trkpt lat="42.17433" lon="14.696255"><ele>32.0</ele><time>2026-04-18T08:45:07.874Z</time></trkpt><trkpt lat="42.1742867" lon="14.6963717"><ele>31.400000000000002</ele><time>2026-04-18T08:45:09.874Z</time></trkpt><trkpt lat="42.1742483" lon="14.6964917"><ele>30.800000000000004</ele><time>2026-04-18T08:45:11.874Z</time></trkpt><trkpt lat="42.1742117" lon="14.6966117"><ele>30.2</ele><time>2026-04-18T08:45:13.874Z</time></trkpt><trkpt lat="42.1741767" lon="14.6967333"><ele>29.6</ele><time>2026-04-18T08:45:15.874Z</time></trkpt><trkpt lat="42.1741467" lon="14.696845"><ele>29.0</ele><time>2026-04-18T08:45:17.873Z</time></trkpt><trkpt lat="42.1740933" lon="14.6969467"><ele>28.0</ele><time>2026-04-18T08:45:19.873Z</time></trkpt><trkpt lat="42.1740333" lon="14.69705"><ele>27.0</ele><time>2026-04-18T08:45:21.874Z</time></trkpt><trkpt lat="42.1739933" lon="14.6971683"><ele>26.0</ele><time>2026-04-18T08:45:23.873Z</time></trkpt><trkpt lat="42.1739733" lon="14.6972683"><ele>25.0</ele><time>2026-04-18T08:45:25.874Z</time></trkpt><trkpt lat="42.1739867" lon="14.6974067"><ele>24.0</ele><time>2026-04-18T08:45:27.873Z</time></trkpt><trkpt lat="42.173965" lon="14.6975617"><ele>25.666666666666668</ele><time>2026-04-18T08:45:29.874Z</time></trkpt><trkpt lat="42.173945" lon="14.69765"><ele>27.333333333333336</ele><time>2026-04-18T08:45:30.873Z</time></trkpt><trkpt lat="42.1739217" lon="14.697735"><ele>29.0</ele><time>2026-04-18T08:45:31.874Z</time></trkpt><trkpt lat="42.173895" lon="14.6978217"><ele>30.666666666666668</ele><time>2026-04-18T08:45:32.874Z</time></trkpt><trkpt lat="42.1738567" lon="14.6979767"><ele>32.333333333333336</ele><time>2026-04-18T08:45:34.874Z</time></trkpt><trkpt lat="42.1738" lon="14.6981017"><ele>34.0</ele><time>2026-04-18T08:45:36.873Z</time></trkpt><trkpt lat="42.1737333" lon="14.6981967"><ele>34.0</ele><time>2026-04-18T08:45:38.874Z</time></trkpt><trkpt lat="42.1736867" lon="14.6983033"><ele>34.0</ele><time>2026-04-18T08:45:40.873Z</time></trkpt><trkpt lat="42.17368" lon="14.69844"><ele>34.0</ele><time>2026-04-18T08:45:42.874Z</time></trkpt><trkpt lat="42.1737267" lon="14.6985333"><ele>34.0</ele><time>2026-04-18T08:45:44.874Z</time></trkpt><trkpt lat="42.1737867" lon="14.69858"><ele>34.0</ele><time>2026-04-18T08:45:46.874Z</time></trkpt><trkpt lat="42.1738517" lon="14.698625"><ele>34.0</ele><time>2026-04-18T08:45:48.873Z</time></trkpt><trkpt lat="42.1738917" lon="14.6986967"><ele>33.8</ele><time>2026-04-18T08:45:50.874Z</time></trkpt><trkpt lat="42.17388" lon="14.6987917"><ele>33.599999999999994</ele><time>2026-04-18T08:45:52.873Z</time></trkpt><trkpt lat="42.17384" lon="14.6988933"><ele>33.4</ele><time>2026-04-18T08:45:54.874Z</time></trkpt><trkpt lat="42.173785" lon="14.6989983"><ele>33.199999999999996</ele><time>2026-04-18T08:45:56.874Z</time></trkpt><trkpt lat="42.17373" lon="14.6991117"><ele>33.0</ele><time>2026-04-18T08:45:58.873Z</time></trkpt><trkpt lat="42.17368" lon="14.6992267"><ele>33.0</ele><time>2026-04-18T08:46:00.874Z</time></trkpt><trkpt lat="42.1736567" lon="14.6993583"><ele>33.0</ele><time>2026-04-18T08:46:02.873Z</time></trkpt><trkpt lat="42.17365" lon="14.69949"><ele>33.0</ele><time>2026-04-18T08:46:04.874Z</time></trkpt><trkpt lat="42.17363" lon="14.6996283"><ele>33.0</ele><time>2026-04-18T08:46:06.873Z</time></trkpt><trkpt lat="42.1735917" lon="14.6997283"><ele>33.0</ele><time>2026-04-18T08:46:08.874Z</time></trkpt><trkpt lat="42.17354" lon="14.699805"><ele>31.799999999999997</ele><time>2026-04-18T08:46:10.874Z</time></trkpt><trkpt lat="42.1734667" lon="14.69988"><ele>30.599999999999998</ele><time>2026-04-18T08:46:12.873Z</time></trkpt><trkpt lat="42.1733917" lon="14.6999717"><ele>29.400000000000002</ele><time>2026-04-18T08:46:14.873Z</time></trkpt><trkpt lat="42.1733333" lon="14.70008"><ele>28.200000000000003</ele><time>2026-04-18T08:46:16.873Z</time></trkpt><trkpt lat="42.1733083" lon="14.7001733"><ele>27.0</ele><time>2026-04-18T08:46:18.874Z</time></trkpt><trkpt lat="42.1732717" lon="14.700285"><ele>28.0</ele><time>2026-04-18T08:46:20.874Z</time></trkpt><trkpt lat="42.173225" lon="14.7003983"><ele>29.0</ele><time>2026-04-18T08:46:22.873Z</time></trkpt><trkpt lat="42.173185" lon="14.700505"><ele>30.0</ele><time>2026-04-18T08:46:24.873Z</time></trkpt><trkpt lat="42.17314" lon="14.70061"><ele>31.0</ele><time>2026-04-18T08:46:26.873Z</time></trkpt><trkpt lat="42.1731133" lon="14.7007117"><ele>32.0</ele><time>2026-04-18T08:46:28.873Z</time></trkpt><trkpt lat="42.17309" lon="14.7008183"><ele>33.0</ele><time>2026-04-18T08:46:30.874Z</time></trkpt><trkpt lat="42.173055" lon="14.7009233"><ele>33.0</ele><time>2026-04-18T08:46:32.874Z</time></trkpt><trkpt lat="42.1730133" lon="14.7010233"><ele>33.0</ele><time>2026-04-18T08:46:34.875Z</time></trkpt><trkpt lat="42.1729667" lon="14.7011117"><ele>33.0</ele><time>2026-04-18T08:46:36.874Z</time></trkpt><trkpt lat="42.1729267" lon="14.7012083"><ele>33.0</ele><time>2026-04-18T08:46:38.874Z</time></trkpt><trkpt lat="42.1728817" lon="14.7012917"><ele>33.0</ele><time>2026-04-18T08:46:40.875Z</time></trkpt><trkpt lat="42.1728433" lon="14.7013717"><ele>33.0</ele><time>2026-04-18T08:46:42.875Z</time></trkpt><trkpt lat="42.1727917" lon="14.7014333"><ele>32.42857142857143</ele><time>2026-04-18T08:46:44.875Z</time></trkpt><trkpt lat="42.1727333" lon="14.7014883"><ele>31.85714285714286</ele><time>2026-04-18T08:46:47.875Z</time></trkpt><trkpt lat="42.17269" lon="14.7015533"><ele>31.28571428571429</ele><time>2026-04-18T08:46:51.875Z</time></trkpt><trkpt lat="42.172655" lon="14.7016533"><ele>30.714285714285715</ele><time>2026-04-18T08:46:54.875Z</time></trkpt><trkpt lat="42.1726317" lon="14.7017367"><ele>30.142857142857146</ele><time>2026-04-18T08:46:57.875Z</time></trkpt><trkpt lat="42.172625" lon="14.7018367"><ele>29.571428571428577</ele><time>2026-04-18T08:47:01.875Z</time></trkpt><trkpt lat="42.172625" lon="14.701945"><ele>29.000000000000004</ele><time>2026-04-18T08:47:03.875Z</time></trkpt><trkpt lat="42.172625" lon="14.7020467"><ele>27.499999999999996</ele><time>2026-04-18T08:47:05.874Z</time></trkpt><trkpt lat="42.1726233" lon="14.7021517"><ele>26.0</ele><time>2026-04-18T08:47:07.875Z</time></trkpt><trkpt lat="42.1726117" lon="14.702265"><ele>24.5</ele><time>2026-04-18T08:47:09.874Z</time></trkpt><trkpt lat="42.1725983" lon="14.7023767"><ele>23.0</ele><time>2026-04-18T08:47:11.875Z</time></trkpt><trkpt lat="42.1725867" lon="14.7024683"><ele>21.5</ele><time>2026-04-18T08:47:13.874Z</time></trkpt><trkpt lat="42.1725717" lon="14.702565"><ele>20.0</ele><time>2026-04-18T08:47:16.875Z</time></trkpt><trkpt lat="42.1725817" lon="14.7027083"><ele>18.666666666666668</ele><time>2026-04-18T08:47:33.875Z</time></trkpt><trkpt lat="42.1726067" lon="14.7027917"><ele>17.333333333333336</ele><time>2026-04-18T08:47:35.875Z</time></trkpt><trkpt lat="42.1726383" lon="14.7028767"><ele>16.0</ele><time>2026-04-18T08:47:37.875Z</time></trkpt><trkpt lat="42.1726717" lon="14.7029667"><ele>14.666666666666668</ele><time>2026-04-18T08:47:39.875Z</time></trkpt><trkpt lat="42.172695" lon="14.703065"><ele>13.333333333333334</ele><time>2026-04-18T08:47:41.875Z</time></trkpt><trkpt lat="42.1727267" lon="14.7031517"><ele>12.0</ele><time>2026-04-18T08:47:43.875Z</time></trkpt><trkpt lat="42.1728217" lon="14.70318"><ele>12.0</ele><time>2026-04-18T08:47:46.875Z</time></trkpt><trkpt lat="42.1728983" lon="14.7031933"><ele>12.0</ele><time>2026-04-18T08:47:48.875Z</time></trkpt><trkpt lat="42.1729367" lon="14.70328"><ele>12.0</ele><time>2026-04-18T08:47:51.875Z</time></trkpt><trkpt lat="42.17292" lon="14.7033683"><ele>12.0</ele><time>2026-04-18T08:47:53.875Z</time></trkpt><trkpt lat="42.1728983" lon="14.7034783"><ele>12.0</ele><time>2026-04-18T08:47:55.875Z</time></trkpt><trkpt lat="42.1728733" lon="14.7035867"><ele>12.0</ele><time>2026-04-18T08:47:57.874Z</time></trkpt><trkpt lat="42.172845" lon="14.7036983"><ele>11.5</ele><time>2026-04-18T08:47:59.874Z</time></trkpt><trkpt lat="42.1728267" lon="14.70381"><ele>11.0</ele><time>2026-04-18T08:48:01.875Z</time></trkpt><trkpt lat="42.1728067" lon="14.703915"><ele>10.5</ele><time>2026-04-18T08:48:03.875Z</time></trkpt><trkpt lat="42.1727767" lon="14.7040233"><ele>10.0</ele><time>2026-04-18T08:48:05.874Z</time></trkpt><trkpt lat="42.17275" lon="14.7041267"><ele>9.5</ele><time>2026-04-18T08:48:07.875Z</time></trkpt><trkpt lat="42.1727317" lon="14.7042417"><ele>9.0</ele><time>2026-04-18T08:48:09.874Z</time></trkpt><trkpt lat="42.1727283" lon="14.70436"><ele>8.333333333333334</ele><time>2026-04-18T08:48:11.874Z</time></trkpt><trkpt lat="42.1726983" lon="14.7044633"><ele>7.666666666666667</ele><time>2026-04-18T08:48:13.875Z</time></trkpt><trkpt lat="42.1726567" lon="14.704565"><ele>7.0</ele><time>2026-04-18T08:48:15.874Z</time></trkpt><trkpt lat="42.1726483" lon="14.7046717"><ele>6.333333333333334</ele><time>2026-04-18T08:48:17.875Z</time></trkpt><trkpt lat="42.17264" lon="14.7047783"><ele>5.666666666666667</ele><time>2026-04-18T08:48:19.875Z</time></trkpt><trkpt lat="42.17262" lon="14.7048717"><ele>5.0</ele><time>2026-04-18T08:48:21.875Z</time></trkpt><trkpt lat="42.172605" lon="14.70496"><ele>5.0</ele><time>2026-04-18T08:48:23.874Z</time></trkpt><trkpt lat="42.1725717" lon="14.7050517"><ele>5.0</ele><time>2026-04-18T08:48:25.875Z</time></trkpt><trkpt lat="42.172535" lon="14.70516"><ele>5.0</ele><time>2026-04-18T08:48:27.874Z</time></trkpt><trkpt lat="42.1725" lon="14.705275"><ele>5.0</ele><time>2026-04-18T08:48:29.874Z</time></trkpt><trkpt lat="42.1724667" lon="14.7053983"><ele>5.0</ele><time>2026-04-18T08:48:31.875Z</time></trkpt><trkpt lat="42.1724333" lon="14.70553"><ele>4.4</ele><time>2026-04-18T08:48:33.875Z</time></trkpt><trkpt lat="42.1724167" lon="14.7056717"><ele>3.8</ele><time>2026-04-18T08:48:35.875Z</time></trkpt><trkpt lat="42.1723983" lon="14.7057983"><ele>3.2</ele><time>2026-04-18T08:48:37.875Z</time></trkpt><trkpt lat="42.1723767" lon="14.70591"><ele>2.6</ele><time>2026-04-18T08:48:39.875Z</time></trkpt><trkpt lat="42.1723417" lon="14.7060267"><ele>2.0</ele><time>2026-04-18T08:48:41.875Z</time></trkpt><trkpt lat="42.1723233" lon="14.7061567"><ele>4.833333333333333</ele><time>2026-04-18T08:48:43.875Z</time></trkpt><trkpt lat="42.1723233" lon="14.7062683"><ele>7.666666666666666</ele><time>2026-04-18T08:48:45.875Z</time></trkpt><trkpt lat="42.1723217" lon="14.7063917"><ele>10.5</ele><time>2026-04-18T08:48:47.875Z</time></trkpt><trkpt lat="42.17232" lon="14.7065033"><ele>13.333333333333332</ele><time>2026-04-18T08:48:49.875Z</time></trkpt><trkpt lat="42.1723117" lon="14.7066217"><ele>16.166666666666664</ele><time>2026-04-18T08:48:51.874Z</time></trkpt><trkpt lat="42.1722983" lon="14.706755"><ele>19.0</ele><time>2026-04-18T08:48:53.874Z</time></trkpt><trkpt lat="42.1722917" lon="14.70688"><ele>19.333333333333332</ele><time>2026-04-18T08:48:55.874Z</time></trkpt><trkpt lat="42.1723" lon="14.7069983"><ele>19.666666666666664</ele><time>2026-04-18T08:48:57.874Z</time></trkpt><trkpt lat="42.1723317" lon="14.7071167"><ele>20.0</ele><time>2026-04-18T08:48:59.874Z</time></trkpt><trkpt lat="42.1723683" lon="14.7072183"><ele>20.333333333333332</ele><time>2026-04-18T08:49:01.875Z</time></trkpt><trkpt lat="42.1724117" lon="14.7073"><ele>20.666666666666668</ele><time>2026-04-18T08:49:03.875Z</time></trkpt><trkpt lat="42.1724483" lon="14.7073883"><ele>21.0</ele><time>2026-04-18T08:49:05.875Z</time></trkpt><trkpt lat="42.1725067" lon="14.7074717"><ele>20.0</ele><time>2026-04-18T08:49:07.874Z</time></trkpt><trkpt lat="42.1725817" lon="14.7075483"><ele>19.0</ele><time>2026-04-18T08:49:09.874Z</time></trkpt><trkpt lat="42.1726633" lon="14.70761"><ele>18.0</ele><time>2026-04-18T08:49:11.874Z</time></trkpt><trkpt lat="42.172745" lon="14.7076767"><ele>17.0</ele><time>2026-04-18T08:49:13.875Z</time></trkpt><trkpt lat="42.1728167" lon="14.707755"><ele>16.0</ele><time>2026-04-18T08:49:15.875Z</time></trkpt><trkpt lat="42.1728617" lon="14.7078617"><ele>15.999999999999998</ele><time>2026-04-18T08:49:17.875Z</time></trkpt><trkpt lat="42.1729167" lon="14.7079683"><ele>16.0</ele><time>2026-04-18T08:49:19.875Z</time></trkpt><trkpt lat="42.1729783" lon="14.7080483"><ele>16.0</ele><time>2026-04-18T08:49:21.874Z</time></trkpt><trkpt lat="42.1730467" lon="14.7081167"><ele>16.0</ele><time>2026-04-18T08:49:23.874Z</time></trkpt><trkpt lat="42.1731117" lon="14.7081867"><ele>15.999999999999998</ele><time>2026-04-18T08:49:25.875Z</time></trkpt><trkpt lat="42.1731817" lon="14.70825"><ele>16.0</ele><time>2026-04-18T08:49:27.875Z</time></trkpt><trkpt lat="42.17325" lon="14.708325"><ele>13.999999999999998</ele><time>2026-04-18T08:49:29.874Z</time></trkpt><trkpt lat="42.173315" lon="14.70841"><ele>12.0</ele><time>2026-04-18T08:49:31.874Z</time></trkpt><trkpt lat="42.17337" lon="14.7084917"><ele>10.0</ele><time>2026-04-18T08:49:33.875Z</time></trkpt><trkpt lat="42.1734017" lon="14.7085817"><ele>8.0</ele><time>2026-04-18T08:49:35.874Z</time></trkpt><trkpt lat="42.173425" lon="14.7087067"><ele>6.0</ele><time>2026-04-18T08:49:38.875Z</time></trkpt><trkpt lat="42.1734267" lon="14.7088367"><ele>4.0</ele><time>2026-04-18T08:49:41.875Z</time></trkpt><trkpt lat="42.1734083" lon="14.708925"><ele>3.714285714285714</ele><time>2026-04-18T08:49:43.875Z</time></trkpt><trkpt lat="42.1733767" lon="14.709"><ele>3.428571428571428</ele><time>2026-04-18T08:49:45.874Z</time></trkpt><trkpt lat="42.1733267" lon="14.7090533"><ele>3.142857142857143</ele><time>2026-04-18T08:49:47.875Z</time></trkpt><trkpt lat="42.173265" lon="14.7091017"><ele>2.8571428571428568</ele><time>2026-04-18T08:49:49.875Z</time></trkpt><trkpt lat="42.1732" lon="14.709155"><ele>2.571428571428571</ele><time>2026-04-18T08:49:51.874Z</time></trkpt><trkpt lat="42.1731367" lon="14.709205"><ele>2.2857142857142856</ele><time>2026-04-18T08:49:53.875Z</time></trkpt><trkpt lat="42.173075" lon="14.70925"><ele>2.0</ele><time>2026-04-18T08:49:55.875Z</time></trkpt><trkpt lat="42.1729867" lon="14.709285"><ele>2.5</ele><time>2026-04-18T08:49:58.875Z</time></trkpt><trkpt lat="42.172915" lon="14.709315"><ele>3.0</ele><time>2026-04-18T08:50:00.875Z</time></trkpt><trkpt lat="42.1728233" lon="14.7093533"><ele>3.5</ele><time>2026-04-18T08:50:02.875Z</time></trkpt><trkpt lat="42.1727433" lon="14.7093933"><ele>4.0</ele><time>2026-04-18T08:50:04.874Z</time></trkpt><trkpt lat="42.17268" lon="14.7094283"><ele>4.5</ele><time>2026-04-18T08:50:06.875Z</time></trkpt><trkpt lat="42.1726117" lon="14.7094817"><ele>5.0</ele><time>2026-04-18T08:50:08.875Z</time></trkpt><trkpt lat="42.17253" lon="14.7095283"><ele>5.0</ele><time>2026-04-18T08:50:10.875Z</time></trkpt><trkpt lat="42.17245" lon="14.709565"><ele>5.0</ele><time>2026-04-18T08:50:12.875Z</time></trkpt><trkpt lat="42.1723467" lon="14.7096083"><ele>5.0</ele><time>2026-04-18T08:50:14.875Z</time></trkpt><trkpt lat="42.1722567" lon="14.7096367"><ele>5.0</ele><time>2026-04-18T08:50:16.874Z</time></trkpt><trkpt lat="42.1721567" lon="14.70965"><ele>5.0</ele><time>2026-04-18T08:50:18.875Z</time></trkpt><trkpt lat="42.1720733" lon="14.70968"><ele>6.333333333333334</ele><time>2026-04-18T08:50:20.875Z</time></trkpt><trkpt lat="42.1720083" lon="14.7097183"><ele>7.666666666666666</ele><time>2026-04-18T08:50:22.874Z</time></trkpt><trkpt lat="42.17194" lon="14.7097667"><ele>9.0</ele><time>2026-04-18T08:50:24.875Z</time></trkpt><trkpt lat="42.171875" lon="14.7098317"><ele>10.333333333333332</ele><time>2026-04-18T08:50:27.875Z</time></trkpt><trkpt lat="42.1718317" lon="14.7098983"><ele>11.666666666666666</ele><time>2026-04-18T08:50:29.875Z</time></trkpt><trkpt lat="42.1717733" lon="14.7099733"><ele>13.0</ele><time>2026-04-18T08:50:31.874Z</time></trkpt><trkpt lat="42.1716917" lon="14.710045"><ele>13.0</ele><time>2026-04-18T08:50:33.874Z</time></trkpt><trkpt lat="42.1716233" lon="14.7101333"><ele>13.0</ele><time>2026-04-18T08:50:35.875Z</time></trkpt><trkpt lat="42.1715533" lon="14.7102383"><ele>13.0</ele><time>2026-04-18T08:50:37.875Z</time></trkpt><trkpt lat="42.1715" lon="14.710365"><ele>13.0</ele><time>2026-04-18T08:50:39.875Z</time></trkpt><trkpt lat="42.17145" lon="14.7104817"><ele>13.0</ele><time>2026-04-18T08:50:41.874Z</time></trkpt><trkpt lat="42.171395" lon="14.7106"><ele>13.2</ele><time>2026-04-18T08:50:43.874Z</time></trkpt><trkpt lat="42.171345" lon="14.7107333"><ele>13.4</ele><time>2026-04-18T08:50:45.875Z</time></trkpt><trkpt lat="42.171305" lon="14.7108583"><ele>13.599999999999998</ele><time>2026-04-18T08:50:47.875Z</time></trkpt><trkpt lat="42.17127" lon="14.7109917"><ele>13.799999999999999</ele><time>2026-04-18T08:50:49.875Z</time></trkpt><trkpt lat="42.17124" lon="14.7111133"><ele>14.0</ele><time>2026-04-18T08:50:51.875Z</time></trkpt><trkpt lat="42.1712133" lon="14.711235"><ele>14.500000000000002</ele><time>2026-04-18T08:50:53.875Z</time></trkpt><trkpt lat="42.1711933" lon="14.71134"><ele>15.0</ele><time>2026-04-18T08:50:55.875Z</time></trkpt><trkpt lat="42.171175" lon="14.7114483"><ele>15.5</ele><time>2026-04-18T08:50:57.875Z</time></trkpt><trkpt lat="42.1711567" lon="14.71154"><ele>16.0</ele><time>2026-04-18T08:50:59.875Z</time></trkpt><trkpt lat="42.1711417" lon="14.7116317"><ele>16.5</ele><time>2026-04-18T08:51:01.875Z</time></trkpt><trkpt lat="42.171135" lon="14.7117267"><ele>17.0</ele><time>2026-04-18T08:51:03.875Z</time></trkpt><trkpt lat="42.1711417" lon="14.7118617"><ele>17.666666666666668</ele><time>2026-04-18T08:51:06.874Z</time></trkpt><trkpt lat="42.1711533" lon="14.7119617"><ele>18.333333333333336</ele><time>2026-04-18T08:51:08.875Z</time></trkpt><trkpt lat="42.1711867" lon="14.7120417"><ele>19.0</ele><time>2026-04-18T08:51:10.875Z</time></trkpt><trkpt lat="42.1712217" lon="14.7121217"><ele>19.666666666666668</ele><time>2026-04-18T08:51:12.875Z</time></trkpt><trkpt lat="42.1712383" lon="14.7122233"><ele>20.333333333333332</ele><time>2026-04-18T08:51:15.874Z</time></trkpt><trkpt lat="42.1711733" lon="14.7122"><ele>21.0</ele><time>2026-04-18T08:51:19.875Z</time></trkpt><trkpt lat="42.1711233" lon="14.71209"><ele>21.0</ele><time>2026-04-18T08:51:22.875Z</time></trkpt><trkpt lat="42.1710867" lon="14.7120067"><ele>21.0</ele><time>2026-04-18T08:51:24.875Z</time></trkpt><trkpt lat="42.1710617" lon="14.7119167"><ele>21.0</ele><time>2026-04-18T08:51:26.874Z</time></trkpt><trkpt lat="42.1710417" lon="14.7118267"><ele>21.0</ele><time>2026-04-18T08:51:28.874Z</time></trkpt><trkpt lat="42.1710167" lon="14.71173"><ele>21.0</ele><time>2026-04-18T08:51:30.875Z</time></trkpt><trkpt lat="42.17099" lon="14.7116283"><ele>21.0</ele><time>2026-04-18T08:51:32.874Z</time></trkpt><trkpt lat="42.1709633" lon="14.7115317"><ele>21.0</ele><time>2026-04-18T08:51:34.875Z</time></trkpt><trkpt lat="42.1709317" lon="14.7114417"><ele>20.428571428571427</ele><time>2026-04-18T08:51:36.874Z</time></trkpt><trkpt lat="42.170905" lon="14.7113567"><ele>19.857142857142858</ele><time>2026-04-18T08:51:38.874Z</time></trkpt><trkpt lat="42.170865" lon="14.71128"><ele>19.285714285714285</ele><time>2026-04-18T08:51:40.875Z</time></trkpt><trkpt lat="42.1708333" lon="14.7111983"><ele>18.714285714285715</ele><time>2026-04-18T08:51:42.874Z</time></trkpt><trkpt lat="42.1708217" lon="14.711105"><ele>18.142857142857142</ele><time>2026-04-18T08:51:44.875Z</time></trkpt><trkpt lat="42.1708267" lon="14.7110183"><ele>17.57142857142857</ele><time>2026-04-18T08:51:47.875Z</time></trkpt><trkpt lat="42.1708317" lon="14.71091"><ele>17.0</ele><time>2026-04-18T08:52:21.874Z</time></trkpt><trkpt lat="42.1708367" lon="14.7108083"><ele>16.57142857142857</ele><time>2026-04-18T08:52:25.875Z</time></trkpt><trkpt lat="42.170875" lon="14.71072"><ele>16.142857142857142</ele><time>2026-04-18T08:53:31.127Z</time></trkpt><trkpt lat="42.1708017" lon="14.71072"><ele>15.714285714285714</ele><time>2026-04-18T08:53:34.374Z</time></trkpt><trkpt lat="42.170835" lon="14.7107983"><ele>15.285714285714285</ele><time>2026-04-18T08:57:27.873Z</time></trkpt><trkpt lat="42.1708917" lon="14.7108367"><ele>14.857142857142858</ele><time>2026-04-18T08:58:36.155Z</time></trkpt><trkpt lat="42.1708808" lon="14.7107414"><ele>14.428571428571429</ele><time>2026-04-18T09:01:17.873Z</time></trkpt><trkpt lat="42.1708681" lon="14.7106469"><ele>14.0</ele><time>2026-04-18T09:01:42.872Z</time></trkpt><trkpt lat="42.1708632" lon="14.7105372"><ele>14.000000000000002</ele><time>2026-04-18T09:02:20.873Z</time></trkpt><trkpt lat="42.1708669" lon="14.7104278"><ele>14.0</ele><time>2026-04-18T09:02:23.873Z</time></trkpt><trkpt lat="42.1708682" lon="14.7103122"><ele>14.0</ele><time>2026-04-18T09:02:26.872Z</time></trkpt><trkpt lat="42.1708797" lon="14.7102098"><ele>14.0</ele><time>2026-04-18T09:02:29.872Z</time></trkpt><trkpt lat="42.1708835" lon="14.7101197"><ele>14.000000000000002</ele><time>2026-04-18T09:02:31.872Z</time></trkpt><trkpt lat="42.1708877" lon="14.7100304"><ele>14.0</ele><time>2026-04-18T09:02:33.872Z</time></trkpt><trkpt lat="42.1708924" lon="14.7098982"><ele>14.000000000000002</ele><time>2026-04-18T09:02:36.873Z</time></trkpt><trkpt lat="42.1708877" lon="14.7097987"><ele>14.0</ele><time>2026-04-18T09:02:38.873Z</time></trkpt><trkpt lat="42.1708866" lon="14.7097005"><ele>14.0</ele><time>2026-04-18T09:02:40.873Z</time></trkpt><trkpt lat="42.1708836" lon="14.7095936"><ele>14.0</ele><time>2026-04-18T09:02:42.872Z</time></trkpt><trkpt lat="42.1708861" lon="14.70948"><ele>14.000000000000002</ele><time>2026-04-18T09:02:44.873Z</time></trkpt><trkpt lat="42.1708997" lon="14.7093559"><ele>14.0</ele><time>2026-04-18T09:02:46.873Z</time></trkpt><trkpt lat="42.1709052" lon="14.7092465"><ele>14.333333333333334</ele><time>2026-04-18T09:02:48.872Z</time></trkpt><trkpt lat="42.170904" lon="14.7091483"><ele>14.666666666666668</ele><time>2026-04-18T09:02:50.873Z</time></trkpt><trkpt lat="42.1709044" lon="14.7090508"><ele>15.0</ele><time>2026-04-18T09:04:16.874Z</time></trkpt><trkpt lat="42.1709054" lon="14.7089193"><ele>15.333333333333332</ele><time>2026-04-18T09:04:19.873Z</time></trkpt><trkpt lat="42.170908" lon="14.7088172"><ele>15.666666666666666</ele><time>2026-04-18T09:04:21.874Z</time></trkpt><trkpt lat="42.1709092" lon="14.7087051"><ele>16.0</ele><time>2026-04-18T09:04:23.874Z</time></trkpt><trkpt lat="42.1709126" lon="14.7085547"><ele>16.400000000000002</ele><time>2026-04-18T09:04:25.874Z</time></trkpt><trkpt lat="42.1709127" lon="14.708387"><ele>16.8</ele><time>2026-04-18T09:04:27.873Z</time></trkpt><trkpt lat="42.1709089" lon="14.7083007"><ele>17.200000000000003</ele><time>2026-04-18T09:04:28.873Z</time></trkpt><trkpt lat="42.1708958" lon="14.708143"><ele>17.6</ele><time>2026-04-18T09:04:30.874Z</time></trkpt><trkpt lat="42.170879" lon="14.7079972"><ele>18.0</ele><time>2026-04-18T09:04:32.873Z</time></trkpt><trkpt lat="42.1708683" lon="14.7078683"><ele>18.2</ele><time>2026-04-18T09:04:34.874Z</time></trkpt><trkpt lat="42.1708498" lon="14.7077308"><ele>18.4</ele><time>2026-04-18T09:04:36.874Z</time></trkpt><trkpt lat="42.1708338" lon="14.7075824"><ele>18.599999999999998</ele><time>2026-04-18T09:04:38.873Z</time></trkpt><trkpt lat="42.1708182" lon="14.7074099"><ele>18.8</ele><time>2026-04-18T09:04:40.873Z</time></trkpt><trkpt lat="42.1708111" lon="14.7073211"><ele>19.0</ele><time>2026-04-18T09:04:41.874Z</time></trkpt><trkpt lat="42.1707943" lon="14.7071552"><ele>19.0</ele><time>2026-04-18T09:04:43.874Z</time></trkpt><trkpt lat="42.1707844" lon="14.7070657"><ele>19.0</ele><time>2026-04-18T09:04:44.873Z</time></trkpt><trkpt lat="42.1707747" lon="14.706974"><ele>19.0</ele><time>2026-04-18T09:04:45.874Z</time></trkpt><trkpt lat="42.1707624" lon="14.7068817"><ele>19.0</ele><time>2026-04-18T09:04:46.874Z</time></trkpt><trkpt lat="42.1707523" lon="14.7067845"><ele>19.0</ele><time>2026-04-18T09:04:47.874Z</time></trkpt><trkpt lat="42.1707389" lon="14.7066858"><ele>19.0</ele><time>2026-04-18T09:04:48.873Z</time></trkpt><trkpt lat="42.1707254" lon="14.7065871"><ele>19.0</ele><time>2026-04-18T09:04:49.874Z</time></trkpt><trkpt lat="42.1707159" lon="14.7064894"><ele>19.0</ele><time>2026-04-18T09:04:50.874Z</time></trkpt><trkpt lat="42.1707066" lon="14.7063885"><ele>19.0</ele><time>2026-04-18T09:04:51.874Z</time></trkpt><trkpt lat="42.1706942" lon="14.706287"><ele>19.0</ele><time>2026-04-18T09:04:52.874Z</time></trkpt><trkpt lat="42.1706828" lon="14.7061853"><ele>19.0</ele><time>2026-04-18T09:04:53.874Z</time></trkpt><trkpt lat="42.1706767" lon="14.70608"><ele>19.0</ele><time>2026-04-18T09:04:54.873Z</time></trkpt><trkpt lat="42.1706667" lon="14.7059767"><ele>19.0</ele><time>2026-04-18T09:04:55.874Z</time></trkpt><trkpt lat="42.170655" lon="14.7058733"><ele>19.166666666666664</ele><time>2026-04-18T09:04:56.874Z</time></trkpt><trkpt lat="42.1706433" lon="14.7057717"><ele>19.333333333333332</ele><time>2026-04-18T09:04:57.874Z</time></trkpt><trkpt lat="42.1706267" lon="14.70567"><ele>19.5</ele><time>2026-04-18T09:04:58.874Z</time></trkpt><trkpt lat="42.1706167" lon="14.705565"><ele>19.666666666666668</ele><time>2026-04-18T09:04:59.873Z</time></trkpt><trkpt lat="42.1706067" lon="14.7054633"><ele>19.833333333333336</ele><time>2026-04-18T09:05:00.874Z</time></trkpt><trkpt lat="42.170595" lon="14.705365"><ele>20.0</ele><time>2026-04-18T09:05:01.873Z</time></trkpt><trkpt lat="42.1705867" lon="14.7052667"><ele>19.5</ele><time>2026-04-18T09:05:02.873Z</time></trkpt><trkpt lat="42.1705767" lon="14.7051617"><ele>19.0</ele><time>2026-04-18T09:05:03.874Z</time></trkpt><trkpt lat="42.170565" lon="14.7050583"><ele>18.5</ele><time>2026-04-18T09:05:04.873Z</time></trkpt><trkpt lat="42.1705533" lon="14.70495"><ele>18.0</ele><time>2026-04-18T09:05:05.873Z</time></trkpt><trkpt lat="42.1705333" lon="14.7048417"><ele>17.5</ele><time>2026-04-18T09:05:06.873Z</time></trkpt><trkpt lat="42.1705117" lon="14.7047417"><ele>17.0</ele><time>2026-04-18T09:05:07.874Z</time></trkpt><trkpt lat="42.17049" lon="14.7046417"><ele>17.0</ele><time>2026-04-18T09:05:08.873Z</time></trkpt><trkpt lat="42.1704583" lon="14.7045433"><ele>17.0</ele><time>2026-04-18T09:05:09.874Z</time></trkpt><trkpt lat="42.1704283" lon="14.704445"><ele>17.0</ele><time>2026-04-18T09:05:10.874Z</time></trkpt><trkpt lat="42.1704017" lon="14.7043467"><ele>17.0</ele><time>2026-04-18T09:05:11.874Z</time></trkpt><trkpt lat="42.1703733" lon="14.70425"><ele>17.0</ele><time>2026-04-18T09:05:12.873Z</time></trkpt><trkpt lat="42.1703383" lon="14.7041533"><ele>17.0</ele><time>2026-04-18T09:05:13.874Z</time></trkpt><trkpt lat="42.1703" lon="14.7040617"><ele>17.5</ele><time>2026-04-18T09:05:14.873Z</time></trkpt><trkpt lat="42.1702633" lon="14.7039733"><ele>18.0</ele><time>2026-04-18T09:05:15.874Z</time></trkpt><trkpt lat="42.17022" lon="14.703885"><ele>18.5</ele><time>2026-04-18T09:05:16.874Z</time></trkpt><trkpt lat="42.1701767" lon="14.7037933"><ele>19.0</ele><time>2026-04-18T09:05:17.874Z</time></trkpt><trkpt lat="42.1701333" lon="14.7037067"><ele>19.5</ele><time>2026-04-18T09:05:18.873Z</time></trkpt><trkpt lat="42.170085" lon="14.70362"><ele>20.0</ele><time>2026-04-18T09:05:19.874Z</time></trkpt><trkpt lat="42.17003" lon="14.703535"><ele>20.333333333333336</ele><time>2026-04-18T09:05:20.874Z</time></trkpt><trkpt lat="42.16998" lon="14.7034483"><ele>20.666666666666668</ele><time>2026-04-18T09:05:21.873Z</time></trkpt><trkpt lat="42.169935" lon="14.7033567"><ele>21.0</ele><time>2026-04-18T09:05:22.874Z</time></trkpt><trkpt lat="42.1698867" lon="14.7032683"><ele>21.333333333333332</ele><time>2026-04-18T09:05:23.874Z</time></trkpt><trkpt lat="42.16984" lon="14.703185"><ele>21.666666666666664</ele><time>2026-04-18T09:05:24.874Z</time></trkpt><trkpt lat="42.169795" lon="14.7031017"><ele>22.0</ele><time>2026-04-18T09:05:25.873Z</time></trkpt><trkpt lat="42.1697433" lon="14.703025"><ele>22.166666666666664</ele><time>2026-04-18T09:05:26.874Z</time></trkpt><trkpt lat="42.1696967" lon="14.7029417"><ele>22.333333333333332</ele><time>2026-04-18T09:05:27.873Z</time></trkpt><trkpt lat="42.1696533" lon="14.702855"><ele>22.5</ele><time>2026-04-18T09:05:28.873Z</time></trkpt><trkpt lat="42.169615" lon="14.7027667"><ele>22.666666666666668</ele><time>2026-04-18T09:05:29.873Z</time></trkpt><trkpt lat="42.169575" lon="14.70268"><ele>22.833333333333336</ele><time>2026-04-18T09:05:30.874Z</time></trkpt><trkpt lat="42.1695333" lon="14.7025933"><ele>23.0</ele><time>2026-04-18T09:05:31.874Z</time></trkpt><trkpt lat="42.1694983" lon="14.702505"><ele>23.666666666666668</ele><time>2026-04-18T09:05:32.874Z</time></trkpt><trkpt lat="42.1694683" lon="14.7024183"><ele>24.333333333333336</ele><time>2026-04-18T09:05:33.873Z</time></trkpt><trkpt lat="42.1694367" lon="14.7023233"><ele>25.0</ele><time>2026-04-18T09:05:34.874Z</time></trkpt><trkpt lat="42.169405" lon="14.7022233"><ele>25.666666666666668</ele><time>2026-04-18T09:05:35.874Z</time></trkpt><trkpt lat="42.169375" lon="14.7021233"><ele>26.333333333333332</ele><time>2026-04-18T09:05:36.874Z</time></trkpt><trkpt lat="42.16935" lon="14.7020217"><ele>27.0</ele><time>2026-04-18T09:05:37.873Z</time></trkpt><trkpt lat="42.169325" lon="14.7019267"><ele>27.333333333333332</ele><time>2026-04-18T09:05:38.873Z</time></trkpt><trkpt lat="42.1693017" lon="14.70183"><ele>27.666666666666664</ele><time>2026-04-18T09:05:39.874Z</time></trkpt><trkpt lat="42.1692783" lon="14.7017317"><ele>28.0</ele><time>2026-04-18T09:05:40.874Z</time></trkpt><trkpt lat="42.1692567" lon="14.70163"><ele>28.333333333333332</ele><time>2026-04-18T09:05:41.873Z</time></trkpt><trkpt lat="42.1692367" lon="14.70153"><ele>28.666666666666664</ele><time>2026-04-18T09:05:42.873Z</time></trkpt><trkpt lat="42.16922" lon="14.7014283"><ele>29.0</ele><time>2026-04-18T09:05:43.874Z</time></trkpt><trkpt lat="42.169205" lon="14.701325"><ele>28.999999999999996</ele><time>2026-04-18T09:05:44.873Z</time></trkpt><trkpt lat="42.1691917" lon="14.7012233"><ele>29.0</ele><time>2026-04-18T09:05:45.874Z</time></trkpt><trkpt lat="42.1691817" lon="14.7011233"><ele>29.0</ele><time>2026-04-18T09:05:46.873Z</time></trkpt><trkpt lat="42.16917" lon="14.7010233"><ele>29.0</ele><time>2026-04-18T09:05:47.873Z</time></trkpt><trkpt lat="42.1691517" lon="14.700925"><ele>28.999999999999996</ele><time>2026-04-18T09:05:48.873Z</time></trkpt><trkpt lat="42.1691383" lon="14.70082"><ele>29.0</ele><time>2026-04-18T09:05:49.874Z</time></trkpt><trkpt lat="42.1691267" lon="14.700725"><ele>29.799999999999997</ele><time>2026-04-18T09:05:50.874Z</time></trkpt><trkpt lat="42.1691017" lon="14.7005567"><ele>30.599999999999998</ele><time>2026-04-18T09:05:52.874Z</time></trkpt><trkpt lat="42.1690833" lon="14.7004117"><ele>31.4</ele><time>2026-04-18T09:05:54.874Z</time></trkpt><trkpt lat="42.169065" lon="14.700275"><ele>32.199999999999996</ele><time>2026-04-18T09:05:56.874Z</time></trkpt><trkpt lat="42.1690383" lon="14.7001367"><ele>33.0</ele><time>2026-04-18T09:05:58.874Z</time></trkpt><trkpt lat="42.169015" lon="14.7"><ele>33.4</ele><time>2026-04-18T09:06:00.874Z</time></trkpt><trkpt lat="42.1689867" lon="14.699865"><ele>33.8</ele><time>2026-04-18T09:06:02.874Z</time></trkpt><trkpt lat="42.1689633" lon="14.699725"><ele>34.2</ele><time>2026-04-18T09:06:04.873Z</time></trkpt><trkpt lat="42.1689383" lon="14.699595"><ele>34.6</ele><time>2026-04-18T09:06:06.874Z</time></trkpt><trkpt lat="42.1689117" lon="14.6994683"><ele>35.0</ele><time>2026-04-18T09:06:08.874Z</time></trkpt><trkpt lat="42.1688867" lon="14.6993433"><ele>35.0</ele><time>2026-04-18T09:06:10.873Z</time></trkpt><trkpt lat="42.1688733" lon="14.6992183"><ele>35.0</ele><time>2026-04-18T09:06:12.873Z</time></trkpt><trkpt lat="42.168865" lon="14.6991"><ele>35.0</ele><time>2026-04-18T09:06:14.874Z</time></trkpt><trkpt lat="42.1688617" lon="14.6989867"><ele>35.0</ele><time>2026-04-18T09:06:16.873Z</time></trkpt><trkpt lat="42.1688733" lon="14.698865"><ele>35.0</ele><time>2026-04-18T09:06:18.873Z</time></trkpt><trkpt lat="42.168885" lon="14.6987367"><ele>35.0</ele><time>2026-04-18T09:06:20.873Z</time></trkpt><trkpt lat="42.1689083" lon="14.6986133"><ele>35.0</ele><time>2026-04-18T09:06:22.874Z</time></trkpt><trkpt lat="42.1689367" lon="14.6985083"><ele>35.0</ele><time>2026-04-18T09:06:24.874Z</time></trkpt><trkpt lat="42.168965" lon="14.6984067"><ele>35.0</ele><time>2026-04-18T09:06:26.873Z</time></trkpt><trkpt lat="42.1689883" lon="14.6983017"><ele>35.0</ele><time>2026-04-18T09:06:28.873Z</time></trkpt><trkpt lat="42.1690083" lon="14.6982067"><ele>35.0</ele><time>2026-04-18T09:06:30.874Z</time></trkpt><trkpt lat="42.1690267" lon="14.69811"><ele>35.2</ele><time>2026-04-18T09:06:32.874Z</time></trkpt><trkpt lat="42.169055" lon="14.6980017"><ele>35.4</ele><time>2026-04-18T09:06:34.873Z</time></trkpt><trkpt lat="42.1690833" lon="14.6978817"><ele>35.6</ele><time>2026-04-18T09:06:36.874Z</time></trkpt><trkpt lat="42.1691033" lon="14.6977667"><ele>35.8</ele><time>2026-04-18T09:06:38.874Z</time></trkpt><trkpt lat="42.16913" lon="14.6976483"><ele>36.0</ele><time>2026-04-18T09:06:40.873Z</time></trkpt><trkpt lat="42.1691517" lon="14.6975267"><ele>36.2</ele><time>2026-04-18T09:06:42.873Z</time></trkpt><trkpt lat="42.1691817" lon="14.6974033"><ele>36.400000000000006</ele><time>2026-04-18T09:06:44.873Z</time></trkpt><trkpt lat="42.169215" lon="14.6972867"><ele>36.6</ele><time>2026-04-18T09:06:46.873Z</time></trkpt><trkpt lat="42.1692467" lon="14.6971583"><ele>36.800000000000004</ele><time>2026-04-18T09:06:48.874Z</time></trkpt><trkpt lat="42.169275" lon="14.6970367"><ele>37.0</ele><time>2026-04-18T09:06:50.873Z</time></trkpt><trkpt lat="42.1692967" lon="14.696915"><ele>37.0</ele><time>2026-04-18T09:06:52.874Z</time></trkpt><trkpt lat="42.1693183" lon="14.6968167"><ele>37.0</ele><time>2026-04-18T09:06:54.874Z</time></trkpt><trkpt lat="42.1693333" lon="14.69672"><ele>37.0</ele><time>2026-04-18T09:06:56.874Z</time></trkpt><trkpt lat="42.169345" lon="14.6966283"><ele>37.0</ele><time>2026-04-18T09:06:58.874Z</time></trkpt><trkpt lat="42.1693667" lon="14.6965483"><ele>37.0</ele><time>2026-04-18T09:07:00.874Z</time></trkpt><trkpt lat="42.1693983" lon="14.696455"><ele>37.0</ele><time>2026-04-18T09:07:03.873Z</time></trkpt><trkpt lat="42.16942" lon="14.69635"><ele>37.0</ele><time>2026-04-18T09:07:06.874Z</time></trkpt><trkpt lat="42.169445" lon="14.6962567"><ele>37.0</ele><time>2026-04-18T09:07:09.873Z</time></trkpt><trkpt lat="42.169465" lon="14.6961517"><ele>37.0</ele><time>2026-04-18T09:07:12.873Z</time></trkpt><trkpt lat="42.16949" lon="14.6960733"><ele>37.0</ele><time>2026-04-18T09:07:14.873Z</time></trkpt><trkpt lat="42.169515" lon="14.6959583"><ele>37.0</ele><time>2026-04-18T09:07:17.873Z</time></trkpt><trkpt lat="42.1695567" lon="14.6958483"><ele>37.0</ele><time>2026-04-18T09:07:20.874Z</time></trkpt><trkpt lat="42.1696" lon="14.6957717"><ele>37.0</ele><time>2026-04-18T09:07:22.874Z</time></trkpt><trkpt lat="42.1696467" lon="14.6956967"><ele>36.833333333333336</ele><time>2026-04-18T09:07:24.874Z</time></trkpt><trkpt lat="42.16969" lon="14.6956017"><ele>36.66666666666667</ele><time>2026-04-18T09:07:26.874Z</time></trkpt><trkpt lat="42.16972" lon="14.69549"><ele>36.5</ele><time>2026-04-18T09:07:28.873Z</time></trkpt><trkpt lat="42.1697333" lon="14.6953783"><ele>36.333333333333336</ele><time>2026-04-18T09:07:30.874Z</time></trkpt><trkpt lat="42.16974" lon="14.6952583"><ele>36.166666666666664</ele><time>2026-04-18T09:07:32.874Z</time></trkpt><trkpt lat="42.1697433" lon="14.6951367"><ele>36.0</ele><time>2026-04-18T09:07:34.874Z</time></trkpt><trkpt lat="42.1697717" lon="14.695025"><ele>35.833333333333336</ele><time>2026-04-18T09:07:36.873Z</time></trkpt><trkpt lat="42.16981" lon="14.6949067"><ele>35.666666666666664</ele><time>2026-04-18T09:07:38.874Z</time></trkpt><trkpt lat="42.16985" lon="14.6947883"><ele>35.5</ele><time>2026-04-18T09:07:40.874Z</time></trkpt><trkpt lat="42.1698767" lon="14.69469"><ele>35.33333333333333</ele><time>2026-04-18T09:07:42.873Z</time></trkpt><trkpt lat="42.1699083" lon="14.6945933"><ele>35.166666666666664</ele><time>2026-04-18T09:07:44.874Z</time></trkpt><trkpt lat="42.16994" lon="14.6944917"><ele>35.0</ele><time>2026-04-18T09:07:46.874Z</time></trkpt><trkpt lat="42.1699817" lon="14.6943733"><ele>35.5</ele><time>2026-04-18T09:07:48.874Z</time></trkpt><trkpt lat="42.1700217" lon="14.6942667"><ele>36.0</ele><time>2026-04-18T09:07:50.874Z</time></trkpt><trkpt lat="42.1700617" lon="14.6941683"><ele>36.5</ele><time>2026-04-18T09:07:52.873Z</time></trkpt><trkpt lat="42.1700983" lon="14.694065"><ele>37.0</ele><time>2026-04-18T09:07:54.874Z</time></trkpt><trkpt lat="42.17013" lon="14.6939717"><ele>37.5</ele><time>2026-04-18T09:07:56.874Z</time></trkpt><trkpt lat="42.1701667" lon="14.693865"><ele>38.0</ele><time>2026-04-18T09:07:58.874Z</time></trkpt><trkpt lat="42.1701983" lon="14.693755"><ele>38.0</ele><time>2026-04-18T09:08:00.873Z</time></trkpt><trkpt lat="42.1702383" lon="14.69364"><ele>38.0</ele><time>2026-04-18T09:08:02.874Z</time></trkpt><trkpt lat="42.1702717" lon="14.6935367"><ele>38.0</ele><time>2026-04-18T09:08:04.874Z</time></trkpt><trkpt lat="42.1703217" lon="14.6934383"><ele>38.0</ele><time>2026-04-18T09:08:06.873Z</time></trkpt><trkpt lat="42.1703667" lon="14.6933333"><ele>38.0</ele><time>2026-04-18T09:08:08.873Z</time></trkpt><trkpt lat="42.1704033" lon="14.69322"><ele>38.0</ele><time>2026-04-18T09:08:10.873Z</time></trkpt><trkpt lat="42.17044" lon="14.6930933"><ele>37.8</ele><time>2026-04-18T09:08:12.874Z</time></trkpt><trkpt lat="42.170485" lon="14.6929817"><ele>37.599999999999994</ele><time>2026-04-18T09:08:14.873Z</time></trkpt><trkpt lat="42.1705233" lon="14.6928767"><ele>37.400000000000006</ele><time>2026-04-18T09:08:16.874Z</time></trkpt><trkpt lat="42.17056" lon="14.692775"><ele>37.2</ele><time>2026-04-18T09:08:18.874Z</time></trkpt><trkpt lat="42.1706033" lon="14.6926517"><ele>37.0</ele><time>2026-04-18T09:08:20.873Z</time></trkpt><trkpt lat="42.1706433" lon="14.6925183"><ele>36.800000000000004</ele><time>2026-04-18T09:08:22.874Z</time></trkpt><trkpt lat="42.1706817" lon="14.6924"><ele>36.6</ele><time>2026-04-18T09:08:24.874Z</time></trkpt><trkpt lat="42.170725" lon="14.6922817"><ele>36.400000000000006</ele><time>2026-04-18T09:08:26.873Z</time></trkpt><trkpt lat="42.170765" lon="14.69217"><ele>36.2</ele><time>2026-04-18T09:08:28.873Z</time></trkpt><trkpt lat="42.1708033" lon="14.6920617"><ele>36.0</ele><time>2026-04-18T09:08:30.874Z</time></trkpt><trkpt lat="42.17084" lon="14.69196"><ele>35.666666666666664</ele><time>2026-04-18T09:08:32.873Z</time></trkpt><trkpt lat="42.17088" lon="14.691865"><ele>35.333333333333336</ele><time>2026-04-18T09:08:34.874Z</time></trkpt><trkpt lat="42.1709383" lon="14.6917817"><ele>35.0</ele><time>2026-04-18T09:08:36.873Z</time></trkpt><trkpt lat="42.1710067" lon="14.691725"><ele>34.66666666666667</ele><time>2026-04-18T09:08:38.874Z</time></trkpt><trkpt lat="42.17108" lon="14.6917083"><ele>34.333333333333336</ele><time>2026-04-18T09:08:40.874Z</time></trkpt><trkpt lat="42.1711617" lon="14.6917233"><ele>34.0</ele><time>2026-04-18T09:08:42.873Z</time></trkpt><trkpt lat="42.17124" lon="14.691755"><ele>34.0</ele><time>2026-04-18T09:08:44.874Z</time></trkpt><trkpt lat="42.1713267" lon="14.691805"><ele>34.0</ele><time>2026-04-18T09:08:46.874Z</time></trkpt><trkpt lat="42.1714167" lon="14.691855"><ele>34.0</ele><time>2026-04-18T09:08:48.874Z</time></trkpt><trkpt lat="42.1715033" lon="14.6919067"><ele>34.0</ele><time>2026-04-18T09:08:50.874Z</time></trkpt><trkpt lat="42.171585" lon="14.69196"><ele>34.0</ele><time>2026-04-18T09:08:52.874Z</time></trkpt><trkpt lat="42.17167" lon="14.6920217"><ele>34.6</ele><time>2026-04-18T09:08:54.873Z</time></trkpt><trkpt lat="42.17176" lon="14.69208"><ele>35.2</ele><time>2026-04-18T09:08:56.873Z</time></trkpt><trkpt lat="42.1718533" lon="14.692135"><ele>35.800000000000004</ele><time>2026-04-18T09:08:58.874Z</time></trkpt><trkpt lat="42.171935" lon="14.692185"><ele>36.4</ele><time>2026-04-18T09:09:00.874Z</time></trkpt><trkpt lat="42.1720217" lon="14.692225"><ele>37.0</ele><time>2026-04-18T09:09:02.874Z</time></trkpt><trkpt lat="42.1721017" lon="14.6922783"><ele>37.0</ele><time>2026-04-18T09:09:04.873Z</time></trkpt><trkpt lat="42.1721833" lon="14.6923383"><ele>37.0</ele><time>2026-04-18T09:09:06.874Z</time></trkpt><trkpt lat="42.17227" lon="14.6923983"><ele>37.0</ele><time>2026-04-18T09:09:08.873Z</time></trkpt><trkpt lat="42.1723517" lon="14.6924467"><ele>37.0</ele><time>2026-04-18T09:09:10.873Z</time></trkpt><trkpt lat="42.1724383" lon="14.6924967"><ele>37.0</ele><time>2026-04-18T09:09:12.873Z</time></trkpt><trkpt lat="42.1725183" lon="14.6925533"><ele>36.800000000000004</ele><time>2026-04-18T09:09:14.874Z</time></trkpt><trkpt lat="42.1726" lon="14.692605"><ele>36.6</ele><time>2026-04-18T09:09:16.874Z</time></trkpt><trkpt lat="42.17269" lon="14.6926617"><ele>36.400000000000006</ele><time>2026-04-18T09:09:18.873Z</time></trkpt><trkpt lat="42.1727817" lon="14.6927133"><ele>36.2</ele><time>2026-04-18T09:09:20.874Z</time></trkpt><trkpt lat="42.1728733" lon="14.692765"><ele>36.0</ele><time>2026-04-18T09:09:22.874Z</time></trkpt><trkpt lat="42.1729617" lon="14.692815"><ele>36.0</ele><time>2026-04-18T09:09:24.874Z</time></trkpt><trkpt lat="42.17304" lon="14.6928667"><ele>36.0</ele><time>2026-04-18T09:09:26.874Z</time></trkpt><trkpt lat="42.1731183" lon="14.6929233"><ele>36.0</ele><time>2026-04-18T09:09:28.873Z</time></trkpt><trkpt lat="42.1731983" lon="14.6929867"><ele>36.0</ele><time>2026-04-18T09:09:30.873Z</time></trkpt><trkpt lat="42.1732767" lon="14.6930417"><ele>36.0</ele><time>2026-04-18T09:09:32.874Z</time></trkpt><trkpt lat="42.1733633" lon="14.6930967"><ele>35.6</ele><time>2026-04-18T09:09:34.874Z</time></trkpt><trkpt lat="42.1734583" lon="14.693155"><ele>35.2</ele><time>2026-04-18T09:09:36.874Z</time></trkpt><trkpt lat="42.1735483" lon="14.6932117"><ele>34.8</ele><time>2026-04-18T09:09:38.873Z</time></trkpt><trkpt lat="42.1736433" lon="14.6932683"><ele>34.4</ele><time>2026-04-18T09:09:40.873Z</time></trkpt><trkpt lat="42.1737417" lon="14.693315"><ele>34.0</ele><time>2026-04-18T09:09:42.873Z</time></trkpt><trkpt lat="42.1738333" lon="14.69336"><ele>34.0</ele><time>2026-04-18T09:09:44.873Z</time></trkpt><trkpt lat="42.17392" lon="14.6934333"><ele>34.0</ele><time>2026-04-18T09:09:46.874Z</time></trkpt><trkpt lat="42.174005" lon="14.6934883"><ele>34.0</ele><time>2026-04-18T09:09:48.874Z</time></trkpt><trkpt lat="42.17408" lon="14.69354"><ele>34.0</ele><time>2026-04-18T09:09:50.874Z</time></trkpt><trkpt lat="42.17415" lon="14.6935867"><ele>34.0</ele><time>2026-04-18T09:09:52.874Z</time></trkpt><trkpt lat="42.1742267" lon="14.693605"><ele>34.0</ele><time>2026-04-18T09:09:54.874Z</time></trkpt><trkpt lat="42.1743183" lon="14.693575"><ele>34.0</ele><time>2026-04-18T09:09:56.873Z</time></trkpt><trkpt lat="42.1743783" lon="14.69352"><ele>34.0</ele><time>2026-04-18T09:09:58.873Z</time></trkpt><trkpt lat="42.1744583" lon="14.693445"><ele>34.0</ele><time>2026-04-18T09:10:01.874Z</time></trkpt><trkpt lat="42.1745317" lon="14.6933683"><ele>34.0</ele><time>2026-04-18T09:10:03.873Z</time></trkpt><trkpt lat="42.1746083" lon="14.6932983"><ele>34.0</ele><time>2026-04-18T09:10:05.874Z</time></trkpt><trkpt lat="42.174685" lon="14.6932333"><ele>34.0</ele><time>2026-04-18T09:10:07.874Z</time></trkpt><trkpt lat="42.17476" lon="14.693165"><ele>34.0</ele><time>2026-04-18T09:10:09.874Z</time></trkpt><trkpt lat="42.1748367" lon="14.6930883"><ele>34.0</ele><time>2026-04-18T09:10:11.874Z</time></trkpt><trkpt lat="42.1749083" lon="14.6930183"><ele>34.0</ele><time>2026-04-18T09:10:13.873Z</time></trkpt><trkpt lat="42.1749767" lon="14.6929617"><ele>34.0</ele><time>2026-04-18T09:10:15.874Z</time></trkpt><trkpt lat="42.1750367" lon="14.69291"><ele>34.0</ele><time>2026-04-18T09:10:17.874Z</time></trkpt><trkpt lat="42.1751017" lon="14.692835"><ele>34.0</ele><time>2026-04-18T09:10:19.873Z</time></trkpt><trkpt lat="42.175155" lon="14.6927617"><ele>34.16666666666667</ele><time>2026-04-18T09:10:21.874Z</time></trkpt><trkpt lat="42.1752167" lon="14.692685"><ele>34.333333333333336</ele><time>2026-04-18T09:10:23.874Z</time></trkpt><trkpt lat="42.1752767" lon="14.692605"><ele>34.5</ele><time>2026-04-18T09:10:25.874Z</time></trkpt><trkpt lat="42.1753367" lon="14.6925133"><ele>34.666666666666664</ele><time>2026-04-18T09:10:27.874Z</time></trkpt><trkpt lat="42.1753917" lon="14.69242"><ele>34.83333333333333</ele><time>2026-04-18T09:10:29.874Z</time></trkpt><trkpt lat="42.175445" lon="14.6923317"><ele>35.0</ele><time>2026-04-18T09:10:31.874Z</time></trkpt><trkpt lat="42.1754933" lon="14.6922433"><ele>35.0</ele><time>2026-04-18T09:10:33.874Z</time></trkpt><trkpt lat="42.17554" lon="14.69213"><ele>35.0</ele><time>2026-04-18T09:10:35.874Z</time></trkpt><trkpt lat="42.1755767" lon="14.692015"><ele>35.0</ele><time>2026-04-18T09:10:37.874Z</time></trkpt><trkpt lat="42.1756233" lon="14.6919033"><ele>35.0</ele><time>2026-04-18T09:10:39.873Z</time></trkpt><trkpt lat="42.1756767" lon="14.691775"><ele>35.0</ele><time>2026-04-18T09:10:41.874Z</time></trkpt><trkpt lat="42.1757233" lon="14.6916483"><ele>35.0</ele><time>2026-04-18T09:10:43.874Z</time></trkpt><trkpt lat="42.175755" lon="14.69154"><ele>35.0</ele><time>2026-04-18T09:10:45.874Z</time></trkpt><trkpt lat="42.175765" lon="14.691425"><ele>35.0</ele><time>2026-04-18T09:10:47.873Z</time></trkpt><trkpt lat="42.175795" lon="14.6913217"><ele>35.0</ele><time>2026-04-18T09:10:49.874Z</time></trkpt><trkpt lat="42.175855" lon="14.69124"><ele>35.0</ele><time>2026-04-18T09:10:51.874Z</time></trkpt><trkpt lat="42.1759083" lon="14.6911683"><ele>35.0</ele><time>2026-04-18T09:10:53.873Z</time></trkpt><trkpt lat="42.17595" lon="14.6910767"><ele>35.0</ele><time>2026-04-18T09:10:55.873Z</time></trkpt><trkpt lat="42.176" lon="14.6909667"><ele>35.0</ele><time>2026-04-18T09:10:57.874Z</time></trkpt><trkpt lat="42.1760383" lon="14.6908483"><ele>35.0</ele><time>2026-04-18T09:10:59.873Z</time></trkpt><trkpt lat="42.176075" lon="14.6907317"><ele>35.0</ele><time>2026-04-18T09:11:01.874Z</time></trkpt><trkpt lat="42.1761033" lon="14.6906083"><ele>35.0</ele><time>2026-04-18T09:11:03.873Z</time></trkpt><trkpt lat="42.176135" lon="14.6904833"><ele>35.0</ele><time>2026-04-18T09:11:05.873Z</time></trkpt><trkpt lat="42.1761733" lon="14.6903517"><ele>35.0</ele><time>2026-04-18T09:11:07.874Z</time></trkpt><trkpt lat="42.17621" lon="14.6902167"><ele>35.0</ele><time>2026-04-18T09:11:09.873Z</time></trkpt><trkpt lat="42.1762567" lon="14.69009"><ele>35.0</ele><time>2026-04-18T09:11:11.874Z</time></trkpt><trkpt lat="42.1763067" lon="14.68996"><ele>35.0</ele><time>2026-04-18T09:11:13.873Z</time></trkpt><trkpt lat="42.1763467" lon="14.6898283"><ele>34.8</ele><time>2026-04-18T09:11:15.874Z</time></trkpt><trkpt lat="42.1763867" lon="14.6896967"><ele>34.6</ele><time>2026-04-18T09:11:17.874Z</time></trkpt><trkpt lat="42.176435" lon="14.6895633"><ele>34.4</ele><time>2026-04-18T09:11:19.873Z</time></trkpt><trkpt lat="42.176485" lon="14.6894367"><ele>34.2</ele><time>2026-04-18T09:11:21.874Z</time></trkpt><trkpt lat="42.176535" lon="14.6893183"><ele>34.0</ele><time>2026-04-18T09:11:23.874Z</time></trkpt><trkpt lat="42.1765833" lon="14.68921"><ele>33.6</ele><time>2026-04-18T09:11:25.874Z</time></trkpt><trkpt lat="42.1766517" lon="14.689115"><ele>33.2</ele><time>2026-04-18T09:11:27.874Z</time></trkpt><trkpt lat="42.1767417" lon="14.6890433"><ele>32.800000000000004</ele><time>2026-04-18T09:11:29.873Z</time></trkpt><trkpt lat="42.1768467" lon="14.6889917"><ele>32.4</ele><time>2026-04-18T09:11:31.873Z</time></trkpt><trkpt lat="42.1769483" lon="14.6889817"><ele>32.0</ele><time>2026-04-18T09:11:33.873Z</time></trkpt><trkpt lat="42.177045" lon="14.6889917"><ele>32.0</ele><time>2026-04-18T09:11:35.873Z</time></trkpt><trkpt lat="42.17714" lon="14.688985"><ele>32.0</ele><time>2026-04-18T09:11:37.874Z</time></trkpt><trkpt lat="42.177245" lon="14.6889367"><ele>32.0</ele><time>2026-04-18T09:11:39.873Z</time></trkpt><trkpt lat="42.177345" lon="14.6888483"><ele>32.0</ele><time>2026-04-18T09:11:41.873Z</time></trkpt><trkpt lat="42.1774317" lon="14.6887283"><ele>31.400000000000002</ele><time>2026-04-18T09:11:43.874Z</time></trkpt><trkpt lat="42.17751" lon="14.6885983"><ele>30.800000000000004</ele><time>2026-04-18T09:11:45.874Z</time></trkpt><trkpt lat="42.17755" lon="14.6885267"><ele>30.2</ele><time>2026-04-18T09:11:46.874Z</time></trkpt><trkpt lat="42.17762" lon="14.6884033"><ele>29.6</ele><time>2026-04-18T09:11:48.874Z</time></trkpt><trkpt lat="42.1776967" lon="14.6882917"><ele>29.0</ele><time>2026-04-18T09:11:50.873Z</time></trkpt><trkpt lat="42.1777883" lon="14.6881883"><ele>29.0</ele><time>2026-04-18T09:11:52.874Z</time></trkpt><trkpt lat="42.1778717" lon="14.6880817"><ele>29.0</ele><time>2026-04-18T09:11:54.874Z</time></trkpt><trkpt lat="42.1779483" lon="14.6879867"><ele>29.0</ele><time>2026-04-18T09:11:56.873Z</time></trkpt><trkpt lat="42.1780383" lon="14.6879067"><ele>29.0</ele><time>2026-04-18T09:11:58.874Z</time></trkpt><trkpt lat="42.178135" lon="14.6878483"><ele>29.0</ele><time>2026-04-18T09:12:00.874Z</time></trkpt><trkpt lat="42.1782383" lon="14.6877933"><ele>28.0</ele><time>2026-04-18T09:12:02.874Z</time></trkpt><trkpt lat="42.17835" lon="14.6877283"><ele>27.0</ele><time>2026-04-18T09:12:04.874Z</time></trkpt><trkpt lat="42.178465" lon="14.6876633"><ele>26.0</ele><time>2026-04-18T09:12:06.873Z</time></trkpt><trkpt lat="42.1785867" lon="14.68762"><ele>25.0</ele><time>2026-04-18T09:12:08.874Z</time></trkpt><trkpt lat="42.1786517" lon="14.6876133"><ele>24.0</ele><time>2026-04-18T09:12:09.874Z</time></trkpt><trkpt lat="42.1787683" lon="14.6876183"><ele>24.0</ele><time>2026-04-18T09:12:11.874Z</time></trkpt><trkpt lat="42.178895" lon="14.687615"><ele>24.0</ele><time>2026-04-18T09:12:13.873Z</time></trkpt><trkpt lat="42.1789967" lon="14.68759"><ele>24.0</ele><time>2026-04-18T09:12:15.873Z</time></trkpt><trkpt lat="42.1790833" lon="14.68758"><ele>24.0</ele><time>2026-04-18T09:12:17.874Z</time></trkpt><trkpt lat="42.1791717" lon="14.6875733"><ele>24.0</ele><time>2026-04-18T09:12:19.874Z</time></trkpt><trkpt lat="42.1792533" lon="14.6876133"><ele>22.666666666666668</ele><time>2026-04-18T09:12:21.874Z</time></trkpt><trkpt lat="42.1793233" lon="14.6876383"><ele>21.333333333333332</ele><time>2026-04-18T09:12:23.874Z</time></trkpt><trkpt lat="42.17941" lon="14.6876517"><ele>20.0</ele><time>2026-04-18T09:12:26.874Z</time></trkpt><trkpt lat="42.1794967" lon="14.687645"><ele>18.666666666666664</ele><time>2026-04-18T09:12:29.874Z</time></trkpt><trkpt lat="42.17959" lon="14.6876267"><ele>17.333333333333332</ele><time>2026-04-18T09:12:32.874Z</time></trkpt><trkpt lat="42.1796583" lon="14.6876017"><ele>16.0</ele><time>2026-04-18T09:12:34.874Z</time></trkpt><trkpt lat="42.1797283" lon="14.6875567"><ele>16.0</ele><time>2026-04-18T09:12:36.874Z</time></trkpt><trkpt lat="42.1797817" lon="14.68751"><ele>15.999999999999998</ele><time>2026-04-18T09:12:38.874Z</time></trkpt><trkpt lat="42.1798083" lon="14.6874283"><ele>16.0</ele><time>2026-04-18T09:12:40.874Z</time></trkpt><trkpt lat="42.179835" lon="14.6873333"><ele>16.0</ele><time>2026-04-18T09:12:43.874Z</time></trkpt><trkpt lat="42.179825" lon="14.68722"><ele>15.999999999999998</ele><time>2026-04-18T09:12:47.874Z</time></trkpt><trkpt lat="42.17981" lon="14.6871183"><ele>16.0</ele><time>2026-04-18T09:12:50.873Z</time></trkpt><trkpt lat="42.1797983" lon="14.687015"><ele>16.0</ele><time>2026-04-18T09:12:53.874Z</time></trkpt><trkpt lat="42.1797867" lon="14.68693"><ele>15.857142857142856</ele><time>2026-04-18T09:12:56.873Z</time></trkpt><trkpt lat="42.17977" lon="14.6868317"><ele>15.714285714285712</ele><time>2026-04-18T09:12:59.873Z</time></trkpt><trkpt lat="42.17975" lon="14.68673"><ele>15.571428571428571</ele><time>2026-04-18T09:13:02.874Z</time></trkpt><trkpt lat="42.1797483" lon="14.6866383"><ele>15.428571428571427</ele><time>2026-04-18T09:13:05.873Z</time></trkpt><trkpt lat="42.1797417" lon="14.6865533"><ele>15.285714285714285</ele><time>2026-04-18T09:13:08.874Z</time></trkpt><trkpt lat="42.1796983" lon="14.6864767"><ele>15.142857142857142</ele><time>2026-04-18T09:13:11.874Z</time></trkpt><trkpt lat="42.1796283" lon="14.6863967"><ele>15.0</ele><time>2026-04-18T09:13:14.874Z</time></trkpt><trkpt lat="42.1795667" lon="14.68635"><ele>15.0</ele><time>2026-04-18T09:13:16.874Z</time></trkpt><trkpt lat="42.1794983" lon="14.6862833"><ele>15.0</ele><time>2026-04-18T09:13:19.874Z</time></trkpt><trkpt lat="42.1794367" lon="14.6862283"><ele>15.0</ele><time>2026-04-18T09:13:22.873Z</time></trkpt><trkpt lat="42.1793833" lon="14.6861833"><ele>15.0</ele><time>2026-04-18T09:13:25.873Z</time></trkpt><trkpt lat="42.1792983" lon="14.6861667"><ele>15.0</ele><time>2026-04-18T09:14:13.874Z</time></trkpt><trkpt lat="42.17925" lon="14.68626"><ele>15.0</ele><time>2026-04-18T09:14:16.873Z</time></trkpt><trkpt lat="42.179195" lon="14.6863283"><ele>15.0</ele><time>2026-04-18T09:14:19.874Z</time></trkpt><trkpt lat="42.17911" lon="14.6863383"><ele>15.0</ele><time>2026-04-18T09:14:22.873Z</time></trkpt><trkpt lat="42.1790433" lon="14.6863433"><ele>15.0</ele><time>2026-04-18T09:14:25.874Z</time></trkpt><trkpt lat="42.1789883" lon="14.686285"><ele>15.0</ele><time>2026-04-18T09:14:28.874Z</time></trkpt><trkpt lat="42.1789383" lon="14.6861917"><ele>15.0</ele><time>2026-04-18T09:14:31.874Z</time></trkpt><trkpt lat="42.1788833" lon="14.6861233"><ele>15.0</ele><time>2026-04-18T09:14:33.874Z</time></trkpt><trkpt lat="42.1788083" lon="14.6860483"><ele>13.25</ele><time>2026-04-18T09:14:35.874Z</time></trkpt><trkpt lat="42.1787217" lon="14.68596"><ele>11.5</ele><time>2026-04-18T09:14:37.874Z</time></trkpt><trkpt lat="42.178625" lon="14.6858833"><ele>9.75</ele><time>2026-04-18T09:14:39.874Z</time></trkpt><trkpt lat="42.178525" lon="14.6858133"><ele>8.0</ele><time>2026-04-18T09:14:41.874Z</time></trkpt><trkpt lat="42.1784267" lon="14.6857217"><ele>8.0</ele><time>2026-04-18T09:14:43.874Z</time></trkpt><trkpt lat="42.1783367" lon="14.6856233"><ele>8.0</ele><time>2026-04-18T09:14:45.874Z</time></trkpt><trkpt lat="42.178245" lon="14.6855267"><ele>8.0</ele><time>2026-04-18T09:14:47.874Z</time></trkpt><trkpt lat="42.1781533" lon="14.6854367"><ele>8.0</ele><time>2026-04-18T09:14:49.874Z</time></trkpt><trkpt lat="42.17808" lon="14.685355"><ele>8.0</ele><time>2026-04-18T09:14:51.874Z</time></trkpt><trkpt lat="42.1780267" lon="14.6852933"><ele>8.666666666666666</ele><time>2026-04-18T09:14:53.874Z</time></trkpt><trkpt lat="42.1779667" lon="14.6852367"><ele>9.333333333333332</ele><time>2026-04-18T09:14:56.873Z</time></trkpt><trkpt lat="42.177905" lon="14.68517"><ele>10.0</ele><time>2026-04-18T09:14:59.874Z</time></trkpt><trkpt lat="42.1778317" lon="14.6851117"><ele>10.666666666666666</ele><time>2026-04-18T09:15:02.873Z</time></trkpt><trkpt lat="42.1777817" lon="14.68506"><ele>11.333333333333334</ele><time>2026-04-18T09:15:04.874Z</time></trkpt><trkpt lat="42.177725" lon="14.6849867"><ele>12.0</ele><time>2026-04-18T09:15:06.874Z</time></trkpt><trkpt lat="42.1776917" lon="14.6848933"><ele>11.999999999999998</ele><time>2026-04-18T09:15:08.874Z</time></trkpt><trkpt lat="42.1776783" lon="14.68481"><ele>12.0</ele><time>2026-04-18T09:15:10.873Z</time></trkpt><trkpt lat="42.177695" lon="14.6847083"><ele>12.0</ele><time>2026-04-18T09:15:12.874Z</time></trkpt><trkpt lat="42.1777033" lon="14.6846167"><ele>12.0</ele><time>2026-04-18T09:15:14.873Z</time></trkpt><trkpt lat="42.1777717" lon="14.684545"><ele>12.0</ele><time>2026-04-18T09:15:17.874Z</time></trkpt><trkpt lat="42.177845" lon="14.684505"><ele>11.999999999999998</ele><time>2026-04-18T09:15:19.874Z</time></trkpt><trkpt lat="42.1779117" lon="14.68448"><ele>12.0</ele><time>2026-04-18T09:15:21.873Z</time></trkpt><trkpt lat="42.1779867" lon="14.6844783"><ele>11.999999999999998</ele><time>2026-04-18T09:15:23.874Z</time></trkpt><trkpt lat="42.1780533" lon="14.6844567"><ele>12.0</ele><time>2026-04-18T09:15:25.873Z</time></trkpt><trkpt lat="42.1781267" lon="14.6844433"><ele>12.0</ele><time>2026-04-18T09:15:27.874Z</time></trkpt><trkpt lat="42.1782067" lon="14.68442"><ele>12.0</ele><time>2026-04-18T09:15:29.874Z</time></trkpt><trkpt lat="42.17828" lon="14.6843883"><ele>12.0</ele><time>2026-04-18T09:15:31.873Z</time></trkpt><trkpt lat="42.178345" lon="14.6843633"><ele>11.999999999999998</ele><time>2026-04-18T09:15:33.873Z</time></trkpt><trkpt lat="42.1784133" lon="14.68434"><ele>12.0</ele><time>2026-04-18T09:15:35.874Z</time></trkpt><trkpt lat="42.1784833" lon="14.6843117"><ele>12.57142857142857</ele><time>2026-04-18T09:15:37.873Z</time></trkpt><trkpt lat="42.1785533" lon="14.68428"><ele>13.142857142857142</ele><time>2026-04-18T09:15:39.874Z</time></trkpt><trkpt lat="42.1786167" lon="14.6842483"><ele>13.714285714285714</ele><time>2026-04-18T09:15:41.873Z</time></trkpt><trkpt lat="42.1786817" lon="14.6842133"><ele>14.285714285714285</ele><time>2026-04-18T09:15:43.874Z</time></trkpt><trkpt lat="42.17874" lon="14.684165"><ele>14.857142857142856</ele><time>2026-04-18T09:15:45.874Z</time></trkpt><trkpt lat="42.1787967" lon="14.684125"><ele>15.428571428571427</ele><time>2026-04-18T09:15:47.873Z</time></trkpt><trkpt lat="42.17887" lon="14.6840517"><ele>16.0</ele><time>2026-04-18T09:15:50.873Z</time></trkpt><trkpt lat="42.17893" lon="14.6839833"><ele>16.0</ele><time>2026-04-18T09:15:53.873Z</time></trkpt><trkpt lat="42.1789983" lon="14.6839167"><ele>15.999999999999998</ele><time>2026-04-18T09:15:56.873Z</time></trkpt><trkpt lat="42.1790683" lon="14.6838267"><ele>16.0</ele><time>2026-04-18T09:15:59.873Z</time></trkpt><trkpt lat="42.17911" lon="14.6837583"><ele>16.0</ele><time>2026-04-18T09:16:01.874Z</time></trkpt><trkpt lat="42.1791467" lon="14.68368"><ele>15.999999999999998</ele><time>2026-04-18T09:16:03.874Z</time></trkpt><trkpt lat="42.1791683" lon="14.6835983"><ele>16.0</ele><time>2026-04-18T09:16:05.874Z</time></trkpt><trkpt lat="42.1791783" lon="14.683505"><ele>16.0</ele><time>2026-04-18T09:16:07.874Z</time></trkpt><trkpt lat="42.1791833" lon="14.6833983"><ele>16.6</ele><time>2026-04-18T09:16:09.873Z</time></trkpt><trkpt lat="42.1791767" lon="14.6833067"><ele>17.200000000000003</ele><time>2026-04-18T09:16:11.873Z</time></trkpt><trkpt lat="42.1791567" lon="14.683195"><ele>17.799999999999997</ele><time>2026-04-18T09:16:14.874Z</time></trkpt><trkpt lat="42.1791333" lon="14.6831133"><ele>18.4</ele><time>2026-04-18T09:16:17.874Z</time></trkpt><trkpt lat="42.1791167" lon="14.6829017"><ele>19.0</ele><time>2026-04-18T09:17:23.141Z</time></trkpt><trkpt lat="42.1790783" lon="14.6831167"><ele>19.0</ele><time>2026-04-18T09:17:28.873Z</time></trkpt><trkpt lat="42.1790217" lon="14.6830533"><ele>19.0</ele><time>2026-04-18T09:17:39.874Z</time></trkpt><trkpt lat="42.178955" lon="14.6830367"><ele>19.0</ele><time>2026-04-18T09:17:42.874Z</time></trkpt><trkpt lat="42.1788883" lon="14.6830183"><ele>19.0</ele><time>2026-04-18T09:17:44.874Z</time></trkpt><trkpt lat="42.1788033" lon="14.6829967"><ele>19.0</ele><time>2026-04-18T09:17:46.873Z</time></trkpt><trkpt lat="42.1787133" lon="14.6829733"><ele>19.0</ele><time>2026-04-18T09:17:48.873Z</time></trkpt><trkpt lat="42.1786267" lon="14.68294"><ele>19.4</ele><time>2026-04-18T09:17:50.874Z</time></trkpt><trkpt lat="42.1785383" lon="14.6829233"><ele>19.799999999999997</ele><time>2026-04-18T09:17:52.874Z</time></trkpt><trkpt lat="42.1784483" lon="14.6829033"><ele>20.200000000000003</ele><time>2026-04-18T09:17:54.873Z</time></trkpt><trkpt lat="42.178355" lon="14.6828867"><ele>20.6</ele><time>2026-04-18T09:17:56.873Z</time></trkpt><trkpt lat="42.1782583" lon="14.68287"><ele>21.0</ele><time>2026-04-18T09:17:58.874Z</time></trkpt><trkpt lat="42.1781567" lon="14.6828567"><ele>21.0</ele><time>2026-04-18T09:18:00.874Z</time></trkpt><trkpt lat="42.1780567" lon="14.682835"><ele>21.0</ele><time>2026-04-18T09:18:02.873Z</time></trkpt><trkpt lat="42.177945" lon="14.6828167"><ele>21.0</ele><time>2026-04-18T09:18:04.874Z</time></trkpt><trkpt lat="42.17783" lon="14.6827967"><ele>21.0</ele><time>2026-04-18T09:18:06.874Z</time></trkpt><trkpt lat="42.1777267" lon="14.682775"><ele>21.0</ele><time>2026-04-18T09:18:08.874Z</time></trkpt><trkpt lat="42.1776317" lon="14.6827533"><ele>22.0</ele><time>2026-04-18T09:18:10.874Z</time></trkpt><trkpt lat="42.17755" lon="14.6827367"><ele>23.0</ele><time>2026-04-18T09:18:12.874Z</time></trkpt><trkpt lat="42.17748" lon="14.6827233"><ele>24.0</ele><time>2026-04-18T09:18:14.874Z</time></trkpt><trkpt lat="42.1774167" lon="14.68271"><ele>25.0</ele><time>2026-04-18T09:18:16.874Z</time></trkpt><trkpt lat="42.1773533" lon="14.6827"><ele>26.0</ele><time>2026-04-18T09:18:18.874Z</time></trkpt><trkpt lat="42.1772567" lon="14.6826867"><ele>27.0</ele><time>2026-04-18T09:18:21.874Z</time></trkpt><trkpt lat="42.1771767" lon="14.6826667"><ele>27.0</ele><time>2026-04-18T09:18:23.873Z</time></trkpt><trkpt lat="42.1770933" lon="14.6826417"><ele>27.0</ele><time>2026-04-18T09:18:25.874Z</time></trkpt><trkpt lat="42.1770083" lon="14.68262"><ele>27.0</ele><time>2026-04-18T09:18:27.874Z</time></trkpt><trkpt lat="42.17693" lon="14.6825917"><ele>27.0</ele><time>2026-04-18T09:18:29.873Z</time></trkpt><trkpt lat="42.1768567" lon="14.6825633"><ele>27.0</ele><time>2026-04-18T09:18:31.874Z</time></trkpt><trkpt lat="42.176785" lon="14.68253"><ele>27.0</ele><time>2026-04-18T09:18:33.873Z</time></trkpt><trkpt lat="42.176715" lon="14.6825017"><ele>27.0</ele><time>2026-04-18T09:18:35.873Z</time></trkpt><trkpt lat="42.1766517" lon="14.68246"><ele>27.0</ele><time>2026-04-18T09:18:37.874Z</time></trkpt><trkpt lat="42.1766017" lon="14.682395"><ele>27.0</ele><time>2026-04-18T09:18:39.874Z</time></trkpt><trkpt lat="42.17657" lon="14.6823117"><ele>27.0</ele><time>2026-04-18T09:18:41.874Z</time></trkpt><trkpt lat="42.1765583" lon="14.6822233"><ele>27.0</ele><time>2026-04-18T09:18:43.874Z</time></trkpt><trkpt lat="42.1765733" lon="14.6821383"><ele>27.0</ele><time>2026-04-18T09:18:45.873Z</time></trkpt><trkpt lat="42.1766" lon="14.6820583"><ele>27.0</ele><time>2026-04-18T09:18:47.874Z</time></trkpt><trkpt lat="42.1766267" lon="14.6819733"><ele>27.833333333333332</ele><time>2026-04-18T09:18:49.874Z</time></trkpt><trkpt lat="42.1766617" lon="14.6818883"><ele>28.666666666666664</ele><time>2026-04-18T09:18:51.874Z</time></trkpt><trkpt lat="42.1766983" lon="14.6817967"><ele>29.5</ele><time>2026-04-18T09:18:53.873Z</time></trkpt><trkpt lat="42.1767267" lon="14.6816933"><ele>30.333333333333332</ele><time>2026-04-18T09:18:55.873Z</time></trkpt><trkpt lat="42.1767367" lon="14.68159"><ele>31.166666666666664</ele><time>2026-04-18T09:18:57.873Z</time></trkpt><trkpt lat="42.17672" lon="14.681505"><ele>32.0</ele><time>2026-04-18T09:18:59.874Z</time></trkpt><trkpt lat="42.1766617" lon="14.6814383"><ele>31.999999999999996</ele><time>2026-04-18T09:19:01.873Z</time></trkpt><trkpt lat="42.1765933" lon="14.681375"><ele>32.0</ele><time>2026-04-18T09:19:03.874Z</time></trkpt><trkpt lat="42.1765167" lon="14.681335"><ele>32.0</ele><time>2026-04-18T09:19:05.874Z</time></trkpt><trkpt lat="42.1764517" lon="14.6813417"><ele>32.0</ele><time>2026-04-18T09:19:07.873Z</time></trkpt><trkpt lat="42.176385" lon="14.68133"><ele>31.999999999999996</ele><time>2026-04-18T09:19:09.874Z</time></trkpt><trkpt lat="42.1763483" lon="14.68124"><ele>32.0</ele><time>2026-04-18T09:19:11.873Z</time></trkpt><trkpt lat="42.176315" lon="14.6811233"><ele>32.2</ele><time>2026-04-18T09:19:13.873Z</time></trkpt><trkpt lat="42.17628" lon="14.6810183"><ele>32.400000000000006</ele><time>2026-04-18T09:19:15.873Z</time></trkpt><trkpt lat="42.1762367" lon="14.6809033"><ele>32.599999999999994</ele><time>2026-04-18T09:19:17.873Z</time></trkpt><trkpt lat="42.176195" lon="14.6807983"><ele>32.8</ele><time>2026-04-18T09:19:19.874Z</time></trkpt><trkpt lat="42.17615" lon="14.6806983"><ele>33.0</ele><time>2026-04-18T09:19:21.874Z</time></trkpt><trkpt lat="42.1760933" lon="14.6805967"><ele>33.0</ele><time>2026-04-18T09:19:23.874Z</time></trkpt><trkpt lat="42.1760333" lon="14.6805033"><ele>33.0</ele><time>2026-04-18T09:19:25.874Z</time></trkpt><trkpt lat="42.175965" lon="14.6804133"><ele>33.0</ele><time>2026-04-18T09:19:27.874Z</time></trkpt><trkpt lat="42.1758933" lon="14.6803317"><ele>33.0</ele><time>2026-04-18T09:19:29.873Z</time></trkpt><trkpt lat="42.1758233" lon="14.68025"><ele>33.0</ele><time>2026-04-18T09:19:31.873Z</time></trkpt><trkpt lat="42.175755" lon="14.6801717"><ele>33.5</ele><time>2026-04-18T09:19:33.874Z</time></trkpt><trkpt lat="42.1756917" lon="14.68009"><ele>34.0</ele><time>2026-04-18T09:19:35.874Z</time></trkpt><trkpt lat="42.1756283" lon="14.680005"><ele>34.5</ele><time>2026-04-18T09:19:37.874Z</time></trkpt><trkpt lat="42.1755667" lon="14.67992"><ele>35.0</ele><time>2026-04-18T09:19:39.873Z</time></trkpt><trkpt lat="42.1755083" lon="14.6798317"><ele>35.5</ele><time>2026-04-18T09:19:41.874Z</time></trkpt><trkpt lat="42.17545" lon="14.679745"><ele>36.0</ele><time>2026-04-18T09:19:43.874Z</time></trkpt><trkpt lat="42.17539" lon="14.6796567"><ele>36.0</ele><time>2026-04-18T09:19:45.873Z</time></trkpt><trkpt lat="42.175325" lon="14.6795667"><ele>36.0</ele><time>2026-04-18T09:19:47.874Z</time></trkpt><trkpt lat="42.1752633" lon="14.6794717"><ele>36.0</ele><time>2026-04-18T09:19:49.874Z</time></trkpt><trkpt lat="42.1752067" lon="14.679375"><ele>36.0</ele><time>2026-04-18T09:19:51.874Z</time></trkpt><trkpt lat="42.1751583" lon="14.6792733"><ele>36.0</ele><time>2026-04-18T09:19:53.873Z</time></trkpt><trkpt lat="42.17514" lon="14.679165"><ele>36.166666666666664</ele><time>2026-04-18T09:19:55.873Z</time></trkpt><trkpt lat="42.1751533" lon="14.6790583"><ele>36.333333333333336</ele><time>2026-04-18T09:19:57.874Z</time></trkpt><trkpt lat="42.175185" lon="14.6789533"><ele>36.5</ele><time>2026-04-18T09:19:59.874Z</time></trkpt><trkpt lat="42.1752317" lon="14.6788517"><ele>36.66666666666667</ele><time>2026-04-18T09:20:01.874Z</time></trkpt><trkpt lat="42.1752867" lon="14.678755"><ele>36.833333333333336</ele><time>2026-04-18T09:20:03.873Z</time></trkpt><trkpt lat="42.1753467" lon="14.6786633"><ele>37.0</ele><time>2026-04-18T09:20:05.873Z</time></trkpt><trkpt lat="42.1754083" lon="14.678575"><ele>37.0</ele><time>2026-04-18T09:20:07.874Z</time></trkpt><trkpt lat="42.1754683" lon="14.678485"><ele>37.0</ele><time>2026-04-18T09:20:09.874Z</time></trkpt><trkpt lat="42.1755283" lon="14.6783783"><ele>37.0</ele><time>2026-04-18T09:20:11.874Z</time></trkpt><trkpt lat="42.17558" lon="14.6782733"><ele>37.0</ele><time>2026-04-18T09:20:13.874Z</time></trkpt><trkpt lat="42.175615" lon="14.6781583"><ele>37.0</ele><time>2026-04-18T09:20:15.874Z</time></trkpt><trkpt lat="42.1756433" lon="14.67804"><ele>37.0</ele><time>2026-04-18T09:20:17.874Z</time></trkpt><trkpt lat="42.1756717" lon="14.6779183"><ele>37.0</ele><time>2026-04-18T09:20:19.873Z</time></trkpt><trkpt lat="42.1757033" lon="14.677785"><ele>37.0</ele><time>2026-04-18T09:20:21.874Z</time></trkpt><trkpt lat="42.1757217" lon="14.67765"><ele>37.0</ele><time>2026-04-18T09:20:23.874Z</time></trkpt><trkpt lat="42.1757283" lon="14.67751"><ele>37.0</ele><time>2026-04-18T09:20:25.873Z</time></trkpt><trkpt lat="42.1756883" lon="14.677395"><ele>37.2</ele><time>2026-04-18T09:20:27.874Z</time></trkpt><trkpt lat="42.175615" lon="14.6773383"><ele>37.400000000000006</ele><time>2026-04-18T09:20:29.873Z</time></trkpt><trkpt lat="42.1755267" lon="14.67735"><ele>37.599999999999994</ele><time>2026-04-18T09:20:31.874Z</time></trkpt><trkpt lat="42.175435" lon="14.677405"><ele>37.8</ele><time>2026-04-18T09:20:33.874Z</time></trkpt><trkpt lat="42.175345" lon="14.6774567"><ele>38.0</ele><time>2026-04-18T09:20:35.874Z</time></trkpt><trkpt lat="42.17526" lon="14.6774883"><ele>38.0</ele><time>2026-04-18T09:20:37.873Z</time></trkpt><trkpt lat="42.1751667" lon="14.677505"><ele>38.0</ele><time>2026-04-18T09:20:39.874Z</time></trkpt><trkpt lat="42.1750733" lon="14.6775133"><ele>38.0</ele><time>2026-04-18T09:20:41.874Z</time></trkpt><trkpt lat="42.17497" lon="14.6775183"><ele>38.0</ele><time>2026-04-18T09:20:43.874Z</time></trkpt><trkpt lat="42.1748667" lon="14.677505"><ele>38.0</ele><time>2026-04-18T09:20:45.874Z</time></trkpt><trkpt lat="42.174755" lon="14.6774867"><ele>38.25</ele><time>2026-04-18T09:20:47.874Z</time></trkpt><trkpt lat="42.174635" lon="14.6774617"><ele>38.5</ele><time>2026-04-18T09:20:49.873Z</time></trkpt><trkpt lat="42.1745217" lon="14.677415"><ele>38.75</ele><time>2026-04-18T09:20:51.874Z</time></trkpt><trkpt lat="42.174415" lon="14.67735"><ele>39.0</ele><time>2026-04-18T09:20:53.874Z</time></trkpt><trkpt lat="42.1743133" lon="14.6772767"><ele>39.0</ele><time>2026-04-18T09:20:55.874Z</time></trkpt><trkpt lat="42.174215" lon="14.6771983"><ele>39.0</ele><time>2026-04-18T09:20:57.874Z</time></trkpt><trkpt lat="42.1741183" lon="14.6771233"><ele>39.0</ele><time>2026-04-18T09:20:59.874Z</time></trkpt><trkpt lat="42.1740233" lon="14.677045"><ele>39.0</ele><time>2026-04-18T09:21:01.873Z</time></trkpt><trkpt lat="42.1739283" lon="14.676965"><ele>39.0</ele><time>2026-04-18T09:21:03.873Z</time></trkpt><trkpt lat="42.1738367" lon="14.6768817"><ele>39.4</ele><time>2026-04-18T09:21:05.873Z</time></trkpt><trkpt lat="42.1737483" lon="14.6767967"><ele>39.8</ele><time>2026-04-18T09:21:07.873Z</time></trkpt><trkpt lat="42.1736617" lon="14.67673"><ele>40.199999999999996</ele><time>2026-04-18T09:21:09.873Z</time></trkpt><trkpt lat="42.1735767" lon="14.6766533"><ele>40.599999999999994</ele><time>2026-04-18T09:21:11.874Z</time></trkpt><trkpt lat="42.17349" lon="14.6765833"><ele>41.0</ele><time>2026-04-18T09:21:13.874Z</time></trkpt><trkpt lat="42.1734067" lon="14.6765183"><ele>41.0</ele><time>2026-04-18T09:21:15.873Z</time></trkpt><trkpt lat="42.173315" lon="14.67646"><ele>41.0</ele><time>2026-04-18T09:21:17.874Z</time></trkpt><trkpt lat="42.1732217" lon="14.6764067"><ele>41.0</ele><time>2026-04-18T09:21:19.873Z</time></trkpt><trkpt lat="42.1731283" lon="14.67635"><ele>41.0</ele><time>2026-04-18T09:21:21.874Z</time></trkpt><trkpt lat="42.1730367" lon="14.6762883"><ele>41.0</ele><time>2026-04-18T09:21:23.874Z</time></trkpt><trkpt lat="42.17294" lon="14.67622"><ele>41.0</ele><time>2026-04-18T09:21:25.873Z</time></trkpt><trkpt lat="42.1728417" lon="14.6761517"><ele>41.0</ele><time>2026-04-18T09:21:27.874Z</time></trkpt><trkpt lat="42.1727417" lon="14.6760783"><ele>41.0</ele><time>2026-04-18T09:21:29.874Z</time></trkpt><trkpt lat="42.1726433" lon="14.676005"><ele>41.0</ele><time>2026-04-18T09:21:31.874Z</time></trkpt><trkpt lat="42.1725417" lon="14.6759367"><ele>41.4</ele><time>2026-04-18T09:21:33.874Z</time></trkpt><trkpt lat="42.1724367" lon="14.6758717"><ele>41.8</ele><time>2026-04-18T09:21:35.874Z</time></trkpt><trkpt lat="42.172335" lon="14.675805"><ele>42.199999999999996</ele><time>2026-04-18T09:21:37.874Z</time></trkpt><trkpt lat="42.17224" lon="14.67573"><ele>42.599999999999994</ele><time>2026-04-18T09:21:39.874Z</time></trkpt><trkpt lat="42.1721433" lon="14.6756583"><ele>43.0</ele><time>2026-04-18T09:21:41.874Z</time></trkpt><trkpt lat="42.1720467" lon="14.6755917"><ele>43.2</ele><time>2026-04-18T09:21:43.873Z</time></trkpt><trkpt lat="42.1719533" lon="14.6755233"><ele>43.4</ele><time>2026-04-18T09:21:45.874Z</time></trkpt><trkpt lat="42.1718617" lon="14.67546"><ele>43.6</ele><time>2026-04-18T09:21:47.873Z</time></trkpt><trkpt lat="42.1717717" lon="14.6753983"><ele>43.800000000000004</ele><time>2026-04-18T09:21:49.874Z</time></trkpt><trkpt lat="42.1716833" lon="14.6753367"><ele>44.0</ele><time>2026-04-18T09:21:51.874Z</time></trkpt><trkpt lat="42.17159" lon="14.6752733"><ele>44.666666666666664</ele><time>2026-04-18T09:21:53.874Z</time></trkpt><trkpt lat="42.1715" lon="14.6752183"><ele>45.33333333333333</ele><time>2026-04-18T09:21:55.873Z</time></trkpt><trkpt lat="42.1714167" lon="14.6751583"><ele>46.0</ele><time>2026-04-18T09:21:57.874Z</time></trkpt><trkpt lat="42.17134" lon="14.6750933"><ele>46.666666666666664</ele><time>2026-04-18T09:21:59.874Z</time></trkpt><trkpt lat="42.1712883" lon="14.6750183"><ele>47.333333333333336</ele><time>2026-04-18T09:22:01.874Z</time></trkpt><trkpt lat="42.1713167" lon="14.674905"><ele>48.0</ele><time>2026-04-18T09:22:04.873Z</time></trkpt><trkpt lat="42.1713883" lon="14.674845"><ele>48.0</ele><time>2026-04-18T09:22:06.873Z</time></trkpt><trkpt lat="42.1714583" lon="14.6747783"><ele>48.0</ele><time>2026-04-18T09:22:08.874Z</time></trkpt><trkpt lat="42.1715183" lon="14.674705"><ele>48.0</ele><time>2026-04-18T09:22:10.874Z</time></trkpt><trkpt lat="42.1715733" lon="14.6746283"><ele>48.0</ele><time>2026-04-18T09:22:12.874Z</time></trkpt><trkpt lat="42.1716083" lon="14.6745383"><ele>48.0</ele><time>2026-04-18T09:22:14.874Z</time></trkpt><trkpt lat="42.17161" lon="14.674445"><ele>48.0</ele><time>2026-04-18T09:22:16.874Z</time></trkpt><trkpt lat="42.1716233" lon="14.6743483"><ele>47.833333333333336</ele><time>2026-04-18T09:22:19.874Z</time></trkpt><trkpt lat="42.1715983" lon="14.6742617"><ele>47.666666666666664</ele><time>2026-04-18T09:22:22.874Z</time></trkpt><trkpt lat="42.171535" lon="14.6742283"><ele>47.5</ele><time>2026-04-18T09:22:24.873Z</time></trkpt><trkpt lat="42.17146" lon="14.6741833"><ele>47.33333333333333</ele><time>2026-04-18T09:22:26.873Z</time></trkpt><trkpt lat="42.1713783" lon="14.6741367"><ele>47.166666666666664</ele><time>2026-04-18T09:22:28.874Z</time></trkpt><trkpt lat="42.171295" lon="14.674085"><ele>47.0</ele><time>2026-04-18T09:22:30.874Z</time></trkpt><trkpt lat="42.1712117" lon="14.674035"><ele>47.33333333333333</ele><time>2026-04-18T09:22:32.874Z</time></trkpt><trkpt lat="42.17113" lon="14.6739883"><ele>47.666666666666664</ele><time>2026-04-18T09:22:34.873Z</time></trkpt><trkpt lat="42.1710517" lon="14.6739367"><ele>48.0</ele><time>2026-04-18T09:22:36.874Z</time></trkpt><trkpt lat="42.17097" lon="14.6738833"><ele>48.33333333333333</ele><time>2026-04-18T09:22:38.874Z</time></trkpt><trkpt lat="42.1708883" lon="14.6738333"><ele>48.666666666666664</ele><time>2026-04-18T09:22:40.874Z</time></trkpt><trkpt lat="42.170805" lon="14.67378"><ele>49.0</ele><time>2026-04-18T09:22:42.874Z</time></trkpt><trkpt lat="42.1707217" lon="14.67373"><ele>49.166666666666664</ele><time>2026-04-18T09:22:44.874Z</time></trkpt><trkpt lat="42.1706383" lon="14.6736817"><ele>49.33333333333333</ele><time>2026-04-18T09:22:46.874Z</time></trkpt><trkpt lat="42.1705667" lon="14.6736317"><ele>49.5</ele><time>2026-04-18T09:22:48.874Z</time></trkpt><trkpt lat="42.1704967" lon="14.6735867"><ele>49.66666666666667</ele><time>2026-04-18T09:22:50.873Z</time></trkpt><trkpt lat="42.17042" lon="14.67354"><ele>49.833333333333336</ele><time>2026-04-18T09:22:52.874Z</time></trkpt><trkpt lat="42.17034" lon="14.6734917"><ele>50.0</ele><time>2026-04-18T09:22:54.873Z</time></trkpt><trkpt lat="42.1702583" lon="14.67344"><ele>50.16666666666667</ele><time>2026-04-18T09:22:56.874Z</time></trkpt><trkpt lat="42.17018" lon="14.6733883"><ele>50.333333333333336</ele><time>2026-04-18T09:22:58.874Z</time></trkpt><trkpt lat="42.17011" lon="14.67335"><ele>50.5</ele><time>2026-04-18T09:23:00.873Z</time></trkpt><trkpt lat="42.17004" lon="14.6733167"><ele>50.66666666666667</ele><time>2026-04-18T09:23:02.874Z</time></trkpt><trkpt lat="42.1699667" lon="14.67327"><ele>50.833333333333336</ele><time>2026-04-18T09:23:04.874Z</time></trkpt><trkpt lat="42.1699017" lon="14.67323"><ele>51.0</ele><time>2026-04-18T09:23:06.874Z</time></trkpt><trkpt lat="42.1698417" lon="14.6731833"><ele>51.166666666666664</ele><time>2026-04-18T09:23:08.874Z</time></trkpt><trkpt lat="42.16977" lon="14.673135"><ele>51.33333333333333</ele><time>2026-04-18T09:23:10.874Z</time></trkpt><trkpt lat="42.1696917" lon="14.673085"><ele>51.5</ele><time>2026-04-18T09:23:12.873Z</time></trkpt><trkpt lat="42.1696117" lon="14.6730367"><ele>51.666666666666664</ele><time>2026-04-18T09:23:14.874Z</time></trkpt><trkpt lat="42.169535" lon="14.6729883"><ele>51.83333333333333</ele><time>2026-04-18T09:23:16.874Z</time></trkpt><trkpt lat="42.1694533" lon="14.67294"><ele>52.0</ele><time>2026-04-18T09:23:18.873Z</time></trkpt><trkpt lat="42.16937" lon="14.6728967"><ele>51.99999999999999</ele><time>2026-04-18T09:23:20.873Z</time></trkpt><trkpt lat="42.1692867" lon="14.6728483"><ele>52.0</ele><time>2026-04-18T09:23:22.874Z</time></trkpt><trkpt lat="42.1692033" lon="14.6728033"><ele>52.0</ele><time>2026-04-18T09:23:24.874Z</time></trkpt><trkpt lat="42.1691217" lon="14.6727583"><ele>52.0</ele><time>2026-04-18T09:23:26.874Z</time></trkpt><trkpt lat="42.1690483" lon="14.672715"><ele>51.99999999999999</ele><time>2026-04-18T09:23:28.874Z</time></trkpt><trkpt lat="42.1689667" lon="14.67267"><ele>52.0</ele><time>2026-04-18T09:23:30.874Z</time></trkpt><trkpt lat="42.168885" lon="14.6726217"><ele>52.49999999999999</ele><time>2026-04-18T09:23:32.874Z</time></trkpt><trkpt lat="42.168805" lon="14.6725767"><ele>53.0</ele><time>2026-04-18T09:23:34.874Z</time></trkpt><trkpt lat="42.168725" lon="14.6725283"><ele>53.5</ele><time>2026-04-18T09:23:36.874Z</time></trkpt><trkpt lat="42.168645" lon="14.672485"><ele>54.0</ele><time>2026-04-18T09:23:38.874Z</time></trkpt><trkpt lat="42.1685633" lon="14.6724467"><ele>54.49999999999999</ele><time>2026-04-18T09:23:40.874Z</time></trkpt><trkpt lat="42.168485" lon="14.6724217"><ele>55.0</ele><time>2026-04-18T09:23:42.873Z</time></trkpt><trkpt lat="42.16846" lon="14.67231"><ele>55.0</ele><time>2026-04-18T09:23:45.874Z</time></trkpt><trkpt lat="42.168485" lon="14.6721967"><ele>55.0</ele><time>2026-04-18T09:23:47.874Z</time></trkpt><trkpt lat="42.1685067" lon="14.6720617"><ele>55.0</ele><time>2026-04-18T09:23:49.874Z</time></trkpt><trkpt lat="42.1685283" lon="14.671915"><ele>55.0</ele><time>2026-04-18T09:23:51.874Z</time></trkpt><trkpt lat="42.16855" lon="14.6717683"><ele>55.0</ele><time>2026-04-18T09:23:53.874Z</time></trkpt><trkpt lat="42.1685817" lon="14.6716217"><ele>55.2</ele><time>2026-04-18T09:23:55.874Z</time></trkpt><trkpt lat="42.16862" lon="14.6714783"><ele>55.4</ele><time>2026-04-18T09:23:57.874Z</time></trkpt><trkpt lat="42.1686633" lon="14.6713367"><ele>55.599999999999994</ele><time>2026-04-18T09:23:59.874Z</time></trkpt><trkpt lat="42.1687117" lon="14.6712067"><ele>55.8</ele><time>2026-04-18T09:24:01.873Z</time></trkpt><trkpt lat="42.168765" lon="14.67108"><ele>56.0</ele><time>2026-04-18T09:24:03.873Z</time></trkpt><trkpt lat="42.1688117" lon="14.670955"><ele>56.4</ele><time>2026-04-18T09:24:05.874Z</time></trkpt><trkpt lat="42.1688583" lon="14.67084"><ele>56.8</ele><time>2026-04-18T09:24:07.873Z</time></trkpt><trkpt lat="42.1689017" lon="14.67072"><ele>57.199999999999996</ele><time>2026-04-18T09:24:09.874Z</time></trkpt><trkpt lat="42.1689333" lon="14.6705867"><ele>57.599999999999994</ele><time>2026-04-18T09:24:11.874Z</time></trkpt><trkpt lat="42.1689667" lon="14.6704467"><ele>58.0</ele><time>2026-04-18T09:24:13.873Z</time></trkpt><trkpt lat="42.1690033" lon="14.6703033"><ele>57.4</ele><time>2026-04-18T09:24:15.874Z</time></trkpt><trkpt lat="42.1690417" lon="14.6701617"><ele>56.8</ele><time>2026-04-18T09:24:17.874Z</time></trkpt><trkpt lat="42.169085" lon="14.6700233"><ele>56.2</ele><time>2026-04-18T09:24:19.874Z</time></trkpt><trkpt lat="42.1691317" lon="14.6698883"><ele>55.6</ele><time>2026-04-18T09:24:21.874Z</time></trkpt><trkpt lat="42.1691833" lon="14.6697533"><ele>55.0</ele><time>2026-04-18T09:24:23.874Z</time></trkpt><trkpt lat="42.1692333" lon="14.6696183"><ele>55.0</ele><time>2026-04-18T09:24:25.873Z</time></trkpt><trkpt lat="42.169285" lon="14.6694783"><ele>55.0</ele><time>2026-04-18T09:24:27.874Z</time></trkpt><trkpt lat="42.1693333" lon="14.669345"><ele>55.0</ele><time>2026-04-18T09:24:29.874Z</time></trkpt><trkpt lat="42.1693817" lon="14.669205"><ele>55.0</ele><time>2026-04-18T09:24:31.874Z</time></trkpt><trkpt lat="42.1694183" lon="14.6690583"><ele>55.25</ele><time>2026-04-18T09:24:33.874Z</time></trkpt><trkpt lat="42.1694483" lon="14.6689067"><ele>55.5</ele><time>2026-04-18T09:24:35.874Z</time></trkpt><trkpt lat="42.169475" lon="14.6687533"><ele>55.75</ele><time>2026-04-18T09:24:37.874Z</time></trkpt><trkpt lat="42.16951" lon="14.6685967"><ele>56.0</ele><time>2026-04-18T09:24:39.874Z</time></trkpt><trkpt lat="42.1695517" lon="14.668445"><ele>56.75</ele><time>2026-04-18T09:24:41.874Z</time></trkpt><trkpt lat="42.169605" lon="14.6683"><ele>57.5</ele><time>2026-04-18T09:24:43.874Z</time></trkpt><trkpt lat="42.169665" lon="14.6681617"><ele>58.25</ele><time>2026-04-18T09:24:45.874Z</time></trkpt><trkpt lat="42.1697217" lon="14.668025"><ele>59.0</ele><time>2026-04-18T09:24:47.874Z</time></trkpt><trkpt lat="42.1697733" lon="14.6678917"><ele>59.2</ele><time>2026-04-18T09:24:49.873Z</time></trkpt><trkpt lat="42.1698083" lon="14.6677633"><ele>59.400000000000006</ele><time>2026-04-18T09:24:51.874Z</time></trkpt><trkpt lat="42.1698433" lon="14.6676383"><ele>59.6</ele><time>2026-04-18T09:24:53.873Z</time></trkpt><trkpt lat="42.1698733" lon="14.66751"><ele>59.8</ele><time>2026-04-18T09:24:55.874Z</time></trkpt><trkpt lat="42.1699" lon="14.6673867"><ele>60.0</ele><time>2026-04-18T09:24:57.874Z</time></trkpt><trkpt lat="42.1699317" lon="14.66725"><ele>59.8</ele><time>2026-04-18T09:24:59.874Z</time></trkpt><trkpt lat="42.1699533" lon="14.6671083"><ele>59.6</ele><time>2026-04-18T09:25:01.873Z</time></trkpt><trkpt lat="42.1699783" lon="14.6669767"><ele>59.400000000000006</ele><time>2026-04-18T09:25:03.874Z</time></trkpt><trkpt lat="42.1700083" lon="14.6668433"><ele>59.2</ele><time>2026-04-18T09:25:05.874Z</time></trkpt><trkpt lat="42.17004" lon="14.6667067"><ele>59.0</ele><time>2026-04-18T09:25:07.874Z</time></trkpt><trkpt lat="42.1700733" lon="14.6665683"><ele>59.0</ele><time>2026-04-18T09:25:09.873Z</time></trkpt><trkpt lat="42.1701117" lon="14.66643"><ele>59.0</ele><time>2026-04-18T09:25:11.874Z</time></trkpt><trkpt lat="42.1701517" lon="14.6662917"><ele>59.0</ele><time>2026-04-18T09:25:13.874Z</time></trkpt><trkpt lat="42.1702" lon="14.6661517"><ele>59.0</ele><time>2026-04-18T09:25:15.874Z</time></trkpt><trkpt lat="42.1702467" lon="14.6660067"><ele>59.0</ele><time>2026-04-18T09:25:17.873Z</time></trkpt><trkpt lat="42.170295" lon="14.6658583"><ele>59.00000000000001</ele><time>2026-04-18T09:25:19.873Z</time></trkpt><trkpt lat="42.17035" lon="14.6657117"><ele>59.00000000000001</ele><time>2026-04-18T09:25:21.873Z</time></trkpt><trkpt lat="42.1703767" lon="14.6656333"><ele>59.0</ele><time>2026-04-18T09:25:22.873Z</time></trkpt><trkpt lat="42.17043" lon="14.6654817"><ele>59.0</ele><time>2026-04-18T09:25:24.874Z</time></trkpt><trkpt lat="42.1704817" lon="14.6653267"><ele>59.16666666666667</ele><time>2026-04-18T09:25:26.874Z</time></trkpt><trkpt lat="42.1705367" lon="14.6651733"><ele>59.333333333333336</ele><time>2026-04-18T09:25:28.874Z</time></trkpt><trkpt lat="42.170565" lon="14.665095"><ele>59.5</ele><time>2026-04-18T09:25:29.873Z</time></trkpt><trkpt lat="42.1705983" lon="14.665015"><ele>59.66666666666667</ele><time>2026-04-18T09:25:30.874Z</time></trkpt><trkpt lat="42.1706283" lon="14.6649333"><ele>59.833333333333336</ele><time>2026-04-18T09:25:31.874Z</time></trkpt><trkpt lat="42.170655" lon="14.6648517"><ele>60.0</ele><time>2026-04-18T09:25:32.874Z</time></trkpt><trkpt lat="42.1706833" lon="14.6647683"><ele>59.5</ele><time>2026-04-18T09:25:33.873Z</time></trkpt><trkpt lat="42.1707183" lon="14.6646817"><ele>59.0</ele><time>2026-04-18T09:25:34.874Z</time></trkpt><trkpt lat="42.1707533" lon="14.66459"><ele>58.5</ele><time>2026-04-18T09:25:35.873Z</time></trkpt><trkpt lat="42.17079" lon="14.664495"><ele>58.0</ele><time>2026-04-18T09:25:36.874Z</time></trkpt><trkpt lat="42.1708233" lon="14.6644033"><ele>57.5</ele><time>2026-04-18T09:25:37.874Z</time></trkpt><trkpt lat="42.1708583" lon="14.6643167"><ele>57.0</ele><time>2026-04-18T09:25:38.873Z</time></trkpt><trkpt lat="42.1708967" lon="14.6642317"><ele>56.833333333333336</ele><time>2026-04-18T09:25:39.873Z</time></trkpt><trkpt lat="42.17093" lon="14.6641533"><ele>56.66666666666667</ele><time>2026-04-18T09:25:40.874Z</time></trkpt><trkpt lat="42.1709667" lon="14.6640783"><ele>56.5</ele><time>2026-04-18T09:25:41.874Z</time></trkpt><trkpt lat="42.1710067" lon="14.6640083"><ele>56.333333333333336</ele><time>2026-04-18T09:25:42.873Z</time></trkpt><trkpt lat="42.17105" lon="14.663935"><ele>56.16666666666667</ele><time>2026-04-18T09:25:43.874Z</time></trkpt><trkpt lat="42.1711233" lon="14.66381"><ele>56.0</ele><time>2026-04-18T09:25:45.874Z</time></trkpt><trkpt lat="42.1711933" lon="14.6637083"><ele>56.75</ele><time>2026-04-18T09:25:47.873Z</time></trkpt><trkpt lat="42.1712717" lon="14.6635967"><ele>57.5</ele><time>2026-04-18T09:25:49.874Z</time></trkpt><trkpt lat="42.1713533" lon="14.6634783"><ele>58.25</ele><time>2026-04-18T09:25:51.873Z</time></trkpt><trkpt lat="42.17143" lon="14.66336"><ele>59.0</ele><time>2026-04-18T09:25:53.874Z</time></trkpt><trkpt lat="42.171505" lon="14.6632467"><ele>59.2</ele><time>2026-04-18T09:25:55.873Z</time></trkpt><trkpt lat="42.1715783" lon="14.66315"><ele>59.400000000000006</ele><time>2026-04-18T09:25:57.874Z</time></trkpt><trkpt lat="42.17165" lon="14.66305"><ele>59.6</ele><time>2026-04-18T09:25:59.874Z</time></trkpt><trkpt lat="42.17172" lon="14.6629567"><ele>59.8</ele><time>2026-04-18T09:26:01.874Z</time></trkpt><trkpt lat="42.1717933" lon="14.6628767"><ele>60.0</ele><time>2026-04-18T09:26:03.873Z</time></trkpt><trkpt lat="42.1718933" lon="14.6628217"><ele>60.5</ele><time>2026-04-18T09:26:05.874Z</time></trkpt><trkpt lat="42.1720033" lon="14.6627617"><ele>61.0</ele><time>2026-04-18T09:26:07.874Z</time></trkpt><trkpt lat="42.1721083" lon="14.6626917"><ele>61.5</ele><time>2026-04-18T09:26:09.873Z</time></trkpt><trkpt lat="42.17221" lon="14.6626217"><ele>62.0</ele><time>2026-04-18T09:26:11.874Z</time></trkpt><trkpt lat="42.1723033" lon="14.6625467"><ele>61.66666666666667</ele><time>2026-04-18T09:26:13.873Z</time></trkpt><trkpt lat="42.1723783" lon="14.6624683"><ele>61.333333333333336</ele><time>2026-04-18T09:26:15.874Z</time></trkpt><trkpt lat="42.172435" lon="14.6623967"><ele>61.0</ele><time>2026-04-18T09:26:17.873Z</time></trkpt><trkpt lat="42.172495" lon="14.6623133"><ele>60.66666666666667</ele><time>2026-04-18T09:26:19.874Z</time></trkpt><trkpt lat="42.1725467" lon="14.6622533"><ele>60.333333333333336</ele><time>2026-04-18T09:26:21.874Z</time></trkpt><trkpt lat="42.1725967" lon="14.6621967"><ele>60.0</ele><time>2026-04-18T09:26:23.874Z</time></trkpt><trkpt lat="42.1726583" lon="14.6621283"><ele>60.0</ele><time>2026-04-18T09:26:25.874Z</time></trkpt><trkpt lat="42.172715" lon="14.6620583"><ele>60.0</ele><time>2026-04-18T09:26:27.874Z</time></trkpt><trkpt lat="42.1727667" lon="14.6619917"><ele>60.0</ele><time>2026-04-18T09:26:29.874Z</time></trkpt><trkpt lat="42.1728233" lon="14.6619267"><ele>60.0</ele><time>2026-04-18T09:26:31.873Z</time></trkpt><trkpt lat="42.172885" lon="14.6618617"><ele>60.0</ele><time>2026-04-18T09:26:33.873Z</time></trkpt><trkpt lat="42.1729567" lon="14.66177"><ele>60.0</ele><time>2026-04-18T09:26:35.874Z</time></trkpt><trkpt lat="42.1730283" lon="14.6616817"><ele>59.8</ele><time>2026-04-18T09:26:37.874Z</time></trkpt><trkpt lat="42.1731117" lon="14.6615933"><ele>59.6</ele><time>2026-04-18T09:26:39.874Z</time></trkpt><trkpt lat="42.1731867" lon="14.6615033"><ele>59.400000000000006</ele><time>2026-04-18T09:26:41.874Z</time></trkpt><trkpt lat="42.1732517" lon="14.66142"><ele>59.2</ele><time>2026-04-18T09:26:43.874Z</time></trkpt><trkpt lat="42.17332" lon="14.6613367"><ele>59.0</ele><time>2026-04-18T09:26:45.873Z</time></trkpt><trkpt lat="42.1733867" lon="14.6612633"><ele>58.833333333333336</ele><time>2026-04-18T09:26:47.874Z</time></trkpt><trkpt lat="42.1734533" lon="14.661195"><ele>58.66666666666667</ele><time>2026-04-18T09:26:49.874Z</time></trkpt><trkpt lat="42.1735117" lon="14.6611183"><ele>58.5</ele><time>2026-04-18T09:26:51.873Z</time></trkpt><trkpt lat="42.17358" lon="14.6610333"><ele>58.33333333333333</ele><time>2026-04-18T09:26:53.874Z</time></trkpt><trkpt lat="42.1736417" lon="14.660945"><ele>58.166666666666664</ele><time>2026-04-18T09:26:55.874Z</time></trkpt><trkpt lat="42.1737083" lon="14.66086"><ele>58.0</ele><time>2026-04-18T09:26:57.874Z</time></trkpt><trkpt lat="42.1737783" lon="14.66078"><ele>57.99999999999999</ele><time>2026-04-18T09:26:59.873Z</time></trkpt><trkpt lat="42.1738517" lon="14.6606933"><ele>58.0</ele><time>2026-04-18T09:27:01.874Z</time></trkpt><trkpt lat="42.1739267" lon="14.6606117"><ele>58.0</ele><time>2026-04-18T09:27:03.874Z</time></trkpt><trkpt lat="42.1740033" lon="14.660565"><ele>58.0</ele><time>2026-04-18T09:27:05.874Z</time></trkpt><trkpt lat="42.1740767" lon="14.6605767"><ele>57.99999999999999</ele><time>2026-04-18T09:27:07.874Z</time></trkpt><trkpt lat="42.1741483" lon="14.660585"><ele>58.0</ele><time>2026-04-18T09:27:09.873Z</time></trkpt><trkpt lat="42.17424" lon="14.6606017"><ele>57.49999999999999</ele><time>2026-04-18T09:27:11.874Z</time></trkpt><trkpt lat="42.1743267" lon="14.660625"><ele>57.0</ele><time>2026-04-18T09:27:13.873Z</time></trkpt><trkpt lat="42.1744" lon="14.66065"><ele>56.5</ele><time>2026-04-18T09:27:15.874Z</time></trkpt><trkpt lat="42.1744917" lon="14.6606617"><ele>56.0</ele><time>2026-04-18T09:27:17.873Z</time></trkpt><trkpt lat="42.1745667" lon="14.6606733"><ele>55.49999999999999</ele><time>2026-04-18T09:27:19.874Z</time></trkpt><trkpt lat="42.1746467" lon="14.6606683"><ele>55.0</ele><time>2026-04-18T09:27:22.874Z</time></trkpt><trkpt lat="42.17469" lon="14.6605767"><ele>55.0</ele><time>2026-04-18T09:27:25.874Z</time></trkpt><trkpt lat="42.1746583" lon="14.6604633"><ele>55.0</ele><time>2026-04-18T09:27:27.873Z</time></trkpt><trkpt lat="42.1746133" lon="14.6603367"><ele>55.0</ele><time>2026-04-18T09:27:29.873Z</time></trkpt><trkpt lat="42.174565" lon="14.6602133"><ele>55.0</ele><time>2026-04-18T09:27:31.874Z</time></trkpt><trkpt lat="42.1745217" lon="14.6600817"><ele>55.0</ele><time>2026-04-18T09:27:33.874Z</time></trkpt><trkpt lat="42.1744717" lon="14.65994"><ele>55.5</ele><time>2026-04-18T09:27:35.874Z</time></trkpt><trkpt lat="42.1744183" lon="14.6598"><ele>56.0</ele><time>2026-04-18T09:27:37.874Z</time></trkpt><trkpt lat="42.174365" lon="14.6596583"><ele>56.5</ele><time>2026-04-18T09:27:39.874Z</time></trkpt><trkpt lat="42.174315" lon="14.6595167"><ele>57.0</ele><time>2026-04-18T09:27:41.873Z</time></trkpt><trkpt lat="42.1742617" lon="14.659375"><ele>57.2</ele><time>2026-04-18T09:27:43.873Z</time></trkpt><trkpt lat="42.17421" lon="14.659235"><ele>57.400000000000006</ele><time>2026-04-18T09:27:45.874Z</time></trkpt><trkpt lat="42.1741633" lon="14.6590983"><ele>57.599999999999994</ele><time>2026-04-18T09:27:47.874Z</time></trkpt><trkpt lat="42.1741117" lon="14.6589683"><ele>57.8</ele><time>2026-04-18T09:27:49.874Z</time></trkpt><trkpt lat="42.1740667" lon="14.6588333"><ele>58.0</ele><time>2026-04-18T09:27:51.874Z</time></trkpt><trkpt lat="42.1740117" lon="14.658705"><ele>58.49999999999999</ele><time>2026-04-18T09:27:53.874Z</time></trkpt><trkpt lat="42.1739717" lon="14.6585933"><ele>59.0</ele><time>2026-04-18T09:27:55.874Z</time></trkpt><trkpt lat="42.1739433" lon="14.6585117"><ele>59.5</ele><time>2026-04-18T09:27:57.874Z</time></trkpt><trkpt lat="42.1739283" lon="14.6584233"><ele>60.0</ele><time>2026-04-18T09:27:59.873Z</time></trkpt><trkpt lat="42.1738833" lon="14.6583217"><ele>60.49999999999999</ele><time>2026-04-18T09:28:01.873Z</time></trkpt><trkpt lat="42.1738283" lon="14.658225"><ele>61.0</ele><time>2026-04-18T09:28:03.873Z</time></trkpt><trkpt lat="42.1737783" lon="14.658105"><ele>61.0</ele><time>2026-04-18T09:28:05.873Z</time></trkpt><trkpt lat="42.1737333" lon="14.6579817"><ele>60.99999999999999</ele><time>2026-04-18T09:28:07.874Z</time></trkpt><trkpt lat="42.1737" lon="14.657855"><ele>60.99999999999999</ele><time>2026-04-18T09:28:09.874Z</time></trkpt><trkpt lat="42.1736583" lon="14.6577217"><ele>61.0</ele><time>2026-04-18T09:28:11.874Z</time></trkpt><trkpt lat="42.1736" lon="14.657585"><ele>61.0</ele><time>2026-04-18T09:28:13.873Z</time></trkpt><trkpt lat="42.173555" lon="14.6574483"><ele>61.199999999999996</ele><time>2026-04-18T09:28:15.874Z</time></trkpt><trkpt lat="42.1735117" lon="14.6573167"><ele>61.39999999999999</ele><time>2026-04-18T09:28:17.874Z</time></trkpt><trkpt lat="42.1734683" lon="14.6571833"><ele>61.6</ele><time>2026-04-18T09:28:19.873Z</time></trkpt><trkpt lat="42.1734267" lon="14.65705"><ele>61.8</ele><time>2026-04-18T09:28:21.874Z</time></trkpt><trkpt lat="42.173375" lon="14.656915"><ele>62.0</ele><time>2026-04-18T09:28:23.874Z</time></trkpt><trkpt lat="42.1733233" lon="14.6567767"><ele>62.6</ele><time>2026-04-18T09:28:25.874Z</time></trkpt><trkpt lat="42.17327" lon="14.65663"><ele>63.2</ele><time>2026-04-18T09:28:27.874Z</time></trkpt><trkpt lat="42.1732183" lon="14.656495"><ele>63.8</ele><time>2026-04-18T09:28:29.874Z</time></trkpt><trkpt lat="42.173175" lon="14.6563583"><ele>64.4</ele><time>2026-04-18T09:28:31.873Z</time></trkpt><trkpt lat="42.1731317" lon="14.6562317"><ele>65.0</ele><time>2026-04-18T09:28:33.874Z</time></trkpt><trkpt lat="42.17309" lon="14.6561117"><ele>65.33333333333334</ele><time>2026-04-18T09:28:35.874Z</time></trkpt><trkpt lat="42.17305" lon="14.656"><ele>65.66666666666667</ele><time>2026-04-18T09:28:37.873Z</time></trkpt><trkpt lat="42.1729933" lon="14.6559283"><ele>66.0</ele><time>2026-04-18T09:28:39.873Z</time></trkpt><trkpt lat="42.1729133" lon="14.6559233"><ele>66.33333333333333</ele><time>2026-04-18T09:28:41.874Z</time></trkpt><trkpt lat="42.1728183" lon="14.6559467"><ele>66.66666666666666</ele><time>2026-04-18T09:28:43.874Z</time></trkpt><trkpt lat="42.1727183" lon="14.65598"><ele>67.0</ele><time>2026-04-18T09:28:45.874Z</time></trkpt><trkpt lat="42.172615" lon="14.6560017"><ele>67.0</ele><time>2026-04-18T09:28:47.873Z</time></trkpt><trkpt lat="42.1725" lon="14.6560267"><ele>67.0</ele><time>2026-04-18T09:28:49.873Z</time></trkpt><trkpt lat="42.1723833" lon="14.656065"><ele>67.0</ele><time>2026-04-18T09:28:51.874Z</time></trkpt><trkpt lat="42.1722717" lon="14.6560967"><ele>67.0</ele><time>2026-04-18T09:28:53.874Z</time></trkpt><trkpt lat="42.1721567" lon="14.6561183"><ele>67.5</ele><time>2026-04-18T09:28:55.874Z</time></trkpt><trkpt lat="42.1720417" lon="14.6561433"><ele>68.0</ele><time>2026-04-18T09:28:57.874Z</time></trkpt><trkpt lat="42.1719267" lon="14.6561817"><ele>68.5</ele><time>2026-04-18T09:28:59.874Z</time></trkpt><trkpt lat="42.1718167" lon="14.6562117"><ele>69.0</ele><time>2026-04-18T09:29:01.874Z</time></trkpt><trkpt lat="42.1717067" lon="14.656245"><ele>69.0</ele><time>2026-04-18T09:29:03.873Z</time></trkpt><trkpt lat="42.171595" lon="14.6562817"><ele>69.0</ele><time>2026-04-18T09:29:05.873Z</time></trkpt><trkpt lat="42.17149" lon="14.6563167"><ele>69.0</ele><time>2026-04-18T09:29:07.874Z</time></trkpt><trkpt lat="42.1713867" lon="14.6563483"><ele>69.0</ele><time>2026-04-18T09:29:09.874Z</time></trkpt><trkpt lat="42.1712967" lon="14.656365"><ele>69.0</ele><time>2026-04-18T09:29:11.874Z</time></trkpt><trkpt lat="42.17124" lon="14.656295"><ele>69.5</ele><time>2026-04-18T09:29:13.874Z</time></trkpt><trkpt lat="42.17123" lon="14.656185"><ele>70.0</ele><time>2026-04-18T09:29:15.874Z</time></trkpt><trkpt lat="42.1712167" lon="14.65607"><ele>70.5</ele><time>2026-04-18T09:29:17.874Z</time></trkpt><trkpt lat="42.17123" lon="14.65596"><ele>71.0</ele><time>2026-04-18T09:29:19.874Z</time></trkpt><trkpt lat="42.1712917" lon="14.65587"><ele>71.5</ele><time>2026-04-18T09:29:21.874Z</time></trkpt><trkpt lat="42.1713817" lon="14.6557917"><ele>72.0</ele><time>2026-04-18T09:29:23.874Z</time></trkpt><trkpt lat="42.1714533" lon="14.655685"><ele>72.33333333333333</ele><time>2026-04-18T09:29:25.874Z</time></trkpt><trkpt lat="42.17146" lon="14.6555483"><ele>72.66666666666667</ele><time>2026-04-18T09:29:27.873Z</time></trkpt><trkpt lat="42.171405" lon="14.6554383"><ele>73.0</ele><time>2026-04-18T09:29:29.874Z</time></trkpt><trkpt lat="42.1713483" lon="14.6553533"><ele>73.33333333333334</ele><time>2026-04-18T09:29:31.873Z</time></trkpt><trkpt lat="42.1712883" lon="14.655305"><ele>73.66666666666667</ele><time>2026-04-18T09:29:33.874Z</time></trkpt><trkpt lat="42.1712133" lon="14.6553033"><ele>74.0</ele><time>2026-04-18T09:29:35.874Z</time></trkpt><trkpt lat="42.17113" lon="14.6553317"><ele>74.0</ele><time>2026-04-18T09:29:37.874Z</time></trkpt><trkpt lat="42.1710317" lon="14.65537"><ele>74.0</ele><time>2026-04-18T09:29:39.873Z</time></trkpt><trkpt lat="42.1709367" lon="14.6554"><ele>74.0</ele><time>2026-04-18T09:29:41.873Z</time></trkpt><trkpt lat="42.1708517" lon="14.6554417"><ele>74.0</ele><time>2026-04-18T09:29:43.874Z</time></trkpt><trkpt lat="42.17078" lon="14.6555067"><ele>74.0</ele><time>2026-04-18T09:29:45.874Z</time></trkpt><trkpt lat="42.1707183" lon="14.6555567"><ele>74.0</ele><time>2026-04-18T09:29:47.874Z</time></trkpt><trkpt lat="42.17064" lon="14.6555033"><ele>74.0</ele><time>2026-04-18T09:29:50.873Z</time></trkpt><trkpt lat="42.170615" lon="14.6553717"><ele>74.0</ele><time>2026-04-18T09:29:52.873Z</time></trkpt><trkpt lat="42.1705833" lon="14.6552233"><ele>74.0</ele><time>2026-04-18T09:29:54.873Z</time></trkpt><trkpt lat="42.1705817" lon="14.6550767"><ele>74.0</ele><time>2026-04-18T09:29:56.873Z</time></trkpt><trkpt lat="42.1705867" lon="14.6549383"><ele>74.0</ele><time>2026-04-18T09:29:58.874Z</time></trkpt><trkpt lat="42.1705883" lon="14.6548183"><ele>73.5</ele><time>2026-04-18T09:30:00.874Z</time></trkpt><trkpt lat="42.17056" lon="14.6546933"><ele>73.0</ele><time>2026-04-18T09:30:02.873Z</time></trkpt><trkpt lat="42.1704633" lon="14.6546017"><ele>72.5</ele><time>2026-04-18T09:30:04.874Z</time></trkpt><trkpt lat="42.1703933" lon="14.6545833"><ele>72.0</ele><time>2026-04-18T09:30:05.873Z</time></trkpt><trkpt lat="42.1703183" lon="14.65457"><ele>71.5</ele><time>2026-04-18T09:30:06.873Z</time></trkpt><trkpt lat="42.1702367" lon="14.6545533"><ele>71.0</ele><time>2026-04-18T09:30:07.874Z</time></trkpt><trkpt lat="42.1701533" lon="14.654535"><ele>71.0</ele><time>2026-04-18T09:30:08.874Z</time></trkpt><trkpt lat="42.1700817" lon="14.65452"><ele>71.0</ele><time>2026-04-18T09:30:09.874Z</time></trkpt><trkpt lat="42.1700067" lon="14.654505"><ele>71.0</ele><time>2026-04-18T09:30:10.873Z</time></trkpt><trkpt lat="42.16993" lon="14.6545017"><ele>71.0</ele><time>2026-04-18T09:30:11.874Z</time></trkpt><trkpt lat="42.16985" lon="14.65451"><ele>71.0</ele><time>2026-04-18T09:30:12.873Z</time></trkpt><trkpt lat="42.1697683" lon="14.6545233"><ele>71.0</ele><time>2026-04-18T09:30:13.874Z</time></trkpt><trkpt lat="42.1696883" lon="14.6545233"><ele>70.0</ele><time>2026-04-18T09:30:14.873Z</time></trkpt><trkpt lat="42.1696067" lon="14.6545217"><ele>69.0</ele><time>2026-04-18T09:30:15.874Z</time></trkpt><trkpt lat="42.16953" lon="14.6545183"><ele>68.0</ele><time>2026-04-18T09:30:16.873Z</time></trkpt><trkpt lat="42.169455" lon="14.6545117"><ele>67.0</ele><time>2026-04-18T09:30:17.874Z</time></trkpt><trkpt lat="42.1693767" lon="14.6545067"><ele>66.0</ele><time>2026-04-18T09:30:18.874Z</time></trkpt><trkpt lat="42.1692967" lon="14.6544983"><ele>65.0</ele><time>2026-04-18T09:30:19.874Z</time></trkpt><trkpt lat="42.1692267" lon="14.6544983"><ele>65.0</ele><time>2026-04-18T09:30:20.873Z</time></trkpt><trkpt lat="42.1691183" lon="14.65452"><ele>65.0</ele><time>2026-04-18T09:30:22.873Z</time></trkpt><trkpt lat="42.1690283" lon="14.6545667"><ele>65.0</ele><time>2026-04-18T09:30:24.873Z</time></trkpt><trkpt lat="42.1689633" lon="14.6545217"><ele>65.0</ele><time>2026-04-18T09:30:27.874Z</time></trkpt><trkpt lat="42.16902" lon="14.6544217"><ele>65.0</ele><time>2026-04-18T09:30:30.873Z</time></trkpt><trkpt lat="42.169095" lon="14.6543883"><ele>61.2</ele><time>2026-04-18T09:30:32.873Z</time></trkpt><trkpt lat="42.1691833" lon="14.65436"><ele>57.4</ele><time>2026-04-18T09:30:34.873Z</time></trkpt><trkpt lat="42.1692867" lon="14.654295"><ele>53.599999999999994</ele><time>2026-04-18T09:30:36.874Z</time></trkpt><trkpt lat="42.1693467" lon="14.654265"><ele>49.8</ele><time>2026-04-18T09:30:37.874Z</time></trkpt><trkpt lat="42.1694583" lon="14.6542183"><ele>46.0</ele><time>2026-04-18T09:30:39.874Z</time></trkpt><trkpt lat="42.1695267" lon="14.6541867"><ele>46.0</ele><time>2026-04-18T09:30:40.873Z</time></trkpt><trkpt lat="42.1696" lon="14.654165"><ele>46.0</ele><time>2026-04-18T09:30:41.874Z</time></trkpt><trkpt lat="42.16967" lon="14.6541417"><ele>46.0</ele><time>2026-04-18T09:30:42.874Z</time></trkpt><trkpt lat="42.1697417" lon="14.65412"><ele>46.0</ele><time>2026-04-18T09:30:43.874Z</time></trkpt><trkpt lat="42.1698117" lon="14.6541067"><ele>46.0</ele><time>2026-04-18T09:30:44.873Z</time></trkpt><trkpt lat="42.169885" lon="14.654095"><ele>46.0</ele><time>2026-04-18T09:30:45.874Z</time></trkpt><trkpt lat="42.1699533" lon="14.6540917"><ele>46.0</ele><time>2026-04-18T09:30:46.874Z</time></trkpt><trkpt lat="42.1700333" lon="14.654085"><ele>47.199999999999996</ele><time>2026-04-18T09:30:47.873Z</time></trkpt><trkpt lat="42.1701083" lon="14.65409"><ele>48.4</ele><time>2026-04-18T09:30:48.873Z</time></trkpt><trkpt lat="42.1701817" lon="14.6540983"><ele>49.6</ele><time>2026-04-18T09:30:49.873Z</time></trkpt><trkpt lat="42.1703067" lon="14.6541283"><ele>50.8</ele><time>2026-04-18T09:30:51.873Z</time></trkpt><trkpt lat="42.1704233" lon="14.6541117"><ele>52.0</ele><time>2026-04-18T09:30:53.874Z</time></trkpt><trkpt lat="42.17052" lon="14.654045"><ele>52.0</ele><time>2026-04-18T09:30:55.874Z</time></trkpt><trkpt lat="42.1705617" lon="14.6539"><ele>52.0</ele><time>2026-04-18T09:30:57.873Z</time></trkpt><trkpt lat="42.1705333" lon="14.6537517"><ele>52.0</ele><time>2026-04-18T09:30:59.873Z</time></trkpt><trkpt lat="42.1704267" lon="14.6536917"><ele>52.0</ele><time>2026-04-18T09:31:01.873Z</time></trkpt><trkpt lat="42.170355" lon="14.6537083"><ele>52.0</ele><time>2026-04-18T09:31:02.874Z</time></trkpt><trkpt lat="42.17028" lon="14.6537433"><ele>51.99999999999999</ele><time>2026-04-18T09:31:03.874Z</time></trkpt><trkpt lat="42.1702017" lon="14.6537733"><ele>52.0</ele><time>2026-04-18T09:31:04.873Z</time></trkpt><trkpt lat="42.1701217" lon="14.653795"><ele>52.0</ele><time>2026-04-18T09:31:05.874Z</time></trkpt><trkpt lat="42.1700383" lon="14.65382"><ele>52.0</ele><time>2026-04-18T09:31:06.874Z</time></trkpt><trkpt lat="42.16995" lon="14.65384"><ele>51.99999999999999</ele><time>2026-04-18T09:31:07.873Z</time></trkpt><trkpt lat="42.1698583" lon="14.6538533"><ele>52.0</ele><time>2026-04-18T09:31:08.874Z</time></trkpt><trkpt lat="42.1697683" lon="14.6538683"><ele>50.99999999999999</ele><time>2026-04-18T09:31:09.874Z</time></trkpt><trkpt lat="42.1696767" lon="14.6538717"><ele>50.0</ele><time>2026-04-18T09:31:10.873Z</time></trkpt><trkpt lat="42.1695917" lon="14.6538767"><ele>49.0</ele><time>2026-04-18T09:31:11.874Z</time></trkpt><trkpt lat="42.16951" lon="14.6538717"><ele>48.0</ele><time>2026-04-18T09:31:12.873Z</time></trkpt><trkpt lat="42.1694383" lon="14.6538483"><ele>47.0</ele><time>2026-04-18T09:31:13.874Z</time></trkpt><trkpt lat="42.16938" lon="14.6538"><ele>46.0</ele><time>2026-04-18T09:31:14.874Z</time></trkpt><trkpt lat="42.1693267" lon="14.6537317"><ele>46.0</ele><time>2026-04-18T09:31:15.873Z</time></trkpt><trkpt lat="42.1692767" lon="14.6536467"><ele>46.0</ele><time>2026-04-18T09:31:16.873Z</time></trkpt><trkpt lat="42.1692367" lon="14.653545"><ele>46.0</ele><time>2026-04-18T09:31:17.874Z</time></trkpt><trkpt lat="42.169205" lon="14.6534417"><ele>46.0</ele><time>2026-04-18T09:31:18.874Z</time></trkpt><trkpt lat="42.1691917" lon="14.6533517"><ele>46.0</ele><time>2026-04-18T09:31:19.874Z</time></trkpt><trkpt lat="42.16919" lon="14.6532617"><ele>46.0</ele><time>2026-04-18T09:31:20.874Z</time></trkpt><trkpt lat="42.169195" lon="14.65311"><ele>44.833333333333336</ele><time>2026-04-18T09:31:22.873Z</time></trkpt><trkpt lat="42.1692217" lon="14.6530067"><ele>43.66666666666667</ele><time>2026-04-18T09:31:24.874Z</time></trkpt><trkpt lat="42.1693017" lon="14.6530683"><ele>42.5</ele><time>2026-04-18T09:31:28.874Z</time></trkpt><trkpt lat="42.16939" lon="14.6531783"><ele>41.333333333333336</ele><time>2026-04-18T09:31:30.874Z</time></trkpt><trkpt lat="42.16945" lon="14.653245"><ele>40.166666666666664</ele><time>2026-04-18T09:31:31.874Z</time></trkpt><trkpt lat="42.1695167" lon="14.6532833"><ele>39.0</ele><time>2026-04-18T09:31:32.873Z</time></trkpt><trkpt lat="42.1696417" lon="14.653275"><ele>39.0</ele><time>2026-04-18T09:31:34.874Z</time></trkpt><trkpt lat="42.1697083" lon="14.6532317"><ele>39.0</ele><time>2026-04-18T09:31:35.873Z</time></trkpt><trkpt lat="42.16978" lon="14.65317"><ele>39.0</ele><time>2026-04-18T09:31:36.874Z</time></trkpt><trkpt lat="42.1698533" lon="14.6531033"><ele>39.0</ele><time>2026-04-18T09:31:37.874Z</time></trkpt><trkpt lat="42.1699283" lon="14.65302"><ele>39.0</ele><time>2026-04-18T09:31:38.874Z</time></trkpt><trkpt lat="42.1700017" lon="14.6529267"><ele>39.0</ele><time>2026-04-18T09:31:39.873Z</time></trkpt><trkpt lat="42.1700833" lon="14.652835"><ele>36.0</ele><time>2026-04-18T09:31:40.873Z</time></trkpt><trkpt lat="42.1701683" lon="14.65274"><ele>33.0</ele><time>2026-04-18T09:31:41.873Z</time></trkpt><trkpt lat="42.17025" lon="14.65264"><ele>30.0</ele><time>2026-04-18T09:31:42.874Z</time></trkpt><trkpt lat="42.170335" lon="14.652545"><ele>27.0</ele><time>2026-04-18T09:31:43.874Z</time></trkpt><trkpt lat="42.1704233" lon="14.652445"><ele>24.0</ele><time>2026-04-18T09:31:44.874Z</time></trkpt><trkpt lat="42.1705133" lon="14.6523433"><ele>24.0</ele><time>2026-04-18T09:31:45.874Z</time></trkpt><trkpt lat="42.1705967" lon="14.6522433"><ele>24.0</ele><time>2026-04-18T09:31:46.874Z</time></trkpt><trkpt lat="42.1706717" lon="14.6521383"><ele>24.0</ele><time>2026-04-18T09:31:47.873Z</time></trkpt><trkpt lat="42.1707467" lon="14.652035"><ele>24.0</ele><time>2026-04-18T09:31:48.874Z</time></trkpt><trkpt lat="42.1708267" lon="14.65193"><ele>24.0</ele><time>2026-04-18T09:31:49.873Z</time></trkpt><trkpt lat="42.170905" lon="14.6518267"><ele>22.8</ele><time>2026-04-18T09:31:50.873Z</time></trkpt><trkpt lat="42.1709783" lon="14.6517317"><ele>21.599999999999998</ele><time>2026-04-18T09:31:51.874Z</time></trkpt><trkpt lat="42.17106" lon="14.6516417"><ele>20.4</ele><time>2026-04-18T09:31:52.874Z</time></trkpt><trkpt lat="42.1711367" lon="14.6515533"><ele>19.2</ele><time>2026-04-18T09:31:53.874Z</time></trkpt><trkpt lat="42.1712133" lon="14.65147"><ele>18.0</ele><time>2026-04-18T09:31:54.874Z</time></trkpt><trkpt lat="42.171285" lon="14.651375"><ele>18.0</ele><time>2026-04-18T09:31:55.874Z</time></trkpt><trkpt lat="42.1713467" lon="14.651275"><ele>18.0</ele><time>2026-04-18T09:31:56.873Z</time></trkpt><trkpt lat="42.1713967" lon="14.65117"><ele>18.0</ele><time>2026-04-18T09:31:57.873Z</time></trkpt><trkpt lat="42.1714267" lon="14.6510567"><ele>18.0</ele><time>2026-04-18T09:31:58.874Z</time></trkpt><trkpt lat="42.17144" lon="14.650945"><ele>18.0</ele><time>2026-04-18T09:31:59.873Z</time></trkpt><trkpt lat="42.1714383" lon="14.6508533"><ele>18.0</ele><time>2026-04-18T09:32:00.874Z</time></trkpt><trkpt lat="42.1714267" lon="14.6507617"><ele>17.5</ele><time>2026-04-18T09:32:01.874Z</time></trkpt><trkpt lat="42.17142" lon="14.6506633"><ele>17.0</ele><time>2026-04-18T09:32:02.873Z</time></trkpt><trkpt lat="42.1714067" lon="14.650565"><ele>16.5</ele><time>2026-04-18T09:32:03.874Z</time></trkpt><trkpt lat="42.1713967" lon="14.65046"><ele>16.0</ele><time>2026-04-18T09:32:04.874Z</time></trkpt><trkpt lat="42.171385" lon="14.650355"><ele>15.5</ele><time>2026-04-18T09:32:05.874Z</time></trkpt><trkpt lat="42.1713717" lon="14.6502517"><ele>15.0</ele><time>2026-04-18T09:32:06.874Z</time></trkpt><trkpt lat="42.1713633" lon="14.6501383"><ele>15.0</ele><time>2026-04-18T09:32:07.874Z</time></trkpt><trkpt lat="42.1713617" lon="14.650015"><ele>15.0</ele><time>2026-04-18T09:32:08.874Z</time></trkpt><trkpt lat="42.1713617" lon="14.6499117"><ele>15.0</ele><time>2026-04-18T09:32:09.874Z</time></trkpt><trkpt lat="42.1713617" lon="14.6498117"><ele>15.0</ele><time>2026-04-18T09:32:10.874Z</time></trkpt><trkpt lat="42.1713567" lon="14.64971"><ele>15.0</ele><time>2026-04-18T09:32:11.874Z</time></trkpt><trkpt lat="42.1713533" lon="14.6496117"><ele>15.0</ele><time>2026-04-18T09:32:12.873Z</time></trkpt><trkpt lat="42.1713517" lon="14.6495133"><ele>15.0</ele><time>2026-04-18T09:32:13.874Z</time></trkpt><trkpt lat="42.1713467" lon="14.6494183"><ele>15.0</ele><time>2026-04-18T09:32:14.874Z</time></trkpt><trkpt lat="42.1713383" lon="14.6493217"><ele>15.0</ele><time>2026-04-18T09:32:15.874Z</time></trkpt><trkpt lat="42.1713367" lon="14.649225"><ele>15.0</ele><time>2026-04-18T09:32:16.873Z</time></trkpt><trkpt lat="42.171335" lon="14.64913"><ele>15.0</ele><time>2026-04-18T09:32:17.873Z</time></trkpt><trkpt lat="42.1713283" lon="14.649045"><ele>15.0</ele><time>2026-04-18T09:32:18.873Z</time></trkpt><trkpt lat="42.1713233" lon="14.648955"><ele>15.0</ele><time>2026-04-18T09:32:19.873Z</time></trkpt><trkpt lat="42.1713083" lon="14.6487833"><ele>15.0</ele><time>2026-04-18T09:32:21.874Z</time></trkpt><trkpt lat="42.1713067" lon="14.6486833"><ele>15.0</ele><time>2026-04-18T09:32:22.874Z</time></trkpt><trkpt lat="42.1713" lon="14.6485833"><ele>15.0</ele><time>2026-04-18T09:32:23.873Z</time></trkpt><trkpt lat="42.1712917" lon="14.6484883"><ele>15.0</ele><time>2026-04-18T09:32:24.874Z</time></trkpt><trkpt lat="42.1712817" lon="14.648395"><ele>15.0</ele><time>2026-04-18T09:32:25.874Z</time></trkpt><trkpt lat="42.17127" lon="14.6483033"><ele>15.0</ele><time>2026-04-18T09:32:26.873Z</time></trkpt><trkpt lat="42.1712667" lon="14.6482117"><ele>15.0</ele><time>2026-04-18T09:32:27.874Z</time></trkpt><trkpt lat="42.1712583" lon="14.6481117"><ele>14.857142857142858</ele><time>2026-04-18T09:32:28.873Z</time></trkpt><trkpt lat="42.1712483" lon="14.64802"><ele>14.714285714285714</ele><time>2026-04-18T09:32:29.874Z</time></trkpt><trkpt lat="42.1712433" lon="14.64793"><ele>14.571428571428571</ele><time>2026-04-18T09:32:30.873Z</time></trkpt><trkpt lat="42.1712417" lon="14.6478283"><ele>14.428571428571429</ele><time>2026-04-18T09:32:31.873Z</time></trkpt><trkpt lat="42.1712383" lon="14.6477333"><ele>14.285714285714285</ele><time>2026-04-18T09:32:32.873Z</time></trkpt><trkpt lat="42.1712383" lon="14.6476333"><ele>14.142857142857142</ele><time>2026-04-18T09:32:33.873Z</time></trkpt><trkpt lat="42.1712367" lon="14.6475233"><ele>14.0</ele><time>2026-04-18T09:32:34.874Z</time></trkpt><trkpt lat="42.17123" lon="14.6474167"><ele>14.000000000000002</ele><time>2026-04-18T09:32:35.874Z</time></trkpt><trkpt lat="42.1712283" lon="14.6473117"><ele>14.0</ele><time>2026-04-18T09:32:36.874Z</time></trkpt><trkpt lat="42.1712267" lon="14.6472117"><ele>14.0</ele><time>2026-04-18T09:32:37.874Z</time></trkpt><trkpt lat="42.1712367" lon="14.6471133"><ele>14.0</ele><time>2026-04-18T09:32:38.874Z</time></trkpt><trkpt lat="42.1712483" lon="14.6470117"><ele>14.000000000000002</ele><time>2026-04-18T09:32:39.874Z</time></trkpt><trkpt lat="42.1712617" lon="14.64691"><ele>14.0</ele><time>2026-04-18T09:32:40.874Z</time></trkpt><trkpt lat="42.1712767" lon="14.64681"><ele>14.142857142857142</ele><time>2026-04-18T09:32:41.874Z</time></trkpt><trkpt lat="42.171295" lon="14.6467133"><ele>14.285714285714285</ele><time>2026-04-18T09:32:42.873Z</time></trkpt><trkpt lat="42.1713183" lon="14.6466233"><ele>14.428571428571429</ele><time>2026-04-18T09:32:43.873Z</time></trkpt><trkpt lat="42.1713483" lon="14.6465333"><ele>14.571428571428571</ele><time>2026-04-18T09:32:44.873Z</time></trkpt><trkpt lat="42.17138" lon="14.6464367"><ele>14.714285714285714</ele><time>2026-04-18T09:32:45.873Z</time></trkpt><trkpt lat="42.1714133" lon="14.6463483"><ele>14.857142857142858</ele><time>2026-04-18T09:32:46.874Z</time></trkpt><trkpt lat="42.17144" lon="14.6462667"><ele>15.0</ele><time>2026-04-18T09:32:47.873Z</time></trkpt><trkpt lat="42.17147" lon="14.64619"><ele>15.0</ele><time>2026-04-18T09:32:48.874Z</time></trkpt><trkpt lat="42.1714983" lon="14.6461067"><ele>15.0</ele><time>2026-04-18T09:32:49.874Z</time></trkpt><trkpt lat="42.1715317" lon="14.6460283"><ele>15.0</ele><time>2026-04-18T09:32:50.874Z</time></trkpt><trkpt lat="42.1715617" lon="14.6459467"><ele>15.0</ele><time>2026-04-18T09:32:51.874Z</time></trkpt><trkpt lat="42.171595" lon="14.6458617"><ele>15.0</ele><time>2026-04-18T09:32:52.874Z</time></trkpt><trkpt lat="42.171625" lon="14.6457667"><ele>15.0</ele><time>2026-04-18T09:32:53.874Z</time></trkpt><trkpt lat="42.1716567" lon="14.64567"><ele>15.0</ele><time>2026-04-18T09:32:54.873Z</time></trkpt><trkpt lat="42.1716833" lon="14.6455783"><ele>14.857142857142858</ele><time>2026-04-18T09:32:55.874Z</time></trkpt><trkpt lat="42.1717167" lon="14.645485"><ele>14.714285714285714</ele><time>2026-04-18T09:32:56.874Z</time></trkpt><trkpt lat="42.17175" lon="14.6454"><ele>14.571428571428571</ele><time>2026-04-18T09:32:57.874Z</time></trkpt><trkpt lat="42.1717817" lon="14.645315"><ele>14.428571428571429</ele><time>2026-04-18T09:32:58.873Z</time></trkpt><trkpt lat="42.1718117" lon="14.6452367"><ele>14.285714285714285</ele><time>2026-04-18T09:32:59.873Z</time></trkpt><trkpt lat="42.171845" lon="14.6451467"><ele>14.142857142857142</ele><time>2026-04-18T09:33:00.874Z</time></trkpt><trkpt lat="42.1718717" lon="14.64506"><ele>14.0</ele><time>2026-04-18T09:33:01.873Z</time></trkpt><trkpt lat="42.1718967" lon="14.6449667"><ele>13.833333333333334</ele><time>2026-04-18T09:33:02.874Z</time></trkpt><trkpt lat="42.1719183" lon="14.64487"><ele>13.666666666666668</ele><time>2026-04-18T09:33:03.873Z</time></trkpt><trkpt lat="42.1719417" lon="14.6447667"><ele>13.5</ele><time>2026-04-18T09:33:04.874Z</time></trkpt><trkpt lat="42.171955" lon="14.644665"><ele>13.333333333333332</ele><time>2026-04-18T09:33:05.874Z</time></trkpt><trkpt lat="42.171965" lon="14.644565"><ele>13.166666666666666</ele><time>2026-04-18T09:33:06.874Z</time></trkpt><trkpt lat="42.1719717" lon="14.6444667"><ele>13.0</ele><time>2026-04-18T09:33:07.874Z</time></trkpt><trkpt lat="42.1719767" lon="14.6443683"><ele>12.499999999999998</ele><time>2026-04-18T09:33:08.873Z</time></trkpt><trkpt lat="42.17198" lon="14.644265"><ele>12.0</ele><time>2026-04-18T09:33:09.874Z</time></trkpt><trkpt lat="42.1719867" lon="14.6441583"><ele>11.5</ele><time>2026-04-18T09:33:10.874Z</time></trkpt><trkpt lat="42.17199" lon="14.644055"><ele>11.0</ele><time>2026-04-18T09:33:11.874Z</time></trkpt><trkpt lat="42.1719933" lon="14.6439517"><ele>10.5</ele><time>2026-04-18T09:33:12.874Z</time></trkpt><trkpt lat="42.17199" lon="14.6438533"><ele>10.0</ele><time>2026-04-18T09:33:13.874Z</time></trkpt><trkpt lat="42.17199" lon="14.6437533"><ele>10.0</ele><time>2026-04-18T09:33:14.874Z</time></trkpt><trkpt lat="42.1719917" lon="14.6436633"><ele>10.0</ele><time>2026-04-18T09:33:15.874Z</time></trkpt><trkpt lat="42.171995" lon="14.643565"><ele>10.0</ele><time>2026-04-18T09:33:16.874Z</time></trkpt><trkpt lat="42.1719917" lon="14.6434633"><ele>10.0</ele><time>2026-04-18T09:33:17.874Z</time></trkpt><trkpt lat="42.1719917" lon="14.6433667"><ele>10.0</ele><time>2026-04-18T09:33:18.873Z</time></trkpt><trkpt lat="42.1719933" lon="14.6432783"><ele>10.0</ele><time>2026-04-18T09:33:19.874Z</time></trkpt><trkpt lat="42.1719933" lon="14.6431917"><ele>10.0</ele><time>2026-04-18T09:33:20.873Z</time></trkpt><trkpt lat="42.1720067" lon="14.6430283"><ele>10.0</ele><time>2026-04-18T09:33:22.874Z</time></trkpt><trkpt lat="42.1720167" lon="14.6428733"><ele>10.0</ele><time>2026-04-18T09:33:24.873Z</time></trkpt><trkpt lat="42.172025" lon="14.64272"><ele>10.0</ele><time>2026-04-18T09:33:26.874Z</time></trkpt><trkpt lat="42.172025" lon="14.64256"><ele>10.0</ele><time>2026-04-18T09:33:28.874Z</time></trkpt><trkpt lat="42.1720417" lon="14.642435"><ele>10.0</ele><time>2026-04-18T09:33:30.874Z</time></trkpt><trkpt lat="42.1721217" lon="14.6423683"><ele>10.166666666666668</ele><time>2026-04-18T09:33:32.874Z</time></trkpt><trkpt lat="42.172225" lon="14.64234"><ele>10.333333333333334</ele><time>2026-04-18T09:33:34.873Z</time></trkpt><trkpt lat="42.172335" lon="14.6422733"><ele>10.5</ele><time>2026-04-18T09:33:36.874Z</time></trkpt><trkpt lat="42.172395" lon="14.642245"><ele>10.666666666666666</ele><time>2026-04-18T09:33:37.874Z</time></trkpt><trkpt lat="42.1724567" lon="14.6422217"><ele>10.833333333333332</ele><time>2026-04-18T09:33:38.874Z</time></trkpt><trkpt lat="42.1725233" lon="14.6421967"><ele>11.0</ele><time>2026-04-18T09:33:39.873Z</time></trkpt><trkpt lat="42.1725883" lon="14.6421683"><ele>10.666666666666666</ele><time>2026-04-18T09:33:40.874Z</time></trkpt><trkpt lat="42.17265" lon="14.642145"><ele>10.333333333333332</ele><time>2026-04-18T09:33:41.873Z</time></trkpt><trkpt lat="42.172715" lon="14.6421233"><ele>10.0</ele><time>2026-04-18T09:33:42.874Z</time></trkpt><trkpt lat="42.1728367" lon="14.6421117"><ele>9.666666666666666</ele><time>2026-04-18T09:33:44.874Z</time></trkpt><trkpt lat="42.1729" lon="14.6421167"><ele>9.333333333333334</ele><time>2026-04-18T09:33:45.874Z</time></trkpt><trkpt lat="42.1729667" lon="14.64211"><ele>9.0</ele><time>2026-04-18T09:33:46.874Z</time></trkpt><trkpt lat="42.1730367" lon="14.6421"><ele>9.0</ele><time>2026-04-18T09:33:47.874Z</time></trkpt><trkpt lat="42.1731117" lon="14.6420983"><ele>9.0</ele><time>2026-04-18T09:33:48.873Z</time></trkpt><trkpt lat="42.1731867" lon="14.6420967"><ele>9.0</ele><time>2026-04-18T09:33:49.874Z</time></trkpt><trkpt lat="42.1732533" lon="14.642095"><ele>9.0</ele><time>2026-04-18T09:33:50.873Z</time></trkpt><trkpt lat="42.1733167" lon="14.6420967"><ele>9.0</ele><time>2026-04-18T09:33:51.874Z</time></trkpt><trkpt lat="42.1734433" lon="14.6421117"><ele>9.0</ele><time>2026-04-18T09:33:53.874Z</time></trkpt><trkpt lat="42.1735117" lon="14.6421233"><ele>9.142857142857144</ele><time>2026-04-18T09:33:54.874Z</time></trkpt><trkpt lat="42.173585" lon="14.6421333"><ele>9.285714285714286</ele><time>2026-04-18T09:33:55.873Z</time></trkpt><trkpt lat="42.1736583" lon="14.6421367"><ele>9.428571428571429</ele><time>2026-04-18T09:33:56.874Z</time></trkpt><trkpt lat="42.173725" lon="14.6421417"><ele>9.571428571428573</ele><time>2026-04-18T09:33:57.873Z</time></trkpt><trkpt lat="42.1738" lon="14.6421533"><ele>9.714285714285715</ele><time>2026-04-18T09:33:58.874Z</time></trkpt><trkpt lat="42.1738733" lon="14.6421733"><ele>9.857142857142858</ele><time>2026-04-18T09:33:59.874Z</time></trkpt><trkpt lat="42.1739417" lon="14.642195"><ele>10.0</ele><time>2026-04-18T09:34:00.873Z</time></trkpt><trkpt lat="42.1740117" lon="14.64222"><ele>10.0</ele><time>2026-04-18T09:34:01.873Z</time></trkpt><trkpt lat="42.1740817" lon="14.6422517"><ele>10.0</ele><time>2026-04-18T09:34:02.874Z</time></trkpt><trkpt lat="42.1741533" lon="14.6422867"><ele>10.0</ele><time>2026-04-18T09:34:03.874Z</time></trkpt><trkpt lat="42.1742283" lon="14.64233"><ele>10.0</ele><time>2026-04-18T09:34:04.873Z</time></trkpt><trkpt lat="42.1743033" lon="14.6423667"><ele>10.0</ele><time>2026-04-18T09:34:05.874Z</time></trkpt><trkpt lat="42.1743717" lon="14.6424067"><ele>10.0</ele><time>2026-04-18T09:34:06.874Z</time></trkpt><trkpt lat="42.1744433" lon="14.64245"><ele>10.0</ele><time>2026-04-18T09:34:07.874Z</time></trkpt><trkpt lat="42.1745133" lon="14.6424933"><ele>10.0</ele><time>2026-04-18T09:34:08.873Z</time></trkpt><trkpt lat="42.17458" lon="14.642545"><ele>10.0</ele><time>2026-04-18T09:34:09.873Z</time></trkpt><trkpt lat="42.1746467" lon="14.6426"><ele>10.0</ele><time>2026-04-18T09:34:10.874Z</time></trkpt><trkpt lat="42.1747083" lon="14.6426533"><ele>10.0</ele><time>2026-04-18T09:34:11.874Z</time></trkpt><trkpt lat="42.1747717" lon="14.642715"><ele>10.0</ele><time>2026-04-18T09:34:12.874Z</time></trkpt><trkpt lat="42.1748283" lon="14.6427783"><ele>10.0</ele><time>2026-04-18T09:34:13.874Z</time></trkpt><trkpt lat="42.1748833" lon="14.64284"><ele>10.0</ele><time>2026-04-18T09:34:14.874Z</time></trkpt><trkpt lat="42.1749383" lon="14.642905"><ele>10.0</ele><time>2026-04-18T09:34:15.874Z</time></trkpt><trkpt lat="42.17499" lon="14.6429717"><ele>10.0</ele><time>2026-04-18T09:34:16.873Z</time></trkpt><trkpt lat="42.1750417" lon="14.6430433"><ele>10.0</ele><time>2026-04-18T09:34:17.873Z</time></trkpt><trkpt lat="42.1750967" lon="14.6431133"><ele>10.0</ele><time>2026-04-18T09:34:18.874Z</time></trkpt><trkpt lat="42.1751467" lon="14.6431867"><ele>10.0</ele><time>2026-04-18T09:34:19.874Z</time></trkpt><trkpt lat="42.175195" lon="14.6432617"><ele>10.0</ele><time>2026-04-18T09:34:20.874Z</time></trkpt><trkpt lat="42.1752417" lon="14.6433383"><ele>10.0</ele><time>2026-04-18T09:34:21.873Z</time></trkpt><trkpt lat="42.175285" lon="14.64342"><ele>10.0</ele><time>2026-04-18T09:34:22.874Z</time></trkpt><trkpt lat="42.175325" lon="14.6434983"><ele>10.0</ele><time>2026-04-18T09:34:23.874Z</time></trkpt><trkpt lat="42.17536" lon="14.643575"><ele>10.0</ele><time>2026-04-18T09:34:24.874Z</time></trkpt><trkpt lat="42.175395" lon="14.6436567"><ele>10.0</ele><time>2026-04-18T09:34:25.874Z</time></trkpt><trkpt lat="42.1754267" lon="14.6437467"><ele>10.0</ele><time>2026-04-18T09:34:26.874Z</time></trkpt><trkpt lat="42.17546" lon="14.64384"><ele>9.666666666666668</ele><time>2026-04-18T09:34:27.874Z</time></trkpt><trkpt lat="42.175495" lon="14.6439283"><ele>9.333333333333334</ele><time>2026-04-18T09:34:28.873Z</time></trkpt><trkpt lat="42.17553" lon="14.64402"><ele>9.0</ele><time>2026-04-18T09:34:29.874Z</time></trkpt><trkpt lat="42.17556" lon="14.6441117"><ele>8.666666666666666</ele><time>2026-04-18T09:34:30.873Z</time></trkpt><trkpt lat="42.1755883" lon="14.64421"><ele>8.333333333333332</ele><time>2026-04-18T09:34:31.874Z</time></trkpt><trkpt lat="42.1756167" lon="14.64431"><ele>8.0</ele><time>2026-04-18T09:34:32.874Z</time></trkpt><trkpt lat="42.17564" lon="14.6444033"><ele>8.166666666666666</ele><time>2026-04-18T09:34:33.874Z</time></trkpt><trkpt lat="42.1756633" lon="14.644505"><ele>8.333333333333332</ele><time>2026-04-18T09:34:34.874Z</time></trkpt><trkpt lat="42.1756867" lon="14.6446083"><ele>8.5</ele><time>2026-04-18T09:34:35.873Z</time></trkpt><trkpt lat="42.1757167" lon="14.6447167"><ele>8.666666666666666</ele><time>2026-04-18T09:34:36.874Z</time></trkpt><trkpt lat="42.17574" lon="14.644825"><ele>8.833333333333334</ele><time>2026-04-18T09:34:37.874Z</time></trkpt><trkpt lat="42.1757633" lon="14.644925"><ele>9.0</ele><time>2026-04-18T09:34:38.873Z</time></trkpt><trkpt lat="42.17579" lon="14.6450267"><ele>9.000000000000002</ele><time>2026-04-18T09:34:39.873Z</time></trkpt><trkpt lat="42.1758167" lon="14.64512"><ele>9.0</ele><time>2026-04-18T09:34:40.874Z</time></trkpt><trkpt lat="42.1758433" lon="14.6452067"><ele>9.0</ele><time>2026-04-18T09:34:41.874Z</time></trkpt><trkpt lat="42.1758717" lon="14.6452983"><ele>9.0</ele><time>2026-04-18T09:34:42.874Z</time></trkpt><trkpt lat="42.1758933" lon="14.645395"><ele>9.0</ele><time>2026-04-18T09:34:43.874Z</time></trkpt><trkpt lat="42.1759117" lon="14.645495"><ele>9.000000000000002</ele><time>2026-04-18T09:34:44.874Z</time></trkpt><trkpt lat="42.1759383" lon="14.645595"><ele>9.0</ele><time>2026-04-18T09:34:45.874Z</time></trkpt><trkpt lat="42.1759617" lon="14.645685"><ele>8.833333333333334</ele><time>2026-04-18T09:34:46.874Z</time></trkpt><trkpt lat="42.1759867" lon="14.6457883"><ele>8.666666666666666</ele><time>2026-04-18T09:34:47.873Z</time></trkpt><trkpt lat="42.1760133" lon="14.645885"><ele>8.5</ele><time>2026-04-18T09:34:48.874Z</time></trkpt><trkpt lat="42.17604" lon="14.6459867"><ele>8.333333333333332</ele><time>2026-04-18T09:34:49.873Z</time></trkpt><trkpt lat="42.1760683" lon="14.646085"><ele>8.166666666666666</ele><time>2026-04-18T09:34:50.873Z</time></trkpt><trkpt lat="42.1760967" lon="14.6461833"><ele>8.0</ele><time>2026-04-18T09:34:51.874Z</time></trkpt><trkpt lat="42.1761267" lon="14.64628"><ele>7.833333333333333</ele><time>2026-04-18T09:34:52.874Z</time></trkpt><trkpt lat="42.1761567" lon="14.646375"><ele>7.666666666666666</ele><time>2026-04-18T09:34:53.874Z</time></trkpt><trkpt lat="42.1761917" lon="14.6464717"><ele>7.5</ele><time>2026-04-18T09:34:54.874Z</time></trkpt><trkpt lat="42.1762267" lon="14.646565"><ele>7.333333333333334</ele><time>2026-04-18T09:34:55.874Z</time></trkpt><trkpt lat="42.176265" lon="14.646655"><ele>7.166666666666667</ele><time>2026-04-18T09:34:56.874Z</time></trkpt><trkpt lat="42.1763067" lon="14.6467367"><ele>7.0</ele><time>2026-04-18T09:34:57.873Z</time></trkpt><trkpt lat="42.176355" lon="14.646815"><ele>7.0</ele><time>2026-04-18T09:34:58.874Z</time></trkpt><trkpt lat="42.1764083" lon="14.6468917"><ele>7.0</ele><time>2026-04-18T09:34:59.874Z</time></trkpt><trkpt lat="42.1764583" lon="14.6469617"><ele>7.0</ele><time>2026-04-18T09:35:00.873Z</time></trkpt><trkpt lat="42.176505" lon="14.6470233"><ele>7.0</ele><time>2026-04-18T09:35:01.874Z</time></trkpt><trkpt lat="42.1765533" lon="14.64709"><ele>7.0</ele><time>2026-04-18T09:35:02.873Z</time></trkpt><trkpt lat="42.1766033" lon="14.6471583"><ele>7.0</ele><time>2026-04-18T09:35:03.873Z</time></trkpt><trkpt lat="42.1766533" lon="14.647225"><ele>7.0</ele><time>2026-04-18T09:35:04.873Z</time></trkpt><trkpt lat="42.176705" lon="14.6472883"><ele>7.000000000000001</ele><time>2026-04-18T09:35:05.873Z</time></trkpt><trkpt lat="42.17675" lon="14.6473617"><ele>7.0</ele><time>2026-04-18T09:35:06.873Z</time></trkpt><trkpt lat="42.1767983" lon="14.6474367"><ele>7.0</ele><time>2026-04-18T09:35:07.874Z</time></trkpt><trkpt lat="42.1768517" lon="14.6475033"><ele>7.0</ele><time>2026-04-18T09:35:08.874Z</time></trkpt><trkpt lat="42.1769183" lon="14.6475617"><ele>7.000000000000001</ele><time>2026-04-18T09:35:09.874Z</time></trkpt><trkpt lat="42.176985" lon="14.6476183"><ele>7.0</ele><time>2026-04-18T09:35:10.874Z</time></trkpt><trkpt lat="42.1770483" lon="14.64768"><ele>7.000000000000001</ele><time>2026-04-18T09:35:11.874Z</time></trkpt><trkpt lat="42.17711" lon="14.647745"><ele>7.0</ele><time>2026-04-18T09:35:12.873Z</time></trkpt><trkpt lat="42.1771767" lon="14.647805"><ele>7.0</ele><time>2026-04-18T09:35:13.874Z</time></trkpt><trkpt lat="42.177255" lon="14.6478533"><ele>7.0</ele><time>2026-04-18T09:35:14.874Z</time></trkpt><trkpt lat="42.1773317" lon="14.6479033"><ele>7.000000000000001</ele><time>2026-04-18T09:35:15.873Z</time></trkpt><trkpt lat="42.1774067" lon="14.6479433"><ele>7.0</ele><time>2026-04-18T09:35:16.874Z</time></trkpt><trkpt lat="42.1774767" lon="14.647985"><ele>7.000000000000001</ele><time>2026-04-18T09:35:17.874Z</time></trkpt><trkpt lat="42.1775533" lon="14.6480267"><ele>7.0</ele><time>2026-04-18T09:35:18.874Z</time></trkpt><trkpt lat="42.1776217" lon="14.64806"><ele>7.0</ele><time>2026-04-18T09:35:19.873Z</time></trkpt><trkpt lat="42.1776917" lon="14.6480917"><ele>7.0</ele><time>2026-04-18T09:35:20.873Z</time></trkpt><trkpt lat="42.177765" lon="14.6481183"><ele>7.000000000000001</ele><time>2026-04-18T09:35:21.873Z</time></trkpt><trkpt lat="42.1778383" lon="14.6481517"><ele>7.0</ele><time>2026-04-18T09:35:22.874Z</time></trkpt><trkpt lat="42.17791" lon="14.64818"><ele>7.000000000000001</ele><time>2026-04-18T09:35:23.873Z</time></trkpt><trkpt lat="42.1779867" lon="14.64821"><ele>7.0</ele><time>2026-04-18T09:35:24.874Z</time></trkpt><trkpt lat="42.1780633" lon="14.6482383"><ele>7.0</ele><time>2026-04-18T09:35:25.874Z</time></trkpt><trkpt lat="42.1781417" lon="14.648265"><ele>7.0</ele><time>2026-04-18T09:35:26.873Z</time></trkpt><trkpt lat="42.1782217" lon="14.6482967"><ele>7.000000000000001</ele><time>2026-04-18T09:35:27.873Z</time></trkpt><trkpt lat="42.1782917" lon="14.6483283"><ele>7.0</ele><time>2026-04-18T09:35:28.874Z</time></trkpt><trkpt lat="42.1783617" lon="14.6483567"><ele>6.857142857142857</ele><time>2026-04-18T09:35:29.874Z</time></trkpt><trkpt lat="42.1784317" lon="14.6483867"><ele>6.714285714285714</ele><time>2026-04-18T09:35:30.874Z</time></trkpt><trkpt lat="42.178505" lon="14.648405"><ele>6.571428571428571</ele><time>2026-04-18T09:35:31.874Z</time></trkpt><trkpt lat="42.17858" lon="14.6484217"><ele>6.428571428571429</ele><time>2026-04-18T09:35:32.873Z</time></trkpt><trkpt lat="42.1786533" lon="14.6484433"><ele>6.285714285714286</ele><time>2026-04-18T09:35:33.874Z</time></trkpt><trkpt lat="42.1787217" lon="14.64848"><ele>6.142857142857142</ele><time>2026-04-18T09:35:34.873Z</time></trkpt><trkpt lat="42.1787883" lon="14.6485217"><ele>6.0</ele><time>2026-04-18T09:35:35.873Z</time></trkpt><trkpt lat="42.1788533" lon="14.64857"><ele>6.0</ele><time>2026-04-18T09:35:36.874Z</time></trkpt><trkpt lat="42.1789233" lon="14.648615"><ele>6.0</ele><time>2026-04-18T09:35:37.874Z</time></trkpt><trkpt lat="42.1789867" lon="14.6486633"><ele>6.0</ele><time>2026-04-18T09:35:38.873Z</time></trkpt><trkpt lat="42.1790517" lon="14.6487167"><ele>6.0</ele><time>2026-04-18T09:35:39.873Z</time></trkpt><trkpt lat="42.1791167" lon="14.64877"><ele>6.0</ele><time>2026-04-18T09:35:40.874Z</time></trkpt><trkpt lat="42.1791817" lon="14.64882"><ele>6.0</ele><time>2026-04-18T09:35:41.874Z</time></trkpt><trkpt lat="42.1792417" lon="14.6488817"><ele>6.333333333333333</ele><time>2026-04-18T09:35:42.874Z</time></trkpt><trkpt lat="42.1793017" lon="14.64895"><ele>6.666666666666666</ele><time>2026-04-18T09:35:43.874Z</time></trkpt><trkpt lat="42.1793617" lon="14.649015"><ele>7.0</ele><time>2026-04-18T09:35:44.874Z</time></trkpt><trkpt lat="42.1794183" lon="14.6490867"><ele>7.333333333333333</ele><time>2026-04-18T09:35:45.874Z</time></trkpt><trkpt lat="42.1794733" lon="14.6491583"><ele>7.666666666666666</ele><time>2026-04-18T09:35:46.873Z</time></trkpt><trkpt lat="42.1795233" lon="14.649235"><ele>8.0</ele><time>2026-04-18T09:35:47.874Z</time></trkpt><trkpt lat="42.1795717" lon="14.64931"><ele>8.0</ele><time>2026-04-18T09:35:48.874Z</time></trkpt><trkpt lat="42.1796233" lon="14.6493833"><ele>7.999999999999999</ele><time>2026-04-18T09:35:49.874Z</time></trkpt><trkpt lat="42.1796733" lon="14.64945"><ele>8.0</ele><time>2026-04-18T09:35:50.873Z</time></trkpt><trkpt lat="42.1797217" lon="14.6495233"><ele>8.0</ele><time>2026-04-18T09:35:51.873Z</time></trkpt><trkpt lat="42.1797617" lon="14.6495983"><ele>7.999999999999999</ele><time>2026-04-18T09:35:52.873Z</time></trkpt><trkpt lat="42.1798" lon="14.6496783"><ele>8.0</ele><time>2026-04-18T09:35:53.874Z</time></trkpt><trkpt lat="42.1798417" lon="14.6497567"><ele>8.0</ele><time>2026-04-18T09:35:54.874Z</time></trkpt><trkpt lat="42.1798833" lon="14.6498317"><ele>8.0</ele><time>2026-04-18T09:35:55.874Z</time></trkpt><trkpt lat="42.17992" lon="14.6499017"><ele>7.999999999999999</ele><time>2026-04-18T09:35:56.873Z</time></trkpt><trkpt lat="42.1799633" lon="14.6499767"><ele>8.0</ele><time>2026-04-18T09:35:57.874Z</time></trkpt><trkpt lat="42.1800183" lon="14.6500483"><ele>8.0</ele><time>2026-04-18T09:35:58.874Z</time></trkpt><trkpt lat="42.18007" lon="14.6501183"><ele>7.999999999999999</ele><time>2026-04-18T09:35:59.874Z</time></trkpt><trkpt lat="42.1801167" lon="14.6501833"><ele>8.0</ele><time>2026-04-18T09:36:00.874Z</time></trkpt><trkpt lat="42.180165" lon="14.6502633"><ele>8.0</ele><time>2026-04-18T09:36:01.874Z</time></trkpt><trkpt lat="42.18021" lon="14.650335"><ele>8.25</ele><time>2026-04-18T09:36:02.874Z</time></trkpt><trkpt lat="42.180295" lon="14.6504433"><ele>8.5</ele><time>2026-04-18T09:36:04.874Z</time></trkpt><trkpt lat="42.1803633" lon="14.6505633"><ele>8.75</ele><time>2026-04-18T09:36:06.873Z</time></trkpt><trkpt lat="42.1804383" lon="14.6506867"><ele>9.0</ele><time>2026-04-18T09:36:08.873Z</time></trkpt><trkpt lat="42.1805417" lon="14.650805"><ele>9.0</ele><time>2026-04-18T09:36:10.874Z</time></trkpt><trkpt lat="42.1805983" lon="14.6508533"><ele>9.0</ele><time>2026-04-18T09:36:11.874Z</time></trkpt><trkpt lat="42.1806983" lon="14.6509517"><ele>9.0</ele><time>2026-04-18T09:36:13.874Z</time></trkpt><trkpt lat="42.1808" lon="14.6510467"><ele>9.0</ele><time>2026-04-18T09:36:15.874Z</time></trkpt><trkpt lat="42.1809067" lon="14.651135"><ele>9.0</ele><time>2026-04-18T09:36:17.874Z</time></trkpt><trkpt lat="42.181015" lon="14.651195"><ele>10.0</ele><time>2026-04-18T09:36:19.874Z</time></trkpt><trkpt lat="42.181115" lon="14.651245"><ele>11.0</ele><time>2026-04-18T09:36:21.873Z</time></trkpt><trkpt lat="42.1812217" lon="14.6512867"><ele>11.999999999999998</ele><time>2026-04-18T09:36:23.874Z</time></trkpt><trkpt lat="42.1813283" lon="14.6513317"><ele>13.0</ele><time>2026-04-18T09:36:25.874Z</time></trkpt><trkpt lat="42.1814317" lon="14.6513783"><ele>14.0</ele><time>2026-04-18T09:36:27.874Z</time></trkpt><trkpt lat="42.1815317" lon="14.6514283"><ele>14.0</ele><time>2026-04-18T09:36:29.874Z</time></trkpt><trkpt lat="42.1816283" lon="14.65145"><ele>13.999999999999998</ele><time>2026-04-18T09:36:31.874Z</time></trkpt><trkpt lat="42.1817267" lon="14.6514767"><ele>13.999999999999998</ele><time>2026-04-18T09:36:33.874Z</time></trkpt><trkpt lat="42.18184" lon="14.6515183"><ele>14.0</ele><time>2026-04-18T09:36:35.874Z</time></trkpt><trkpt lat="42.1819667" lon="14.651555"><ele>14.0</ele><time>2026-04-18T09:36:37.874Z</time></trkpt><trkpt lat="42.1820317" lon="14.651575"><ele>14.0</ele><time>2026-04-18T09:36:38.873Z</time></trkpt><trkpt lat="42.1820967" lon="14.6515883"><ele>14.0</ele><time>2026-04-18T09:36:39.874Z</time></trkpt><trkpt lat="42.182165" lon="14.651585"><ele>14.0</ele><time>2026-04-18T09:36:40.874Z</time></trkpt><trkpt lat="42.18223" lon="14.6515833"><ele>14.0</ele><time>2026-04-18T09:36:41.874Z</time></trkpt><trkpt lat="42.1823" lon="14.6515783"><ele>14.0</ele><time>2026-04-18T09:36:42.874Z</time></trkpt><trkpt lat="42.1823667" lon="14.6515683"><ele>14.0</ele><time>2026-04-18T09:36:43.873Z</time></trkpt><trkpt lat="42.182435" lon="14.6515483"><ele>14.0</ele><time>2026-04-18T09:36:44.874Z</time></trkpt><trkpt lat="42.182545" lon="14.6515083"><ele>13.399999999999999</ele><time>2026-04-18T09:36:46.873Z</time></trkpt><trkpt lat="42.1826433" lon="14.6514967"><ele>12.799999999999999</ele><time>2026-04-18T09:36:48.873Z</time></trkpt><trkpt lat="42.18274" lon="14.65148"><ele>12.2</ele><time>2026-04-18T09:36:50.874Z</time></trkpt><trkpt lat="42.1828483" lon="14.651455"><ele>11.600000000000001</ele><time>2026-04-18T09:36:52.874Z</time></trkpt><trkpt lat="42.18295" lon="14.6514117"><ele>11.0</ele><time>2026-04-18T09:36:54.873Z</time></trkpt><trkpt lat="42.1830533" lon="14.6513667"><ele>11.0</ele><time>2026-04-18T09:36:56.873Z</time></trkpt><trkpt lat="42.1831767" lon="14.6512883"><ele>11.0</ele><time>2026-04-18T09:36:58.874Z</time></trkpt><trkpt lat="42.18324" lon="14.6512417"><ele>11.0</ele><time>2026-04-18T09:36:59.874Z</time></trkpt><trkpt lat="42.1833033" lon="14.651195"><ele>11.0</ele><time>2026-04-18T09:37:00.873Z</time></trkpt><trkpt lat="42.1834183" lon="14.65112"><ele>11.0</ele><time>2026-04-18T09:37:02.873Z</time></trkpt><trkpt lat="42.1834833" lon="14.6510783"><ele>10.0</ele><time>2026-04-18T09:37:03.874Z</time></trkpt><trkpt lat="42.183545" lon="14.6510317"><ele>9.0</ele><time>2026-04-18T09:37:04.873Z</time></trkpt><trkpt lat="42.183605" lon="14.650985"><ele>8.0</ele><time>2026-04-18T09:37:05.874Z</time></trkpt><trkpt lat="42.1836617" lon="14.650945"><ele>7.0</ele><time>2026-04-18T09:37:06.874Z</time></trkpt><trkpt lat="42.1837183" lon="14.6508983"><ele>6.0</ele><time>2026-04-18T09:37:07.874Z</time></trkpt><trkpt lat="42.1837767" lon="14.6508533"><ele>5.0</ele><time>2026-04-18T09:37:08.874Z</time></trkpt><trkpt lat="42.1838367" lon="14.6508033"><ele>4.0</ele><time>2026-04-18T09:37:09.874Z</time></trkpt><trkpt lat="42.1838967" lon="14.650755"><ele>4.0</ele><time>2026-04-18T09:37:10.874Z</time></trkpt><trkpt lat="42.1839567" lon="14.6507067"><ele>4.0</ele><time>2026-04-18T09:37:11.874Z</time></trkpt><trkpt lat="42.1840167" lon="14.650655"><ele>4.0</ele><time>2026-04-18T09:37:12.874Z</time></trkpt><trkpt lat="42.1841217" lon="14.6505633"><ele>4.0</ele><time>2026-04-18T09:37:14.874Z</time></trkpt><trkpt lat="42.1841767" lon="14.6505117"><ele>4.0</ele><time>2026-04-18T09:37:15.873Z</time></trkpt><trkpt lat="42.1842783" lon="14.6504283"><ele>4.285714285714286</ele><time>2026-04-18T09:37:17.874Z</time></trkpt><trkpt lat="42.18433" lon="14.6503783"><ele>4.571428571428571</ele><time>2026-04-18T09:37:18.874Z</time></trkpt><trkpt lat="42.184385" lon="14.65033"><ele>4.857142857142857</ele><time>2026-04-18T09:37:19.873Z</time></trkpt><trkpt lat="42.1844417" lon="14.6502783"><ele>5.142857142857142</ele><time>2026-04-18T09:37:20.874Z</time></trkpt><trkpt lat="42.1844933" lon="14.6502233"><ele>5.428571428571429</ele><time>2026-04-18T09:37:21.874Z</time></trkpt><trkpt lat="42.1845433" lon="14.6501667"><ele>5.7142857142857135</ele><time>2026-04-18T09:37:22.874Z</time></trkpt><trkpt lat="42.18459" lon="14.6501083"><ele>6.0</ele><time>2026-04-18T09:37:23.874Z</time></trkpt><trkpt lat="42.1846417" lon="14.650045"><ele>6.0</ele><time>2026-04-18T09:37:24.873Z</time></trkpt><trkpt lat="42.1846967" lon="14.6499833"><ele>6.0</ele><time>2026-04-18T09:37:25.874Z</time></trkpt><trkpt lat="42.18475" lon="14.649925"><ele>6.0</ele><time>2026-04-18T09:37:26.873Z</time></trkpt><trkpt lat="42.1848" lon="14.6498683"><ele>6.0</ele><time>2026-04-18T09:37:27.874Z</time></trkpt><trkpt lat="42.18485" lon="14.6498017"><ele>6.0</ele><time>2026-04-18T09:37:28.874Z</time></trkpt><trkpt lat="42.184945" lon="14.649695"><ele>6.0</ele><time>2026-04-18T09:37:30.874Z</time></trkpt><trkpt lat="42.18503" lon="14.64959"><ele>5.999999999999999</ele><time>2026-04-18T09:37:32.874Z</time></trkpt><trkpt lat="42.18508" lon="14.6495333"><ele>6.0</ele><time>2026-04-18T09:37:33.873Z</time></trkpt><trkpt lat="42.18513" lon="14.649475"><ele>6.0</ele><time>2026-04-18T09:37:34.873Z</time></trkpt><trkpt lat="42.1851783" lon="14.649415"><ele>6.0</ele><time>2026-04-18T09:37:35.874Z</time></trkpt><trkpt lat="42.18523" lon="14.64936"><ele>6.0</ele><time>2026-04-18T09:37:36.874Z</time></trkpt><trkpt lat="42.185285" lon="14.6493067"><ele>5.999999999999999</ele><time>2026-04-18T09:37:37.873Z</time></trkpt><trkpt lat="42.1853367" lon="14.6492517"><ele>6.0</ele><time>2026-04-18T09:37:38.874Z</time></trkpt><trkpt lat="42.1853933" lon="14.6492033"><ele>6.0</ele><time>2026-04-18T09:37:39.874Z</time></trkpt><trkpt lat="42.1854483" lon="14.6491567"><ele>6.0</ele><time>2026-04-18T09:37:40.873Z</time></trkpt><trkpt lat="42.1855017" lon="14.6491083"><ele>6.0</ele><time>2026-04-18T09:37:41.874Z</time></trkpt><trkpt lat="42.1856067" lon="14.64903"><ele>6.0</ele><time>2026-04-18T09:37:43.874Z</time></trkpt><trkpt lat="42.1857067" lon="14.6489567"><ele>6.0</ele><time>2026-04-18T09:37:45.874Z</time></trkpt><trkpt lat="42.1858033" lon="14.648875"><ele>5.25</ele><time>2026-04-18T09:37:47.874Z</time></trkpt><trkpt lat="42.185905" lon="14.6488083"><ele>4.5</ele><time>2026-04-18T09:37:49.874Z</time></trkpt><trkpt lat="42.186015" lon="14.6487383"><ele>3.75</ele><time>2026-04-18T09:37:51.874Z</time></trkpt><trkpt lat="42.1861183" lon="14.648655"><ele>3.0</ele><time>2026-04-18T09:37:53.873Z</time></trkpt><trkpt lat="42.1862117" lon="14.648575"><ele>3.0</ele><time>2026-04-18T09:37:55.874Z</time></trkpt><trkpt lat="42.1863167" lon="14.6485117"><ele>3.0</ele><time>2026-04-18T09:37:57.874Z</time></trkpt><trkpt lat="42.1864217" lon="14.6484533"><ele>3.0</ele><time>2026-04-18T09:37:59.874Z</time></trkpt><trkpt lat="42.1864933" lon="14.64842"><ele>3.0</ele><time>2026-04-18T09:38:00.873Z</time></trkpt><trkpt lat="42.1865683" lon="14.6483867"><ele>3.0</ele><time>2026-04-18T09:38:01.874Z</time></trkpt><trkpt lat="42.1866417" lon="14.6483517"><ele>3.1666666666666665</ele><time>2026-04-18T09:38:02.873Z</time></trkpt><trkpt lat="42.1867117" lon="14.64832"><ele>3.333333333333333</ele><time>2026-04-18T09:38:03.874Z</time></trkpt><trkpt lat="42.1867833" lon="14.648285"><ele>3.5</ele><time>2026-04-18T09:38:04.874Z</time></trkpt><trkpt lat="42.1868517" lon="14.64825"><ele>3.6666666666666665</ele><time>2026-04-18T09:38:05.873Z</time></trkpt><trkpt lat="42.18692" lon="14.6482083"><ele>3.833333333333333</ele><time>2026-04-18T09:38:06.874Z</time></trkpt><trkpt lat="42.1869817" lon="14.648175"><ele>4.0</ele><time>2026-04-18T09:38:07.874Z</time></trkpt><trkpt lat="42.1871017" lon="14.64815"><ele>4.0</ele><time>2026-04-18T09:38:09.874Z</time></trkpt><trkpt lat="42.187215" lon="14.6481033"><ele>4.0</ele><time>2026-04-18T09:38:11.873Z</time></trkpt><trkpt lat="42.18732" lon="14.6480733"><ele>4.0</ele><time>2026-04-18T09:38:13.874Z</time></trkpt><trkpt lat="42.1874333" lon="14.6480433"><ele>4.0</ele><time>2026-04-18T09:38:15.873Z</time></trkpt><trkpt lat="42.1875433" lon="14.64799"><ele>4.0</ele><time>2026-04-18T09:38:17.874Z</time></trkpt><trkpt lat="42.18765" lon="14.64795"><ele>3.9999999999999996</ele><time>2026-04-18T09:38:19.874Z</time></trkpt><trkpt lat="42.1877133" lon="14.64794"><ele>4.0</ele><time>2026-04-18T09:38:20.873Z</time></trkpt><trkpt lat="42.1877767" lon="14.6479333"><ele>4.0</ele><time>2026-04-18T09:38:21.874Z</time></trkpt><trkpt lat="42.1878417" lon="14.647925"><ele>3.9999999999999996</ele><time>2026-04-18T09:38:22.874Z</time></trkpt><trkpt lat="42.1879083" lon="14.64792"><ele>4.0</ele><time>2026-04-18T09:38:23.873Z</time></trkpt><trkpt lat="42.187975" lon="14.6479017"><ele>4.0</ele><time>2026-04-18T09:38:24.874Z</time></trkpt><trkpt lat="42.18804" lon="14.6478833"><ele>4.0</ele><time>2026-04-18T09:38:25.874Z</time></trkpt><trkpt lat="42.18816" lon="14.6478483"><ele>4.0</ele><time>2026-04-18T09:38:27.874Z</time></trkpt><trkpt lat="42.188285" lon="14.6478217"><ele>4.0</ele><time>2026-04-18T09:38:29.873Z</time></trkpt><trkpt lat="42.188355" lon="14.647815"><ele>4.0</ele><time>2026-04-18T09:38:30.874Z</time></trkpt><trkpt lat="42.1884317" lon="14.6478117"><ele>4.0</ele><time>2026-04-18T09:38:31.874Z</time></trkpt><trkpt lat="42.1885017" lon="14.647815"><ele>4.5</ele><time>2026-04-18T09:38:32.873Z</time></trkpt><trkpt lat="42.188565" lon="14.647825"><ele>5.0</ele><time>2026-04-18T09:38:33.874Z</time></trkpt><trkpt lat="42.1886767" lon="14.6478283"><ele>5.5</ele><time>2026-04-18T09:38:35.874Z</time></trkpt><trkpt lat="42.1887567" lon="14.6478033"><ele>6.0</ele><time>2026-04-18T09:38:37.874Z</time></trkpt><trkpt lat="42.1888233" lon="14.6478117"><ele>6.500000000000001</ele><time>2026-04-18T09:38:38.873Z</time></trkpt><trkpt lat="42.18892" lon="14.647865"><ele>7.0</ele><time>2026-04-18T09:38:40.874Z</time></trkpt><trkpt lat="42.1890267" lon="14.6479"><ele>7.000000000000001</ele><time>2026-04-18T09:38:42.874Z</time></trkpt><trkpt lat="42.189125" lon="14.6479117"><ele>7.0</ele><time>2026-04-18T09:38:44.874Z</time></trkpt><trkpt lat="42.18921" lon="14.64792"><ele>7.0</ele><time>2026-04-18T09:38:46.874Z</time></trkpt><trkpt lat="42.1892717" lon="14.64794"><ele>7.0</ele><time>2026-04-18T09:38:48.873Z</time></trkpt><trkpt lat="42.18935" lon="14.64796"><ele>7.000000000000001</ele><time>2026-04-18T09:38:51.874Z</time></trkpt><trkpt lat="42.1894267" lon="14.648"><ele>7.0</ele><time>2026-04-18T09:38:54.874Z</time></trkpt><trkpt lat="42.1894533" lon="14.6481017"><ele>7.0</ele><time>2026-04-18T09:38:56.874Z</time></trkpt><trkpt lat="42.1894667" lon="14.6482633"><ele>7.0</ele><time>2026-04-18T09:38:58.873Z</time></trkpt><trkpt lat="42.1894933" lon="14.6484267"><ele>7.0</ele><time>2026-04-18T09:39:00.874Z</time></trkpt><trkpt lat="42.1895067" lon="14.648585"><ele>7.0</ele><time>2026-04-18T09:39:02.874Z</time></trkpt><trkpt lat="42.1894983" lon="14.64874"><ele>7.8</ele><time>2026-04-18T09:39:04.873Z</time></trkpt><trkpt lat="42.189465" lon="14.6488783"><ele>8.6</ele><time>2026-04-18T09:39:06.873Z</time></trkpt><trkpt lat="42.1894467" lon="14.649"><ele>9.4</ele><time>2026-04-18T09:39:08.874Z</time></trkpt><trkpt lat="42.1895183" lon="14.6490633"><ele>10.200000000000001</ele><time>2026-04-18T09:39:11.874Z</time></trkpt><trkpt lat="42.1895583" lon="14.6489817"><ele>11.0</ele><time>2026-04-18T09:39:13.874Z</time></trkpt><trkpt lat="42.1895733" lon="14.6488433"><ele>11.0</ele><time>2026-04-18T09:39:15.874Z</time></trkpt><trkpt lat="42.1895917" lon="14.6487067"><ele>11.0</ele><time>2026-04-18T09:39:17.874Z</time></trkpt><trkpt lat="42.189615" lon="14.6485867"><ele>11.0</ele><time>2026-04-18T09:39:19.873Z</time></trkpt><trkpt lat="42.189625" lon="14.6484767"><ele>11.0</ele><time>2026-04-18T09:39:21.873Z</time></trkpt><trkpt lat="42.1896433" lon="14.64838"><ele>11.0</ele><time>2026-04-18T09:39:23.874Z</time></trkpt><trkpt lat="42.1896783" lon="14.6482683"><ele>11.0</ele><time>2026-04-18T09:39:26.874Z</time></trkpt><trkpt lat="42.1896983" lon="14.6481583"><ele>10.333333333333332</ele><time>2026-04-18T09:39:29.874Z</time></trkpt><trkpt lat="42.18971" lon="14.6480417"><ele>9.666666666666666</ele><time>2026-04-18T09:39:32.873Z</time></trkpt><trkpt lat="42.1896983" lon="14.6479483"><ele>9.0</ele><time>2026-04-18T09:39:35.874Z</time></trkpt><trkpt lat="42.1896917" lon="14.647855"><ele>8.333333333333334</ele><time>2026-04-18T09:40:22.874Z</time></trkpt><trkpt lat="42.1897267" lon="14.6477467"><ele>7.666666666666667</ele><time>2026-04-18T09:40:25.874Z</time></trkpt><trkpt lat="42.1897433" lon="14.6476617"><ele>7.0</ele><time>2026-04-18T09:40:27.874Z</time></trkpt><trkpt lat="42.18975" lon="14.6475417"><ele>6.666666666666667</ele><time>2026-04-18T09:40:29.874Z</time></trkpt><trkpt lat="42.189755" lon="14.6474233"><ele>6.333333333333334</ele><time>2026-04-18T09:40:31.874Z</time></trkpt><trkpt lat="42.1897617" lon="14.6473067"><ele>6.0</ele><time>2026-04-18T09:40:33.874Z</time></trkpt><trkpt lat="42.1897617" lon="14.6471833"><ele>5.666666666666667</ele><time>2026-04-18T09:40:35.874Z</time></trkpt><trkpt lat="42.189765" lon="14.6470717"><ele>5.333333333333334</ele><time>2026-04-18T09:40:37.873Z</time></trkpt><trkpt lat="42.1897717" lon="14.6469417"><ele>5.0</ele><time>2026-04-18T09:40:39.874Z</time></trkpt><trkpt lat="42.189775" lon="14.646805"><ele>5.0</ele><time>2026-04-18T09:40:41.874Z</time></trkpt><trkpt lat="42.18978" lon="14.6466783"><ele>5.0</ele><time>2026-04-18T09:40:43.873Z</time></trkpt><trkpt lat="42.1897867" lon="14.6465583"><ele>5.0</ele><time>2026-04-18T09:40:45.874Z</time></trkpt><trkpt lat="42.1897833" lon="14.646425"><ele>5.0</ele><time>2026-04-18T09:40:47.874Z</time></trkpt><trkpt lat="42.1897933" lon="14.64629"><ele>5.0</ele><time>2026-04-18T09:40:49.874Z</time></trkpt><trkpt lat="42.1898" lon="14.64616"><ele>4.6</ele><time>2026-04-18T09:40:51.874Z</time></trkpt><trkpt lat="42.1898017" lon="14.6460233"><ele>4.2</ele><time>2026-04-18T09:40:53.874Z</time></trkpt><trkpt lat="42.1898183" lon="14.6459017"><ele>3.8</ele><time>2026-04-18T09:40:55.874Z</time></trkpt><trkpt lat="42.1898467" lon="14.6457717"><ele>3.4</ele><time>2026-04-18T09:40:57.874Z</time></trkpt><trkpt lat="42.189885" lon="14.64564"><ele>3.0</ele><time>2026-04-18T09:40:59.874Z</time></trkpt><trkpt lat="42.18994" lon="14.6455133"><ele>3.0</ele><time>2026-04-18T09:41:01.873Z</time></trkpt><trkpt lat="42.190005" lon="14.6453867"><ele>3.0</ele><time>2026-04-18T09:41:03.874Z</time></trkpt><trkpt lat="42.1900633" lon="14.645245"><ele>3.0</ele><time>2026-04-18T09:41:05.874Z</time></trkpt><trkpt lat="42.190095" lon="14.6451583"><ele>3.0</ele><time>2026-04-18T09:41:06.874Z</time></trkpt><trkpt lat="42.190125" lon="14.6450683"><ele>3.0</ele><time>2026-04-18T09:41:07.874Z</time></trkpt><trkpt lat="42.1901533" lon="14.64498"><ele>3.0</ele><time>2026-04-18T09:41:08.874Z</time></trkpt><trkpt lat="42.19018" lon="14.644895"><ele>3.0</ele><time>2026-04-18T09:41:09.874Z</time></trkpt><trkpt lat="42.1902133" lon="14.644755"><ele>3.0</ele><time>2026-04-18T09:41:11.874Z</time></trkpt><trkpt lat="42.1902483" lon="14.6446433"><ele>3.0</ele><time>2026-04-18T09:41:13.873Z</time></trkpt><trkpt lat="42.1903283" lon="14.644585"><ele>3.0</ele><time>2026-04-18T09:41:15.874Z</time></trkpt><trkpt lat="42.19044" lon="14.6445517"><ele>3.0</ele><time>2026-04-18T09:41:17.874Z</time></trkpt><trkpt lat="42.1905517" lon="14.644515"><ele>3.0</ele><time>2026-04-18T09:41:19.874Z</time></trkpt><trkpt lat="42.1906517" lon="14.644475"><ele>3.0</ele><time>2026-04-18T09:41:21.874Z</time></trkpt><trkpt lat="42.1907367" lon="14.6444367"><ele>3.0</ele><time>2026-04-18T09:41:23.874Z</time></trkpt><trkpt lat="42.190835" lon="14.6444083"><ele>3.0</ele><time>2026-04-18T09:41:25.874Z</time></trkpt><trkpt lat="42.190935" lon="14.64438"><ele>2.8</ele><time>2026-04-18T09:41:27.874Z</time></trkpt><trkpt lat="42.1910317" lon="14.6443167"><ele>2.5999999999999996</ele><time>2026-04-18T09:41:29.874Z</time></trkpt><trkpt lat="42.1911183" lon="14.64423"><ele>2.4000000000000004</ele><time>2026-04-18T09:41:31.874Z</time></trkpt><trkpt lat="42.1911933" lon="14.6441433"><ele>2.2</ele><time>2026-04-18T09:41:33.874Z</time></trkpt><trkpt lat="42.1912483" lon="14.644045"><ele>2.0</ele><time>2026-04-18T09:41:35.873Z</time></trkpt><trkpt lat="42.1913117" lon="14.6439317"><ele>2.0</ele><time>2026-04-18T09:41:37.873Z</time></trkpt><trkpt lat="42.1913767" lon="14.6438183"><ele>2.0</ele><time>2026-04-18T09:41:39.874Z</time></trkpt><trkpt lat="42.191445" lon="14.6436933"><ele>2.0</ele><time>2026-04-18T09:41:41.873Z</time></trkpt><trkpt lat="42.191505" lon="14.643575"><ele>2.0</ele><time>2026-04-18T09:41:43.874Z</time></trkpt><trkpt lat="42.1915667" lon="14.6434633"><ele>2.0</ele><time>2026-04-18T09:41:45.874Z</time></trkpt><trkpt lat="42.1916317" lon="14.64337"><ele>1.6</ele><time>2026-04-18T09:41:47.874Z</time></trkpt><trkpt lat="42.1917017" lon="14.643275"><ele>1.2000000000000002</ele><time>2026-04-18T09:41:49.874Z</time></trkpt><trkpt lat="42.1917733" lon="14.643185"><ele>0.8</ele><time>2026-04-18T09:41:51.873Z</time></trkpt><trkpt lat="42.1918467" lon="14.6430917"><ele>0.4</ele><time>2026-04-18T09:41:53.874Z</time></trkpt><trkpt lat="42.1919183" lon="14.6429933"><ele>0.0</ele><time>2026-04-18T09:41:55.874Z</time></trkpt><trkpt lat="42.19199" lon="14.6428983"><ele>0.0</ele><time>2026-04-18T09:41:57.874Z</time></trkpt><trkpt lat="42.19206" lon="14.6428017"><ele>0.0</ele><time>2026-04-18T09:41:59.873Z</time></trkpt><trkpt lat="42.1921233" lon="14.6427033"><ele>0.0</ele><time>2026-04-18T09:42:01.874Z</time></trkpt><trkpt lat="42.1921967" lon="14.64261"><ele>0.0</ele><time>2026-04-18T09:42:03.874Z</time></trkpt><trkpt lat="42.192265" lon="14.6425267"><ele>0.0</ele><time>2026-04-18T09:42:05.874Z</time></trkpt><trkpt lat="42.1923283" lon="14.642435"><ele>0.0</ele><time>2026-04-18T09:42:07.874Z</time></trkpt><trkpt lat="42.1923733" lon="14.6423183"><ele>0.0</ele><time>2026-04-18T09:42:09.873Z</time></trkpt><trkpt lat="42.1924167" lon="14.64219"><ele>0.0</ele><time>2026-04-18T09:42:11.874Z</time></trkpt><trkpt lat="42.1924633" lon="14.6420683"><ele>0.0</ele><time>2026-04-18T09:42:13.874Z</time></trkpt><trkpt lat="42.1925083" lon="14.6419383"><ele>0.0</ele><time>2026-04-18T09:42:15.873Z</time></trkpt><trkpt lat="42.19255" lon="14.641805"><ele>0.0</ele><time>2026-04-18T09:42:17.874Z</time></trkpt><trkpt lat="42.1925883" lon="14.6416783"><ele>0.0</ele><time>2026-04-18T09:42:19.874Z</time></trkpt><trkpt lat="42.1926233" lon="14.6415433"><ele>0.0</ele><time>2026-04-18T09:42:21.874Z</time></trkpt><trkpt lat="42.1926617" lon="14.6414117"><ele>0.0</ele><time>2026-04-18T09:42:23.873Z</time></trkpt><trkpt lat="42.1926967" lon="14.6412617"><ele>0.0</ele><time>2026-04-18T09:42:25.874Z</time></trkpt><trkpt lat="42.1927367" lon="14.6411117"><ele>0.0</ele><time>2026-04-18T09:42:27.873Z</time></trkpt><trkpt lat="42.1927733" lon="14.6409733"><ele>0.0</ele><time>2026-04-18T09:42:29.874Z</time></trkpt><trkpt lat="42.19281" lon="14.640815"><ele>0.0</ele><time>2026-04-18T09:42:31.874Z</time></trkpt><trkpt lat="42.1928467" lon="14.640655"><ele>0.0</ele><time>2026-04-18T09:42:33.873Z</time></trkpt><trkpt lat="42.19289" lon="14.640495"><ele>0.0</ele><time>2026-04-18T09:42:35.874Z</time></trkpt><trkpt lat="42.192925" lon="14.6403383"><ele>0.0</ele><time>2026-04-18T09:42:37.874Z</time></trkpt><trkpt lat="42.1929717" lon="14.64019"><ele>0.0</ele><time>2026-04-18T09:42:39.874Z</time></trkpt><trkpt lat="42.19301" lon="14.640045"><ele>0.0</ele><time>2026-04-18T09:42:41.873Z</time></trkpt><trkpt lat="42.1930483" lon="14.6399067"><ele>-0.2</ele><time>2026-04-18T09:42:43.873Z</time></trkpt><trkpt lat="42.193085" lon="14.6397767"><ele>-0.4</ele><time>2026-04-18T09:42:45.873Z</time></trkpt><trkpt lat="42.193125" lon="14.6396367"><ele>-0.6000000000000001</ele><time>2026-04-18T09:42:47.874Z</time></trkpt><trkpt lat="42.1931633" lon="14.6394983"><ele>-0.8</ele><time>2026-04-18T09:42:49.873Z</time></trkpt><trkpt lat="42.1931967" lon="14.6393567"><ele>-1.0</ele><time>2026-04-18T09:42:51.874Z</time></trkpt><trkpt lat="42.1932333" lon="14.6392217"><ele>-1.0</ele><time>2026-04-18T09:42:53.874Z</time></trkpt><trkpt lat="42.1932683" lon="14.63908"><ele>-1.0</ele><time>2026-04-18T09:42:55.874Z</time></trkpt><trkpt lat="42.1933" lon="14.6389367"><ele>-1.0</ele><time>2026-04-18T09:42:57.874Z</time></trkpt><trkpt lat="42.1933383" lon="14.63881"><ele>-1.0</ele><time>2026-04-18T09:42:59.874Z</time></trkpt><trkpt lat="42.1933717" lon="14.63869"><ele>-1.0</ele><time>2026-04-18T09:43:01.874Z</time></trkpt><trkpt lat="42.1934067" lon="14.638565"><ele>-0.6000000000000001</ele><time>2026-04-18T09:43:03.873Z</time></trkpt><trkpt lat="42.193435" lon="14.6384517"><ele>-0.20000000000000007</ele><time>2026-04-18T09:43:05.874Z</time></trkpt><trkpt lat="42.1934533" lon="14.63834"><ele>0.20000000000000007</ele><time>2026-04-18T09:43:07.873Z</time></trkpt><trkpt lat="42.1934833" lon="14.6382083"><ele>0.6000000000000001</ele><time>2026-04-18T09:43:09.873Z</time></trkpt><trkpt lat="42.1935233" lon="14.6380767"><ele>1.0</ele><time>2026-04-18T09:43:11.874Z</time></trkpt><trkpt lat="42.193565" lon="14.6379383"><ele>1.0</ele><time>2026-04-18T09:43:13.874Z</time></trkpt><trkpt lat="42.1935983" lon="14.63781"><ele>1.0</ele><time>2026-04-18T09:43:15.873Z</time></trkpt><trkpt lat="42.193635" lon="14.6376717"><ele>1.0</ele><time>2026-04-18T09:43:17.874Z</time></trkpt><trkpt lat="42.1936683" lon="14.6375417"><ele>1.0</ele><time>2026-04-18T09:43:19.874Z</time></trkpt><trkpt lat="42.1937067" lon="14.63742"><ele>1.0</ele><time>2026-04-18T09:43:21.873Z</time></trkpt><trkpt lat="42.19374" lon="14.6372917"><ele>1.0</ele><time>2026-04-18T09:43:23.874Z</time></trkpt><trkpt lat="42.193775" lon="14.6371617"><ele>1.0</ele><time>2026-04-18T09:43:25.874Z</time></trkpt><trkpt lat="42.1938167" lon="14.63703"><ele>1.0</ele><time>2026-04-18T09:43:27.874Z</time></trkpt><trkpt lat="42.19386" lon="14.6369"><ele>1.0</ele><time>2026-04-18T09:43:29.873Z</time></trkpt><trkpt lat="42.1938917" lon="14.63677"><ele>1.0</ele><time>2026-04-18T09:43:31.874Z</time></trkpt><trkpt lat="42.1939233" lon="14.6366367"><ele>1.0</ele><time>2026-04-18T09:43:33.873Z</time></trkpt><trkpt lat="42.19396" lon="14.6364967"><ele>1.0</ele><time>2026-04-18T09:43:35.874Z</time></trkpt><trkpt lat="42.1939983" lon="14.636355"><ele>1.0</ele><time>2026-04-18T09:43:37.874Z</time></trkpt><trkpt lat="42.1940417" lon="14.6362283"><ele>1.0</ele><time>2026-04-18T09:43:39.874Z</time></trkpt><trkpt lat="42.1940817" lon="14.6361"><ele>1.0</ele><time>2026-04-18T09:43:41.874Z</time></trkpt><trkpt lat="42.194115" lon="14.635965"><ele>1.0</ele><time>2026-04-18T09:43:43.873Z</time></trkpt><trkpt lat="42.1941533" lon="14.6358317"><ele>1.0</ele><time>2026-04-18T09:43:45.874Z</time></trkpt><trkpt lat="42.194195" lon="14.6357017"><ele>1.0</ele><time>2026-04-18T09:43:47.874Z</time></trkpt><trkpt lat="42.1942367" lon="14.6355583"><ele>1.0</ele><time>2026-04-18T09:43:49.874Z</time></trkpt><trkpt lat="42.1942767" lon="14.6354283"><ele>1.0</ele><time>2026-04-18T09:43:51.873Z</time></trkpt><trkpt lat="42.1943167" lon="14.6352883"><ele>1.2000000000000002</ele><time>2026-04-18T09:43:53.874Z</time></trkpt><trkpt lat="42.1943533" lon="14.6351467"><ele>1.4000000000000001</ele><time>2026-04-18T09:43:55.873Z</time></trkpt><trkpt lat="42.194395" lon="14.6350017"><ele>1.6</ele><time>2026-04-18T09:43:57.874Z</time></trkpt><trkpt lat="42.1944367" lon="14.6348517"><ele>1.8</ele><time>2026-04-18T09:43:59.873Z</time></trkpt><trkpt lat="42.1944733" lon="14.634725"><ele>2.0</ele><time>2026-04-18T09:44:01.874Z</time></trkpt><trkpt lat="42.1945117" lon="14.6345883"><ele>2.4000000000000004</ele><time>2026-04-18T09:44:03.874Z</time></trkpt><trkpt lat="42.1945483" lon="14.634455"><ele>2.8000000000000003</ele><time>2026-04-18T09:44:05.874Z</time></trkpt><trkpt lat="42.1945933" lon="14.6343383"><ele>3.2</ele><time>2026-04-18T09:44:07.874Z</time></trkpt><trkpt lat="42.1946333" lon="14.6342233"><ele>3.6</ele><time>2026-04-18T09:44:09.873Z</time></trkpt><trkpt lat="42.1946617" lon="14.6341133"><ele>4.0</ele><time>2026-04-18T09:44:11.874Z</time></trkpt><trkpt lat="42.1946883" lon="14.6340067"><ele>3.9999999999999996</ele><time>2026-04-18T09:44:13.873Z</time></trkpt><trkpt lat="42.194715" lon="14.63392"><ele>4.0</ele><time>2026-04-18T09:44:15.873Z</time></trkpt><trkpt lat="42.1947483" lon="14.6338017"><ele>4.0</ele><time>2026-04-18T09:44:18.874Z</time></trkpt><trkpt lat="42.1947833" lon="14.6336933"><ele>4.0</ele><time>2026-04-18T09:44:21.874Z</time></trkpt><trkpt lat="42.1948083" lon="14.6336033"><ele>3.9999999999999996</ele><time>2026-04-18T09:44:24.873Z</time></trkpt><trkpt lat="42.1948267" lon="14.6335133"><ele>4.0</ele><time>2026-04-18T09:44:28.874Z</time></trkpt><trkpt lat="42.1948283" lon="14.63341"><ele>0.0</ele><time>2026-04-18T09:44:41.874Z</time></trkpt><trkpt lat="42.1959517" lon="14.6328717"><ele>2.0</ele><time>2026-04-18T09:45:49.65Z</time></trkpt><trkpt lat="42.1953083" lon="14.63317"><ele>2.0</ele><time>2026-04-18T09:45:50.872Z</time></trkpt><trkpt lat="42.1949317" lon="14.633295"><ele>2.0</ele><time>2026-04-18T09:45:51.873Z</time></trkpt><trkpt lat="42.1948533" lon="14.63332"><ele>1.9999999999999998</ele><time>2026-04-18T09:45:53.373Z</time></trkpt><trkpt lat="42.1947883" lon="14.63331"><ele>2.0</ele><time>2026-04-18T09:45:57.872Z</time></trkpt><trkpt lat="42.19479" lon="14.633225"><ele>2.0</ele><time>2026-04-18T09:46:20.872Z</time></trkpt><trkpt lat="42.1948683" lon="14.63317"><ele>2.0</ele><time>2026-04-18T09:49:12.873Z</time></trkpt><trkpt lat="42.1948083" lon="14.6332"><ele>1.9999999999999998</ele><time>2026-04-18T10:05:42.873Z</time></trkpt><trkpt lat="42.1948257" lon="14.6333038"><ele>2.0</ele><time>2026-04-18T10:06:08.873Z</time></trkpt><trkpt lat="42.1948769" lon="14.6331951"><ele>1.9999999999999998</ele><time>2026-04-18T10:07:17.874Z</time></trkpt><trkpt lat="42.1949192" lon="14.633108"><ele>2.0</ele><time>2026-04-18T10:07:21.874Z</time></trkpt><trkpt lat="42.1949455" lon="14.6330109"><ele>2.0</ele><time>2026-04-18T10:07:24.873Z</time></trkpt><trkpt lat="42.1949913" lon="14.6329364"><ele>2.0</ele><time>2026-04-18T10:07:27.874Z</time></trkpt><trkpt lat="42.1950184" lon="14.6328379"><ele>1.9999999999999998</ele><time>2026-04-18T10:07:30.874Z</time></trkpt><trkpt lat="42.1950547" lon="14.6327272"><ele>2.0</ele><time>2026-04-18T10:07:33.874Z</time></trkpt><trkpt lat="42.1950866" lon="14.6326187"><ele>2.5</ele><time>2026-04-18T10:07:36.874Z</time></trkpt><trkpt lat="42.1951176" lon="14.6325028"><ele>3.0</ele><time>2026-04-18T10:07:39.873Z</time></trkpt><trkpt lat="42.195144" lon="14.6324063"><ele>3.5</ele><time>2026-04-18T10:07:41.874Z</time></trkpt><trkpt lat="42.1951755" lon="14.6322942"><ele>4.0</ele><time>2026-04-18T10:07:43.873Z</time></trkpt><trkpt lat="42.1952064" lon="14.6321884"><ele>4.5</ele><time>2026-04-18T10:07:45.874Z</time></trkpt><trkpt lat="42.1952302" lon="14.6320884"><ele>5.0</ele><time>2026-04-18T10:07:47.874Z</time></trkpt><trkpt lat="42.1952547" lon="14.6319871"><ele>4.857142857142857</ele><time>2026-04-18T10:07:49.874Z</time></trkpt><trkpt lat="42.195282" lon="14.6318854"><ele>4.714285714285714</ele><time>2026-04-18T10:07:51.874Z</time></trkpt><trkpt lat="42.1953084" lon="14.6318022"><ele>4.571428571428571</ele><time>2026-04-18T10:07:53.874Z</time></trkpt><trkpt lat="42.1953356" lon="14.6317127"><ele>4.428571428571429</ele><time>2026-04-18T10:07:55.874Z</time></trkpt><trkpt lat="42.1953584" lon="14.6316274"><ele>4.285714285714286</ele><time>2026-04-18T10:07:57.874Z</time></trkpt><trkpt lat="42.195386" lon="14.6315379"><ele>4.142857142857142</ele><time>2026-04-18T10:07:59.874Z</time></trkpt><trkpt lat="42.1954116" lon="14.6314538"><ele>4.0</ele><time>2026-04-18T10:08:01.874Z</time></trkpt><trkpt lat="42.1954483" lon="14.6313375"><ele>3.9999999999999996</ele><time>2026-04-18T10:08:04.874Z</time></trkpt><trkpt lat="42.1954825" lon="14.6312368"><ele>4.0</ele><time>2026-04-18T10:08:07.874Z</time></trkpt><trkpt lat="42.1954972" lon="14.6311473"><ele>4.0</ele><time>2026-04-18T10:08:10.874Z</time></trkpt><trkpt lat="42.195518" lon="14.6310504"><ele>4.0</ele><time>2026-04-18T10:08:13.874Z</time></trkpt><trkpt lat="42.1955508" lon="14.6309366"><ele>3.9999999999999996</ele><time>2026-04-18T10:08:16.874Z</time></trkpt><trkpt lat="42.1955816" lon="14.6308241"><ele>4.0</ele><time>2026-04-18T10:08:19.874Z</time></trkpt><trkpt lat="42.1956065" lon="14.6307124"><ele>3.9999999999999996</ele><time>2026-04-18T10:08:22.874Z</time></trkpt><trkpt lat="42.1956392" lon="14.6305944"><ele>4.0</ele><time>2026-04-18T10:08:25.874Z</time></trkpt><trkpt lat="42.1956616" lon="14.6305149"><ele>4.0</ele><time>2026-04-18T10:08:27.874Z</time></trkpt><trkpt lat="42.1956985" lon="14.6303993"><ele>4.0</ele><time>2026-04-18T10:08:30.874Z</time></trkpt><trkpt lat="42.1957252" lon="14.6303116"><ele>3.9999999999999996</ele><time>2026-04-18T10:08:32.874Z</time></trkpt><trkpt lat="42.1957508" lon="14.6302148"><ele>4.0</ele><time>2026-04-18T10:08:34.874Z</time></trkpt><trkpt lat="42.1957787" lon="14.6301199"><ele>3.833333333333333</ele><time>2026-04-18T10:08:36.873Z</time></trkpt><trkpt lat="42.1958104" lon="14.6300246"><ele>3.6666666666666665</ele><time>2026-04-18T10:08:38.873Z</time></trkpt><trkpt lat="42.19584" lon="14.6299357"><ele>3.5</ele><time>2026-04-18T10:08:40.873Z</time></trkpt><trkpt lat="42.1958726" lon="14.6298215"><ele>3.333333333333333</ele><time>2026-04-18T10:08:43.873Z</time></trkpt><trkpt lat="42.1959015" lon="14.6297185"><ele>3.1666666666666665</ele><time>2026-04-18T10:08:46.874Z</time></trkpt><trkpt lat="42.1959214" lon="14.6296262"><ele>3.0</ele><time>2026-04-18T10:08:49.874Z</time></trkpt><trkpt lat="42.1959413" lon="14.6295297"><ele>3.1666666666666665</ele><time>2026-04-18T10:08:54.874Z</time></trkpt><trkpt lat="42.195978" lon="14.629457"><ele>3.333333333333333</ele><time>2026-04-18T10:09:06.873Z</time></trkpt><trkpt lat="42.1960224" lon="14.6293713"><ele>3.5</ele><time>2026-04-18T10:09:09.873Z</time></trkpt><trkpt lat="42.1960608" lon="14.6292855"><ele>3.6666666666666665</ele><time>2026-04-18T10:09:12.874Z</time></trkpt><trkpt lat="42.1960877" lon="14.6291733"><ele>3.833333333333333</ele><time>2026-04-18T10:09:15.874Z</time></trkpt><trkpt lat="42.1960674" lon="14.6290477"><ele>4.0</ele><time>2026-04-18T10:09:18.874Z</time></trkpt><trkpt lat="42.1960199" lon="14.628966"><ele>4.0</ele><time>2026-04-18T10:09:20.874Z</time></trkpt><trkpt lat="42.1959824" lon="14.628875"><ele>4.0</ele><time>2026-04-18T10:09:22.873Z</time></trkpt><trkpt lat="42.195949" lon="14.6287715"><ele>4.0</ele><time>2026-04-18T10:09:24.874Z</time></trkpt><trkpt lat="42.1959111" lon="14.628656"><ele>4.0</ele><time>2026-04-18T10:09:26.873Z</time></trkpt><trkpt lat="42.1958696" lon="14.6285316"><ele>4.0</ele><time>2026-04-18T10:09:28.873Z</time></trkpt><trkpt lat="42.1958288" lon="14.6284134"><ele>3.9999999999999996</ele><time>2026-04-18T10:09:30.874Z</time></trkpt><trkpt lat="42.1957823" lon="14.6283064"><ele>4.0</ele><time>2026-04-18T10:09:32.874Z</time></trkpt><trkpt lat="42.1957333" lon="14.6282053"><ele>4.0</ele><time>2026-04-18T10:09:34.874Z</time></trkpt><trkpt lat="42.1956827" lon="14.6281127"><ele>4.0</ele><time>2026-04-18T10:09:36.874Z</time></trkpt><trkpt lat="42.195634" lon="14.6280253"><ele>3.9999999999999996</ele><time>2026-04-18T10:09:38.874Z</time></trkpt><trkpt lat="42.1955856" lon="14.6279419"><ele>4.0</ele><time>2026-04-18T10:09:40.873Z</time></trkpt><trkpt lat="42.1955382" lon="14.6278655"><ele>4.833333333333333</ele><time>2026-04-18T10:09:42.874Z</time></trkpt><trkpt lat="42.1954967" lon="14.6277579"><ele>5.666666666666666</ele><time>2026-04-18T10:09:45.874Z</time></trkpt><trkpt lat="42.1954374" lon="14.6276831"><ele>6.5</ele><time>2026-04-18T10:09:47.873Z</time></trkpt><trkpt lat="42.1953957" lon="14.6275963"><ele>7.333333333333333</ele><time>2026-04-18T10:09:49.873Z</time></trkpt><trkpt lat="42.1953595" lon="14.6275093"><ele>8.166666666666666</ele><time>2026-04-18T10:09:52.874Z</time></trkpt><trkpt lat="42.1953369" lon="14.6274262"><ele>9.0</ele><time>2026-04-18T10:09:55.873Z</time></trkpt><trkpt lat="42.1953106" lon="14.627343"><ele>9.0</ele><time>2026-04-18T10:09:58.874Z</time></trkpt><trkpt lat="42.1953022" lon="14.6272347"><ele>9.0</ele><time>2026-04-18T10:10:02.874Z</time></trkpt><trkpt lat="42.1952928" lon="14.6271464"><ele>9.0</ele><time>2026-04-18T10:10:05.873Z</time></trkpt><trkpt lat="42.1952697" lon="14.627036"><ele>9.0</ele><time>2026-04-18T10:10:09.874Z</time></trkpt><trkpt lat="42.1952714" lon="14.6269171"><ele>9.0</ele><time>2026-04-18T10:10:12.874Z</time></trkpt><trkpt lat="42.1952863" lon="14.626825"><ele>9.0</ele><time>2026-04-18T10:10:14.874Z</time></trkpt><trkpt lat="42.1953055" lon="14.626722"><ele>9.0</ele><time>2026-04-18T10:10:16.874Z</time></trkpt><trkpt lat="42.1953437" lon="14.6266235"><ele>9.0</ele><time>2026-04-18T10:10:18.873Z</time></trkpt><trkpt lat="42.1953959" lon="14.6265282"><ele>9.0</ele><time>2026-04-18T10:10:20.873Z</time></trkpt><trkpt lat="42.1954601" lon="14.6264168"><ele>9.0</ele><time>2026-04-18T10:10:22.873Z</time></trkpt><trkpt lat="42.195532" lon="14.6262962"><ele>9.0</ele><time>2026-04-18T10:10:24.874Z</time></trkpt><trkpt lat="42.1956092" lon="14.6261748"><ele>8.8</ele><time>2026-04-18T10:10:26.873Z</time></trkpt><trkpt lat="42.19568" lon="14.6260591"><ele>8.600000000000001</ele><time>2026-04-18T10:10:28.874Z</time></trkpt><trkpt lat="42.1957265" lon="14.625937"><ele>8.4</ele><time>2026-04-18T10:10:30.873Z</time></trkpt><trkpt lat="42.1957487" lon="14.6257939"><ele>8.200000000000001</ele><time>2026-04-18T10:10:32.874Z</time></trkpt><trkpt lat="42.1957542" lon="14.6256342"><ele>8.0</ele><time>2026-04-18T10:10:34.874Z</time></trkpt><trkpt lat="42.1957547" lon="14.6254792"><ele>8.0</ele><time>2026-04-18T10:10:36.873Z</time></trkpt><trkpt lat="42.1957522" lon="14.6253295"><ele>8.0</ele><time>2026-04-18T10:10:38.874Z</time></trkpt><trkpt lat="42.1957519" lon="14.6251816"><ele>8.0</ele><time>2026-04-18T10:10:40.873Z</time></trkpt><trkpt lat="42.1957487" lon="14.6250374"><ele>8.0</ele><time>2026-04-18T10:10:42.873Z</time></trkpt><trkpt lat="42.1957468" lon="14.6248963"><ele>8.0</ele><time>2026-04-18T10:10:44.874Z</time></trkpt><trkpt lat="42.1957386" lon="14.6247491"><ele>8.200000000000001</ele><time>2026-04-18T10:10:46.874Z</time></trkpt><trkpt lat="42.1957251" lon="14.6246006"><ele>8.4</ele><time>2026-04-18T10:10:48.874Z</time></trkpt><trkpt lat="42.1957039" lon="14.6244543"><ele>8.600000000000001</ele><time>2026-04-18T10:10:50.873Z</time></trkpt><trkpt lat="42.1956811" lon="14.6243206"><ele>8.8</ele><time>2026-04-18T10:10:52.874Z</time></trkpt><trkpt lat="42.1956533" lon="14.6241933"><ele>9.0</ele><time>2026-04-18T10:10:54.874Z</time></trkpt><trkpt lat="42.1956367" lon="14.6240767"><ele>9.5</ele><time>2026-04-18T10:10:56.874Z</time></trkpt><trkpt lat="42.1955967" lon="14.6239417"><ele>10.0</ele><time>2026-04-18T10:10:58.873Z</time></trkpt><trkpt lat="42.19557" lon="14.6238067"><ele>10.5</ele><time>2026-04-18T10:11:00.873Z</time></trkpt><trkpt lat="42.1955467" lon="14.6236667"><ele>11.0</ele><time>2026-04-18T10:11:02.873Z</time></trkpt><trkpt lat="42.195525" lon="14.623585"><ele>11.5</ele><time>2026-04-18T10:11:03.874Z</time></trkpt><trkpt lat="42.1955033" lon="14.623505"><ele>12.0</ele><time>2026-04-18T10:11:04.874Z</time></trkpt><trkpt lat="42.19549" lon="14.62341"><ele>12.2</ele><time>2026-04-18T10:11:05.873Z</time></trkpt><trkpt lat="42.195475" lon="14.6232417"><ele>12.399999999999999</ele><time>2026-04-18T10:11:07.873Z</time></trkpt><trkpt lat="42.195465" lon="14.6231567"><ele>12.600000000000001</ele><time>2026-04-18T10:11:08.874Z</time></trkpt><trkpt lat="42.1954283" lon="14.6229933"><ele>12.8</ele><time>2026-04-18T10:11:10.874Z</time></trkpt><trkpt lat="42.1954067" lon="14.6229067"><ele>13.0</ele><time>2026-04-18T10:11:11.873Z</time></trkpt><trkpt lat="42.1953467" lon="14.6227633"><ele>12.4</ele><time>2026-04-18T10:11:13.874Z</time></trkpt><trkpt lat="42.1952867" lon="14.6226283"><ele>11.8</ele><time>2026-04-18T10:11:15.874Z</time></trkpt><trkpt lat="42.195225" lon="14.6225017"><ele>11.2</ele><time>2026-04-18T10:11:17.873Z</time></trkpt><trkpt lat="42.1951767" lon="14.6223717"><ele>10.6</ele><time>2026-04-18T10:11:19.873Z</time></trkpt><trkpt lat="42.1951117" lon="14.6222717"><ele>10.0</ele><time>2026-04-18T10:11:21.873Z</time></trkpt><trkpt lat="42.1950767" lon="14.6221833"><ele>10.0</ele><time>2026-04-18T10:11:23.874Z</time></trkpt><trkpt lat="42.1950267" lon="14.6220833"><ele>10.0</ele><time>2026-04-18T10:11:25.874Z</time></trkpt><trkpt lat="42.19494" lon="14.6219667"><ele>10.0</ele><time>2026-04-18T10:11:27.874Z</time></trkpt><trkpt lat="42.1948967" lon="14.6219033"><ele>10.0</ele><time>2026-04-18T10:11:28.874Z</time></trkpt><trkpt lat="42.1948467" lon="14.621845"><ele>10.0</ele><time>2026-04-18T10:11:29.873Z</time></trkpt><trkpt lat="42.19477" lon="14.6217183"><ele>10.666666666666668</ele><time>2026-04-18T10:11:31.873Z</time></trkpt><trkpt lat="42.194695" lon="14.6215917"><ele>11.333333333333334</ele><time>2026-04-18T10:11:33.874Z</time></trkpt><trkpt lat="42.1946533" lon="14.6215233"><ele>12.0</ele><time>2026-04-18T10:11:34.874Z</time></trkpt><trkpt lat="42.1946133" lon="14.6214483"><ele>12.666666666666668</ele><time>2026-04-18T10:11:35.874Z</time></trkpt><trkpt lat="42.194575" lon="14.6213783"><ele>13.333333333333334</ele><time>2026-04-18T10:11:36.874Z</time></trkpt><trkpt lat="42.194535" lon="14.6213033"><ele>14.0</ele><time>2026-04-18T10:11:37.874Z</time></trkpt><trkpt lat="42.1944783" lon="14.6211567"><ele>13.833333333333334</ele><time>2026-04-18T10:11:39.873Z</time></trkpt><trkpt lat="42.19443" lon="14.6210017"><ele>13.666666666666668</ele><time>2026-04-18T10:11:41.873Z</time></trkpt><trkpt lat="42.1943983" lon="14.6209233"><ele>13.5</ele><time>2026-04-18T10:11:42.873Z</time></trkpt><trkpt lat="42.1943717" lon="14.6208417"><ele>13.333333333333332</ele><time>2026-04-18T10:11:43.873Z</time></trkpt><trkpt lat="42.1943267" lon="14.6206817"><ele>13.166666666666666</ele><time>2026-04-18T10:11:45.874Z</time></trkpt><trkpt lat="42.1943" lon="14.6206017"><ele>13.0</ele><time>2026-04-18T10:11:46.873Z</time></trkpt><trkpt lat="42.1942567" lon="14.6204433"><ele>13.0</ele><time>2026-04-18T10:11:48.874Z</time></trkpt><trkpt lat="42.1942117" lon="14.6202933"><ele>13.0</ele><time>2026-04-18T10:11:50.874Z</time></trkpt><trkpt lat="42.19419" lon="14.6202133"><ele>13.0</ele><time>2026-04-18T10:11:51.873Z</time></trkpt><trkpt lat="42.1941567" lon="14.62006"><ele>13.0</ele><time>2026-04-18T10:11:53.874Z</time></trkpt><trkpt lat="42.1941167" lon="14.6199117"><ele>13.0</ele><time>2026-04-18T10:11:55.874Z</time></trkpt><trkpt lat="42.19408" lon="14.6197567"><ele>13.0</ele><time>2026-04-18T10:11:57.873Z</time></trkpt><trkpt lat="42.194035" lon="14.6196067"><ele>13.0</ele><time>2026-04-18T10:11:59.874Z</time></trkpt><trkpt lat="42.1939933" lon="14.6194683"><ele>13.0</ele><time>2026-04-18T10:12:01.874Z</time></trkpt><trkpt lat="42.19394" lon="14.6193133"><ele>13.0</ele><time>2026-04-18T10:12:03.874Z</time></trkpt><trkpt lat="42.1939117" lon="14.61923"><ele>13.0</ele><time>2026-04-18T10:12:04.874Z</time></trkpt><trkpt lat="42.193885" lon="14.6191417"><ele>15.333333333333332</ele><time>2026-04-18T10:12:05.874Z</time></trkpt><trkpt lat="42.1938633" lon="14.61905"><ele>17.666666666666664</ele><time>2026-04-18T10:12:06.874Z</time></trkpt><trkpt lat="42.193845" lon="14.6189617"><ele>20.0</ele><time>2026-04-18T10:12:07.874Z</time></trkpt><trkpt lat="42.1938317" lon="14.618875"><ele>22.333333333333332</ele><time>2026-04-18T10:12:08.874Z</time></trkpt><trkpt lat="42.1938017" lon="14.618715"><ele>24.666666666666668</ele><time>2026-04-18T10:12:10.874Z</time></trkpt><trkpt lat="42.193785" lon="14.61856"><ele>27.0</ele><time>2026-04-18T10:12:12.874Z</time></trkpt><trkpt lat="42.193765" lon="14.6184017"><ele>27.0</ele><time>2026-04-18T10:12:14.874Z</time></trkpt><trkpt lat="42.1937433" lon="14.6182383"><ele>27.0</ele><time>2026-04-18T10:12:16.873Z</time></trkpt><trkpt lat="42.1937367" lon="14.6181517"><ele>27.0</ele><time>2026-04-18T10:12:17.874Z</time></trkpt><trkpt lat="42.1937283" lon="14.6180617"><ele>27.0</ele><time>2026-04-18T10:12:18.874Z</time></trkpt><trkpt lat="42.1937167" lon="14.6179733"><ele>27.0</ele><time>2026-04-18T10:12:19.873Z</time></trkpt><trkpt lat="42.1937033" lon="14.6178817"><ele>27.0</ele><time>2026-04-18T10:12:20.874Z</time></trkpt><trkpt lat="42.1936783" lon="14.6177183"><ele>25.5</ele><time>2026-04-18T10:12:22.874Z</time></trkpt><trkpt lat="42.1936717" lon="14.61763"><ele>24.0</ele><time>2026-04-18T10:12:23.873Z</time></trkpt><trkpt lat="42.1936667" lon="14.6175433"><ele>22.5</ele><time>2026-04-18T10:12:24.874Z</time></trkpt><trkpt lat="42.1936583" lon="14.61739"><ele>21.0</ele><time>2026-04-18T10:12:26.873Z</time></trkpt><trkpt lat="42.1936117" lon="14.61726"><ele>19.5</ele><time>2026-04-18T10:12:28.874Z</time></trkpt><trkpt lat="42.19354" lon="14.6171733"><ele>18.0</ele><time>2026-04-18T10:12:30.874Z</time></trkpt><trkpt lat="42.193425" lon="14.6171683"><ele>18.000000000000004</ele><time>2026-04-18T10:12:32.873Z</time></trkpt><trkpt lat="42.19335" lon="14.6171917"><ele>18.0</ele><time>2026-04-18T10:12:33.874Z</time></trkpt><trkpt lat="42.19328" lon="14.6172167"><ele>18.0</ele><time>2026-04-18T10:12:34.874Z</time></trkpt><trkpt lat="42.1932117" lon="14.61724"><ele>18.0</ele><time>2026-04-18T10:12:35.873Z</time></trkpt><trkpt lat="42.1931483" lon="14.6172667"><ele>18.0</ele><time>2026-04-18T10:12:36.873Z</time></trkpt><trkpt lat="42.1930833" lon="14.6173017"><ele>18.000000000000004</ele><time>2026-04-18T10:12:37.873Z</time></trkpt><trkpt lat="42.19302" lon="14.6173317"><ele>18.0</ele><time>2026-04-18T10:12:38.874Z</time></trkpt><trkpt lat="42.192955" lon="14.6173567"><ele>18.8</ele><time>2026-04-18T10:12:39.874Z</time></trkpt><trkpt lat="42.1928417" lon="14.617415"><ele>19.6</ele><time>2026-04-18T10:12:41.873Z</time></trkpt><trkpt lat="42.1927817" lon="14.6174433"><ele>20.400000000000002</ele><time>2026-04-18T10:12:42.873Z</time></trkpt><trkpt lat="42.192665" lon="14.6175"><ele>21.200000000000003</ele><time>2026-04-18T10:12:44.874Z</time></trkpt><trkpt lat="42.1925517" lon="14.617545"><ele>22.0</ele><time>2026-04-18T10:12:46.874Z</time></trkpt><trkpt lat="42.1924483" lon="14.617555"><ele>22.0</ele><time>2026-04-18T10:12:48.873Z</time></trkpt><trkpt lat="42.1923467" lon="14.6175233"><ele>22.0</ele><time>2026-04-18T10:12:50.874Z</time></trkpt><trkpt lat="42.1922417" lon="14.6174517"><ele>22.0</ele><time>2026-04-18T10:12:52.873Z</time></trkpt><trkpt lat="42.1921717" lon="14.6173483"><ele>22.0</ele><time>2026-04-18T10:12:54.874Z</time></trkpt><trkpt lat="42.1920767" lon="14.6172367"><ele>21.6</ele><time>2026-04-18T10:12:56.874Z</time></trkpt><trkpt lat="42.1919833" lon="14.6171267"><ele>21.200000000000003</ele><time>2026-04-18T10:12:58.873Z</time></trkpt><trkpt lat="42.1919017" lon="14.617005"><ele>20.8</ele><time>2026-04-18T10:13:00.874Z</time></trkpt><trkpt lat="42.1918217" lon="14.6168967"><ele>20.4</ele><time>2026-04-18T10:13:02.873Z</time></trkpt><trkpt lat="42.1917733" lon="14.61684"><ele>20.0</ele><time>2026-04-18T10:13:03.874Z</time></trkpt><trkpt lat="42.1916883" lon="14.6167267"><ele>20.0</ele><time>2026-04-18T10:13:05.873Z</time></trkpt><trkpt lat="42.19161" lon="14.6166233"><ele>20.0</ele><time>2026-04-18T10:13:07.873Z</time></trkpt><trkpt lat="42.1915333" lon="14.61649"><ele>20.0</ele><time>2026-04-18T10:13:09.874Z</time></trkpt><trkpt lat="42.1914667" lon="14.61635"><ele>20.0</ele><time>2026-04-18T10:13:11.873Z</time></trkpt><trkpt lat="42.1914" lon="14.6162167"><ele>20.6</ele><time>2026-04-18T10:13:13.874Z</time></trkpt><trkpt lat="42.19134" lon="14.616075"><ele>21.2</ele><time>2026-04-18T10:13:15.874Z</time></trkpt><trkpt lat="42.19129" lon="14.6159517"><ele>21.799999999999997</ele><time>2026-04-18T10:13:17.874Z</time></trkpt><trkpt lat="42.191195" lon="14.615875"><ele>22.4</ele><time>2026-04-18T10:13:19.874Z</time></trkpt><trkpt lat="42.1911267" lon="14.61586"><ele>23.0</ele><time>2026-04-18T10:13:20.874Z</time></trkpt><trkpt lat="42.1910633" lon="14.6158583"><ele>23.0</ele><time>2026-04-18T10:13:21.874Z</time></trkpt><trkpt lat="42.1909533" lon="14.6158667"><ele>23.0</ele><time>2026-04-18T10:13:23.874Z</time></trkpt><trkpt lat="42.1908533" lon="14.615865"><ele>23.0</ele><time>2026-04-18T10:13:25.874Z</time></trkpt><trkpt lat="42.1907567" lon="14.615845"><ele>23.0</ele><time>2026-04-18T10:13:27.873Z</time></trkpt><trkpt lat="42.1906667" lon="14.615815"><ele>23.0</ele><time>2026-04-18T10:13:29.874Z</time></trkpt><trkpt lat="42.1905667" lon="14.6157683"><ele>24.166666666666668</ele><time>2026-04-18T10:13:31.873Z</time></trkpt><trkpt lat="42.1904483" lon="14.6157333"><ele>25.333333333333336</ele><time>2026-04-18T10:13:33.874Z</time></trkpt><trkpt lat="42.19038" lon="14.6157217"><ele>26.5</ele><time>2026-04-18T10:13:34.874Z</time></trkpt><trkpt lat="42.1903133" lon="14.615715"><ele>27.666666666666668</ele><time>2026-04-18T10:13:35.874Z</time></trkpt><trkpt lat="42.19025" lon="14.6157217"><ele>28.833333333333332</ele><time>2026-04-18T10:13:36.874Z</time></trkpt><trkpt lat="42.1901867" lon="14.6157383"><ele>30.0</ele><time>2026-04-18T10:13:37.874Z</time></trkpt><trkpt lat="42.1901217" lon="14.615755"><ele>30.0</ele><time>2026-04-18T10:13:38.873Z</time></trkpt><trkpt lat="42.1899983" lon="14.6157917"><ele>30.0</ele><time>2026-04-18T10:13:40.873Z</time></trkpt><trkpt lat="42.1899317" lon="14.61581"><ele>30.0</ele><time>2026-04-18T10:13:41.874Z</time></trkpt><trkpt lat="42.1898633" lon="14.6158267"><ele>30.0</ele><time>2026-04-18T10:13:42.874Z</time></trkpt><trkpt lat="42.1898" lon="14.6158383"><ele>30.0</ele><time>2026-04-18T10:13:43.874Z</time></trkpt><trkpt lat="42.18969" lon="14.6158167"><ele>30.0</ele><time>2026-04-18T10:13:45.873Z</time></trkpt><trkpt lat="42.18958" lon="14.61576"><ele>31.0</ele><time>2026-04-18T10:13:47.874Z</time></trkpt><trkpt lat="42.189465" lon="14.6156983"><ele>32.0</ele><time>2026-04-18T10:13:49.874Z</time></trkpt><trkpt lat="42.1894" lon="14.6156633"><ele>33.0</ele><time>2026-04-18T10:13:50.873Z</time></trkpt><trkpt lat="42.1893067" lon="14.6156067"><ele>34.0</ele><time>2026-04-18T10:13:52.873Z</time></trkpt><trkpt lat="42.1891933" lon="14.6155517"><ele>35.0</ele><time>2026-04-18T10:13:54.874Z</time></trkpt><trkpt lat="42.1891283" lon="14.6155117"><ele>35.0</ele><time>2026-04-18T10:13:55.873Z</time></trkpt><trkpt lat="42.1890533" lon="14.6154767"><ele>35.0</ele><time>2026-04-18T10:13:56.873Z</time></trkpt><trkpt lat="42.1889833" lon="14.6154433"><ele>35.0</ele><time>2026-04-18T10:13:57.874Z</time></trkpt><trkpt lat="42.1889117" lon="14.6154"><ele>35.0</ele><time>2026-04-18T10:13:58.874Z</time></trkpt><trkpt lat="42.18884" lon="14.6153617"><ele>35.0</ele><time>2026-04-18T10:13:59.873Z</time></trkpt><trkpt lat="42.188755" lon="14.615325"><ele>35.0</ele><time>2026-04-18T10:14:00.873Z</time></trkpt><trkpt lat="42.188685" lon="14.6152817"><ele>35.0</ele><time>2026-04-18T10:14:01.874Z</time></trkpt><trkpt lat="42.18862" lon="14.6152383"><ele>35.0</ele><time>2026-04-18T10:14:02.874Z</time></trkpt><trkpt lat="42.1885617" lon="14.61519"><ele>35.0</ele><time>2026-04-18T10:14:03.873Z</time></trkpt><trkpt lat="42.1885017" lon="14.6151433"><ele>35.0</ele><time>2026-04-18T10:14:04.873Z</time></trkpt><trkpt lat="42.188445" lon="14.6150883"><ele>35.0</ele><time>2026-04-18T10:14:05.874Z</time></trkpt><trkpt lat="42.1883933" lon="14.6150317"><ele>35.0</ele><time>2026-04-18T10:14:06.874Z</time></trkpt><trkpt lat="42.1883383" lon="14.6149717"><ele>35.0</ele><time>2026-04-18T10:14:07.874Z</time></trkpt><trkpt lat="42.188285" lon="14.6149133"><ele>35.0</ele><time>2026-04-18T10:14:08.873Z</time></trkpt><trkpt lat="42.18824" lon="14.6148533"><ele>35.0</ele><time>2026-04-18T10:14:09.873Z</time></trkpt><trkpt lat="42.1881617" lon="14.6147333"><ele>35.0</ele><time>2026-04-18T10:14:11.874Z</time></trkpt><trkpt lat="42.1881117" lon="14.6146717"><ele>35.0</ele><time>2026-04-18T10:14:12.873Z</time></trkpt><trkpt lat="42.18802" lon="14.614565"><ele>35.0</ele><time>2026-04-18T10:14:14.874Z</time></trkpt><trkpt lat="42.1879583" lon="14.6145117"><ele>35.0</ele><time>2026-04-18T10:14:15.874Z</time></trkpt><trkpt lat="42.18789" lon="14.6144783"><ele>35.142857142857146</ele><time>2026-04-18T10:14:16.874Z</time></trkpt><trkpt lat="42.1878167" lon="14.6144333"><ele>35.285714285714285</ele><time>2026-04-18T10:14:17.873Z</time></trkpt><trkpt lat="42.18775" lon="14.6144067"><ele>35.42857142857143</ele><time>2026-04-18T10:14:18.873Z</time></trkpt><trkpt lat="42.18768" lon="14.614385"><ele>35.57142857142857</ele><time>2026-04-18T10:14:19.874Z</time></trkpt><trkpt lat="42.187615" lon="14.6143567"><ele>35.714285714285715</ele><time>2026-04-18T10:14:20.873Z</time></trkpt><trkpt lat="42.1875533" lon="14.6143267"><ele>35.85714285714286</ele><time>2026-04-18T10:14:21.873Z</time></trkpt><trkpt lat="42.1874917" lon="14.6142967"><ele>36.0</ele><time>2026-04-18T10:14:22.874Z</time></trkpt><trkpt lat="42.1874283" lon="14.61426"><ele>36.0</ele><time>2026-04-18T10:14:23.873Z</time></trkpt><trkpt lat="42.1873633" lon="14.6142233"><ele>36.0</ele><time>2026-04-18T10:14:24.874Z</time></trkpt><trkpt lat="42.18729" lon="14.61418"><ele>36.0</ele><time>2026-04-18T10:14:25.873Z</time></trkpt><trkpt lat="42.1872283" lon="14.6141367"><ele>36.0</ele><time>2026-04-18T10:14:26.874Z</time></trkpt><trkpt lat="42.1871617" lon="14.614095"><ele>36.0</ele><time>2026-04-18T10:14:27.874Z</time></trkpt><trkpt lat="42.1871033" lon="14.614055"><ele>36.0</ele><time>2026-04-18T10:14:28.874Z</time></trkpt><trkpt lat="42.1870017" lon="14.6139583"><ele>36.8</ele><time>2026-04-18T10:14:30.874Z</time></trkpt><trkpt lat="42.1869533" lon="14.6139033"><ele>37.6</ele><time>2026-04-18T10:14:31.874Z</time></trkpt><trkpt lat="42.1868683" lon="14.61379"><ele>38.4</ele><time>2026-04-18T10:14:33.874Z</time></trkpt><trkpt lat="42.1867867" lon="14.613675"><ele>39.2</ele><time>2026-04-18T10:14:35.873Z</time></trkpt><trkpt lat="42.186705" lon="14.61355"><ele>40.0</ele><time>2026-04-18T10:14:37.873Z</time></trkpt><trkpt lat="42.1866583" lon="14.61349"><ele>40.0</ele><time>2026-04-18T10:14:38.873Z</time></trkpt><trkpt lat="42.1866033" lon="14.6134283"><ele>40.0</ele><time>2026-04-18T10:14:39.874Z</time></trkpt><trkpt lat="42.18655" lon="14.61336"><ele>40.0</ele><time>2026-04-18T10:14:40.874Z</time></trkpt><trkpt lat="42.1864967" lon="14.6132967"><ele>40.0</ele><time>2026-04-18T10:14:41.874Z</time></trkpt><trkpt lat="42.1864333" lon="14.6132433"><ele>40.0</ele><time>2026-04-18T10:14:42.874Z</time></trkpt><trkpt lat="42.1863683" lon="14.6132017"><ele>40.0</ele><time>2026-04-18T10:14:43.873Z</time></trkpt><trkpt lat="42.186305" lon="14.6131583"><ele>40.0</ele><time>2026-04-18T10:14:44.874Z</time></trkpt><trkpt lat="42.1862333" lon="14.6131167"><ele>39.8</ele><time>2026-04-18T10:14:45.874Z</time></trkpt><trkpt lat="42.18617" lon="14.6130817"><ele>39.6</ele><time>2026-04-18T10:14:46.874Z</time></trkpt><trkpt lat="42.186055" lon="14.6130033"><ele>39.4</ele><time>2026-04-18T10:14:48.874Z</time></trkpt><trkpt lat="42.1859467" lon="14.6129117"><ele>39.2</ele><time>2026-04-18T10:14:50.873Z</time></trkpt><trkpt lat="42.1858867" lon="14.6128617"><ele>39.0</ele><time>2026-04-18T10:14:51.874Z</time></trkpt><trkpt lat="42.1858217" lon="14.6128133"><ele>39.0</ele><time>2026-04-18T10:14:52.874Z</time></trkpt><trkpt lat="42.1857583" lon="14.6127767"><ele>39.0</ele><time>2026-04-18T10:14:53.873Z</time></trkpt><trkpt lat="42.185695" lon="14.61274"><ele>39.0</ele><time>2026-04-18T10:14:54.874Z</time></trkpt><trkpt lat="42.18563" lon="14.612705"><ele>39.0</ele><time>2026-04-18T10:14:55.873Z</time></trkpt><trkpt lat="42.1855683" lon="14.6126617"><ele>39.0</ele><time>2026-04-18T10:14:56.874Z</time></trkpt><trkpt lat="42.1855117" lon="14.6126133"><ele>39.0</ele><time>2026-04-18T10:14:57.874Z</time></trkpt><trkpt lat="42.1854133" lon="14.61251"><ele>40.85714285714286</ele><time>2026-04-18T10:14:59.874Z</time></trkpt><trkpt lat="42.185355" lon="14.6124617"><ele>42.71428571428571</ele><time>2026-04-18T10:15:00.873Z</time></trkpt><trkpt lat="42.1852917" lon="14.612415"><ele>44.57142857142857</ele><time>2026-04-18T10:15:01.873Z</time></trkpt><trkpt lat="42.1852283" lon="14.6123667"><ele>46.42857142857143</ele><time>2026-04-18T10:15:02.873Z</time></trkpt><trkpt lat="42.1851533" lon="14.61231"><ele>48.28571428571429</ele><time>2026-04-18T10:15:03.874Z</time></trkpt><trkpt lat="42.1850833" lon="14.612265"><ele>50.14285714285714</ele><time>2026-04-18T10:15:04.874Z</time></trkpt><trkpt lat="42.1850233" lon="14.6122233"><ele>52.0</ele><time>2026-04-18T10:15:05.874Z</time></trkpt><trkpt lat="42.1849633" lon="14.61219"><ele>52.0</ele><time>2026-04-18T10:15:06.874Z</time></trkpt><trkpt lat="42.1848583" lon="14.61212"><ele>52.0</ele><time>2026-04-18T10:15:08.874Z</time></trkpt><trkpt lat="42.1847733" lon="14.6120433"><ele>52.0</ele><time>2026-04-18T10:15:10.874Z</time></trkpt><trkpt lat="42.1846967" lon="14.6119733"><ele>52.0</ele><time>2026-04-18T10:15:12.874Z</time></trkpt><trkpt lat="42.184645" lon="14.6119067"><ele>52.0</ele><time>2026-04-18T10:15:14.874Z</time></trkpt><trkpt lat="42.1846017" lon="14.6118133"><ele>50.8</ele><time>2026-04-18T10:15:17.874Z</time></trkpt><trkpt lat="42.1846117" lon="14.6117033"><ele>49.6</ele><time>2026-04-18T10:15:20.874Z</time></trkpt><trkpt lat="42.184665" lon="14.6115933"><ele>48.4</ele><time>2026-04-18T10:15:22.874Z</time></trkpt><trkpt lat="42.1847167" lon="14.6114517"><ele>47.199999999999996</ele><time>2026-04-18T10:15:24.873Z</time></trkpt><trkpt lat="42.184755" lon="14.6113"><ele>46.0</ele><time>2026-04-18T10:15:26.873Z</time></trkpt><trkpt lat="42.1847517" lon="14.61115"><ele>45.5</ele><time>2026-04-18T10:15:28.874Z</time></trkpt><trkpt lat="42.1847133" lon="14.6110167"><ele>45.0</ele><time>2026-04-18T10:15:30.873Z</time></trkpt><trkpt lat="42.1846617" lon="14.6109233"><ele>44.5</ele><time>2026-04-18T10:15:33.874Z</time></trkpt><trkpt lat="42.1846217" lon="14.610855"><ele>44.0</ele><time>2026-04-18T10:15:36.873Z</time></trkpt><trkpt lat="42.18458" lon="14.6107683"><ele>43.5</ele><time>2026-04-18T10:15:41.874Z</time></trkpt><trkpt lat="42.1844933" lon="14.6106983"><ele>43.0</ele><time>2026-04-18T10:15:45.874Z</time></trkpt><trkpt lat="42.1844383" lon="14.6106567"><ele>43.0</ele><time>2026-04-18T10:15:49.873Z</time></trkpt><trkpt lat="42.184385" lon="14.6105883"><ele>43.0</ele><time>2026-04-18T10:15:53.874Z</time></trkpt><trkpt lat="42.1843083" lon="14.6105717"><ele>43.0</ele><time>2026-04-18T10:15:57.873Z</time></trkpt><trkpt lat="42.1842317" lon="14.6105833"><ele>43.0</ele><time>2026-04-18T10:16:00.874Z</time></trkpt><trkpt lat="42.184155" lon="14.610615"><ele>43.0</ele><time>2026-04-18T10:16:02.874Z</time></trkpt><trkpt lat="42.18409" lon="14.61064"><ele>43.0</ele><time>2026-04-18T10:16:04.873Z</time></trkpt><trkpt lat="42.1840033" lon="14.6106717"><ele>43.333333333333336</ele><time>2026-04-18T10:16:07.873Z</time></trkpt><trkpt lat="42.1839317" lon="14.6106783"><ele>43.66666666666667</ele><time>2026-04-18T10:16:10.873Z</time></trkpt><trkpt lat="42.1838383" lon="14.6106983"><ele>44.0</ele><time>2026-04-18T10:16:14.873Z</time></trkpt><trkpt lat="42.1837583" lon="14.61071"><ele>44.333333333333336</ele><time>2026-04-18T10:16:16.874Z</time></trkpt><trkpt lat="42.1836867" lon="14.6107317"><ele>44.666666666666664</ele><time>2026-04-18T10:16:18.874Z</time></trkpt><trkpt lat="42.183615" lon="14.6107517"><ele>45.0</ele><time>2026-04-18T10:16:20.874Z</time></trkpt><trkpt lat="42.1835217" lon="14.61076"><ele>45.0</ele><time>2026-04-18T10:16:22.873Z</time></trkpt><trkpt lat="42.1834367" lon="14.6107367"><ele>45.0</ele><time>2026-04-18T10:16:24.873Z</time></trkpt><trkpt lat="42.1833733" lon="14.610735"><ele>45.0</ele><time>2026-04-18T10:16:25.874Z</time></trkpt><trkpt lat="42.1832983" lon="14.610725"><ele>45.0</ele><time>2026-04-18T10:16:26.874Z</time></trkpt><trkpt lat="42.1831917" lon="14.6107"><ele>45.0</ele><time>2026-04-18T10:16:28.874Z</time></trkpt><trkpt lat="42.18309" lon="14.6106867"><ele>45.0</ele><time>2026-04-18T10:16:30.873Z</time></trkpt><trkpt lat="42.1829867" lon="14.61069"><ele>45.8</ele><time>2026-04-18T10:16:32.873Z</time></trkpt><trkpt lat="42.1828667" lon="14.6106917"><ele>46.6</ele><time>2026-04-18T10:16:34.874Z</time></trkpt><trkpt lat="42.1827517" lon="14.6106983"><ele>47.400000000000006</ele><time>2026-04-18T10:16:36.874Z</time></trkpt><trkpt lat="42.18266" lon="14.61069"><ele>48.2</ele><time>2026-04-18T10:16:38.874Z</time></trkpt><trkpt lat="42.182565" lon="14.6106717"><ele>49.0</ele><time>2026-04-18T10:16:40.874Z</time></trkpt><trkpt lat="42.1824717" lon="14.610675"><ele>48.99999999999999</ele><time>2026-04-18T10:16:42.873Z</time></trkpt><trkpt lat="42.18239" lon="14.6106783"><ele>49.0</ele><time>2026-04-18T10:16:44.874Z</time></trkpt><trkpt lat="42.1823083" lon="14.6106783"><ele>49.0</ele><time>2026-04-18T10:16:46.873Z</time></trkpt><trkpt lat="42.1822283" lon="14.6106817"><ele>49.0</ele><time>2026-04-18T10:16:48.874Z</time></trkpt><trkpt lat="42.1821433" lon="14.61068"><ele>48.99999999999999</ele><time>2026-04-18T10:16:50.874Z</time></trkpt><trkpt lat="42.1820483" lon="14.610685"><ele>49.0</ele><time>2026-04-18T10:16:52.874Z</time></trkpt><trkpt lat="42.18195" lon="14.6106883"><ele>49.400000000000006</ele><time>2026-04-18T10:16:54.874Z</time></trkpt><trkpt lat="42.1818583" lon="14.6106983"><ele>49.8</ele><time>2026-04-18T10:16:56.874Z</time></trkpt><trkpt lat="42.1817633" lon="14.6107167"><ele>50.2</ele><time>2026-04-18T10:16:58.874Z</time></trkpt><trkpt lat="42.181675" lon="14.6107383"><ele>50.599999999999994</ele><time>2026-04-18T10:17:00.874Z</time></trkpt><trkpt lat="42.1815883" lon="14.6107583"><ele>51.0</ele><time>2026-04-18T10:17:02.874Z</time></trkpt><trkpt lat="42.1815067" lon="14.6107933"><ele>52.199999999999996</ele><time>2026-04-18T10:17:04.874Z</time></trkpt><trkpt lat="42.1814217" lon="14.610825"><ele>53.4</ele><time>2026-04-18T10:17:06.873Z</time></trkpt><trkpt lat="42.1813167" lon="14.6108683"><ele>54.6</ele><time>2026-04-18T10:17:08.874Z</time></trkpt><trkpt lat="42.1811933" lon="14.6109117"><ele>55.8</ele><time>2026-04-18T10:17:10.874Z</time></trkpt><trkpt lat="42.1811233" lon="14.6109333"><ele>57.0</ele><time>2026-04-18T10:17:11.874Z</time></trkpt><trkpt lat="42.181065" lon="14.6109667"><ele>57.0</ele><time>2026-04-18T10:17:12.874Z</time></trkpt><trkpt lat="42.1809517" lon="14.6110467"><ele>57.0</ele><time>2026-04-18T10:17:14.873Z</time></trkpt><trkpt lat="42.180855" lon="14.6111167"><ele>57.0</ele><time>2026-04-18T10:17:16.874Z</time></trkpt><trkpt lat="42.18076" lon="14.61118"><ele>57.0</ele><time>2026-04-18T10:17:18.873Z</time></trkpt><trkpt lat="42.1806583" lon="14.6112233"><ele>55.8</ele><time>2026-04-18T10:17:20.873Z</time></trkpt><trkpt lat="42.18056" lon="14.6113067"><ele>54.6</ele><time>2026-04-18T10:17:22.874Z</time></trkpt><trkpt lat="42.1804733" lon="14.6113817"><ele>53.4</ele><time>2026-04-18T10:17:24.873Z</time></trkpt><trkpt lat="42.1803733" lon="14.61145"><ele>52.199999999999996</ele><time>2026-04-18T10:17:26.874Z</time></trkpt><trkpt lat="42.1803183" lon="14.6114933"><ele>51.0</ele><time>2026-04-18T10:17:27.873Z</time></trkpt><trkpt lat="42.18026" lon="14.6115317"><ele>51.0</ele><time>2026-04-18T10:17:28.873Z</time></trkpt><trkpt lat="42.1802" lon="14.6115617"><ele>51.0</ele><time>2026-04-18T10:17:29.873Z</time></trkpt><trkpt lat="42.1800867" lon="14.6116017"><ele>51.0</ele><time>2026-04-18T10:17:31.874Z</time></trkpt><trkpt lat="42.1799933" lon="14.6116117"><ele>51.0</ele><time>2026-04-18T10:17:33.874Z</time></trkpt><trkpt lat="42.179895" lon="14.6115917"><ele>51.0</ele><time>2026-04-18T10:17:35.874Z</time></trkpt><trkpt lat="42.179785" lon="14.6115533"><ele>51.5</ele><time>2026-04-18T10:17:37.874Z</time></trkpt><trkpt lat="42.1796633" lon="14.6115467"><ele>52.0</ele><time>2026-04-18T10:17:39.873Z</time></trkpt><trkpt lat="42.1796" lon="14.6115467"><ele>52.5</ele><time>2026-04-18T10:17:40.874Z</time></trkpt><trkpt lat="42.17948" lon="14.611565"><ele>53.0</ele><time>2026-04-18T10:17:42.874Z</time></trkpt><trkpt lat="42.179415" lon="14.61158"><ele>53.5</ele><time>2026-04-18T10:17:43.874Z</time></trkpt><trkpt lat="42.1793517" lon="14.6115933"><ele>54.0</ele><time>2026-04-18T10:17:44.873Z</time></trkpt><trkpt lat="42.1792867" lon="14.6116067"><ele>54.0</ele><time>2026-04-18T10:17:45.873Z</time></trkpt><trkpt lat="42.1792233" lon="14.611615"><ele>54.0</ele><time>2026-04-18T10:17:46.874Z</time></trkpt><trkpt lat="42.1791583" lon="14.6116183"><ele>54.0</ele><time>2026-04-18T10:17:47.873Z</time></trkpt><trkpt lat="42.179095" lon="14.6116133"><ele>54.0</ele><time>2026-04-18T10:17:48.874Z</time></trkpt><trkpt lat="42.1790317" lon="14.6116033"><ele>54.0</ele><time>2026-04-18T10:17:49.873Z</time></trkpt><trkpt lat="42.1789667" lon="14.61159"><ele>54.0</ele><time>2026-04-18T10:17:50.873Z</time></trkpt><trkpt lat="42.1789017" lon="14.6115833"><ele>54.0</ele><time>2026-04-18T10:17:51.873Z</time></trkpt><trkpt lat="42.178835" lon="14.6115767"><ele>54.25</ele><time>2026-04-18T10:17:52.873Z</time></trkpt><trkpt lat="42.1787183" lon="14.6115667"><ele>54.5</ele><time>2026-04-18T10:17:54.873Z</time></trkpt><trkpt lat="42.1786033" lon="14.6115433"><ele>54.75</ele><time>2026-04-18T10:17:56.873Z</time></trkpt><trkpt lat="42.1784983" lon="14.6115217"><ele>55.0</ele><time>2026-04-18T10:17:58.874Z</time></trkpt><trkpt lat="42.1783933" lon="14.6114767"><ele>55.0</ele><time>2026-04-18T10:18:00.874Z</time></trkpt><trkpt lat="42.1782933" lon="14.611415"><ele>55.0</ele><time>2026-04-18T10:18:02.873Z</time></trkpt><trkpt lat="42.1781833" lon="14.6113467"><ele>55.0</ele><time>2026-04-18T10:18:04.873Z</time></trkpt><trkpt lat="42.1780867" lon="14.6112683"><ele>55.0</ele><time>2026-04-18T10:18:06.874Z</time></trkpt><trkpt lat="42.1779867" lon="14.6112267"><ele>55.0</ele><time>2026-04-18T10:18:08.874Z</time></trkpt><trkpt lat="42.1778667" lon="14.6112317"><ele>55.166666666666664</ele><time>2026-04-18T10:18:10.874Z</time></trkpt><trkpt lat="42.17774" lon="14.61125"><ele>55.33333333333333</ele><time>2026-04-18T10:18:12.874Z</time></trkpt><trkpt lat="42.1776733" lon="14.611265"><ele>55.5</ele><time>2026-04-18T10:18:13.874Z</time></trkpt><trkpt lat="42.17761" lon="14.6112717"><ele>55.66666666666667</ele><time>2026-04-18T10:18:14.874Z</time></trkpt><trkpt lat="42.1775433" lon="14.6112767"><ele>55.833333333333336</ele><time>2026-04-18T10:18:15.873Z</time></trkpt><trkpt lat="42.1774767" lon="14.611285"><ele>56.0</ele><time>2026-04-18T10:18:16.874Z</time></trkpt><trkpt lat="42.1774117" lon="14.6112917"><ele>56.599999999999994</ele><time>2026-04-18T10:18:17.873Z</time></trkpt><trkpt lat="42.1773483" lon="14.6113"><ele>57.199999999999996</ele><time>2026-04-18T10:18:18.873Z</time></trkpt><trkpt lat="42.1772267" lon="14.6113217"><ele>57.800000000000004</ele><time>2026-04-18T10:18:20.874Z</time></trkpt><trkpt lat="42.1771067" lon="14.6113417"><ele>58.400000000000006</ele><time>2026-04-18T10:18:22.873Z</time></trkpt><trkpt lat="42.176995" lon="14.61138"><ele>59.0</ele><time>2026-04-18T10:18:24.873Z</time></trkpt><trkpt lat="42.1768817" lon="14.6114317"><ele>59.0</ele><time>2026-04-18T10:18:26.873Z</time></trkpt><trkpt lat="42.176765" lon="14.611435"><ele>59.00000000000001</ele><time>2026-04-18T10:18:28.874Z</time></trkpt><trkpt lat="42.1766717" lon="14.6113933"><ele>59.00000000000001</ele><time>2026-04-18T10:18:30.874Z</time></trkpt><trkpt lat="42.1765917" lon="14.6113283"><ele>59.0</ele><time>2026-04-18T10:18:32.874Z</time></trkpt><trkpt lat="42.176525" lon="14.6112417"><ele>59.0</ele><time>2026-04-18T10:18:34.874Z</time></trkpt><trkpt lat="42.17646" lon="14.6111617"><ele>60.16666666666667</ele><time>2026-04-18T10:18:36.873Z</time></trkpt><trkpt lat="42.1763933" lon="14.6110867"><ele>61.333333333333336</ele><time>2026-04-18T10:18:38.874Z</time></trkpt><trkpt lat="42.1763383" lon="14.6110067"><ele>62.5</ele><time>2026-04-18T10:18:40.874Z</time></trkpt><trkpt lat="42.1762733" lon="14.6109267"><ele>63.66666666666667</ele><time>2026-04-18T10:18:42.874Z</time></trkpt><trkpt lat="42.1762133" lon="14.610855"><ele>64.83333333333333</ele><time>2026-04-18T10:18:44.874Z</time></trkpt><trkpt lat="42.1761483" lon="14.6107833"><ele>66.0</ele><time>2026-04-18T10:18:46.874Z</time></trkpt><trkpt lat="42.1760867" lon="14.6107133"><ele>66.0</ele><time>2026-04-18T10:18:48.874Z</time></trkpt><trkpt lat="42.1760333" lon="14.6106417"><ele>66.0</ele><time>2026-04-18T10:18:50.873Z</time></trkpt><trkpt lat="42.175985" lon="14.6105767"><ele>66.0</ele><time>2026-04-18T10:18:52.874Z</time></trkpt><trkpt lat="42.1759367" lon="14.61051"><ele>66.0</ele><time>2026-04-18T10:18:54.873Z</time></trkpt><trkpt lat="42.1758783" lon="14.6104533"><ele>66.0</ele><time>2026-04-18T10:18:56.874Z</time></trkpt><trkpt lat="42.175815" lon="14.61041"><ele>66.0</ele><time>2026-04-18T10:18:58.874Z</time></trkpt><trkpt lat="42.1757517" lon="14.6103767"><ele>66.0</ele><time>2026-04-18T10:19:00.874Z</time></trkpt><trkpt lat="42.1756783" lon="14.6103467"><ele>67.8</ele><time>2026-04-18T10:19:02.874Z</time></trkpt><trkpt lat="42.1756" lon="14.6103383"><ele>69.6</ele><time>2026-04-18T10:19:04.873Z</time></trkpt><trkpt lat="42.1755183" lon="14.61033"><ele>71.4</ele><time>2026-04-18T10:19:06.874Z</time></trkpt><trkpt lat="42.1754267" lon="14.6103083"><ele>73.2</ele><time>2026-04-18T10:19:08.873Z</time></trkpt><trkpt lat="42.175325" lon="14.610295"><ele>75.0</ele><time>2026-04-18T10:19:10.873Z</time></trkpt><trkpt lat="42.1752183" lon="14.6102783"><ele>76.6</ele><time>2026-04-18T10:19:12.874Z</time></trkpt><trkpt lat="42.17512" lon="14.6102483"><ele>78.2</ele><time>2026-04-18T10:19:14.874Z</time></trkpt><trkpt lat="42.175025" lon="14.6102333"><ele>79.80000000000001</ele><time>2026-04-18T10:19:16.873Z</time></trkpt><trkpt lat="42.1749283" lon="14.610225"><ele>81.4</ele><time>2026-04-18T10:19:18.873Z</time></trkpt><trkpt lat="42.1748333" lon="14.610195"><ele>83.0</ele><time>2026-04-18T10:19:20.873Z</time></trkpt><trkpt lat="42.174735" lon="14.6101683"><ele>84.66666666666667</ele><time>2026-04-18T10:19:22.873Z</time></trkpt><trkpt lat="42.1746383" lon="14.6101417"><ele>86.33333333333334</ele><time>2026-04-18T10:19:24.873Z</time></trkpt><trkpt lat="42.17455" lon="14.6101217"><ele>88.0</ele><time>2026-04-18T10:19:26.874Z</time></trkpt><trkpt lat="42.174465" lon="14.6100967"><ele>89.66666666666667</ele><time>2026-04-18T10:19:28.874Z</time></trkpt><trkpt lat="42.1743867" lon="14.61007"><ele>91.33333333333333</ele><time>2026-04-18T10:19:30.874Z</time></trkpt><trkpt lat="42.1743133" lon="14.6100433"><ele>93.0</ele><time>2026-04-18T10:19:32.874Z</time></trkpt><trkpt lat="42.17424" lon="14.6100167"><ele>93.0</ele><time>2026-04-18T10:19:34.874Z</time></trkpt><trkpt lat="42.17417" lon="14.61"><ele>93.0</ele><time>2026-04-18T10:19:36.873Z</time></trkpt><trkpt lat="42.1740833" lon="14.6099917"><ele>93.0</ele><time>2026-04-18T10:19:39.874Z</time></trkpt><trkpt lat="42.1740117" lon="14.6099833"><ele>93.0</ele><time>2026-04-18T10:19:41.873Z</time></trkpt><trkpt lat="42.173935" lon="14.60997"><ele>93.0</ele><time>2026-04-18T10:19:43.873Z</time></trkpt><trkpt lat="42.1738633" lon="14.6099683"><ele>93.0</ele><time>2026-04-18T10:19:45.874Z</time></trkpt><trkpt lat="42.1737833" lon="14.609975"><ele>94.0</ele><time>2026-04-18T10:19:47.874Z</time></trkpt><trkpt lat="42.173715" lon="14.60999"><ele>95.0</ele><time>2026-04-18T10:19:49.873Z</time></trkpt><trkpt lat="42.1736317" lon="14.6100167"><ele>96.0</ele><time>2026-04-18T10:19:51.874Z</time></trkpt><trkpt lat="42.17355" lon="14.61004"><ele>97.0</ele><time>2026-04-18T10:19:53.874Z</time></trkpt><trkpt lat="42.173465" lon="14.6099817"><ele>98.0</ele><time>2026-04-18T10:19:56.873Z</time></trkpt><trkpt lat="42.1734" lon="14.6099217"><ele>99.0</ele><time>2026-04-18T10:19:58.874Z</time></trkpt><trkpt lat="42.173325" lon="14.6098567"><ele>99.0</ele><time>2026-04-18T10:20:00.873Z</time></trkpt><trkpt lat="42.1732433" lon="14.609775"><ele>99.0</ele><time>2026-04-18T10:20:02.874Z</time></trkpt><trkpt lat="42.173155" lon="14.609695"><ele>99.0</ele><time>2026-04-18T10:20:04.874Z</time></trkpt><trkpt lat="42.1730517" lon="14.6096183"><ele>99.0</ele><time>2026-04-18T10:20:06.874Z</time></trkpt><trkpt lat="42.17294" lon="14.6095667"><ele>99.0</ele><time>2026-04-18T10:20:08.874Z</time></trkpt><trkpt lat="42.1728333" lon="14.60953"><ele>101.25</ele><time>2026-04-18T10:20:10.873Z</time></trkpt><trkpt lat="42.17273" lon="14.6094483"><ele>103.5</ele><time>2026-04-18T10:20:12.873Z</time></trkpt><trkpt lat="42.1726517" lon="14.6093433"><ele>105.75</ele><time>2026-04-18T10:20:14.874Z</time></trkpt><trkpt lat="42.17257" lon="14.6092233"><ele>108.0</ele><time>2026-04-18T10:20:16.874Z</time></trkpt><trkpt lat="42.172495" lon="14.609095"><ele>108.0</ele><time>2026-04-18T10:20:18.874Z</time></trkpt><trkpt lat="42.1724083" lon="14.6089683"><ele>108.00000000000001</ele><time>2026-04-18T10:20:20.874Z</time></trkpt><trkpt lat="42.17232" lon="14.608855"><ele>108.00000000000001</ele><time>2026-04-18T10:20:22.873Z</time></trkpt><trkpt lat="42.1722767" lon="14.6087933"><ele>108.0</ele><time>2026-04-18T10:20:23.873Z</time></trkpt><trkpt lat="42.17223" lon="14.608735"><ele>108.0</ele><time>2026-04-18T10:20:24.873Z</time></trkpt><trkpt lat="42.172135" lon="14.6086267"><ele>108.57142857142857</ele><time>2026-04-18T10:20:26.874Z</time></trkpt><trkpt lat="42.1720867" lon="14.6085667"><ele>109.14285714285714</ele><time>2026-04-18T10:20:27.873Z</time></trkpt><trkpt lat="42.172035" lon="14.6085083"><ele>109.71428571428572</ele><time>2026-04-18T10:20:28.873Z</time></trkpt><trkpt lat="42.1719783" lon="14.6084533"><ele>110.28571428571428</ele><time>2026-04-18T10:20:29.874Z</time></trkpt><trkpt lat="42.1719217" lon="14.6084017"><ele>110.85714285714286</ele><time>2026-04-18T10:20:30.874Z</time></trkpt><trkpt lat="42.17187" lon="14.6083433"><ele>111.42857142857143</ele><time>2026-04-18T10:20:31.874Z</time></trkpt><trkpt lat="42.1718183" lon="14.6082833"><ele>112.0</ele><time>2026-04-18T10:20:32.874Z</time></trkpt><trkpt lat="42.1717683" lon="14.6082183"><ele>112.0</ele><time>2026-04-18T10:20:33.873Z</time></trkpt><trkpt lat="42.1717133" lon="14.608155"><ele>112.0</ele><time>2026-04-18T10:20:34.874Z</time></trkpt><trkpt lat="42.1716617" lon="14.6080883"><ele>112.0</ele><time>2026-04-18T10:20:35.874Z</time></trkpt><trkpt lat="42.1716133" lon="14.60801"><ele>112.0</ele><time>2026-04-18T10:20:36.873Z</time></trkpt><trkpt lat="42.1715683" lon="14.6079367"><ele>112.0</ele><time>2026-04-18T10:20:37.873Z</time></trkpt><trkpt lat="42.171525" lon="14.6078633"><ele>112.0</ele><time>2026-04-18T10:20:38.874Z</time></trkpt><trkpt lat="42.17148" lon="14.6077967"><ele>112.0</ele><time>2026-04-18T10:20:39.873Z</time></trkpt><trkpt lat="42.1714283" lon="14.6077317"><ele>112.42857142857143</ele><time>2026-04-18T10:20:40.874Z</time></trkpt><trkpt lat="42.1713833" lon="14.6076617"><ele>112.85714285714286</ele><time>2026-04-18T10:20:41.873Z</time></trkpt><trkpt lat="42.1713333" lon="14.6075867"><ele>113.28571428571428</ele><time>2026-04-18T10:20:42.874Z</time></trkpt><trkpt lat="42.1712833" lon="14.60751"><ele>113.71428571428571</ele><time>2026-04-18T10:20:43.874Z</time></trkpt><trkpt lat="42.17123" lon="14.6074383"><ele>114.14285714285714</ele><time>2026-04-18T10:20:44.873Z</time></trkpt><trkpt lat="42.1711717" lon="14.6073717"><ele>114.57142857142856</ele><time>2026-04-18T10:20:45.873Z</time></trkpt><trkpt lat="42.1711167" lon="14.6072967"><ele>114.99999999999999</ele><time>2026-04-18T10:20:46.874Z</time></trkpt><trkpt lat="42.1710633" lon="14.6072233"><ele>114.99999999999999</ele><time>2026-04-18T10:20:47.873Z</time></trkpt><trkpt lat="42.1710167" lon="14.6071467"><ele>115.0</ele><time>2026-04-18T10:20:48.874Z</time></trkpt><trkpt lat="42.170965" lon="14.6070783"><ele>114.99999999999999</ele><time>2026-04-18T10:20:49.874Z</time></trkpt><trkpt lat="42.1709167" lon="14.60701"><ele>114.99999999999999</ele><time>2026-04-18T10:20:50.873Z</time></trkpt><trkpt lat="42.1708683" lon="14.6069467"><ele>115.0</ele><time>2026-04-18T10:20:51.874Z</time></trkpt><trkpt lat="42.170815" lon="14.60688"><ele>114.99999999999999</ele><time>2026-04-18T10:20:52.874Z</time></trkpt><trkpt lat="42.1707617" lon="14.6068117"><ele>114.99999999999999</ele><time>2026-04-18T10:20:53.874Z</time></trkpt><trkpt lat="42.1707067" lon="14.60674"><ele>115.33333333333334</ele><time>2026-04-18T10:20:54.874Z</time></trkpt><trkpt lat="42.1706517" lon="14.6066733"><ele>115.66666666666667</ele><time>2026-04-18T10:20:55.874Z</time></trkpt><trkpt lat="42.1706" lon="14.6066017"><ele>116.0</ele><time>2026-04-18T10:20:56.873Z</time></trkpt><trkpt lat="42.1705467" lon="14.6065283"><ele>116.33333333333334</ele><time>2026-04-18T10:20:57.873Z</time></trkpt><trkpt lat="42.17049" lon="14.6064567"><ele>116.66666666666667</ele><time>2026-04-18T10:20:58.873Z</time></trkpt><trkpt lat="42.170435" lon="14.6063833"><ele>117.0</ele><time>2026-04-18T10:20:59.874Z</time></trkpt><trkpt lat="42.1703817" lon="14.6063083"><ele>117.0</ele><time>2026-04-18T10:21:00.874Z</time></trkpt><trkpt lat="42.1703267" lon="14.6062317"><ele>117.0</ele><time>2026-04-18T10:21:01.874Z</time></trkpt><trkpt lat="42.1702717" lon="14.6061617"><ele>117.0</ele><time>2026-04-18T10:21:02.874Z</time></trkpt><trkpt lat="42.17021" lon="14.60609"><ele>117.0</ele><time>2026-04-18T10:21:03.874Z</time></trkpt><trkpt lat="42.17015" lon="14.6060267"><ele>117.0</ele><time>2026-04-18T10:21:04.874Z</time></trkpt><trkpt lat="42.17009" lon="14.60597"><ele>117.0</ele><time>2026-04-18T10:21:05.874Z</time></trkpt><trkpt lat="42.1700317" lon="14.6059083"><ele>117.0</ele><time>2026-04-18T10:21:06.874Z</time></trkpt><trkpt lat="42.1699733" lon="14.605835"><ele>117.0</ele><time>2026-04-18T10:21:07.874Z</time></trkpt><trkpt lat="42.16992" lon="14.6057617"><ele>117.0</ele><time>2026-04-18T10:21:08.874Z</time></trkpt><trkpt lat="42.1698617" lon="14.60569"><ele>117.0</ele><time>2026-04-18T10:21:09.873Z</time></trkpt><trkpt lat="42.1698017" lon="14.60562"><ele>117.0</ele><time>2026-04-18T10:21:10.874Z</time></trkpt><trkpt lat="42.1697417" lon="14.6055483"><ele>117.0</ele><time>2026-04-18T10:21:11.874Z</time></trkpt><trkpt lat="42.1696833" lon="14.6054767"><ele>117.33333333333333</ele><time>2026-04-18T10:21:12.874Z</time></trkpt><trkpt lat="42.169625" lon="14.60541"><ele>117.66666666666666</ele><time>2026-04-18T10:21:13.873Z</time></trkpt><trkpt lat="42.16957" lon="14.6053383"><ele>118.0</ele><time>2026-04-18T10:21:14.873Z</time></trkpt><trkpt lat="42.16951" lon="14.60527"><ele>118.33333333333333</ele><time>2026-04-18T10:21:15.874Z</time></trkpt><trkpt lat="42.1694517" lon="14.6052"><ele>118.66666666666666</ele><time>2026-04-18T10:21:16.874Z</time></trkpt><trkpt lat="42.1693933" lon="14.60513"><ele>119.0</ele><time>2026-04-18T10:21:17.874Z</time></trkpt><trkpt lat="42.1693317" lon="14.6050567"><ele>118.99999999999999</ele><time>2026-04-18T10:21:18.874Z</time></trkpt><trkpt lat="42.1692767" lon="14.604985"><ele>119.0</ele><time>2026-04-18T10:21:19.874Z</time></trkpt><trkpt lat="42.1692217" lon="14.604905"><ele>119.0</ele><time>2026-04-18T10:21:20.873Z</time></trkpt><trkpt lat="42.1691767" lon="14.60483"><ele>119.0</ele><time>2026-04-18T10:21:21.874Z</time></trkpt><trkpt lat="42.1691283" lon="14.6047567"><ele>118.99999999999999</ele><time>2026-04-18T10:21:22.874Z</time></trkpt><trkpt lat="42.1690767" lon="14.604685"><ele>119.0</ele><time>2026-04-18T10:21:23.873Z</time></trkpt><trkpt lat="42.1690233" lon="14.6046083"><ele>119.33333333333333</ele><time>2026-04-18T10:21:24.874Z</time></trkpt><trkpt lat="42.16897" lon="14.6045283"><ele>119.66666666666666</ele><time>2026-04-18T10:21:25.874Z</time></trkpt><trkpt lat="42.16892" lon="14.6044467"><ele>120.0</ele><time>2026-04-18T10:21:26.874Z</time></trkpt><trkpt lat="42.16887" lon="14.6043717"><ele>120.33333333333334</ele><time>2026-04-18T10:21:27.874Z</time></trkpt><trkpt lat="42.1688217" lon="14.604295"><ele>120.66666666666667</ele><time>2026-04-18T10:21:28.873Z</time></trkpt><trkpt lat="42.1687667" lon="14.6042233"><ele>121.0</ele><time>2026-04-18T10:21:29.873Z</time></trkpt><trkpt lat="42.168715" lon="14.60415"><ele>121.14285714285714</ele><time>2026-04-18T10:21:30.874Z</time></trkpt><trkpt lat="42.1686633" lon="14.6040783"><ele>121.28571428571428</ele><time>2026-04-18T10:21:31.874Z</time></trkpt><trkpt lat="42.1686117" lon="14.6040017"><ele>121.42857142857142</ele><time>2026-04-18T10:21:32.874Z</time></trkpt><trkpt lat="42.16856" lon="14.6039283"><ele>121.57142857142856</ele><time>2026-04-18T10:21:33.873Z</time></trkpt><trkpt lat="42.168505" lon="14.6038567"><ele>121.71428571428571</ele><time>2026-04-18T10:21:34.874Z</time></trkpt><trkpt lat="42.1684567" lon="14.6037833"><ele>121.85714285714283</ele><time>2026-04-18T10:21:35.874Z</time></trkpt><trkpt lat="42.16841" lon="14.6037067"><ele>121.99999999999999</ele><time>2026-04-18T10:21:36.873Z</time></trkpt><trkpt lat="42.1683583" lon="14.6036233"><ele>121.99999999999999</ele><time>2026-04-18T10:21:37.874Z</time></trkpt><trkpt lat="42.16832" lon="14.603535"><ele>122.0</ele><time>2026-04-18T10:21:38.874Z</time></trkpt><trkpt lat="42.168285" lon="14.6034483"><ele>122.0</ele><time>2026-04-18T10:21:39.874Z</time></trkpt><trkpt lat="42.1682433" lon="14.6033633"><ele>122.0</ele><time>2026-04-18T10:21:40.874Z</time></trkpt><trkpt lat="42.1681917" lon="14.6032867"><ele>121.99999999999999</ele><time>2026-04-18T10:21:41.874Z</time></trkpt><trkpt lat="42.1681417" lon="14.6032083"><ele>122.0</ele><time>2026-04-18T10:21:42.874Z</time></trkpt><trkpt lat="42.1680883" lon="14.6031367"><ele>122.33333333333333</ele><time>2026-04-18T10:21:43.873Z</time></trkpt><trkpt lat="42.1680283" lon="14.6030667"><ele>122.66666666666666</ele><time>2026-04-18T10:21:44.874Z</time></trkpt><trkpt lat="42.1679633" lon="14.602995"><ele>123.0</ele><time>2026-04-18T10:21:45.873Z</time></trkpt><trkpt lat="42.1678983" lon="14.6029233"><ele>123.33333333333334</ele><time>2026-04-18T10:21:46.873Z</time></trkpt><trkpt lat="42.167835" lon="14.60285"><ele>123.66666666666667</ele><time>2026-04-18T10:21:47.873Z</time></trkpt><trkpt lat="42.167775" lon="14.6027733"><ele>124.0</ele><time>2026-04-18T10:21:48.873Z</time></trkpt><trkpt lat="42.1677083" lon="14.602705"><ele>124.0</ele><time>2026-04-18T10:21:49.874Z</time></trkpt><trkpt lat="42.1676417" lon="14.6026317"><ele>124.0</ele><time>2026-04-18T10:21:50.874Z</time></trkpt><trkpt lat="42.167575" lon="14.6025567"><ele>124.0</ele><time>2026-04-18T10:21:51.874Z</time></trkpt><trkpt lat="42.1675083" lon="14.6024733"><ele>124.0</ele><time>2026-04-18T10:21:52.874Z</time></trkpt><trkpt lat="42.1674333" lon="14.6023917"><ele>124.0</ele><time>2026-04-18T10:21:53.873Z</time></trkpt><trkpt lat="42.1673567" lon="14.6023133"><ele>124.4</ele><time>2026-04-18T10:21:54.874Z</time></trkpt><trkpt lat="42.1672917" lon="14.6022333"><ele>124.80000000000001</ele><time>2026-04-18T10:21:55.874Z</time></trkpt><trkpt lat="42.1672267" lon="14.6021417"><ele>125.19999999999999</ele><time>2026-04-18T10:21:56.874Z</time></trkpt><trkpt lat="42.1671733" lon="14.60204"><ele>125.6</ele><time>2026-04-18T10:21:57.873Z</time></trkpt><trkpt lat="42.1671183" lon="14.6019433"><ele>126.0</ele><time>2026-04-18T10:21:58.873Z</time></trkpt><trkpt lat="42.167055" lon="14.601855"><ele>126.19999999999999</ele><time>2026-04-18T10:21:59.873Z</time></trkpt><trkpt lat="42.1669883" lon="14.601765"><ele>126.39999999999999</ele><time>2026-04-18T10:22:00.873Z</time></trkpt><trkpt lat="42.1669217" lon="14.601685"><ele>126.6</ele><time>2026-04-18T10:22:01.874Z</time></trkpt><trkpt lat="42.1668483" lon="14.6016067"><ele>126.8</ele><time>2026-04-18T10:22:02.873Z</time></trkpt><trkpt lat="42.1667733" lon="14.6015267"><ele>127.0</ele><time>2026-04-18T10:22:03.873Z</time></trkpt><trkpt lat="42.1667117" lon="14.6014483"><ele>127.0</ele><time>2026-04-18T10:22:04.874Z</time></trkpt><trkpt lat="42.1666467" lon="14.6013583"><ele>126.99999999999999</ele><time>2026-04-18T10:22:05.873Z</time></trkpt><trkpt lat="42.16657" lon="14.6012767"><ele>126.99999999999999</ele><time>2026-04-18T10:22:06.874Z</time></trkpt><trkpt lat="42.166495" lon="14.601195"><ele>127.0</ele><time>2026-04-18T10:22:07.873Z</time></trkpt><trkpt lat="42.1664233" lon="14.601105"><ele>127.0</ele><time>2026-04-18T10:22:08.874Z</time></trkpt><trkpt lat="42.16635" lon="14.6010133"><ele>127.6</ele><time>2026-04-18T10:22:09.874Z</time></trkpt><trkpt lat="42.1662683" lon="14.6009267"><ele>128.2</ele><time>2026-04-18T10:22:10.874Z</time></trkpt><trkpt lat="42.1661883" lon="14.60084"><ele>128.8</ele><time>2026-04-18T10:22:11.874Z</time></trkpt><trkpt lat="42.16611" lon="14.6007517"><ele>129.4</ele><time>2026-04-18T10:22:12.873Z</time></trkpt><trkpt lat="42.1660317" lon="14.6006633"><ele>130.0</ele><time>2026-04-18T10:22:13.874Z</time></trkpt><trkpt lat="42.165955" lon="14.600565"><ele>130.0</ele><time>2026-04-18T10:22:14.874Z</time></trkpt><trkpt lat="42.1658817" lon="14.6004733"><ele>130.0</ele><time>2026-04-18T10:22:15.874Z</time></trkpt><trkpt lat="42.1658083" lon="14.60038"><ele>130.0</ele><time>2026-04-18T10:22:16.874Z</time></trkpt><trkpt lat="42.1657333" lon="14.6002933"><ele>130.0</ele><time>2026-04-18T10:22:17.874Z</time></trkpt><trkpt lat="42.1656617" lon="14.60022"><ele>130.0</ele><time>2026-04-18T10:22:18.874Z</time></trkpt><trkpt lat="42.1656017" lon="14.6001483"><ele>130.33333333333334</ele><time>2026-04-18T10:22:19.873Z</time></trkpt><trkpt lat="42.165545" lon="14.600085"><ele>130.66666666666669</ele><time>2026-04-18T10:22:20.874Z</time></trkpt><trkpt lat="42.165495" lon="14.600025"><ele>131.0</ele><time>2026-04-18T10:22:21.874Z</time></trkpt><trkpt lat="42.1654383" lon="14.59997"><ele>131.33333333333334</ele><time>2026-04-18T10:22:22.874Z</time></trkpt><trkpt lat="42.1653617" lon="14.5998433"><ele>131.66666666666666</ele><time>2026-04-18T10:22:24.874Z</time></trkpt><trkpt lat="42.16532" lon="14.5997017"><ele>132.0</ele><time>2026-04-18T10:22:26.874Z</time></trkpt><trkpt lat="42.1652833" lon="14.59957"><ele>132.0</ele><time>2026-04-18T10:22:28.874Z</time></trkpt><trkpt lat="42.165235" lon="14.59942"><ele>132.0</ele><time>2026-04-18T10:22:30.874Z</time></trkpt><trkpt lat="42.165205" lon="14.5993383"><ele>132.0</ele><time>2026-04-18T10:22:31.874Z</time></trkpt><trkpt lat="42.1651717" lon="14.59921"><ele>132.0</ele><time>2026-04-18T10:22:33.874Z</time></trkpt><trkpt lat="42.1651217" lon="14.5991067"><ele>132.0</ele><time>2026-04-18T10:22:35.874Z</time></trkpt><trkpt lat="42.1650833" lon="14.599015"><ele>132.0</ele><time>2026-04-18T10:22:37.874Z</time></trkpt><trkpt lat="42.1650367" lon="14.5989417"><ele>132.0</ele><time>2026-04-18T10:22:39.874Z</time></trkpt><trkpt lat="42.16498" lon="14.5988617"><ele>132.0</ele><time>2026-04-18T10:22:41.874Z</time></trkpt><trkpt lat="42.16493" lon="14.5987883"><ele>132.0</ele><time>2026-04-18T10:22:43.874Z</time></trkpt><trkpt lat="42.1648817" lon="14.598715"><ele>132.0</ele><time>2026-04-18T10:22:45.873Z</time></trkpt><trkpt lat="42.16483" lon="14.59865"><ele>132.0</ele><time>2026-04-18T10:22:47.874Z</time></trkpt><trkpt lat="42.1647783" lon="14.5985933"><ele>132.0</ele><time>2026-04-18T10:22:49.874Z</time></trkpt><trkpt lat="42.1647283" lon="14.59852"><ele>132.33333333333334</ele><time>2026-04-18T10:22:51.874Z</time></trkpt><trkpt lat="42.16467" lon="14.59845"><ele>132.66666666666666</ele><time>2026-04-18T10:22:53.873Z</time></trkpt><trkpt lat="42.1646133" lon="14.5983767"><ele>133.0</ele><time>2026-04-18T10:22:55.874Z</time></trkpt><trkpt lat="42.1645517" lon="14.5983117"><ele>133.33333333333331</ele><time>2026-04-18T10:22:57.874Z</time></trkpt><trkpt lat="42.1644833" lon="14.5982533"><ele>133.66666666666666</ele><time>2026-04-18T10:22:59.874Z</time></trkpt><trkpt lat="42.1644117" lon="14.5981867"><ele>134.0</ele><time>2026-04-18T10:23:01.874Z</time></trkpt><trkpt lat="42.1643483" lon="14.5981283"><ele>134.0</ele><time>2026-04-18T10:23:03.874Z</time></trkpt><trkpt lat="42.1642867" lon="14.5980667"><ele>134.0</ele><time>2026-04-18T10:23:05.873Z</time></trkpt><trkpt lat="42.1642133" lon="14.59801"><ele>134.0</ele><time>2026-04-18T10:23:08.874Z</time></trkpt><trkpt lat="42.1641533" lon="14.5979683"><ele>134.0</ele><time>2026-04-18T10:23:10.874Z</time></trkpt><trkpt lat="42.1640917" lon="14.5979333"><ele>134.0</ele><time>2026-04-18T10:23:12.874Z</time></trkpt><trkpt lat="42.1640233" lon="14.59789"><ele>134.0</ele><time>2026-04-18T10:23:14.874Z</time></trkpt><trkpt lat="42.1639517" lon="14.59786"><ele>134.0</ele><time>2026-04-18T10:23:16.874Z</time></trkpt><trkpt lat="42.1638783" lon="14.5978517"><ele>134.42857142857144</ele><time>2026-04-18T10:23:18.874Z</time></trkpt><trkpt lat="42.16381" lon="14.5978283"><ele>134.85714285714286</ele><time>2026-04-18T10:23:20.873Z</time></trkpt><trkpt lat="42.1637467" lon="14.5978"><ele>135.28571428571428</ele><time>2026-04-18T10:23:22.874Z</time></trkpt><trkpt lat="42.163695" lon="14.5977267"><ele>135.71428571428572</ele><time>2026-04-18T10:23:25.874Z</time></trkpt><trkpt lat="42.1636567" lon="14.59765"><ele>136.14285714285714</ele><time>2026-04-18T10:23:28.874Z</time></trkpt><trkpt lat="42.16359" lon="14.5975817"><ele>136.57142857142858</ele><time>2026-04-18T10:23:31.874Z</time></trkpt><trkpt lat="42.1635383" lon="14.5975133"><ele>137.0</ele><time>2026-04-18T10:23:34.874Z</time></trkpt><trkpt lat="42.1634883" lon="14.5974183"><ele>137.0</ele><time>2026-04-18T10:23:38.874Z</time></trkpt><trkpt lat="42.1634317" lon="14.59735"><ele>137.0</ele><time>2026-04-18T10:23:41.874Z</time></trkpt><trkpt lat="42.163375" lon="14.597265"><ele>137.0</ele><time>2026-04-18T10:23:44.873Z</time></trkpt><trkpt lat="42.1633267" lon="14.5971833"><ele>137.0</ele><time>2026-04-18T10:23:47.874Z</time></trkpt><trkpt lat="42.163285" lon="14.5971117"><ele>137.0</ele><time>2026-04-18T10:23:49.874Z</time></trkpt><trkpt lat="42.163245" lon="14.5970433"><ele>137.0</ele><time>2026-04-18T10:23:51.873Z</time></trkpt><trkpt lat="42.1631933" lon="14.59696"><ele>137.66666666666666</ele><time>2026-04-18T10:23:54.874Z</time></trkpt><trkpt lat="42.16313" lon="14.59687"><ele>138.33333333333331</ele><time>2026-04-18T10:23:57.874Z</time></trkpt><trkpt lat="42.1630833" lon="14.5967933"><ele>139.0</ele><time>2026-04-18T10:24:00.874Z</time></trkpt><trkpt lat="42.1630367" lon="14.5967067"><ele>139.66666666666666</ele><time>2026-04-18T10:24:03.874Z</time></trkpt><trkpt lat="42.1629733" lon="14.5965983"><ele>140.33333333333334</ele><time>2026-04-18T10:24:06.874Z</time></trkpt><trkpt lat="42.162915" lon="14.5965117"><ele>141.0</ele><time>2026-04-18T10:24:08.874Z</time></trkpt><trkpt lat="42.162855" lon="14.5964217"><ele>141.0</ele><time>2026-04-18T10:24:10.874Z</time></trkpt><trkpt lat="42.1627983" lon="14.5963417"><ele>141.0</ele><time>2026-04-18T10:24:12.874Z</time></trkpt><trkpt lat="42.1627533" lon="14.59626"><ele>141.0</ele><time>2026-04-18T10:24:14.874Z</time></trkpt><trkpt lat="42.16271" lon="14.59619"><ele>141.0</ele><time>2026-04-18T10:24:16.874Z</time></trkpt><trkpt lat="42.1626633" lon="14.5961267"><ele>141.0</ele><time>2026-04-18T10:24:18.873Z</time></trkpt><trkpt lat="42.1626133" lon="14.5960517"><ele>141.0</ele><time>2026-04-18T10:24:21.874Z</time></trkpt><trkpt lat="42.1625633" lon="14.5959517"><ele>141.0</ele><time>2026-04-18T10:24:24.874Z</time></trkpt><trkpt lat="42.16252" lon="14.59586"><ele>141.0</ele><time>2026-04-18T10:24:26.874Z</time></trkpt><trkpt lat="42.1624667" lon="14.5957633"><ele>141.0</ele><time>2026-04-18T10:24:28.874Z</time></trkpt><trkpt lat="42.16242" lon="14.59569"><ele>141.0</ele><time>2026-04-18T10:24:30.873Z</time></trkpt><trkpt lat="42.1623717" lon="14.5956133"><ele>141.0</ele><time>2026-04-18T10:24:33.874Z</time></trkpt><trkpt lat="42.162325" lon="14.59553"><ele>141.0</ele><time>2026-04-18T10:24:36.873Z</time></trkpt><trkpt lat="42.1622767" lon="14.59546"><ele>141.16666666666666</ele><time>2026-04-18T10:24:38.874Z</time></trkpt><trkpt lat="42.1622233" lon="14.5953767"><ele>141.33333333333334</ele><time>2026-04-18T10:24:40.873Z</time></trkpt><trkpt lat="42.1621733" lon="14.5952917"><ele>141.5</ele><time>2026-04-18T10:24:42.874Z</time></trkpt><trkpt lat="42.1621383" lon="14.5952067"><ele>141.66666666666669</ele><time>2026-04-18T10:24:44.874Z</time></trkpt><trkpt lat="42.16209" lon="14.5951033"><ele>141.83333333333334</ele><time>2026-04-18T10:24:46.874Z</time></trkpt><trkpt lat="42.1620233" lon="14.5950183"><ele>142.0</ele><time>2026-04-18T10:24:48.874Z</time></trkpt><trkpt lat="42.1619567" lon="14.5949517"><ele>142.0</ele><time>2026-04-18T10:24:50.873Z</time></trkpt><trkpt lat="42.161895" lon="14.5948733"><ele>142.0</ele><time>2026-04-18T10:24:52.874Z</time></trkpt><trkpt lat="42.1618233" lon="14.5947833"><ele>142.0</ele><time>2026-04-18T10:24:54.873Z</time></trkpt><trkpt lat="42.1617533" lon="14.5946917"><ele>142.0</ele><time>2026-04-18T10:24:56.874Z</time></trkpt><trkpt lat="42.1616917" lon="14.59461"><ele>142.0</ele><time>2026-04-18T10:24:58.873Z</time></trkpt><trkpt lat="42.1616333" lon="14.594525"><ele>142.6</ele><time>2026-04-18T10:25:00.873Z</time></trkpt><trkpt lat="42.1615783" lon="14.5944433"><ele>143.2</ele><time>2026-04-18T10:25:02.874Z</time></trkpt><trkpt lat="42.161515" lon="14.59436"><ele>143.8</ele><time>2026-04-18T10:25:04.873Z</time></trkpt><trkpt lat="42.1614417" lon="14.5942717"><ele>144.4</ele><time>2026-04-18T10:25:06.874Z</time></trkpt><trkpt lat="42.161365" lon="14.5941667"><ele>145.0</ele><time>2026-04-18T10:25:08.874Z</time></trkpt><trkpt lat="42.1612883" lon="14.5940583"><ele>145.4</ele><time>2026-04-18T10:25:10.874Z</time></trkpt><trkpt lat="42.1612" lon="14.5939683"><ele>145.8</ele><time>2026-04-18T10:25:12.873Z</time></trkpt><trkpt lat="42.1611217" lon="14.5938633"><ele>146.2</ele><time>2026-04-18T10:25:14.874Z</time></trkpt><trkpt lat="42.1610383" lon="14.593755"><ele>146.6</ele><time>2026-04-18T10:25:16.874Z</time></trkpt><trkpt lat="42.16096" lon="14.5936517"><ele>147.0</ele><time>2026-04-18T10:25:18.874Z</time></trkpt><trkpt lat="42.1608883" lon="14.5935567"><ele>147.2</ele><time>2026-04-18T10:25:20.873Z</time></trkpt><trkpt lat="42.1608167" lon="14.5934517"><ele>147.39999999999998</ele><time>2026-04-18T10:25:22.873Z</time></trkpt><trkpt lat="42.16074" lon="14.59335"><ele>147.60000000000002</ele><time>2026-04-18T10:25:24.873Z</time></trkpt><trkpt lat="42.1606583" lon="14.593245"><ele>147.8</ele><time>2026-04-18T10:25:26.874Z</time></trkpt><trkpt lat="42.16057" lon="14.5931417"><ele>148.0</ele><time>2026-04-18T10:25:28.874Z</time></trkpt><trkpt lat="42.1604883" lon="14.5930367"><ele>148.4</ele><time>2026-04-18T10:25:30.874Z</time></trkpt><trkpt lat="42.1604167" lon="14.592945"><ele>148.8</ele><time>2026-04-18T10:25:32.874Z</time></trkpt><trkpt lat="42.16035" lon="14.59286"><ele>149.2</ele><time>2026-04-18T10:25:34.874Z</time></trkpt><trkpt lat="42.1602767" lon="14.59277"><ele>149.6</ele><time>2026-04-18T10:25:36.873Z</time></trkpt><trkpt lat="42.160205" lon="14.5926917"><ele>150.0</ele><time>2026-04-18T10:25:38.874Z</time></trkpt><trkpt lat="42.160135" lon="14.5926033"><ele>150.4</ele><time>2026-04-18T10:25:40.874Z</time></trkpt><trkpt lat="42.1600617" lon="14.5925133"><ele>150.8</ele><time>2026-04-18T10:25:42.874Z</time></trkpt><trkpt lat="42.159965" lon="14.5924233"><ele>151.2</ele><time>2026-04-18T10:25:44.874Z</time></trkpt><trkpt lat="42.1598767" lon="14.5923333"><ele>151.6</ele><time>2026-04-18T10:25:46.874Z</time></trkpt><trkpt lat="42.1597967" lon="14.5922233"><ele>152.0</ele><time>2026-04-18T10:25:48.874Z</time></trkpt><trkpt lat="42.1597017" lon="14.5921333"><ele>152.2</ele><time>2026-04-18T10:25:50.874Z</time></trkpt><trkpt lat="42.1596167" lon="14.592045"><ele>152.39999999999998</ele><time>2026-04-18T10:25:52.874Z</time></trkpt><trkpt lat="42.1595383" lon="14.59196"><ele>152.60000000000002</ele><time>2026-04-18T10:25:54.873Z</time></trkpt><trkpt lat="42.1594567" lon="14.591875"><ele>152.8</ele><time>2026-04-18T10:25:56.873Z</time></trkpt><trkpt lat="42.1593667" lon="14.591785"><ele>153.0</ele><time>2026-04-18T10:25:58.874Z</time></trkpt><trkpt lat="42.1592767" lon="14.5916933"><ele>153.20000000000002</ele><time>2026-04-18T10:26:00.873Z</time></trkpt><trkpt lat="42.1591883" lon="14.5916033"><ele>153.4</ele><time>2026-04-18T10:26:02.874Z</time></trkpt><trkpt lat="42.1590983" lon="14.5915033"><ele>153.60000000000002</ele><time>2026-04-18T10:26:04.874Z</time></trkpt><trkpt lat="42.1590167" lon="14.5914033"><ele>153.8</ele><time>2026-04-18T10:26:06.874Z</time></trkpt><trkpt lat="42.1589367" lon="14.5913033"><ele>154.0</ele><time>2026-04-18T10:26:08.873Z</time></trkpt><trkpt lat="42.1588467" lon="14.5912017"><ele>154.75</ele><time>2026-04-18T10:26:10.874Z</time></trkpt><trkpt lat="42.15876" lon="14.5910917"><ele>155.5</ele><time>2026-04-18T10:26:12.873Z</time></trkpt><trkpt lat="42.1586683" lon="14.590985"><ele>156.25</ele><time>2026-04-18T10:26:14.874Z</time></trkpt><trkpt lat="42.15858" lon="14.590875"><ele>157.0</ele><time>2026-04-18T10:26:16.874Z</time></trkpt><trkpt lat="42.1584917" lon="14.5907767"><ele>157.0</ele><time>2026-04-18T10:26:18.874Z</time></trkpt><trkpt lat="42.1584083" lon="14.5906783"><ele>157.0</ele><time>2026-04-18T10:26:20.874Z</time></trkpt><trkpt lat="42.1583167" lon="14.5905767"><ele>157.0</ele><time>2026-04-18T10:26:22.873Z</time></trkpt><trkpt lat="42.1582217" lon="14.59048"><ele>157.0</ele><time>2026-04-18T10:26:24.873Z</time></trkpt><trkpt lat="42.1581233" lon="14.59039"><ele>157.25</ele><time>2026-04-18T10:26:26.873Z</time></trkpt><trkpt lat="42.1580317" lon="14.5903033"><ele>157.5</ele><time>2026-04-18T10:26:28.874Z</time></trkpt><trkpt lat="42.1579333" lon="14.590225"><ele>157.75</ele><time>2026-04-18T10:26:30.873Z</time></trkpt><trkpt lat="42.1578317" lon="14.5901483"><ele>158.0</ele><time>2026-04-18T10:26:32.873Z</time></trkpt><trkpt lat="42.1577383" lon="14.5900683"><ele>158.0</ele><time>2026-04-18T10:26:34.873Z</time></trkpt><trkpt lat="42.1576483" lon="14.589985"><ele>158.0</ele><time>2026-04-18T10:26:36.874Z</time></trkpt><trkpt lat="42.1575567" lon="14.5899017"><ele>158.0</ele><time>2026-04-18T10:26:38.873Z</time></trkpt><trkpt lat="42.1574567" lon="14.5898167"><ele>158.0</ele><time>2026-04-18T10:26:40.873Z</time></trkpt><trkpt lat="42.1573583" lon="14.5897233"><ele>158.20000000000002</ele><time>2026-04-18T10:26:42.873Z</time></trkpt><trkpt lat="42.15726" lon="14.5896417"><ele>158.4</ele><time>2026-04-18T10:26:44.874Z</time></trkpt><trkpt lat="42.1571633" lon="14.5895517"><ele>158.60000000000002</ele><time>2026-04-18T10:26:46.874Z</time></trkpt><trkpt lat="42.1571083" lon="14.5895"><ele>158.8</ele><time>2026-04-18T10:26:47.874Z</time></trkpt><trkpt lat="42.157015" lon="14.589395"><ele>159.0</ele><time>2026-04-18T10:26:49.873Z</time></trkpt><trkpt lat="42.156935" lon="14.5892783"><ele>159.0</ele><time>2026-04-18T10:26:51.874Z</time></trkpt><trkpt lat="42.1568467" lon="14.5891617"><ele>159.0</ele><time>2026-04-18T10:26:53.873Z</time></trkpt><trkpt lat="42.1567583" lon="14.5890417"><ele>159.0</ele><time>2026-04-18T10:26:55.874Z</time></trkpt><trkpt lat="42.1566833" lon="14.5889183"><ele>159.0</ele><time>2026-04-18T10:26:57.874Z</time></trkpt><trkpt lat="42.1566133" lon="14.5888"><ele>159.25</ele><time>2026-04-18T10:26:59.874Z</time></trkpt><trkpt lat="42.1565333" lon="14.58868"><ele>159.5</ele><time>2026-04-18T10:27:01.873Z</time></trkpt><trkpt lat="42.1564517" lon="14.5885617"><ele>159.75</ele><time>2026-04-18T10:27:03.873Z</time></trkpt><trkpt lat="42.156365" lon="14.5884433"><ele>160.0</ele><time>2026-04-18T10:27:05.874Z</time></trkpt><trkpt lat="42.1562933" lon="14.5883133"><ele>160.0</ele><time>2026-04-18T10:27:07.874Z</time></trkpt><trkpt lat="42.1562217" lon="14.5881933"><ele>160.0</ele><time>2026-04-18T10:27:09.873Z</time></trkpt><trkpt lat="42.1561383" lon="14.588075"><ele>160.0</ele><time>2026-04-18T10:27:11.874Z</time></trkpt><trkpt lat="42.1560583" lon="14.5879533"><ele>160.0</ele><time>2026-04-18T10:27:13.874Z</time></trkpt><trkpt lat="42.15599" lon="14.5878383"><ele>160.33333333333334</ele><time>2026-04-18T10:27:15.874Z</time></trkpt><trkpt lat="42.1559233" lon="14.5877217"><ele>160.66666666666669</ele><time>2026-04-18T10:27:17.873Z</time></trkpt><trkpt lat="42.1558717" lon="14.58762"><ele>161.0</ele><time>2026-04-18T10:27:19.874Z</time></trkpt><trkpt lat="42.1558167" lon="14.58754"><ele>161.33333333333334</ele><time>2026-04-18T10:27:21.874Z</time></trkpt><trkpt lat="42.1557683" lon="14.58748"><ele>161.66666666666666</ele><time>2026-04-18T10:27:23.874Z</time></trkpt><trkpt lat="42.1557117" lon="14.5873983"><ele>162.0</ele><time>2026-04-18T10:27:25.874Z</time></trkpt><trkpt lat="42.155645" lon="14.5873067"><ele>162.0</ele><time>2026-04-18T10:27:27.874Z</time></trkpt><trkpt lat="42.1555683" lon="14.5872083"><ele>162.0</ele><time>2026-04-18T10:27:29.874Z</time></trkpt><trkpt lat="42.15549" lon="14.5871"><ele>162.0</ele><time>2026-04-18T10:27:31.874Z</time></trkpt><trkpt lat="42.1554067" lon="14.5869917"><ele>162.0</ele><time>2026-04-18T10:27:33.873Z</time></trkpt><trkpt lat="42.1553217" lon="14.5868867"><ele>162.0</ele><time>2026-04-18T10:27:35.874Z</time></trkpt><trkpt lat="42.1552467" lon="14.5867717"><ele>162.5</ele><time>2026-04-18T10:27:37.873Z</time></trkpt><trkpt lat="42.155175" lon="14.5866483"><ele>163.0</ele><time>2026-04-18T10:27:39.873Z</time></trkpt><trkpt lat="42.1551033" lon="14.5865217"><ele>163.5</ele><time>2026-04-18T10:27:41.874Z</time></trkpt><trkpt lat="42.1550417" lon="14.586385"><ele>164.0</ele><time>2026-04-18T10:27:43.874Z</time></trkpt><trkpt lat="42.1549867" lon="14.586255"><ele>165.2</ele><time>2026-04-18T10:27:45.873Z</time></trkpt><trkpt lat="42.154925" lon="14.586125"><ele>166.39999999999998</ele><time>2026-04-18T10:27:47.873Z</time></trkpt><trkpt lat="42.1548683" lon="14.5860017"><ele>167.6</ele><time>2026-04-18T10:27:49.874Z</time></trkpt><trkpt lat="42.15482" lon="14.585885"><ele>168.8</ele><time>2026-04-18T10:27:51.874Z</time></trkpt><trkpt lat="42.1547967" lon="14.5857867"><ele>170.0</ele><time>2026-04-18T10:27:53.874Z</time></trkpt><trkpt lat="42.15477" lon="14.5856933"><ele>170.0</ele><time>2026-04-18T10:27:55.874Z</time></trkpt><trkpt lat="42.1547167" lon="14.5856"><ele>170.0</ele><time>2026-04-18T10:27:57.874Z</time></trkpt><trkpt lat="42.1546633" lon="14.5855017"><ele>170.0</ele><time>2026-04-18T10:27:59.873Z</time></trkpt><trkpt lat="42.1546033" lon="14.5853967"><ele>170.0</ele><time>2026-04-18T10:28:01.874Z</time></trkpt><trkpt lat="42.1545283" lon="14.58529"><ele>170.0</ele><time>2026-04-18T10:28:03.873Z</time></trkpt><trkpt lat="42.1544317" lon="14.5852133"><ele>170.4</ele><time>2026-04-18T10:28:05.873Z</time></trkpt><trkpt lat="42.154315" lon="14.58517"><ele>170.8</ele><time>2026-04-18T10:28:07.873Z</time></trkpt><trkpt lat="42.1541967" lon="14.585155"><ele>171.2</ele><time>2026-04-18T10:28:09.874Z</time></trkpt><trkpt lat="42.154075" lon="14.5851533"><ele>171.6</ele><time>2026-04-18T10:28:11.873Z</time></trkpt><trkpt lat="42.1540117" lon="14.5851583"><ele>172.0</ele><time>2026-04-18T10:28:12.873Z</time></trkpt><trkpt lat="42.153905" lon="14.5851533"><ele>172.83333333333334</ele><time>2026-04-18T10:28:14.874Z</time></trkpt><trkpt lat="42.153815" lon="14.5851617"><ele>173.66666666666669</ele><time>2026-04-18T10:28:16.873Z</time></trkpt><trkpt lat="42.1537267" lon="14.5851667"><ele>174.5</ele><time>2026-04-18T10:28:18.873Z</time></trkpt><trkpt lat="42.1536433" lon="14.585185"><ele>175.33333333333334</ele><time>2026-04-18T10:28:20.873Z</time></trkpt><trkpt lat="42.1535483" lon="14.585205"><ele>176.16666666666666</ele><time>2026-04-18T10:28:22.874Z</time></trkpt><trkpt lat="42.15348" lon="14.58522"><ele>177.0</ele><time>2026-04-18T10:28:24.874Z</time></trkpt><trkpt lat="42.1534033" lon="14.5851883"><ele>177.0</ele><time>2026-04-18T10:28:27.874Z</time></trkpt><trkpt lat="42.1533817" lon="14.5850583"><ele>177.0</ele><time>2026-04-18T10:28:29.874Z</time></trkpt><trkpt lat="42.15336" lon="14.58491"><ele>177.0</ele><time>2026-04-18T10:28:31.874Z</time></trkpt><trkpt lat="42.1533367" lon="14.5847617"><ele>177.0</ele><time>2026-04-18T10:28:33.873Z</time></trkpt><trkpt lat="42.1533067" lon="14.584615"><ele>177.0</ele><time>2026-04-18T10:28:35.874Z</time></trkpt><trkpt lat="42.153265" lon="14.58449"><ele>176.8</ele><time>2026-04-18T10:28:37.874Z</time></trkpt><trkpt lat="42.15321" lon="14.5843767"><ele>176.6</ele><time>2026-04-18T10:28:39.873Z</time></trkpt><trkpt lat="42.153135" lon="14.58427"><ele>176.4</ele><time>2026-04-18T10:28:41.874Z</time></trkpt><trkpt lat="42.1530533" lon="14.584165"><ele>176.20000000000002</ele><time>2026-04-18T10:28:43.873Z</time></trkpt><trkpt lat="42.1529767" lon="14.5840567"><ele>176.0</ele><time>2026-04-18T10:28:45.873Z</time></trkpt><trkpt lat="42.1529033" lon="14.5839583"><ele>177.4</ele><time>2026-04-18T10:28:47.873Z</time></trkpt><trkpt lat="42.1528317" lon="14.5838667"><ele>178.8</ele><time>2026-04-18T10:28:49.873Z</time></trkpt><trkpt lat="42.1527633" lon="14.5837767"><ele>180.20000000000002</ele><time>2026-04-18T10:28:51.874Z</time></trkpt><trkpt lat="42.1527017" lon="14.5836833"><ele>181.60000000000002</ele><time>2026-04-18T10:28:53.874Z</time></trkpt><trkpt lat="42.15263" lon="14.5835833"><ele>183.0</ele><time>2026-04-18T10:28:55.873Z</time></trkpt><trkpt lat="42.1525567" lon="14.583495"><ele>183.0</ele><time>2026-04-18T10:28:57.874Z</time></trkpt><trkpt lat="42.1524917" lon="14.5834167"><ele>183.0</ele><time>2026-04-18T10:28:59.874Z</time></trkpt><trkpt lat="42.1524233" lon="14.5833383"><ele>183.0</ele><time>2026-04-18T10:29:01.873Z</time></trkpt><trkpt lat="42.1523633" lon="14.583255"><ele>183.0</ele><time>2026-04-18T10:29:03.874Z</time></trkpt><trkpt lat="42.1522983" lon="14.5831517"><ele>183.0</ele><time>2026-04-18T10:29:05.873Z</time></trkpt><trkpt lat="42.1522367" lon="14.5830383"><ele>184.8</ele><time>2026-04-18T10:29:07.874Z</time></trkpt><trkpt lat="42.1521733" lon="14.5829217"><ele>186.60000000000002</ele><time>2026-04-18T10:29:09.874Z</time></trkpt><trkpt lat="42.1521067" lon="14.5828133"><ele>188.39999999999998</ele><time>2026-04-18T10:29:11.873Z</time></trkpt><trkpt lat="42.152035" lon="14.5827133"><ele>190.2</ele><time>2026-04-18T10:29:13.874Z</time></trkpt><trkpt lat="42.1519717" lon="14.5826233"><ele>192.0</ele><time>2026-04-18T10:29:15.874Z</time></trkpt><trkpt lat="42.1519133" lon="14.58254"><ele>192.0</ele><time>2026-04-18T10:29:17.874Z</time></trkpt><trkpt lat="42.1518683" lon="14.582455"><ele>192.0</ele><time>2026-04-18T10:29:19.874Z</time></trkpt><trkpt lat="42.15182" lon="14.582375"><ele>192.0</ele><time>2026-04-18T10:29:21.874Z</time></trkpt><trkpt lat="42.1517717" lon="14.5822467"><ele>192.0</ele><time>2026-04-18T10:29:23.874Z</time></trkpt><trkpt lat="42.1517217" lon="14.5821167"><ele>192.0</ele><time>2026-04-18T10:29:25.873Z</time></trkpt><trkpt lat="42.151685" lon="14.5820017"><ele>192.5</ele><time>2026-04-18T10:29:27.874Z</time></trkpt><trkpt lat="42.1516517" lon="14.5819017"><ele>193.0</ele><time>2026-04-18T10:29:29.874Z</time></trkpt><trkpt lat="42.151635" lon="14.5817867"><ele>193.5</ele><time>2026-04-18T10:29:32.873Z</time></trkpt><trkpt lat="42.1516133" lon="14.5816933"><ele>194.0</ele><time>2026-04-18T10:29:35.874Z</time></trkpt><trkpt lat="42.1516133" lon="14.58157"><ele>194.5</ele><time>2026-04-18T10:29:38.874Z</time></trkpt><trkpt lat="42.1516183" lon="14.5814783"><ele>195.0</ele><time>2026-04-18T10:29:40.874Z</time></trkpt><trkpt lat="42.1516233" lon="14.58139"><ele>195.0</ele><time>2026-04-18T10:29:42.874Z</time></trkpt><trkpt lat="42.1516267" lon="14.5812917"><ele>195.0</ele><time>2026-04-18T10:29:44.873Z</time></trkpt><trkpt lat="42.1516233" lon="14.5811883"><ele>195.0</ele><time>2026-04-18T10:29:47.874Z</time></trkpt><trkpt lat="42.1516283" lon="14.5810817"><ele>195.0</ele><time>2026-04-18T10:29:50.874Z</time></trkpt><trkpt lat="42.1516767" lon="14.580985"><ele>195.0</ele><time>2026-04-18T10:29:53.874Z</time></trkpt><trkpt lat="42.1517083" lon="14.580885"><ele>195.0</ele><time>2026-04-18T10:29:57.873Z</time></trkpt><trkpt lat="42.1517167" lon="14.5807917"><ele>195.5</ele><time>2026-04-18T10:30:00.874Z</time></trkpt><trkpt lat="42.1517233" lon="14.5806883"><ele>196.0</ele><time>2026-04-18T10:30:04.874Z</time></trkpt><trkpt lat="42.1517483" lon="14.5806067"><ele>196.5</ele><time>2026-04-18T10:30:08.874Z</time></trkpt><trkpt lat="42.1518367" lon="14.580515"><ele>197.0</ele><time>2026-04-18T10:31:13.131Z</time></trkpt><trkpt lat="42.15177" lon="14.580515"><ele>197.5</ele><time>2026-04-18T10:31:27.875Z</time></trkpt><trkpt lat="42.1517067" lon="14.5805267"><ele>198.0</ele><time>2026-04-18T10:31:36.875Z</time></trkpt><trkpt lat="42.1516733" lon="14.580445"><ele>198.0</ele><time>2026-04-18T10:33:33.874Z</time></trkpt><trkpt lat="42.151675" lon="14.58035"><ele>198.0</ele><time>2026-04-18T10:33:37.875Z</time></trkpt><trkpt lat="42.1516833" lon="14.5802617"><ele>198.0</ele><time>2026-04-18T10:33:42.874Z</time></trkpt><trkpt lat="42.1516217" lon="14.5802067"><ele>198.0</ele><time>2026-04-18T10:33:47.875Z</time></trkpt><trkpt lat="42.1515283" lon="14.5801933"><ele>198.0</ele><time>2026-04-18T10:33:50.875Z</time></trkpt><trkpt lat="42.1514517" lon="14.5801717"><ele>198.0</ele><time>2026-04-18T10:33:53.875Z</time></trkpt><trkpt lat="42.15138" lon="14.5801533"><ele>199.83333333333334</ele><time>2026-04-18T10:33:56.875Z</time></trkpt><trkpt lat="42.1512967" lon="14.58015"><ele>201.66666666666669</ele><time>2026-04-18T10:33:59.874Z</time></trkpt><trkpt lat="42.1512067" lon="14.5801517"><ele>203.5</ele><time>2026-04-18T10:34:02.875Z</time></trkpt><trkpt lat="42.15114" lon="14.580145"><ele>205.33333333333334</ele><time>2026-04-18T10:34:04.874Z</time></trkpt><trkpt lat="42.1510467" lon="14.58014"><ele>207.16666666666669</ele><time>2026-04-18T10:34:07.875Z</time></trkpt><trkpt lat="42.1509617" lon="14.5801333"><ele>209.0</ele><time>2026-04-18T10:34:10.875Z</time></trkpt><trkpt lat="42.1508967" lon="14.5801367"><ele>209.0</ele><time>2026-04-18T10:34:12.875Z</time></trkpt><trkpt lat="42.15083" lon="14.5801367"><ele>209.0</ele><time>2026-04-18T10:34:14.875Z</time></trkpt><trkpt lat="42.1507667" lon="14.5801367"><ele>209.0</ele><time>2026-04-18T10:34:16.875Z</time></trkpt><trkpt lat="42.1506767" lon="14.5801317"><ele>209.0</ele><time>2026-04-18T10:34:19.875Z</time></trkpt><trkpt lat="42.1506117" lon="14.5801333"><ele>209.0</ele><time>2026-04-18T10:34:21.875Z</time></trkpt><trkpt lat="42.1505317" lon="14.5801333"><ele>209.0</ele><time>2026-04-18T10:34:24.874Z</time></trkpt><trkpt lat="42.150455" lon="14.5801317"><ele>209.0</ele><time>2026-04-18T10:34:27.874Z</time></trkpt><trkpt lat="42.1503867" lon="14.5801283"><ele>209.66666666666669</ele><time>2026-04-18T10:34:30.874Z</time></trkpt><trkpt lat="42.1503133" lon="14.5801367"><ele>210.33333333333334</ele><time>2026-04-18T10:34:33.875Z</time></trkpt><trkpt lat="42.15023" lon="14.5801667"><ele>211.0</ele><time>2026-04-18T10:34:36.875Z</time></trkpt><trkpt lat="42.1501633" lon="14.5802117"><ele>211.66666666666669</ele><time>2026-04-18T10:34:38.874Z</time></trkpt><trkpt lat="42.1501117" lon="14.5803017"><ele>212.33333333333334</ele><time>2026-04-18T10:34:41.875Z</time></trkpt><trkpt lat="42.1500917" lon="14.5803917"><ele>213.0</ele><time>2026-04-18T10:34:43.875Z</time></trkpt><trkpt lat="42.1500767" lon="14.5804983"><ele>213.0</ele><time>2026-04-18T10:34:45.875Z</time></trkpt><trkpt lat="42.1500717" lon="14.58062"><ele>213.0</ele><time>2026-04-18T10:34:47.874Z</time></trkpt><trkpt lat="42.1500633" lon="14.58075"><ele>213.0</ele><time>2026-04-18T10:34:49.875Z</time></trkpt><trkpt lat="42.1500533" lon="14.5808817"><ele>213.0</ele><time>2026-04-18T10:34:51.874Z</time></trkpt><trkpt lat="42.1500417" lon="14.5810233"><ele>213.0</ele><time>2026-04-18T10:34:53.874Z</time></trkpt><trkpt lat="42.1500133" lon="14.5811367"><ele>212.4</ele><time>2026-04-18T10:34:55.874Z</time></trkpt><trkpt lat="42.1499217" lon="14.5811867"><ele>211.8</ele><time>2026-04-18T10:34:57.875Z</time></trkpt><trkpt lat="42.1498367" lon="14.5812417"><ele>211.2</ele><time>2026-04-18T10:34:59.875Z</time></trkpt><trkpt lat="42.1497667" lon="14.581325"><ele>210.6</ele><time>2026-04-18T10:35:01.875Z</time></trkpt><trkpt lat="42.1497133" lon="14.58143"><ele>210.0</ele><time>2026-04-18T10:35:03.875Z</time></trkpt><trkpt lat="42.1496667" lon="14.5815617"><ele>210.0</ele><time>2026-04-18T10:35:05.874Z</time></trkpt><trkpt lat="42.1496383" lon="14.5817017"><ele>210.0</ele><time>2026-04-18T10:35:07.875Z</time></trkpt><trkpt lat="42.1496117" lon="14.58186"><ele>210.0</ele><time>2026-04-18T10:35:09.875Z</time></trkpt><trkpt lat="42.1496" lon="14.5819467"><ele>210.0</ele><time>2026-04-18T10:35:10.875Z</time></trkpt><trkpt lat="42.1495683" lon="14.5821133"><ele>210.0</ele><time>2026-04-18T10:35:12.875Z</time></trkpt><trkpt lat="42.149555" lon="14.5821983"><ele>208.5</ele><time>2026-04-18T10:35:13.875Z</time></trkpt><trkpt lat="42.1495417" lon="14.5822833"><ele>207.0</ele><time>2026-04-18T10:35:14.875Z</time></trkpt><trkpt lat="42.14952" lon="14.5824267"><ele>205.5</ele><time>2026-04-18T10:35:16.875Z</time></trkpt><trkpt lat="42.1495567" lon="14.582505"><ele>204.0</ele><time>2026-04-18T10:35:18.874Z</time></trkpt><trkpt lat="42.1496467" lon="14.5825383"><ele>202.5</ele><time>2026-04-18T10:35:21.874Z</time></trkpt><trkpt lat="42.1497" lon="14.58262"><ele>201.0</ele><time>2026-04-18T10:35:24.875Z</time></trkpt><trkpt lat="42.1497" lon="14.5827233"><ele>201.0</ele><time>2026-04-18T10:35:27.875Z</time></trkpt><trkpt lat="42.1497117" lon="14.5828383"><ele>201.0</ele><time>2026-04-18T10:35:30.875Z</time></trkpt><trkpt lat="42.1497133" lon="14.5829433"><ele>201.0</ele><time>2026-04-18T10:35:33.875Z</time></trkpt><trkpt lat="42.1497017" lon="14.583045"><ele>201.0</ele><time>2026-04-18T10:35:35.875Z</time></trkpt><trkpt lat="42.1497383" lon="14.5831633"><ele>201.0</ele><time>2026-04-18T10:35:38.875Z</time></trkpt><trkpt lat="42.1497833" lon="14.5832367"><ele>201.0</ele><time>2026-04-18T10:35:40.874Z</time></trkpt><trkpt lat="42.1498217" lon="14.5833417"><ele>199.60000000000002</ele><time>2026-04-18T10:35:43.875Z</time></trkpt><trkpt lat="42.149875" lon="14.5834217"><ele>198.2</ele><time>2026-04-18T10:35:47.875Z</time></trkpt><trkpt lat="42.1499583" lon="14.5834767"><ele>196.8</ele><time>2026-04-18T10:35:50.875Z</time></trkpt><trkpt lat="42.1500317" lon="14.583565"><ele>195.39999999999998</ele><time>2026-04-18T10:35:52.875Z</time></trkpt><trkpt lat="42.150095" lon="14.5836733"><ele>194.0</ele><time>2026-04-18T10:35:54.874Z</time></trkpt><trkpt lat="42.150165" lon="14.5837467"><ele>197.2</ele><time>2026-04-18T10:35:56.874Z</time></trkpt><trkpt lat="42.1502367" lon="14.58382"><ele>200.39999999999998</ele><time>2026-04-18T10:35:58.875Z</time></trkpt><trkpt lat="42.1503117" lon="14.5838833"><ele>203.6</ele><time>2026-04-18T10:36:00.874Z</time></trkpt><trkpt lat="42.1503867" lon="14.5839783"><ele>206.8</ele><time>2026-04-18T10:36:02.875Z</time></trkpt><trkpt lat="42.150455" lon="14.584065"><ele>210.0</ele><time>2026-04-18T10:36:05.875Z</time></trkpt><trkpt lat="42.15046" lon="14.5841667"><ele>210.0</ele><time>2026-04-18T10:36:07.875Z</time></trkpt><trkpt lat="42.1504283" lon="14.5842783"><ele>210.0</ele><time>2026-04-18T10:36:09.875Z</time></trkpt><trkpt lat="42.15043" lon="14.5843767"><ele>210.0</ele><time>2026-04-18T10:36:11.875Z</time></trkpt><trkpt lat="42.150465" lon="14.5845133"><ele>210.0</ele><time>2026-04-18T10:36:13.874Z</time></trkpt><trkpt lat="42.1505033" lon="14.5846083"><ele>210.0</ele><time>2026-04-18T10:36:15.875Z</time></trkpt><trkpt lat="42.150505" lon="14.584725"><ele>210.0</ele><time>2026-04-18T10:36:18.874Z</time></trkpt><trkpt lat="42.1504833" lon="14.5848317"><ele>209.16666666666666</ele><time>2026-04-18T10:36:20.874Z</time></trkpt><trkpt lat="42.1504267" lon="14.5849367"><ele>208.33333333333331</ele><time>2026-04-18T10:36:22.875Z</time></trkpt><trkpt lat="42.1503617" lon="14.585"><ele>207.5</ele><time>2026-04-18T10:36:24.875Z</time></trkpt><trkpt lat="42.1503033" lon="14.5850483"><ele>206.66666666666666</ele><time>2026-04-18T10:36:26.874Z</time></trkpt><trkpt lat="42.1502333" lon="14.5850983"><ele>205.83333333333331</ele><time>2026-04-18T10:36:29.875Z</time></trkpt><trkpt lat="42.1501417" lon="14.5851667"><ele>205.0</ele><time>2026-04-18T10:36:33.874Z</time></trkpt><trkpt lat="42.150065" lon="14.58519"><ele>205.0</ele><time>2026-04-18T10:36:37.874Z</time></trkpt><trkpt lat="42.15" lon="14.5852017"><ele>205.0</ele><time>2026-04-18T10:36:41.875Z</time></trkpt></trkseg></trk></gpx>